<?xml version="1.0" encoding="UTF-8" standalone="no" ?>
<gpx xmlns="http://www.topografix.com/GPX/1/1" xmlns:xsi="http://www.w3.org/2001/XMLSchema-instance" xsi:schemaLocation="http://www.topografix.com/GPX/1/1 http://www.topografix.com/GPX/1/1/gpx.xsd" version="1.1" creator="VisuGPX - https://www.visugpx.com">
  <metadata>
    <name>Fontaine de l'ours par singles</name>
  </metadata>
  <trk>
    <name><![CDATA[Fontaine de l'ours par singles]]></name>
    <trkseg>
      <trkpt lat="44.5621" lon="6.47439">
        <ele>995.343229</ele>
        <time>2026-07-27T07:12:50.000Z</time>
      </trkpt>
      <trkpt lat="44.56212" lon="6.47443">
        <ele>995.343229</ele>
        <time>2026-07-27T07:12:53.000Z</time>
      </trkpt>
      <trkpt lat="44.56213" lon="6.47446">
        <ele>995.343229</ele>
        <time>2026-07-27T07:12:54.000Z</time>
      </trkpt>
      <trkpt lat="44.56214" lon="6.47449">
        <ele>995.343229</ele>
        <time>2026-07-27T07:12:55.000Z</time>
      </trkpt>
      <trkpt lat="44.56215" lon="6.4745">
        <ele>995.343229</ele>
        <time>2026-07-27T07:12:56.000Z</time>
      </trkpt>
      <trkpt lat="44.56215" lon="6.47452">
        <ele>995.343229</ele>
        <time>2026-07-27T07:12:57.000Z</time>
      </trkpt>
      <trkpt lat="44.56219" lon="6.47454">
        <ele>995.343229</ele>
        <time>2026-07-27T07:12:58.000Z</time>
      </trkpt>
      <trkpt lat="44.56221" lon="6.47455">
        <ele>995.343229</ele>
        <time>2026-07-27T07:12:59.000Z</time>
      </trkpt>
      <trkpt lat="44.56222" lon="6.47456">
        <ele>995.343229</ele>
        <time>2026-07-27T07:13:00.000Z</time>
      </trkpt>
      <trkpt lat="44.56223" lon="6.47457">
        <ele>995.343229</ele>
        <time>2026-07-27T07:13:01.000Z</time>
      </trkpt>
      <trkpt lat="44.56223" lon="6.47459">
        <ele>995.343229</ele>
        <time>2026-07-27T07:13:02.000Z</time>
      </trkpt>
      <trkpt lat="44.56225" lon="6.47459">
        <ele>995.343229</ele>
        <time>2026-07-27T07:13:03.000Z</time>
      </trkpt>
      <trkpt lat="44.5623" lon="6.47462">
        <ele>995.343229</ele>
        <time>2026-07-27T07:13:04.000Z</time>
      </trkpt>
      <trkpt lat="44.56235" lon="6.47465">
        <ele>995.343229</ele>
        <time>2026-07-27T07:13:05.000Z</time>
      </trkpt>
      <trkpt lat="44.5624" lon="6.47466">
        <ele>995.343229</ele>
        <time>2026-07-27T07:13:06.000Z</time>
      </trkpt>
      <trkpt lat="44.56245" lon="6.47467">
        <ele>995.343229</ele>
        <time>2026-07-27T07:13:07.000Z</time>
      </trkpt>
      <trkpt lat="44.56249" lon="6.47468">
        <ele>995.343229</ele>
        <time>2026-07-27T07:13:08.000Z</time>
      </trkpt>
      <trkpt lat="44.56252" lon="6.47469">
        <ele>995.343229</ele>
        <time>2026-07-27T07:13:09.000Z</time>
      </trkpt>
      <trkpt lat="44.56255" lon="6.47472">
        <ele>995.343229</ele>
        <time>2026-07-27T07:13:10.000Z</time>
      </trkpt>
      <trkpt lat="44.56258" lon="6.47474">
        <ele>995.343229</ele>
        <time>2026-07-27T07:13:11.000Z</time>
      </trkpt>
      <trkpt lat="44.56261" lon="6.47475">
        <ele>995.343229</ele>
        <time>2026-07-27T07:13:12.000Z</time>
      </trkpt>
      <trkpt lat="44.56263" lon="6.47477">
        <ele>995.343229</ele>
        <time>2026-07-27T07:13:13.000Z</time>
      </trkpt>
      <trkpt lat="44.56263" lon="6.4748">
        <ele>995.343229</ele>
        <time>2026-07-27T07:13:14.000Z</time>
      </trkpt>
      <trkpt lat="44.56263" lon="6.4748">
        <ele>995.343229</ele>
        <time>2026-07-27T07:13:14.000Z</time>
      </trkpt>
      <trkpt lat="44.5626" lon="6.47483">
        <ele>995.343229</ele>
        <time>2026-07-27T07:13:15.000Z</time>
      </trkpt>
      <trkpt lat="44.56258" lon="6.47486">
        <ele>995.343229</ele>
        <time>2026-07-27T07:13:16.000Z</time>
      </trkpt>
      <trkpt lat="44.56258" lon="6.47486">
        <ele>995.343229</ele>
        <time>2026-07-27T07:13:16.000Z</time>
      </trkpt>
      <trkpt lat="44.56255" lon="6.4749">
        <ele>995.343229</ele>
        <time>2026-07-27T07:13:17.000Z</time>
      </trkpt>
      <trkpt lat="44.56255" lon="6.4749">
        <ele>995.343229</ele>
        <time>2026-07-27T07:13:17.000Z</time>
      </trkpt>
      <trkpt lat="44.56253" lon="6.47495">
        <ele>995.343229</ele>
        <time>2026-07-27T07:13:18.000Z</time>
      </trkpt>
      <trkpt lat="44.56253" lon="6.47495">
        <ele>995.343229</ele>
        <time>2026-07-27T07:13:18.000Z</time>
      </trkpt>
      <trkpt lat="44.56247" lon="6.47507">
        <ele>995.343229</ele>
        <time>2026-07-27T07:13:19.000Z</time>
      </trkpt>
      <trkpt lat="44.56247" lon="6.47507">
        <ele>995.343229</ele>
        <time>2026-07-27T07:13:19.000Z</time>
      </trkpt>
      <trkpt lat="44.56243" lon="6.47515">
        <ele>994.257074</ele>
        <time>2026-07-27T07:13:20.000Z</time>
      </trkpt>
      <trkpt lat="44.56243" lon="6.47515">
        <ele>994.257074</ele>
        <time>2026-07-27T07:13:20.000Z</time>
      </trkpt>
      <trkpt lat="44.56239" lon="6.47523">
        <ele>993.183171</ele>
        <time>2026-07-27T07:13:21.000Z</time>
      </trkpt>
      <trkpt lat="44.56239" lon="6.47523">
        <ele>993.183171</ele>
        <time>2026-07-27T07:13:21.000Z</time>
      </trkpt>
      <trkpt lat="44.56236" lon="6.47532">
        <ele>992.084159</ele>
        <time>2026-07-27T07:13:22.000Z</time>
      </trkpt>
      <trkpt lat="44.56236" lon="6.47532">
        <ele>992.084159</ele>
        <time>2026-07-27T07:13:22.000Z</time>
      </trkpt>
      <trkpt lat="44.56232" lon="6.47542">
        <ele>990.888081</ele>
        <time>2026-07-27T07:13:23.000Z</time>
      </trkpt>
      <trkpt lat="44.56232" lon="6.47542">
        <ele>990.888081</ele>
        <time>2026-07-27T07:13:23.000Z</time>
      </trkpt>
      <trkpt lat="44.56228" lon="6.47552">
        <ele>989.54691</ele>
        <time>2026-07-27T07:13:24.000Z</time>
      </trkpt>
      <trkpt lat="44.56228" lon="6.47552">
        <ele>989.54691</ele>
        <time>2026-07-27T07:13:24.000Z</time>
      </trkpt>
      <trkpt lat="44.56224" lon="6.47561">
        <ele>988.478598</ele>
        <time>2026-07-27T07:13:25.000Z</time>
      </trkpt>
      <trkpt lat="44.56224" lon="6.47561">
        <ele>988.478598</ele>
        <time>2026-07-27T07:13:25.000Z</time>
      </trkpt>
      <trkpt lat="44.56219" lon="6.47575">
        <ele>986.679681</ele>
        <time>2026-07-27T07:13:26.000Z</time>
      </trkpt>
      <trkpt lat="44.56219" lon="6.47575">
        <ele>986.679681</ele>
        <time>2026-07-27T07:13:26.000Z</time>
      </trkpt>
      <trkpt lat="44.56215" lon="6.47586">
        <ele>985.288859</ele>
        <time>2026-07-27T07:13:27.000Z</time>
      </trkpt>
      <trkpt lat="44.56215" lon="6.47586">
        <ele>985.288859</ele>
        <time>2026-07-27T07:13:27.000Z</time>
      </trkpt>
      <trkpt lat="44.56212" lon="6.47593">
        <ele>984.392047</ele>
        <time>2026-07-27T07:13:28.000Z</time>
      </trkpt>
      <trkpt lat="44.56212" lon="6.47593">
        <ele>984.392047</ele>
        <time>2026-07-27T07:13:28.000Z</time>
      </trkpt>
      <trkpt lat="44.56205" lon="6.47605">
        <ele>982.791515</ele>
        <time>2026-07-27T07:13:29.000Z</time>
      </trkpt>
      <trkpt lat="44.56205" lon="6.47605">
        <ele>982.791515</ele>
        <time>2026-07-27T07:13:29.000Z</time>
      </trkpt>
      <trkpt lat="44.56201" lon="6.47613">
        <ele>981.688334</ele>
        <time>2026-07-27T07:13:30.000Z</time>
      </trkpt>
      <trkpt lat="44.56201" lon="6.47613">
        <ele>981.688334</ele>
        <time>2026-07-27T07:13:30.000Z</time>
      </trkpt>
      <trkpt lat="44.56196" lon="6.4762">
        <ele>980.626629</ele>
        <time>2026-07-27T07:13:31.000Z</time>
      </trkpt>
      <trkpt lat="44.56196" lon="6.4762">
        <ele>980.626629</ele>
        <time>2026-07-27T07:13:31.000Z</time>
      </trkpt>
      <trkpt lat="44.56192" lon="6.47626">
        <ele>979.687409</ele>
        <time>2026-07-27T07:13:32.000Z</time>
      </trkpt>
      <trkpt lat="44.56192" lon="6.47626">
        <ele>979.687409</ele>
        <time>2026-07-27T07:13:32.000Z</time>
      </trkpt>
      <trkpt lat="44.56189" lon="6.47632">
        <ele>978.837142</ele>
        <time>2026-07-27T07:13:33.000Z</time>
      </trkpt>
      <trkpt lat="44.56186" lon="6.47638">
        <ele>978.112885</ele>
        <time>2026-07-27T07:13:34.000Z</time>
      </trkpt>
      <trkpt lat="44.56184" lon="6.47643">
        <ele>977.39372</ele>
        <time>2026-07-27T07:13:35.000Z</time>
      </trkpt>
      <trkpt lat="44.56183" lon="6.47649">
        <ele>976.78034</ele>
        <time>2026-07-27T07:13:36.000Z</time>
      </trkpt>
      <trkpt lat="44.56183" lon="6.47654">
        <ele>976.251345</ele>
        <time>2026-07-27T07:13:37.000Z</time>
      </trkpt>
      <trkpt lat="44.56185" lon="6.47658">
        <ele>975.718766</ele>
        <time>2026-07-27T07:13:38.000Z</time>
      </trkpt>
      <trkpt lat="44.56187" lon="6.47661">
        <ele>975.226916</ele>
        <time>2026-07-27T07:13:39.000Z</time>
      </trkpt>
      <trkpt lat="44.56189" lon="6.47664">
        <ele>974.785301</ele>
        <time>2026-07-27T07:13:40.000Z</time>
      </trkpt>
      <trkpt lat="44.5619" lon="6.47665">
        <ele>974.556494</ele>
        <time>2026-07-27T07:13:41.000Z</time>
      </trkpt>
      <trkpt lat="44.56193" lon="6.47666">
        <ele>974.070818</ele>
        <time>2026-07-27T07:13:44.000Z</time>
      </trkpt>
      <trkpt lat="44.56194" lon="6.47666">
        <ele>973.960745</ele>
        <time>2026-07-27T07:13:45.000Z</time>
      </trkpt>
      <trkpt lat="44.56194" lon="6.47666">
        <ele>973.949766</ele>
        <time>2026-07-27T07:13:46.000Z</time>
      </trkpt>
      <trkpt lat="44.56194" lon="6.47666">
        <ele>973.884337</ele>
        <time>2026-07-27T07:13:47.000Z</time>
      </trkpt>
      <trkpt lat="44.56195" lon="6.47666">
        <ele>973.821733</ele>
        <time>2026-07-27T07:13:48.000Z</time>
      </trkpt>
      <trkpt lat="44.56201" lon="6.47665">
        <ele>972.874077</ele>
        <time>2026-07-27T07:13:49.000Z</time>
      </trkpt>
      <trkpt lat="44.56206" lon="6.47664">
        <ele>972.111112</ele>
        <time>2026-07-27T07:13:50.000Z</time>
      </trkpt>
      <trkpt lat="44.56208" lon="6.47663">
        <ele>971.755185</ele>
        <time>2026-07-27T07:13:51.000Z</time>
      </trkpt>
      <trkpt lat="44.56216" lon="6.47663">
        <ele>970.568514</ele>
        <time>2026-07-27T07:13:52.000Z</time>
      </trkpt>
      <trkpt lat="44.56219" lon="6.47664">
        <ele>970.043585</ele>
        <time>2026-07-27T07:13:53.000Z</time>
      </trkpt>
      <trkpt lat="44.56223" lon="6.47664">
        <ele>969.519575</ele>
        <time>2026-07-27T07:13:54.000Z</time>
      </trkpt>
      <trkpt lat="44.56225" lon="6.47664">
        <ele>969.10123</ele>
        <time>2026-07-27T07:13:55.000Z</time>
      </trkpt>
      <trkpt lat="44.56228" lon="6.47664">
        <ele>968.623561</ele>
        <time>2026-07-27T07:13:56.000Z</time>
      </trkpt>
      <trkpt lat="44.56228" lon="6.47664">
        <ele>968.623561</ele>
        <time>2026-07-27T07:13:56.000Z</time>
      </trkpt>
      <trkpt lat="44.56231" lon="6.47664">
        <ele>968.160129</ele>
        <time>2026-07-27T07:13:57.000Z</time>
      </trkpt>
      <trkpt lat="44.56236" lon="6.47663">
        <ele>967.219261</ele>
        <time>2026-07-27T07:13:58.000Z</time>
      </trkpt>
      <trkpt lat="44.56245" lon="6.47662">
        <ele>964.866184</ele>
        <time>2026-07-27T07:13:59.000Z</time>
      </trkpt>
      <trkpt lat="44.56245" lon="6.47662">
        <ele>964.866184</ele>
        <time>2026-07-27T07:13:59.000Z</time>
      </trkpt>
      <trkpt lat="44.5625" lon="6.47661">
        <ele>963.77321</ele>
        <time>2026-07-27T07:14:00.000Z</time>
      </trkpt>
      <trkpt lat="44.56255" lon="6.47661">
        <ele>962.37971</ele>
        <time>2026-07-27T07:14:01.000Z</time>
      </trkpt>
      <trkpt lat="44.56255" lon="6.47661">
        <ele>962.37971</ele>
        <time>2026-07-27T07:14:01.000Z</time>
      </trkpt>
      <trkpt lat="44.56259" lon="6.47662">
        <ele>961.385122</ele>
        <time>2026-07-27T07:14:02.000Z</time>
      </trkpt>
      <trkpt lat="44.56259" lon="6.47662">
        <ele>961.385122</ele>
        <time>2026-07-27T07:14:02.000Z</time>
      </trkpt>
      <trkpt lat="44.56263" lon="6.47664">
        <ele>960.369643</ele>
        <time>2026-07-27T07:14:03.000Z</time>
      </trkpt>
      <trkpt lat="44.56263" lon="6.47664">
        <ele>960.369643</ele>
        <time>2026-07-27T07:14:03.000Z</time>
      </trkpt>
      <trkpt lat="44.56266" lon="6.47666">
        <ele>959.319043</ele>
        <time>2026-07-27T07:14:04.000Z</time>
      </trkpt>
      <trkpt lat="44.56266" lon="6.47666">
        <ele>959.319043</ele>
        <time>2026-07-27T07:14:04.000Z</time>
      </trkpt>
      <trkpt lat="44.5627" lon="6.47668">
        <ele>958.287319</ele>
        <time>2026-07-27T07:14:05.000Z</time>
      </trkpt>
      <trkpt lat="44.5627" lon="6.47668">
        <ele>958.287319</ele>
        <time>2026-07-27T07:14:05.000Z</time>
      </trkpt>
      <trkpt lat="44.56272" lon="6.4767">
        <ele>957.604678</ele>
        <time>2026-07-27T07:14:06.000Z</time>
      </trkpt>
      <trkpt lat="44.56272" lon="6.4767">
        <ele>957.604678</ele>
        <time>2026-07-27T07:14:06.000Z</time>
      </trkpt>
      <trkpt lat="44.56274" lon="6.47673">
        <ele>956.947104</ele>
        <time>2026-07-27T07:14:07.000Z</time>
      </trkpt>
      <trkpt lat="44.56274" lon="6.47673">
        <ele>956.947104</ele>
        <time>2026-07-27T07:14:07.000Z</time>
      </trkpt>
      <trkpt lat="44.56276" lon="6.47676">
        <ele>956.125958</ele>
        <time>2026-07-27T07:14:08.000Z</time>
      </trkpt>
      <trkpt lat="44.56276" lon="6.47676">
        <ele>956.125958</ele>
        <time>2026-07-27T07:14:08.000Z</time>
      </trkpt>
      <trkpt lat="44.56278" lon="6.47679">
        <ele>955.390262</ele>
        <time>2026-07-27T07:14:09.000Z</time>
      </trkpt>
      <trkpt lat="44.5628" lon="6.47682">
        <ele>954.650507</ele>
        <time>2026-07-27T07:14:10.000Z</time>
      </trkpt>
      <trkpt lat="44.56281" lon="6.47685">
        <ele>954.127462</ele>
        <time>2026-07-27T07:14:11.000Z</time>
      </trkpt>
      <trkpt lat="44.56282" lon="6.47687">
        <ele>953.55748</ele>
        <time>2026-07-27T07:14:12.000Z</time>
      </trkpt>
      <trkpt lat="44.56283" lon="6.47691">
        <ele>952.78869</ele>
        <time>2026-07-27T07:14:13.000Z</time>
      </trkpt>
      <trkpt lat="44.56284" lon="6.47696">
        <ele>951.968524</ele>
        <time>2026-07-27T07:14:14.000Z</time>
      </trkpt>
      <trkpt lat="44.56285" lon="6.477">
        <ele>951.070669</ele>
        <time>2026-07-27T07:14:15.000Z</time>
      </trkpt>
      <trkpt lat="44.56286" lon="6.47704">
        <ele>950.352719</ele>
        <time>2026-07-27T07:14:16.000Z</time>
      </trkpt>
      <trkpt lat="44.56287" lon="6.47708">
        <ele>949.540309</ele>
        <time>2026-07-27T07:14:17.000Z</time>
      </trkpt>
      <trkpt lat="44.56288" lon="6.47712">
        <ele>948.854388</ele>
        <time>2026-07-27T07:14:18.000Z</time>
      </trkpt>
      <trkpt lat="44.56289" lon="6.47716">
        <ele>947.876897</ele>
        <time>2026-07-27T07:14:19.000Z</time>
      </trkpt>
      <trkpt lat="44.5629" lon="6.47721">
        <ele>947.039505</ele>
        <time>2026-07-27T07:14:20.000Z</time>
      </trkpt>
      <trkpt lat="44.56291" lon="6.47726">
        <ele>946.082358</ele>
        <time>2026-07-27T07:14:21.000Z</time>
      </trkpt>
      <trkpt lat="44.56291" lon="6.4773">
        <ele>945.312556</ele>
        <time>2026-07-27T07:14:22.000Z</time>
      </trkpt>
      <trkpt lat="44.56291" lon="6.47733">
        <ele>944.689383</ele>
        <time>2026-07-27T07:14:23.000Z</time>
      </trkpt>
      <trkpt lat="44.56291" lon="6.47738">
        <ele>943.919581</ele>
        <time>2026-07-27T07:14:24.000Z</time>
      </trkpt>
      <trkpt lat="44.56292" lon="6.47741">
        <ele>943.215534</ele>
        <time>2026-07-27T07:14:25.000Z</time>
      </trkpt>
      <trkpt lat="44.56292" lon="6.47747">
        <ele>942.256907</ele>
        <time>2026-07-27T07:14:26.000Z</time>
      </trkpt>
      <trkpt lat="44.56292" lon="6.47752">
        <ele>941.264157</ele>
        <time>2026-07-27T07:14:27.000Z</time>
      </trkpt>
      <trkpt lat="44.56293" lon="6.47758">
        <ele>940.235291</ele>
        <time>2026-07-27T07:14:28.000Z</time>
      </trkpt>
      <trkpt lat="44.56293" lon="6.47758">
        <ele>940.235291</ele>
        <time>2026-07-27T07:14:28.000Z</time>
      </trkpt>
      <trkpt lat="44.56294" lon="6.47764">
        <ele>939.098462</ele>
        <time>2026-07-27T07:14:29.000Z</time>
      </trkpt>
      <trkpt lat="44.56294" lon="6.47764">
        <ele>939.098462</ele>
        <time>2026-07-27T07:14:29.000Z</time>
      </trkpt>
      <trkpt lat="44.56295" lon="6.47769">
        <ele>938.128512</ele>
        <time>2026-07-27T07:14:30.000Z</time>
      </trkpt>
      <trkpt lat="44.56295" lon="6.47769">
        <ele>938.128512</ele>
        <time>2026-07-27T07:14:30.000Z</time>
      </trkpt>
      <trkpt lat="44.56295" lon="6.47773">
        <ele>937.313955</ele>
        <time>2026-07-27T07:14:31.000Z</time>
      </trkpt>
      <trkpt lat="44.56295" lon="6.47773">
        <ele>937.313955</ele>
        <time>2026-07-27T07:14:31.000Z</time>
      </trkpt>
      <trkpt lat="44.56296" lon="6.47777">
        <ele>936.573625</ele>
        <time>2026-07-27T07:14:32.000Z</time>
      </trkpt>
      <trkpt lat="44.56296" lon="6.47777">
        <ele>936.573625</ele>
        <time>2026-07-27T07:14:32.000Z</time>
      </trkpt>
      <trkpt lat="44.56297" lon="6.47782">
        <ele>935.621679</ele>
        <time>2026-07-27T07:14:33.000Z</time>
      </trkpt>
      <trkpt lat="44.56297" lon="6.47782">
        <ele>935.621679</ele>
        <time>2026-07-27T07:14:33.000Z</time>
      </trkpt>
      <trkpt lat="44.56296" lon="6.47786">
        <ele>934.957351</ele>
        <time>2026-07-27T07:14:34.000Z</time>
      </trkpt>
      <trkpt lat="44.56296" lon="6.47786">
        <ele>934.957351</ele>
        <time>2026-07-27T07:14:34.000Z</time>
      </trkpt>
      <trkpt lat="44.56296" lon="6.4779">
        <ele>934.132564</ele>
        <time>2026-07-27T07:14:35.000Z</time>
      </trkpt>
      <trkpt lat="44.56296" lon="6.4779">
        <ele>934.132564</ele>
        <time>2026-07-27T07:14:35.000Z</time>
      </trkpt>
      <trkpt lat="44.56297" lon="6.47795">
        <ele>933.26767</ele>
        <time>2026-07-27T07:14:36.000Z</time>
      </trkpt>
      <trkpt lat="44.56297" lon="6.47795">
        <ele>933.26767</ele>
        <time>2026-07-27T07:14:36.000Z</time>
      </trkpt>
      <trkpt lat="44.56297" lon="6.47798">
        <ele>932.611394</ele>
        <time>2026-07-27T07:14:37.000Z</time>
      </trkpt>
      <trkpt lat="44.56297" lon="6.47798">
        <ele>932.611394</ele>
        <time>2026-07-27T07:14:37.000Z</time>
      </trkpt>
      <trkpt lat="44.56298" lon="6.47803">
        <ele>931.780213</ele>
        <time>2026-07-27T07:14:38.000Z</time>
      </trkpt>
      <trkpt lat="44.56298" lon="6.47803">
        <ele>931.780213</ele>
        <time>2026-07-27T07:14:38.000Z</time>
      </trkpt>
      <trkpt lat="44.56298" lon="6.47807">
        <ele>930.967217</ele>
        <time>2026-07-27T07:14:39.000Z</time>
      </trkpt>
      <trkpt lat="44.56298" lon="6.47807">
        <ele>930.967217</ele>
        <time>2026-07-27T07:14:39.000Z</time>
      </trkpt>
      <trkpt lat="44.56299" lon="6.47813">
        <ele>929.89919</ele>
        <time>2026-07-27T07:14:40.000Z</time>
      </trkpt>
      <trkpt lat="44.56299" lon="6.47813">
        <ele>929.89919</ele>
        <time>2026-07-27T07:14:40.000Z</time>
      </trkpt>
      <trkpt lat="44.56298" lon="6.47819">
        <ele>928.888276</ele>
        <time>2026-07-27T07:14:41.000Z</time>
      </trkpt>
      <trkpt lat="44.56298" lon="6.47819">
        <ele>928.888276</ele>
        <time>2026-07-27T07:14:41.000Z</time>
      </trkpt>
      <trkpt lat="44.56295" lon="6.47823">
        <ele>927.767366</ele>
        <time>2026-07-27T07:14:42.000Z</time>
      </trkpt>
      <trkpt lat="44.56295" lon="6.47823">
        <ele>927.767366</ele>
        <time>2026-07-27T07:14:42.000Z</time>
      </trkpt>
      <trkpt lat="44.56292" lon="6.47828">
        <ele>926.539724</ele>
        <time>2026-07-27T07:14:43.000Z</time>
      </trkpt>
      <trkpt lat="44.56292" lon="6.47828">
        <ele>926.539724</ele>
        <time>2026-07-27T07:14:43.000Z</time>
      </trkpt>
      <trkpt lat="44.56288" lon="6.47832">
        <ele>925.349972</ele>
        <time>2026-07-27T07:14:44.000Z</time>
      </trkpt>
      <trkpt lat="44.56288" lon="6.47832">
        <ele>925.349972</ele>
        <time>2026-07-27T07:14:44.000Z</time>
      </trkpt>
      <trkpt lat="44.56283" lon="6.47835">
        <ele>923.928604</ele>
        <time>2026-07-27T07:14:45.000Z</time>
      </trkpt>
      <trkpt lat="44.56283" lon="6.47835">
        <ele>923.928604</ele>
        <time>2026-07-27T07:14:45.000Z</time>
      </trkpt>
      <trkpt lat="44.56278" lon="6.47837">
        <ele>922.666135</ele>
        <time>2026-07-27T07:14:46.000Z</time>
      </trkpt>
      <trkpt lat="44.56278" lon="6.47837">
        <ele>922.666135</ele>
        <time>2026-07-27T07:14:46.000Z</time>
      </trkpt>
      <trkpt lat="44.56273" lon="6.4784">
        <ele>921.34847</ele>
        <time>2026-07-27T07:14:47.000Z</time>
      </trkpt>
      <trkpt lat="44.56273" lon="6.4784">
        <ele>921.34847</ele>
        <time>2026-07-27T07:14:47.000Z</time>
      </trkpt>
      <trkpt lat="44.56268" lon="6.47843">
        <ele>920.839189</ele>
        <time>2026-07-27T07:14:48.000Z</time>
      </trkpt>
      <trkpt lat="44.56268" lon="6.47843">
        <ele>920.839189</ele>
        <time>2026-07-27T07:14:48.000Z</time>
      </trkpt>
      <trkpt lat="44.56263" lon="6.47847">
        <ele>920.2906</ele>
        <time>2026-07-27T07:14:49.000Z</time>
      </trkpt>
      <trkpt lat="44.56263" lon="6.47847">
        <ele>920.2906</ele>
        <time>2026-07-27T07:14:49.000Z</time>
      </trkpt>
      <trkpt lat="44.56259" lon="6.47851">
        <ele>919.81267</ele>
        <time>2026-07-27T07:14:50.000Z</time>
      </trkpt>
      <trkpt lat="44.56259" lon="6.47851">
        <ele>919.81267</ele>
        <time>2026-07-27T07:14:50.000Z</time>
      </trkpt>
      <trkpt lat="44.56255" lon="6.47856">
        <ele>919.330642</ele>
        <time>2026-07-27T07:14:51.000Z</time>
      </trkpt>
      <trkpt lat="44.56255" lon="6.47856">
        <ele>919.330642</ele>
        <time>2026-07-27T07:14:51.000Z</time>
      </trkpt>
      <trkpt lat="44.56252" lon="6.47863">
        <ele>918.824791</ele>
        <time>2026-07-27T07:14:52.000Z</time>
      </trkpt>
      <trkpt lat="44.56252" lon="6.47863">
        <ele>918.824791</ele>
        <time>2026-07-27T07:14:52.000Z</time>
      </trkpt>
      <trkpt lat="44.5625" lon="6.47868">
        <ele>918.39225</ele>
        <time>2026-07-27T07:14:53.000Z</time>
      </trkpt>
      <trkpt lat="44.5625" lon="6.47868">
        <ele>918.39225</ele>
        <time>2026-07-27T07:14:53.000Z</time>
      </trkpt>
      <trkpt lat="44.56248" lon="6.47875">
        <ele>917.907114</ele>
        <time>2026-07-27T07:14:54.000Z</time>
      </trkpt>
      <trkpt lat="44.56248" lon="6.47875">
        <ele>917.907114</ele>
        <time>2026-07-27T07:14:54.000Z</time>
      </trkpt>
      <trkpt lat="44.56245" lon="6.4788">
        <ele>917.500187</ele>
        <time>2026-07-27T07:14:55.000Z</time>
      </trkpt>
      <trkpt lat="44.56245" lon="6.4788">
        <ele>917.500187</ele>
        <time>2026-07-27T07:14:55.000Z</time>
      </trkpt>
      <trkpt lat="44.56241" lon="6.47882">
        <ele>917.066396</ele>
        <time>2026-07-27T07:14:56.000Z</time>
      </trkpt>
      <trkpt lat="44.56241" lon="6.47882">
        <ele>917.066396</ele>
        <time>2026-07-27T07:14:56.000Z</time>
      </trkpt>
      <trkpt lat="44.56237" lon="6.47884">
        <ele>916.703916</ele>
        <time>2026-07-27T07:14:57.000Z</time>
      </trkpt>
      <trkpt lat="44.56237" lon="6.47884">
        <ele>916.703916</ele>
        <time>2026-07-27T07:14:57.000Z</time>
      </trkpt>
      <trkpt lat="44.56232" lon="6.47884">
        <ele>916.240489</ele>
        <time>2026-07-27T07:14:58.000Z</time>
      </trkpt>
      <trkpt lat="44.56232" lon="6.47884">
        <ele>916.240489</ele>
        <time>2026-07-27T07:14:58.000Z</time>
      </trkpt>
      <trkpt lat="44.56227" lon="6.47883">
        <ele>915.775934</ele>
        <time>2026-07-27T07:14:59.000Z</time>
      </trkpt>
      <trkpt lat="44.56227" lon="6.47883">
        <ele>915.775934</ele>
        <time>2026-07-27T07:14:59.000Z</time>
      </trkpt>
      <trkpt lat="44.56221" lon="6.47882">
        <ele>915.272087</ele>
        <time>2026-07-27T07:15:00.000Z</time>
      </trkpt>
      <trkpt lat="44.56221" lon="6.47882">
        <ele>915.272087</ele>
        <time>2026-07-27T07:15:00.000Z</time>
      </trkpt>
      <trkpt lat="44.56217" lon="6.4788">
        <ele>914.832881</ele>
        <time>2026-07-27T07:15:01.000Z</time>
      </trkpt>
      <trkpt lat="44.56217" lon="6.4788">
        <ele>914.832881</ele>
        <time>2026-07-27T07:15:01.000Z</time>
      </trkpt>
      <trkpt lat="44.56213" lon="6.47878">
        <ele>914.412618</ele>
        <time>2026-07-27T07:15:02.000Z</time>
      </trkpt>
      <trkpt lat="44.56213" lon="6.47878">
        <ele>914.412618</ele>
        <time>2026-07-27T07:15:02.000Z</time>
      </trkpt>
      <trkpt lat="44.56208" lon="6.47875">
        <ele>913.95053</ele>
        <time>2026-07-27T07:15:03.000Z</time>
      </trkpt>
      <trkpt lat="44.56208" lon="6.47875">
        <ele>913.95053</ele>
        <time>2026-07-27T07:15:03.000Z</time>
      </trkpt>
      <trkpt lat="44.56204" lon="6.47872">
        <ele>913.549667</ele>
        <time>2026-07-27T07:15:04.000Z</time>
      </trkpt>
      <trkpt lat="44.56204" lon="6.47872">
        <ele>913.549667</ele>
        <time>2026-07-27T07:15:04.000Z</time>
      </trkpt>
      <trkpt lat="44.562" lon="6.47869">
        <ele>913.135537</ele>
        <time>2026-07-27T07:15:05.000Z</time>
      </trkpt>
      <trkpt lat="44.562" lon="6.47869">
        <ele>913.135537</ele>
        <time>2026-07-27T07:15:05.000Z</time>
      </trkpt>
      <trkpt lat="44.56197" lon="6.47866">
        <ele>912.759787</ele>
        <time>2026-07-27T07:15:06.000Z</time>
      </trkpt>
      <trkpt lat="44.56193" lon="6.47863">
        <ele>912.35245</ele>
        <time>2026-07-27T07:15:07.000Z</time>
      </trkpt>
      <trkpt lat="44.56193" lon="6.47863">
        <ele>912.35245</ele>
        <time>2026-07-27T07:15:07.000Z</time>
      </trkpt>
      <trkpt lat="44.56189" lon="6.47858">
        <ele>911.874518</ele>
        <time>2026-07-27T07:15:08.000Z</time>
      </trkpt>
      <trkpt lat="44.56189" lon="6.47858">
        <ele>911.874518</ele>
        <time>2026-07-27T07:15:08.000Z</time>
      </trkpt>
      <trkpt lat="44.56184" lon="6.47854">
        <ele>911.365939</ele>
        <time>2026-07-27T07:15:09.000Z</time>
      </trkpt>
      <trkpt lat="44.5618" lon="6.4785">
        <ele>910.888007</ele>
        <time>2026-07-27T07:15:10.000Z</time>
      </trkpt>
      <trkpt lat="44.56175" lon="6.47846">
        <ele>910.341076</ele>
        <time>2026-07-27T07:15:11.000Z</time>
      </trkpt>
      <trkpt lat="44.56171" lon="6.47842">
        <ele>909.888397</ele>
        <time>2026-07-27T07:15:12.000Z</time>
      </trkpt>
      <trkpt lat="44.56171" lon="6.47842">
        <ele>909.888397</ele>
        <time>2026-07-27T07:15:12.000Z</time>
      </trkpt>
      <trkpt lat="44.56167" lon="6.47839">
        <ele>909.451649</ele>
        <time>2026-07-27T07:15:13.000Z</time>
      </trkpt>
      <trkpt lat="44.56163" lon="6.47837">
        <ele>909.117153</ele>
        <time>2026-07-27T07:15:14.000Z</time>
      </trkpt>
      <trkpt lat="44.56161" lon="6.47836">
        <ele>908.894004</ele>
        <time>2026-07-27T07:15:15.000Z</time>
      </trkpt>
      <trkpt lat="44.56161" lon="6.47836">
        <ele>908.894004</ele>
        <time>2026-07-27T07:15:15.000Z</time>
      </trkpt>
      <trkpt lat="44.56158" lon="6.47835">
        <ele>908.635213</ele>
        <time>2026-07-27T07:15:16.000Z</time>
      </trkpt>
      <trkpt lat="44.56155" lon="6.47834">
        <ele>908.342219</ele>
        <time>2026-07-27T07:15:17.000Z</time>
      </trkpt>
      <trkpt lat="44.56155" lon="6.47834">
        <ele>908.342219</ele>
        <time>2026-07-27T07:15:17.000Z</time>
      </trkpt>
      <trkpt lat="44.56152" lon="6.47832">
        <ele>908.036113</ele>
        <time>2026-07-27T07:15:18.000Z</time>
      </trkpt>
      <trkpt lat="44.56151" lon="6.47832">
        <ele>907.92418</ele>
        <time>2026-07-27T07:15:19.000Z</time>
      </trkpt>
      <trkpt lat="44.56151" lon="6.47832">
        <ele>907.92418</ele>
        <time>2026-07-27T07:15:19.000Z</time>
      </trkpt>
      <trkpt lat="44.5615" lon="6.47832">
        <ele>907.78454</ele>
        <time>2026-07-27T07:15:20.000Z</time>
      </trkpt>
      <trkpt lat="44.5615" lon="6.47832">
        <ele>907.78454</ele>
        <time>2026-07-27T07:15:20.000Z</time>
      </trkpt>
      <trkpt lat="44.56149" lon="6.47833">
        <ele>907.693505</ele>
        <time>2026-07-27T07:15:21.000Z</time>
      </trkpt>
      <trkpt lat="44.56149" lon="6.47834">
        <ele>907.587855</ele>
        <time>2026-07-27T07:15:22.000Z</time>
      </trkpt>
      <trkpt lat="44.56149" lon="6.47834">
        <ele>907.587855</ele>
        <time>2026-07-27T07:15:22.000Z</time>
      </trkpt>
      <trkpt lat="44.5615" lon="6.47836">
        <ele>907.391505</ele>
        <time>2026-07-27T07:15:23.000Z</time>
      </trkpt>
      <trkpt lat="44.56153" lon="6.4784">
        <ele>907.0597</ele>
        <time>2026-07-27T07:15:24.000Z</time>
      </trkpt>
      <trkpt lat="44.56153" lon="6.4784">
        <ele>907.0597</ele>
        <time>2026-07-27T07:15:24.000Z</time>
      </trkpt>
      <trkpt lat="44.56156" lon="6.47844">
        <ele>906.664943</ele>
        <time>2026-07-27T07:15:25.000Z</time>
      </trkpt>
      <trkpt lat="44.56159" lon="6.47848">
        <ele>906.297556</ele>
        <time>2026-07-27T07:15:26.000Z</time>
      </trkpt>
      <trkpt lat="44.56159" lon="6.47848">
        <ele>906.297556</ele>
        <time>2026-07-27T07:15:26.000Z</time>
      </trkpt>
      <trkpt lat="44.56162" lon="6.47853">
        <ele>905.869775</ele>
        <time>2026-07-27T07:15:27.000Z</time>
      </trkpt>
      <trkpt lat="44.56162" lon="6.47853">
        <ele>905.869775</ele>
        <time>2026-07-27T07:15:27.000Z</time>
      </trkpt>
      <trkpt lat="44.56165" lon="6.47858">
        <ele>905.407137</ele>
        <time>2026-07-27T07:15:28.000Z</time>
      </trkpt>
      <trkpt lat="44.56168" lon="6.47864">
        <ele>904.954352</ele>
        <time>2026-07-27T07:15:29.000Z</time>
      </trkpt>
      <trkpt lat="44.56168" lon="6.47864">
        <ele>904.954352</ele>
        <time>2026-07-27T07:15:29.000Z</time>
      </trkpt>
      <trkpt lat="44.56171" lon="6.47869">
        <ele>904.594194</ele>
        <time>2026-07-27T07:15:30.000Z</time>
      </trkpt>
      <trkpt lat="44.56171" lon="6.47869">
        <ele>904.594194</ele>
        <time>2026-07-27T07:15:30.000Z</time>
      </trkpt>
      <trkpt lat="44.56175" lon="6.47875">
        <ele>904.394939</ele>
        <time>2026-07-27T07:15:31.000Z</time>
      </trkpt>
      <trkpt lat="44.56175" lon="6.47875">
        <ele>904.394939</ele>
        <time>2026-07-27T07:15:31.000Z</time>
      </trkpt>
      <trkpt lat="44.56178" lon="6.47881">
        <ele>904.184085</ele>
        <time>2026-07-27T07:15:32.000Z</time>
      </trkpt>
      <trkpt lat="44.56178" lon="6.47881">
        <ele>904.184085</ele>
        <time>2026-07-27T07:15:32.000Z</time>
      </trkpt>
      <trkpt lat="44.56181" lon="6.47887">
        <ele>903.982615</ele>
        <time>2026-07-27T07:15:33.000Z</time>
      </trkpt>
      <trkpt lat="44.56181" lon="6.47887">
        <ele>903.982615</ele>
        <time>2026-07-27T07:15:33.000Z</time>
      </trkpt>
      <trkpt lat="44.56184" lon="6.47892">
        <ele>903.792343</ele>
        <time>2026-07-27T07:15:34.000Z</time>
      </trkpt>
      <trkpt lat="44.56184" lon="6.47892">
        <ele>903.792343</ele>
        <time>2026-07-27T07:15:34.000Z</time>
      </trkpt>
      <trkpt lat="44.56187" lon="6.47899">
        <ele>903.570514</ele>
        <time>2026-07-27T07:15:35.000Z</time>
      </trkpt>
      <trkpt lat="44.56187" lon="6.47899">
        <ele>903.570514</ele>
        <time>2026-07-27T07:15:35.000Z</time>
      </trkpt>
      <trkpt lat="44.56191" lon="6.47905">
        <ele>903.34853</ele>
        <time>2026-07-27T07:15:36.000Z</time>
      </trkpt>
      <trkpt lat="44.56191" lon="6.47905">
        <ele>903.34853</ele>
        <time>2026-07-27T07:15:36.000Z</time>
      </trkpt>
      <trkpt lat="44.56194" lon="6.47911">
        <ele>903.130994</ele>
        <time>2026-07-27T07:15:37.000Z</time>
      </trkpt>
      <trkpt lat="44.56194" lon="6.47911">
        <ele>903.130994</ele>
        <time>2026-07-27T07:15:37.000Z</time>
      </trkpt>
      <trkpt lat="44.56198" lon="6.47919">
        <ele>902.866136</ele>
        <time>2026-07-27T07:15:38.000Z</time>
      </trkpt>
      <trkpt lat="44.56198" lon="6.47919">
        <ele>902.866136</ele>
        <time>2026-07-27T07:15:38.000Z</time>
      </trkpt>
      <trkpt lat="44.56201" lon="6.47928">
        <ele>902.595744</ele>
        <time>2026-07-27T07:15:39.000Z</time>
      </trkpt>
      <trkpt lat="44.56201" lon="6.47928">
        <ele>902.595744</ele>
        <time>2026-07-27T07:15:39.000Z</time>
      </trkpt>
      <trkpt lat="44.56206" lon="6.47936">
        <ele>902.289765</ele>
        <time>2026-07-27T07:15:40.000Z</time>
      </trkpt>
      <trkpt lat="44.56206" lon="6.47936">
        <ele>902.289765</ele>
        <time>2026-07-27T07:15:40.000Z</time>
      </trkpt>
      <trkpt lat="44.56212" lon="6.47943">
        <ele>901.98962</ele>
        <time>2026-07-27T07:15:41.000Z</time>
      </trkpt>
      <trkpt lat="44.56212" lon="6.47943">
        <ele>901.98962</ele>
        <time>2026-07-27T07:15:41.000Z</time>
      </trkpt>
      <trkpt lat="44.56218" lon="6.47949">
        <ele>901.705353</ele>
        <time>2026-07-27T07:15:42.000Z</time>
      </trkpt>
      <trkpt lat="44.56218" lon="6.47949">
        <ele>901.705353</ele>
        <time>2026-07-27T07:15:42.000Z</time>
      </trkpt>
      <trkpt lat="44.56224" lon="6.47954">
        <ele>901.447531</ele>
        <time>2026-07-27T07:15:43.000Z</time>
      </trkpt>
      <trkpt lat="44.56229" lon="6.47959">
        <ele>901.192114</ele>
        <time>2026-07-27T07:15:44.000Z</time>
      </trkpt>
      <trkpt lat="44.56231" lon="6.47965">
        <ele>901.019766</ele>
        <time>2026-07-27T07:15:45.000Z</time>
      </trkpt>
      <trkpt lat="44.56231" lon="6.4797">
        <ele>900.874436</ele>
        <time>2026-07-27T07:15:46.000Z</time>
      </trkpt>
      <trkpt lat="44.56231" lon="6.4797">
        <ele>900.874436</ele>
        <time>2026-07-27T07:15:46.000Z</time>
      </trkpt>
      <trkpt lat="44.56227" lon="6.47975">
        <ele>900.684382</ele>
        <time>2026-07-27T07:15:47.000Z</time>
      </trkpt>
      <trkpt lat="44.56222" lon="6.47979">
        <ele>900.450999</ele>
        <time>2026-07-27T07:15:48.000Z</time>
      </trkpt>
      <trkpt lat="44.56216" lon="6.47981">
        <ele>900.20605</ele>
        <time>2026-07-27T07:15:49.000Z</time>
      </trkpt>
      <trkpt lat="44.56209" lon="6.4798">
        <ele>899.93454</ele>
        <time>2026-07-27T07:15:50.000Z</time>
      </trkpt>
      <trkpt lat="44.562" lon="6.47976">
        <ele>899.595809</ele>
        <time>2026-07-27T07:15:51.000Z</time>
      </trkpt>
      <trkpt lat="44.562" lon="6.47976">
        <ele>899.595809</ele>
        <time>2026-07-27T07:15:51.000Z</time>
      </trkpt>
      <trkpt lat="44.56191" lon="6.47973">
        <ele>899.227829</ele>
        <time>2026-07-27T07:15:52.000Z</time>
      </trkpt>
      <trkpt lat="44.56182" lon="6.4797">
        <ele>898.858838</ele>
        <time>2026-07-27T07:15:53.000Z</time>
      </trkpt>
      <trkpt lat="44.56182" lon="6.4797">
        <ele>898.858838</ele>
        <time>2026-07-27T07:15:53.000Z</time>
      </trkpt>
      <trkpt lat="44.56172" lon="6.47968">
        <ele>898.452927</ele>
        <time>2026-07-27T07:15:54.000Z</time>
      </trkpt>
      <trkpt lat="44.56172" lon="6.47968">
        <ele>898.452927</ele>
        <time>2026-07-27T07:15:54.000Z</time>
      </trkpt>
      <trkpt lat="44.56162" lon="6.47966">
        <ele>898.064877</ele>
        <time>2026-07-27T07:15:55.000Z</time>
      </trkpt>
      <trkpt lat="44.56162" lon="6.47966">
        <ele>898.064877</ele>
        <time>2026-07-27T07:15:55.000Z</time>
      </trkpt>
      <trkpt lat="44.56152" lon="6.47965">
        <ele>897.636569</ele>
        <time>2026-07-27T07:15:56.000Z</time>
      </trkpt>
      <trkpt lat="44.56152" lon="6.47965">
        <ele>897.636569</ele>
        <time>2026-07-27T07:15:56.000Z</time>
      </trkpt>
      <trkpt lat="44.56141" lon="6.47963">
        <ele>896.550282</ele>
        <time>2026-07-27T07:15:57.000Z</time>
      </trkpt>
      <trkpt lat="44.56141" lon="6.47963">
        <ele>896.550282</ele>
        <time>2026-07-27T07:15:57.000Z</time>
      </trkpt>
      <trkpt lat="44.5613" lon="6.47962">
        <ele>895.381347</ele>
        <time>2026-07-27T07:15:58.000Z</time>
      </trkpt>
      <trkpt lat="44.5613" lon="6.47962">
        <ele>895.381347</ele>
        <time>2026-07-27T07:15:58.000Z</time>
      </trkpt>
      <trkpt lat="44.56119" lon="6.4796">
        <ele>894.181105</ele>
        <time>2026-07-27T07:15:59.000Z</time>
      </trkpt>
      <trkpt lat="44.56119" lon="6.4796">
        <ele>894.181105</ele>
        <time>2026-07-27T07:15:59.000Z</time>
      </trkpt>
      <trkpt lat="44.56108" lon="6.47958">
        <ele>893.011431</ele>
        <time>2026-07-27T07:16:00.000Z</time>
      </trkpt>
      <trkpt lat="44.56108" lon="6.47958">
        <ele>893.011431</ele>
        <time>2026-07-27T07:16:00.000Z</time>
      </trkpt>
      <trkpt lat="44.56098" lon="6.47956">
        <ele>892.004455</ele>
        <time>2026-07-27T07:16:01.000Z</time>
      </trkpt>
      <trkpt lat="44.56098" lon="6.47956">
        <ele>892.004455</ele>
        <time>2026-07-27T07:16:01.000Z</time>
      </trkpt>
      <trkpt lat="44.5609" lon="6.47955">
        <ele>891.116829</ele>
        <time>2026-07-27T07:16:02.000Z</time>
      </trkpt>
      <trkpt lat="44.5609" lon="6.47955">
        <ele>891.116829</ele>
        <time>2026-07-27T07:16:02.000Z</time>
      </trkpt>
      <trkpt lat="44.56082" lon="6.47953">
        <ele>890.312323</ele>
        <time>2026-07-27T07:16:03.000Z</time>
      </trkpt>
      <trkpt lat="44.56082" lon="6.47953">
        <ele>890.312323</ele>
        <time>2026-07-27T07:16:03.000Z</time>
      </trkpt>
      <trkpt lat="44.56076" lon="6.47953">
        <ele>889.700635</ele>
        <time>2026-07-27T07:16:04.000Z</time>
      </trkpt>
      <trkpt lat="44.56076" lon="6.47953">
        <ele>889.700635</ele>
        <time>2026-07-27T07:16:04.000Z</time>
      </trkpt>
      <trkpt lat="44.56072" lon="6.47952">
        <ele>889.186939</ele>
        <time>2026-07-27T07:16:05.000Z</time>
      </trkpt>
      <trkpt lat="44.56072" lon="6.47952">
        <ele>889.186939</ele>
        <time>2026-07-27T07:16:05.000Z</time>
      </trkpt>
      <trkpt lat="44.56067" lon="6.47953">
        <ele>888.745095</ele>
        <time>2026-07-27T07:16:06.000Z</time>
      </trkpt>
      <trkpt lat="44.56067" lon="6.47953">
        <ele>888.745095</ele>
        <time>2026-07-27T07:16:06.000Z</time>
      </trkpt>
      <trkpt lat="44.56065" lon="6.47954">
        <ele>888.45583</ele>
        <time>2026-07-27T07:16:07.000Z</time>
      </trkpt>
      <trkpt lat="44.56065" lon="6.47954">
        <ele>888.45583</ele>
        <time>2026-07-27T07:16:07.000Z</time>
      </trkpt>
      <trkpt lat="44.56062" lon="6.47956">
        <ele>888.17607</ele>
        <time>2026-07-27T07:16:08.000Z</time>
      </trkpt>
      <trkpt lat="44.56062" lon="6.47956">
        <ele>888.17607</ele>
        <time>2026-07-27T07:16:08.000Z</time>
      </trkpt>
      <trkpt lat="44.5606" lon="6.47958">
        <ele>887.903064</ele>
        <time>2026-07-27T07:16:09.000Z</time>
      </trkpt>
      <trkpt lat="44.5606" lon="6.47958">
        <ele>887.903064</ele>
        <time>2026-07-27T07:16:09.000Z</time>
      </trkpt>
      <trkpt lat="44.56059" lon="6.47962">
        <ele>887.565458</ele>
        <time>2026-07-27T07:16:10.000Z</time>
      </trkpt>
      <trkpt lat="44.56059" lon="6.47962">
        <ele>887.565458</ele>
        <time>2026-07-27T07:16:10.000Z</time>
      </trkpt>
      <trkpt lat="44.56057" lon="6.47967">
        <ele>887.142224</ele>
        <time>2026-07-27T07:16:11.000Z</time>
      </trkpt>
      <trkpt lat="44.56057" lon="6.47967">
        <ele>887.142224</ele>
        <time>2026-07-27T07:16:11.000Z</time>
      </trkpt>
      <trkpt lat="44.56056" lon="6.47972">
        <ele>886.750753</ele>
        <time>2026-07-27T07:16:12.000Z</time>
      </trkpt>
      <trkpt lat="44.56056" lon="6.47972">
        <ele>886.750753</ele>
        <time>2026-07-27T07:16:12.000Z</time>
      </trkpt>
      <trkpt lat="44.56053" lon="6.47976">
        <ele>886.337123</ele>
        <time>2026-07-27T07:16:13.000Z</time>
      </trkpt>
      <trkpt lat="44.56053" lon="6.47976">
        <ele>886.337123</ele>
        <time>2026-07-27T07:16:13.000Z</time>
      </trkpt>
      <trkpt lat="44.56051" lon="6.4798">
        <ele>885.964726</ele>
        <time>2026-07-27T07:16:14.000Z</time>
      </trkpt>
      <trkpt lat="44.56051" lon="6.4798">
        <ele>885.964726</ele>
        <time>2026-07-27T07:16:14.000Z</time>
      </trkpt>
      <trkpt lat="44.56047" lon="6.47984">
        <ele>885.479919</ele>
        <time>2026-07-27T07:16:15.000Z</time>
      </trkpt>
      <trkpt lat="44.56043" lon="6.47987">
        <ele>884.978965</ele>
        <time>2026-07-27T07:16:16.000Z</time>
      </trkpt>
      <trkpt lat="44.56043" lon="6.47987">
        <ele>884.978965</ele>
        <time>2026-07-27T07:16:16.000Z</time>
      </trkpt>
      <trkpt lat="44.56038" lon="6.4799">
        <ele>884.440788</ele>
        <time>2026-07-27T07:16:17.000Z</time>
      </trkpt>
      <trkpt lat="44.56038" lon="6.4799">
        <ele>884.440788</ele>
        <time>2026-07-27T07:16:17.000Z</time>
      </trkpt>
      <trkpt lat="44.56033" lon="6.47994">
        <ele>883.788605</ele>
        <time>2026-07-27T07:16:18.000Z</time>
      </trkpt>
      <trkpt lat="44.56033" lon="6.47994">
        <ele>883.788605</ele>
        <time>2026-07-27T07:16:18.000Z</time>
      </trkpt>
      <trkpt lat="44.56027" lon="6.47997">
        <ele>883.094943</ele>
        <time>2026-07-27T07:16:19.000Z</time>
      </trkpt>
      <trkpt lat="44.56027" lon="6.47997">
        <ele>883.094943</ele>
        <time>2026-07-27T07:16:19.000Z</time>
      </trkpt>
      <trkpt lat="44.56021" lon="6.48001">
        <ele>882.427101</ele>
        <time>2026-07-27T07:16:20.000Z</time>
      </trkpt>
      <trkpt lat="44.56021" lon="6.48001">
        <ele>882.427101</ele>
        <time>2026-07-27T07:16:20.000Z</time>
      </trkpt>
      <trkpt lat="44.56016" lon="6.48005">
        <ele>881.825244</ele>
        <time>2026-07-27T07:16:21.000Z</time>
      </trkpt>
      <trkpt lat="44.56016" lon="6.48005">
        <ele>881.825244</ele>
        <time>2026-07-27T07:16:21.000Z</time>
      </trkpt>
      <trkpt lat="44.56011" lon="6.48011">
        <ele>881.172905</ele>
        <time>2026-07-27T07:16:22.000Z</time>
      </trkpt>
      <trkpt lat="44.56011" lon="6.48011">
        <ele>881.172905</ele>
        <time>2026-07-27T07:16:22.000Z</time>
      </trkpt>
      <trkpt lat="44.56007" lon="6.48017">
        <ele>880.544687</ele>
        <time>2026-07-27T07:16:23.000Z</time>
      </trkpt>
      <trkpt lat="44.56007" lon="6.48017">
        <ele>880.544687</ele>
        <time>2026-07-27T07:16:23.000Z</time>
      </trkpt>
      <trkpt lat="44.56003" lon="6.48023">
        <ele>879.945108</ele>
        <time>2026-07-27T07:16:24.000Z</time>
      </trkpt>
      <trkpt lat="44.56003" lon="6.48023">
        <ele>879.945108</ele>
        <time>2026-07-27T07:16:24.000Z</time>
      </trkpt>
      <trkpt lat="44.55999" lon="6.48029">
        <ele>879.334283</ele>
        <time>2026-07-27T07:16:25.000Z</time>
      </trkpt>
      <trkpt lat="44.55999" lon="6.48029">
        <ele>879.334283</ele>
        <time>2026-07-27T07:16:25.000Z</time>
      </trkpt>
      <trkpt lat="44.55996" lon="6.48036">
        <ele>878.70019</ele>
        <time>2026-07-27T07:16:26.000Z</time>
      </trkpt>
      <trkpt lat="44.55996" lon="6.48036">
        <ele>878.70019</ele>
        <time>2026-07-27T07:16:26.000Z</time>
      </trkpt>
      <trkpt lat="44.55993" lon="6.48044">
        <ele>878.212238</ele>
        <time>2026-07-27T07:16:27.000Z</time>
      </trkpt>
      <trkpt lat="44.55993" lon="6.48044">
        <ele>878.212238</ele>
        <time>2026-07-27T07:16:27.000Z</time>
      </trkpt>
      <trkpt lat="44.55989" lon="6.48052">
        <ele>877.703037</ele>
        <time>2026-07-27T07:16:28.000Z</time>
      </trkpt>
      <trkpt lat="44.55989" lon="6.48052">
        <ele>877.703037</ele>
        <time>2026-07-27T07:16:28.000Z</time>
      </trkpt>
      <trkpt lat="44.55986" lon="6.4806">
        <ele>877.194467</ele>
        <time>2026-07-27T07:16:29.000Z</time>
      </trkpt>
      <trkpt lat="44.55986" lon="6.4806">
        <ele>877.194467</ele>
        <time>2026-07-27T07:16:29.000Z</time>
      </trkpt>
      <trkpt lat="44.55981" lon="6.48068">
        <ele>876.632803</ele>
        <time>2026-07-27T07:16:30.000Z</time>
      </trkpt>
      <trkpt lat="44.55981" lon="6.48068">
        <ele>876.632803</ele>
        <time>2026-07-27T07:16:30.000Z</time>
      </trkpt>
      <trkpt lat="44.55978" lon="6.48077">
        <ele>876.074491</ele>
        <time>2026-07-27T07:16:31.000Z</time>
      </trkpt>
      <trkpt lat="44.55978" lon="6.48077">
        <ele>876.074491</ele>
        <time>2026-07-27T07:16:31.000Z</time>
      </trkpt>
      <trkpt lat="44.55974" lon="6.48085">
        <ele>875.534809</ele>
        <time>2026-07-27T07:16:32.000Z</time>
      </trkpt>
      <trkpt lat="44.55974" lon="6.48085">
        <ele>875.534809</ele>
        <time>2026-07-27T07:16:32.000Z</time>
      </trkpt>
      <trkpt lat="44.5597" lon="6.48094">
        <ele>874.9718</ele>
        <time>2026-07-27T07:16:33.000Z</time>
      </trkpt>
      <trkpt lat="44.5597" lon="6.48094">
        <ele>874.9718</ele>
        <time>2026-07-27T07:16:33.000Z</time>
      </trkpt>
      <trkpt lat="44.55966" lon="6.48103">
        <ele>874.350269</ele>
        <time>2026-07-27T07:16:34.000Z</time>
      </trkpt>
      <trkpt lat="44.55966" lon="6.48103">
        <ele>874.350269</ele>
        <time>2026-07-27T07:16:34.000Z</time>
      </trkpt>
      <trkpt lat="44.55962" lon="6.48113">
        <ele>873.729849</ele>
        <time>2026-07-27T07:16:35.000Z</time>
      </trkpt>
      <trkpt lat="44.55962" lon="6.48113">
        <ele>873.729849</ele>
        <time>2026-07-27T07:16:35.000Z</time>
      </trkpt>
      <trkpt lat="44.55959" lon="6.48124">
        <ele>873.107869</ele>
        <time>2026-07-27T07:16:36.000Z</time>
      </trkpt>
      <trkpt lat="44.55959" lon="6.48124">
        <ele>873.107869</ele>
        <time>2026-07-27T07:16:36.000Z</time>
      </trkpt>
      <trkpt lat="44.55954" lon="6.48147">
        <ele>871.741046</ele>
        <time>2026-07-27T07:16:38.000Z</time>
      </trkpt>
      <trkpt lat="44.55954" lon="6.48147">
        <ele>871.741046</ele>
        <time>2026-07-27T07:16:38.000Z</time>
      </trkpt>
      <trkpt lat="44.55951" lon="6.48174">
        <ele>870.270288</ele>
        <time>2026-07-27T07:16:40.000Z</time>
      </trkpt>
      <trkpt lat="44.55951" lon="6.48174">
        <ele>870.270288</ele>
        <time>2026-07-27T07:16:40.000Z</time>
      </trkpt>
      <trkpt lat="44.55949" lon="6.48199">
        <ele>868.858602</ele>
        <time>2026-07-27T07:16:42.000Z</time>
      </trkpt>
      <trkpt lat="44.55949" lon="6.48199">
        <ele>868.858602</ele>
        <time>2026-07-27T07:16:42.000Z</time>
      </trkpt>
      <trkpt lat="44.55949" lon="6.48216">
        <ele>867.902109</ele>
        <time>2026-07-27T07:16:42.000Z</time>
      </trkpt>
      <trkpt lat="44.55949" lon="6.48216">
        <ele>867.902109</ele>
        <time>2026-07-27T07:16:42.000Z</time>
      </trkpt>
      <trkpt lat="44.55948" lon="6.4823">
        <ele>867.129344</ele>
        <time>2026-07-27T07:16:43.000Z</time>
      </trkpt>
      <trkpt lat="44.55948" lon="6.4823">
        <ele>867.129344</ele>
        <time>2026-07-27T07:16:43.000Z</time>
      </trkpt>
      <trkpt lat="44.55948" lon="6.48238">
        <ele>866.725395</ele>
        <time>2026-07-27T07:16:44.000Z</time>
      </trkpt>
      <trkpt lat="44.55948" lon="6.48238">
        <ele>866.725395</ele>
        <time>2026-07-27T07:16:44.000Z</time>
      </trkpt>
      <trkpt lat="44.55947" lon="6.48257">
        <ele>865.678502</ele>
        <time>2026-07-27T07:16:45.000Z</time>
      </trkpt>
      <trkpt lat="44.55947" lon="6.48257">
        <ele>865.678502</ele>
        <time>2026-07-27T07:16:45.000Z</time>
      </trkpt>
      <trkpt lat="44.55945" lon="6.48269">
        <ele>864.994895</ele>
        <time>2026-07-27T07:16:46.000Z</time>
      </trkpt>
      <trkpt lat="44.55945" lon="6.48269">
        <ele>864.994895</ele>
        <time>2026-07-27T07:16:46.000Z</time>
      </trkpt>
      <trkpt lat="44.55941" lon="6.48279">
        <ele>864.267903</ele>
        <time>2026-07-27T07:16:47.000Z</time>
      </trkpt>
      <trkpt lat="44.55941" lon="6.48279">
        <ele>864.267903</ele>
        <time>2026-07-27T07:16:47.000Z</time>
      </trkpt>
      <trkpt lat="44.55938" lon="6.48288">
        <ele>863.603858</ele>
        <time>2026-07-27T07:16:48.000Z</time>
      </trkpt>
      <trkpt lat="44.55938" lon="6.48288">
        <ele>863.603858</ele>
        <time>2026-07-27T07:16:48.000Z</time>
      </trkpt>
      <trkpt lat="44.55934" lon="6.48295">
        <ele>863.046703</ele>
        <time>2026-07-27T07:16:49.000Z</time>
      </trkpt>
      <trkpt lat="44.55934" lon="6.48295">
        <ele>863.046703</ele>
        <time>2026-07-27T07:16:49.000Z</time>
      </trkpt>
      <trkpt lat="44.55929" lon="6.48301">
        <ele>862.449175</ele>
        <time>2026-07-27T07:16:50.000Z</time>
      </trkpt>
      <trkpt lat="44.55929" lon="6.48301">
        <ele>862.449175</ele>
        <time>2026-07-27T07:16:50.000Z</time>
      </trkpt>
      <trkpt lat="44.55924" lon="6.48305">
        <ele>861.902059</ele>
        <time>2026-07-27T07:16:51.000Z</time>
      </trkpt>
      <trkpt lat="44.55924" lon="6.48305">
        <ele>861.902059</ele>
        <time>2026-07-27T07:16:51.000Z</time>
      </trkpt>
      <trkpt lat="44.55919" lon="6.48306">
        <ele>861.416816</ele>
        <time>2026-07-27T07:16:52.000Z</time>
      </trkpt>
      <trkpt lat="44.55919" lon="6.48306">
        <ele>861.416816</ele>
        <time>2026-07-27T07:16:52.000Z</time>
      </trkpt>
      <trkpt lat="44.55912" lon="6.48303">
        <ele>860.833501</ele>
        <time>2026-07-27T07:16:53.000Z</time>
      </trkpt>
      <trkpt lat="44.55912" lon="6.48303">
        <ele>860.833501</ele>
        <time>2026-07-27T07:16:53.000Z</time>
      </trkpt>
      <trkpt lat="44.55905" lon="6.48298">
        <ele>860.08161</ele>
        <time>2026-07-27T07:16:54.000Z</time>
      </trkpt>
      <trkpt lat="44.55905" lon="6.48298">
        <ele>860.08161</ele>
        <time>2026-07-27T07:16:54.000Z</time>
      </trkpt>
      <trkpt lat="44.55899" lon="6.48291">
        <ele>859.362472</ele>
        <time>2026-07-27T07:16:55.000Z</time>
      </trkpt>
      <trkpt lat="44.55899" lon="6.48291">
        <ele>859.362472</ele>
        <time>2026-07-27T07:16:55.000Z</time>
      </trkpt>
      <trkpt lat="44.55892" lon="6.48284">
        <ele>858.595125</ele>
        <time>2026-07-27T07:16:56.000Z</time>
      </trkpt>
      <trkpt lat="44.55892" lon="6.48284">
        <ele>858.595125</ele>
        <time>2026-07-27T07:16:56.000Z</time>
      </trkpt>
      <trkpt lat="44.55885" lon="6.48277">
        <ele>857.849126</ele>
        <time>2026-07-27T07:16:57.000Z</time>
      </trkpt>
      <trkpt lat="44.55885" lon="6.48277">
        <ele>857.849126</ele>
        <time>2026-07-27T07:16:57.000Z</time>
      </trkpt>
      <trkpt lat="44.5588" lon="6.48271">
        <ele>857.192003</ele>
        <time>2026-07-27T07:16:58.000Z</time>
      </trkpt>
      <trkpt lat="44.5588" lon="6.48271">
        <ele>857.192003</ele>
        <time>2026-07-27T07:16:58.000Z</time>
      </trkpt>
      <trkpt lat="44.55874" lon="6.48264">
        <ele>856.502208</ele>
        <time>2026-07-27T07:16:59.000Z</time>
      </trkpt>
      <trkpt lat="44.55874" lon="6.48264">
        <ele>856.502208</ele>
        <time>2026-07-27T07:16:59.000Z</time>
      </trkpt>
      <trkpt lat="44.55867" lon="6.48258">
        <ele>855.80065</ele>
        <time>2026-07-27T07:17:00.000Z</time>
      </trkpt>
      <trkpt lat="44.55867" lon="6.48258">
        <ele>855.80065</ele>
        <time>2026-07-27T07:17:00.000Z</time>
      </trkpt>
      <trkpt lat="44.55861" lon="6.4825">
        <ele>855.066146</ele>
        <time>2026-07-27T07:17:01.000Z</time>
      </trkpt>
      <trkpt lat="44.55861" lon="6.4825">
        <ele>855.066146</ele>
        <time>2026-07-27T07:17:01.000Z</time>
      </trkpt>
      <trkpt lat="44.55856" lon="6.48243">
        <ele>854.404724</ele>
        <time>2026-07-27T07:17:02.000Z</time>
      </trkpt>
      <trkpt lat="44.55856" lon="6.48243">
        <ele>854.404724</ele>
        <time>2026-07-27T07:17:02.000Z</time>
      </trkpt>
      <trkpt lat="44.55842" lon="6.48226">
        <ele>852.731248</ele>
        <time>2026-07-27T07:17:04.000Z</time>
      </trkpt>
      <trkpt lat="44.55842" lon="6.48226">
        <ele>852.731248</ele>
        <time>2026-07-27T07:17:04.000Z</time>
      </trkpt>
      <trkpt lat="44.55838" lon="6.48221">
        <ele>852.244731</ele>
        <time>2026-07-27T07:17:05.000Z</time>
      </trkpt>
      <trkpt lat="44.55838" lon="6.48221">
        <ele>852.244731</ele>
        <time>2026-07-27T07:17:05.000Z</time>
      </trkpt>
      <trkpt lat="44.55833" lon="6.48215">
        <ele>851.628005</ele>
        <time>2026-07-27T07:17:06.000Z</time>
      </trkpt>
      <trkpt lat="44.55833" lon="6.48215">
        <ele>851.628005</ele>
        <time>2026-07-27T07:17:06.000Z</time>
      </trkpt>
      <trkpt lat="44.55827" lon="6.48209">
        <ele>850.942053</ele>
        <time>2026-07-27T07:17:07.000Z</time>
      </trkpt>
      <trkpt lat="44.55827" lon="6.48209">
        <ele>850.942053</ele>
        <time>2026-07-27T07:17:07.000Z</time>
      </trkpt>
      <trkpt lat="44.55821" lon="6.48203">
        <ele>850.308072</ele>
        <time>2026-07-27T07:17:08.000Z</time>
      </trkpt>
      <trkpt lat="44.55821" lon="6.48203">
        <ele>850.308072</ele>
        <time>2026-07-27T07:17:08.000Z</time>
      </trkpt>
      <trkpt lat="44.55815" lon="6.48198">
        <ele>849.661661</ele>
        <time>2026-07-27T07:17:09.000Z</time>
      </trkpt>
      <trkpt lat="44.55815" lon="6.48198">
        <ele>849.661661</ele>
        <time>2026-07-27T07:17:09.000Z</time>
      </trkpt>
      <trkpt lat="44.55809" lon="6.48195">
        <ele>849.064793</ele>
        <time>2026-07-27T07:17:10.000Z</time>
      </trkpt>
      <trkpt lat="44.55803" lon="6.48194">
        <ele>848.592145</ele>
        <time>2026-07-27T07:17:11.000Z</time>
      </trkpt>
      <trkpt lat="44.55803" lon="6.48194">
        <ele>848.592145</ele>
        <time>2026-07-27T07:17:11.000Z</time>
      </trkpt>
      <trkpt lat="44.55799" lon="6.48196">
        <ele>848.387649</ele>
        <time>2026-07-27T07:17:12.000Z</time>
      </trkpt>
      <trkpt lat="44.55799" lon="6.48196">
        <ele>848.387649</ele>
        <time>2026-07-27T07:17:12.000Z</time>
      </trkpt>
      <trkpt lat="44.55794" lon="6.48201">
        <ele>848.162576</ele>
        <time>2026-07-27T07:17:13.000Z</time>
      </trkpt>
      <trkpt lat="44.55794" lon="6.48201">
        <ele>848.162576</ele>
        <time>2026-07-27T07:17:13.000Z</time>
      </trkpt>
      <trkpt lat="44.5579" lon="6.48206">
        <ele>847.913961</ele>
        <time>2026-07-27T07:17:14.000Z</time>
      </trkpt>
      <trkpt lat="44.5579" lon="6.48206">
        <ele>847.913961</ele>
        <time>2026-07-27T07:17:14.000Z</time>
      </trkpt>
      <trkpt lat="44.55785" lon="6.4821">
        <ele>847.688888</ele>
        <time>2026-07-27T07:17:15.000Z</time>
      </trkpt>
      <trkpt lat="44.55785" lon="6.4821">
        <ele>847.688888</ele>
        <time>2026-07-27T07:17:15.000Z</time>
      </trkpt>
      <trkpt lat="44.55781" lon="6.48213">
        <ele>847.501779</ele>
        <time>2026-07-27T07:17:16.000Z</time>
      </trkpt>
      <trkpt lat="44.55781" lon="6.48213">
        <ele>847.501779</ele>
        <time>2026-07-27T07:17:16.000Z</time>
      </trkpt>
      <trkpt lat="44.55776" lon="6.48213">
        <ele>847.313027</ele>
        <time>2026-07-27T07:17:17.000Z</time>
      </trkpt>
      <trkpt lat="44.55776" lon="6.48213">
        <ele>847.313027</ele>
        <time>2026-07-27T07:17:17.000Z</time>
      </trkpt>
      <trkpt lat="44.55772" lon="6.48209">
        <ele>847.114169</ele>
        <time>2026-07-27T07:17:18.000Z</time>
      </trkpt>
      <trkpt lat="44.55772" lon="6.48209">
        <ele>847.114169</ele>
        <time>2026-07-27T07:17:18.000Z</time>
      </trkpt>
      <trkpt lat="44.55768" lon="6.48203">
        <ele>846.870447</ele>
        <time>2026-07-27T07:17:19.000Z</time>
      </trkpt>
      <trkpt lat="44.55768" lon="6.48203">
        <ele>846.870447</ele>
        <time>2026-07-27T07:17:19.000Z</time>
      </trkpt>
      <trkpt lat="44.55764" lon="6.48197">
        <ele>846.6179</ele>
        <time>2026-07-27T07:17:20.000Z</time>
      </trkpt>
      <trkpt lat="44.55764" lon="6.48197">
        <ele>846.6179</ele>
        <time>2026-07-27T07:17:20.000Z</time>
      </trkpt>
      <trkpt lat="44.5576" lon="6.48189">
        <ele>846.325146</ele>
        <time>2026-07-27T07:17:21.000Z</time>
      </trkpt>
      <trkpt lat="44.5576" lon="6.48189">
        <ele>846.325146</ele>
        <time>2026-07-27T07:17:21.000Z</time>
      </trkpt>
      <trkpt lat="44.55756" lon="6.48181">
        <ele>846.046597</ele>
        <time>2026-07-27T07:17:22.000Z</time>
      </trkpt>
      <trkpt lat="44.55756" lon="6.48181">
        <ele>846.046597</ele>
        <time>2026-07-27T07:17:22.000Z</time>
      </trkpt>
      <trkpt lat="44.55752" lon="6.48171">
        <ele>845.72729</ele>
        <time>2026-07-27T07:17:23.000Z</time>
      </trkpt>
      <trkpt lat="44.55752" lon="6.48171">
        <ele>845.72729</ele>
        <time>2026-07-27T07:17:23.000Z</time>
      </trkpt>
      <trkpt lat="44.55747" lon="6.48162">
        <ele>845.396445</ele>
        <time>2026-07-27T07:17:24.000Z</time>
      </trkpt>
      <trkpt lat="44.55747" lon="6.48162">
        <ele>845.396445</ele>
        <time>2026-07-27T07:17:24.000Z</time>
      </trkpt>
      <trkpt lat="44.55743" lon="6.48152">
        <ele>845.043674</ele>
        <time>2026-07-27T07:17:25.000Z</time>
      </trkpt>
      <trkpt lat="44.55743" lon="6.48152">
        <ele>845.043674</ele>
        <time>2026-07-27T07:17:25.000Z</time>
      </trkpt>
      <trkpt lat="44.55738" lon="6.48141">
        <ele>844.671968</ele>
        <time>2026-07-27T07:17:26.000Z</time>
      </trkpt>
      <trkpt lat="44.55738" lon="6.48141">
        <ele>844.671968</ele>
        <time>2026-07-27T07:17:26.000Z</time>
      </trkpt>
      <trkpt lat="44.55734" lon="6.48132">
        <ele>844.342757</ele>
        <time>2026-07-27T07:17:27.000Z</time>
      </trkpt>
      <trkpt lat="44.55734" lon="6.48132">
        <ele>844.342757</ele>
        <time>2026-07-27T07:17:27.000Z</time>
      </trkpt>
      <trkpt lat="44.55727" lon="6.48119">
        <ele>843.885425</ele>
        <time>2026-07-27T07:17:28.000Z</time>
      </trkpt>
      <trkpt lat="44.55727" lon="6.48119">
        <ele>843.885425</ele>
        <time>2026-07-27T07:17:28.000Z</time>
      </trkpt>
      <trkpt lat="44.55722" lon="6.48107">
        <ele>843.480494</ele>
        <time>2026-07-27T07:17:29.000Z</time>
      </trkpt>
      <trkpt lat="44.55722" lon="6.48107">
        <ele>843.480494</ele>
        <time>2026-07-27T07:17:29.000Z</time>
      </trkpt>
      <trkpt lat="44.55716" lon="6.48095">
        <ele>843.068703</ele>
        <time>2026-07-27T07:17:30.000Z</time>
      </trkpt>
      <trkpt lat="44.55716" lon="6.48095">
        <ele>843.068703</ele>
        <time>2026-07-27T07:17:30.000Z</time>
      </trkpt>
      <trkpt lat="44.55711" lon="6.48084">
        <ele>842.654504</ele>
        <time>2026-07-27T07:17:31.000Z</time>
      </trkpt>
      <trkpt lat="44.55711" lon="6.48084">
        <ele>842.654504</ele>
        <time>2026-07-27T07:17:31.000Z</time>
      </trkpt>
      <trkpt lat="44.55705" lon="6.48072">
        <ele>842.235531</ele>
        <time>2026-07-27T07:17:32.000Z</time>
      </trkpt>
      <trkpt lat="44.55705" lon="6.48072">
        <ele>842.235531</ele>
        <time>2026-07-27T07:17:32.000Z</time>
      </trkpt>
      <trkpt lat="44.55699" lon="6.48061">
        <ele>841.835683</ele>
        <time>2026-07-27T07:17:34.000Z</time>
      </trkpt>
      <trkpt lat="44.55699" lon="6.48061">
        <ele>841.835683</ele>
        <time>2026-07-27T07:17:34.000Z</time>
      </trkpt>
      <trkpt lat="44.55693" lon="6.4805">
        <ele>841.454881</ele>
        <time>2026-07-27T07:17:34.000Z</time>
      </trkpt>
      <trkpt lat="44.55693" lon="6.4805">
        <ele>841.454881</ele>
        <time>2026-07-27T07:17:34.000Z</time>
      </trkpt>
      <trkpt lat="44.55688" lon="6.48042">
        <ele>841.094051</ele>
        <time>2026-07-27T07:17:36.000Z</time>
      </trkpt>
      <trkpt lat="44.55688" lon="6.48042">
        <ele>841.094051</ele>
        <time>2026-07-27T07:17:36.000Z</time>
      </trkpt>
      <trkpt lat="44.55682" lon="6.48037">
        <ele>840.733767</ele>
        <time>2026-07-27T07:17:36.000Z</time>
      </trkpt>
      <trkpt lat="44.55682" lon="6.48037">
        <ele>840.733767</ele>
        <time>2026-07-27T07:17:36.000Z</time>
      </trkpt>
      <trkpt lat="44.55676" lon="6.48035">
        <ele>840.414976</ele>
        <time>2026-07-27T07:17:37.000Z</time>
      </trkpt>
      <trkpt lat="44.55676" lon="6.48035">
        <ele>840.414976</ele>
        <time>2026-07-27T07:17:37.000Z</time>
      </trkpt>
      <trkpt lat="44.55669" lon="6.48037">
        <ele>840.077312</ele>
        <time>2026-07-27T07:17:39.000Z</time>
      </trkpt>
      <trkpt lat="44.55669" lon="6.48037">
        <ele>840.077312</ele>
        <time>2026-07-27T07:17:39.000Z</time>
      </trkpt>
      <trkpt lat="44.55664" lon="6.48039">
        <ele>839.773292</ele>
        <time>2026-07-27T07:17:39.000Z</time>
      </trkpt>
      <trkpt lat="44.55664" lon="6.48039">
        <ele>839.773292</ele>
        <time>2026-07-27T07:17:39.000Z</time>
      </trkpt>
      <trkpt lat="44.55659" lon="6.48042">
        <ele>839.498674</ele>
        <time>2026-07-27T07:17:41.000Z</time>
      </trkpt>
      <trkpt lat="44.55659" lon="6.48042">
        <ele>839.498674</ele>
        <time>2026-07-27T07:17:41.000Z</time>
      </trkpt>
      <trkpt lat="44.55654" lon="6.48045">
        <ele>839.226079</ele>
        <time>2026-07-27T07:17:41.000Z</time>
      </trkpt>
      <trkpt lat="44.55654" lon="6.48045">
        <ele>839.226079</ele>
        <time>2026-07-27T07:17:41.000Z</time>
      </trkpt>
      <trkpt lat="44.5565" lon="6.48047">
        <ele>838.993624</ele>
        <time>2026-07-27T07:17:42.000Z</time>
      </trkpt>
      <trkpt lat="44.5565" lon="6.48047">
        <ele>838.993624</ele>
        <time>2026-07-27T07:17:42.000Z</time>
      </trkpt>
      <trkpt lat="44.55644" lon="6.48049">
        <ele>838.702147</ele>
        <time>2026-07-27T07:17:43.000Z</time>
      </trkpt>
      <trkpt lat="44.55644" lon="6.48049">
        <ele>838.702147</ele>
        <time>2026-07-27T07:17:43.000Z</time>
      </trkpt>
      <trkpt lat="44.55639" lon="6.48052">
        <ele>838.390094</ele>
        <time>2026-07-27T07:17:44.000Z</time>
      </trkpt>
      <trkpt lat="44.55639" lon="6.48052">
        <ele>838.390094</ele>
        <time>2026-07-27T07:17:44.000Z</time>
      </trkpt>
      <trkpt lat="44.55632" lon="6.48056">
        <ele>838.056277</ele>
        <time>2026-07-27T07:17:45.000Z</time>
      </trkpt>
      <trkpt lat="44.55632" lon="6.48056">
        <ele>838.056277</ele>
        <time>2026-07-27T07:17:45.000Z</time>
      </trkpt>
      <trkpt lat="44.55626" lon="6.48059">
        <ele>837.699404</ele>
        <time>2026-07-27T07:17:47.000Z</time>
      </trkpt>
      <trkpt lat="44.55626" lon="6.48059">
        <ele>837.699404</ele>
        <time>2026-07-27T07:17:47.000Z</time>
      </trkpt>
      <trkpt lat="44.55619" lon="6.48062">
        <ele>837.314409</ele>
        <time>2026-07-27T07:17:47.000Z</time>
      </trkpt>
      <trkpt lat="44.55619" lon="6.48062">
        <ele>837.314409</ele>
        <time>2026-07-27T07:17:47.000Z</time>
      </trkpt>
      <trkpt lat="44.5561" lon="6.48065">
        <ele>836.868243</ele>
        <time>2026-07-27T07:17:48.000Z</time>
      </trkpt>
      <trkpt lat="44.5561" lon="6.48065">
        <ele>836.868243</ele>
        <time>2026-07-27T07:17:48.000Z</time>
      </trkpt>
      <trkpt lat="44.55602" lon="6.48068">
        <ele>836.404037</ele>
        <time>2026-07-27T07:17:50.000Z</time>
      </trkpt>
      <trkpt lat="44.55602" lon="6.48068">
        <ele>836.404037</ele>
        <time>2026-07-27T07:17:50.000Z</time>
      </trkpt>
      <trkpt lat="44.55593" lon="6.48071">
        <ele>835.938955</ele>
        <time>2026-07-27T07:17:50.000Z</time>
      </trkpt>
      <trkpt lat="44.55593" lon="6.48071">
        <ele>835.938955</ele>
        <time>2026-07-27T07:17:50.000Z</time>
      </trkpt>
      <trkpt lat="44.55583" lon="6.48075">
        <ele>835.43358</ele>
        <time>2026-07-27T07:17:51.000Z</time>
      </trkpt>
      <trkpt lat="44.55583" lon="6.48075">
        <ele>835.43358</ele>
        <time>2026-07-27T07:17:51.000Z</time>
      </trkpt>
      <trkpt lat="44.55574" lon="6.4808">
        <ele>834.918439</ele>
        <time>2026-07-27T07:17:53.000Z</time>
      </trkpt>
      <trkpt lat="44.55574" lon="6.4808">
        <ele>834.918439</ele>
        <time>2026-07-27T07:17:53.000Z</time>
      </trkpt>
      <trkpt lat="44.55564" lon="6.48084">
        <ele>834.379005</ele>
        <time>2026-07-27T07:17:53.000Z</time>
      </trkpt>
      <trkpt lat="44.55564" lon="6.48084">
        <ele>834.379005</ele>
        <time>2026-07-27T07:17:53.000Z</time>
      </trkpt>
      <trkpt lat="44.55555" lon="6.48089">
        <ele>833.88796</ele>
        <time>2026-07-27T07:17:55.000Z</time>
      </trkpt>
      <trkpt lat="44.55555" lon="6.48089">
        <ele>833.88796</ele>
        <time>2026-07-27T07:17:55.000Z</time>
      </trkpt>
      <trkpt lat="44.55547" lon="6.48093">
        <ele>833.450125</ele>
        <time>2026-07-27T07:17:55.000Z</time>
      </trkpt>
      <trkpt lat="44.55547" lon="6.48093">
        <ele>833.450125</ele>
        <time>2026-07-27T07:17:55.000Z</time>
      </trkpt>
      <trkpt lat="44.55539" lon="6.48096">
        <ele>833.032926</ele>
        <time>2026-07-27T07:17:56.000Z</time>
      </trkpt>
      <trkpt lat="44.55539" lon="6.48096">
        <ele>833.032926</ele>
        <time>2026-07-27T07:17:56.000Z</time>
      </trkpt>
      <trkpt lat="44.55533" lon="6.481">
        <ele>832.711002</ele>
        <time>2026-07-27T07:17:58.000Z</time>
      </trkpt>
      <trkpt lat="44.55533" lon="6.481">
        <ele>832.711002</ele>
        <time>2026-07-27T07:17:58.000Z</time>
      </trkpt>
      <trkpt lat="44.55529" lon="6.48103">
        <ele>832.487508</ele>
        <time>2026-07-27T07:17:58.000Z</time>
      </trkpt>
      <trkpt lat="44.55529" lon="6.48103">
        <ele>832.487508</ele>
        <time>2026-07-27T07:17:58.000Z</time>
      </trkpt>
      <trkpt lat="44.55526" lon="6.48106">
        <ele>832.258441</ele>
        <time>2026-07-27T07:17:59.000Z</time>
      </trkpt>
      <trkpt lat="44.55526" lon="6.48106">
        <ele>832.258441</ele>
        <time>2026-07-27T07:17:59.000Z</time>
      </trkpt>
      <trkpt lat="44.55523" lon="6.48111">
        <ele>832.067843</ele>
        <time>2026-07-27T07:18:00.000Z</time>
      </trkpt>
      <trkpt lat="44.55523" lon="6.48111">
        <ele>832.067843</ele>
        <time>2026-07-27T07:18:00.000Z</time>
      </trkpt>
      <trkpt lat="44.55522" lon="6.48115">
        <ele>831.802197</ele>
        <time>2026-07-27T07:18:01.000Z</time>
      </trkpt>
      <trkpt lat="44.55522" lon="6.48115">
        <ele>831.802197</ele>
        <time>2026-07-27T07:18:01.000Z</time>
      </trkpt>
      <trkpt lat="44.55523" lon="6.4812">
        <ele>831.48166</ele>
        <time>2026-07-27T07:18:02.000Z</time>
      </trkpt>
      <trkpt lat="44.55523" lon="6.4812">
        <ele>831.48166</ele>
        <time>2026-07-27T07:18:02.000Z</time>
      </trkpt>
      <trkpt lat="44.55525" lon="6.48126">
        <ele>831.079615</ele>
        <time>2026-07-27T07:18:03.000Z</time>
      </trkpt>
      <trkpt lat="44.55525" lon="6.48126">
        <ele>831.079615</ele>
        <time>2026-07-27T07:18:03.000Z</time>
      </trkpt>
      <trkpt lat="44.55528" lon="6.48132">
        <ele>830.665041</ele>
        <time>2026-07-27T07:18:05.000Z</time>
      </trkpt>
      <trkpt lat="44.55528" lon="6.48132">
        <ele>830.665041</ele>
        <time>2026-07-27T07:18:05.000Z</time>
      </trkpt>
      <trkpt lat="44.55531" lon="6.48138">
        <ele>830.200712</ele>
        <time>2026-07-27T07:18:05.000Z</time>
      </trkpt>
      <trkpt lat="44.55531" lon="6.48138">
        <ele>830.200712</ele>
        <time>2026-07-27T07:18:05.000Z</time>
      </trkpt>
      <trkpt lat="44.55534" lon="6.48143">
        <ele>829.749532</ele>
        <time>2026-07-27T07:18:06.000Z</time>
      </trkpt>
      <trkpt lat="44.55534" lon="6.48143">
        <ele>829.749532</ele>
        <time>2026-07-27T07:18:06.000Z</time>
      </trkpt>
      <trkpt lat="44.55537" lon="6.4815">
        <ele>829.300597</ele>
        <time>2026-07-27T07:18:07.000Z</time>
      </trkpt>
      <trkpt lat="44.55537" lon="6.4815">
        <ele>829.300597</ele>
        <time>2026-07-27T07:18:07.000Z</time>
      </trkpt>
      <trkpt lat="44.55539" lon="6.48155">
        <ele>828.919438</ele>
        <time>2026-07-27T07:18:09.000Z</time>
      </trkpt>
      <trkpt lat="44.55539" lon="6.48155">
        <ele>828.919438</ele>
        <time>2026-07-27T07:18:09.000Z</time>
      </trkpt>
      <trkpt lat="44.5554" lon="6.48161">
        <ele>828.567555</ele>
        <time>2026-07-27T07:18:09.000Z</time>
      </trkpt>
      <trkpt lat="44.5554" lon="6.48161">
        <ele>828.567555</ele>
        <time>2026-07-27T07:18:09.000Z</time>
      </trkpt>
      <trkpt lat="44.55539" lon="6.48166">
        <ele>828.247987</ele>
        <time>2026-07-27T07:18:10.000Z</time>
      </trkpt>
      <trkpt lat="44.55539" lon="6.48166">
        <ele>828.247987</ele>
        <time>2026-07-27T07:18:10.000Z</time>
      </trkpt>
      <trkpt lat="44.55536" lon="6.4817">
        <ele>827.90038</ele>
        <time>2026-07-27T07:18:12.000Z</time>
      </trkpt>
      <trkpt lat="44.55536" lon="6.4817">
        <ele>827.90038</ele>
        <time>2026-07-27T07:18:12.000Z</time>
      </trkpt>
      <trkpt lat="44.55532" lon="6.48174">
        <ele>827.465492</ele>
        <time>2026-07-27T07:18:12.000Z</time>
      </trkpt>
      <trkpt lat="44.55532" lon="6.48174">
        <ele>827.465492</ele>
        <time>2026-07-27T07:18:12.000Z</time>
      </trkpt>
      <trkpt lat="44.55527" lon="6.48179">
        <ele>826.985367</ele>
        <time>2026-07-27T07:18:14.000Z</time>
      </trkpt>
      <trkpt lat="44.55527" lon="6.48179">
        <ele>826.985367</ele>
        <time>2026-07-27T07:18:14.000Z</time>
      </trkpt>
      <trkpt lat="44.55521" lon="6.48184">
        <ele>826.397376</ele>
        <time>2026-07-27T07:18:14.000Z</time>
      </trkpt>
      <trkpt lat="44.55521" lon="6.48184">
        <ele>826.397376</ele>
        <time>2026-07-27T07:18:14.000Z</time>
      </trkpt>
      <trkpt lat="44.55516" lon="6.4819">
        <ele>825.819353</ele>
        <time>2026-07-27T07:18:16.000Z</time>
      </trkpt>
      <trkpt lat="44.55516" lon="6.4819">
        <ele>825.819353</ele>
        <time>2026-07-27T07:18:16.000Z</time>
      </trkpt>
      <trkpt lat="44.5551" lon="6.48197">
        <ele>825.187337</ele>
        <time>2026-07-27T07:18:16.000Z</time>
      </trkpt>
      <trkpt lat="44.5551" lon="6.48197">
        <ele>825.187337</ele>
        <time>2026-07-27T07:18:16.000Z</time>
      </trkpt>
      <trkpt lat="44.55505" lon="6.48204">
        <ele>824.560319</ele>
        <time>2026-07-27T07:18:17.000Z</time>
      </trkpt>
      <trkpt lat="44.55505" lon="6.48204">
        <ele>824.560319</ele>
        <time>2026-07-27T07:18:17.000Z</time>
      </trkpt>
      <trkpt lat="44.555" lon="6.48211">
        <ele>823.914515</ele>
        <time>2026-07-27T07:18:19.000Z</time>
      </trkpt>
      <trkpt lat="44.555" lon="6.48211">
        <ele>823.914515</ele>
        <time>2026-07-27T07:18:19.000Z</time>
      </trkpt>
      <trkpt lat="44.55494" lon="6.4822">
        <ele>823.216305</ele>
        <time>2026-07-27T07:18:19.000Z</time>
      </trkpt>
      <trkpt lat="44.55494" lon="6.4822">
        <ele>823.216305</ele>
        <time>2026-07-27T07:18:19.000Z</time>
      </trkpt>
      <trkpt lat="44.55488" lon="6.48228">
        <ele>822.522443</ele>
        <time>2026-07-27T07:18:21.000Z</time>
      </trkpt>
      <trkpt lat="44.55488" lon="6.48228">
        <ele>822.522443</ele>
        <time>2026-07-27T07:18:21.000Z</time>
      </trkpt>
      <trkpt lat="44.55483" lon="6.48236">
        <ele>821.882438</ele>
        <time>2026-07-27T07:18:21.000Z</time>
      </trkpt>
      <trkpt lat="44.55483" lon="6.48236">
        <ele>821.882438</ele>
        <time>2026-07-27T07:18:21.000Z</time>
      </trkpt>
      <trkpt lat="44.55477" lon="6.48246">
        <ele>821.059239</ele>
        <time>2026-07-27T07:18:22.000Z</time>
      </trkpt>
      <trkpt lat="44.55477" lon="6.48246">
        <ele>821.059239</ele>
        <time>2026-07-27T07:18:22.000Z</time>
      </trkpt>
      <trkpt lat="44.55471" lon="6.48255">
        <ele>820.315618</ele>
        <time>2026-07-27T07:18:24.000Z</time>
      </trkpt>
      <trkpt lat="44.55471" lon="6.48255">
        <ele>820.315618</ele>
        <time>2026-07-27T07:18:24.000Z</time>
      </trkpt>
      <trkpt lat="44.55465" lon="6.48263">
        <ele>819.589168</ele>
        <time>2026-07-27T07:18:24.000Z</time>
      </trkpt>
      <trkpt lat="44.55465" lon="6.48263">
        <ele>819.589168</ele>
        <time>2026-07-27T07:18:24.000Z</time>
      </trkpt>
      <trkpt lat="44.55458" lon="6.48272">
        <ele>818.796629</ele>
        <time>2026-07-27T07:18:26.000Z</time>
      </trkpt>
      <trkpt lat="44.55458" lon="6.48272">
        <ele>818.796629</ele>
        <time>2026-07-27T07:18:26.000Z</time>
      </trkpt>
      <trkpt lat="44.55452" lon="6.4828">
        <ele>818.086937</ele>
        <time>2026-07-27T07:18:26.000Z</time>
      </trkpt>
      <trkpt lat="44.55452" lon="6.4828">
        <ele>818.086937</ele>
        <time>2026-07-27T07:18:26.000Z</time>
      </trkpt>
      <trkpt lat="44.55445" lon="6.48288">
        <ele>817.363887</ele>
        <time>2026-07-27T07:18:27.000Z</time>
      </trkpt>
      <trkpt lat="44.55445" lon="6.48288">
        <ele>817.363887</ele>
        <time>2026-07-27T07:18:27.000Z</time>
      </trkpt>
      <trkpt lat="44.55439" lon="6.48294">
        <ele>816.727962</ele>
        <time>2026-07-27T07:18:29.000Z</time>
      </trkpt>
      <trkpt lat="44.55439" lon="6.48294">
        <ele>816.727962</ele>
        <time>2026-07-27T07:18:29.000Z</time>
      </trkpt>
      <trkpt lat="44.55433" lon="6.48301">
        <ele>815.959198</ele>
        <time>2026-07-27T07:18:29.000Z</time>
      </trkpt>
      <trkpt lat="44.55433" lon="6.48301">
        <ele>815.959198</ele>
        <time>2026-07-27T07:18:29.000Z</time>
      </trkpt>
      <trkpt lat="44.55426" lon="6.48308">
        <ele>815.11964</ele>
        <time>2026-07-27T07:18:31.000Z</time>
      </trkpt>
      <trkpt lat="44.55426" lon="6.48308">
        <ele>815.11964</ele>
        <time>2026-07-27T07:18:31.000Z</time>
      </trkpt>
      <trkpt lat="44.5542" lon="6.48314">
        <ele>814.280081</ele>
        <time>2026-07-27T07:18:32.000Z</time>
      </trkpt>
      <trkpt lat="44.5542" lon="6.48314">
        <ele>814.280081</ele>
        <time>2026-07-27T07:18:32.000Z</time>
      </trkpt>
      <trkpt lat="44.55413" lon="6.4832">
        <ele>813.513896</ele>
        <time>2026-07-27T07:18:32.000Z</time>
      </trkpt>
      <trkpt lat="44.55413" lon="6.4832">
        <ele>813.513896</ele>
        <time>2026-07-27T07:18:32.000Z</time>
      </trkpt>
      <trkpt lat="44.55408" lon="6.48326">
        <ele>812.829132</ele>
        <time>2026-07-27T07:18:34.000Z</time>
      </trkpt>
      <trkpt lat="44.55408" lon="6.48326">
        <ele>812.829132</ele>
        <time>2026-07-27T07:18:34.000Z</time>
      </trkpt>
      <trkpt lat="44.55402" lon="6.48332">
        <ele>812.132926</ele>
        <time>2026-07-27T07:18:35.000Z</time>
      </trkpt>
      <trkpt lat="44.55402" lon="6.48332">
        <ele>812.132926</ele>
        <time>2026-07-27T07:18:35.000Z</time>
      </trkpt>
      <trkpt lat="44.55397" lon="6.48337">
        <ele>811.477638</ele>
        <time>2026-07-27T07:18:36.000Z</time>
      </trkpt>
      <trkpt lat="44.55397" lon="6.48337">
        <ele>811.477638</ele>
        <time>2026-07-27T07:18:36.000Z</time>
      </trkpt>
      <trkpt lat="44.55392" lon="6.48342">
        <ele>810.879718</ele>
        <time>2026-07-27T07:18:36.000Z</time>
      </trkpt>
      <trkpt lat="44.55392" lon="6.48342">
        <ele>810.879718</ele>
        <time>2026-07-27T07:18:36.000Z</time>
      </trkpt>
      <trkpt lat="44.55388" lon="6.48346">
        <ele>810.391286</ele>
        <time>2026-07-27T07:18:38.000Z</time>
      </trkpt>
      <trkpt lat="44.55388" lon="6.48346">
        <ele>810.391286</ele>
        <time>2026-07-27T07:18:38.000Z</time>
      </trkpt>
      <trkpt lat="44.55384" lon="6.4835">
        <ele>809.924406</ele>
        <time>2026-07-27T07:18:38.000Z</time>
      </trkpt>
      <trkpt lat="44.55384" lon="6.4835">
        <ele>809.924406</ele>
        <time>2026-07-27T07:18:38.000Z</time>
      </trkpt>
      <trkpt lat="44.55381" lon="6.48354">
        <ele>809.526358</ele>
        <time>2026-07-27T07:18:40.000Z</time>
      </trkpt>
      <trkpt lat="44.55381" lon="6.48354">
        <ele>809.526358</ele>
        <time>2026-07-27T07:18:40.000Z</time>
      </trkpt>
      <trkpt lat="44.55379" lon="6.48357">
        <ele>809.197232</ele>
        <time>2026-07-27T07:18:41.000Z</time>
      </trkpt>
      <trkpt lat="44.55379" lon="6.48357">
        <ele>809.197232</ele>
        <time>2026-07-27T07:18:41.000Z</time>
      </trkpt>
      <trkpt lat="44.55378" lon="6.48359">
        <ele>808.985229</ele>
        <time>2026-07-27T07:18:42.000Z</time>
      </trkpt>
      <trkpt lat="44.55378" lon="6.48359">
        <ele>808.985229</ele>
        <time>2026-07-27T07:18:42.000Z</time>
      </trkpt>
      <trkpt lat="44.55378" lon="6.4836">
        <ele>808.921058</ele>
        <time>2026-07-27T07:18:43.000Z</time>
      </trkpt>
      <trkpt lat="44.55377" lon="6.48361">
        <ele>808.86746</ele>
        <time>2026-07-27T07:18:56.000Z</time>
      </trkpt>
      <trkpt lat="44.55377" lon="6.48361">
        <ele>808.86746</ele>
        <time>2026-07-27T07:18:57.000Z</time>
      </trkpt>
      <trkpt lat="44.55374" lon="6.48362">
        <ele>808.541614</ele>
        <time>2026-07-27T07:18:59.000Z</time>
      </trkpt>
      <trkpt lat="44.55371" lon="6.48364">
        <ele>808.220492</ele>
        <time>2026-07-27T07:18:59.000Z</time>
      </trkpt>
      <trkpt lat="44.55368" lon="6.48365">
        <ele>807.94438</ele>
        <time>2026-07-27T07:19:00.000Z</time>
      </trkpt>
      <trkpt lat="44.55368" lon="6.48365">
        <ele>807.94438</ele>
        <time>2026-07-27T07:19:00.000Z</time>
      </trkpt>
      <trkpt lat="44.55362" lon="6.48367">
        <ele>807.314191</ele>
        <time>2026-07-27T07:19:02.000Z</time>
      </trkpt>
      <trkpt lat="44.55362" lon="6.48367">
        <ele>807.314191</ele>
        <time>2026-07-27T07:19:02.000Z</time>
      </trkpt>
      <trkpt lat="44.55357" lon="6.48368">
        <ele>806.770208</ele>
        <time>2026-07-27T07:19:02.000Z</time>
      </trkpt>
      <trkpt lat="44.55357" lon="6.48368">
        <ele>806.770208</ele>
        <time>2026-07-27T07:19:02.000Z</time>
      </trkpt>
      <trkpt lat="44.55351" lon="6.4837">
        <ele>806.187139</ele>
        <time>2026-07-27T07:19:04.000Z</time>
      </trkpt>
      <trkpt lat="44.55351" lon="6.4837">
        <ele>806.187139</ele>
        <time>2026-07-27T07:19:04.000Z</time>
      </trkpt>
      <trkpt lat="44.55345" lon="6.48372">
        <ele>805.564866</ele>
        <time>2026-07-27T07:19:04.000Z</time>
      </trkpt>
      <trkpt lat="44.55345" lon="6.48372">
        <ele>805.564866</ele>
        <time>2026-07-27T07:19:04.000Z</time>
      </trkpt>
      <trkpt lat="44.55339" lon="6.48374">
        <ele>804.932776</ele>
        <time>2026-07-27T07:19:06.000Z</time>
      </trkpt>
      <trkpt lat="44.55339" lon="6.48374">
        <ele>804.932776</ele>
        <time>2026-07-27T07:19:06.000Z</time>
      </trkpt>
      <trkpt lat="44.55333" lon="6.48375">
        <ele>804.281034</ele>
        <time>2026-07-27T07:19:06.000Z</time>
      </trkpt>
      <trkpt lat="44.55333" lon="6.48375">
        <ele>804.281034</ele>
        <time>2026-07-27T07:19:06.000Z</time>
      </trkpt>
      <trkpt lat="44.55325" lon="6.48377">
        <ele>803.538154</ele>
        <time>2026-07-27T07:19:07.000Z</time>
      </trkpt>
      <trkpt lat="44.55325" lon="6.48377">
        <ele>803.538154</ele>
        <time>2026-07-27T07:19:07.000Z</time>
      </trkpt>
      <trkpt lat="44.55317" lon="6.48379">
        <ele>802.722465</ele>
        <time>2026-07-27T07:19:08.000Z</time>
      </trkpt>
      <trkpt lat="44.55317" lon="6.48379">
        <ele>802.722465</ele>
        <time>2026-07-27T07:19:08.000Z</time>
      </trkpt>
      <trkpt lat="44.5531" lon="6.48381">
        <ele>802.017491</ele>
        <time>2026-07-27T07:19:09.000Z</time>
      </trkpt>
      <trkpt lat="44.5531" lon="6.48381">
        <ele>802.017491</ele>
        <time>2026-07-27T07:19:09.000Z</time>
      </trkpt>
      <trkpt lat="44.55303" lon="6.48383">
        <ele>801.281678</ele>
        <time>2026-07-27T07:19:10.000Z</time>
      </trkpt>
      <trkpt lat="44.55303" lon="6.48383">
        <ele>801.281678</ele>
        <time>2026-07-27T07:19:10.000Z</time>
      </trkpt>
      <trkpt lat="44.55297" lon="6.48386">
        <ele>800.614287</ele>
        <time>2026-07-27T07:19:11.000Z</time>
      </trkpt>
      <trkpt lat="44.55297" lon="6.48386">
        <ele>800.614287</ele>
        <time>2026-07-27T07:19:11.000Z</time>
      </trkpt>
      <trkpt lat="44.5529" lon="6.48388">
        <ele>799.94846</ele>
        <time>2026-07-27T07:19:12.000Z</time>
      </trkpt>
      <trkpt lat="44.5529" lon="6.48388">
        <ele>799.94846</ele>
        <time>2026-07-27T07:19:12.000Z</time>
      </trkpt>
      <trkpt lat="44.55285" lon="6.48389">
        <ele>799.368188</ele>
        <time>2026-07-27T07:19:13.000Z</time>
      </trkpt>
      <trkpt lat="44.55285" lon="6.48389">
        <ele>799.368188</ele>
        <time>2026-07-27T07:19:13.000Z</time>
      </trkpt>
      <trkpt lat="44.5528" lon="6.4839">
        <ele>798.897221</ele>
        <time>2026-07-27T07:19:15.000Z</time>
      </trkpt>
      <trkpt lat="44.5528" lon="6.4839">
        <ele>798.897221</ele>
        <time>2026-07-27T07:19:15.000Z</time>
      </trkpt>
      <trkpt lat="44.55277" lon="6.48392">
        <ele>798.608612</ele>
        <time>2026-07-27T07:19:15.000Z</time>
      </trkpt>
      <trkpt lat="44.55277" lon="6.48392">
        <ele>798.608612</ele>
        <time>2026-07-27T07:19:15.000Z</time>
      </trkpt>
      <trkpt lat="44.55275" lon="6.48393">
        <ele>798.483857</ele>
        <time>2026-07-27T07:19:17.000Z</time>
      </trkpt>
      <trkpt lat="44.55275" lon="6.48393">
        <ele>798.483857</ele>
        <time>2026-07-27T07:19:17.000Z</time>
      </trkpt>
      <trkpt lat="44.55273" lon="6.48393">
        <ele>798.359103</ele>
        <time>2026-07-27T07:19:17.000Z</time>
      </trkpt>
      <trkpt lat="44.55273" lon="6.48393">
        <ele>798.359103</ele>
        <time>2026-07-27T07:19:17.000Z</time>
      </trkpt>
      <trkpt lat="44.55273" lon="6.48393">
        <ele>798.359103</ele>
        <time>2026-07-27T07:19:19.000Z</time>
      </trkpt>
      <trkpt lat="44.55273" lon="6.48393">
        <ele>798.359103</ele>
        <time>2026-07-27T07:19:20.000Z</time>
      </trkpt>
      <trkpt lat="44.55273" lon="6.48393">
        <ele>798.359103</ele>
        <time>2026-07-27T07:19:20.000Z</time>
      </trkpt>
      <trkpt lat="44.55273" lon="6.48393">
        <ele>798.359103</ele>
        <time>2026-07-27T07:19:27.000Z</time>
      </trkpt>
      <trkpt lat="44.55271" lon="6.48394">
        <ele>798.238273</ele>
        <time>2026-07-27T07:19:27.000Z</time>
      </trkpt>
      <trkpt lat="44.55271" lon="6.48394">
        <ele>798.238273</ele>
        <time>2026-07-27T07:19:27.000Z</time>
      </trkpt>
      <trkpt lat="44.5527" lon="6.48398">
        <ele>798.034765</ele>
        <time>2026-07-27T07:19:29.000Z</time>
      </trkpt>
      <trkpt lat="44.5527" lon="6.48398">
        <ele>798.034765</ele>
        <time>2026-07-27T07:19:29.000Z</time>
      </trkpt>
      <trkpt lat="44.55269" lon="6.48401">
        <ele>797.891211</ele>
        <time>2026-07-27T07:19:30.000Z</time>
      </trkpt>
      <trkpt lat="44.55269" lon="6.48401">
        <ele>797.891211</ele>
        <time>2026-07-27T07:19:30.000Z</time>
      </trkpt>
      <trkpt lat="44.55268" lon="6.48404">
        <ele>797.719554</ele>
        <time>2026-07-27T07:19:30.000Z</time>
      </trkpt>
      <trkpt lat="44.55268" lon="6.48404">
        <ele>797.719554</ele>
        <time>2026-07-27T07:19:30.000Z</time>
      </trkpt>
      <trkpt lat="44.55265" lon="6.48407">
        <ele>797.518551</ele>
        <time>2026-07-27T07:19:32.000Z</time>
      </trkpt>
      <trkpt lat="44.55265" lon="6.48407">
        <ele>797.518551</ele>
        <time>2026-07-27T07:19:32.000Z</time>
      </trkpt>
      <trkpt lat="44.55262" lon="6.48409">
        <ele>797.29912</ele>
        <time>2026-07-27T07:19:32.000Z</time>
      </trkpt>
      <trkpt lat="44.55262" lon="6.48409">
        <ele>797.29912</ele>
        <time>2026-07-27T07:19:32.000Z</time>
      </trkpt>
      <trkpt lat="44.55258" lon="6.48411">
        <ele>797.018714</ele>
        <time>2026-07-27T07:19:33.000Z</time>
      </trkpt>
      <trkpt lat="44.55258" lon="6.48411">
        <ele>797.018714</ele>
        <time>2026-07-27T07:19:33.000Z</time>
      </trkpt>
      <trkpt lat="44.55254" lon="6.48413">
        <ele>796.74253</ele>
        <time>2026-07-27T07:19:35.000Z</time>
      </trkpt>
      <trkpt lat="44.55254" lon="6.48413">
        <ele>796.74253</ele>
        <time>2026-07-27T07:19:35.000Z</time>
      </trkpt>
      <trkpt lat="44.55249" lon="6.48415">
        <ele>796.440962</ele>
        <time>2026-07-27T07:19:35.000Z</time>
      </trkpt>
      <trkpt lat="44.55249" lon="6.48415">
        <ele>796.440962</ele>
        <time>2026-07-27T07:19:35.000Z</time>
      </trkpt>
      <trkpt lat="44.55245" lon="6.48417">
        <ele>796.168402</ele>
        <time>2026-07-27T07:19:37.000Z</time>
      </trkpt>
      <trkpt lat="44.55245" lon="6.48417">
        <ele>796.168402</ele>
        <time>2026-07-27T07:19:37.000Z</time>
      </trkpt>
      <trkpt lat="44.5524" lon="6.48418">
        <ele>795.875318</ele>
        <time>2026-07-27T07:19:38.000Z</time>
      </trkpt>
      <trkpt lat="44.5524" lon="6.48418">
        <ele>795.875318</ele>
        <time>2026-07-27T07:19:38.000Z</time>
      </trkpt>
      <trkpt lat="44.55236" lon="6.4842">
        <ele>795.596385</ele>
        <time>2026-07-27T07:19:38.000Z</time>
      </trkpt>
      <trkpt lat="44.55232" lon="6.48423">
        <ele>795.299995</ele>
        <time>2026-07-27T07:19:40.000Z</time>
      </trkpt>
      <trkpt lat="44.55232" lon="6.48423">
        <ele>795.299995</ele>
        <time>2026-07-27T07:19:40.000Z</time>
      </trkpt>
      <trkpt lat="44.55228" lon="6.48427">
        <ele>795.008854</ele>
        <time>2026-07-27T07:19:40.000Z</time>
      </trkpt>
      <trkpt lat="44.55228" lon="6.48427">
        <ele>795.008854</ele>
        <time>2026-07-27T07:19:40.000Z</time>
      </trkpt>
      <trkpt lat="44.55225" lon="6.48431">
        <ele>794.729823</ele>
        <time>2026-07-27T07:19:42.000Z</time>
      </trkpt>
      <trkpt lat="44.55225" lon="6.48431">
        <ele>794.729823</ele>
        <time>2026-07-27T07:19:42.000Z</time>
      </trkpt>
      <trkpt lat="44.55221" lon="6.48435">
        <ele>794.453649</ele>
        <time>2026-07-27T07:19:42.000Z</time>
      </trkpt>
      <trkpt lat="44.55221" lon="6.48435">
        <ele>794.453649</ele>
        <time>2026-07-27T07:19:42.000Z</time>
      </trkpt>
      <trkpt lat="44.55218" lon="6.48439">
        <ele>794.182651</ele>
        <time>2026-07-27T07:19:43.000Z</time>
      </trkpt>
      <trkpt lat="44.55218" lon="6.48439">
        <ele>794.182651</ele>
        <time>2026-07-27T07:19:43.000Z</time>
      </trkpt>
      <trkpt lat="44.55215" lon="6.48443">
        <ele>793.897778</ele>
        <time>2026-07-27T07:19:44.000Z</time>
      </trkpt>
      <trkpt lat="44.55215" lon="6.48443">
        <ele>793.897778</ele>
        <time>2026-07-27T07:19:44.000Z</time>
      </trkpt>
      <trkpt lat="44.55211" lon="6.48447">
        <ele>793.618746</ele>
        <time>2026-07-27T07:19:45.000Z</time>
      </trkpt>
      <trkpt lat="44.55211" lon="6.48447">
        <ele>793.618746</ele>
        <time>2026-07-27T07:19:45.000Z</time>
      </trkpt>
      <trkpt lat="44.55208" lon="6.48451">
        <ele>793.359878</ele>
        <time>2026-07-27T07:19:46.000Z</time>
      </trkpt>
      <trkpt lat="44.55208" lon="6.48451">
        <ele>793.359878</ele>
        <time>2026-07-27T07:19:46.000Z</time>
      </trkpt>
      <trkpt lat="44.55205" lon="6.48455">
        <ele>793.077946</ele>
        <time>2026-07-27T07:19:47.000Z</time>
      </trkpt>
      <trkpt lat="44.55205" lon="6.48455">
        <ele>793.077946</ele>
        <time>2026-07-27T07:19:47.000Z</time>
      </trkpt>
      <trkpt lat="44.55202" lon="6.48459">
        <ele>792.803816</ele>
        <time>2026-07-27T07:19:48.000Z</time>
      </trkpt>
      <trkpt lat="44.55202" lon="6.48459">
        <ele>792.803816</ele>
        <time>2026-07-27T07:19:48.000Z</time>
      </trkpt>
      <trkpt lat="44.55199" lon="6.48463">
        <ele>792.557847</ele>
        <time>2026-07-27T07:19:49.000Z</time>
      </trkpt>
      <trkpt lat="44.55199" lon="6.48463">
        <ele>792.557847</ele>
        <time>2026-07-27T07:19:49.000Z</time>
      </trkpt>
      <trkpt lat="44.55196" lon="6.48468">
        <ele>792.307653</ele>
        <time>2026-07-27T07:19:50.000Z</time>
      </trkpt>
      <trkpt lat="44.55196" lon="6.48468">
        <ele>792.307653</ele>
        <time>2026-07-27T07:19:50.000Z</time>
      </trkpt>
      <trkpt lat="44.55193" lon="6.48472">
        <ele>792.033522</ele>
        <time>2026-07-27T07:19:52.000Z</time>
      </trkpt>
      <trkpt lat="44.55193" lon="6.48472">
        <ele>792.033522</ele>
        <time>2026-07-27T07:19:52.000Z</time>
      </trkpt>
      <trkpt lat="44.55191" lon="6.48476">
        <ele>791.80064</ele>
        <time>2026-07-27T07:19:52.000Z</time>
      </trkpt>
      <trkpt lat="44.55191" lon="6.48476">
        <ele>791.80064</ele>
        <time>2026-07-27T07:19:52.000Z</time>
      </trkpt>
      <trkpt lat="44.55188" lon="6.48478">
        <ele>791.586805</ele>
        <time>2026-07-27T07:19:53.000Z</time>
      </trkpt>
      <trkpt lat="44.55188" lon="6.48478">
        <ele>791.586805</ele>
        <time>2026-07-27T07:19:53.000Z</time>
      </trkpt>
      <trkpt lat="44.55186" lon="6.4848">
        <ele>791.430864</ele>
        <time>2026-07-27T07:19:54.000Z</time>
      </trkpt>
      <trkpt lat="44.55186" lon="6.4848">
        <ele>791.430864</ele>
        <time>2026-07-27T07:19:54.000Z</time>
      </trkpt>
      <trkpt lat="44.55183" lon="6.4848">
        <ele>791.286216</ele>
        <time>2026-07-27T07:19:55.000Z</time>
      </trkpt>
      <trkpt lat="44.55183" lon="6.4848">
        <ele>791.286216</ele>
        <time>2026-07-27T07:19:55.000Z</time>
      </trkpt>
      <trkpt lat="44.55183" lon="6.4848">
        <ele>791.286216</ele>
        <time>2026-07-27T07:19:56.000Z</time>
      </trkpt>
      <trkpt lat="44.5518" lon="6.48477">
        <ele>791.059624</ele>
        <time>2026-07-27T07:19:57.000Z</time>
      </trkpt>
      <trkpt lat="44.5518" lon="6.48476">
        <ele>790.992245</ele>
        <time>2026-07-27T07:19:58.000Z</time>
      </trkpt>
      <trkpt lat="44.5518" lon="6.48476">
        <ele>790.992245</ele>
        <time>2026-07-27T07:19:58.000Z</time>
      </trkpt>
      <trkpt lat="44.5518" lon="6.48476">
        <ele>790.992245</ele>
        <time>2026-07-27T07:19:59.000Z</time>
      </trkpt>
      <trkpt lat="44.55179" lon="6.48474">
        <ele>790.864358</ele>
        <time>2026-07-27T07:20:20.000Z</time>
      </trkpt>
      <trkpt lat="44.55179" lon="6.48474">
        <ele>790.864358</ele>
        <time>2026-07-27T07:20:20.000Z</time>
      </trkpt>
      <trkpt lat="44.55179" lon="6.48473">
        <ele>790.850913</ele>
        <time>2026-07-27T07:35:26.000Z</time>
      </trkpt>
      <trkpt lat="44.55179" lon="6.48474">
        <ele>790.837468</ele>
        <time>2026-07-27T07:35:50.000Z</time>
      </trkpt>
      <trkpt lat="44.55179" lon="6.48474">
        <ele>790.837468</ele>
        <time>2026-07-27T07:37:23.000Z</time>
      </trkpt>
      <trkpt lat="44.55179" lon="6.48474">
        <ele>790.837468</ele>
        <time>2026-07-27T07:37:24.000Z</time>
      </trkpt>
      <trkpt lat="44.55179" lon="6.48474">
        <ele>790.832987</ele>
        <time>2026-07-27T07:37:26.000Z</time>
      </trkpt>
      <trkpt lat="44.55177" lon="6.48477">
        <ele>790.665051</ele>
        <time>2026-07-27T07:37:27.000Z</time>
      </trkpt>
      <trkpt lat="44.55176" lon="6.48488">
        <ele>790.140593</ele>
        <time>2026-07-27T07:37:27.000Z</time>
      </trkpt>
      <trkpt lat="44.55176" lon="6.48488">
        <ele>790.140593</ele>
        <time>2026-07-27T07:37:27.000Z</time>
      </trkpt>
      <trkpt lat="44.55174" lon="6.48494">
        <ele>789.866664</ele>
        <time>2026-07-27T07:37:29.000Z</time>
      </trkpt>
      <trkpt lat="44.55172" lon="6.48498">
        <ele>789.636091</ele>
        <time>2026-07-27T07:37:30.000Z</time>
      </trkpt>
      <trkpt lat="44.5517" lon="6.48502">
        <ele>789.405744</ele>
        <time>2026-07-27T07:37:31.000Z</time>
      </trkpt>
      <trkpt lat="44.55168" lon="6.48505">
        <ele>789.215608</ele>
        <time>2026-07-27T07:37:32.000Z</time>
      </trkpt>
      <trkpt lat="44.55168" lon="6.48505">
        <ele>789.215608</ele>
        <time>2026-07-27T07:37:32.000Z</time>
      </trkpt>
      <trkpt lat="44.55166" lon="6.48509">
        <ele>788.99892</ele>
        <time>2026-07-27T07:37:33.000Z</time>
      </trkpt>
      <trkpt lat="44.55164" lon="6.48512">
        <ele>788.830987</ele>
        <time>2026-07-27T07:37:34.000Z</time>
      </trkpt>
      <trkpt lat="44.55162" lon="6.48515">
        <ele>788.673609</ele>
        <time>2026-07-27T07:37:35.000Z</time>
      </trkpt>
      <trkpt lat="44.55161" lon="6.48518">
        <ele>788.479967</ele>
        <time>2026-07-27T07:37:36.000Z</time>
      </trkpt>
      <trkpt lat="44.55159" lon="6.48522">
        <ele>788.30853</ele>
        <time>2026-07-27T07:37:37.000Z</time>
      </trkpt>
      <trkpt lat="44.55158" lon="6.48526">
        <ele>788.109886</ele>
        <time>2026-07-27T07:37:38.000Z</time>
      </trkpt>
      <trkpt lat="44.55158" lon="6.4853">
        <ele>787.921654</ele>
        <time>2026-07-27T07:37:39.000Z</time>
      </trkpt>
      <trkpt lat="44.55158" lon="6.4853">
        <ele>787.921654</ele>
        <time>2026-07-27T07:37:39.000Z</time>
      </trkpt>
      <trkpt lat="44.55158" lon="6.48534">
        <ele>787.745067</ele>
        <time>2026-07-27T07:37:40.000Z</time>
      </trkpt>
      <trkpt lat="44.55158" lon="6.48538">
        <ele>787.54251</ele>
        <time>2026-07-27T07:37:41.000Z</time>
      </trkpt>
      <trkpt lat="44.55155" lon="6.4854">
        <ele>787.398954</ele>
        <time>2026-07-27T07:37:42.000Z</time>
      </trkpt>
      <trkpt lat="44.55153" lon="6.4854">
        <ele>787.373913</ele>
        <time>2026-07-27T07:37:42.000Z</time>
      </trkpt>
      <trkpt lat="44.55153" lon="6.4854">
        <ele>787.373913</ele>
        <time>2026-07-27T07:37:42.000Z</time>
      </trkpt>
      <trkpt lat="44.55151" lon="6.48538">
        <ele>787.344816</ele>
        <time>2026-07-27T07:37:44.000Z</time>
      </trkpt>
      <trkpt lat="44.5515" lon="6.48536">
        <ele>787.323137</ele>
        <time>2026-07-27T07:37:45.000Z</time>
      </trkpt>
      <trkpt lat="44.5515" lon="6.48536">
        <ele>787.323137</ele>
        <time>2026-07-27T07:37:45.000Z</time>
      </trkpt>
      <trkpt lat="44.55148" lon="6.48533">
        <ele>787.281371</ele>
        <time>2026-07-27T07:37:47.000Z</time>
      </trkpt>
      <trkpt lat="44.55148" lon="6.48532">
        <ele>787.269503</ele>
        <time>2026-07-27T07:37:48.000Z</time>
      </trkpt>
      <trkpt lat="44.55148" lon="6.48532">
        <ele>787.269503</ele>
        <time>2026-07-27T07:37:48.000Z</time>
      </trkpt>
      <trkpt lat="44.55147" lon="6.48531">
        <ele>787.262487</ele>
        <time>2026-07-27T07:37:50.000Z</time>
      </trkpt>
      <trkpt lat="44.55147" lon="6.48531">
        <ele>787.262487</ele>
        <time>2026-07-27T07:37:51.000Z</time>
      </trkpt>
      <trkpt lat="44.55146" lon="6.48531">
        <ele>787.251968</ele>
        <time>2026-07-27T07:37:52.000Z</time>
      </trkpt>
      <trkpt lat="44.55147" lon="6.48532">
        <ele>787.246647</ele>
        <time>2026-07-27T07:37:53.000Z</time>
      </trkpt>
      <trkpt lat="44.55146" lon="6.48532">
        <ele>787.241326</ele>
        <time>2026-07-27T07:37:54.000Z</time>
      </trkpt>
      <trkpt lat="44.55146" lon="6.48532">
        <ele>787.241326</ele>
        <time>2026-07-27T07:37:54.000Z</time>
      </trkpt>
      <trkpt lat="44.55147" lon="6.48533">
        <ele>787.229801</ele>
        <time>2026-07-27T07:37:55.000Z</time>
      </trkpt>
      <trkpt lat="44.55147" lon="6.48535">
        <ele>787.211311</ele>
        <time>2026-07-27T07:37:56.000Z</time>
      </trkpt>
      <trkpt lat="44.55148" lon="6.48536">
        <ele>787.192987</ele>
        <time>2026-07-27T07:37:57.000Z</time>
      </trkpt>
      <trkpt lat="44.55148" lon="6.48536">
        <ele>787.192987</ele>
        <time>2026-07-27T07:37:57.000Z</time>
      </trkpt>
      <trkpt lat="44.55149" lon="6.48538">
        <ele>787.175501</ele>
        <time>2026-07-27T07:37:58.000Z</time>
      </trkpt>
      <trkpt lat="44.55151" lon="6.48541">
        <ele>787.135907</ele>
        <time>2026-07-27T07:37:59.000Z</time>
      </trkpt>
      <trkpt lat="44.55153" lon="6.48544">
        <ele>787.096313</ele>
        <time>2026-07-27T07:37:59.000Z</time>
      </trkpt>
      <trkpt lat="44.55153" lon="6.48544">
        <ele>787.096313</ele>
        <time>2026-07-27T07:37:59.000Z</time>
      </trkpt>
      <trkpt lat="44.55156" lon="6.48548">
        <ele>787.039387</ele>
        <time>2026-07-27T07:38:01.000Z</time>
      </trkpt>
      <trkpt lat="44.55158" lon="6.48551">
        <ele>787.0024</ele>
        <time>2026-07-27T07:38:02.000Z</time>
      </trkpt>
      <trkpt lat="44.55161" lon="6.48553">
        <ele>786.965412</ele>
        <time>2026-07-27T07:38:03.000Z</time>
      </trkpt>
      <trkpt lat="44.55162" lon="6.48555">
        <ele>786.934857</ele>
        <time>2026-07-27T07:38:04.000Z</time>
      </trkpt>
      <trkpt lat="44.55164" lon="6.48557">
        <ele>786.900746</ele>
        <time>2026-07-27T07:38:05.000Z</time>
      </trkpt>
      <trkpt lat="44.55164" lon="6.48557">
        <ele>786.900746</ele>
        <time>2026-07-27T07:38:05.000Z</time>
      </trkpt>
      <trkpt lat="44.55166" lon="6.4856">
        <ele>786.871048</ele>
        <time>2026-07-27T07:38:06.000Z</time>
      </trkpt>
      <trkpt lat="44.55166" lon="6.48563">
        <ele>786.84025</ele>
        <time>2026-07-27T07:38:07.000Z</time>
      </trkpt>
      <trkpt lat="44.55165" lon="6.48566">
        <ele>786.81296</ele>
        <time>2026-07-27T07:38:08.000Z</time>
      </trkpt>
      <trkpt lat="44.55164" lon="6.48569">
        <ele>786.78064</ele>
        <time>2026-07-27T07:38:08.000Z</time>
      </trkpt>
      <trkpt lat="44.55162" lon="6.48572">
        <ele>786.743875</ele>
        <time>2026-07-27T07:38:10.000Z</time>
      </trkpt>
      <trkpt lat="44.55162" lon="6.48572">
        <ele>786.743875</ele>
        <time>2026-07-27T07:38:10.000Z</time>
      </trkpt>
      <trkpt lat="44.5516" lon="6.48574">
        <ele>786.713202</ele>
        <time>2026-07-27T07:38:11.000Z</time>
      </trkpt>
      <trkpt lat="44.55159" lon="6.48576">
        <ele>786.686738</ele>
        <time>2026-07-27T07:38:12.000Z</time>
      </trkpt>
      <trkpt lat="44.55157" lon="6.48579">
        <ele>786.656945</ele>
        <time>2026-07-27T07:38:13.000Z</time>
      </trkpt>
      <trkpt lat="44.55155" lon="6.48581">
        <ele>786.624685</ele>
        <time>2026-07-27T07:38:14.000Z</time>
      </trkpt>
      <trkpt lat="44.55155" lon="6.48581">
        <ele>786.624685</ele>
        <time>2026-07-27T07:38:14.000Z</time>
      </trkpt>
      <trkpt lat="44.55153" lon="6.48583">
        <ele>786.590574</ele>
        <time>2026-07-27T07:38:15.000Z</time>
      </trkpt>
      <trkpt lat="44.55151" lon="6.48586">
        <ele>786.557094</ele>
        <time>2026-07-27T07:38:16.000Z</time>
      </trkpt>
      <trkpt lat="44.5515" lon="6.48588">
        <ele>786.525734</ele>
        <time>2026-07-27T07:38:17.000Z</time>
      </trkpt>
      <trkpt lat="44.5515" lon="6.48588">
        <ele>786.525734</ele>
        <time>2026-07-27T07:38:17.000Z</time>
      </trkpt>
      <trkpt lat="44.55148" lon="6.4859">
        <ele>786.497318</ele>
        <time>2026-07-27T07:38:18.000Z</time>
      </trkpt>
      <trkpt lat="44.55146" lon="6.48593">
        <ele>786.461234</ele>
        <time>2026-07-27T07:38:19.000Z</time>
      </trkpt>
      <trkpt lat="44.55145" lon="6.48596">
        <ele>786.428541</ele>
        <time>2026-07-27T07:38:20.000Z</time>
      </trkpt>
      <trkpt lat="44.55145" lon="6.48596">
        <ele>786.428541</ele>
        <time>2026-07-27T07:38:20.000Z</time>
      </trkpt>
      <trkpt lat="44.55143" lon="6.48599">
        <ele>786.391083</ele>
        <time>2026-07-27T07:38:21.000Z</time>
      </trkpt>
      <trkpt lat="44.55141" lon="6.48603">
        <ele>786.351486</ele>
        <time>2026-07-27T07:38:22.000Z</time>
      </trkpt>
      <trkpt lat="44.55139" lon="6.48606">
        <ele>786.309989</ele>
        <time>2026-07-27T07:38:23.000Z</time>
      </trkpt>
      <trkpt lat="44.55137" lon="6.4861">
        <ele>786.262743</ele>
        <time>2026-07-27T07:38:24.000Z</time>
      </trkpt>
      <trkpt lat="44.55137" lon="6.4861">
        <ele>786.262743</ele>
        <time>2026-07-27T07:38:24.000Z</time>
      </trkpt>
      <trkpt lat="44.55134" lon="6.48613">
        <ele>786.217055</ele>
        <time>2026-07-27T07:38:25.000Z</time>
      </trkpt>
      <trkpt lat="44.55132" lon="6.48615">
        <ele>786.175197</ele>
        <time>2026-07-27T07:38:26.000Z</time>
      </trkpt>
      <trkpt lat="44.55128" lon="6.48618">
        <ele>786.120233</ele>
        <time>2026-07-27T07:38:27.000Z</time>
      </trkpt>
      <trkpt lat="44.55124" lon="6.48621">
        <ele>786.056731</ele>
        <time>2026-07-27T07:38:28.000Z</time>
      </trkpt>
      <trkpt lat="44.55118" lon="6.48625">
        <ele>785.978784</ele>
        <time>2026-07-27T07:38:29.000Z</time>
      </trkpt>
      <trkpt lat="44.55113" lon="6.48628">
        <ele>785.89803</ele>
        <time>2026-07-27T07:38:30.000Z</time>
      </trkpt>
      <trkpt lat="44.55108" lon="6.4863">
        <ele>785.834961</ele>
        <time>2026-07-27T07:38:31.000Z</time>
      </trkpt>
      <trkpt lat="44.55103" lon="6.48632">
        <ele>785.773112</ele>
        <time>2026-07-27T07:38:32.000Z</time>
      </trkpt>
      <trkpt lat="44.55099" lon="6.48633">
        <ele>785.717321</ele>
        <time>2026-07-27T07:38:33.000Z</time>
      </trkpt>
      <trkpt lat="44.55099" lon="6.48633">
        <ele>785.717321</ele>
        <time>2026-07-27T07:38:33.000Z</time>
      </trkpt>
      <trkpt lat="44.55095" lon="6.48633">
        <ele>785.667476</ele>
        <time>2026-07-27T07:38:34.000Z</time>
      </trkpt>
      <trkpt lat="44.55092" lon="6.48633">
        <ele>785.62678</ele>
        <time>2026-07-27T07:38:35.000Z</time>
      </trkpt>
      <trkpt lat="44.55089" lon="6.48632">
        <ele>785.586603</ele>
        <time>2026-07-27T07:38:36.000Z</time>
      </trkpt>
      <trkpt lat="44.55086" lon="6.4863">
        <ele>785.543953</ele>
        <time>2026-07-27T07:38:37.000Z</time>
      </trkpt>
      <trkpt lat="44.55084" lon="6.48629">
        <ele>785.517377</ele>
        <time>2026-07-27T07:38:38.000Z</time>
      </trkpt>
      <trkpt lat="44.55081" lon="6.48628">
        <ele>785.476769</ele>
        <time>2026-07-27T07:38:39.000Z</time>
      </trkpt>
      <trkpt lat="44.55079" lon="6.48628">
        <ele>785.451815</ele>
        <time>2026-07-27T07:38:40.000Z</time>
      </trkpt>
      <trkpt lat="44.55078" lon="6.48628">
        <ele>785.43084</ele>
        <time>2026-07-27T07:38:41.000Z</time>
      </trkpt>
      <trkpt lat="44.55076" lon="6.48628">
        <ele>785.4058</ele>
        <time>2026-07-27T07:38:42.000Z</time>
      </trkpt>
      <trkpt lat="44.55074" lon="6.48627">
        <ele>785.384784</ele>
        <time>2026-07-27T07:38:43.000Z</time>
      </trkpt>
      <trkpt lat="44.55074" lon="6.48627">
        <ele>785.384784</ele>
        <time>2026-07-27T07:38:43.000Z</time>
      </trkpt>
      <trkpt lat="44.55072" lon="6.48626">
        <ele>785.357497</ele>
        <time>2026-07-27T07:38:44.000Z</time>
      </trkpt>
      <trkpt lat="44.55069" lon="6.48625">
        <ele>785.316888</ele>
        <time>2026-07-27T07:38:45.000Z</time>
      </trkpt>
      <trkpt lat="44.55067" lon="6.48624">
        <ele>785.280317</ele>
        <time>2026-07-27T07:38:46.000Z</time>
      </trkpt>
      <trkpt lat="44.55064" lon="6.48623">
        <ele>785.244846</ele>
        <time>2026-07-27T07:38:47.000Z</time>
      </trkpt>
      <trkpt lat="44.5506" lon="6.48624">
        <ele>785.194939</ele>
        <time>2026-07-27T07:38:48.000Z</time>
      </trkpt>
      <trkpt lat="44.55058" lon="6.48625">
        <ele>785.156555</ele>
        <time>2026-07-27T07:38:49.000Z</time>
      </trkpt>
      <trkpt lat="44.55055" lon="6.48628">
        <ele>785.11606</ele>
        <time>2026-07-27T07:38:50.000Z</time>
      </trkpt>
      <trkpt lat="44.55053" lon="6.48632">
        <ele>785.072736</ele>
        <time>2026-07-27T07:38:51.000Z</time>
      </trkpt>
      <trkpt lat="44.55052" lon="6.48636">
        <ele>785.094065</ele>
        <time>2026-07-27T07:38:52.000Z</time>
      </trkpt>
      <trkpt lat="44.55052" lon="6.48636">
        <ele>785.094065</ele>
        <time>2026-07-27T07:38:52.000Z</time>
      </trkpt>
      <trkpt lat="44.55051" lon="6.4864">
        <ele>785.179295</ele>
        <time>2026-07-27T07:38:53.000Z</time>
      </trkpt>
      <trkpt lat="44.55049" lon="6.48643">
        <ele>785.250701</ele>
        <time>2026-07-27T07:38:54.000Z</time>
      </trkpt>
      <trkpt lat="44.55048" lon="6.48647">
        <ele>785.326893</ele>
        <time>2026-07-27T07:38:55.000Z</time>
      </trkpt>
      <trkpt lat="44.55045" lon="6.4865">
        <ele>785.41571</ele>
        <time>2026-07-27T07:38:56.000Z</time>
      </trkpt>
      <trkpt lat="44.55043" lon="6.48654">
        <ele>785.494855</ele>
        <time>2026-07-27T07:38:57.000Z</time>
      </trkpt>
      <trkpt lat="44.55041" lon="6.48657">
        <ele>785.591079</ele>
        <time>2026-07-27T07:38:58.000Z</time>
      </trkpt>
      <trkpt lat="44.55038" lon="6.4866">
        <ele>785.66724</ele>
        <time>2026-07-27T07:38:59.000Z</time>
      </trkpt>
      <trkpt lat="44.55038" lon="6.4866">
        <ele>785.66724</ele>
        <time>2026-07-27T07:38:59.000Z</time>
      </trkpt>
      <trkpt lat="44.55036" lon="6.48663">
        <ele>785.757773</ele>
        <time>2026-07-27T07:39:00.000Z</time>
      </trkpt>
      <trkpt lat="44.55033" lon="6.48666">
        <ele>785.857424</ele>
        <time>2026-07-27T07:39:01.000Z</time>
      </trkpt>
      <trkpt lat="44.5503" lon="6.48668">
        <ele>785.931358</ele>
        <time>2026-07-27T07:39:02.000Z</time>
      </trkpt>
      <trkpt lat="44.55028" lon="6.48671">
        <ele>786.017155</ele>
        <time>2026-07-27T07:39:03.000Z</time>
      </trkpt>
      <trkpt lat="44.55028" lon="6.48671">
        <ele>786.017155</ele>
        <time>2026-07-27T07:39:03.000Z</time>
      </trkpt>
      <trkpt lat="44.55026" lon="6.48673">
        <ele>786.082843</ele>
        <time>2026-07-27T07:39:04.000Z</time>
      </trkpt>
      <trkpt lat="44.55024" lon="6.48675">
        <ele>786.154677</ele>
        <time>2026-07-27T07:39:05.000Z</time>
      </trkpt>
      <trkpt lat="44.55021" lon="6.48679">
        <ele>786.249645</ele>
        <time>2026-07-27T07:39:06.000Z</time>
      </trkpt>
      <trkpt lat="44.55019" lon="6.48681">
        <ele>786.320434</ele>
        <time>2026-07-27T07:39:07.000Z</time>
      </trkpt>
      <trkpt lat="44.55019" lon="6.48681">
        <ele>786.320434</ele>
        <time>2026-07-27T07:39:07.000Z</time>
      </trkpt>
      <trkpt lat="44.55017" lon="6.48684">
        <ele>786.402637</ele>
        <time>2026-07-27T07:39:08.000Z</time>
      </trkpt>
      <trkpt lat="44.55014" lon="6.48687">
        <ele>786.475505</ele>
        <time>2026-07-27T07:39:09.000Z</time>
      </trkpt>
      <trkpt lat="44.55012" lon="6.48689">
        <ele>786.548372</ele>
        <time>2026-07-27T07:39:10.000Z</time>
      </trkpt>
      <trkpt lat="44.55012" lon="6.48689">
        <ele>786.548372</ele>
        <time>2026-07-27T07:39:10.000Z</time>
      </trkpt>
      <trkpt lat="44.55009" lon="6.48691">
        <ele>786.638773</ele>
        <time>2026-07-27T07:39:11.000Z</time>
      </trkpt>
      <trkpt lat="44.55006" lon="6.48693">
        <ele>786.718698</ele>
        <time>2026-07-27T07:39:12.000Z</time>
      </trkpt>
      <trkpt lat="44.55003" lon="6.48695">
        <ele>786.806461</ele>
        <time>2026-07-27T07:39:13.000Z</time>
      </trkpt>
      <trkpt lat="44.55003" lon="6.48695">
        <ele>786.806461</ele>
        <time>2026-07-27T07:39:13.000Z</time>
      </trkpt>
      <trkpt lat="44.55" lon="6.48698">
        <ele>786.918704</ele>
        <time>2026-07-27T07:39:14.000Z</time>
      </trkpt>
      <trkpt lat="44.54997" lon="6.487">
        <ele>786.997237</ele>
        <time>2026-07-27T07:39:15.000Z</time>
      </trkpt>
      <trkpt lat="44.54997" lon="6.487">
        <ele>786.997237</ele>
        <time>2026-07-27T07:39:15.000Z</time>
      </trkpt>
      <trkpt lat="44.54994" lon="6.48702">
        <ele>787.090837</ele>
        <time>2026-07-27T07:39:16.000Z</time>
      </trkpt>
      <trkpt lat="44.5499" lon="6.48705">
        <ele>787.189645</ele>
        <time>2026-07-27T07:39:17.000Z</time>
      </trkpt>
      <trkpt lat="44.5499" lon="6.48705">
        <ele>787.189645</ele>
        <time>2026-07-27T07:39:17.000Z</time>
      </trkpt>
      <trkpt lat="44.54988" lon="6.48707">
        <ele>787.26957</ele>
        <time>2026-07-27T07:39:18.000Z</time>
      </trkpt>
      <trkpt lat="44.54985" lon="6.48709">
        <ele>787.354251</ele>
        <time>2026-07-27T07:39:19.000Z</time>
      </trkpt>
      <trkpt lat="44.54985" lon="6.48709">
        <ele>787.354251</ele>
        <time>2026-07-27T07:39:19.000Z</time>
      </trkpt>
      <trkpt lat="44.54983" lon="6.48712">
        <ele>787.41994</ele>
        <time>2026-07-27T07:39:20.000Z</time>
      </trkpt>
      <trkpt lat="44.54982" lon="6.48714">
        <ele>787.478104</ele>
        <time>2026-07-27T07:39:20.000Z</time>
      </trkpt>
      <trkpt lat="44.54982" lon="6.48714">
        <ele>787.478104</ele>
        <time>2026-07-27T07:39:20.000Z</time>
      </trkpt>
      <trkpt lat="44.5498" lon="6.48717">
        <ele>787.548893</ele>
        <time>2026-07-27T07:39:22.000Z</time>
      </trkpt>
      <trkpt lat="44.5498" lon="6.48717">
        <ele>787.548893</ele>
        <time>2026-07-27T07:39:22.000Z</time>
      </trkpt>
      <trkpt lat="44.54978" lon="6.48719">
        <ele>787.611299</ele>
        <time>2026-07-27T07:39:23.000Z</time>
      </trkpt>
      <trkpt lat="44.54975" lon="6.48722">
        <ele>787.70781</ele>
        <time>2026-07-27T07:39:24.000Z</time>
      </trkpt>
      <trkpt lat="44.54975" lon="6.48722">
        <ele>787.70781</ele>
        <time>2026-07-27T07:39:24.000Z</time>
      </trkpt>
      <trkpt lat="44.54971" lon="6.48726">
        <ele>787.831054</ele>
        <time>2026-07-27T07:39:25.000Z</time>
      </trkpt>
      <trkpt lat="44.54968" lon="6.4873">
        <ele>787.95541</ele>
        <time>2026-07-27T07:39:26.000Z</time>
      </trkpt>
      <trkpt lat="44.54968" lon="6.4873">
        <ele>787.95541</ele>
        <time>2026-07-27T07:39:26.000Z</time>
      </trkpt>
      <trkpt lat="44.54964" lon="6.48735">
        <ele>788.094357</ele>
        <time>2026-07-27T07:39:27.000Z</time>
      </trkpt>
      <trkpt lat="44.54964" lon="6.48735">
        <ele>788.094357</ele>
        <time>2026-07-27T07:39:27.000Z</time>
      </trkpt>
      <trkpt lat="44.54959" lon="6.48738">
        <ele>788.235286</ele>
        <time>2026-07-27T07:39:28.000Z</time>
      </trkpt>
      <trkpt lat="44.54955" lon="6.48739">
        <ele>788.338135</ele>
        <time>2026-07-27T07:39:29.000Z</time>
      </trkpt>
      <trkpt lat="44.54955" lon="6.48739">
        <ele>788.338135</ele>
        <time>2026-07-27T07:39:29.000Z</time>
      </trkpt>
      <trkpt lat="44.54951" lon="6.4874">
        <ele>788.449654</ele>
        <time>2026-07-27T07:39:30.000Z</time>
      </trkpt>
      <trkpt lat="44.54947" lon="6.48742">
        <ele>788.542955</ele>
        <time>2026-07-27T07:39:31.000Z</time>
      </trkpt>
      <trkpt lat="44.54947" lon="6.48742">
        <ele>788.542955</ele>
        <time>2026-07-27T07:39:31.000Z</time>
      </trkpt>
      <trkpt lat="44.54945" lon="6.48744">
        <ele>788.607441</ele>
        <time>2026-07-27T07:39:32.000Z</time>
      </trkpt>
      <trkpt lat="44.54944" lon="6.48747">
        <ele>788.671309</ele>
        <time>2026-07-27T07:39:32.000Z</time>
      </trkpt>
      <trkpt lat="44.54944" lon="6.48747">
        <ele>788.671309</ele>
        <time>2026-07-27T07:39:32.000Z</time>
      </trkpt>
      <trkpt lat="44.54943" lon="6.48749">
        <ele>788.719055</ele>
        <time>2026-07-27T07:39:34.000Z</time>
      </trkpt>
      <trkpt lat="44.54942" lon="6.48752">
        <ele>788.781616</ele>
        <time>2026-07-27T07:39:35.000Z</time>
      </trkpt>
      <trkpt lat="44.54942" lon="6.48752">
        <ele>788.781616</ele>
        <time>2026-07-27T07:39:35.000Z</time>
      </trkpt>
      <trkpt lat="44.54939" lon="6.48757">
        <ele>788.900121</ele>
        <time>2026-07-27T07:39:37.000Z</time>
      </trkpt>
      <trkpt lat="44.54939" lon="6.48757">
        <ele>788.900121</ele>
        <time>2026-07-27T07:39:37.000Z</time>
      </trkpt>
      <trkpt lat="44.54939" lon="6.48759">
        <ele>788.93352</ele>
        <time>2026-07-27T07:39:38.000Z</time>
      </trkpt>
      <trkpt lat="44.54939" lon="6.48761">
        <ele>788.98132</ele>
        <time>2026-07-27T07:39:38.000Z</time>
      </trkpt>
      <trkpt lat="44.54939" lon="6.48765">
        <ele>789.056674</ele>
        <time>2026-07-27T07:39:40.000Z</time>
      </trkpt>
      <trkpt lat="44.54939" lon="6.48765">
        <ele>789.056674</ele>
        <time>2026-07-27T07:39:40.000Z</time>
      </trkpt>
      <trkpt lat="44.5494" lon="6.48769">
        <ele>789.140998</ele>
        <time>2026-07-27T07:39:41.000Z</time>
      </trkpt>
      <trkpt lat="44.54942" lon="6.48773">
        <ele>789.230678</ele>
        <time>2026-07-27T07:39:42.000Z</time>
      </trkpt>
      <trkpt lat="44.54942" lon="6.48773">
        <ele>789.230678</ele>
        <time>2026-07-27T07:39:42.000Z</time>
      </trkpt>
      <trkpt lat="44.54945" lon="6.48777">
        <ele>789.333461</ele>
        <time>2026-07-27T07:39:43.000Z</time>
      </trkpt>
      <trkpt lat="44.54947" lon="6.4878">
        <ele>789.41825</ele>
        <time>2026-07-27T07:39:44.000Z</time>
      </trkpt>
      <trkpt lat="44.54947" lon="6.4878">
        <ele>789.41825</ele>
        <time>2026-07-27T07:39:44.000Z</time>
      </trkpt>
      <trkpt lat="44.5495" lon="6.48784">
        <ele>789.518038</ele>
        <time>2026-07-27T07:39:45.000Z</time>
      </trkpt>
      <trkpt lat="44.54953" lon="6.48787">
        <ele>789.609364</ele>
        <time>2026-07-27T07:39:46.000Z</time>
      </trkpt>
      <trkpt lat="44.54953" lon="6.48787">
        <ele>789.609364</ele>
        <time>2026-07-27T07:39:46.000Z</time>
      </trkpt>
      <trkpt lat="44.54956" lon="6.4879">
        <ele>789.706897</ele>
        <time>2026-07-27T07:39:46.000Z</time>
      </trkpt>
      <trkpt lat="44.54958" lon="6.48792">
        <ele>789.774407</ele>
        <time>2026-07-27T07:39:48.000Z</time>
      </trkpt>
      <trkpt lat="44.54958" lon="6.48792">
        <ele>789.774407</ele>
        <time>2026-07-27T07:39:48.000Z</time>
      </trkpt>
      <trkpt lat="44.54961" lon="6.48794">
        <ele>789.830835</ele>
        <time>2026-07-27T07:39:49.000Z</time>
      </trkpt>
      <trkpt lat="44.54961" lon="6.48794">
        <ele>789.830835</ele>
        <time>2026-07-27T07:39:49.000Z</time>
      </trkpt>
      <trkpt lat="44.54962" lon="6.48796">
        <ele>789.8721</ele>
        <time>2026-07-27T07:39:50.000Z</time>
      </trkpt>
      <trkpt lat="44.54964" lon="6.48799">
        <ele>789.923378</ele>
        <time>2026-07-27T07:39:51.000Z</time>
      </trkpt>
      <trkpt lat="44.54964" lon="6.48799">
        <ele>789.923378</ele>
        <time>2026-07-27T07:39:51.000Z</time>
      </trkpt>
      <trkpt lat="44.54966" lon="6.48801">
        <ele>789.965093</ele>
        <time>2026-07-27T07:39:52.000Z</time>
      </trkpt>
      <trkpt lat="44.54966" lon="6.48801">
        <ele>789.965093</ele>
        <time>2026-07-27T07:39:52.000Z</time>
      </trkpt>
      <trkpt lat="44.54968" lon="6.48803">
        <ele>790.008717</ele>
        <time>2026-07-27T07:39:53.000Z</time>
      </trkpt>
      <trkpt lat="44.5497" lon="6.48804">
        <ele>790.059895</ele>
        <time>2026-07-27T07:39:54.000Z</time>
      </trkpt>
      <trkpt lat="44.5497" lon="6.48804">
        <ele>790.059895</ele>
        <time>2026-07-27T07:39:54.000Z</time>
      </trkpt>
      <trkpt lat="44.54973" lon="6.48807">
        <ele>790.122078</ele>
        <time>2026-07-27T07:39:55.000Z</time>
      </trkpt>
      <trkpt lat="44.54973" lon="6.48807">
        <ele>790.122078</ele>
        <time>2026-07-27T07:39:55.000Z</time>
      </trkpt>
      <trkpt lat="44.54974" lon="6.48809">
        <ele>790.176322</ele>
        <time>2026-07-27T07:39:55.000Z</time>
      </trkpt>
      <trkpt lat="44.54977" lon="6.48813">
        <ele>790.25313</ele>
        <time>2026-07-27T07:39:57.000Z</time>
      </trkpt>
      <trkpt lat="44.54977" lon="6.48813">
        <ele>790.25313</ele>
        <time>2026-07-27T07:39:57.000Z</time>
      </trkpt>
      <trkpt lat="44.5498" lon="6.48817">
        <ele>790.327428</ele>
        <time>2026-07-27T07:39:58.000Z</time>
      </trkpt>
      <trkpt lat="44.5498" lon="6.48817">
        <ele>790.327428</ele>
        <time>2026-07-27T07:39:58.000Z</time>
      </trkpt>
      <trkpt lat="44.54983" lon="6.48821">
        <ele>790.407834</ele>
        <time>2026-07-27T07:39:59.000Z</time>
      </trkpt>
      <trkpt lat="44.54985" lon="6.48824">
        <ele>790.47331</ele>
        <time>2026-07-27T07:40:00.000Z</time>
      </trkpt>
      <trkpt lat="44.54985" lon="6.48824">
        <ele>790.47331</ele>
        <time>2026-07-27T07:40:00.000Z</time>
      </trkpt>
      <trkpt lat="44.54987" lon="6.48828">
        <ele>790.540105</ele>
        <time>2026-07-27T07:40:01.000Z</time>
      </trkpt>
      <trkpt lat="44.54989" lon="6.48832">
        <ele>790.607548</ele>
        <time>2026-07-27T07:40:02.000Z</time>
      </trkpt>
      <trkpt lat="44.54989" lon="6.48832">
        <ele>790.607548</ele>
        <time>2026-07-27T07:40:02.000Z</time>
      </trkpt>
      <trkpt lat="44.54991" lon="6.48835">
        <ele>790.663546</ele>
        <time>2026-07-27T07:40:03.000Z</time>
      </trkpt>
      <trkpt lat="44.54991" lon="6.48835">
        <ele>790.663546</ele>
        <time>2026-07-27T07:40:03.000Z</time>
      </trkpt>
      <trkpt lat="44.54992" lon="6.48838">
        <ele>790.709397</ele>
        <time>2026-07-27T07:40:04.000Z</time>
      </trkpt>
      <trkpt lat="44.54994" lon="6.48841">
        <ele>790.763134</ele>
        <time>2026-07-27T07:40:05.000Z</time>
      </trkpt>
      <trkpt lat="44.54994" lon="6.48841">
        <ele>790.763134</ele>
        <time>2026-07-27T07:40:05.000Z</time>
      </trkpt>
      <trkpt lat="44.54995" lon="6.48844">
        <ele>790.81455</ele>
        <time>2026-07-27T07:40:06.000Z</time>
      </trkpt>
      <trkpt lat="44.54995" lon="6.48844">
        <ele>790.81455</ele>
        <time>2026-07-27T07:40:06.000Z</time>
      </trkpt>
      <trkpt lat="44.54997" lon="6.48848">
        <ele>790.88542</ele>
        <time>2026-07-27T07:40:06.000Z</time>
      </trkpt>
      <trkpt lat="44.54999" lon="6.48852">
        <ele>790.946366</ele>
        <time>2026-07-27T07:40:08.000Z</time>
      </trkpt>
      <trkpt lat="44.54999" lon="6.48852">
        <ele>790.946366</ele>
        <time>2026-07-27T07:40:08.000Z</time>
      </trkpt>
      <trkpt lat="44.55" lon="6.48855">
        <ele>790.998753</ele>
        <time>2026-07-27T07:40:09.000Z</time>
      </trkpt>
      <trkpt lat="44.55" lon="6.48855">
        <ele>790.998753</ele>
        <time>2026-07-27T07:40:09.000Z</time>
      </trkpt>
      <trkpt lat="44.55002" lon="6.48859">
        <ele>791.065569</ele>
        <time>2026-07-27T07:40:10.000Z</time>
      </trkpt>
      <trkpt lat="44.55003" lon="6.48863">
        <ele>791.127745</ele>
        <time>2026-07-27T07:40:10.000Z</time>
      </trkpt>
      <trkpt lat="44.55003" lon="6.48863">
        <ele>791.127745</ele>
        <time>2026-07-27T07:40:10.000Z</time>
      </trkpt>
      <trkpt lat="44.55005" lon="6.48867">
        <ele>791.19116</ele>
        <time>2026-07-27T07:40:12.000Z</time>
      </trkpt>
      <trkpt lat="44.55006" lon="6.48871">
        <ele>791.254575</ele>
        <time>2026-07-27T07:40:13.000Z</time>
      </trkpt>
      <trkpt lat="44.55007" lon="6.48875">
        <ele>791.310334</ele>
        <time>2026-07-27T07:40:14.000Z</time>
      </trkpt>
      <trkpt lat="44.55007" lon="6.48875">
        <ele>791.310334</ele>
        <time>2026-07-27T07:40:14.000Z</time>
      </trkpt>
      <trkpt lat="44.55009" lon="6.48879">
        <ele>791.374994</ele>
        <time>2026-07-27T07:40:15.000Z</time>
      </trkpt>
      <trkpt lat="44.5501" lon="6.48884">
        <ele>791.456307</ele>
        <time>2026-07-27T07:40:16.000Z</time>
      </trkpt>
      <trkpt lat="44.5501" lon="6.48884">
        <ele>791.456307</ele>
        <time>2026-07-27T07:40:16.000Z</time>
      </trkpt>
      <trkpt lat="44.55012" lon="6.48889">
        <ele>791.528121</ele>
        <time>2026-07-27T07:40:17.000Z</time>
      </trkpt>
      <trkpt lat="44.55014" lon="6.48895">
        <ele>791.616407</ele>
        <time>2026-07-27T07:40:17.000Z</time>
      </trkpt>
      <trkpt lat="44.55016" lon="6.48901">
        <ele>791.711093</ele>
        <time>2026-07-27T07:40:19.000Z</time>
      </trkpt>
      <trkpt lat="44.55017" lon="6.48907">
        <ele>791.801627</ele>
        <time>2026-07-27T07:40:19.000Z</time>
      </trkpt>
      <trkpt lat="44.55017" lon="6.48907">
        <ele>791.801627</ele>
        <time>2026-07-27T07:40:19.000Z</time>
      </trkpt>
      <trkpt lat="44.55019" lon="6.48913">
        <ele>791.893742</ele>
        <time>2026-07-27T07:40:21.000Z</time>
      </trkpt>
      <trkpt lat="44.55021" lon="6.4892">
        <ele>791.997523</ele>
        <time>2026-07-27T07:40:21.000Z</time>
      </trkpt>
      <trkpt lat="44.55022" lon="6.48926">
        <ele>792.085408</ele>
        <time>2026-07-27T07:40:23.000Z</time>
      </trkpt>
      <trkpt lat="44.55024" lon="6.48932">
        <ele>792.182679</ele>
        <time>2026-07-27T07:40:23.000Z</time>
      </trkpt>
      <trkpt lat="44.55026" lon="6.48938">
        <ele>792.268431</ele>
        <time>2026-07-27T07:40:25.000Z</time>
      </trkpt>
      <trkpt lat="44.55028" lon="6.48944">
        <ele>792.360094</ele>
        <time>2026-07-27T07:40:25.000Z</time>
      </trkpt>
      <trkpt lat="44.5503" lon="6.48949">
        <ele>792.44333</ele>
        <time>2026-07-27T07:40:27.000Z</time>
      </trkpt>
      <trkpt lat="44.55032" lon="6.48954">
        <ele>792.521594</ele>
        <time>2026-07-27T07:40:28.000Z</time>
      </trkpt>
      <trkpt lat="44.55034" lon="6.48958">
        <ele>792.596187</ele>
        <time>2026-07-27T07:40:29.000Z</time>
      </trkpt>
      <trkpt lat="44.55036" lon="6.48964">
        <ele>792.683247</ele>
        <time>2026-07-27T07:40:30.000Z</time>
      </trkpt>
      <trkpt lat="44.55038" lon="6.48969">
        <ele>792.766886</ele>
        <time>2026-07-27T07:40:31.000Z</time>
      </trkpt>
      <trkpt lat="44.5504" lon="6.48974">
        <ele>792.842505</ele>
        <time>2026-07-27T07:40:32.000Z</time>
      </trkpt>
      <trkpt lat="44.55042" lon="6.48979">
        <ele>792.916038</ele>
        <time>2026-07-27T07:40:33.000Z</time>
      </trkpt>
      <trkpt lat="44.55043" lon="6.48983">
        <ele>792.990858</ele>
        <time>2026-07-27T07:40:34.000Z</time>
      </trkpt>
      <trkpt lat="44.55043" lon="6.48983">
        <ele>792.990858</ele>
        <time>2026-07-27T07:40:34.000Z</time>
      </trkpt>
      <trkpt lat="44.55045" lon="6.48988">
        <ele>793.05644</ele>
        <time>2026-07-27T07:40:34.000Z</time>
      </trkpt>
      <trkpt lat="44.55046" lon="6.48992">
        <ele>793.12869</ele>
        <time>2026-07-27T07:40:36.000Z</time>
      </trkpt>
      <trkpt lat="44.55047" lon="6.48997">
        <ele>793.199429</ele>
        <time>2026-07-27T07:40:36.000Z</time>
      </trkpt>
      <trkpt lat="44.55049" lon="6.49001">
        <ele>793.267485</ele>
        <time>2026-07-27T07:40:38.000Z</time>
      </trkpt>
      <trkpt lat="44.5505" lon="6.49006">
        <ele>793.312821</ele>
        <time>2026-07-27T07:40:39.000Z</time>
      </trkpt>
      <trkpt lat="44.55052" lon="6.49011">
        <ele>793.332691</ele>
        <time>2026-07-27T07:40:40.000Z</time>
      </trkpt>
      <trkpt lat="44.55053" lon="6.49016">
        <ele>793.353639</ele>
        <time>2026-07-27T07:40:41.000Z</time>
      </trkpt>
      <trkpt lat="44.55055" lon="6.4902">
        <ele>793.371778</ele>
        <time>2026-07-27T07:40:42.000Z</time>
      </trkpt>
      <trkpt lat="44.55056" lon="6.49025">
        <ele>793.392365</ele>
        <time>2026-07-27T07:40:43.000Z</time>
      </trkpt>
      <trkpt lat="44.55057" lon="6.49029">
        <ele>793.411345</ele>
        <time>2026-07-27T07:40:44.000Z</time>
      </trkpt>
      <trkpt lat="44.55058" lon="6.49034">
        <ele>793.430859</ele>
        <time>2026-07-27T07:40:45.000Z</time>
      </trkpt>
      <trkpt lat="44.5506" lon="6.49039">
        <ele>793.451446</ele>
        <time>2026-07-27T07:40:46.000Z</time>
      </trkpt>
      <trkpt lat="44.55061" lon="6.49043">
        <ele>793.470251</ele>
        <time>2026-07-27T07:40:47.000Z</time>
      </trkpt>
      <trkpt lat="44.55063" lon="6.49048">
        <ele>793.490356</ele>
        <time>2026-07-27T07:40:48.000Z</time>
      </trkpt>
      <trkpt lat="44.55064" lon="6.49053">
        <ele>793.51091</ele>
        <time>2026-07-27T07:40:48.000Z</time>
      </trkpt>
      <trkpt lat="44.55065" lon="6.49057">
        <ele>793.529783</ele>
        <time>2026-07-27T07:40:50.000Z</time>
      </trkpt>
      <trkpt lat="44.55066" lon="6.49062">
        <ele>793.549588</ele>
        <time>2026-07-27T07:40:51.000Z</time>
      </trkpt>
      <trkpt lat="44.55068" lon="6.49067">
        <ele>793.570175</ele>
        <time>2026-07-27T07:40:52.000Z</time>
      </trkpt>
      <trkpt lat="44.55069" lon="6.49071">
        <ele>793.590989</ele>
        <time>2026-07-27T07:40:53.000Z</time>
      </trkpt>
      <trkpt lat="44.55071" lon="6.49076">
        <ele>793.609794</ele>
        <time>2026-07-27T07:40:54.000Z</time>
      </trkpt>
      <trkpt lat="44.55072" lon="6.4908">
        <ele>793.628952</ele>
        <time>2026-07-27T07:40:55.000Z</time>
      </trkpt>
      <trkpt lat="44.55074" lon="6.49085">
        <ele>793.64918</ele>
        <time>2026-07-27T07:40:56.000Z</time>
      </trkpt>
      <trkpt lat="44.55076" lon="6.49089">
        <ele>793.66839</ele>
        <time>2026-07-27T07:40:57.000Z</time>
      </trkpt>
      <trkpt lat="44.55077" lon="6.49093">
        <ele>793.688144</ele>
        <time>2026-07-27T07:40:58.000Z</time>
      </trkpt>
      <trkpt lat="44.55079" lon="6.49098">
        <ele>793.708014</ele>
        <time>2026-07-27T07:40:59.000Z</time>
      </trkpt>
      <trkpt lat="44.5508" lon="6.49103">
        <ele>793.727884</ele>
        <time>2026-07-27T07:41:00.000Z</time>
      </trkpt>
      <trkpt lat="44.55082" lon="6.49107">
        <ele>793.746389</ele>
        <time>2026-07-27T07:41:01.000Z</time>
      </trkpt>
      <trkpt lat="44.55083" lon="6.49112">
        <ele>793.766976</ele>
        <time>2026-07-27T07:41:01.000Z</time>
      </trkpt>
      <trkpt lat="44.55084" lon="6.49117">
        <ele>793.786407</ele>
        <time>2026-07-27T07:41:03.000Z</time>
      </trkpt>
      <trkpt lat="44.55086" lon="6.49121">
        <ele>793.804768</ele>
        <time>2026-07-27T07:41:04.000Z</time>
      </trkpt>
      <trkpt lat="44.55087" lon="6.49125">
        <ele>793.823826</ele>
        <time>2026-07-27T07:41:05.000Z</time>
      </trkpt>
      <trkpt lat="44.55087" lon="6.49125">
        <ele>793.823826</ele>
        <time>2026-07-27T07:41:05.000Z</time>
      </trkpt>
      <trkpt lat="44.55088" lon="6.4913">
        <ele>793.843696</ele>
        <time>2026-07-27T07:41:06.000Z</time>
      </trkpt>
      <trkpt lat="44.5509" lon="6.49133">
        <ele>793.859307</ele>
        <time>2026-07-27T07:41:07.000Z</time>
      </trkpt>
      <trkpt lat="44.55091" lon="6.49137">
        <ele>793.876147</ele>
        <time>2026-07-27T07:41:08.000Z</time>
      </trkpt>
      <trkpt lat="44.55092" lon="6.49141">
        <ele>793.893555</ele>
        <time>2026-07-27T07:41:09.000Z</time>
      </trkpt>
      <trkpt lat="44.55093" lon="6.49145">
        <ele>793.910965</ele>
        <time>2026-07-27T07:41:10.000Z</time>
      </trkpt>
      <trkpt lat="44.55095" lon="6.49149">
        <ele>793.928372</ele>
        <time>2026-07-27T07:41:11.000Z</time>
      </trkpt>
      <trkpt lat="44.55096" lon="6.49153">
        <ele>793.946474</ele>
        <time>2026-07-27T07:41:12.000Z</time>
      </trkpt>
      <trkpt lat="44.55098" lon="6.49158">
        <ele>793.96658</ele>
        <time>2026-07-27T07:41:13.000Z</time>
      </trkpt>
      <trkpt lat="44.551" lon="6.49162">
        <ele>793.985738</ele>
        <time>2026-07-27T07:41:14.000Z</time>
      </trkpt>
      <trkpt lat="44.55101" lon="6.49167">
        <ele>794.004897</ele>
        <time>2026-07-27T07:41:15.000Z</time>
      </trkpt>
      <trkpt lat="44.55103" lon="6.49171">
        <ele>794.024767</ele>
        <time>2026-07-27T07:41:16.000Z</time>
      </trkpt>
      <trkpt lat="44.55104" lon="6.49176">
        <ele>794.045226</ele>
        <time>2026-07-27T07:41:17.000Z</time>
      </trkpt>
      <trkpt lat="44.55105" lon="6.49181">
        <ele>794.064657</ele>
        <time>2026-07-27T07:41:18.000Z</time>
      </trkpt>
      <trkpt lat="44.55106" lon="6.49186">
        <ele>794.085753</ele>
        <time>2026-07-27T07:41:19.000Z</time>
      </trkpt>
      <trkpt lat="44.55108" lon="6.49191">
        <ele>794.104811</ele>
        <time>2026-07-27T07:41:20.000Z</time>
      </trkpt>
      <trkpt lat="44.55108" lon="6.49191">
        <ele>794.104811</ele>
        <time>2026-07-27T07:41:20.000Z</time>
      </trkpt>
      <trkpt lat="44.55109" lon="6.49196">
        <ele>794.126482</ele>
        <time>2026-07-27T07:41:21.000Z</time>
      </trkpt>
      <trkpt lat="44.5511" lon="6.49201">
        <ele>794.147206</ele>
        <time>2026-07-27T07:41:21.000Z</time>
      </trkpt>
      <trkpt lat="44.55111" lon="6.49206">
        <ele>794.168135</ele>
        <time>2026-07-27T07:41:23.000Z</time>
      </trkpt>
      <trkpt lat="44.55113" lon="6.4921">
        <ele>794.185909</ele>
        <time>2026-07-27T07:41:24.000Z</time>
      </trkpt>
      <trkpt lat="44.55114" lon="6.49214">
        <ele>794.202749</ele>
        <time>2026-07-27T07:41:25.000Z</time>
      </trkpt>
      <trkpt lat="44.55114" lon="6.49214">
        <ele>794.202749</ele>
        <time>2026-07-27T07:41:25.000Z</time>
      </trkpt>
      <trkpt lat="44.55115" lon="6.49218">
        <ele>794.221436</ele>
        <time>2026-07-27T07:41:26.000Z</time>
      </trkpt>
      <trkpt lat="44.55116" lon="6.49223">
        <ele>794.239941</ele>
        <time>2026-07-27T07:41:26.000Z</time>
      </trkpt>
      <trkpt lat="44.55117" lon="6.49228">
        <ele>794.260494</ele>
        <time>2026-07-27T07:41:28.000Z</time>
      </trkpt>
      <trkpt lat="44.55119" lon="6.49233">
        <ele>794.280954</ele>
        <time>2026-07-27T07:41:28.000Z</time>
      </trkpt>
      <trkpt lat="44.55119" lon="6.49238">
        <ele>794.311263</ele>
        <time>2026-07-27T07:41:30.000Z</time>
      </trkpt>
      <trkpt lat="44.55119" lon="6.49238">
        <ele>794.311263</ele>
        <time>2026-07-27T07:41:30.000Z</time>
      </trkpt>
      <trkpt lat="44.55121" lon="6.49243">
        <ele>794.36329</ele>
        <time>2026-07-27T07:41:30.000Z</time>
      </trkpt>
      <trkpt lat="44.55122" lon="6.49248">
        <ele>794.4131</ele>
        <time>2026-07-27T07:41:32.000Z</time>
      </trkpt>
      <trkpt lat="44.55123" lon="6.49253">
        <ele>794.465128</ele>
        <time>2026-07-27T07:41:32.000Z</time>
      </trkpt>
      <trkpt lat="44.55123" lon="6.49253">
        <ele>794.465128</ele>
        <time>2026-07-27T07:41:32.000Z</time>
      </trkpt>
      <trkpt lat="44.55124" lon="6.49258">
        <ele>794.517673</ele>
        <time>2026-07-27T07:41:34.000Z</time>
      </trkpt>
      <trkpt lat="44.55125" lon="6.49263">
        <ele>794.56831</ele>
        <time>2026-07-27T07:41:34.000Z</time>
      </trkpt>
      <trkpt lat="44.55125" lon="6.49269">
        <ele>794.624305</ele>
        <time>2026-07-27T07:41:36.000Z</time>
      </trkpt>
      <trkpt lat="44.55125" lon="6.49269">
        <ele>794.624305</ele>
        <time>2026-07-27T07:41:36.000Z</time>
      </trkpt>
      <trkpt lat="44.55127" lon="6.49275">
        <ele>794.681793</ele>
        <time>2026-07-27T07:41:37.000Z</time>
      </trkpt>
      <trkpt lat="44.55127" lon="6.49281">
        <ele>794.742485</ele>
        <time>2026-07-27T07:41:38.000Z</time>
      </trkpt>
      <trkpt lat="44.55127" lon="6.49281">
        <ele>794.742485</ele>
        <time>2026-07-27T07:41:38.000Z</time>
      </trkpt>
      <trkpt lat="44.55129" lon="6.49287">
        <ele>794.801804</ele>
        <time>2026-07-27T07:41:39.000Z</time>
      </trkpt>
      <trkpt lat="44.5513" lon="6.49294">
        <ele>794.86447</ele>
        <time>2026-07-27T07:41:40.000Z</time>
      </trkpt>
      <trkpt lat="44.5513" lon="6.49294">
        <ele>794.86447</ele>
        <time>2026-07-27T07:41:40.000Z</time>
      </trkpt>
      <trkpt lat="44.55131" lon="6.493">
        <ele>794.925623</ele>
        <time>2026-07-27T07:41:41.000Z</time>
      </trkpt>
      <trkpt lat="44.55132" lon="6.49307">
        <ele>794.997026</ele>
        <time>2026-07-27T07:41:42.000Z</time>
      </trkpt>
      <trkpt lat="44.55132" lon="6.49307">
        <ele>794.997026</ele>
        <time>2026-07-27T07:41:42.000Z</time>
      </trkpt>
      <trkpt lat="44.55134" lon="6.49314">
        <ele>795.066604</ele>
        <time>2026-07-27T07:41:43.000Z</time>
      </trkpt>
      <trkpt lat="44.55136" lon="6.49322">
        <ele>795.145067</ele>
        <time>2026-07-27T07:41:44.000Z</time>
      </trkpt>
      <trkpt lat="44.55136" lon="6.49322">
        <ele>795.145067</ele>
        <time>2026-07-27T07:41:44.000Z</time>
      </trkpt>
      <trkpt lat="44.55138" lon="6.49329">
        <ele>795.217258</ele>
        <time>2026-07-27T07:41:45.000Z</time>
      </trkpt>
      <trkpt lat="44.5514" lon="6.49336">
        <ele>795.291234</ele>
        <time>2026-07-27T07:41:46.000Z</time>
      </trkpt>
      <trkpt lat="44.55141" lon="6.49343">
        <ele>795.362534</ele>
        <time>2026-07-27T07:41:47.000Z</time>
      </trkpt>
      <trkpt lat="44.55143" lon="6.4935">
        <ele>795.431991</ele>
        <time>2026-07-27T07:41:48.000Z</time>
      </trkpt>
      <trkpt lat="44.55144" lon="6.49356">
        <ele>795.490962</ele>
        <time>2026-07-27T07:41:49.000Z</time>
      </trkpt>
      <trkpt lat="44.55145" lon="6.49363">
        <ele>795.553035</ele>
        <time>2026-07-27T07:41:50.000Z</time>
      </trkpt>
      <trkpt lat="44.55146" lon="6.49368">
        <ele>795.609091</ele>
        <time>2026-07-27T07:41:51.000Z</time>
      </trkpt>
      <trkpt lat="44.55148" lon="6.49373">
        <ele>795.656613</ele>
        <time>2026-07-27T07:41:52.000Z</time>
      </trkpt>
      <trkpt lat="44.55149" lon="6.49377">
        <ele>795.695654</ele>
        <time>2026-07-27T07:41:53.000Z</time>
      </trkpt>
      <trkpt lat="44.5515" lon="6.49381">
        <ele>795.734284</ele>
        <time>2026-07-27T07:41:54.000Z</time>
      </trkpt>
      <trkpt lat="44.55149" lon="6.49383">
        <ele>795.760534</ele>
        <time>2026-07-27T07:41:55.000Z</time>
      </trkpt>
      <trkpt lat="44.55148" lon="6.49385">
        <ele>795.784597</ele>
        <time>2026-07-27T07:41:55.000Z</time>
      </trkpt>
      <trkpt lat="44.55145" lon="6.49384">
        <ele>795.815451</ele>
        <time>2026-07-27T07:41:57.000Z</time>
      </trkpt>
      <trkpt lat="44.55145" lon="6.49384">
        <ele>795.815451</ele>
        <time>2026-07-27T07:41:57.000Z</time>
      </trkpt>
      <trkpt lat="44.55143" lon="6.49384">
        <ele>795.847102</ele>
        <time>2026-07-27T07:41:58.000Z</time>
      </trkpt>
      <trkpt lat="44.55141" lon="6.49382">
        <ele>795.881391</ele>
        <time>2026-07-27T07:41:58.000Z</time>
      </trkpt>
      <trkpt lat="44.55138" lon="6.49379">
        <ele>795.921445</ele>
        <time>2026-07-27T07:42:00.000Z</time>
      </trkpt>
      <trkpt lat="44.55136" lon="6.49377">
        <ele>795.962679</ele>
        <time>2026-07-27T07:42:01.000Z</time>
      </trkpt>
      <trkpt lat="44.55134" lon="6.49376">
        <ele>795.99051</ele>
        <time>2026-07-27T07:42:02.000Z</time>
      </trkpt>
      <trkpt lat="44.55131" lon="6.49375">
        <ele>796.025872</ele>
        <time>2026-07-27T07:42:03.000Z</time>
      </trkpt>
      <trkpt lat="44.55129" lon="6.49375">
        <ele>796.056608</ele>
        <time>2026-07-27T07:42:03.000Z</time>
      </trkpt>
      <trkpt lat="44.55129" lon="6.49375">
        <ele>796.056608</ele>
        <time>2026-07-27T07:42:03.000Z</time>
      </trkpt>
      <trkpt lat="44.55127" lon="6.49376">
        <ele>796.08826</ele>
        <time>2026-07-27T07:42:05.000Z</time>
      </trkpt>
      <trkpt lat="44.55124" lon="6.49377">
        <ele>796.125813</ele>
        <time>2026-07-27T07:42:06.000Z</time>
      </trkpt>
      <trkpt lat="44.55122" lon="6.49379">
        <ele>796.159301</ele>
        <time>2026-07-27T07:42:07.000Z</time>
      </trkpt>
      <trkpt lat="44.55118" lon="6.4938">
        <ele>796.208184</ele>
        <time>2026-07-27T07:42:08.000Z</time>
      </trkpt>
      <trkpt lat="44.55115" lon="6.49382">
        <ele>796.252303</ele>
        <time>2026-07-27T07:42:09.000Z</time>
      </trkpt>
      <trkpt lat="44.55111" lon="6.49383">
        <ele>796.309965</ele>
        <time>2026-07-27T07:42:10.000Z</time>
      </trkpt>
      <trkpt lat="44.55107" lon="6.49385">
        <ele>796.361791</ele>
        <time>2026-07-27T07:42:11.000Z</time>
      </trkpt>
      <trkpt lat="44.55107" lon="6.49385">
        <ele>796.361791</ele>
        <time>2026-07-27T07:42:11.000Z</time>
      </trkpt>
      <trkpt lat="44.55103" lon="6.49386">
        <ele>796.41886</ele>
        <time>2026-07-27T07:42:12.000Z</time>
      </trkpt>
      <trkpt lat="44.55099" lon="6.49386">
        <ele>796.470053</ele>
        <time>2026-07-27T07:42:13.000Z</time>
      </trkpt>
      <trkpt lat="44.55096" lon="6.49386">
        <ele>796.515478</ele>
        <time>2026-07-27T07:42:14.000Z</time>
      </trkpt>
      <trkpt lat="44.55093" lon="6.49386">
        <ele>796.557277</ele>
        <time>2026-07-27T07:42:15.000Z</time>
      </trkpt>
      <trkpt lat="44.55093" lon="6.49386">
        <ele>796.557277</ele>
        <time>2026-07-27T07:42:15.000Z</time>
      </trkpt>
      <trkpt lat="44.5509" lon="6.49385">
        <ele>796.597529</ele>
        <time>2026-07-27T07:42:16.000Z</time>
      </trkpt>
      <trkpt lat="44.55086" lon="6.49384">
        <ele>796.645239</ele>
        <time>2026-07-27T07:42:17.000Z</time>
      </trkpt>
      <trkpt lat="44.55084" lon="6.49383">
        <ele>796.683964</ele>
        <time>2026-07-27T07:42:18.000Z</time>
      </trkpt>
      <trkpt lat="44.55084" lon="6.49383">
        <ele>796.683964</ele>
        <time>2026-07-27T07:42:18.000Z</time>
      </trkpt>
      <trkpt lat="44.55081" lon="6.49381">
        <ele>796.74524</ele>
        <time>2026-07-27T07:42:19.000Z</time>
      </trkpt>
      <trkpt lat="44.55078" lon="6.49379">
        <ele>796.828041</ele>
        <time>2026-07-27T07:42:20.000Z</time>
      </trkpt>
      <trkpt lat="44.55078" lon="6.49379">
        <ele>796.828041</ele>
        <time>2026-07-27T07:42:20.000Z</time>
      </trkpt>
      <trkpt lat="44.55075" lon="6.49378">
        <ele>796.89811</ele>
        <time>2026-07-27T07:42:21.000Z</time>
      </trkpt>
      <trkpt lat="44.55073" lon="6.49376">
        <ele>796.960706</ele>
        <time>2026-07-27T07:42:22.000Z</time>
      </trkpt>
      <trkpt lat="44.55073" lon="6.49376">
        <ele>796.960706</ele>
        <time>2026-07-27T07:42:22.000Z</time>
      </trkpt>
      <trkpt lat="44.5507" lon="6.49375">
        <ele>797.042227</ele>
        <time>2026-07-27T07:42:23.000Z</time>
      </trkpt>
      <trkpt lat="44.55067" lon="6.49373">
        <ele>797.107223</ele>
        <time>2026-07-27T07:42:24.000Z</time>
      </trkpt>
      <trkpt lat="44.55067" lon="6.49373">
        <ele>797.107223</ele>
        <time>2026-07-27T07:42:24.000Z</time>
      </trkpt>
      <trkpt lat="44.55066" lon="6.49371">
        <ele>797.165843</ele>
        <time>2026-07-27T07:42:25.000Z</time>
      </trkpt>
      <trkpt lat="44.55066" lon="6.49371">
        <ele>797.165843</ele>
        <time>2026-07-27T07:42:25.000Z</time>
      </trkpt>
      <trkpt lat="44.55063" lon="6.49368">
        <ele>797.247814</ele>
        <time>2026-07-27T07:42:26.000Z</time>
      </trkpt>
      <trkpt lat="44.55063" lon="6.49368">
        <ele>797.247814</ele>
        <time>2026-07-27T07:42:26.000Z</time>
      </trkpt>
      <trkpt lat="44.55061" lon="6.49365">
        <ele>797.321824</ele>
        <time>2026-07-27T07:42:27.000Z</time>
      </trkpt>
      <trkpt lat="44.55058" lon="6.49362">
        <ele>797.403009</ele>
        <time>2026-07-27T07:42:28.000Z</time>
      </trkpt>
      <trkpt lat="44.55058" lon="6.49362">
        <ele>797.403009</ele>
        <time>2026-07-27T07:42:28.000Z</time>
      </trkpt>
      <trkpt lat="44.55056" lon="6.49359">
        <ele>797.475902</ele>
        <time>2026-07-27T07:42:29.000Z</time>
      </trkpt>
      <trkpt lat="44.55056" lon="6.49359">
        <ele>797.475902</ele>
        <time>2026-07-27T07:42:29.000Z</time>
      </trkpt>
      <trkpt lat="44.55054" lon="6.49357">
        <ele>797.551052</ele>
        <time>2026-07-27T07:42:30.000Z</time>
      </trkpt>
      <trkpt lat="44.55054" lon="6.49357">
        <ele>797.551052</ele>
        <time>2026-07-27T07:42:30.000Z</time>
      </trkpt>
      <trkpt lat="44.55051" lon="6.49354">
        <ele>797.628553</ele>
        <time>2026-07-27T07:42:31.000Z</time>
      </trkpt>
      <trkpt lat="44.55051" lon="6.49354">
        <ele>797.628553</ele>
        <time>2026-07-27T07:42:31.000Z</time>
      </trkpt>
      <trkpt lat="44.55049" lon="6.4935">
        <ele>797.712289</ele>
        <time>2026-07-27T07:42:33.000Z</time>
      </trkpt>
      <trkpt lat="44.55049" lon="6.4935">
        <ele>797.712289</ele>
        <time>2026-07-27T07:42:33.000Z</time>
      </trkpt>
      <trkpt lat="44.55046" lon="6.49348">
        <ele>797.795031</ele>
        <time>2026-07-27T07:42:33.000Z</time>
      </trkpt>
      <trkpt lat="44.55046" lon="6.49348">
        <ele>797.795031</ele>
        <time>2026-07-27T07:42:33.000Z</time>
      </trkpt>
      <trkpt lat="44.55043" lon="6.49347">
        <ele>797.882851</ele>
        <time>2026-07-27T07:42:34.000Z</time>
      </trkpt>
      <trkpt lat="44.55043" lon="6.49347">
        <ele>797.882851</ele>
        <time>2026-07-27T07:42:34.000Z</time>
      </trkpt>
      <trkpt lat="44.55039" lon="6.49347">
        <ele>797.976901</ele>
        <time>2026-07-27T07:42:35.000Z</time>
      </trkpt>
      <trkpt lat="44.55039" lon="6.49347">
        <ele>797.976901</ele>
        <time>2026-07-27T07:42:35.000Z</time>
      </trkpt>
      <trkpt lat="44.55034" lon="6.49349">
        <ele>798.089636</ele>
        <time>2026-07-27T07:42:36.000Z</time>
      </trkpt>
      <trkpt lat="44.55034" lon="6.49349">
        <ele>798.089636</ele>
        <time>2026-07-27T07:42:36.000Z</time>
      </trkpt>
      <trkpt lat="44.55029" lon="6.4935">
        <ele>798.216206</ele>
        <time>2026-07-27T07:42:37.000Z</time>
      </trkpt>
      <trkpt lat="44.55029" lon="6.4935">
        <ele>798.216206</ele>
        <time>2026-07-27T07:42:37.000Z</time>
      </trkpt>
      <trkpt lat="44.55024" lon="6.49352">
        <ele>798.351214</ele>
        <time>2026-07-27T07:42:38.000Z</time>
      </trkpt>
      <trkpt lat="44.55024" lon="6.49352">
        <ele>798.351214</ele>
        <time>2026-07-27T07:42:38.000Z</time>
      </trkpt>
      <trkpt lat="44.55018" lon="6.49354">
        <ele>798.499049</ele>
        <time>2026-07-27T07:42:39.000Z</time>
      </trkpt>
      <trkpt lat="44.55013" lon="6.49356">
        <ele>798.643643</ele>
        <time>2026-07-27T07:42:41.000Z</time>
      </trkpt>
      <trkpt lat="44.55013" lon="6.49356">
        <ele>798.643643</ele>
        <time>2026-07-27T07:42:41.000Z</time>
      </trkpt>
      <trkpt lat="44.55007" lon="6.49358">
        <ele>798.788236</ele>
        <time>2026-07-27T07:42:41.000Z</time>
      </trkpt>
      <trkpt lat="44.55007" lon="6.49358">
        <ele>798.788236</ele>
        <time>2026-07-27T07:42:41.000Z</time>
      </trkpt>
      <trkpt lat="44.55001" lon="6.4936">
        <ele>798.942842</ele>
        <time>2026-07-27T07:42:43.000Z</time>
      </trkpt>
      <trkpt lat="44.55001" lon="6.4936">
        <ele>798.942842</ele>
        <time>2026-07-27T07:42:43.000Z</time>
      </trkpt>
      <trkpt lat="44.54995" lon="6.49362">
        <ele>799.089222</ele>
        <time>2026-07-27T07:42:43.000Z</time>
      </trkpt>
      <trkpt lat="44.54989" lon="6.49364">
        <ele>799.236218</ele>
        <time>2026-07-27T07:42:44.000Z</time>
      </trkpt>
      <trkpt lat="44.54984" lon="6.49366">
        <ele>799.370801</ele>
        <time>2026-07-27T07:42:46.000Z</time>
      </trkpt>
      <trkpt lat="44.54984" lon="6.49366">
        <ele>799.370801</ele>
        <time>2026-07-27T07:42:46.000Z</time>
      </trkpt>
      <trkpt lat="44.54978" lon="6.49368">
        <ele>799.525017</ele>
        <time>2026-07-27T07:42:46.000Z</time>
      </trkpt>
      <trkpt lat="44.54973" lon="6.4937">
        <ele>799.661427</ele>
        <time>2026-07-27T07:42:48.000Z</time>
      </trkpt>
      <trkpt lat="44.54967" lon="6.49372">
        <ele>799.81018</ele>
        <time>2026-07-27T07:42:48.000Z</time>
      </trkpt>
      <trkpt lat="44.54967" lon="6.49372">
        <ele>799.81018</ele>
        <time>2026-07-27T07:42:48.000Z</time>
      </trkpt>
      <trkpt lat="44.54961" lon="6.49375">
        <ele>799.957055</ele>
        <time>2026-07-27T07:42:49.000Z</time>
      </trkpt>
      <trkpt lat="44.54956" lon="6.49377">
        <ele>800.094504</ele>
        <time>2026-07-27T07:42:50.000Z</time>
      </trkpt>
      <trkpt lat="44.5495" lon="6.49379">
        <ele>800.240408</ele>
        <time>2026-07-27T07:42:51.000Z</time>
      </trkpt>
      <trkpt lat="44.5495" lon="6.49379">
        <ele>800.240408</ele>
        <time>2026-07-27T07:42:51.000Z</time>
      </trkpt>
      <trkpt lat="44.54945" lon="6.49382">
        <ele>800.380749</ele>
        <time>2026-07-27T07:42:52.000Z</time>
      </trkpt>
      <trkpt lat="44.54939" lon="6.49384">
        <ele>800.537106</ele>
        <time>2026-07-27T07:42:53.000Z</time>
      </trkpt>
      <trkpt lat="44.54939" lon="6.49384">
        <ele>800.537106</ele>
        <time>2026-07-27T07:42:53.000Z</time>
      </trkpt>
      <trkpt lat="44.54933" lon="6.49387">
        <ele>800.683486</ele>
        <time>2026-07-27T07:42:54.000Z</time>
      </trkpt>
      <trkpt lat="44.54927" lon="6.49389">
        <ele>800.840327</ele>
        <time>2026-07-27T07:42:55.000Z</time>
      </trkpt>
      <trkpt lat="44.54921" lon="6.49391">
        <ele>800.996684</ele>
        <time>2026-07-27T07:42:56.000Z</time>
      </trkpt>
      <trkpt lat="44.54921" lon="6.49391">
        <ele>800.996684</ele>
        <time>2026-07-27T07:42:56.000Z</time>
      </trkpt>
      <trkpt lat="44.54915" lon="6.49394">
        <ele>801.137068</ele>
        <time>2026-07-27T07:42:57.000Z</time>
      </trkpt>
      <trkpt lat="44.54909" lon="6.49396">
        <ele>801.37451</ele>
        <time>2026-07-27T07:42:58.000Z</time>
      </trkpt>
      <trkpt lat="44.54903" lon="6.49398">
        <ele>801.596739</ele>
        <time>2026-07-27T07:42:59.000Z</time>
      </trkpt>
      <trkpt lat="44.54903" lon="6.49398">
        <ele>801.596739</ele>
        <time>2026-07-27T07:42:59.000Z</time>
      </trkpt>
      <trkpt lat="44.54897" lon="6.49401">
        <ele>801.833499</ele>
        <time>2026-07-27T07:43:00.000Z</time>
      </trkpt>
      <trkpt lat="44.54897" lon="6.49401">
        <ele>801.833499</ele>
        <time>2026-07-27T07:43:00.000Z</time>
      </trkpt>
      <trkpt lat="44.54892" lon="6.49403">
        <ele>802.041268</ele>
        <time>2026-07-27T07:43:01.000Z</time>
      </trkpt>
      <trkpt lat="44.54887" lon="6.49405">
        <ele>802.254201</ele>
        <time>2026-07-27T07:43:02.000Z</time>
      </trkpt>
      <trkpt lat="44.54887" lon="6.49405">
        <ele>802.254201</ele>
        <time>2026-07-27T07:43:02.000Z</time>
      </trkpt>
      <trkpt lat="44.54881" lon="6.49408">
        <ele>802.46526</ele>
        <time>2026-07-27T07:43:03.000Z</time>
      </trkpt>
      <trkpt lat="44.54881" lon="6.49408">
        <ele>802.46526</ele>
        <time>2026-07-27T07:43:03.000Z</time>
      </trkpt>
      <trkpt lat="44.54876" lon="6.4941">
        <ele>802.665709</ele>
        <time>2026-07-27T07:43:04.000Z</time>
      </trkpt>
      <trkpt lat="44.54876" lon="6.4941">
        <ele>802.665709</ele>
        <time>2026-07-27T07:43:04.000Z</time>
      </trkpt>
      <trkpt lat="44.54872" lon="6.49413">
        <ele>802.85528</ele>
        <time>2026-07-27T07:43:05.000Z</time>
      </trkpt>
      <trkpt lat="44.54872" lon="6.49413">
        <ele>802.85528</ele>
        <time>2026-07-27T07:43:05.000Z</time>
      </trkpt>
      <trkpt lat="44.54866" lon="6.49416">
        <ele>803.095725</ele>
        <time>2026-07-27T07:43:06.000Z</time>
      </trkpt>
      <trkpt lat="44.54866" lon="6.49416">
        <ele>803.095725</ele>
        <time>2026-07-27T07:43:06.000Z</time>
      </trkpt>
      <trkpt lat="44.5486" lon="6.49418">
        <ele>803.32022</ele>
        <time>2026-07-27T07:43:07.000Z</time>
      </trkpt>
      <trkpt lat="44.5486" lon="6.49418">
        <ele>803.32022</ele>
        <time>2026-07-27T07:43:07.000Z</time>
      </trkpt>
      <trkpt lat="44.54854" lon="6.49421">
        <ele>803.558371</ele>
        <time>2026-07-27T07:43:08.000Z</time>
      </trkpt>
      <trkpt lat="44.54854" lon="6.49421">
        <ele>803.558371</ele>
        <time>2026-07-27T07:43:08.000Z</time>
      </trkpt>
      <trkpt lat="44.54846" lon="6.49424">
        <ele>803.869656</ele>
        <time>2026-07-27T07:43:09.000Z</time>
      </trkpt>
      <trkpt lat="44.54846" lon="6.49424">
        <ele>803.869656</ele>
        <time>2026-07-27T07:43:09.000Z</time>
      </trkpt>
      <trkpt lat="44.54839" lon="6.49426">
        <ele>804.123013</ele>
        <time>2026-07-27T07:43:10.000Z</time>
      </trkpt>
      <trkpt lat="44.54839" lon="6.49426">
        <ele>804.123013</ele>
        <time>2026-07-27T07:43:10.000Z</time>
      </trkpt>
      <trkpt lat="44.54833" lon="6.49429">
        <ele>804.375675</ele>
        <time>2026-07-27T07:43:11.000Z</time>
      </trkpt>
      <trkpt lat="44.54833" lon="6.49429">
        <ele>804.375675</ele>
        <time>2026-07-27T07:43:11.000Z</time>
      </trkpt>
      <trkpt lat="44.54826" lon="6.49431">
        <ele>804.625409</ele>
        <time>2026-07-27T07:43:12.000Z</time>
      </trkpt>
      <trkpt lat="44.54826" lon="6.49431">
        <ele>804.625409</ele>
        <time>2026-07-27T07:43:12.000Z</time>
      </trkpt>
      <trkpt lat="44.5482" lon="6.49434">
        <ele>804.878071</ele>
        <time>2026-07-27T07:43:13.000Z</time>
      </trkpt>
      <trkpt lat="44.5482" lon="6.49434">
        <ele>804.878071</ele>
        <time>2026-07-27T07:43:13.000Z</time>
      </trkpt>
      <trkpt lat="44.54814" lon="6.49436">
        <ele>805.103927</ele>
        <time>2026-07-27T07:43:15.000Z</time>
      </trkpt>
      <trkpt lat="44.54814" lon="6.49436">
        <ele>805.103927</ele>
        <time>2026-07-27T07:43:15.000Z</time>
      </trkpt>
      <trkpt lat="44.54808" lon="6.49438">
        <ele>805.351626</ele>
        <time>2026-07-27T07:43:15.000Z</time>
      </trkpt>
      <trkpt lat="44.54808" lon="6.49438">
        <ele>805.351626</ele>
        <time>2026-07-27T07:43:15.000Z</time>
      </trkpt>
      <trkpt lat="44.54802" lon="6.4944">
        <ele>805.589068</ele>
        <time>2026-07-27T07:43:16.000Z</time>
      </trkpt>
      <trkpt lat="44.54802" lon="6.4944">
        <ele>805.589068</ele>
        <time>2026-07-27T07:43:16.000Z</time>
      </trkpt>
      <trkpt lat="44.54795" lon="6.49443">
        <ele>805.84042</ele>
        <time>2026-07-27T07:43:17.000Z</time>
      </trkpt>
      <trkpt lat="44.54795" lon="6.49443">
        <ele>805.84042</ele>
        <time>2026-07-27T07:43:17.000Z</time>
      </trkpt>
      <trkpt lat="44.54789" lon="6.49445">
        <ele>806.077181</ele>
        <time>2026-07-27T07:43:18.000Z</time>
      </trkpt>
      <trkpt lat="44.54789" lon="6.49445">
        <ele>806.077181</ele>
        <time>2026-07-27T07:43:18.000Z</time>
      </trkpt>
      <trkpt lat="44.54783" lon="6.49447">
        <ele>806.31329</ele>
        <time>2026-07-27T07:43:19.000Z</time>
      </trkpt>
      <trkpt lat="44.54783" lon="6.49447">
        <ele>806.31329</ele>
        <time>2026-07-27T07:43:19.000Z</time>
      </trkpt>
      <trkpt lat="44.54777" lon="6.49449">
        <ele>806.549398</ele>
        <time>2026-07-27T07:43:20.000Z</time>
      </trkpt>
      <trkpt lat="44.54777" lon="6.49449">
        <ele>806.549398</ele>
        <time>2026-07-27T07:43:20.000Z</time>
      </trkpt>
      <trkpt lat="44.5477" lon="6.49451">
        <ele>806.816629</ele>
        <time>2026-07-27T07:43:21.000Z</time>
      </trkpt>
      <trkpt lat="44.5477" lon="6.49451">
        <ele>806.816629</ele>
        <time>2026-07-27T07:43:21.000Z</time>
      </trkpt>
      <trkpt lat="44.54764" lon="6.49454">
        <ele>807.039584</ele>
        <time>2026-07-27T07:43:22.000Z</time>
      </trkpt>
      <trkpt lat="44.54764" lon="6.49454">
        <ele>807.039584</ele>
        <time>2026-07-27T07:43:22.000Z</time>
      </trkpt>
      <trkpt lat="44.54758" lon="6.49456">
        <ele>807.277026</ele>
        <time>2026-07-27T07:43:23.000Z</time>
      </trkpt>
      <trkpt lat="44.54758" lon="6.49456">
        <ele>807.277026</ele>
        <time>2026-07-27T07:43:23.000Z</time>
      </trkpt>
      <trkpt lat="44.54752" lon="6.49458">
        <ele>807.515178</ele>
        <time>2026-07-27T07:43:25.000Z</time>
      </trkpt>
      <trkpt lat="44.54752" lon="6.49458">
        <ele>807.515178</ele>
        <time>2026-07-27T07:43:25.000Z</time>
      </trkpt>
      <trkpt lat="44.54746" lon="6.49461">
        <ele>807.743263</ele>
        <time>2026-07-27T07:43:25.000Z</time>
      </trkpt>
      <trkpt lat="44.5474" lon="6.49464">
        <ele>807.992253</ele>
        <time>2026-07-27T07:43:27.000Z</time>
      </trkpt>
      <trkpt lat="44.5474" lon="6.49464">
        <ele>807.992253</ele>
        <time>2026-07-27T07:43:27.000Z</time>
      </trkpt>
      <trkpt lat="44.54734" lon="6.49466">
        <ele>808.242562</ele>
        <time>2026-07-27T07:43:27.000Z</time>
      </trkpt>
      <trkpt lat="44.54728" lon="6.49469">
        <ele>808.521597</ele>
        <time>2026-07-27T07:43:29.000Z</time>
      </trkpt>
      <trkpt lat="44.54728" lon="6.49469">
        <ele>808.521597</ele>
        <time>2026-07-27T07:43:29.000Z</time>
      </trkpt>
      <trkpt lat="44.54722" lon="6.49472">
        <ele>808.771906</ele>
        <time>2026-07-27T07:43:29.000Z</time>
      </trkpt>
      <trkpt lat="44.54717" lon="6.49474">
        <ele>809.017589</ele>
        <time>2026-07-27T07:43:30.000Z</time>
      </trkpt>
      <trkpt lat="44.54717" lon="6.49474">
        <ele>809.017589</ele>
        <time>2026-07-27T07:43:30.000Z</time>
      </trkpt>
      <trkpt lat="44.5471" lon="6.49477">
        <ele>809.294335</ele>
        <time>2026-07-27T07:43:32.000Z</time>
      </trkpt>
      <trkpt lat="44.54704" lon="6.49479">
        <ele>809.571815</ele>
        <time>2026-07-27T07:43:32.000Z</time>
      </trkpt>
      <trkpt lat="44.54704" lon="6.49479">
        <ele>809.571815</ele>
        <time>2026-07-27T07:43:32.000Z</time>
      </trkpt>
      <trkpt lat="44.54697" lon="6.49481">
        <ele>809.832579</ele>
        <time>2026-07-27T07:43:34.000Z</time>
      </trkpt>
      <trkpt lat="44.54697" lon="6.49481">
        <ele>809.832579</ele>
        <time>2026-07-27T07:43:34.000Z</time>
      </trkpt>
      <trkpt lat="44.54692" lon="6.49483">
        <ele>810.075873</ele>
        <time>2026-07-27T07:43:34.000Z</time>
      </trkpt>
      <trkpt lat="44.54692" lon="6.49483">
        <ele>810.075873</ele>
        <time>2026-07-27T07:43:34.000Z</time>
      </trkpt>
      <trkpt lat="44.54686" lon="6.49486">
        <ele>810.336638</ele>
        <time>2026-07-27T07:43:36.000Z</time>
      </trkpt>
      <trkpt lat="44.54686" lon="6.49486">
        <ele>810.336638</ele>
        <time>2026-07-27T07:43:36.000Z</time>
      </trkpt>
      <trkpt lat="44.5468" lon="6.49488">
        <ele>810.583184</ele>
        <time>2026-07-27T07:43:36.000Z</time>
      </trkpt>
      <trkpt lat="44.5468" lon="6.49488">
        <ele>810.583184</ele>
        <time>2026-07-27T07:43:36.000Z</time>
      </trkpt>
      <trkpt lat="44.54673" lon="6.4949">
        <ele>810.85855</ele>
        <time>2026-07-27T07:43:38.000Z</time>
      </trkpt>
      <trkpt lat="44.54673" lon="6.4949">
        <ele>810.85855</ele>
        <time>2026-07-27T07:43:38.000Z</time>
      </trkpt>
      <trkpt lat="44.54667" lon="6.49492">
        <ele>811.117164</ele>
        <time>2026-07-27T07:43:38.000Z</time>
      </trkpt>
      <trkpt lat="44.54667" lon="6.49492">
        <ele>811.117164</ele>
        <time>2026-07-27T07:43:38.000Z</time>
      </trkpt>
      <trkpt lat="44.54661" lon="6.49495">
        <ele>811.378708</ele>
        <time>2026-07-27T07:43:39.000Z</time>
      </trkpt>
      <trkpt lat="44.54661" lon="6.49495">
        <ele>811.378708</ele>
        <time>2026-07-27T07:43:39.000Z</time>
      </trkpt>
      <trkpt lat="44.54655" lon="6.49497">
        <ele>811.642772</ele>
        <time>2026-07-27T07:43:41.000Z</time>
      </trkpt>
      <trkpt lat="44.54655" lon="6.49497">
        <ele>811.642772</ele>
        <time>2026-07-27T07:43:41.000Z</time>
      </trkpt>
      <trkpt lat="44.54649" lon="6.495">
        <ele>811.889318</ele>
        <time>2026-07-27T07:43:41.000Z</time>
      </trkpt>
      <trkpt lat="44.54649" lon="6.495">
        <ele>811.889318</ele>
        <time>2026-07-27T07:43:41.000Z</time>
      </trkpt>
      <trkpt lat="44.54644" lon="6.49502">
        <ele>812.139807</ele>
        <time>2026-07-27T07:43:43.000Z</time>
      </trkpt>
      <trkpt lat="44.54644" lon="6.49502">
        <ele>812.139807</ele>
        <time>2026-07-27T07:43:43.000Z</time>
      </trkpt>
      <trkpt lat="44.54638" lon="6.49505">
        <ele>812.40216</ele>
        <time>2026-07-27T07:43:43.000Z</time>
      </trkpt>
      <trkpt lat="44.54638" lon="6.49505">
        <ele>812.40216</ele>
        <time>2026-07-27T07:43:43.000Z</time>
      </trkpt>
      <trkpt lat="44.54631" lon="6.49507">
        <ele>812.662925</ele>
        <time>2026-07-27T07:43:44.000Z</time>
      </trkpt>
      <trkpt lat="44.54631" lon="6.49507">
        <ele>812.662925</ele>
        <time>2026-07-27T07:43:44.000Z</time>
      </trkpt>
      <trkpt lat="44.54626" lon="6.4951">
        <ele>812.90778</ele>
        <time>2026-07-27T07:43:46.000Z</time>
      </trkpt>
      <trkpt lat="44.54626" lon="6.4951">
        <ele>812.90778</ele>
        <time>2026-07-27T07:43:46.000Z</time>
      </trkpt>
      <trkpt lat="44.5462" lon="6.49512">
        <ele>813.151074</ele>
        <time>2026-07-27T07:43:46.000Z</time>
      </trkpt>
      <trkpt lat="44.5462" lon="6.49512">
        <ele>813.151074</ele>
        <time>2026-07-27T07:43:46.000Z</time>
      </trkpt>
      <trkpt lat="44.54614" lon="6.49514">
        <ele>813.411839</ele>
        <time>2026-07-27T07:43:48.000Z</time>
      </trkpt>
      <trkpt lat="44.54614" lon="6.49514">
        <ele>813.411839</ele>
        <time>2026-07-27T07:43:48.000Z</time>
      </trkpt>
      <trkpt lat="44.54608" lon="6.49516">
        <ele>813.654402</ele>
        <time>2026-07-27T07:43:48.000Z</time>
      </trkpt>
      <trkpt lat="44.54608" lon="6.49516">
        <ele>813.654402</ele>
        <time>2026-07-27T07:43:48.000Z</time>
      </trkpt>
      <trkpt lat="44.54602" lon="6.49518">
        <ele>813.901692</ele>
        <time>2026-07-27T07:43:49.000Z</time>
      </trkpt>
      <trkpt lat="44.54602" lon="6.49518">
        <ele>813.901692</ele>
        <time>2026-07-27T07:43:49.000Z</time>
      </trkpt>
      <trkpt lat="44.54596" lon="6.4952">
        <ele>814.162457</ele>
        <time>2026-07-27T07:43:51.000Z</time>
      </trkpt>
      <trkpt lat="44.54596" lon="6.4952">
        <ele>814.162457</ele>
        <time>2026-07-27T07:43:51.000Z</time>
      </trkpt>
      <trkpt lat="44.54591" lon="6.49523">
        <ele>814.407312</ele>
        <time>2026-07-27T07:43:51.000Z</time>
      </trkpt>
      <trkpt lat="44.54591" lon="6.49523">
        <ele>814.407312</ele>
        <time>2026-07-27T07:43:51.000Z</time>
      </trkpt>
      <trkpt lat="44.54585" lon="6.49525">
        <ele>814.668077</ele>
        <time>2026-07-27T07:43:52.000Z</time>
      </trkpt>
      <trkpt lat="44.54585" lon="6.49525">
        <ele>814.668077</ele>
        <time>2026-07-27T07:43:52.000Z</time>
      </trkpt>
      <trkpt lat="44.54578" lon="6.49527">
        <ele>814.945557</ele>
        <time>2026-07-27T07:43:54.000Z</time>
      </trkpt>
      <trkpt lat="44.54578" lon="6.49527">
        <ele>814.945557</ele>
        <time>2026-07-27T07:43:54.000Z</time>
      </trkpt>
      <trkpt lat="44.54572" lon="6.4953">
        <ele>815.190412</ele>
        <time>2026-07-27T07:43:54.000Z</time>
      </trkpt>
      <trkpt lat="44.54572" lon="6.4953">
        <ele>815.190412</ele>
        <time>2026-07-27T07:43:54.000Z</time>
      </trkpt>
      <trkpt lat="44.54567" lon="6.49532">
        <ele>815.430971</ele>
        <time>2026-07-27T07:43:56.000Z</time>
      </trkpt>
      <trkpt lat="44.54567" lon="6.49532">
        <ele>815.430971</ele>
        <time>2026-07-27T07:43:56.000Z</time>
      </trkpt>
      <trkpt lat="44.54561" lon="6.49534">
        <ele>815.68689</ele>
        <time>2026-07-27T07:43:56.000Z</time>
      </trkpt>
      <trkpt lat="44.54561" lon="6.49534">
        <ele>815.68689</ele>
        <time>2026-07-27T07:43:56.000Z</time>
      </trkpt>
      <trkpt lat="44.54554" lon="6.49537">
        <ele>815.943628</ele>
        <time>2026-07-27T07:43:57.000Z</time>
      </trkpt>
      <trkpt lat="44.54554" lon="6.49537">
        <ele>815.943628</ele>
        <time>2026-07-27T07:43:57.000Z</time>
      </trkpt>
      <trkpt lat="44.54549" lon="6.49539">
        <ele>816.185586</ele>
        <time>2026-07-27T07:43:59.000Z</time>
      </trkpt>
      <trkpt lat="44.54549" lon="6.49539">
        <ele>816.185586</ele>
        <time>2026-07-27T07:43:59.000Z</time>
      </trkpt>
      <trkpt lat="44.54543" lon="6.49541">
        <ele>816.4222</ele>
        <time>2026-07-27T07:43:59.000Z</time>
      </trkpt>
      <trkpt lat="44.54543" lon="6.49541">
        <ele>816.4222</ele>
        <time>2026-07-27T07:43:59.000Z</time>
      </trkpt>
      <trkpt lat="44.54537" lon="6.49543">
        <ele>816.660272</ele>
        <time>2026-07-27T07:44:00.000Z</time>
      </trkpt>
      <trkpt lat="44.54537" lon="6.49543">
        <ele>816.660272</ele>
        <time>2026-07-27T07:44:00.000Z</time>
      </trkpt>
      <trkpt lat="44.54532" lon="6.49545">
        <ele>816.880565</ele>
        <time>2026-07-27T07:44:02.000Z</time>
      </trkpt>
      <trkpt lat="44.54532" lon="6.49545">
        <ele>816.880565</ele>
        <time>2026-07-27T07:44:02.000Z</time>
      </trkpt>
      <trkpt lat="44.54526" lon="6.49547">
        <ele>817.12179</ele>
        <time>2026-07-27T07:44:03.000Z</time>
      </trkpt>
      <trkpt lat="44.54526" lon="6.49547">
        <ele>817.12179</ele>
        <time>2026-07-27T07:44:03.000Z</time>
      </trkpt>
      <trkpt lat="44.54521" lon="6.4955">
        <ele>817.345202</ele>
        <time>2026-07-27T07:44:04.000Z</time>
      </trkpt>
      <trkpt lat="44.54521" lon="6.4955">
        <ele>817.345202</ele>
        <time>2026-07-27T07:44:04.000Z</time>
      </trkpt>
      <trkpt lat="44.54515" lon="6.49552">
        <ele>817.581817</ele>
        <time>2026-07-27T07:44:04.000Z</time>
      </trkpt>
      <trkpt lat="44.54509" lon="6.49554">
        <ele>817.823774</ele>
        <time>2026-07-27T07:44:05.000Z</time>
      </trkpt>
      <trkpt lat="44.54509" lon="6.49554">
        <ele>817.823774</ele>
        <time>2026-07-27T07:44:05.000Z</time>
      </trkpt>
      <trkpt lat="44.54504" lon="6.49556">
        <ele>818.063432</ele>
        <time>2026-07-27T07:44:07.000Z</time>
      </trkpt>
      <trkpt lat="44.54504" lon="6.49556">
        <ele>818.063432</ele>
        <time>2026-07-27T07:44:07.000Z</time>
      </trkpt>
      <trkpt lat="44.54498" lon="6.49558">
        <ele>818.317072</ele>
        <time>2026-07-27T07:44:08.000Z</time>
      </trkpt>
      <trkpt lat="44.54498" lon="6.49558">
        <ele>818.317072</ele>
        <time>2026-07-27T07:44:08.000Z</time>
      </trkpt>
      <trkpt lat="44.54492" lon="6.4956">
        <ele>818.554399</ele>
        <time>2026-07-27T07:44:09.000Z</time>
      </trkpt>
      <trkpt lat="44.54492" lon="6.4956">
        <ele>818.554399</ele>
        <time>2026-07-27T07:44:09.000Z</time>
      </trkpt>
      <trkpt lat="44.54486" lon="6.49562">
        <ele>818.805427</ele>
        <time>2026-07-27T07:44:09.000Z</time>
      </trkpt>
      <trkpt lat="44.54486" lon="6.49562">
        <ele>818.805427</ele>
        <time>2026-07-27T07:44:09.000Z</time>
      </trkpt>
      <trkpt lat="44.5448" lon="6.49564">
        <ele>819.057699</ele>
        <time>2026-07-27T07:44:10.000Z</time>
      </trkpt>
      <trkpt lat="44.5448" lon="6.49564">
        <ele>819.057699</ele>
        <time>2026-07-27T07:44:10.000Z</time>
      </trkpt>
      <trkpt lat="44.54474" lon="6.49566">
        <ele>819.277993</ele>
        <time>2026-07-27T07:44:11.000Z</time>
      </trkpt>
      <trkpt lat="44.54474" lon="6.49566">
        <ele>819.277993</ele>
        <time>2026-07-27T07:44:11.000Z</time>
      </trkpt>
      <trkpt lat="44.54469" lon="6.49568">
        <ele>819.488176</ele>
        <time>2026-07-27T07:44:12.000Z</time>
      </trkpt>
      <trkpt lat="44.54469" lon="6.49568">
        <ele>819.488176</ele>
        <time>2026-07-27T07:44:12.000Z</time>
      </trkpt>
      <trkpt lat="44.54464" lon="6.4957">
        <ele>819.709198</ele>
        <time>2026-07-27T07:44:13.000Z</time>
      </trkpt>
      <trkpt lat="44.54464" lon="6.4957">
        <ele>819.709198</ele>
        <time>2026-07-27T07:44:13.000Z</time>
      </trkpt>
      <trkpt lat="44.54459" lon="6.49572">
        <ele>819.920222</ele>
        <time>2026-07-27T07:44:14.000Z</time>
      </trkpt>
      <trkpt lat="44.54459" lon="6.49572">
        <ele>819.920222</ele>
        <time>2026-07-27T07:44:14.000Z</time>
      </trkpt>
      <trkpt lat="44.54454" lon="6.49575">
        <ele>820.142007</ele>
        <time>2026-07-27T07:44:15.000Z</time>
      </trkpt>
      <trkpt lat="44.54454" lon="6.49575">
        <ele>820.142007</ele>
        <time>2026-07-27T07:44:15.000Z</time>
      </trkpt>
      <trkpt lat="44.54449" lon="6.49577">
        <ele>820.35219</ele>
        <time>2026-07-27T07:44:17.000Z</time>
      </trkpt>
      <trkpt lat="44.54449" lon="6.49577">
        <ele>820.35219</ele>
        <time>2026-07-27T07:44:17.000Z</time>
      </trkpt>
      <trkpt lat="44.54443" lon="6.49579">
        <ele>820.573975</ele>
        <time>2026-07-27T07:44:17.000Z</time>
      </trkpt>
      <trkpt lat="44.54443" lon="6.49579">
        <ele>820.573975</ele>
        <time>2026-07-27T07:44:17.000Z</time>
      </trkpt>
      <trkpt lat="44.54438" lon="6.49581">
        <ele>820.817494</ele>
        <time>2026-07-27T07:44:18.000Z</time>
      </trkpt>
      <trkpt lat="44.54438" lon="6.49581">
        <ele>820.817494</ele>
        <time>2026-07-27T07:44:18.000Z</time>
      </trkpt>
      <trkpt lat="44.54432" lon="6.49584">
        <ele>821.057152</ele>
        <time>2026-07-27T07:44:19.000Z</time>
      </trkpt>
      <trkpt lat="44.54432" lon="6.49584">
        <ele>821.057152</ele>
        <time>2026-07-27T07:44:19.000Z</time>
      </trkpt>
      <trkpt lat="44.54426" lon="6.49586">
        <ele>821.294479</ele>
        <time>2026-07-27T07:44:20.000Z</time>
      </trkpt>
      <trkpt lat="44.54426" lon="6.49586">
        <ele>821.294479</ele>
        <time>2026-07-27T07:44:20.000Z</time>
      </trkpt>
      <trkpt lat="44.54421" lon="6.49588">
        <ele>821.531807</ele>
        <time>2026-07-27T07:44:21.000Z</time>
      </trkpt>
      <trkpt lat="44.54421" lon="6.49588">
        <ele>821.531807</ele>
        <time>2026-07-27T07:44:21.000Z</time>
      </trkpt>
      <trkpt lat="44.54415" lon="6.4959">
        <ele>821.756004</ele>
        <time>2026-07-27T07:44:22.000Z</time>
      </trkpt>
      <trkpt lat="44.54415" lon="6.4959">
        <ele>821.756004</ele>
        <time>2026-07-27T07:44:22.000Z</time>
      </trkpt>
      <trkpt lat="44.54409" lon="6.49591">
        <ele>821.991292</ele>
        <time>2026-07-27T07:44:23.000Z</time>
      </trkpt>
      <trkpt lat="44.54409" lon="6.49591">
        <ele>821.991292</ele>
        <time>2026-07-27T07:44:23.000Z</time>
      </trkpt>
      <trkpt lat="44.54403" lon="6.49594">
        <ele>822.244233</ele>
        <time>2026-07-27T07:44:24.000Z</time>
      </trkpt>
      <trkpt lat="44.54403" lon="6.49594">
        <ele>822.244233</ele>
        <time>2026-07-27T07:44:24.000Z</time>
      </trkpt>
      <trkpt lat="44.54398" lon="6.49596">
        <ele>822.466815</ele>
        <time>2026-07-27T07:44:26.000Z</time>
      </trkpt>
      <trkpt lat="44.54398" lon="6.49596">
        <ele>822.466815</ele>
        <time>2026-07-27T07:44:26.000Z</time>
      </trkpt>
      <trkpt lat="44.54393" lon="6.49598">
        <ele>822.735602</ele>
        <time>2026-07-27T07:44:26.000Z</time>
      </trkpt>
      <trkpt lat="44.54393" lon="6.49598">
        <ele>822.735602</ele>
        <time>2026-07-27T07:44:26.000Z</time>
      </trkpt>
      <trkpt lat="44.54387" lon="6.496">
        <ele>823.031985</ele>
        <time>2026-07-27T07:44:27.000Z</time>
      </trkpt>
      <trkpt lat="44.54387" lon="6.496">
        <ele>823.031985</ele>
        <time>2026-07-27T07:44:27.000Z</time>
      </trkpt>
      <trkpt lat="44.54382" lon="6.49602">
        <ele>823.346149</ele>
        <time>2026-07-27T07:44:28.000Z</time>
      </trkpt>
      <trkpt lat="44.54382" lon="6.49602">
        <ele>823.346149</ele>
        <time>2026-07-27T07:44:28.000Z</time>
      </trkpt>
      <trkpt lat="44.54377" lon="6.49604">
        <ele>823.601232</ele>
        <time>2026-07-27T07:44:29.000Z</time>
      </trkpt>
      <trkpt lat="44.54377" lon="6.49604">
        <ele>823.601232</ele>
        <time>2026-07-27T07:44:29.000Z</time>
      </trkpt>
      <trkpt lat="44.54372" lon="6.49605">
        <ele>823.876236</ele>
        <time>2026-07-27T07:44:30.000Z</time>
      </trkpt>
      <trkpt lat="44.54372" lon="6.49605">
        <ele>823.876236</ele>
        <time>2026-07-27T07:44:30.000Z</time>
      </trkpt>
      <trkpt lat="44.54367" lon="6.49607">
        <ele>824.128642</ele>
        <time>2026-07-27T07:44:31.000Z</time>
      </trkpt>
      <trkpt lat="44.54367" lon="6.49607">
        <ele>824.128642</ele>
        <time>2026-07-27T07:44:31.000Z</time>
      </trkpt>
      <trkpt lat="44.54364" lon="6.49608">
        <ele>824.33751</ele>
        <time>2026-07-27T07:44:32.000Z</time>
      </trkpt>
      <trkpt lat="44.54364" lon="6.49608">
        <ele>824.33751</ele>
        <time>2026-07-27T07:44:32.000Z</time>
      </trkpt>
      <trkpt lat="44.54361" lon="6.49609">
        <ele>824.507046</ele>
        <time>2026-07-27T07:44:33.000Z</time>
      </trkpt>
      <trkpt lat="44.54361" lon="6.49609">
        <ele>824.507046</ele>
        <time>2026-07-27T07:44:33.000Z</time>
      </trkpt>
      <trkpt lat="44.54357" lon="6.49611">
        <ele>824.699349</ele>
        <time>2026-07-27T07:44:35.000Z</time>
      </trkpt>
      <trkpt lat="44.54357" lon="6.49611">
        <ele>824.699349</ele>
        <time>2026-07-27T07:44:35.000Z</time>
      </trkpt>
      <trkpt lat="44.54354" lon="6.49613">
        <ele>824.89796</ele>
        <time>2026-07-27T07:44:35.000Z</time>
      </trkpt>
      <trkpt lat="44.54354" lon="6.49613">
        <ele>824.89796</ele>
        <time>2026-07-27T07:44:35.000Z</time>
      </trkpt>
      <trkpt lat="44.5435" lon="6.49614">
        <ele>825.133453</ele>
        <time>2026-07-27T07:44:36.000Z</time>
      </trkpt>
      <trkpt lat="44.5435" lon="6.49614">
        <ele>825.133453</ele>
        <time>2026-07-27T07:44:36.000Z</time>
      </trkpt>
      <trkpt lat="44.54346" lon="6.49616">
        <ele>825.346201</ele>
        <time>2026-07-27T07:44:37.000Z</time>
      </trkpt>
      <trkpt lat="44.54346" lon="6.49616">
        <ele>825.346201</ele>
        <time>2026-07-27T07:44:37.000Z</time>
      </trkpt>
      <trkpt lat="44.54342" lon="6.49618">
        <ele>825.560079</ele>
        <time>2026-07-27T07:44:38.000Z</time>
      </trkpt>
      <trkpt lat="44.54339" lon="6.4962">
        <ele>825.756329</ele>
        <time>2026-07-27T07:44:39.000Z</time>
      </trkpt>
      <trkpt lat="44.54339" lon="6.4962">
        <ele>825.756329</ele>
        <time>2026-07-27T07:44:39.000Z</time>
      </trkpt>
      <trkpt lat="44.54335" lon="6.49621">
        <ele>825.953723</ele>
        <time>2026-07-27T07:44:40.000Z</time>
      </trkpt>
      <trkpt lat="44.54335" lon="6.49621">
        <ele>825.953723</ele>
        <time>2026-07-27T07:44:40.000Z</time>
      </trkpt>
      <trkpt lat="44.54331" lon="6.49623">
        <ele>826.167601</ele>
        <time>2026-07-27T07:44:41.000Z</time>
      </trkpt>
      <trkpt lat="44.54331" lon="6.49623">
        <ele>826.167601</ele>
        <time>2026-07-27T07:44:41.000Z</time>
      </trkpt>
      <trkpt lat="44.54327" lon="6.49624">
        <ele>826.377341</ele>
        <time>2026-07-27T07:44:42.000Z</time>
      </trkpt>
      <trkpt lat="44.54327" lon="6.49624">
        <ele>826.377341</ele>
        <time>2026-07-27T07:44:42.000Z</time>
      </trkpt>
      <trkpt lat="44.54324" lon="6.49626">
        <ele>826.566311</ele>
        <time>2026-07-27T07:44:43.000Z</time>
      </trkpt>
      <trkpt lat="44.54324" lon="6.49626">
        <ele>826.566311</ele>
        <time>2026-07-27T07:44:43.000Z</time>
      </trkpt>
      <trkpt lat="44.54321" lon="6.49627">
        <ele>826.762555</ele>
        <time>2026-07-27T07:44:44.000Z</time>
      </trkpt>
      <trkpt lat="44.54321" lon="6.49627">
        <ele>826.762555</ele>
        <time>2026-07-27T07:44:44.000Z</time>
      </trkpt>
      <trkpt lat="44.54316" lon="6.49628">
        <ele>826.99319</ele>
        <time>2026-07-27T07:44:45.000Z</time>
      </trkpt>
      <trkpt lat="44.54316" lon="6.49628">
        <ele>826.99319</ele>
        <time>2026-07-27T07:44:45.000Z</time>
      </trkpt>
      <trkpt lat="44.54312" lon="6.4963">
        <ele>827.223826</ele>
        <time>2026-07-27T07:44:46.000Z</time>
      </trkpt>
      <trkpt lat="44.54312" lon="6.4963">
        <ele>827.223826</ele>
        <time>2026-07-27T07:44:46.000Z</time>
      </trkpt>
      <trkpt lat="44.54308" lon="6.49631">
        <ele>827.433566</ele>
        <time>2026-07-27T07:44:47.000Z</time>
      </trkpt>
      <trkpt lat="44.54308" lon="6.49631">
        <ele>827.433566</ele>
        <time>2026-07-27T07:44:47.000Z</time>
      </trkpt>
      <trkpt lat="44.54304" lon="6.49633">
        <ele>827.666941</ele>
        <time>2026-07-27T07:44:48.000Z</time>
      </trkpt>
      <trkpt lat="44.54304" lon="6.49633">
        <ele>827.666941</ele>
        <time>2026-07-27T07:44:48.000Z</time>
      </trkpt>
      <trkpt lat="44.543" lon="6.49634">
        <ele>827.898429</ele>
        <time>2026-07-27T07:44:49.000Z</time>
      </trkpt>
      <trkpt lat="44.543" lon="6.49634">
        <ele>827.898429</ele>
        <time>2026-07-27T07:44:49.000Z</time>
      </trkpt>
      <trkpt lat="44.54296" lon="6.49635">
        <ele>828.110111</ele>
        <time>2026-07-27T07:44:50.000Z</time>
      </trkpt>
      <trkpt lat="44.54296" lon="6.49635">
        <ele>828.110111</ele>
        <time>2026-07-27T07:44:50.000Z</time>
      </trkpt>
      <trkpt lat="44.54293" lon="6.49637">
        <ele>828.301233</ele>
        <time>2026-07-27T07:44:51.000Z</time>
      </trkpt>
      <trkpt lat="44.54293" lon="6.49637">
        <ele>828.301233</ele>
        <time>2026-07-27T07:44:51.000Z</time>
      </trkpt>
      <trkpt lat="44.54289" lon="6.49638">
        <ele>828.512914</ele>
        <time>2026-07-27T07:44:52.000Z</time>
      </trkpt>
      <trkpt lat="44.54289" lon="6.49638">
        <ele>828.512914</ele>
        <time>2026-07-27T07:44:52.000Z</time>
      </trkpt>
      <trkpt lat="44.54285" lon="6.4964">
        <ele>828.728784</ele>
        <time>2026-07-27T07:44:53.000Z</time>
      </trkpt>
      <trkpt lat="44.54285" lon="6.4964">
        <ele>828.728784</ele>
        <time>2026-07-27T07:44:53.000Z</time>
      </trkpt>
      <trkpt lat="44.54281" lon="6.49641">
        <ele>828.938524</ele>
        <time>2026-07-27T07:44:54.000Z</time>
      </trkpt>
      <trkpt lat="44.54281" lon="6.49641">
        <ele>828.938524</ele>
        <time>2026-07-27T07:44:54.000Z</time>
      </trkpt>
      <trkpt lat="44.54277" lon="6.49642">
        <ele>829.147392</ele>
        <time>2026-07-27T07:44:55.000Z</time>
      </trkpt>
      <trkpt lat="44.54277" lon="6.49642">
        <ele>829.147392</ele>
        <time>2026-07-27T07:44:55.000Z</time>
      </trkpt>
      <trkpt lat="44.54274" lon="6.49644">
        <ele>829.358071</ele>
        <time>2026-07-27T07:44:57.000Z</time>
      </trkpt>
      <trkpt lat="44.54274" lon="6.49644">
        <ele>829.358071</ele>
        <time>2026-07-27T07:44:57.000Z</time>
      </trkpt>
      <trkpt lat="44.5427" lon="6.49645">
        <ele>829.564725</ele>
        <time>2026-07-27T07:44:57.000Z</time>
      </trkpt>
      <trkpt lat="44.5427" lon="6.49645">
        <ele>829.564725</ele>
        <time>2026-07-27T07:44:57.000Z</time>
      </trkpt>
      <trkpt lat="44.54266" lon="6.49645">
        <ele>829.770244</ele>
        <time>2026-07-27T07:44:58.000Z</time>
      </trkpt>
      <trkpt lat="44.54266" lon="6.49645">
        <ele>829.770244</ele>
        <time>2026-07-27T07:44:58.000Z</time>
      </trkpt>
      <trkpt lat="44.54262" lon="6.49646">
        <ele>829.995756</ele>
        <time>2026-07-27T07:44:59.000Z</time>
      </trkpt>
      <trkpt lat="44.54262" lon="6.49646">
        <ele>829.995756</ele>
        <time>2026-07-27T07:44:59.000Z</time>
      </trkpt>
      <trkpt lat="44.54258" lon="6.49646">
        <ele>830.200099</ele>
        <time>2026-07-27T07:45:00.000Z</time>
      </trkpt>
      <trkpt lat="44.54258" lon="6.49646">
        <ele>830.200099</ele>
        <time>2026-07-27T07:45:00.000Z</time>
      </trkpt>
      <trkpt lat="44.54254" lon="6.49646">
        <ele>830.425449</ele>
        <time>2026-07-27T07:45:01.000Z</time>
      </trkpt>
      <trkpt lat="44.54254" lon="6.49646">
        <ele>830.425449</ele>
        <time>2026-07-27T07:45:01.000Z</time>
      </trkpt>
      <trkpt lat="44.5425" lon="6.49646">
        <ele>830.629363</ele>
        <time>2026-07-27T07:45:02.000Z</time>
      </trkpt>
      <trkpt lat="44.5425" lon="6.49646">
        <ele>830.629363</ele>
        <time>2026-07-27T07:45:02.000Z</time>
      </trkpt>
      <trkpt lat="44.54246" lon="6.49646">
        <ele>830.839368</ele>
        <time>2026-07-27T07:45:04.000Z</time>
      </trkpt>
      <trkpt lat="44.54246" lon="6.49646">
        <ele>830.839368</ele>
        <time>2026-07-27T07:45:04.000Z</time>
      </trkpt>
      <trkpt lat="44.54243" lon="6.49645">
        <ele>831.022687</ele>
        <time>2026-07-27T07:45:04.000Z</time>
      </trkpt>
      <trkpt lat="44.54243" lon="6.49645">
        <ele>831.022687</ele>
        <time>2026-07-27T07:45:04.000Z</time>
      </trkpt>
      <trkpt lat="44.5424" lon="6.49644">
        <ele>831.186439</ele>
        <time>2026-07-27T07:45:06.000Z</time>
      </trkpt>
      <trkpt lat="44.5424" lon="6.49644">
        <ele>831.186439</ele>
        <time>2026-07-27T07:45:06.000Z</time>
      </trkpt>
      <trkpt lat="44.54237" lon="6.49644">
        <ele>831.333674</ele>
        <time>2026-07-27T07:45:06.000Z</time>
      </trkpt>
      <trkpt lat="44.54237" lon="6.49644">
        <ele>831.333674</ele>
        <time>2026-07-27T07:45:06.000Z</time>
      </trkpt>
      <trkpt lat="44.54234" lon="6.49643">
        <ele>831.50343</ele>
        <time>2026-07-27T07:45:07.000Z</time>
      </trkpt>
      <trkpt lat="44.54234" lon="6.49643">
        <ele>831.50343</ele>
        <time>2026-07-27T07:45:07.000Z</time>
      </trkpt>
      <trkpt lat="44.54232" lon="6.49642">
        <ele>831.612248</ele>
        <time>2026-07-27T07:45:08.000Z</time>
      </trkpt>
      <trkpt lat="44.54232" lon="6.49642">
        <ele>831.612248</ele>
        <time>2026-07-27T07:45:08.000Z</time>
      </trkpt>
      <trkpt lat="44.54227" lon="6.4964">
        <ele>831.87049</ele>
        <time>2026-07-27T07:45:10.000Z</time>
      </trkpt>
      <trkpt lat="44.54227" lon="6.4964">
        <ele>831.87049</ele>
        <time>2026-07-27T07:45:10.000Z</time>
      </trkpt>
      <trkpt lat="44.54226" lon="6.49638">
        <ele>831.982222</ele>
        <time>2026-07-27T07:45:10.000Z</time>
      </trkpt>
      <trkpt lat="44.54226" lon="6.49638">
        <ele>831.982222</ele>
        <time>2026-07-27T07:45:10.000Z</time>
      </trkpt>
      <trkpt lat="44.54224" lon="6.49637">
        <ele>832.093954</ele>
        <time>2026-07-27T07:45:11.000Z</time>
      </trkpt>
      <trkpt lat="44.54221" lon="6.49637">
        <ele>832.230614</ele>
        <time>2026-07-27T07:45:14.000Z</time>
      </trkpt>
      <trkpt lat="44.54221" lon="6.49637">
        <ele>832.230614</ele>
        <time>2026-07-27T07:45:14.000Z</time>
      </trkpt>
      <trkpt lat="44.54218" lon="6.49637">
        <ele>832.380097</ele>
        <time>2026-07-27T07:45:16.000Z</time>
      </trkpt>
      <trkpt lat="44.54218" lon="6.49637">
        <ele>832.380097</ele>
        <time>2026-07-27T07:45:16.000Z</time>
      </trkpt>
      <trkpt lat="44.54216" lon="6.49638">
        <ele>832.431303</ele>
        <time>2026-07-27T07:45:16.000Z</time>
      </trkpt>
      <trkpt lat="44.54216" lon="6.49638">
        <ele>832.431303</ele>
        <time>2026-07-27T07:45:16.000Z</time>
      </trkpt>
      <trkpt lat="44.54214" lon="6.49641">
        <ele>832.571865</ele>
        <time>2026-07-27T07:45:18.000Z</time>
      </trkpt>
      <trkpt lat="44.54214" lon="6.49641">
        <ele>832.571865</ele>
        <time>2026-07-27T07:45:18.000Z</time>
      </trkpt>
      <trkpt lat="44.54212" lon="6.49643">
        <ele>832.677703</ele>
        <time>2026-07-27T07:45:22.000Z</time>
      </trkpt>
      <trkpt lat="44.54212" lon="6.49643">
        <ele>832.677703</ele>
        <time>2026-07-27T07:45:22.000Z</time>
      </trkpt>
      <trkpt lat="44.54212" lon="6.49643">
        <ele>832.677703</ele>
        <time>2026-07-27T07:46:03.000Z</time>
      </trkpt>
      <trkpt lat="44.54212" lon="6.49643">
        <ele>832.677703</ele>
        <time>2026-07-27T07:47:23.000Z</time>
      </trkpt>
      <trkpt lat="44.54212" lon="6.49644">
        <ele>832.692811</ele>
        <time>2026-07-27T07:47:35.000Z</time>
      </trkpt>
      <trkpt lat="44.54211" lon="6.49648">
        <ele>832.829382</ele>
        <time>2026-07-27T07:47:42.000Z</time>
      </trkpt>
      <trkpt lat="44.5421" lon="6.49649">
        <ele>832.869411</ele>
        <time>2026-07-27T07:47:43.000Z</time>
      </trkpt>
      <trkpt lat="44.5421" lon="6.49651">
        <ele>832.933507</ele>
        <time>2026-07-27T07:47:45.000Z</time>
      </trkpt>
      <trkpt lat="44.54208" lon="6.49653">
        <ele>833.019725</ele>
        <time>2026-07-27T07:47:45.000Z</time>
      </trkpt>
      <trkpt lat="44.54208" lon="6.49653">
        <ele>833.019725</ele>
        <time>2026-07-27T07:47:46.000Z</time>
      </trkpt>
      <trkpt lat="44.54207" lon="6.4966">
        <ele>833.238971</ele>
        <time>2026-07-27T07:47:47.000Z</time>
      </trkpt>
      <trkpt lat="44.54206" lon="6.49661">
        <ele>833.285826</ele>
        <time>2026-07-27T07:47:49.000Z</time>
      </trkpt>
      <trkpt lat="44.54205" lon="6.49662">
        <ele>833.346594</ele>
        <time>2026-07-27T07:47:49.000Z</time>
      </trkpt>
      <trkpt lat="44.54203" lon="6.49664">
        <ele>833.453071</ele>
        <time>2026-07-27T07:47:51.000Z</time>
      </trkpt>
      <trkpt lat="44.542" lon="6.49666">
        <ele>833.578533</ele>
        <time>2026-07-27T07:47:51.000Z</time>
      </trkpt>
      <trkpt lat="44.54197" lon="6.49667">
        <ele>833.715699</ele>
        <time>2026-07-27T07:47:52.000Z</time>
      </trkpt>
      <trkpt lat="44.54193" lon="6.49668">
        <ele>833.894675</ele>
        <time>2026-07-27T07:47:54.000Z</time>
      </trkpt>
      <trkpt lat="44.54188" lon="6.49668">
        <ele>834.086046</ele>
        <time>2026-07-27T07:47:55.000Z</time>
      </trkpt>
      <trkpt lat="44.54184" lon="6.49669">
        <ele>834.265354</ele>
        <time>2026-07-27T07:47:55.000Z</time>
      </trkpt>
      <trkpt lat="44.54184" lon="6.49669">
        <ele>834.265354</ele>
        <time>2026-07-27T07:47:55.000Z</time>
      </trkpt>
      <trkpt lat="44.54179" lon="6.49669">
        <ele>834.460461</ele>
        <time>2026-07-27T07:47:56.000Z</time>
      </trkpt>
      <trkpt lat="44.54176" lon="6.49669">
        <ele>834.621813</ele>
        <time>2026-07-27T07:47:57.000Z</time>
      </trkpt>
      <trkpt lat="44.54176" lon="6.49669">
        <ele>834.621813</ele>
        <time>2026-07-27T07:47:57.000Z</time>
      </trkpt>
      <trkpt lat="44.54172" lon="6.4967">
        <ele>834.770469</ele>
        <time>2026-07-27T07:47:59.000Z</time>
      </trkpt>
      <trkpt lat="44.54168" lon="6.4967">
        <ele>834.93168</ele>
        <time>2026-07-27T07:48:00.000Z</time>
      </trkpt>
      <trkpt lat="44.54168" lon="6.4967">
        <ele>834.93168</ele>
        <time>2026-07-27T07:48:00.000Z</time>
      </trkpt>
      <trkpt lat="44.54164" lon="6.4967">
        <ele>835.110146</ele>
        <time>2026-07-27T07:48:00.000Z</time>
      </trkpt>
      <trkpt lat="44.5416" lon="6.4967">
        <ele>835.271272</ele>
        <time>2026-07-27T07:48:01.000Z</time>
      </trkpt>
      <trkpt lat="44.5416" lon="6.4967">
        <ele>835.271272</ele>
        <time>2026-07-27T07:48:01.000Z</time>
      </trkpt>
      <trkpt lat="44.54157" lon="6.49671">
        <ele>835.432398</ele>
        <time>2026-07-27T07:48:03.000Z</time>
      </trkpt>
      <trkpt lat="44.54157" lon="6.49671">
        <ele>835.432398</ele>
        <time>2026-07-27T07:48:03.000Z</time>
      </trkpt>
      <trkpt lat="44.54152" lon="6.49671">
        <ele>835.610479</ele>
        <time>2026-07-27T07:48:03.000Z</time>
      </trkpt>
      <trkpt lat="44.54148" lon="6.49671">
        <ele>835.788534</ele>
        <time>2026-07-27T07:48:05.000Z</time>
      </trkpt>
      <trkpt lat="44.54148" lon="6.49671">
        <ele>835.788534</ele>
        <time>2026-07-27T07:48:05.000Z</time>
      </trkpt>
      <trkpt lat="44.54144" lon="6.49671">
        <ele>835.949632</ele>
        <time>2026-07-27T07:48:06.000Z</time>
      </trkpt>
      <trkpt lat="44.54144" lon="6.49671">
        <ele>835.949632</ele>
        <time>2026-07-27T07:48:06.000Z</time>
      </trkpt>
      <trkpt lat="44.54141" lon="6.49671">
        <ele>836.11073</ele>
        <time>2026-07-27T07:48:07.000Z</time>
      </trkpt>
      <trkpt lat="44.54141" lon="6.49671">
        <ele>836.11073</ele>
        <time>2026-07-27T07:48:07.000Z</time>
      </trkpt>
      <trkpt lat="44.54137" lon="6.4967">
        <ele>836.272083</ele>
        <time>2026-07-27T07:48:08.000Z</time>
      </trkpt>
      <trkpt lat="44.54137" lon="6.4967">
        <ele>836.272083</ele>
        <time>2026-07-27T07:48:08.000Z</time>
      </trkpt>
      <trkpt lat="44.54133" lon="6.4967">
        <ele>836.438109</ele>
        <time>2026-07-27T07:48:09.000Z</time>
      </trkpt>
      <trkpt lat="44.54133" lon="6.4967">
        <ele>836.438109</ele>
        <time>2026-07-27T07:48:09.000Z</time>
      </trkpt>
      <trkpt lat="44.54129" lon="6.49669">
        <ele>836.586031</ele>
        <time>2026-07-27T07:48:09.000Z</time>
      </trkpt>
      <trkpt lat="44.54129" lon="6.49669">
        <ele>836.586031</ele>
        <time>2026-07-27T07:48:09.000Z</time>
      </trkpt>
      <trkpt lat="44.54129" lon="6.49669">
        <ele>836.602989</ele>
        <time>2026-07-27T07:48:10.000Z</time>
      </trkpt>
      <trkpt lat="44.54125" lon="6.49664">
        <ele>836.844477</ele>
        <time>2026-07-27T07:48:12.000Z</time>
      </trkpt>
      <trkpt lat="44.54125" lon="6.49664">
        <ele>836.844477</ele>
        <time>2026-07-27T07:48:12.000Z</time>
      </trkpt>
      <trkpt lat="44.5412" lon="6.49658">
        <ele>837.088039</ele>
        <time>2026-07-27T07:48:12.000Z</time>
      </trkpt>
      <trkpt lat="44.5412" lon="6.49658">
        <ele>837.088039</ele>
        <time>2026-07-27T07:48:12.000Z</time>
      </trkpt>
      <trkpt lat="44.54118" lon="6.49655">
        <ele>837.245947</ele>
        <time>2026-07-27T07:48:14.000Z</time>
      </trkpt>
      <trkpt lat="44.54118" lon="6.49655">
        <ele>837.245947</ele>
        <time>2026-07-27T07:48:14.000Z</time>
      </trkpt>
      <trkpt lat="44.54115" lon="6.49651">
        <ele>837.394294</ele>
        <time>2026-07-27T07:48:14.000Z</time>
      </trkpt>
      <trkpt lat="44.54115" lon="6.49651">
        <ele>837.394294</ele>
        <time>2026-07-27T07:48:14.000Z</time>
      </trkpt>
      <trkpt lat="44.54113" lon="6.49648">
        <ele>837.520141</ele>
        <time>2026-07-27T07:48:16.000Z</time>
      </trkpt>
      <trkpt lat="44.54113" lon="6.49648">
        <ele>837.520141</ele>
        <time>2026-07-27T07:48:16.000Z</time>
      </trkpt>
      <trkpt lat="44.54111" lon="6.49645">
        <ele>837.659606</ele>
        <time>2026-07-27T07:48:17.000Z</time>
      </trkpt>
      <trkpt lat="44.54111" lon="6.49645">
        <ele>837.659606</ele>
        <time>2026-07-27T07:48:17.000Z</time>
      </trkpt>
      <trkpt lat="44.54109" lon="6.49642">
        <ele>837.774253</ele>
        <time>2026-07-27T07:48:18.000Z</time>
      </trkpt>
      <trkpt lat="44.54109" lon="6.49642">
        <ele>837.774253</ele>
        <time>2026-07-27T07:48:18.000Z</time>
      </trkpt>
      <trkpt lat="44.54108" lon="6.49639">
        <ele>837.892519</ele>
        <time>2026-07-27T07:48:19.000Z</time>
      </trkpt>
      <trkpt lat="44.54108" lon="6.49639">
        <ele>837.892519</ele>
        <time>2026-07-27T07:48:19.000Z</time>
      </trkpt>
      <trkpt lat="44.54107" lon="6.49635">
        <ele>837.996644</ele>
        <time>2026-07-27T07:48:20.000Z</time>
      </trkpt>
      <trkpt lat="44.54107" lon="6.49635">
        <ele>837.996644</ele>
        <time>2026-07-27T07:48:20.000Z</time>
      </trkpt>
      <trkpt lat="44.54108" lon="6.49631">
        <ele>838.13667</ele>
        <time>2026-07-27T07:48:21.000Z</time>
      </trkpt>
      <trkpt lat="44.54108" lon="6.49631">
        <ele>838.13667</ele>
        <time>2026-07-27T07:48:21.000Z</time>
      </trkpt>
      <trkpt lat="44.54109" lon="6.49627">
        <ele>838.265291</ele>
        <time>2026-07-27T07:48:22.000Z</time>
      </trkpt>
      <trkpt lat="44.54109" lon="6.49627">
        <ele>838.265291</ele>
        <time>2026-07-27T07:48:22.000Z</time>
      </trkpt>
      <trkpt lat="44.54112" lon="6.49622">
        <ele>838.450211</ele>
        <time>2026-07-27T07:48:23.000Z</time>
      </trkpt>
      <trkpt lat="44.54112" lon="6.49622">
        <ele>838.450211</ele>
        <time>2026-07-27T07:48:23.000Z</time>
      </trkpt>
      <trkpt lat="44.54114" lon="6.49617">
        <ele>838.610253</ele>
        <time>2026-07-27T07:48:24.000Z</time>
      </trkpt>
      <trkpt lat="44.54114" lon="6.49617">
        <ele>838.610253</ele>
        <time>2026-07-27T07:48:24.000Z</time>
      </trkpt>
      <trkpt lat="44.54116" lon="6.49612">
        <ele>838.794934</ele>
        <time>2026-07-27T07:48:25.000Z</time>
      </trkpt>
      <trkpt lat="44.54116" lon="6.49612">
        <ele>838.794934</ele>
        <time>2026-07-27T07:48:25.000Z</time>
      </trkpt>
      <trkpt lat="44.54118" lon="6.49606">
        <ele>838.990563</ele>
        <time>2026-07-27T07:48:26.000Z</time>
      </trkpt>
      <trkpt lat="44.54119" lon="6.49599">
        <ele>839.199883</ele>
        <time>2026-07-27T07:48:27.000Z</time>
      </trkpt>
      <trkpt lat="44.54119" lon="6.49599">
        <ele>839.199883</ele>
        <time>2026-07-27T07:48:27.000Z</time>
      </trkpt>
      <trkpt lat="44.54121" lon="6.49591">
        <ele>839.463296</ele>
        <time>2026-07-27T07:48:28.000Z</time>
      </trkpt>
      <trkpt lat="44.54122" lon="6.49585">
        <ele>839.648689</ele>
        <time>2026-07-27T07:48:29.000Z</time>
      </trkpt>
      <trkpt lat="44.54122" lon="6.49585">
        <ele>839.648689</ele>
        <time>2026-07-27T07:48:29.000Z</time>
      </trkpt>
      <trkpt lat="44.54125" lon="6.49573">
        <ele>839.610413</ele>
        <time>2026-07-27T07:48:30.000Z</time>
      </trkpt>
      <trkpt lat="44.54126" lon="6.49572">
        <ele>839.557661</ele>
        <time>2026-07-27T07:48:31.000Z</time>
      </trkpt>
      <trkpt lat="44.5413" lon="6.49553">
        <ele>838.90594</ele>
        <time>2026-07-27T07:48:32.000Z</time>
      </trkpt>
      <trkpt lat="44.54132" lon="6.49543">
        <ele>838.559637</ele>
        <time>2026-07-27T07:48:33.000Z</time>
      </trkpt>
      <trkpt lat="44.54133" lon="6.49534">
        <ele>838.229947</ele>
        <time>2026-07-27T07:48:34.000Z</time>
      </trkpt>
      <trkpt lat="44.54133" lon="6.49534">
        <ele>838.229947</ele>
        <time>2026-07-27T07:48:34.000Z</time>
      </trkpt>
      <trkpt lat="44.54134" lon="6.49524">
        <ele>837.916007</ele>
        <time>2026-07-27T07:48:35.000Z</time>
      </trkpt>
      <trkpt lat="44.54135" lon="6.49516">
        <ele>837.628216</ele>
        <time>2026-07-27T07:48:36.000Z</time>
      </trkpt>
      <trkpt lat="44.54135" lon="6.4951">
        <ele>837.430174</ele>
        <time>2026-07-27T07:48:37.000Z</time>
      </trkpt>
      <trkpt lat="44.54134" lon="6.49505">
        <ele>837.274623</ele>
        <time>2026-07-27T07:48:38.000Z</time>
      </trkpt>
      <trkpt lat="44.54134" lon="6.49505">
        <ele>837.274623</ele>
        <time>2026-07-27T07:48:38.000Z</time>
      </trkpt>
      <trkpt lat="44.54133" lon="6.49502">
        <ele>837.135112</ele>
        <time>2026-07-27T07:48:39.000Z</time>
      </trkpt>
      <trkpt lat="44.54131" lon="6.49497">
        <ele>836.930062</ele>
        <time>2026-07-27T07:48:40.000Z</time>
      </trkpt>
      <trkpt lat="44.54128" lon="6.49492">
        <ele>836.749603</ele>
        <time>2026-07-27T07:48:41.000Z</time>
      </trkpt>
      <trkpt lat="44.54128" lon="6.49492">
        <ele>836.749603</ele>
        <time>2026-07-27T07:48:41.000Z</time>
      </trkpt>
      <trkpt lat="44.54126" lon="6.49489">
        <ele>836.607207</ele>
        <time>2026-07-27T07:48:41.000Z</time>
      </trkpt>
      <trkpt lat="44.54124" lon="6.49485">
        <ele>836.432071</ele>
        <time>2026-07-27T07:48:42.000Z</time>
      </trkpt>
      <trkpt lat="44.54124" lon="6.49485">
        <ele>836.432071</ele>
        <time>2026-07-27T07:48:42.000Z</time>
      </trkpt>
      <trkpt lat="44.54123" lon="6.49482">
        <ele>836.304719</ele>
        <time>2026-07-27T07:48:44.000Z</time>
      </trkpt>
      <trkpt lat="44.54123" lon="6.49478">
        <ele>836.179102</ele>
        <time>2026-07-27T07:48:45.000Z</time>
      </trkpt>
      <trkpt lat="44.54123" lon="6.49478">
        <ele>836.179102</ele>
        <time>2026-07-27T07:48:45.000Z</time>
      </trkpt>
      <trkpt lat="44.54123" lon="6.49474">
        <ele>836.040196</ele>
        <time>2026-07-27T07:48:46.000Z</time>
      </trkpt>
      <trkpt lat="44.54123" lon="6.49474">
        <ele>836.040196</ele>
        <time>2026-07-27T07:48:46.000Z</time>
      </trkpt>
      <trkpt lat="44.54123" lon="6.49468">
        <ele>835.852224</ele>
        <time>2026-07-27T07:48:47.000Z</time>
      </trkpt>
      <trkpt lat="44.54123" lon="6.49468">
        <ele>835.852224</ele>
        <time>2026-07-27T07:48:47.000Z</time>
      </trkpt>
      <trkpt lat="44.54123" lon="6.49463">
        <ele>835.66665</ele>
        <time>2026-07-27T07:48:48.000Z</time>
      </trkpt>
      <trkpt lat="44.54123" lon="6.49463">
        <ele>835.66665</ele>
        <time>2026-07-27T07:48:48.000Z</time>
      </trkpt>
      <trkpt lat="44.54121" lon="6.49457">
        <ele>835.443196</ele>
        <time>2026-07-27T07:48:49.000Z</time>
      </trkpt>
      <trkpt lat="44.54121" lon="6.49457">
        <ele>835.443196</ele>
        <time>2026-07-27T07:48:49.000Z</time>
      </trkpt>
      <trkpt lat="44.5412" lon="6.49452">
        <ele>835.26755</ele>
        <time>2026-07-27T07:48:50.000Z</time>
      </trkpt>
      <trkpt lat="44.5412" lon="6.49452">
        <ele>835.26755</ele>
        <time>2026-07-27T07:48:50.000Z</time>
      </trkpt>
      <trkpt lat="44.54118" lon="6.49447">
        <ele>835.100571</ele>
        <time>2026-07-27T07:48:51.000Z</time>
      </trkpt>
      <trkpt lat="44.54118" lon="6.49447">
        <ele>835.100571</ele>
        <time>2026-07-27T07:48:51.000Z</time>
      </trkpt>
      <trkpt lat="44.54116" lon="6.49443">
        <ele>834.927887</ele>
        <time>2026-07-27T07:48:52.000Z</time>
      </trkpt>
      <trkpt lat="44.54116" lon="6.49443">
        <ele>834.927887</ele>
        <time>2026-07-27T07:48:52.000Z</time>
      </trkpt>
      <trkpt lat="44.54115" lon="6.4944">
        <ele>834.823914</ele>
        <time>2026-07-27T07:48:52.000Z</time>
      </trkpt>
      <trkpt lat="44.54115" lon="6.4944">
        <ele>834.823914</ele>
        <time>2026-07-27T07:48:52.000Z</time>
      </trkpt>
      <trkpt lat="44.54113" lon="6.49439">
        <ele>834.749295</ele>
        <time>2026-07-27T07:48:54.000Z</time>
      </trkpt>
      <trkpt lat="44.54113" lon="6.49439">
        <ele>834.749295</ele>
        <time>2026-07-27T07:48:54.000Z</time>
      </trkpt>
      <trkpt lat="44.54113" lon="6.49439">
        <ele>834.749295</ele>
        <time>2026-07-27T07:48:55.000Z</time>
      </trkpt>
      <trkpt lat="44.54107" lon="6.49434">
        <ele>834.416585</ele>
        <time>2026-07-27T07:48:56.000Z</time>
      </trkpt>
      <trkpt lat="44.54107" lon="6.49434">
        <ele>834.416585</ele>
        <time>2026-07-27T07:48:56.000Z</time>
      </trkpt>
      <trkpt lat="44.54107" lon="6.49433">
        <ele>834.370319</ele>
        <time>2026-07-27T07:48:57.000Z</time>
      </trkpt>
      <trkpt lat="44.54107" lon="6.49433">
        <ele>834.370319</ele>
        <time>2026-07-27T07:48:57.000Z</time>
      </trkpt>
      <trkpt lat="44.54107" lon="6.49433">
        <ele>834.370319</ele>
        <time>2026-07-27T07:48:58.000Z</time>
      </trkpt>
      <trkpt lat="44.54104" lon="6.49429">
        <ele>834.208038</ele>
        <time>2026-07-27T07:48:59.000Z</time>
      </trkpt>
      <trkpt lat="44.54104" lon="6.49429">
        <ele>834.208038</ele>
        <time>2026-07-27T07:48:59.000Z</time>
      </trkpt>
      <trkpt lat="44.54104" lon="6.49429">
        <ele>834.208038</ele>
        <time>2026-07-27T07:49:00.000Z</time>
      </trkpt>
      <trkpt lat="44.54104" lon="6.49429">
        <ele>834.208038</ele>
        <time>2026-07-27T07:49:01.000Z</time>
      </trkpt>
      <trkpt lat="44.54104" lon="6.49429">
        <ele>834.208038</ele>
        <time>2026-07-27T07:49:07.000Z</time>
      </trkpt>
      <trkpt lat="44.54104" lon="6.49429">
        <ele>834.18804</ele>
        <time>2026-07-27T07:49:08.000Z</time>
      </trkpt>
      <trkpt lat="44.54103" lon="6.49426">
        <ele>834.066019</ele>
        <time>2026-07-27T07:49:08.000Z</time>
      </trkpt>
      <trkpt lat="44.54103" lon="6.49426">
        <ele>834.066019</ele>
        <time>2026-07-27T07:49:08.000Z</time>
      </trkpt>
      <trkpt lat="44.54104" lon="6.4942">
        <ele>833.877104</ele>
        <time>2026-07-27T07:49:09.000Z</time>
      </trkpt>
      <trkpt lat="44.54104" lon="6.49417">
        <ele>833.761533</ele>
        <time>2026-07-27T07:49:10.000Z</time>
      </trkpt>
      <trkpt lat="44.54104" lon="6.49417">
        <ele>833.761533</ele>
        <time>2026-07-27T07:49:10.000Z</time>
      </trkpt>
      <trkpt lat="44.54105" lon="6.49414">
        <ele>833.63718</ele>
        <time>2026-07-27T07:49:11.000Z</time>
      </trkpt>
      <trkpt lat="44.54105" lon="6.49414">
        <ele>833.63718</ele>
        <time>2026-07-27T07:49:11.000Z</time>
      </trkpt>
      <trkpt lat="44.54107" lon="6.4941">
        <ele>833.51141</ele>
        <time>2026-07-27T07:49:12.000Z</time>
      </trkpt>
      <trkpt lat="44.54108" lon="6.49408">
        <ele>833.404092</ele>
        <time>2026-07-27T07:49:13.000Z</time>
      </trkpt>
      <trkpt lat="44.54108" lon="6.49408">
        <ele>833.404092</ele>
        <time>2026-07-27T07:49:13.000Z</time>
      </trkpt>
      <trkpt lat="44.5411" lon="6.49404">
        <ele>833.272885</ele>
        <time>2026-07-27T07:49:15.000Z</time>
      </trkpt>
      <trkpt lat="44.5411" lon="6.49404">
        <ele>833.272885</ele>
        <time>2026-07-27T07:49:15.000Z</time>
      </trkpt>
      <trkpt lat="44.54111" lon="6.494">
        <ele>833.121169</ele>
        <time>2026-07-27T07:49:16.000Z</time>
      </trkpt>
      <trkpt lat="44.54111" lon="6.494">
        <ele>833.121169</ele>
        <time>2026-07-27T07:49:16.000Z</time>
      </trkpt>
      <trkpt lat="44.54113" lon="6.49397">
        <ele>832.981195</ele>
        <time>2026-07-27T07:49:17.000Z</time>
      </trkpt>
      <trkpt lat="44.54113" lon="6.49397">
        <ele>832.981195</ele>
        <time>2026-07-27T07:49:17.000Z</time>
      </trkpt>
      <trkpt lat="44.54115" lon="6.49393">
        <ele>832.817041</ele>
        <time>2026-07-27T07:49:18.000Z</time>
      </trkpt>
      <trkpt lat="44.54115" lon="6.49393">
        <ele>832.817041</ele>
        <time>2026-07-27T07:49:18.000Z</time>
      </trkpt>
      <trkpt lat="44.54117" lon="6.49389">
        <ele>832.64453</ele>
        <time>2026-07-27T07:49:18.000Z</time>
      </trkpt>
      <trkpt lat="44.54117" lon="6.49389">
        <ele>832.64453</ele>
        <time>2026-07-27T07:49:18.000Z</time>
      </trkpt>
      <trkpt lat="44.54118" lon="6.49385">
        <ele>832.496383</ele>
        <time>2026-07-27T07:49:19.000Z</time>
      </trkpt>
      <trkpt lat="44.54118" lon="6.49385">
        <ele>832.496383</ele>
        <time>2026-07-27T07:49:19.000Z</time>
      </trkpt>
      <trkpt lat="44.5412" lon="6.4938">
        <ele>832.317923</ele>
        <time>2026-07-27T07:49:21.000Z</time>
      </trkpt>
      <trkpt lat="44.5412" lon="6.4938">
        <ele>832.317923</ele>
        <time>2026-07-27T07:49:21.000Z</time>
      </trkpt>
      <trkpt lat="44.54123" lon="6.49376">
        <ele>832.131977</ele>
        <time>2026-07-27T07:49:21.000Z</time>
      </trkpt>
      <trkpt lat="44.54123" lon="6.49376">
        <ele>832.131977</ele>
        <time>2026-07-27T07:49:21.000Z</time>
      </trkpt>
      <trkpt lat="44.54125" lon="6.49372">
        <ele>831.967968</ele>
        <time>2026-07-27T07:49:23.000Z</time>
      </trkpt>
      <trkpt lat="44.54125" lon="6.49372">
        <ele>831.967968</ele>
        <time>2026-07-27T07:49:23.000Z</time>
      </trkpt>
      <trkpt lat="44.54127" lon="6.49367">
        <ele>831.773523</ele>
        <time>2026-07-27T07:49:23.000Z</time>
      </trkpt>
      <trkpt lat="44.54127" lon="6.49367">
        <ele>831.773523</ele>
        <time>2026-07-27T07:49:23.000Z</time>
      </trkpt>
      <trkpt lat="44.5413" lon="6.49362">
        <ele>831.565627</ele>
        <time>2026-07-27T07:49:25.000Z</time>
      </trkpt>
      <trkpt lat="44.5413" lon="6.49362">
        <ele>831.565627</ele>
        <time>2026-07-27T07:49:25.000Z</time>
      </trkpt>
      <trkpt lat="44.54133" lon="6.49358">
        <ele>831.345851</ele>
        <time>2026-07-27T07:49:25.000Z</time>
      </trkpt>
      <trkpt lat="44.54133" lon="6.49358">
        <ele>831.345851</ele>
        <time>2026-07-27T07:49:25.000Z</time>
      </trkpt>
      <trkpt lat="44.54135" lon="6.49353">
        <ele>831.07062</ele>
        <time>2026-07-27T07:49:26.000Z</time>
      </trkpt>
      <trkpt lat="44.54135" lon="6.49353">
        <ele>831.07062</ele>
        <time>2026-07-27T07:49:26.000Z</time>
      </trkpt>
      <trkpt lat="44.54139" lon="6.49347">
        <ele>830.710524</ele>
        <time>2026-07-27T07:49:28.000Z</time>
      </trkpt>
      <trkpt lat="44.54139" lon="6.49347">
        <ele>830.710524</ele>
        <time>2026-07-27T07:49:28.000Z</time>
      </trkpt>
      <trkpt lat="44.54142" lon="6.49339">
        <ele>830.293558</ele>
        <time>2026-07-27T07:49:28.000Z</time>
      </trkpt>
      <trkpt lat="44.54142" lon="6.49339">
        <ele>830.293558</ele>
        <time>2026-07-27T07:49:28.000Z</time>
      </trkpt>
      <trkpt lat="44.54145" lon="6.49332">
        <ele>829.920183</ele>
        <time>2026-07-27T07:49:30.000Z</time>
      </trkpt>
      <trkpt lat="44.54145" lon="6.49332">
        <ele>829.920183</ele>
        <time>2026-07-27T07:49:30.000Z</time>
      </trkpt>
      <trkpt lat="44.54148" lon="6.49326">
        <ele>829.538168</ele>
        <time>2026-07-27T07:49:30.000Z</time>
      </trkpt>
      <trkpt lat="44.54148" lon="6.49326">
        <ele>829.538168</ele>
        <time>2026-07-27T07:49:30.000Z</time>
      </trkpt>
      <trkpt lat="44.54151" lon="6.49319">
        <ele>829.151569</ele>
        <time>2026-07-27T07:49:31.000Z</time>
      </trkpt>
      <trkpt lat="44.54151" lon="6.49319">
        <ele>829.151569</ele>
        <time>2026-07-27T07:49:31.000Z</time>
      </trkpt>
      <trkpt lat="44.54154" lon="6.49313">
        <ele>828.853597</ele>
        <time>2026-07-27T07:49:32.000Z</time>
      </trkpt>
      <trkpt lat="44.54154" lon="6.49313">
        <ele>828.853597</ele>
        <time>2026-07-27T07:49:32.000Z</time>
      </trkpt>
      <trkpt lat="44.54155" lon="6.49309">
        <ele>828.629018</ele>
        <time>2026-07-27T07:49:34.000Z</time>
      </trkpt>
      <trkpt lat="44.54155" lon="6.49309">
        <ele>828.629018</ele>
        <time>2026-07-27T07:49:34.000Z</time>
      </trkpt>
      <trkpt lat="44.54157" lon="6.49306">
        <ele>828.467638</ele>
        <time>2026-07-27T07:49:35.000Z</time>
      </trkpt>
      <trkpt lat="44.54157" lon="6.49306">
        <ele>828.467638</ele>
        <time>2026-07-27T07:49:35.000Z</time>
      </trkpt>
      <trkpt lat="44.54157" lon="6.49306">
        <ele>828.467638</ele>
        <time>2026-07-27T07:49:36.000Z</time>
      </trkpt>
      <trkpt lat="44.54157" lon="6.49306">
        <ele>828.467638</ele>
        <time>2026-07-27T07:49:37.000Z</time>
      </trkpt>
      <trkpt lat="44.54157" lon="6.49306">
        <ele>828.467638</ele>
        <time>2026-07-27T07:49:39.000Z</time>
      </trkpt>
      <trkpt lat="44.5416" lon="6.49301">
        <ele>828.157438</ele>
        <time>2026-07-27T07:49:39.000Z</time>
      </trkpt>
      <trkpt lat="44.5416" lon="6.49301">
        <ele>828.157438</ele>
        <time>2026-07-27T07:49:39.000Z</time>
      </trkpt>
      <trkpt lat="44.5416" lon="6.49301">
        <ele>828.152747</ele>
        <time>2026-07-27T07:49:40.000Z</time>
      </trkpt>
      <trkpt lat="44.54161" lon="6.49299">
        <ele>828.008545</ele>
        <time>2026-07-27T07:49:41.000Z</time>
      </trkpt>
      <trkpt lat="44.54161" lon="6.49299">
        <ele>828.008545</ele>
        <time>2026-07-27T07:49:41.000Z</time>
      </trkpt>
      <trkpt lat="44.54163" lon="6.49296">
        <ele>827.851628</ele>
        <time>2026-07-27T07:49:42.000Z</time>
      </trkpt>
      <trkpt lat="44.54163" lon="6.49296">
        <ele>827.851628</ele>
        <time>2026-07-27T07:49:42.000Z</time>
      </trkpt>
      <trkpt lat="44.54164" lon="6.49293">
        <ele>827.65601</ele>
        <time>2026-07-27T07:49:43.000Z</time>
      </trkpt>
      <trkpt lat="44.54164" lon="6.49293">
        <ele>827.65601</ele>
        <time>2026-07-27T07:49:43.000Z</time>
      </trkpt>
      <trkpt lat="44.54166" lon="6.49289">
        <ele>827.448122</ele>
        <time>2026-07-27T07:49:44.000Z</time>
      </trkpt>
      <trkpt lat="44.54166" lon="6.49289">
        <ele>827.448122</ele>
        <time>2026-07-27T07:49:44.000Z</time>
      </trkpt>
      <trkpt lat="44.54167" lon="6.49286">
        <ele>827.270142</ele>
        <time>2026-07-27T07:49:46.000Z</time>
      </trkpt>
      <trkpt lat="44.54167" lon="6.49286">
        <ele>827.270142</ele>
        <time>2026-07-27T07:49:46.000Z</time>
      </trkpt>
      <trkpt lat="44.54168" lon="6.49282">
        <ele>827.073387</ele>
        <time>2026-07-27T07:49:46.000Z</time>
      </trkpt>
      <trkpt lat="44.54168" lon="6.49282">
        <ele>827.073387</ele>
        <time>2026-07-27T07:49:46.000Z</time>
      </trkpt>
      <trkpt lat="44.54169" lon="6.49278">
        <ele>826.891192</ele>
        <time>2026-07-27T07:49:48.000Z</time>
      </trkpt>
      <trkpt lat="44.54169" lon="6.49278">
        <ele>826.891192</ele>
        <time>2026-07-27T07:49:48.000Z</time>
      </trkpt>
      <trkpt lat="44.5417" lon="6.49275">
        <ele>826.729538</ele>
        <time>2026-07-27T07:49:49.000Z</time>
      </trkpt>
      <trkpt lat="44.5417" lon="6.49275">
        <ele>826.729538</ele>
        <time>2026-07-27T07:49:49.000Z</time>
      </trkpt>
      <trkpt lat="44.5417" lon="6.49275">
        <ele>826.729538</ele>
        <time>2026-07-27T07:49:50.000Z</time>
      </trkpt>
      <trkpt lat="44.5417" lon="6.49269">
        <ele>826.438024</ele>
        <time>2026-07-27T07:49:51.000Z</time>
      </trkpt>
      <trkpt lat="44.5417" lon="6.49269">
        <ele>826.438024</ele>
        <time>2026-07-27T07:49:51.000Z</time>
      </trkpt>
      <trkpt lat="44.5417" lon="6.49267">
        <ele>826.358277</ele>
        <time>2026-07-27T07:49:52.000Z</time>
      </trkpt>
      <trkpt lat="44.5417" lon="6.49267">
        <ele>826.358277</ele>
        <time>2026-07-27T07:49:52.000Z</time>
      </trkpt>
      <trkpt lat="44.5417" lon="6.49265">
        <ele>826.255074</ele>
        <time>2026-07-27T07:49:52.000Z</time>
      </trkpt>
      <trkpt lat="44.5417" lon="6.49265">
        <ele>826.255074</ele>
        <time>2026-07-27T07:49:52.000Z</time>
      </trkpt>
      <trkpt lat="44.5417" lon="6.49262">
        <ele>826.112964</ele>
        <time>2026-07-27T07:49:54.000Z</time>
      </trkpt>
      <trkpt lat="44.5417" lon="6.49262">
        <ele>826.112964</ele>
        <time>2026-07-27T07:49:54.000Z</time>
      </trkpt>
      <trkpt lat="44.54169" lon="6.49258">
        <ele>825.940541</ele>
        <time>2026-07-27T07:49:55.000Z</time>
      </trkpt>
      <trkpt lat="44.54169" lon="6.49258">
        <ele>825.940541</ele>
        <time>2026-07-27T07:49:55.000Z</time>
      </trkpt>
      <trkpt lat="44.54168" lon="6.49255">
        <ele>825.778094</ele>
        <time>2026-07-27T07:49:56.000Z</time>
      </trkpt>
      <trkpt lat="44.54168" lon="6.49255">
        <ele>825.778094</ele>
        <time>2026-07-27T07:49:56.000Z</time>
      </trkpt>
      <trkpt lat="44.54166" lon="6.49253">
        <ele>825.662475</ele>
        <time>2026-07-27T07:49:56.000Z</time>
      </trkpt>
      <trkpt lat="44.54166" lon="6.49253">
        <ele>825.662475</ele>
        <time>2026-07-27T07:49:56.000Z</time>
      </trkpt>
      <trkpt lat="44.54165" lon="6.49252">
        <ele>825.554765</ele>
        <time>2026-07-27T07:49:58.000Z</time>
      </trkpt>
      <trkpt lat="44.54165" lon="6.49252">
        <ele>825.554765</ele>
        <time>2026-07-27T07:49:59.000Z</time>
      </trkpt>
      <trkpt lat="44.54163" lon="6.49249">
        <ele>825.366501</ele>
        <time>2026-07-27T07:49:59.000Z</time>
      </trkpt>
      <trkpt lat="44.54163" lon="6.49246">
        <ele>825.264532</ele>
        <time>2026-07-27T07:50:01.000Z</time>
      </trkpt>
      <trkpt lat="44.54163" lon="6.49246">
        <ele>825.264532</ele>
        <time>2026-07-27T07:50:01.000Z</time>
      </trkpt>
      <trkpt lat="44.54163" lon="6.49243">
        <ele>825.102878</ele>
        <time>2026-07-27T07:50:02.000Z</time>
      </trkpt>
      <trkpt lat="44.54163" lon="6.49238">
        <ele>824.839553</ele>
        <time>2026-07-27T07:50:03.000Z</time>
      </trkpt>
      <trkpt lat="44.54163" lon="6.49238">
        <ele>824.839553</ele>
        <time>2026-07-27T07:50:03.000Z</time>
      </trkpt>
      <trkpt lat="44.54165" lon="6.49232">
        <ele>824.5457</ele>
        <time>2026-07-27T07:50:04.000Z</time>
      </trkpt>
      <trkpt lat="44.54166" lon="6.49225">
        <ele>824.238556</ele>
        <time>2026-07-27T07:50:05.000Z</time>
      </trkpt>
      <trkpt lat="44.54166" lon="6.49225">
        <ele>824.238556</ele>
        <time>2026-07-27T07:50:05.000Z</time>
      </trkpt>
      <trkpt lat="44.54168" lon="6.49218">
        <ele>823.877972</ele>
        <time>2026-07-27T07:50:06.000Z</time>
      </trkpt>
      <trkpt lat="44.54169" lon="6.49211">
        <ele>823.523366</ele>
        <time>2026-07-27T07:50:07.000Z</time>
      </trkpt>
      <trkpt lat="44.54169" lon="6.49211">
        <ele>823.523366</ele>
        <time>2026-07-27T07:50:07.000Z</time>
      </trkpt>
      <trkpt lat="44.5417" lon="6.49202">
        <ele>823.121166</ele>
        <time>2026-07-27T07:50:08.000Z</time>
      </trkpt>
      <trkpt lat="44.5417" lon="6.49193">
        <ele>822.691802</ele>
        <time>2026-07-27T07:50:09.000Z</time>
      </trkpt>
      <trkpt lat="44.5417" lon="6.49193">
        <ele>822.691802</ele>
        <time>2026-07-27T07:50:09.000Z</time>
      </trkpt>
      <trkpt lat="44.54171" lon="6.49184">
        <ele>822.257026</ele>
        <time>2026-07-27T07:50:10.000Z</time>
      </trkpt>
      <trkpt lat="44.54171" lon="6.49184">
        <ele>822.257026</ele>
        <time>2026-07-27T07:50:10.000Z</time>
      </trkpt>
      <trkpt lat="44.54172" lon="6.49175">
        <ele>821.82225</ele>
        <time>2026-07-27T07:50:11.000Z</time>
      </trkpt>
      <trkpt lat="44.54173" lon="6.49165">
        <ele>821.374227</ele>
        <time>2026-07-27T07:50:12.000Z</time>
      </trkpt>
      <trkpt lat="44.54173" lon="6.49165">
        <ele>821.374227</ele>
        <time>2026-07-27T07:50:12.000Z</time>
      </trkpt>
      <trkpt lat="44.54174" lon="6.49155">
        <ele>820.912392</ele>
        <time>2026-07-27T07:50:13.000Z</time>
      </trkpt>
      <trkpt lat="44.54174" lon="6.49155">
        <ele>820.912392</ele>
        <time>2026-07-27T07:50:13.000Z</time>
      </trkpt>
      <trkpt lat="44.54175" lon="6.49147">
        <ele>820.492501</ele>
        <time>2026-07-27T07:50:14.000Z</time>
      </trkpt>
      <trkpt lat="44.54175" lon="6.49147">
        <ele>820.492501</ele>
        <time>2026-07-27T07:50:14.000Z</time>
      </trkpt>
      <trkpt lat="44.54177" lon="6.49138">
        <ele>820.068048</ele>
        <time>2026-07-27T07:50:15.000Z</time>
      </trkpt>
      <trkpt lat="44.54177" lon="6.49138">
        <ele>820.068048</ele>
        <time>2026-07-27T07:50:15.000Z</time>
      </trkpt>
      <trkpt lat="44.54179" lon="6.49129">
        <ele>819.632758</ele>
        <time>2026-07-27T07:50:16.000Z</time>
      </trkpt>
      <trkpt lat="44.54179" lon="6.49129">
        <ele>819.632758</ele>
        <time>2026-07-27T07:50:16.000Z</time>
      </trkpt>
      <trkpt lat="44.54182" lon="6.49121">
        <ele>819.365185</ele>
        <time>2026-07-27T07:50:17.000Z</time>
      </trkpt>
      <trkpt lat="44.54182" lon="6.49121">
        <ele>819.365185</ele>
        <time>2026-07-27T07:50:17.000Z</time>
      </trkpt>
      <trkpt lat="44.54186" lon="6.49112">
        <ele>819.13983</ele>
        <time>2026-07-27T07:50:18.000Z</time>
      </trkpt>
      <trkpt lat="44.54186" lon="6.49112">
        <ele>819.13983</ele>
        <time>2026-07-27T07:50:18.000Z</time>
      </trkpt>
      <trkpt lat="44.5419" lon="6.49105">
        <ele>818.929479</ele>
        <time>2026-07-27T07:50:19.000Z</time>
      </trkpt>
      <trkpt lat="44.5419" lon="6.49105">
        <ele>818.929479</ele>
        <time>2026-07-27T07:50:19.000Z</time>
      </trkpt>
      <trkpt lat="44.54193" lon="6.49096">
        <ele>818.714468</ele>
        <time>2026-07-27T07:50:20.000Z</time>
      </trkpt>
      <trkpt lat="44.54193" lon="6.49096">
        <ele>818.714468</ele>
        <time>2026-07-27T07:50:20.000Z</time>
      </trkpt>
      <trkpt lat="44.54197" lon="6.49088">
        <ele>818.493589</ele>
        <time>2026-07-27T07:50:21.000Z</time>
      </trkpt>
      <trkpt lat="44.54197" lon="6.49088">
        <ele>818.493589</ele>
        <time>2026-07-27T07:50:21.000Z</time>
      </trkpt>
      <trkpt lat="44.542" lon="6.49078">
        <ele>818.241497</ele>
        <time>2026-07-27T07:50:22.000Z</time>
      </trkpt>
      <trkpt lat="44.542" lon="6.49078">
        <ele>818.241497</ele>
        <time>2026-07-27T07:50:22.000Z</time>
      </trkpt>
      <trkpt lat="44.54203" lon="6.49069">
        <ele>818.023387</ele>
        <time>2026-07-27T07:50:23.000Z</time>
      </trkpt>
      <trkpt lat="44.54203" lon="6.49069">
        <ele>818.023387</ele>
        <time>2026-07-27T07:50:23.000Z</time>
      </trkpt>
      <trkpt lat="44.54205" lon="6.4906">
        <ele>817.804415</ele>
        <time>2026-07-27T07:50:24.000Z</time>
      </trkpt>
      <trkpt lat="44.54205" lon="6.4906">
        <ele>817.804415</ele>
        <time>2026-07-27T07:50:24.000Z</time>
      </trkpt>
      <trkpt lat="44.54207" lon="6.4905">
        <ele>817.592448</ele>
        <time>2026-07-27T07:50:25.000Z</time>
      </trkpt>
      <trkpt lat="44.54207" lon="6.4905">
        <ele>817.592448</ele>
        <time>2026-07-27T07:50:25.000Z</time>
      </trkpt>
      <trkpt lat="44.54208" lon="6.49039">
        <ele>817.337405</ele>
        <time>2026-07-27T07:50:26.000Z</time>
      </trkpt>
      <trkpt lat="44.54208" lon="6.49039">
        <ele>817.337405</ele>
        <time>2026-07-27T07:50:26.000Z</time>
      </trkpt>
      <trkpt lat="44.54208" lon="6.4903">
        <ele>817.124038</ele>
        <time>2026-07-27T07:50:27.000Z</time>
      </trkpt>
      <trkpt lat="44.54208" lon="6.4903">
        <ele>817.124038</ele>
        <time>2026-07-27T07:50:27.000Z</time>
      </trkpt>
      <trkpt lat="44.54207" lon="6.49018">
        <ele>816.860957</ele>
        <time>2026-07-27T07:50:28.000Z</time>
      </trkpt>
      <trkpt lat="44.54207" lon="6.49018">
        <ele>816.860957</ele>
        <time>2026-07-27T07:50:28.000Z</time>
      </trkpt>
      <trkpt lat="44.54208" lon="6.4901">
        <ele>816.689799</ele>
        <time>2026-07-27T07:50:29.000Z</time>
      </trkpt>
      <trkpt lat="44.54208" lon="6.4901">
        <ele>816.689799</ele>
        <time>2026-07-27T07:50:29.000Z</time>
      </trkpt>
      <trkpt lat="44.54209" lon="6.48994">
        <ele>816.330693</ele>
        <time>2026-07-27T07:50:30.000Z</time>
      </trkpt>
      <trkpt lat="44.54209" lon="6.48994">
        <ele>816.330693</ele>
        <time>2026-07-27T07:50:30.000Z</time>
      </trkpt>
      <trkpt lat="44.5421" lon="6.48983">
        <ele>816.072534</ele>
        <time>2026-07-27T07:50:31.000Z</time>
      </trkpt>
      <trkpt lat="44.5421" lon="6.48983">
        <ele>816.072534</ele>
        <time>2026-07-27T07:50:31.000Z</time>
      </trkpt>
      <trkpt lat="44.54213" lon="6.48972">
        <ele>815.815066</ele>
        <time>2026-07-27T07:50:32.000Z</time>
      </trkpt>
      <trkpt lat="44.54213" lon="6.48972">
        <ele>815.815066</ele>
        <time>2026-07-27T07:50:32.000Z</time>
      </trkpt>
      <trkpt lat="44.54215" lon="6.48961">
        <ele>815.559752</ele>
        <time>2026-07-27T07:50:33.000Z</time>
      </trkpt>
      <trkpt lat="44.54215" lon="6.48961">
        <ele>815.559752</ele>
        <time>2026-07-27T07:50:33.000Z</time>
      </trkpt>
      <trkpt lat="44.54216" lon="6.48954">
        <ele>815.38696</ele>
        <time>2026-07-27T07:50:34.000Z</time>
      </trkpt>
      <trkpt lat="44.54216" lon="6.48954">
        <ele>815.38696</ele>
        <time>2026-07-27T07:50:34.000Z</time>
      </trkpt>
      <trkpt lat="44.54218" lon="6.4894">
        <ele>815.062462</ele>
        <time>2026-07-27T07:50:35.000Z</time>
      </trkpt>
      <trkpt lat="44.54218" lon="6.4894">
        <ele>815.062462</ele>
        <time>2026-07-27T07:50:35.000Z</time>
      </trkpt>
      <trkpt lat="44.54219" lon="6.48929">
        <ele>814.81957</ele>
        <time>2026-07-27T07:50:36.000Z</time>
      </trkpt>
      <trkpt lat="44.54219" lon="6.48929">
        <ele>814.81957</ele>
        <time>2026-07-27T07:50:36.000Z</time>
      </trkpt>
      <trkpt lat="44.54218" lon="6.48919">
        <ele>814.585166</ele>
        <time>2026-07-27T07:50:37.000Z</time>
      </trkpt>
      <trkpt lat="44.54218" lon="6.48919">
        <ele>814.585166</ele>
        <time>2026-07-27T07:50:37.000Z</time>
      </trkpt>
      <trkpt lat="44.54216" lon="6.48908">
        <ele>814.351251</ele>
        <time>2026-07-27T07:50:38.000Z</time>
      </trkpt>
      <trkpt lat="44.54216" lon="6.48908">
        <ele>814.351251</ele>
        <time>2026-07-27T07:50:38.000Z</time>
      </trkpt>
      <trkpt lat="44.54215" lon="6.48898">
        <ele>814.110735</ele>
        <time>2026-07-27T07:50:39.000Z</time>
      </trkpt>
      <trkpt lat="44.54215" lon="6.48898">
        <ele>814.110735</ele>
        <time>2026-07-27T07:50:39.000Z</time>
      </trkpt>
      <trkpt lat="44.54214" lon="6.48892">
        <ele>813.980256</ele>
        <time>2026-07-27T07:50:40.000Z</time>
      </trkpt>
      <trkpt lat="44.54214" lon="6.48892">
        <ele>813.980256</ele>
        <time>2026-07-27T07:50:40.000Z</time>
      </trkpt>
      <trkpt lat="44.54211" lon="6.48876">
        <ele>813.564262</ele>
        <time>2026-07-27T07:50:41.000Z</time>
      </trkpt>
      <trkpt lat="44.54211" lon="6.48876">
        <ele>813.564262</ele>
        <time>2026-07-27T07:50:41.000Z</time>
      </trkpt>
      <trkpt lat="44.5421" lon="6.48866">
        <ele>813.261911</ele>
        <time>2026-07-27T07:50:42.000Z</time>
      </trkpt>
      <trkpt lat="44.5421" lon="6.48866">
        <ele>813.261911</ele>
        <time>2026-07-27T07:50:42.000Z</time>
      </trkpt>
      <trkpt lat="44.54208" lon="6.48855">
        <ele>812.959561</ele>
        <time>2026-07-27T07:50:43.000Z</time>
      </trkpt>
      <trkpt lat="44.54208" lon="6.48855">
        <ele>812.959561</ele>
        <time>2026-07-27T07:50:43.000Z</time>
      </trkpt>
      <trkpt lat="44.54207" lon="6.48844">
        <ele>812.651007</ele>
        <time>2026-07-27T07:50:44.000Z</time>
      </trkpt>
      <trkpt lat="44.54207" lon="6.48844">
        <ele>812.651007</ele>
        <time>2026-07-27T07:50:44.000Z</time>
      </trkpt>
      <trkpt lat="44.54206" lon="6.48833">
        <ele>812.348525</ele>
        <time>2026-07-27T07:50:45.000Z</time>
      </trkpt>
      <trkpt lat="44.54206" lon="6.48833">
        <ele>812.348525</ele>
        <time>2026-07-27T07:50:45.000Z</time>
      </trkpt>
      <trkpt lat="44.54205" lon="6.48826">
        <ele>812.143748</ele>
        <time>2026-07-27T07:50:46.000Z</time>
      </trkpt>
      <trkpt lat="44.54205" lon="6.48826">
        <ele>812.143748</ele>
        <time>2026-07-27T07:50:46.000Z</time>
      </trkpt>
      <trkpt lat="44.54203" lon="6.48811">
        <ele>811.729278</ele>
        <time>2026-07-27T07:50:47.000Z</time>
      </trkpt>
      <trkpt lat="44.54203" lon="6.48811">
        <ele>811.729278</ele>
        <time>2026-07-27T07:50:47.000Z</time>
      </trkpt>
      <trkpt lat="44.54202" lon="6.48801">
        <ele>811.432366</ele>
        <time>2026-07-27T07:50:48.000Z</time>
      </trkpt>
      <trkpt lat="44.54202" lon="6.48801">
        <ele>811.432366</ele>
        <time>2026-07-27T07:50:48.000Z</time>
      </trkpt>
      <trkpt lat="44.542" lon="6.48791">
        <ele>811.143666</ele>
        <time>2026-07-27T07:50:49.000Z</time>
      </trkpt>
      <trkpt lat="44.542" lon="6.48791">
        <ele>811.143666</ele>
        <time>2026-07-27T07:50:49.000Z</time>
      </trkpt>
      <trkpt lat="44.54197" lon="6.48781">
        <ele>810.856495</ele>
        <time>2026-07-27T07:50:50.000Z</time>
      </trkpt>
      <trkpt lat="44.54197" lon="6.48781">
        <ele>810.856495</ele>
        <time>2026-07-27T07:50:50.000Z</time>
      </trkpt>
      <trkpt lat="44.54193" lon="6.48772">
        <ele>810.556791</ele>
        <time>2026-07-27T07:50:51.000Z</time>
      </trkpt>
      <trkpt lat="44.54193" lon="6.48772">
        <ele>810.556791</ele>
        <time>2026-07-27T07:50:51.000Z</time>
      </trkpt>
      <trkpt lat="44.54191" lon="6.48761">
        <ele>810.246926</ele>
        <time>2026-07-27T07:50:52.000Z</time>
      </trkpt>
      <trkpt lat="44.54191" lon="6.48761">
        <ele>810.246926</ele>
        <time>2026-07-27T07:50:52.000Z</time>
      </trkpt>
      <trkpt lat="44.54189" lon="6.48751">
        <ele>809.942365</ele>
        <time>2026-07-27T07:50:53.000Z</time>
      </trkpt>
      <trkpt lat="44.54189" lon="6.48751">
        <ele>809.942365</ele>
        <time>2026-07-27T07:50:53.000Z</time>
      </trkpt>
      <trkpt lat="44.54187" lon="6.48741">
        <ele>809.683399</ele>
        <time>2026-07-27T07:50:54.000Z</time>
      </trkpt>
      <trkpt lat="44.54187" lon="6.48741">
        <ele>809.683399</ele>
        <time>2026-07-27T07:50:54.000Z</time>
      </trkpt>
      <trkpt lat="44.54184" lon="6.48729">
        <ele>809.326563</ele>
        <time>2026-07-27T07:50:55.000Z</time>
      </trkpt>
      <trkpt lat="44.54184" lon="6.48729">
        <ele>809.326563</ele>
        <time>2026-07-27T07:50:55.000Z</time>
      </trkpt>
      <trkpt lat="44.54182" lon="6.48719">
        <ele>809.028891</ele>
        <time>2026-07-27T07:50:56.000Z</time>
      </trkpt>
      <trkpt lat="44.54182" lon="6.48719">
        <ele>809.028891</ele>
        <time>2026-07-27T07:50:56.000Z</time>
      </trkpt>
      <trkpt lat="44.54181" lon="6.48708">
        <ele>808.733904</ele>
        <time>2026-07-27T07:50:57.000Z</time>
      </trkpt>
      <trkpt lat="44.54181" lon="6.48708">
        <ele>808.733904</ele>
        <time>2026-07-27T07:50:57.000Z</time>
      </trkpt>
      <trkpt lat="44.54179" lon="6.48698">
        <ele>808.430857</ele>
        <time>2026-07-27T07:50:58.000Z</time>
      </trkpt>
      <trkpt lat="44.54179" lon="6.48698">
        <ele>808.430857</ele>
        <time>2026-07-27T07:50:58.000Z</time>
      </trkpt>
      <trkpt lat="44.54176" lon="6.48687">
        <ele>808.126296</ele>
        <time>2026-07-27T07:50:59.000Z</time>
      </trkpt>
      <trkpt lat="44.54176" lon="6.48687">
        <ele>808.126296</ele>
        <time>2026-07-27T07:50:59.000Z</time>
      </trkpt>
      <trkpt lat="44.54174" lon="6.48677">
        <ele>807.824383</ele>
        <time>2026-07-27T07:51:00.000Z</time>
      </trkpt>
      <trkpt lat="44.54174" lon="6.48677">
        <ele>807.824383</ele>
        <time>2026-07-27T07:51:00.000Z</time>
      </trkpt>
      <trkpt lat="44.54172" lon="6.48667">
        <ele>807.532079</ele>
        <time>2026-07-27T07:51:01.000Z</time>
      </trkpt>
      <trkpt lat="44.54172" lon="6.48667">
        <ele>807.532079</ele>
        <time>2026-07-27T07:51:01.000Z</time>
      </trkpt>
      <trkpt lat="44.5417" lon="6.48657">
        <ele>807.242457</ele>
        <time>2026-07-27T07:51:02.000Z</time>
      </trkpt>
      <trkpt lat="44.5417" lon="6.48657">
        <ele>807.242457</ele>
        <time>2026-07-27T07:51:02.000Z</time>
      </trkpt>
      <trkpt lat="44.54168" lon="6.48647">
        <ele>806.951118</ele>
        <time>2026-07-27T07:51:03.000Z</time>
      </trkpt>
      <trkpt lat="44.54168" lon="6.48647">
        <ele>806.951118</ele>
        <time>2026-07-27T07:51:03.000Z</time>
      </trkpt>
      <trkpt lat="44.54166" lon="6.48636">
        <ele>806.646746</ele>
        <time>2026-07-27T07:51:03.000Z</time>
      </trkpt>
      <trkpt lat="44.54166" lon="6.48636">
        <ele>806.646746</ele>
        <time>2026-07-27T07:51:03.000Z</time>
      </trkpt>
      <trkpt lat="44.54165" lon="6.48626">
        <ele>806.35574</ele>
        <time>2026-07-27T07:51:05.000Z</time>
      </trkpt>
      <trkpt lat="44.54165" lon="6.48626">
        <ele>806.35574</ele>
        <time>2026-07-27T07:51:05.000Z</time>
      </trkpt>
      <trkpt lat="44.54163" lon="6.48616">
        <ele>806.050571</ele>
        <time>2026-07-27T07:51:06.000Z</time>
      </trkpt>
      <trkpt lat="44.54163" lon="6.48616">
        <ele>806.050571</ele>
        <time>2026-07-27T07:51:06.000Z</time>
      </trkpt>
      <trkpt lat="44.54162" lon="6.48605">
        <ele>805.739763</ele>
        <time>2026-07-27T07:51:07.000Z</time>
      </trkpt>
      <trkpt lat="44.54162" lon="6.48605">
        <ele>805.739763</ele>
        <time>2026-07-27T07:51:07.000Z</time>
      </trkpt>
      <trkpt lat="44.54159" lon="6.48595">
        <ele>805.426589</ele>
        <time>2026-07-27T07:51:08.000Z</time>
      </trkpt>
      <trkpt lat="44.54159" lon="6.48595">
        <ele>805.426589</ele>
        <time>2026-07-27T07:51:08.000Z</time>
      </trkpt>
      <trkpt lat="44.54156" lon="6.48585">
        <ele>805.123476</ele>
        <time>2026-07-27T07:51:09.000Z</time>
      </trkpt>
      <trkpt lat="44.54156" lon="6.48585">
        <ele>805.123476</ele>
        <time>2026-07-27T07:51:09.000Z</time>
      </trkpt>
      <trkpt lat="44.54153" lon="6.48575">
        <ele>804.811436</ele>
        <time>2026-07-27T07:51:10.000Z</time>
      </trkpt>
      <trkpt lat="44.54153" lon="6.48575">
        <ele>804.811436</ele>
        <time>2026-07-27T07:51:10.000Z</time>
      </trkpt>
      <trkpt lat="44.5415" lon="6.48566">
        <ele>804.506422</ele>
        <time>2026-07-27T07:51:11.000Z</time>
      </trkpt>
      <trkpt lat="44.5415" lon="6.48566">
        <ele>804.506422</ele>
        <time>2026-07-27T07:51:11.000Z</time>
      </trkpt>
      <trkpt lat="44.54146" lon="6.48556">
        <ele>804.198116</ele>
        <time>2026-07-27T07:51:12.000Z</time>
      </trkpt>
      <trkpt lat="44.54146" lon="6.48556">
        <ele>804.198116</ele>
        <time>2026-07-27T07:51:12.000Z</time>
      </trkpt>
      <trkpt lat="44.54143" lon="6.48547">
        <ele>803.889809</ele>
        <time>2026-07-27T07:51:13.000Z</time>
      </trkpt>
      <trkpt lat="44.54143" lon="6.48547">
        <ele>803.889809</ele>
        <time>2026-07-27T07:51:13.000Z</time>
      </trkpt>
      <trkpt lat="44.54139" lon="6.48537">
        <ele>803.570733</ele>
        <time>2026-07-27T07:51:14.000Z</time>
      </trkpt>
      <trkpt lat="44.54139" lon="6.48537">
        <ele>803.570733</ele>
        <time>2026-07-27T07:51:14.000Z</time>
      </trkpt>
      <trkpt lat="44.54134" lon="6.48529">
        <ele>803.275629</ele>
        <time>2026-07-27T07:51:15.000Z</time>
      </trkpt>
      <trkpt lat="44.54134" lon="6.48529">
        <ele>803.275629</ele>
        <time>2026-07-27T07:51:15.000Z</time>
      </trkpt>
      <trkpt lat="44.5413" lon="6.48521">
        <ele>802.992177</ele>
        <time>2026-07-27T07:51:16.000Z</time>
      </trkpt>
      <trkpt lat="44.5413" lon="6.48521">
        <ele>802.992177</ele>
        <time>2026-07-27T07:51:16.000Z</time>
      </trkpt>
      <trkpt lat="44.54125" lon="6.48513">
        <ele>802.686164</ele>
        <time>2026-07-27T07:51:17.000Z</time>
      </trkpt>
      <trkpt lat="44.54125" lon="6.48513">
        <ele>802.686164</ele>
        <time>2026-07-27T07:51:17.000Z</time>
      </trkpt>
      <trkpt lat="44.54121" lon="6.48506">
        <ele>802.399406</ele>
        <time>2026-07-27T07:51:18.000Z</time>
      </trkpt>
      <trkpt lat="44.54121" lon="6.48506">
        <ele>802.399406</ele>
        <time>2026-07-27T07:51:18.000Z</time>
      </trkpt>
      <trkpt lat="44.54116" lon="6.48497">
        <ele>802.111322</ele>
        <time>2026-07-27T07:51:19.000Z</time>
      </trkpt>
      <trkpt lat="44.54116" lon="6.48497">
        <ele>802.111322</ele>
        <time>2026-07-27T07:51:19.000Z</time>
      </trkpt>
      <trkpt lat="44.54113" lon="6.48489">
        <ele>801.823437</ele>
        <time>2026-07-27T07:51:20.000Z</time>
      </trkpt>
      <trkpt lat="44.54113" lon="6.48489">
        <ele>801.823437</ele>
        <time>2026-07-27T07:51:20.000Z</time>
      </trkpt>
      <trkpt lat="44.5411" lon="6.48481">
        <ele>801.568862</ele>
        <time>2026-07-27T07:51:21.000Z</time>
      </trkpt>
      <trkpt lat="44.5411" lon="6.48481">
        <ele>801.568862</ele>
        <time>2026-07-27T07:51:21.000Z</time>
      </trkpt>
      <trkpt lat="44.54108" lon="6.48472">
        <ele>801.291174</ele>
        <time>2026-07-27T07:51:22.000Z</time>
      </trkpt>
      <trkpt lat="44.54108" lon="6.48472">
        <ele>801.291174</ele>
        <time>2026-07-27T07:51:22.000Z</time>
      </trkpt>
      <trkpt lat="44.54107" lon="6.48463">
        <ele>801.033741</ele>
        <time>2026-07-27T07:51:23.000Z</time>
      </trkpt>
      <trkpt lat="44.54107" lon="6.48463">
        <ele>801.033741</ele>
        <time>2026-07-27T07:51:23.000Z</time>
      </trkpt>
      <trkpt lat="44.54105" lon="6.48454">
        <ele>800.765448</ele>
        <time>2026-07-27T07:51:24.000Z</time>
      </trkpt>
      <trkpt lat="44.54105" lon="6.48454">
        <ele>800.765448</ele>
        <time>2026-07-27T07:51:24.000Z</time>
      </trkpt>
      <trkpt lat="44.54104" lon="6.48444">
        <ele>800.473795</ele>
        <time>2026-07-27T07:51:25.000Z</time>
      </trkpt>
      <trkpt lat="44.54104" lon="6.48444">
        <ele>800.473795</ele>
        <time>2026-07-27T07:51:25.000Z</time>
      </trkpt>
      <trkpt lat="44.54103" lon="6.48434">
        <ele>800.177075</ele>
        <time>2026-07-27T07:51:26.000Z</time>
      </trkpt>
      <trkpt lat="44.54103" lon="6.48434">
        <ele>800.177075</ele>
        <time>2026-07-27T07:51:26.000Z</time>
      </trkpt>
      <trkpt lat="44.54102" lon="6.48426">
        <ele>799.968108</ele>
        <time>2026-07-27T07:51:27.000Z</time>
      </trkpt>
      <trkpt lat="44.54102" lon="6.48426">
        <ele>799.968108</ele>
        <time>2026-07-27T07:51:27.000Z</time>
      </trkpt>
      <trkpt lat="44.54099" lon="6.48413">
        <ele>799.577316</ele>
        <time>2026-07-27T07:51:28.000Z</time>
      </trkpt>
      <trkpt lat="44.54099" lon="6.48413">
        <ele>799.577316</ele>
        <time>2026-07-27T07:51:28.000Z</time>
      </trkpt>
      <trkpt lat="44.54096" lon="6.48405">
        <ele>799.330576</ele>
        <time>2026-07-27T07:51:29.000Z</time>
      </trkpt>
      <trkpt lat="44.54096" lon="6.48405">
        <ele>799.330576</ele>
        <time>2026-07-27T07:51:29.000Z</time>
      </trkpt>
      <trkpt lat="44.54092" lon="6.48395">
        <ele>799.059334</ele>
        <time>2026-07-27T07:51:30.000Z</time>
      </trkpt>
      <trkpt lat="44.54092" lon="6.48395">
        <ele>799.059334</ele>
        <time>2026-07-27T07:51:30.000Z</time>
      </trkpt>
      <trkpt lat="44.54089" lon="6.48386">
        <ele>798.790439</ele>
        <time>2026-07-27T07:51:31.000Z</time>
      </trkpt>
      <trkpt lat="44.54089" lon="6.48386">
        <ele>798.790439</ele>
        <time>2026-07-27T07:51:31.000Z</time>
      </trkpt>
      <trkpt lat="44.54087" lon="6.48379">
        <ele>798.613727</ele>
        <time>2026-07-27T07:51:32.000Z</time>
      </trkpt>
      <trkpt lat="44.54087" lon="6.48379">
        <ele>798.613727</ele>
        <time>2026-07-27T07:51:32.000Z</time>
      </trkpt>
      <trkpt lat="44.54084" lon="6.48366">
        <ele>798.260963</ele>
        <time>2026-07-27T07:51:33.000Z</time>
      </trkpt>
      <trkpt lat="44.54084" lon="6.48366">
        <ele>798.260963</ele>
        <time>2026-07-27T07:51:33.000Z</time>
      </trkpt>
      <trkpt lat="44.54083" lon="6.48356">
        <ele>797.996964</ele>
        <time>2026-07-27T07:51:34.000Z</time>
      </trkpt>
      <trkpt lat="44.54083" lon="6.48356">
        <ele>797.996964</ele>
        <time>2026-07-27T07:51:34.000Z</time>
      </trkpt>
      <trkpt lat="44.54081" lon="6.48346">
        <ele>797.740352</ele>
        <time>2026-07-27T07:51:35.000Z</time>
      </trkpt>
      <trkpt lat="44.54081" lon="6.48346">
        <ele>797.740352</ele>
        <time>2026-07-27T07:51:35.000Z</time>
      </trkpt>
      <trkpt lat="44.54078" lon="6.48337">
        <ele>797.480764</ele>
        <time>2026-07-27T07:51:36.000Z</time>
      </trkpt>
      <trkpt lat="44.54078" lon="6.48337">
        <ele>797.480764</ele>
        <time>2026-07-27T07:51:36.000Z</time>
      </trkpt>
      <trkpt lat="44.54075" lon="6.48329">
        <ele>797.241092</ele>
        <time>2026-07-27T07:51:37.000Z</time>
      </trkpt>
      <trkpt lat="44.54075" lon="6.48329">
        <ele>797.241092</ele>
        <time>2026-07-27T07:51:37.000Z</time>
      </trkpt>
      <trkpt lat="44.54071" lon="6.4832">
        <ele>796.984027</ele>
        <time>2026-07-27T07:51:38.000Z</time>
      </trkpt>
      <trkpt lat="44.54071" lon="6.4832">
        <ele>796.984027</ele>
        <time>2026-07-27T07:51:38.000Z</time>
      </trkpt>
      <trkpt lat="44.54068" lon="6.48311">
        <ele>796.745729</ele>
        <time>2026-07-27T07:51:39.000Z</time>
      </trkpt>
      <trkpt lat="44.54068" lon="6.48311">
        <ele>796.745729</ele>
        <time>2026-07-27T07:51:39.000Z</time>
      </trkpt>
      <trkpt lat="44.54066" lon="6.48303">
        <ele>796.501333</ele>
        <time>2026-07-27T07:51:40.000Z</time>
      </trkpt>
      <trkpt lat="44.54066" lon="6.48303">
        <ele>796.501333</ele>
        <time>2026-07-27T07:51:40.000Z</time>
      </trkpt>
      <trkpt lat="44.54063" lon="6.48294">
        <ele>796.266275</ele>
        <time>2026-07-27T07:51:41.000Z</time>
      </trkpt>
      <trkpt lat="44.54063" lon="6.48294">
        <ele>796.266275</ele>
        <time>2026-07-27T07:51:41.000Z</time>
      </trkpt>
      <trkpt lat="44.5406" lon="6.48285">
        <ele>796.018551</ele>
        <time>2026-07-27T07:51:42.000Z</time>
      </trkpt>
      <trkpt lat="44.5406" lon="6.48285">
        <ele>796.018551</ele>
        <time>2026-07-27T07:51:42.000Z</time>
      </trkpt>
      <trkpt lat="44.54057" lon="6.48277">
        <ele>795.78127</ele>
        <time>2026-07-27T07:51:43.000Z</time>
      </trkpt>
      <trkpt lat="44.54057" lon="6.48277">
        <ele>795.78127</ele>
        <time>2026-07-27T07:51:43.000Z</time>
      </trkpt>
      <trkpt lat="44.54053" lon="6.48271">
        <ele>795.568785</ele>
        <time>2026-07-27T07:51:44.000Z</time>
      </trkpt>
      <trkpt lat="44.54053" lon="6.48271">
        <ele>795.568785</ele>
        <time>2026-07-27T07:51:44.000Z</time>
      </trkpt>
      <trkpt lat="44.54049" lon="6.48266">
        <ele>795.363611</ele>
        <time>2026-07-27T07:51:44.000Z</time>
      </trkpt>
      <trkpt lat="44.54049" lon="6.48266">
        <ele>795.363611</ele>
        <time>2026-07-27T07:51:44.000Z</time>
      </trkpt>
      <trkpt lat="44.54043" lon="6.48262">
        <ele>795.144494</ele>
        <time>2026-07-27T07:51:46.000Z</time>
      </trkpt>
      <trkpt lat="44.54043" lon="6.48262">
        <ele>795.144494</ele>
        <time>2026-07-27T07:51:46.000Z</time>
      </trkpt>
      <trkpt lat="44.54037" lon="6.4826">
        <ele>794.905188</ele>
        <time>2026-07-27T07:51:47.000Z</time>
      </trkpt>
      <trkpt lat="44.54037" lon="6.4826">
        <ele>794.905188</ele>
        <time>2026-07-27T07:51:47.000Z</time>
      </trkpt>
      <trkpt lat="44.54031" lon="6.4826">
        <ele>794.686871</ele>
        <time>2026-07-27T07:51:48.000Z</time>
      </trkpt>
      <trkpt lat="44.54031" lon="6.4826">
        <ele>794.686871</ele>
        <time>2026-07-27T07:51:48.000Z</time>
      </trkpt>
      <trkpt lat="44.54025" lon="6.48261">
        <ele>794.481281</ele>
        <time>2026-07-27T07:51:49.000Z</time>
      </trkpt>
      <trkpt lat="44.54025" lon="6.48261">
        <ele>794.481281</ele>
        <time>2026-07-27T07:51:49.000Z</time>
      </trkpt>
      <trkpt lat="44.54019" lon="6.48262">
        <ele>794.274602</ele>
        <time>2026-07-27T07:51:50.000Z</time>
      </trkpt>
      <trkpt lat="44.54019" lon="6.48262">
        <ele>794.274602</ele>
        <time>2026-07-27T07:51:50.000Z</time>
      </trkpt>
      <trkpt lat="44.54013" lon="6.48263">
        <ele>794.0548</ele>
        <time>2026-07-27T07:51:51.000Z</time>
      </trkpt>
      <trkpt lat="44.54008" lon="6.48263">
        <ele>793.875834</ele>
        <time>2026-07-27T07:51:52.000Z</time>
      </trkpt>
      <trkpt lat="44.54008" lon="6.48263">
        <ele>793.875834</ele>
        <time>2026-07-27T07:51:52.000Z</time>
      </trkpt>
      <trkpt lat="44.54003" lon="6.48262">
        <ele>793.695997</ele>
        <time>2026-07-27T07:51:53.000Z</time>
      </trkpt>
      <trkpt lat="44.54003" lon="6.48262">
        <ele>793.695997</ele>
        <time>2026-07-27T07:51:53.000Z</time>
      </trkpt>
      <trkpt lat="44.53999" lon="6.48261">
        <ele>793.529852</ele>
        <time>2026-07-27T07:51:54.000Z</time>
      </trkpt>
      <trkpt lat="44.53994" lon="6.48259">
        <ele>793.370275</ele>
        <time>2026-07-27T07:51:55.000Z</time>
      </trkpt>
      <trkpt lat="44.53994" lon="6.48259">
        <ele>793.370275</ele>
        <time>2026-07-27T07:51:55.000Z</time>
      </trkpt>
      <trkpt lat="44.5399" lon="6.48256">
        <ele>793.194627</ele>
        <time>2026-07-27T07:51:56.000Z</time>
      </trkpt>
      <trkpt lat="44.53986" lon="6.48254">
        <ele>793.168009</ele>
        <time>2026-07-27T07:51:57.000Z</time>
      </trkpt>
      <trkpt lat="44.53983" lon="6.4825">
        <ele>793.169169</ele>
        <time>2026-07-27T07:51:58.000Z</time>
      </trkpt>
      <trkpt lat="44.53979" lon="6.48247">
        <ele>793.17022</ele>
        <time>2026-07-27T07:51:59.000Z</time>
      </trkpt>
      <trkpt lat="44.53975" lon="6.48244">
        <ele>793.171407</ele>
        <time>2026-07-27T07:52:00.000Z</time>
      </trkpt>
      <trkpt lat="44.53975" lon="6.48244">
        <ele>793.171407</ele>
        <time>2026-07-27T07:52:00.000Z</time>
      </trkpt>
      <trkpt lat="44.53972" lon="6.4824">
        <ele>793.172479</ele>
        <time>2026-07-27T07:52:01.000Z</time>
      </trkpt>
      <trkpt lat="44.53968" lon="6.48237">
        <ele>793.173561</ele>
        <time>2026-07-27T07:52:02.000Z</time>
      </trkpt>
      <trkpt lat="44.53965" lon="6.48234">
        <ele>793.174497</ele>
        <time>2026-07-27T07:52:03.000Z</time>
      </trkpt>
      <trkpt lat="44.53962" lon="6.48231">
        <ele>793.175589</ele>
        <time>2026-07-27T07:52:04.000Z</time>
      </trkpt>
      <trkpt lat="44.53959" lon="6.48227">
        <ele>793.176465</ele>
        <time>2026-07-27T07:52:05.000Z</time>
      </trkpt>
      <trkpt lat="44.53959" lon="6.48227">
        <ele>793.176465</ele>
        <time>2026-07-27T07:52:05.000Z</time>
      </trkpt>
      <trkpt lat="44.53957" lon="6.48224">
        <ele>793.177373</ele>
        <time>2026-07-27T07:52:06.000Z</time>
      </trkpt>
      <trkpt lat="44.53954" lon="6.48221">
        <ele>793.178318</ele>
        <time>2026-07-27T07:52:07.000Z</time>
      </trkpt>
      <trkpt lat="44.53951" lon="6.48218">
        <ele>793.179329</ele>
        <time>2026-07-27T07:52:08.000Z</time>
      </trkpt>
      <trkpt lat="44.53948" lon="6.48215">
        <ele>793.180307</ele>
        <time>2026-07-27T07:52:09.000Z</time>
      </trkpt>
      <trkpt lat="44.53944" lon="6.48211">
        <ele>793.181329</ele>
        <time>2026-07-27T07:52:10.000Z</time>
      </trkpt>
      <trkpt lat="44.53941" lon="6.48208">
        <ele>793.18237</ele>
        <time>2026-07-27T07:52:11.000Z</time>
      </trkpt>
      <trkpt lat="44.53938" lon="6.48205">
        <ele>793.183347</ele>
        <time>2026-07-27T07:52:12.000Z</time>
      </trkpt>
      <trkpt lat="44.53935" lon="6.48201">
        <ele>793.184419</ele>
        <time>2026-07-27T07:52:13.000Z</time>
      </trkpt>
      <trkpt lat="44.53935" lon="6.48201">
        <ele>793.184419</ele>
        <time>2026-07-27T07:52:13.000Z</time>
      </trkpt>
      <trkpt lat="44.53931" lon="6.48198">
        <ele>793.185429</ele>
        <time>2026-07-27T07:52:14.000Z</time>
      </trkpt>
      <trkpt lat="44.53928" lon="6.48195">
        <ele>793.18643</ele>
        <time>2026-07-27T07:52:15.000Z</time>
      </trkpt>
      <trkpt lat="44.53925" lon="6.48191">
        <ele>793.187429</ele>
        <time>2026-07-27T07:52:16.000Z</time>
      </trkpt>
      <trkpt lat="44.53922" lon="6.48188">
        <ele>793.188408</ele>
        <time>2026-07-27T07:52:17.000Z</time>
      </trkpt>
      <trkpt lat="44.53919" lon="6.48184">
        <ele>793.18943</ele>
        <time>2026-07-27T07:52:18.000Z</time>
      </trkpt>
      <trkpt lat="44.53915" lon="6.48181">
        <ele>793.190617</ele>
        <time>2026-07-27T07:52:19.000Z</time>
      </trkpt>
      <trkpt lat="44.53915" lon="6.48181">
        <ele>793.190617</ele>
        <time>2026-07-27T07:52:19.000Z</time>
      </trkpt>
      <trkpt lat="44.53913" lon="6.48177">
        <ele>793.191548</ele>
        <time>2026-07-27T07:52:20.000Z</time>
      </trkpt>
      <trkpt lat="44.5391" lon="6.48174">
        <ele>793.192505</ele>
        <time>2026-07-27T07:52:21.000Z</time>
      </trkpt>
      <trkpt lat="44.53907" lon="6.48171">
        <ele>793.193526</ele>
        <time>2026-07-27T07:52:21.000Z</time>
      </trkpt>
      <trkpt lat="44.53907" lon="6.48171">
        <ele>793.193526</ele>
        <time>2026-07-27T07:52:21.000Z</time>
      </trkpt>
      <trkpt lat="44.53904" lon="6.48168">
        <ele>793.194379</ele>
        <time>2026-07-27T07:52:23.000Z</time>
      </trkpt>
      <trkpt lat="44.53901" lon="6.48164">
        <ele>793.195412</ele>
        <time>2026-07-27T07:52:24.000Z</time>
      </trkpt>
      <trkpt lat="44.53898" lon="6.48161">
        <ele>793.196358</ele>
        <time>2026-07-27T07:52:25.000Z</time>
      </trkpt>
      <trkpt lat="44.53898" lon="6.48161">
        <ele>793.196358</ele>
        <time>2026-07-27T07:52:25.000Z</time>
      </trkpt>
      <trkpt lat="44.53894" lon="6.48158">
        <ele>793.197411</ele>
        <time>2026-07-27T07:52:25.000Z</time>
      </trkpt>
      <trkpt lat="44.53891" lon="6.48155">
        <ele>793.198578</ele>
        <time>2026-07-27T07:52:27.000Z</time>
      </trkpt>
      <trkpt lat="44.53888" lon="6.48151">
        <ele>793.199628</ele>
        <time>2026-07-27T07:52:27.000Z</time>
      </trkpt>
      <trkpt lat="44.53884" lon="6.48146">
        <ele>793.200834</ele>
        <time>2026-07-27T07:52:29.000Z</time>
      </trkpt>
      <trkpt lat="44.53884" lon="6.48146">
        <ele>793.200834</ele>
        <time>2026-07-27T07:52:29.000Z</time>
      </trkpt>
      <trkpt lat="44.53882" lon="6.48143">
        <ele>793.201772</ele>
        <time>2026-07-27T07:52:30.000Z</time>
      </trkpt>
      <trkpt lat="44.53879" lon="6.48139">
        <ele>793.20282</ele>
        <time>2026-07-27T07:52:31.000Z</time>
      </trkpt>
      <trkpt lat="44.53879" lon="6.48139">
        <ele>793.20282</ele>
        <time>2026-07-27T07:52:31.000Z</time>
      </trkpt>
      <trkpt lat="44.53877" lon="6.48134">
        <ele>793.203894</ele>
        <time>2026-07-27T07:52:32.000Z</time>
      </trkpt>
      <trkpt lat="44.53875" lon="6.48128">
        <ele>793.204963</ele>
        <time>2026-07-27T07:52:33.000Z</time>
      </trkpt>
      <trkpt lat="44.53873" lon="6.48123">
        <ele>793.206024</ele>
        <time>2026-07-27T07:52:34.000Z</time>
      </trkpt>
      <trkpt lat="44.53872" lon="6.48118">
        <ele>793.20706</ele>
        <time>2026-07-27T07:52:35.000Z</time>
      </trkpt>
      <trkpt lat="44.5387" lon="6.48112">
        <ele>793.208295</ele>
        <time>2026-07-27T07:52:36.000Z</time>
      </trkpt>
      <trkpt lat="44.53868" lon="6.48105">
        <ele>793.209493</ele>
        <time>2026-07-27T07:52:37.000Z</time>
      </trkpt>
      <trkpt lat="44.53866" lon="6.48099">
        <ele>793.210711</ele>
        <time>2026-07-27T07:52:38.000Z</time>
      </trkpt>
      <trkpt lat="44.53865" lon="6.48093">
        <ele>793.211944</ele>
        <time>2026-07-27T07:52:39.000Z</time>
      </trkpt>
      <trkpt lat="44.53863" lon="6.48087">
        <ele>793.213133</ele>
        <time>2026-07-27T07:52:40.000Z</time>
      </trkpt>
      <trkpt lat="44.53862" lon="6.48081">
        <ele>793.232938</ele>
        <time>2026-07-27T07:52:41.000Z</time>
      </trkpt>
      <trkpt lat="44.5386" lon="6.48075">
        <ele>793.263162</ele>
        <time>2026-07-27T07:52:42.000Z</time>
      </trkpt>
      <trkpt lat="44.53859" lon="6.48069">
        <ele>793.291706</ele>
        <time>2026-07-27T07:52:43.000Z</time>
      </trkpt>
      <trkpt lat="44.53856" lon="6.48062">
        <ele>793.321791</ele>
        <time>2026-07-27T07:52:44.000Z</time>
      </trkpt>
      <trkpt lat="44.53854" lon="6.48057">
        <ele>793.349619</ele>
        <time>2026-07-27T07:52:45.000Z</time>
      </trkpt>
      <trkpt lat="44.53852" lon="6.48051">
        <ele>793.379704</ele>
        <time>2026-07-27T07:52:46.000Z</time>
      </trkpt>
      <trkpt lat="44.53852" lon="6.48051">
        <ele>793.379704</ele>
        <time>2026-07-27T07:52:46.000Z</time>
      </trkpt>
      <trkpt lat="44.5385" lon="6.48045">
        <ele>793.408327</ele>
        <time>2026-07-27T07:52:47.000Z</time>
      </trkpt>
      <trkpt lat="44.53848" lon="6.48039">
        <ele>793.436155</ele>
        <time>2026-07-27T07:52:48.000Z</time>
      </trkpt>
      <trkpt lat="44.53846" lon="6.48033">
        <ele>793.463587</ele>
        <time>2026-07-27T07:52:49.000Z</time>
      </trkpt>
      <trkpt lat="44.53845" lon="6.48027">
        <ele>793.491812</ele>
        <time>2026-07-27T07:52:50.000Z</time>
      </trkpt>
      <trkpt lat="44.53842" lon="6.48021">
        <ele>793.520367</ele>
        <time>2026-07-27T07:52:51.000Z</time>
      </trkpt>
      <trkpt lat="44.5384" lon="6.48016">
        <ele>793.5478</ele>
        <time>2026-07-27T07:52:52.000Z</time>
      </trkpt>
      <trkpt lat="44.53838" lon="6.4801">
        <ele>793.576556</ele>
        <time>2026-07-27T07:52:53.000Z</time>
      </trkpt>
      <trkpt lat="44.53835" lon="6.48005">
        <ele>793.603903</ele>
        <time>2026-07-27T07:52:54.000Z</time>
      </trkpt>
      <trkpt lat="44.53832" lon="6.48001">
        <ele>793.628885</ele>
        <time>2026-07-27T07:52:55.000Z</time>
      </trkpt>
      <trkpt lat="44.53832" lon="6.48001">
        <ele>793.628885</ele>
        <time>2026-07-27T07:52:55.000Z</time>
      </trkpt>
      <trkpt lat="44.5383" lon="6.47997">
        <ele>793.653802</ele>
        <time>2026-07-27T07:52:56.000Z</time>
      </trkpt>
      <trkpt lat="44.53827" lon="6.47992">
        <ele>793.679445</ele>
        <time>2026-07-27T07:52:57.000Z</time>
      </trkpt>
      <trkpt lat="44.53824" lon="6.47987">
        <ele>793.705762</ele>
        <time>2026-07-27T07:52:58.000Z</time>
      </trkpt>
      <trkpt lat="44.53821" lon="6.47983">
        <ele>793.731994</ele>
        <time>2026-07-27T07:52:59.000Z</time>
      </trkpt>
      <trkpt lat="44.53817" lon="6.4798">
        <ele>793.760038</ele>
        <time>2026-07-27T07:53:00.000Z</time>
      </trkpt>
      <trkpt lat="44.53814" lon="6.47976">
        <ele>793.785354</ele>
        <time>2026-07-27T07:53:01.000Z</time>
      </trkpt>
      <trkpt lat="44.5381" lon="6.47973">
        <ele>793.812689</ele>
        <time>2026-07-27T07:53:02.000Z</time>
      </trkpt>
      <trkpt lat="44.5381" lon="6.47973">
        <ele>793.812689</ele>
        <time>2026-07-27T07:53:02.000Z</time>
      </trkpt>
      <trkpt lat="44.53806" lon="6.4797">
        <ele>793.840492</ele>
        <time>2026-07-27T07:53:03.000Z</time>
      </trkpt>
      <trkpt lat="44.53803" lon="6.47966">
        <ele>793.868536</ele>
        <time>2026-07-27T07:53:04.000Z</time>
      </trkpt>
      <trkpt lat="44.53798" lon="6.47963">
        <ele>793.898195</ele>
        <time>2026-07-27T07:53:05.000Z</time>
      </trkpt>
      <trkpt lat="44.53798" lon="6.47963">
        <ele>793.898195</ele>
        <time>2026-07-27T07:53:05.000Z</time>
      </trkpt>
      <trkpt lat="44.53795" lon="6.4796">
        <ele>793.924053</ele>
        <time>2026-07-27T07:53:06.000Z</time>
      </trkpt>
      <trkpt lat="44.53791" lon="6.47958">
        <ele>793.947692</ele>
        <time>2026-07-27T07:53:07.000Z</time>
      </trkpt>
      <trkpt lat="44.53791" lon="6.47958">
        <ele>793.947692</ele>
        <time>2026-07-27T07:53:07.000Z</time>
      </trkpt>
      <trkpt lat="44.53788" lon="6.47956">
        <ele>793.966042</ele>
        <time>2026-07-27T07:53:08.000Z</time>
      </trkpt>
      <trkpt lat="44.53786" lon="6.47953">
        <ele>793.984667</ele>
        <time>2026-07-27T07:53:09.000Z</time>
      </trkpt>
      <trkpt lat="44.53786" lon="6.47953">
        <ele>793.984667</ele>
        <time>2026-07-27T07:53:09.000Z</time>
      </trkpt>
      <trkpt lat="44.53785" lon="6.47949">
        <ele>794.002471</ele>
        <time>2026-07-27T07:53:11.000Z</time>
      </trkpt>
      <trkpt lat="44.53784" lon="6.47946">
        <ele>794.016028</ele>
        <time>2026-07-27T07:53:11.000Z</time>
      </trkpt>
      <trkpt lat="44.53784" lon="6.47946">
        <ele>794.016028</ele>
        <time>2026-07-27T07:53:11.000Z</time>
      </trkpt>
      <trkpt lat="44.53782" lon="6.47941">
        <ele>794.042282</ele>
        <time>2026-07-27T07:53:12.000Z</time>
      </trkpt>
      <trkpt lat="44.53779" lon="6.47935">
        <ele>794.075299</ele>
        <time>2026-07-27T07:53:13.000Z</time>
      </trkpt>
      <trkpt lat="44.53779" lon="6.47935">
        <ele>794.075299</ele>
        <time>2026-07-27T07:53:13.000Z</time>
      </trkpt>
      <trkpt lat="44.53775" lon="6.47928">
        <ele>794.110448</ele>
        <time>2026-07-27T07:53:14.000Z</time>
      </trkpt>
      <trkpt lat="44.53771" lon="6.47923">
        <ele>794.147414</ele>
        <time>2026-07-27T07:53:15.000Z</time>
      </trkpt>
      <trkpt lat="44.53766" lon="6.47917">
        <ele>794.183632</ele>
        <time>2026-07-27T07:53:16.000Z</time>
      </trkpt>
      <trkpt lat="44.53762" lon="6.47913">
        <ele>794.216765</ele>
        <time>2026-07-27T07:53:17.000Z</time>
      </trkpt>
      <trkpt lat="44.53758" lon="6.47908">
        <ele>794.25074</ele>
        <time>2026-07-27T07:53:18.000Z</time>
      </trkpt>
      <trkpt lat="44.53754" lon="6.47902">
        <ele>794.287092</ele>
        <time>2026-07-27T07:53:19.000Z</time>
      </trkpt>
      <trkpt lat="44.5375" lon="6.47895">
        <ele>794.349125</ele>
        <time>2026-07-27T07:53:20.000Z</time>
      </trkpt>
      <trkpt lat="44.53746" lon="6.47888">
        <ele>794.453904</ele>
        <time>2026-07-27T07:53:21.000Z</time>
      </trkpt>
      <trkpt lat="44.53742" lon="6.47881">
        <ele>794.55953</ele>
        <time>2026-07-27T07:53:22.000Z</time>
      </trkpt>
      <trkpt lat="44.53742" lon="6.47881">
        <ele>794.55953</ele>
        <time>2026-07-27T07:53:22.000Z</time>
      </trkpt>
      <trkpt lat="44.53738" lon="6.47874">
        <ele>794.662297</ele>
        <time>2026-07-27T07:53:23.000Z</time>
      </trkpt>
      <trkpt lat="44.53735" lon="6.47868">
        <ele>794.757029</ele>
        <time>2026-07-27T07:53:24.000Z</time>
      </trkpt>
      <trkpt lat="44.53732" lon="6.47861">
        <ele>794.85764</ele>
        <time>2026-07-27T07:53:25.000Z</time>
      </trkpt>
      <trkpt lat="44.53729" lon="6.47853">
        <ele>794.964997</ele>
        <time>2026-07-27T07:53:26.000Z</time>
      </trkpt>
      <trkpt lat="44.53726" lon="6.47846">
        <ele>795.059281</ele>
        <time>2026-07-27T07:53:27.000Z</time>
      </trkpt>
      <trkpt lat="44.53724" lon="6.47839">
        <ele>795.155689</ele>
        <time>2026-07-27T07:53:28.000Z</time>
      </trkpt>
      <trkpt lat="44.53721" lon="6.47832">
        <ele>795.250155</ele>
        <time>2026-07-27T07:53:29.000Z</time>
      </trkpt>
      <trkpt lat="44.53719" lon="6.47825">
        <ele>795.343625</ele>
        <time>2026-07-27T07:53:30.000Z</time>
      </trkpt>
      <trkpt lat="44.53716" lon="6.47819">
        <ele>795.436853</ele>
        <time>2026-07-27T07:53:31.000Z</time>
      </trkpt>
      <trkpt lat="44.53713" lon="6.47811">
        <ele>795.540822</ele>
        <time>2026-07-27T07:53:32.000Z</time>
      </trkpt>
      <trkpt lat="44.5371" lon="6.47805">
        <ele>795.634292</ele>
        <time>2026-07-27T07:53:33.000Z</time>
      </trkpt>
      <trkpt lat="44.53707" lon="6.47798">
        <ele>795.732065</ele>
        <time>2026-07-27T07:53:34.000Z</time>
      </trkpt>
      <trkpt lat="44.53707" lon="6.47798">
        <ele>795.732065</ele>
        <time>2026-07-27T07:53:34.000Z</time>
      </trkpt>
      <trkpt lat="44.53705" lon="6.47791">
        <ele>795.827676</ele>
        <time>2026-07-27T07:53:36.000Z</time>
      </trkpt>
      <trkpt lat="44.53701" lon="6.47784">
        <ele>795.924431</ele>
        <time>2026-07-27T07:53:36.000Z</time>
      </trkpt>
      <trkpt lat="44.537" lon="6.47778">
        <ele>796.005066</ele>
        <time>2026-07-27T07:53:38.000Z</time>
      </trkpt>
      <trkpt lat="44.537" lon="6.47778">
        <ele>796.005066</ele>
        <time>2026-07-27T07:53:38.000Z</time>
      </trkpt>
      <trkpt lat="44.53696" lon="6.47769">
        <ele>796.129518</ele>
        <time>2026-07-27T07:53:38.000Z</time>
      </trkpt>
      <trkpt lat="44.53693" lon="6.47762">
        <ele>796.228314</ele>
        <time>2026-07-27T07:53:39.000Z</time>
      </trkpt>
      <trkpt lat="44.53693" lon="6.47762">
        <ele>796.228314</ele>
        <time>2026-07-27T07:53:39.000Z</time>
      </trkpt>
      <trkpt lat="44.5369" lon="6.47755">
        <ele>796.327933</ele>
        <time>2026-07-27T07:53:40.000Z</time>
      </trkpt>
      <trkpt lat="44.53687" lon="6.47747">
        <ele>796.428953</ele>
        <time>2026-07-27T07:53:41.000Z</time>
      </trkpt>
      <trkpt lat="44.53687" lon="6.47747">
        <ele>796.428953</ele>
        <time>2026-07-27T07:53:41.000Z</time>
      </trkpt>
      <trkpt lat="44.53684" lon="6.4774">
        <ele>796.535019</ele>
        <time>2026-07-27T07:53:42.000Z</time>
      </trkpt>
      <trkpt lat="44.53684" lon="6.4774">
        <ele>796.535019</ele>
        <time>2026-07-27T07:53:42.000Z</time>
      </trkpt>
      <trkpt lat="44.53682" lon="6.47732">
        <ele>796.638224</ele>
        <time>2026-07-27T07:53:43.000Z</time>
      </trkpt>
      <trkpt lat="44.53678" lon="6.47725">
        <ele>796.744791</ele>
        <time>2026-07-27T07:53:44.000Z</time>
      </trkpt>
      <trkpt lat="44.53678" lon="6.47725">
        <ele>796.744791</ele>
        <time>2026-07-27T07:53:44.000Z</time>
      </trkpt>
      <trkpt lat="44.53675" lon="6.47718">
        <ele>796.844767</ele>
        <time>2026-07-27T07:53:45.000Z</time>
      </trkpt>
      <trkpt lat="44.53675" lon="6.47718">
        <ele>796.844767</ele>
        <time>2026-07-27T07:53:45.000Z</time>
      </trkpt>
      <trkpt lat="44.53672" lon="6.47711">
        <ele>796.943563</ele>
        <time>2026-07-27T07:53:46.000Z</time>
      </trkpt>
      <trkpt lat="44.53672" lon="6.47711">
        <ele>796.943563</ele>
        <time>2026-07-27T07:53:46.000Z</time>
      </trkpt>
      <trkpt lat="44.53669" lon="6.47704">
        <ele>797.047171</ele>
        <time>2026-07-27T07:53:47.000Z</time>
      </trkpt>
      <trkpt lat="44.53669" lon="6.47704">
        <ele>797.047171</ele>
        <time>2026-07-27T07:53:47.000Z</time>
      </trkpt>
      <trkpt lat="44.53666" lon="6.47697">
        <ele>797.144945</ele>
        <time>2026-07-27T07:53:48.000Z</time>
      </trkpt>
      <trkpt lat="44.53666" lon="6.47697">
        <ele>797.144945</ele>
        <time>2026-07-27T07:53:48.000Z</time>
      </trkpt>
      <trkpt lat="44.53662" lon="6.4769">
        <ele>797.246551</ele>
        <time>2026-07-27T07:53:49.000Z</time>
      </trkpt>
      <trkpt lat="44.53662" lon="6.4769">
        <ele>797.246551</ele>
        <time>2026-07-27T07:53:49.000Z</time>
      </trkpt>
      <trkpt lat="44.53658" lon="6.47683">
        <ele>797.35217</ele>
        <time>2026-07-27T07:53:50.000Z</time>
      </trkpt>
      <trkpt lat="44.53658" lon="6.47683">
        <ele>797.35217</ele>
        <time>2026-07-27T07:53:50.000Z</time>
      </trkpt>
      <trkpt lat="44.53655" lon="6.47676">
        <ele>797.454914</ele>
        <time>2026-07-27T07:53:51.000Z</time>
      </trkpt>
      <trkpt lat="44.53655" lon="6.47676">
        <ele>797.454914</ele>
        <time>2026-07-27T07:53:51.000Z</time>
      </trkpt>
      <trkpt lat="44.53651" lon="6.4767">
        <ele>797.547585</ele>
        <time>2026-07-27T07:53:52.000Z</time>
      </trkpt>
      <trkpt lat="44.53651" lon="6.4767">
        <ele>797.547585</ele>
        <time>2026-07-27T07:53:52.000Z</time>
      </trkpt>
      <trkpt lat="44.53648" lon="6.47664">
        <ele>797.644143</ele>
        <time>2026-07-27T07:53:53.000Z</time>
      </trkpt>
      <trkpt lat="44.53648" lon="6.47664">
        <ele>797.644143</ele>
        <time>2026-07-27T07:53:53.000Z</time>
      </trkpt>
      <trkpt lat="44.53645" lon="6.47657">
        <ele>797.737829</ele>
        <time>2026-07-27T07:53:54.000Z</time>
      </trkpt>
      <trkpt lat="44.53645" lon="6.47657">
        <ele>797.737829</ele>
        <time>2026-07-27T07:53:54.000Z</time>
      </trkpt>
      <trkpt lat="44.53642" lon="6.47651">
        <ele>797.831493</ele>
        <time>2026-07-27T07:53:56.000Z</time>
      </trkpt>
      <trkpt lat="44.53642" lon="6.47651">
        <ele>797.831493</ele>
        <time>2026-07-27T07:53:56.000Z</time>
      </trkpt>
      <trkpt lat="44.53638" lon="6.47645">
        <ele>797.923291</ele>
        <time>2026-07-27T07:53:56.000Z</time>
      </trkpt>
      <trkpt lat="44.53638" lon="6.47645">
        <ele>797.923291</ele>
        <time>2026-07-27T07:53:56.000Z</time>
      </trkpt>
      <trkpt lat="44.53635" lon="6.47639">
        <ele>798.009158</ele>
        <time>2026-07-27T07:53:57.000Z</time>
      </trkpt>
      <trkpt lat="44.53635" lon="6.47639">
        <ele>798.009158</ele>
        <time>2026-07-27T07:53:57.000Z</time>
      </trkpt>
      <trkpt lat="44.53632" lon="6.47633">
        <ele>798.096932</ele>
        <time>2026-07-27T07:53:58.000Z</time>
      </trkpt>
      <trkpt lat="44.53632" lon="6.47633">
        <ele>798.096932</ele>
        <time>2026-07-27T07:53:58.000Z</time>
      </trkpt>
      <trkpt lat="44.53628" lon="6.47626">
        <ele>798.199475</ele>
        <time>2026-07-27T07:53:59.000Z</time>
      </trkpt>
      <trkpt lat="44.53625" lon="6.4762">
        <ele>798.294195</ele>
        <time>2026-07-27T07:54:00.000Z</time>
      </trkpt>
      <trkpt lat="44.53625" lon="6.4762">
        <ele>798.294195</ele>
        <time>2026-07-27T07:54:00.000Z</time>
      </trkpt>
      <trkpt lat="44.53621" lon="6.47614">
        <ele>798.393952</ele>
        <time>2026-07-27T07:54:01.000Z</time>
      </trkpt>
      <trkpt lat="44.53621" lon="6.47614">
        <ele>798.393952</ele>
        <time>2026-07-27T07:54:01.000Z</time>
      </trkpt>
      <trkpt lat="44.53617" lon="6.47607">
        <ele>798.496495</ele>
        <time>2026-07-27T07:54:02.000Z</time>
      </trkpt>
      <trkpt lat="44.53614" lon="6.47601">
        <ele>798.588294</ele>
        <time>2026-07-27T07:54:03.000Z</time>
      </trkpt>
      <trkpt lat="44.53614" lon="6.47601">
        <ele>798.588294</ele>
        <time>2026-07-27T07:54:03.000Z</time>
      </trkpt>
      <trkpt lat="44.5361" lon="6.47595">
        <ele>798.683956</ele>
        <time>2026-07-27T07:54:04.000Z</time>
      </trkpt>
      <trkpt lat="44.53607" lon="6.47588">
        <ele>798.782455</ele>
        <time>2026-07-27T07:54:05.000Z</time>
      </trkpt>
      <trkpt lat="44.53603" lon="6.47582">
        <ele>798.878051</ele>
        <time>2026-07-27T07:54:06.000Z</time>
      </trkpt>
      <trkpt lat="44.536" lon="6.47575">
        <ele>798.978891</ele>
        <time>2026-07-27T07:54:07.000Z</time>
      </trkpt>
      <trkpt lat="44.53596" lon="6.47569">
        <ele>799.080501</ele>
        <time>2026-07-27T07:54:08.000Z</time>
      </trkpt>
      <trkpt lat="44.53593" lon="6.47563">
        <ele>799.168275</ele>
        <time>2026-07-27T07:54:09.000Z</time>
      </trkpt>
      <trkpt lat="44.5359" lon="6.47557">
        <ele>799.258976</ele>
        <time>2026-07-27T07:54:10.000Z</time>
      </trkpt>
      <trkpt lat="44.53586" lon="6.4755">
        <ele>799.356</ele>
        <time>2026-07-27T07:54:11.000Z</time>
      </trkpt>
      <trkpt lat="44.53582" lon="6.47544">
        <ele>799.450638</ele>
        <time>2026-07-27T07:54:12.000Z</time>
      </trkpt>
      <trkpt lat="44.53579" lon="6.47538">
        <ele>799.5463</ele>
        <time>2026-07-27T07:54:13.000Z</time>
      </trkpt>
      <trkpt lat="44.53575" lon="6.47532">
        <ele>799.645844</ele>
        <time>2026-07-27T07:54:14.000Z</time>
      </trkpt>
      <trkpt lat="44.53575" lon="6.47532">
        <ele>799.645844</ele>
        <time>2026-07-27T07:54:14.000Z</time>
      </trkpt>
      <trkpt lat="44.5357" lon="6.47526">
        <ele>799.748964</ele>
        <time>2026-07-27T07:54:15.000Z</time>
      </trkpt>
      <trkpt lat="44.53566" lon="6.4752">
        <ele>799.847148</ele>
        <time>2026-07-27T07:54:16.000Z</time>
      </trkpt>
      <trkpt lat="44.53561" lon="6.47515">
        <ele>799.956156</ele>
        <time>2026-07-27T07:54:17.000Z</time>
      </trkpt>
      <trkpt lat="44.53556" lon="6.47509">
        <ele>800.063874</ele>
        <time>2026-07-27T07:54:18.000Z</time>
      </trkpt>
      <trkpt lat="44.53551" lon="6.47503">
        <ele>800.172123</ele>
        <time>2026-07-27T07:54:19.000Z</time>
      </trkpt>
      <trkpt lat="44.53546" lon="6.47497">
        <ele>800.28113</ele>
        <time>2026-07-27T07:54:20.000Z</time>
      </trkpt>
      <trkpt lat="44.53541" lon="6.47491">
        <ele>800.395225</ele>
        <time>2026-07-27T07:54:21.000Z</time>
      </trkpt>
      <trkpt lat="44.53541" lon="6.47491">
        <ele>800.395225</ele>
        <time>2026-07-27T07:54:21.000Z</time>
      </trkpt>
      <trkpt lat="44.53536" lon="6.47486">
        <ele>800.48927</ele>
        <time>2026-07-27T07:54:22.000Z</time>
      </trkpt>
      <trkpt lat="44.53531" lon="6.47481">
        <ele>800.583397</ele>
        <time>2026-07-27T07:54:23.000Z</time>
      </trkpt>
      <trkpt lat="44.53526" lon="6.47476">
        <ele>800.678733</ele>
        <time>2026-07-27T07:54:24.000Z</time>
      </trkpt>
      <trkpt lat="44.53521" lon="6.47471">
        <ele>800.770909</ele>
        <time>2026-07-27T07:54:25.000Z</time>
      </trkpt>
      <trkpt lat="44.53516" lon="6.47466">
        <ele>800.863695</ele>
        <time>2026-07-27T07:54:27.000Z</time>
      </trkpt>
      <trkpt lat="44.53516" lon="6.47466">
        <ele>800.863695</ele>
        <time>2026-07-27T07:54:27.000Z</time>
      </trkpt>
      <trkpt lat="44.53511" lon="6.47461">
        <ele>800.955864</ele>
        <time>2026-07-27T07:54:27.000Z</time>
      </trkpt>
      <trkpt lat="44.53507" lon="6.47456">
        <ele>801.039933</ele>
        <time>2026-07-27T07:54:28.000Z</time>
      </trkpt>
      <trkpt lat="44.53502" lon="6.47452">
        <ele>801.125247</ele>
        <time>2026-07-27T07:54:29.000Z</time>
      </trkpt>
      <trkpt lat="44.53502" lon="6.47452">
        <ele>801.125247</ele>
        <time>2026-07-27T07:54:29.000Z</time>
      </trkpt>
      <trkpt lat="44.53497" lon="6.47447">
        <ele>801.213113</ele>
        <time>2026-07-27T07:54:30.000Z</time>
      </trkpt>
      <trkpt lat="44.53493" lon="6.47442">
        <ele>801.294845</ele>
        <time>2026-07-27T07:54:31.000Z</time>
      </trkpt>
      <trkpt lat="44.53493" lon="6.47442">
        <ele>801.294845</ele>
        <time>2026-07-27T07:54:31.000Z</time>
      </trkpt>
      <trkpt lat="44.53489" lon="6.47438">
        <ele>801.374589</ele>
        <time>2026-07-27T07:54:32.000Z</time>
      </trkpt>
      <trkpt lat="44.53489" lon="6.47438">
        <ele>801.374589</ele>
        <time>2026-07-27T07:54:32.000Z</time>
      </trkpt>
      <trkpt lat="44.53485" lon="6.47433">
        <ele>801.452378</ele>
        <time>2026-07-27T07:54:33.000Z</time>
      </trkpt>
      <trkpt lat="44.53485" lon="6.47433">
        <ele>801.452378</ele>
        <time>2026-07-27T07:54:33.000Z</time>
      </trkpt>
      <trkpt lat="44.53481" lon="6.47428">
        <ele>801.543626</ele>
        <time>2026-07-27T07:54:34.000Z</time>
      </trkpt>
      <trkpt lat="44.53481" lon="6.47428">
        <ele>801.543626</ele>
        <time>2026-07-27T07:54:34.000Z</time>
      </trkpt>
      <trkpt lat="44.53476" lon="6.47422">
        <ele>801.630295</ele>
        <time>2026-07-27T07:54:36.000Z</time>
      </trkpt>
      <trkpt lat="44.53476" lon="6.47422">
        <ele>801.630295</ele>
        <time>2026-07-27T07:54:36.000Z</time>
      </trkpt>
      <trkpt lat="44.53473" lon="6.47417">
        <ele>801.713356</ele>
        <time>2026-07-27T07:54:36.000Z</time>
      </trkpt>
      <trkpt lat="44.53473" lon="6.47417">
        <ele>801.713356</ele>
        <time>2026-07-27T07:54:36.000Z</time>
      </trkpt>
      <trkpt lat="44.53469" lon="6.47411">
        <ele>801.793125</ele>
        <time>2026-07-27T07:54:37.000Z</time>
      </trkpt>
      <trkpt lat="44.53469" lon="6.47411">
        <ele>801.793125</ele>
        <time>2026-07-27T07:54:37.000Z</time>
      </trkpt>
      <trkpt lat="44.53465" lon="6.47405">
        <ele>801.882619</ele>
        <time>2026-07-27T07:54:38.000Z</time>
      </trkpt>
      <trkpt lat="44.53465" lon="6.47405">
        <ele>801.882619</ele>
        <time>2026-07-27T07:54:38.000Z</time>
      </trkpt>
      <trkpt lat="44.53462" lon="6.47398">
        <ele>801.974621</ele>
        <time>2026-07-27T07:54:39.000Z</time>
      </trkpt>
      <trkpt lat="44.53462" lon="6.47398">
        <ele>801.974621</ele>
        <time>2026-07-27T07:54:39.000Z</time>
      </trkpt>
      <trkpt lat="44.53458" lon="6.47393">
        <ele>802.057028</ele>
        <time>2026-07-27T07:54:40.000Z</time>
      </trkpt>
      <trkpt lat="44.53458" lon="6.47393">
        <ele>802.057028</ele>
        <time>2026-07-27T07:54:40.000Z</time>
      </trkpt>
      <trkpt lat="44.53455" lon="6.47388">
        <ele>802.122403</ele>
        <time>2026-07-27T07:54:41.000Z</time>
      </trkpt>
      <trkpt lat="44.53455" lon="6.47388">
        <ele>802.122403</ele>
        <time>2026-07-27T07:54:41.000Z</time>
      </trkpt>
      <trkpt lat="44.53454" lon="6.47385">
        <ele>802.156907</ele>
        <time>2026-07-27T07:54:42.000Z</time>
      </trkpt>
      <trkpt lat="44.53454" lon="6.47385">
        <ele>802.156907</ele>
        <time>2026-07-27T07:54:42.000Z</time>
      </trkpt>
      <trkpt lat="44.53452" lon="6.47382">
        <ele>802.202908</ele>
        <time>2026-07-27T07:54:43.000Z</time>
      </trkpt>
      <trkpt lat="44.5345" lon="6.47379">
        <ele>802.24807</ele>
        <time>2026-07-27T07:54:44.000Z</time>
      </trkpt>
      <trkpt lat="44.5345" lon="6.47379">
        <ele>802.24807</ele>
        <time>2026-07-27T07:54:44.000Z</time>
      </trkpt>
      <trkpt lat="44.53448" lon="6.47375">
        <ele>802.300495</ele>
        <time>2026-07-27T07:54:45.000Z</time>
      </trkpt>
      <trkpt lat="44.53444" lon="6.47369">
        <ele>802.388345</ele>
        <time>2026-07-27T07:54:46.000Z</time>
      </trkpt>
      <trkpt lat="44.53444" lon="6.47369">
        <ele>802.388345</ele>
        <time>2026-07-27T07:54:46.000Z</time>
      </trkpt>
      <trkpt lat="44.5344" lon="6.47362">
        <ele>802.484287</ele>
        <time>2026-07-27T07:54:47.000Z</time>
      </trkpt>
      <trkpt lat="44.53436" lon="6.47355">
        <ele>802.587531</ele>
        <time>2026-07-27T07:54:48.000Z</time>
      </trkpt>
      <trkpt lat="44.53431" lon="6.47348">
        <ele>802.68998</ele>
        <time>2026-07-27T07:54:49.000Z</time>
      </trkpt>
      <trkpt lat="44.53428" lon="6.47343">
        <ele>802.771413</ele>
        <time>2026-07-27T07:54:50.000Z</time>
      </trkpt>
      <trkpt lat="44.53425" lon="6.47337">
        <ele>802.846514</ele>
        <time>2026-07-27T07:54:51.000Z</time>
      </trkpt>
      <trkpt lat="44.53422" lon="6.47332">
        <ele>802.915663</ele>
        <time>2026-07-27T07:54:52.000Z</time>
      </trkpt>
      <trkpt lat="44.53422" lon="6.47332">
        <ele>802.915663</ele>
        <time>2026-07-27T07:54:52.000Z</time>
      </trkpt>
      <trkpt lat="44.5342" lon="6.47326">
        <ele>802.988586</ele>
        <time>2026-07-27T07:54:53.000Z</time>
      </trkpt>
      <trkpt lat="44.53418" lon="6.47319">
        <ele>803.06728</ele>
        <time>2026-07-27T07:54:54.000Z</time>
      </trkpt>
      <trkpt lat="44.53416" lon="6.47313">
        <ele>803.102786</ele>
        <time>2026-07-27T07:54:55.000Z</time>
      </trkpt>
      <trkpt lat="44.53414" lon="6.47308">
        <ele>802.967904</ele>
        <time>2026-07-27T07:54:56.000Z</time>
      </trkpt>
      <trkpt lat="44.53414" lon="6.47308">
        <ele>802.967904</ele>
        <time>2026-07-27T07:54:56.000Z</time>
      </trkpt>
      <trkpt lat="44.53413" lon="6.47303">
        <ele>802.845796</ele>
        <time>2026-07-27T07:54:57.000Z</time>
      </trkpt>
      <trkpt lat="44.53412" lon="6.47293">
        <ele>802.633702</ele>
        <time>2026-07-27T07:54:59.000Z</time>
      </trkpt>
      <trkpt lat="44.53412" lon="6.47291">
        <ele>802.575447</ele>
        <time>2026-07-27T07:55:00.000Z</time>
      </trkpt>
      <trkpt lat="44.53415" lon="6.47284">
        <ele>802.39194</ele>
        <time>2026-07-27T07:55:03.000Z</time>
      </trkpt>
      <trkpt lat="44.53416" lon="6.47283">
        <ele>802.351307</ele>
        <time>2026-07-27T07:55:04.000Z</time>
      </trkpt>
      <trkpt lat="44.53418" lon="6.47283">
        <ele>802.290027</ele>
        <time>2026-07-27T07:55:05.000Z</time>
      </trkpt>
      <trkpt lat="44.53418" lon="6.47283">
        <ele>802.290027</ele>
        <time>2026-07-27T07:55:05.000Z</time>
      </trkpt>
      <trkpt lat="44.5342" lon="6.47282">
        <ele>802.226755</ele>
        <time>2026-07-27T07:55:06.000Z</time>
      </trkpt>
      <trkpt lat="44.53422" lon="6.47281">
        <ele>802.137079</ele>
        <time>2026-07-27T07:55:07.000Z</time>
      </trkpt>
      <trkpt lat="44.53425" lon="6.47278">
        <ele>802.026927</ele>
        <time>2026-07-27T07:55:08.000Z</time>
      </trkpt>
      <trkpt lat="44.53428" lon="6.47274">
        <ele>801.904699</ele>
        <time>2026-07-27T07:55:10.000Z</time>
      </trkpt>
      <trkpt lat="44.53428" lon="6.47269">
        <ele>801.788191</ele>
        <time>2026-07-27T07:55:10.000Z</time>
      </trkpt>
      <trkpt lat="44.53428" lon="6.47269">
        <ele>801.788191</ele>
        <time>2026-07-27T07:55:10.000Z</time>
      </trkpt>
      <trkpt lat="44.53428" lon="6.47264">
        <ele>801.683605</ele>
        <time>2026-07-27T07:55:11.000Z</time>
      </trkpt>
      <trkpt lat="44.53427" lon="6.47256">
        <ele>801.483724</ele>
        <time>2026-07-27T07:55:13.000Z</time>
      </trkpt>
      <trkpt lat="44.53427" lon="6.47256">
        <ele>801.483724</ele>
        <time>2026-07-27T07:55:13.000Z</time>
      </trkpt>
      <trkpt lat="44.53426" lon="6.47252">
        <ele>801.388364</ele>
        <time>2026-07-27T07:55:14.000Z</time>
      </trkpt>
      <trkpt lat="44.53423" lon="6.47244">
        <ele>801.185897</ele>
        <time>2026-07-27T07:55:16.000Z</time>
      </trkpt>
      <trkpt lat="44.53423" lon="6.47244">
        <ele>801.185897</ele>
        <time>2026-07-27T07:55:16.000Z</time>
      </trkpt>
      <trkpt lat="44.53421" lon="6.47234">
        <ele>800.950598</ele>
        <time>2026-07-27T07:55:18.000Z</time>
      </trkpt>
      <trkpt lat="44.53421" lon="6.47234">
        <ele>800.950598</ele>
        <time>2026-07-27T07:55:18.000Z</time>
      </trkpt>
      <trkpt lat="44.53421" lon="6.47228">
        <ele>800.814181</ele>
        <time>2026-07-27T07:55:18.000Z</time>
      </trkpt>
      <trkpt lat="44.53421" lon="6.47228">
        <ele>800.814181</ele>
        <time>2026-07-27T07:55:18.000Z</time>
      </trkpt>
      <trkpt lat="44.53421" lon="6.47215">
        <ele>800.527706</ele>
        <time>2026-07-27T07:55:21.000Z</time>
      </trkpt>
      <trkpt lat="44.53421" lon="6.47215">
        <ele>800.527706</ele>
        <time>2026-07-27T07:55:21.000Z</time>
      </trkpt>
      <trkpt lat="44.53422" lon="6.47209">
        <ele>800.377107</ele>
        <time>2026-07-27T07:55:21.000Z</time>
      </trkpt>
      <trkpt lat="44.53422" lon="6.47209">
        <ele>800.377107</ele>
        <time>2026-07-27T07:55:21.000Z</time>
      </trkpt>
      <trkpt lat="44.53422" lon="6.47192">
        <ele>799.990383</ele>
        <time>2026-07-27T07:55:24.000Z</time>
      </trkpt>
      <trkpt lat="44.53422" lon="6.47192">
        <ele>799.990383</ele>
        <time>2026-07-27T07:55:24.000Z</time>
      </trkpt>
      <trkpt lat="44.53422" lon="6.47182">
        <ele>799.776663</ele>
        <time>2026-07-27T07:55:24.000Z</time>
      </trkpt>
      <trkpt lat="44.53422" lon="6.47182">
        <ele>799.776663</ele>
        <time>2026-07-27T07:55:24.000Z</time>
      </trkpt>
      <trkpt lat="44.53422" lon="6.47173">
        <ele>799.558024</ele>
        <time>2026-07-27T07:55:25.000Z</time>
      </trkpt>
      <trkpt lat="44.53422" lon="6.47173">
        <ele>799.558024</ele>
        <time>2026-07-27T07:55:25.000Z</time>
      </trkpt>
      <trkpt lat="44.53422" lon="6.47163">
        <ele>799.351126</ele>
        <time>2026-07-27T07:55:26.000Z</time>
      </trkpt>
      <trkpt lat="44.53422" lon="6.47163">
        <ele>799.351126</ele>
        <time>2026-07-27T07:55:26.000Z</time>
      </trkpt>
      <trkpt lat="44.53422" lon="6.47155">
        <ele>799.161985</ele>
        <time>2026-07-27T07:55:27.000Z</time>
      </trkpt>
      <trkpt lat="44.53422" lon="6.47155">
        <ele>799.161985</ele>
        <time>2026-07-27T07:55:27.000Z</time>
      </trkpt>
      <trkpt lat="44.53422" lon="6.47149">
        <ele>799.011927</ele>
        <time>2026-07-27T07:55:28.000Z</time>
      </trkpt>
      <trkpt lat="44.53422" lon="6.47149">
        <ele>799.011927</ele>
        <time>2026-07-27T07:55:28.000Z</time>
      </trkpt>
      <trkpt lat="44.53423" lon="6.47143">
        <ele>798.875939</ele>
        <time>2026-07-27T07:55:29.000Z</time>
      </trkpt>
      <trkpt lat="44.53423" lon="6.47143">
        <ele>798.875939</ele>
        <time>2026-07-27T07:55:29.000Z</time>
      </trkpt>
      <trkpt lat="44.53424" lon="6.47138">
        <ele>798.761647</ele>
        <time>2026-07-27T07:55:30.000Z</time>
      </trkpt>
      <trkpt lat="44.53424" lon="6.47138">
        <ele>798.761647</ele>
        <time>2026-07-27T07:55:30.000Z</time>
      </trkpt>
      <trkpt lat="44.53424" lon="6.47134">
        <ele>798.66756</ele>
        <time>2026-07-27T07:55:31.000Z</time>
      </trkpt>
      <trkpt lat="44.53424" lon="6.47134">
        <ele>798.66756</ele>
        <time>2026-07-27T07:55:31.000Z</time>
      </trkpt>
      <trkpt lat="44.53424" lon="6.4713">
        <ele>798.58571</ele>
        <time>2026-07-27T07:55:32.000Z</time>
      </trkpt>
      <trkpt lat="44.53424" lon="6.4713">
        <ele>798.58571</ele>
        <time>2026-07-27T07:55:32.000Z</time>
      </trkpt>
      <trkpt lat="44.53425" lon="6.47127">
        <ele>798.518552</ele>
        <time>2026-07-27T07:55:34.000Z</time>
      </trkpt>
      <trkpt lat="44.53425" lon="6.47127">
        <ele>798.518552</ele>
        <time>2026-07-27T07:55:34.000Z</time>
      </trkpt>
      <trkpt lat="44.53425" lon="6.47123">
        <ele>798.424845</ele>
        <time>2026-07-27T07:55:35.000Z</time>
      </trkpt>
      <trkpt lat="44.53425" lon="6.47123">
        <ele>798.424845</ele>
        <time>2026-07-27T07:55:35.000Z</time>
      </trkpt>
      <trkpt lat="44.53426" lon="6.47119">
        <ele>798.318572</ele>
        <time>2026-07-27T07:55:36.000Z</time>
      </trkpt>
      <trkpt lat="44.53426" lon="6.47119">
        <ele>798.318572</ele>
        <time>2026-07-27T07:55:36.000Z</time>
      </trkpt>
      <trkpt lat="44.53428" lon="6.47116">
        <ele>798.229587</ele>
        <time>2026-07-27T07:55:36.000Z</time>
      </trkpt>
      <trkpt lat="44.53428" lon="6.47116">
        <ele>798.229587</ele>
        <time>2026-07-27T07:55:36.000Z</time>
      </trkpt>
      <trkpt lat="44.53429" lon="6.47113">
        <ele>798.148123</ele>
        <time>2026-07-27T07:55:37.000Z</time>
      </trkpt>
      <trkpt lat="44.53429" lon="6.47113">
        <ele>798.148123</ele>
        <time>2026-07-27T07:55:37.000Z</time>
      </trkpt>
      <trkpt lat="44.53431" lon="6.47112">
        <ele>798.093047</ele>
        <time>2026-07-27T07:55:39.000Z</time>
      </trkpt>
      <trkpt lat="44.53431" lon="6.47112">
        <ele>798.093047</ele>
        <time>2026-07-27T07:55:39.000Z</time>
      </trkpt>
      <trkpt lat="44.53431" lon="6.47112">
        <ele>798.093047</ele>
        <time>2026-07-27T07:55:40.000Z</time>
      </trkpt>
      <trkpt lat="44.53431" lon="6.47112">
        <ele>798.093047</ele>
        <time>2026-07-27T07:55:41.000Z</time>
      </trkpt>
      <trkpt lat="44.53434" lon="6.47112">
        <ele>797.993936</ele>
        <time>2026-07-27T07:55:44.000Z</time>
      </trkpt>
      <trkpt lat="44.53434" lon="6.47112">
        <ele>797.993936</ele>
        <time>2026-07-27T07:55:44.000Z</time>
      </trkpt>
      <trkpt lat="44.53434" lon="6.47112">
        <ele>797.993936</ele>
        <time>2026-07-27T07:55:45.000Z</time>
      </trkpt>
      <trkpt lat="44.53438" lon="6.4711">
        <ele>797.868027</ele>
        <time>2026-07-27T07:55:48.000Z</time>
      </trkpt>
      <trkpt lat="44.53438" lon="6.4711">
        <ele>797.868027</ele>
        <time>2026-07-27T07:55:48.000Z</time>
      </trkpt>
      <trkpt lat="44.53441" lon="6.4711">
        <ele>797.768499</ele>
        <time>2026-07-27T07:55:49.000Z</time>
      </trkpt>
      <trkpt lat="44.5344" lon="6.4711">
        <ele>797.742983</ele>
        <time>2026-07-27T07:55:50.000Z</time>
      </trkpt>
      <trkpt lat="44.5344" lon="6.4711">
        <ele>797.742983</ele>
        <time>2026-07-27T07:55:50.000Z</time>
      </trkpt>
      <trkpt lat="44.53445" lon="6.4711">
        <ele>797.573693</ele>
        <time>2026-07-27T07:55:51.000Z</time>
      </trkpt>
      <trkpt lat="44.5345" lon="6.4711">
        <ele>797.426903</ele>
        <time>2026-07-27T07:55:52.000Z</time>
      </trkpt>
      <trkpt lat="44.5345" lon="6.4711">
        <ele>797.426903</ele>
        <time>2026-07-27T07:55:52.000Z</time>
      </trkpt>
      <trkpt lat="44.53455" lon="6.47111">
        <ele>797.270284</ele>
        <time>2026-07-27T07:55:53.000Z</time>
      </trkpt>
      <trkpt lat="44.53455" lon="6.47111">
        <ele>797.270284</ele>
        <time>2026-07-27T07:55:53.000Z</time>
      </trkpt>
      <trkpt lat="44.5346" lon="6.47112">
        <ele>797.072527</ele>
        <time>2026-07-27T07:55:54.000Z</time>
      </trkpt>
      <trkpt lat="44.53471" lon="6.47112">
        <ele>796.687996</ele>
        <time>2026-07-27T07:55:55.000Z</time>
      </trkpt>
      <trkpt lat="44.53471" lon="6.47112">
        <ele>796.687996</ele>
        <time>2026-07-27T07:55:55.000Z</time>
      </trkpt>
      <trkpt lat="44.53478" lon="6.47113">
        <ele>796.476897</ele>
        <time>2026-07-27T07:55:56.000Z</time>
      </trkpt>
      <trkpt lat="44.53478" lon="6.47113">
        <ele>796.476897</ele>
        <time>2026-07-27T07:55:56.000Z</time>
      </trkpt>
      <trkpt lat="44.53484" lon="6.47112">
        <ele>796.241626</ele>
        <time>2026-07-27T07:55:57.000Z</time>
      </trkpt>
      <trkpt lat="44.53484" lon="6.47112">
        <ele>796.241626</ele>
        <time>2026-07-27T07:55:57.000Z</time>
      </trkpt>
      <trkpt lat="44.53491" lon="6.47112">
        <ele>796.016733</ele>
        <time>2026-07-27T07:55:58.000Z</time>
      </trkpt>
      <trkpt lat="44.53497" lon="6.47112">
        <ele>795.791515</ele>
        <time>2026-07-27T07:55:59.000Z</time>
      </trkpt>
      <trkpt lat="44.53497" lon="6.47112">
        <ele>795.791515</ele>
        <time>2026-07-27T07:55:59.000Z</time>
      </trkpt>
      <trkpt lat="44.53504" lon="6.47111">
        <ele>795.565974</ele>
        <time>2026-07-27T07:56:00.000Z</time>
      </trkpt>
      <trkpt lat="44.53504" lon="6.47111">
        <ele>795.565974</ele>
        <time>2026-07-27T07:56:00.000Z</time>
      </trkpt>
      <trkpt lat="44.5351" lon="6.47111">
        <ele>795.354415</ele>
        <time>2026-07-27T07:56:01.000Z</time>
      </trkpt>
      <trkpt lat="44.5351" lon="6.47111">
        <ele>795.354415</ele>
        <time>2026-07-27T07:56:01.000Z</time>
      </trkpt>
      <trkpt lat="44.53517" lon="6.4711">
        <ele>795.114667</ele>
        <time>2026-07-27T07:56:02.000Z</time>
      </trkpt>
      <trkpt lat="44.53517" lon="6.4711">
        <ele>795.114667</ele>
        <time>2026-07-27T07:56:02.000Z</time>
      </trkpt>
      <trkpt lat="44.53523" lon="6.47109">
        <ele>794.888439</ele>
        <time>2026-07-27T07:56:03.000Z</time>
      </trkpt>
      <trkpt lat="44.53523" lon="6.47109">
        <ele>794.888439</ele>
        <time>2026-07-27T07:56:03.000Z</time>
      </trkpt>
      <trkpt lat="44.53529" lon="6.47108">
        <ele>794.704017</ele>
        <time>2026-07-27T07:56:04.000Z</time>
      </trkpt>
      <trkpt lat="44.53529" lon="6.47108">
        <ele>794.704017</ele>
        <time>2026-07-27T07:56:04.000Z</time>
      </trkpt>
      <trkpt lat="44.53534" lon="6.47107">
        <ele>794.519316</ele>
        <time>2026-07-27T07:56:05.000Z</time>
      </trkpt>
      <trkpt lat="44.53534" lon="6.47107">
        <ele>794.519316</ele>
        <time>2026-07-27T07:56:05.000Z</time>
      </trkpt>
      <trkpt lat="44.53537" lon="6.47105">
        <ele>794.391174</ele>
        <time>2026-07-27T07:56:06.000Z</time>
      </trkpt>
      <trkpt lat="44.53537" lon="6.47105">
        <ele>794.391174</ele>
        <time>2026-07-27T07:56:06.000Z</time>
      </trkpt>
      <trkpt lat="44.53539" lon="6.47103">
        <ele>794.301052</ele>
        <time>2026-07-27T07:56:07.000Z</time>
      </trkpt>
      <trkpt lat="44.53539" lon="6.47103">
        <ele>794.301052</ele>
        <time>2026-07-27T07:56:07.000Z</time>
      </trkpt>
      <trkpt lat="44.5354" lon="6.471">
        <ele>794.217854</ele>
        <time>2026-07-27T07:56:08.000Z</time>
      </trkpt>
      <trkpt lat="44.5354" lon="6.471">
        <ele>794.217854</ele>
        <time>2026-07-27T07:56:08.000Z</time>
      </trkpt>
      <trkpt lat="44.5354" lon="6.47097">
        <ele>794.152258</ele>
        <time>2026-07-27T07:56:09.000Z</time>
      </trkpt>
      <trkpt lat="44.5354" lon="6.47097">
        <ele>794.152258</ele>
        <time>2026-07-27T07:56:09.000Z</time>
      </trkpt>
      <trkpt lat="44.53538" lon="6.47094">
        <ele>794.045715</ele>
        <time>2026-07-27T07:56:10.000Z</time>
      </trkpt>
      <trkpt lat="44.53538" lon="6.47094">
        <ele>794.045715</ele>
        <time>2026-07-27T07:56:10.000Z</time>
      </trkpt>
      <trkpt lat="44.53536" lon="6.4709">
        <ele>793.931895</ele>
        <time>2026-07-27T07:56:11.000Z</time>
      </trkpt>
      <trkpt lat="44.53536" lon="6.4709">
        <ele>793.931895</ele>
        <time>2026-07-27T07:56:11.000Z</time>
      </trkpt>
      <trkpt lat="44.53533" lon="6.47087">
        <ele>793.798467</ele>
        <time>2026-07-27T07:56:12.000Z</time>
      </trkpt>
      <trkpt lat="44.53533" lon="6.47087">
        <ele>793.798467</ele>
        <time>2026-07-27T07:56:12.000Z</time>
      </trkpt>
      <trkpt lat="44.5353" lon="6.47084">
        <ele>793.662331</ele>
        <time>2026-07-27T07:56:13.000Z</time>
      </trkpt>
      <trkpt lat="44.53526" lon="6.4708">
        <ele>793.513459</ele>
        <time>2026-07-27T07:56:14.000Z</time>
      </trkpt>
      <trkpt lat="44.53526" lon="6.4708">
        <ele>793.513459</ele>
        <time>2026-07-27T07:56:14.000Z</time>
      </trkpt>
      <trkpt lat="44.53523" lon="6.47076">
        <ele>793.355087</ele>
        <time>2026-07-27T07:56:15.000Z</time>
      </trkpt>
      <trkpt lat="44.5352" lon="6.47072">
        <ele>793.226216</ele>
        <time>2026-07-27T07:56:16.000Z</time>
      </trkpt>
      <trkpt lat="44.53517" lon="6.47068">
        <ele>793.071102</ele>
        <time>2026-07-27T07:56:17.000Z</time>
      </trkpt>
      <trkpt lat="44.53517" lon="6.47068">
        <ele>793.071102</ele>
        <time>2026-07-27T07:56:17.000Z</time>
      </trkpt>
      <trkpt lat="44.53514" lon="6.47063">
        <ele>792.91677</ele>
        <time>2026-07-27T07:56:18.000Z</time>
      </trkpt>
      <trkpt lat="44.5351" lon="6.47058">
        <ele>792.733116</ele>
        <time>2026-07-27T07:56:19.000Z</time>
      </trkpt>
      <trkpt lat="44.53507" lon="6.47054">
        <ele>792.567975</ele>
        <time>2026-07-27T07:56:20.000Z</time>
      </trkpt>
      <trkpt lat="44.53503" lon="6.47048">
        <ele>792.38432</ele>
        <time>2026-07-27T07:56:21.000Z</time>
      </trkpt>
      <trkpt lat="44.53503" lon="6.47048">
        <ele>792.38432</ele>
        <time>2026-07-27T07:56:21.000Z</time>
      </trkpt>
      <trkpt lat="44.53499" lon="6.47044">
        <ele>792.204433</ele>
        <time>2026-07-27T07:56:22.000Z</time>
      </trkpt>
      <trkpt lat="44.53494" lon="6.47039">
        <ele>792.007552</ele>
        <time>2026-07-27T07:56:23.000Z</time>
      </trkpt>
      <trkpt lat="44.5349" lon="6.47035">
        <ele>791.831924</ele>
        <time>2026-07-27T07:56:24.000Z</time>
      </trkpt>
      <trkpt lat="44.5349" lon="6.47035">
        <ele>791.831924</ele>
        <time>2026-07-27T07:56:24.000Z</time>
      </trkpt>
      <trkpt lat="44.53485" lon="6.47031">
        <ele>791.643374</ele>
        <time>2026-07-27T07:56:25.000Z</time>
      </trkpt>
      <trkpt lat="44.53481" lon="6.47028">
        <ele>791.481421</ele>
        <time>2026-07-27T07:56:26.000Z</time>
      </trkpt>
      <trkpt lat="44.53478" lon="6.47027">
        <ele>791.374144</ele>
        <time>2026-07-27T07:56:27.000Z</time>
      </trkpt>
      <trkpt lat="44.53478" lon="6.47027">
        <ele>791.374144</ele>
        <time>2026-07-27T07:56:27.000Z</time>
      </trkpt>
      <trkpt lat="44.53475" lon="6.47025">
        <ele>791.26851</ele>
        <time>2026-07-27T07:56:28.000Z</time>
      </trkpt>
      <trkpt lat="44.53472" lon="6.47024">
        <ele>791.17862</ele>
        <time>2026-07-27T07:56:29.000Z</time>
      </trkpt>
      <trkpt lat="44.53468" lon="6.47022">
        <ele>791.298558</ele>
        <time>2026-07-27T07:56:30.000Z</time>
      </trkpt>
      <trkpt lat="44.53463" lon="6.47019">
        <ele>791.424056</ele>
        <time>2026-07-27T07:56:31.000Z</time>
      </trkpt>
      <trkpt lat="44.53457" lon="6.47014">
        <ele>791.602779</ele>
        <time>2026-07-27T07:56:32.000Z</time>
      </trkpt>
      <trkpt lat="44.53453" lon="6.4701">
        <ele>791.715275</ele>
        <time>2026-07-27T07:56:33.000Z</time>
      </trkpt>
      <trkpt lat="44.53451" lon="6.47006">
        <ele>791.815073</ele>
        <time>2026-07-27T07:56:34.000Z</time>
      </trkpt>
      <trkpt lat="44.53447" lon="6.47002">
        <ele>791.928693</ele>
        <time>2026-07-27T07:56:35.000Z</time>
      </trkpt>
      <trkpt lat="44.53444" lon="6.46999">
        <ele>792.02792</ele>
        <time>2026-07-27T07:56:36.000Z</time>
      </trkpt>
      <trkpt lat="44.5344" lon="6.46997">
        <ele>792.127774</ele>
        <time>2026-07-27T07:56:37.000Z</time>
      </trkpt>
      <trkpt lat="44.53436" lon="6.46996">
        <ele>792.23445</ele>
        <time>2026-07-27T07:56:38.000Z</time>
      </trkpt>
      <trkpt lat="44.53431" lon="6.46996">
        <ele>792.351344</ele>
        <time>2026-07-27T07:56:39.000Z</time>
      </trkpt>
      <trkpt lat="44.53427" lon="6.46995">
        <ele>792.457066</ele>
        <time>2026-07-27T07:56:40.000Z</time>
      </trkpt>
      <trkpt lat="44.53427" lon="6.46995">
        <ele>792.457066</ele>
        <time>2026-07-27T07:56:40.000Z</time>
      </trkpt>
      <trkpt lat="44.53423" lon="6.46996">
        <ele>792.552722</ele>
        <time>2026-07-27T07:56:41.000Z</time>
      </trkpt>
      <trkpt lat="44.5342" lon="6.46995">
        <ele>792.638369</ele>
        <time>2026-07-27T07:56:42.000Z</time>
      </trkpt>
      <trkpt lat="44.53417" lon="6.46995">
        <ele>792.71713</ele>
        <time>2026-07-27T07:56:43.000Z</time>
      </trkpt>
      <trkpt lat="44.53417" lon="6.46995">
        <ele>792.71713</ele>
        <time>2026-07-27T07:56:43.000Z</time>
      </trkpt>
      <trkpt lat="44.53415" lon="6.46994">
        <ele>792.777733</ele>
        <time>2026-07-27T07:56:44.000Z</time>
      </trkpt>
      <trkpt lat="44.53413" lon="6.46993">
        <ele>792.826088</ele>
        <time>2026-07-27T07:56:45.000Z</time>
      </trkpt>
      <trkpt lat="44.53413" lon="6.46993">
        <ele>792.826088</ele>
        <time>2026-07-27T07:56:45.000Z</time>
      </trkpt>
      <trkpt lat="44.53413" lon="6.46993">
        <ele>792.826088</ele>
        <time>2026-07-27T07:56:46.000Z</time>
      </trkpt>
      <trkpt lat="44.53408" lon="6.46993">
        <ele>792.931794</ele>
        <time>2026-07-27T07:56:47.000Z</time>
      </trkpt>
      <trkpt lat="44.53407" lon="6.46995">
        <ele>792.975254</ele>
        <time>2026-07-27T07:56:48.000Z</time>
      </trkpt>
      <trkpt lat="44.53407" lon="6.46995">
        <ele>792.975254</ele>
        <time>2026-07-27T07:56:48.000Z</time>
      </trkpt>
      <trkpt lat="44.53406" lon="6.46996">
        <ele>793.008244</ele>
        <time>2026-07-27T07:56:49.000Z</time>
      </trkpt>
      <trkpt lat="44.53406" lon="6.46996">
        <ele>793.008244</ele>
        <time>2026-07-27T07:56:49.000Z</time>
      </trkpt>
      <trkpt lat="44.53404" lon="6.46997">
        <ele>793.062258</ele>
        <time>2026-07-27T07:56:50.000Z</time>
      </trkpt>
      <trkpt lat="44.53402" lon="6.46999">
        <ele>793.128544</ele>
        <time>2026-07-27T07:56:51.000Z</time>
      </trkpt>
      <trkpt lat="44.53402" lon="6.46999">
        <ele>793.128544</ele>
        <time>2026-07-27T07:56:51.000Z</time>
      </trkpt>
      <trkpt lat="44.534" lon="6.47">
        <ele>793.181748</ele>
        <time>2026-07-27T07:56:52.000Z</time>
      </trkpt>
      <trkpt lat="44.534" lon="6.47">
        <ele>793.181748</ele>
        <time>2026-07-27T07:56:52.000Z</time>
      </trkpt>
      <trkpt lat="44.53399" lon="6.47">
        <ele>793.212791</ele>
        <time>2026-07-27T07:56:53.000Z</time>
      </trkpt>
      <trkpt lat="44.53399" lon="6.47">
        <ele>793.212791</ele>
        <time>2026-07-27T07:56:53.000Z</time>
      </trkpt>
      <trkpt lat="44.53399" lon="6.47">
        <ele>793.212791</ele>
        <time>2026-07-27T07:56:54.000Z</time>
      </trkpt>
      <trkpt lat="44.53394" lon="6.47001">
        <ele>793.31924</ele>
        <time>2026-07-27T07:56:55.000Z</time>
      </trkpt>
      <trkpt lat="44.53394" lon="6.47001">
        <ele>793.31924</ele>
        <time>2026-07-27T07:56:55.000Z</time>
      </trkpt>
      <trkpt lat="44.53394" lon="6.47002">
        <ele>793.338264</ele>
        <time>2026-07-27T07:56:56.000Z</time>
      </trkpt>
      <trkpt lat="44.53394" lon="6.47002">
        <ele>793.338264</ele>
        <time>2026-07-27T07:56:56.000Z</time>
      </trkpt>
      <trkpt lat="44.53392" lon="6.47002">
        <ele>793.381649</ele>
        <time>2026-07-27T07:56:57.000Z</time>
      </trkpt>
      <trkpt lat="44.53392" lon="6.47002">
        <ele>793.381649</ele>
        <time>2026-07-27T07:56:57.000Z</time>
      </trkpt>
      <trkpt lat="44.53391" lon="6.47003">
        <ele>793.419783</ele>
        <time>2026-07-27T07:56:58.000Z</time>
      </trkpt>
      <trkpt lat="44.53389" lon="6.47004">
        <ele>793.450968</ele>
        <time>2026-07-27T07:56:59.000Z</time>
      </trkpt>
      <trkpt lat="44.53389" lon="6.47004">
        <ele>793.450968</ele>
        <time>2026-07-27T07:56:59.000Z</time>
      </trkpt>
      <trkpt lat="44.53387" lon="6.47004">
        <ele>793.509298</ele>
        <time>2026-07-27T07:57:00.000Z</time>
      </trkpt>
      <trkpt lat="44.53387" lon="6.47004">
        <ele>793.509298</ele>
        <time>2026-07-27T07:57:00.000Z</time>
      </trkpt>
      <trkpt lat="44.53385" lon="6.47004">
        <ele>793.567296</ele>
        <time>2026-07-27T07:57:01.000Z</time>
      </trkpt>
      <trkpt lat="44.53385" lon="6.47004">
        <ele>793.567296</ele>
        <time>2026-07-27T07:57:01.000Z</time>
      </trkpt>
      <trkpt lat="44.53383" lon="6.47003">
        <ele>793.627392</ele>
        <time>2026-07-27T07:57:02.000Z</time>
      </trkpt>
      <trkpt lat="44.53381" lon="6.47003">
        <ele>793.667179</ele>
        <time>2026-07-27T07:57:03.000Z</time>
      </trkpt>
      <trkpt lat="44.53381" lon="6.47003">
        <ele>793.667179</ele>
        <time>2026-07-27T07:57:03.000Z</time>
      </trkpt>
      <trkpt lat="44.53379" lon="6.47001">
        <ele>793.714639</ele>
        <time>2026-07-27T07:57:04.000Z</time>
      </trkpt>
      <trkpt lat="44.53379" lon="6.47001">
        <ele>793.714639</ele>
        <time>2026-07-27T07:57:05.000Z</time>
      </trkpt>
      <trkpt lat="44.53376" lon="6.46996">
        <ele>793.838887</ele>
        <time>2026-07-27T07:57:07.000Z</time>
      </trkpt>
      <trkpt lat="44.53376" lon="6.46994">
        <ele>793.865947</ele>
        <time>2026-07-27T07:57:08.000Z</time>
      </trkpt>
      <trkpt lat="44.53376" lon="6.46994">
        <ele>793.865947</ele>
        <time>2026-07-27T07:57:08.000Z</time>
      </trkpt>
      <trkpt lat="44.53375" lon="6.4699">
        <ele>793.952639</ele>
        <time>2026-07-27T07:57:10.000Z</time>
      </trkpt>
      <trkpt lat="44.53375" lon="6.46987">
        <ele>793.996354</ele>
        <time>2026-07-27T07:57:11.000Z</time>
      </trkpt>
      <trkpt lat="44.53375" lon="6.46984">
        <ele>794.050177</ele>
        <time>2026-07-27T07:57:12.000Z</time>
      </trkpt>
      <trkpt lat="44.53375" lon="6.46984">
        <ele>794.050177</ele>
        <time>2026-07-27T07:57:12.000Z</time>
      </trkpt>
      <trkpt lat="44.53374" lon="6.46981">
        <ele>794.11664</ele>
        <time>2026-07-27T07:57:13.000Z</time>
      </trkpt>
      <trkpt lat="44.53373" lon="6.46977">
        <ele>794.185265</ele>
        <time>2026-07-27T07:57:14.000Z</time>
      </trkpt>
      <trkpt lat="44.53372" lon="6.46975">
        <ele>794.231233</ele>
        <time>2026-07-27T07:57:15.000Z</time>
      </trkpt>
      <trkpt lat="44.53371" lon="6.46971">
        <ele>794.295469</ele>
        <time>2026-07-27T07:57:16.000Z</time>
      </trkpt>
      <trkpt lat="44.5337" lon="6.46968">
        <ele>794.359206</ele>
        <time>2026-07-27T07:57:17.000Z</time>
      </trkpt>
      <trkpt lat="44.5337" lon="6.46965">
        <ele>794.414995</ele>
        <time>2026-07-27T07:57:18.000Z</time>
      </trkpt>
      <trkpt lat="44.53369" lon="6.46963">
        <ele>794.464857</ele>
        <time>2026-07-27T07:57:19.000Z</time>
      </trkpt>
      <trkpt lat="44.53368" lon="6.46959">
        <ele>794.532923</ele>
        <time>2026-07-27T07:57:20.000Z</time>
      </trkpt>
      <trkpt lat="44.53366" lon="6.46955">
        <ele>794.612428</ele>
        <time>2026-07-27T07:57:21.000Z</time>
      </trkpt>
      <trkpt lat="44.53365" lon="6.46952">
        <ele>794.678891</ele>
        <time>2026-07-27T07:57:22.000Z</time>
      </trkpt>
      <trkpt lat="44.53364" lon="6.46948">
        <ele>794.76424</ele>
        <time>2026-07-27T07:57:23.000Z</time>
      </trkpt>
      <trkpt lat="44.53362" lon="6.46944">
        <ele>794.84217</ele>
        <time>2026-07-27T07:57:24.000Z</time>
      </trkpt>
      <trkpt lat="44.53362" lon="6.4694">
        <ele>794.913256</ele>
        <time>2026-07-27T07:57:25.000Z</time>
      </trkpt>
      <trkpt lat="44.5336" lon="6.46937">
        <ele>794.970615</ele>
        <time>2026-07-27T07:57:26.000Z</time>
      </trkpt>
      <trkpt lat="44.53359" lon="6.46936">
        <ele>795.013537</ele>
        <time>2026-07-27T07:57:27.000Z</time>
      </trkpt>
      <trkpt lat="44.53358" lon="6.46934">
        <ele>795.049737</ele>
        <time>2026-07-27T07:57:28.000Z</time>
      </trkpt>
      <trkpt lat="44.53356" lon="6.46933">
        <ele>795.101469</ele>
        <time>2026-07-27T07:57:29.000Z</time>
      </trkpt>
      <trkpt lat="44.53354" lon="6.46931">
        <ele>795.159172</ele>
        <time>2026-07-27T07:57:30.000Z</time>
      </trkpt>
      <trkpt lat="44.53352" lon="6.46929">
        <ele>795.22635</ele>
        <time>2026-07-27T07:57:31.000Z</time>
      </trkpt>
      <trkpt lat="44.5335" lon="6.46928">
        <ele>795.284052</ele>
        <time>2026-07-27T07:57:32.000Z</time>
      </trkpt>
      <trkpt lat="44.53348" lon="6.46926">
        <ele>795.343837</ele>
        <time>2026-07-27T07:57:33.000Z</time>
      </trkpt>
      <trkpt lat="44.53347" lon="6.46924">
        <ele>795.394353</ele>
        <time>2026-07-27T07:57:34.000Z</time>
      </trkpt>
      <trkpt lat="44.53345" lon="6.46922">
        <ele>795.454137</ele>
        <time>2026-07-27T07:57:35.000Z</time>
      </trkpt>
      <trkpt lat="44.53342" lon="6.4692">
        <ele>795.517974</ele>
        <time>2026-07-27T07:57:36.000Z</time>
      </trkpt>
      <trkpt lat="44.5334" lon="6.4692">
        <ele>795.576853</ele>
        <time>2026-07-27T07:57:37.000Z</time>
      </trkpt>
      <trkpt lat="44.53338" lon="6.4692">
        <ele>795.642389</ele>
        <time>2026-07-27T07:57:38.000Z</time>
      </trkpt>
      <trkpt lat="44.53335" lon="6.46921">
        <ele>795.761885</ele>
        <time>2026-07-27T07:57:39.000Z</time>
      </trkpt>
      <trkpt lat="44.53335" lon="6.46921">
        <ele>795.761885</ele>
        <time>2026-07-27T07:57:39.000Z</time>
      </trkpt>
      <trkpt lat="44.53332" lon="6.46922">
        <ele>796.074169</ele>
        <time>2026-07-27T07:57:40.000Z</time>
      </trkpt>
      <trkpt lat="44.5333" lon="6.46923">
        <ele>796.334414</ele>
        <time>2026-07-27T07:57:41.000Z</time>
      </trkpt>
      <trkpt lat="44.53328" lon="6.46925">
        <ele>796.523184</ele>
        <time>2026-07-27T07:57:42.000Z</time>
      </trkpt>
      <trkpt lat="44.53326" lon="6.46926">
        <ele>796.756985</ele>
        <time>2026-07-27T07:57:43.000Z</time>
      </trkpt>
      <trkpt lat="44.53326" lon="6.46926">
        <ele>796.756985</ele>
        <time>2026-07-27T07:57:43.000Z</time>
      </trkpt>
      <trkpt lat="44.53324" lon="6.46927">
        <ele>796.927022</ele>
        <time>2026-07-27T07:57:44.000Z</time>
      </trkpt>
      <trkpt lat="44.53323" lon="6.46926">
        <ele>797.079868</ele>
        <time>2026-07-27T07:57:45.000Z</time>
      </trkpt>
      <trkpt lat="44.53323" lon="6.46926">
        <ele>797.079868</ele>
        <time>2026-07-27T07:57:45.000Z</time>
      </trkpt>
      <trkpt lat="44.53322" lon="6.46925">
        <ele>797.21936</ele>
        <time>2026-07-27T07:57:47.000Z</time>
      </trkpt>
      <trkpt lat="44.5332" lon="6.46923">
        <ele>797.448688</ele>
        <time>2026-07-27T07:57:47.000Z</time>
      </trkpt>
      <trkpt lat="44.5332" lon="6.46923">
        <ele>797.448688</ele>
        <time>2026-07-27T07:57:47.000Z</time>
      </trkpt>
      <trkpt lat="44.53319" lon="6.4692">
        <ele>797.664438</ele>
        <time>2026-07-27T07:57:48.000Z</time>
      </trkpt>
      <trkpt lat="44.53318" lon="6.46917">
        <ele>797.928793</ele>
        <time>2026-07-27T07:57:49.000Z</time>
      </trkpt>
      <trkpt lat="44.53318" lon="6.46917">
        <ele>797.928793</ele>
        <time>2026-07-27T07:57:49.000Z</time>
      </trkpt>
      <trkpt lat="44.53317" lon="6.46914">
        <ele>798.163207</ele>
        <time>2026-07-27T07:57:50.000Z</time>
      </trkpt>
      <trkpt lat="44.53315" lon="6.46911">
        <ele>798.407479</ele>
        <time>2026-07-27T07:57:51.000Z</time>
      </trkpt>
      <trkpt lat="44.53315" lon="6.46911">
        <ele>798.407479</ele>
        <time>2026-07-27T07:57:51.000Z</time>
      </trkpt>
      <trkpt lat="44.53313" lon="6.46909">
        <ele>798.663557</ele>
        <time>2026-07-27T07:57:52.000Z</time>
      </trkpt>
      <trkpt lat="44.53313" lon="6.46909">
        <ele>798.663557</ele>
        <time>2026-07-27T07:57:52.000Z</time>
      </trkpt>
      <trkpt lat="44.53312" lon="6.46906">
        <ele>798.855316</ele>
        <time>2026-07-27T07:57:54.000Z</time>
      </trkpt>
      <trkpt lat="44.53311" lon="6.46903">
        <ele>799.134602</ele>
        <time>2026-07-27T07:57:54.000Z</time>
      </trkpt>
      <trkpt lat="44.53311" lon="6.46903">
        <ele>799.134602</ele>
        <time>2026-07-27T07:57:54.000Z</time>
      </trkpt>
      <trkpt lat="44.53309" lon="6.469">
        <ele>799.426022</ele>
        <time>2026-07-27T07:57:56.000Z</time>
      </trkpt>
      <trkpt lat="44.53309" lon="6.469">
        <ele>799.426022</ele>
        <time>2026-07-27T07:57:56.000Z</time>
      </trkpt>
      <trkpt lat="44.53309" lon="6.46896">
        <ele>799.661286</ele>
        <time>2026-07-27T07:57:56.000Z</time>
      </trkpt>
      <trkpt lat="44.53307" lon="6.46893">
        <ele>799.932017</ele>
        <time>2026-07-27T07:57:57.000Z</time>
      </trkpt>
      <trkpt lat="44.53307" lon="6.46893">
        <ele>799.932017</ele>
        <time>2026-07-27T07:57:57.000Z</time>
      </trkpt>
      <trkpt lat="44.53306" lon="6.46889">
        <ele>800.248243</ele>
        <time>2026-07-27T07:57:59.000Z</time>
      </trkpt>
      <trkpt lat="44.53306" lon="6.46889">
        <ele>800.248243</ele>
        <time>2026-07-27T07:57:59.000Z</time>
      </trkpt>
      <trkpt lat="44.53305" lon="6.46886">
        <ele>800.521197</ele>
        <time>2026-07-27T07:57:59.000Z</time>
      </trkpt>
      <trkpt lat="44.53304" lon="6.46883">
        <ele>800.746006</ele>
        <time>2026-07-27T07:58:01.000Z</time>
      </trkpt>
      <trkpt lat="44.53304" lon="6.46883">
        <ele>800.746006</ele>
        <time>2026-07-27T07:58:01.000Z</time>
      </trkpt>
      <trkpt lat="44.53304" lon="6.4688">
        <ele>800.948086</ele>
        <time>2026-07-27T07:58:01.000Z</time>
      </trkpt>
      <trkpt lat="44.53304" lon="6.4688">
        <ele>800.948086</ele>
        <time>2026-07-27T07:58:01.000Z</time>
      </trkpt>
      <trkpt lat="44.53303" lon="6.46876">
        <ele>801.208081</ele>
        <time>2026-07-27T07:58:02.000Z</time>
      </trkpt>
      <trkpt lat="44.53303" lon="6.46876">
        <ele>801.208081</ele>
        <time>2026-07-27T07:58:02.000Z</time>
      </trkpt>
      <trkpt lat="44.53302" lon="6.46873">
        <ele>801.467483</ele>
        <time>2026-07-27T07:58:03.000Z</time>
      </trkpt>
      <trkpt lat="44.53302" lon="6.4687">
        <ele>801.716214</ele>
        <time>2026-07-27T07:58:04.000Z</time>
      </trkpt>
      <trkpt lat="44.53302" lon="6.4687">
        <ele>801.716214</ele>
        <time>2026-07-27T07:58:04.000Z</time>
      </trkpt>
      <trkpt lat="44.53301" lon="6.46867">
        <ele>801.926994</ele>
        <time>2026-07-27T07:58:05.000Z</time>
      </trkpt>
      <trkpt lat="44.53301" lon="6.46867">
        <ele>801.926994</ele>
        <time>2026-07-27T07:58:05.000Z</time>
      </trkpt>
      <trkpt lat="44.53301" lon="6.46866">
        <ele>801.97363</ele>
        <time>2026-07-27T07:58:06.000Z</time>
      </trkpt>
      <trkpt lat="44.53301" lon="6.46866">
        <ele>801.97363</ele>
        <time>2026-07-27T07:58:06.000Z</time>
      </trkpt>
      <trkpt lat="44.533" lon="6.46864">
        <ele>802.165689</ele>
        <time>2026-07-27T07:58:07.000Z</time>
      </trkpt>
      <trkpt lat="44.533" lon="6.46864">
        <ele>802.165689</ele>
        <time>2026-07-27T07:58:07.000Z</time>
      </trkpt>
      <trkpt lat="44.53299" lon="6.46862">
        <ele>802.357448</ele>
        <time>2026-07-27T07:58:08.000Z</time>
      </trkpt>
      <trkpt lat="44.53299" lon="6.46862">
        <ele>802.357448</ele>
        <time>2026-07-27T07:58:08.000Z</time>
      </trkpt>
      <trkpt lat="44.53297" lon="6.46859">
        <ele>802.615467</ele>
        <time>2026-07-27T07:58:09.000Z</time>
      </trkpt>
      <trkpt lat="44.53297" lon="6.46859">
        <ele>802.615467</ele>
        <time>2026-07-27T07:58:09.000Z</time>
      </trkpt>
      <trkpt lat="44.53297" lon="6.46857">
        <ele>802.780896</ele>
        <time>2026-07-27T07:58:10.000Z</time>
      </trkpt>
      <trkpt lat="44.53297" lon="6.46857">
        <ele>802.780896</ele>
        <time>2026-07-27T07:58:10.000Z</time>
      </trkpt>
      <trkpt lat="44.53295" lon="6.46851">
        <ele>803.185057</ele>
        <time>2026-07-27T07:58:11.000Z</time>
      </trkpt>
      <trkpt lat="44.53295" lon="6.46851">
        <ele>803.185057</ele>
        <time>2026-07-27T07:58:11.000Z</time>
      </trkpt>
      <trkpt lat="44.53294" lon="6.46848">
        <ele>803.437595</ele>
        <time>2026-07-27T07:58:12.000Z</time>
      </trkpt>
      <trkpt lat="44.53294" lon="6.46848">
        <ele>803.437595</ele>
        <time>2026-07-27T07:58:12.000Z</time>
      </trkpt>
      <trkpt lat="44.53294" lon="6.46844">
        <ele>803.72719</ele>
        <time>2026-07-27T07:58:13.000Z</time>
      </trkpt>
      <trkpt lat="44.53294" lon="6.46844">
        <ele>803.72719</ele>
        <time>2026-07-27T07:58:13.000Z</time>
      </trkpt>
      <trkpt lat="44.53293" lon="6.46842">
        <ele>803.89911</ele>
        <time>2026-07-27T07:58:14.000Z</time>
      </trkpt>
      <trkpt lat="44.53293" lon="6.46842">
        <ele>803.89911</ele>
        <time>2026-07-27T07:58:14.000Z</time>
      </trkpt>
      <trkpt lat="44.53293" lon="6.4684">
        <ele>804.061127</ele>
        <time>2026-07-27T07:58:15.000Z</time>
      </trkpt>
      <trkpt lat="44.53293" lon="6.4684">
        <ele>804.061127</ele>
        <time>2026-07-27T07:58:15.000Z</time>
      </trkpt>
      <trkpt lat="44.53291" lon="6.46837">
        <ele>804.306606</ele>
        <time>2026-07-27T07:58:16.000Z</time>
      </trkpt>
      <trkpt lat="44.53291" lon="6.46837">
        <ele>804.306606</ele>
        <time>2026-07-27T07:58:16.000Z</time>
      </trkpt>
      <trkpt lat="44.53291" lon="6.46833">
        <ele>804.552297</ele>
        <time>2026-07-27T07:58:17.000Z</time>
      </trkpt>
      <trkpt lat="44.53291" lon="6.46833">
        <ele>804.552297</ele>
        <time>2026-07-27T07:58:17.000Z</time>
      </trkpt>
      <trkpt lat="44.5329" lon="6.4683">
        <ele>804.780864</ele>
        <time>2026-07-27T07:58:18.000Z</time>
      </trkpt>
      <trkpt lat="44.5329" lon="6.4683">
        <ele>804.780864</ele>
        <time>2026-07-27T07:58:18.000Z</time>
      </trkpt>
      <trkpt lat="44.53289" lon="6.46827">
        <ele>805.02285</ele>
        <time>2026-07-27T07:58:19.000Z</time>
      </trkpt>
      <trkpt lat="44.53289" lon="6.46827">
        <ele>805.02285</ele>
        <time>2026-07-27T07:58:19.000Z</time>
      </trkpt>
      <trkpt lat="44.53289" lon="6.46824">
        <ele>805.281494</ele>
        <time>2026-07-27T07:58:20.000Z</time>
      </trkpt>
      <trkpt lat="44.53289" lon="6.46824">
        <ele>805.281494</ele>
        <time>2026-07-27T07:58:20.000Z</time>
      </trkpt>
      <trkpt lat="44.53288" lon="6.4682">
        <ele>805.557402</ele>
        <time>2026-07-27T07:58:21.000Z</time>
      </trkpt>
      <trkpt lat="44.53288" lon="6.4682">
        <ele>805.557402</ele>
        <time>2026-07-27T07:58:21.000Z</time>
      </trkpt>
      <trkpt lat="44.53287" lon="6.46816">
        <ele>805.83331</ele>
        <time>2026-07-27T07:58:22.000Z</time>
      </trkpt>
      <trkpt lat="44.53287" lon="6.46816">
        <ele>805.83331</ele>
        <time>2026-07-27T07:58:22.000Z</time>
      </trkpt>
      <trkpt lat="44.53286" lon="6.46812">
        <ele>806.127224</ele>
        <time>2026-07-27T07:58:23.000Z</time>
      </trkpt>
      <trkpt lat="44.53286" lon="6.46812">
        <ele>806.127224</ele>
        <time>2026-07-27T07:58:23.000Z</time>
      </trkpt>
      <trkpt lat="44.53286" lon="6.46808">
        <ele>806.403132</ele>
        <time>2026-07-27T07:58:24.000Z</time>
      </trkpt>
      <trkpt lat="44.53286" lon="6.46808">
        <ele>806.403132</ele>
        <time>2026-07-27T07:58:24.000Z</time>
      </trkpt>
      <trkpt lat="44.53285" lon="6.46805">
        <ele>806.65863</ele>
        <time>2026-07-27T07:58:25.000Z</time>
      </trkpt>
      <trkpt lat="44.53285" lon="6.46805">
        <ele>806.65863</ele>
        <time>2026-07-27T07:58:25.000Z</time>
      </trkpt>
      <trkpt lat="44.53284" lon="6.46801">
        <ele>806.977928</ele>
        <time>2026-07-27T07:58:26.000Z</time>
      </trkpt>
      <trkpt lat="44.53284" lon="6.46801">
        <ele>806.977928</ele>
        <time>2026-07-27T07:58:26.000Z</time>
      </trkpt>
      <trkpt lat="44.53283" lon="6.46796">
        <ele>807.308882</ele>
        <time>2026-07-27T07:58:27.000Z</time>
      </trkpt>
      <trkpt lat="44.53283" lon="6.46796">
        <ele>807.308882</ele>
        <time>2026-07-27T07:58:27.000Z</time>
      </trkpt>
      <trkpt lat="44.53282" lon="6.46792">
        <ele>807.651514</ele>
        <time>2026-07-27T07:58:28.000Z</time>
      </trkpt>
      <trkpt lat="44.53282" lon="6.46792">
        <ele>807.651514</ele>
        <time>2026-07-27T07:58:28.000Z</time>
      </trkpt>
      <trkpt lat="44.53281" lon="6.46787">
        <ele>808.01023</ele>
        <time>2026-07-27T07:58:29.000Z</time>
      </trkpt>
      <trkpt lat="44.53281" lon="6.46787">
        <ele>808.01023</ele>
        <time>2026-07-27T07:58:29.000Z</time>
      </trkpt>
      <trkpt lat="44.5328" lon="6.46783">
        <ele>808.309525</ele>
        <time>2026-07-27T07:58:30.000Z</time>
      </trkpt>
      <trkpt lat="44.5328" lon="6.46783">
        <ele>808.309525</ele>
        <time>2026-07-27T07:58:30.000Z</time>
      </trkpt>
      <trkpt lat="44.53279" lon="6.46779">
        <ele>808.6258</ele>
        <time>2026-07-27T07:58:31.000Z</time>
      </trkpt>
      <trkpt lat="44.53279" lon="6.46779">
        <ele>808.6258</ele>
        <time>2026-07-27T07:58:31.000Z</time>
      </trkpt>
      <trkpt lat="44.53278" lon="6.46775">
        <ele>808.874532</ele>
        <time>2026-07-27T07:58:32.000Z</time>
      </trkpt>
      <trkpt lat="44.53278" lon="6.46775">
        <ele>808.874532</ele>
        <time>2026-07-27T07:58:32.000Z</time>
      </trkpt>
      <trkpt lat="44.53277" lon="6.46772">
        <ele>809.147487</ele>
        <time>2026-07-27T07:58:33.000Z</time>
      </trkpt>
      <trkpt lat="44.53277" lon="6.46772">
        <ele>809.147487</ele>
        <time>2026-07-27T07:58:33.000Z</time>
      </trkpt>
      <trkpt lat="44.53277" lon="6.46769">
        <ele>809.358268</ele>
        <time>2026-07-27T07:58:34.000Z</time>
      </trkpt>
      <trkpt lat="44.53277" lon="6.46769">
        <ele>809.358268</ele>
        <time>2026-07-27T07:58:34.000Z</time>
      </trkpt>
      <trkpt lat="44.53276" lon="6.46766">
        <ele>809.62471</ele>
        <time>2026-07-27T07:58:35.000Z</time>
      </trkpt>
      <trkpt lat="44.53276" lon="6.46766">
        <ele>809.62471</ele>
        <time>2026-07-27T07:58:35.000Z</time>
      </trkpt>
      <trkpt lat="44.53275" lon="6.46763">
        <ele>809.876437</ele>
        <time>2026-07-27T07:58:36.000Z</time>
      </trkpt>
      <trkpt lat="44.53275" lon="6.46763">
        <ele>809.876437</ele>
        <time>2026-07-27T07:58:36.000Z</time>
      </trkpt>
      <trkpt lat="44.53273" lon="6.4676">
        <ele>810.126377</ele>
        <time>2026-07-27T07:58:37.000Z</time>
      </trkpt>
      <trkpt lat="44.53273" lon="6.4676">
        <ele>810.126377</ele>
        <time>2026-07-27T07:58:37.000Z</time>
      </trkpt>
      <trkpt lat="44.53271" lon="6.46757">
        <ele>810.423564</ele>
        <time>2026-07-27T07:58:38.000Z</time>
      </trkpt>
      <trkpt lat="44.53271" lon="6.46757">
        <ele>810.423564</ele>
        <time>2026-07-27T07:58:38.000Z</time>
      </trkpt>
      <trkpt lat="44.5327" lon="6.46754">
        <ele>810.667837</ele>
        <time>2026-07-27T07:58:39.000Z</time>
      </trkpt>
      <trkpt lat="44.5327" lon="6.46754">
        <ele>810.667837</ele>
        <time>2026-07-27T07:58:39.000Z</time>
      </trkpt>
      <trkpt lat="44.53268" lon="6.46751">
        <ele>810.940948</ele>
        <time>2026-07-27T07:58:40.000Z</time>
      </trkpt>
      <trkpt lat="44.53268" lon="6.46751">
        <ele>810.940948</ele>
        <time>2026-07-27T07:58:40.000Z</time>
      </trkpt>
      <trkpt lat="44.53267" lon="6.46747">
        <ele>811.220449</ele>
        <time>2026-07-27T07:58:41.000Z</time>
      </trkpt>
      <trkpt lat="44.53267" lon="6.46747">
        <ele>811.220449</ele>
        <time>2026-07-27T07:58:41.000Z</time>
      </trkpt>
      <trkpt lat="44.53265" lon="6.46743">
        <ele>811.549306</ele>
        <time>2026-07-27T07:58:42.000Z</time>
      </trkpt>
      <trkpt lat="44.53265" lon="6.46743">
        <ele>811.549306</ele>
        <time>2026-07-27T07:58:42.000Z</time>
      </trkpt>
      <trkpt lat="44.53265" lon="6.46739">
        <ele>811.880261</ele>
        <time>2026-07-27T07:58:43.000Z</time>
      </trkpt>
      <trkpt lat="44.53265" lon="6.46739">
        <ele>811.880261</ele>
        <time>2026-07-27T07:58:43.000Z</time>
      </trkpt>
      <trkpt lat="44.53264" lon="6.46734">
        <ele>812.208937</ele>
        <time>2026-07-27T07:58:44.000Z</time>
      </trkpt>
      <trkpt lat="44.53264" lon="6.46734">
        <ele>812.208937</ele>
        <time>2026-07-27T07:58:44.000Z</time>
      </trkpt>
      <trkpt lat="44.53263" lon="6.46729">
        <ele>812.592184</ele>
        <time>2026-07-27T07:58:45.000Z</time>
      </trkpt>
      <trkpt lat="44.53263" lon="6.46729">
        <ele>812.592184</ele>
        <time>2026-07-27T07:58:45.000Z</time>
      </trkpt>
      <trkpt lat="44.53262" lon="6.46725">
        <ele>812.924917</ele>
        <time>2026-07-27T07:58:46.000Z</time>
      </trkpt>
      <trkpt lat="44.53262" lon="6.46725">
        <ele>812.924917</ele>
        <time>2026-07-27T07:58:46.000Z</time>
      </trkpt>
      <trkpt lat="44.53261" lon="6.4672">
        <ele>813.276681</ele>
        <time>2026-07-27T07:58:47.000Z</time>
      </trkpt>
      <trkpt lat="44.53261" lon="6.4672">
        <ele>813.276681</ele>
        <time>2026-07-27T07:58:47.000Z</time>
      </trkpt>
      <trkpt lat="44.5326" lon="6.46715">
        <ele>813.642358</ele>
        <time>2026-07-27T07:58:48.000Z</time>
      </trkpt>
      <trkpt lat="44.5326" lon="6.46715">
        <ele>813.642358</ele>
        <time>2026-07-27T07:58:48.000Z</time>
      </trkpt>
      <trkpt lat="44.53259" lon="6.4671">
        <ele>814.300367</ele>
        <time>2026-07-27T07:58:49.000Z</time>
      </trkpt>
      <trkpt lat="44.53259" lon="6.4671">
        <ele>814.300367</ele>
        <time>2026-07-27T07:58:49.000Z</time>
      </trkpt>
      <trkpt lat="44.53258" lon="6.46706">
        <ele>814.88287</ele>
        <time>2026-07-27T07:58:50.000Z</time>
      </trkpt>
      <trkpt lat="44.53258" lon="6.46706">
        <ele>814.88287</ele>
        <time>2026-07-27T07:58:50.000Z</time>
      </trkpt>
      <trkpt lat="44.53256" lon="6.46701">
        <ele>815.62215</ele>
        <time>2026-07-27T07:58:51.000Z</time>
      </trkpt>
      <trkpt lat="44.53256" lon="6.46701">
        <ele>815.62215</ele>
        <time>2026-07-27T07:58:51.000Z</time>
      </trkpt>
      <trkpt lat="44.53255" lon="6.46697">
        <ele>816.217117</ele>
        <time>2026-07-27T07:58:52.000Z</time>
      </trkpt>
      <trkpt lat="44.53255" lon="6.46697">
        <ele>816.217117</ele>
        <time>2026-07-27T07:58:52.000Z</time>
      </trkpt>
      <trkpt lat="44.53253" lon="6.46692">
        <ele>816.865639</ele>
        <time>2026-07-27T07:58:53.000Z</time>
      </trkpt>
      <trkpt lat="44.53253" lon="6.46692">
        <ele>816.865639</ele>
        <time>2026-07-27T07:58:53.000Z</time>
      </trkpt>
      <trkpt lat="44.53251" lon="6.46688">
        <ele>817.549672</ele>
        <time>2026-07-27T07:58:54.000Z</time>
      </trkpt>
      <trkpt lat="44.53251" lon="6.46688">
        <ele>817.549672</ele>
        <time>2026-07-27T07:58:54.000Z</time>
      </trkpt>
      <trkpt lat="44.5325" lon="6.46684">
        <ele>818.102312</ele>
        <time>2026-07-27T07:58:55.000Z</time>
      </trkpt>
      <trkpt lat="44.5325" lon="6.46684">
        <ele>818.102312</ele>
        <time>2026-07-27T07:58:55.000Z</time>
      </trkpt>
      <trkpt lat="44.53248" lon="6.4668">
        <ele>818.785647</ele>
        <time>2026-07-27T07:58:56.000Z</time>
      </trkpt>
      <trkpt lat="44.53248" lon="6.4668">
        <ele>818.785647</ele>
        <time>2026-07-27T07:58:56.000Z</time>
      </trkpt>
      <trkpt lat="44.53246" lon="6.46676">
        <ele>819.438415</ele>
        <time>2026-07-27T07:58:57.000Z</time>
      </trkpt>
      <trkpt lat="44.53246" lon="6.46676">
        <ele>819.438415</ele>
        <time>2026-07-27T07:58:57.000Z</time>
      </trkpt>
      <trkpt lat="44.53244" lon="6.46674">
        <ele>819.872914</ele>
        <time>2026-07-27T07:58:58.000Z</time>
      </trkpt>
      <trkpt lat="44.53244" lon="6.46674">
        <ele>819.872914</ele>
        <time>2026-07-27T07:58:58.000Z</time>
      </trkpt>
      <trkpt lat="44.53242" lon="6.46671">
        <ele>820.426678</ele>
        <time>2026-07-27T07:58:59.000Z</time>
      </trkpt>
      <trkpt lat="44.53242" lon="6.46671">
        <ele>820.426678</ele>
        <time>2026-07-27T07:58:59.000Z</time>
      </trkpt>
      <trkpt lat="44.5324" lon="6.46668">
        <ele>820.960279</ele>
        <time>2026-07-27T07:59:00.000Z</time>
      </trkpt>
      <trkpt lat="44.5324" lon="6.46668">
        <ele>820.960279</ele>
        <time>2026-07-27T07:59:00.000Z</time>
      </trkpt>
      <trkpt lat="44.53238" lon="6.46664">
        <ele>821.514043</ele>
        <time>2026-07-27T07:59:01.000Z</time>
      </trkpt>
      <trkpt lat="44.53238" lon="6.46664">
        <ele>821.514043</ele>
        <time>2026-07-27T07:59:01.000Z</time>
      </trkpt>
      <trkpt lat="44.53236" lon="6.46661">
        <ele>822.108996</ele>
        <time>2026-07-27T07:59:02.000Z</time>
      </trkpt>
      <trkpt lat="44.53236" lon="6.46661">
        <ele>822.108996</ele>
        <time>2026-07-27T07:59:02.000Z</time>
      </trkpt>
      <trkpt lat="44.53235" lon="6.46658">
        <ele>822.58542</ele>
        <time>2026-07-27T07:59:03.000Z</time>
      </trkpt>
      <trkpt lat="44.53235" lon="6.46658">
        <ele>822.58542</ele>
        <time>2026-07-27T07:59:03.000Z</time>
      </trkpt>
      <trkpt lat="44.53233" lon="6.46656">
        <ele>823.062332</ele>
        <time>2026-07-27T07:59:04.000Z</time>
      </trkpt>
      <trkpt lat="44.53233" lon="6.46656">
        <ele>823.062332</ele>
        <time>2026-07-27T07:59:04.000Z</time>
      </trkpt>
      <trkpt lat="44.53231" lon="6.46653">
        <ele>823.595934</ele>
        <time>2026-07-27T07:59:05.000Z</time>
      </trkpt>
      <trkpt lat="44.53231" lon="6.46653">
        <ele>823.595934</ele>
        <time>2026-07-27T07:59:05.000Z</time>
      </trkpt>
      <trkpt lat="44.53229" lon="6.46651">
        <ele>824.023254</ele>
        <time>2026-07-27T07:59:06.000Z</time>
      </trkpt>
      <trkpt lat="44.53229" lon="6.46651">
        <ele>824.023254</ele>
        <time>2026-07-27T07:59:06.000Z</time>
      </trkpt>
      <trkpt lat="44.53228" lon="6.4665">
        <ele>824.209613</ele>
        <time>2026-07-27T07:59:07.000Z</time>
      </trkpt>
      <trkpt lat="44.53226" lon="6.46645">
        <ele>825.033117</ele>
        <time>2026-07-27T07:59:08.000Z</time>
      </trkpt>
      <trkpt lat="44.53226" lon="6.46645">
        <ele>825.033117</ele>
        <time>2026-07-27T07:59:08.000Z</time>
      </trkpt>
      <trkpt lat="44.53225" lon="6.46642">
        <ele>825.423764</ele>
        <time>2026-07-27T07:59:09.000Z</time>
      </trkpt>
      <trkpt lat="44.53225" lon="6.46642">
        <ele>825.423764</ele>
        <time>2026-07-27T07:59:09.000Z</time>
      </trkpt>
      <trkpt lat="44.53223" lon="6.46639">
        <ele>825.98781</ele>
        <time>2026-07-27T07:59:10.000Z</time>
      </trkpt>
      <trkpt lat="44.53223" lon="6.46639">
        <ele>825.98781</ele>
        <time>2026-07-27T07:59:10.000Z</time>
      </trkpt>
      <trkpt lat="44.53221" lon="6.46636">
        <ele>826.529531</ele>
        <time>2026-07-27T07:59:12.000Z</time>
      </trkpt>
      <trkpt lat="44.53221" lon="6.46636">
        <ele>826.529531</ele>
        <time>2026-07-27T07:59:12.000Z</time>
      </trkpt>
      <trkpt lat="44.5322" lon="6.46633">
        <ele>826.964031</ele>
        <time>2026-07-27T07:59:12.000Z</time>
      </trkpt>
      <trkpt lat="44.5322" lon="6.46633">
        <ele>826.964031</ele>
        <time>2026-07-27T07:59:12.000Z</time>
      </trkpt>
      <trkpt lat="44.53219" lon="6.4663">
        <ele>827.412614</ele>
        <time>2026-07-27T07:59:13.000Z</time>
      </trkpt>
      <trkpt lat="44.53219" lon="6.4663">
        <ele>827.412614</ele>
        <time>2026-07-27T07:59:13.000Z</time>
      </trkpt>
      <trkpt lat="44.53217" lon="6.46627">
        <ele>827.879481</ele>
        <time>2026-07-27T07:59:14.000Z</time>
      </trkpt>
      <trkpt lat="44.53217" lon="6.46627">
        <ele>827.879481</ele>
        <time>2026-07-27T07:59:14.000Z</time>
      </trkpt>
      <trkpt lat="44.53215" lon="6.46624">
        <ele>828.388732</ele>
        <time>2026-07-27T07:59:15.000Z</time>
      </trkpt>
      <trkpt lat="44.53215" lon="6.46624">
        <ele>828.388732</ele>
        <time>2026-07-27T07:59:15.000Z</time>
      </trkpt>
      <trkpt lat="44.53214" lon="6.46621">
        <ele>828.825534</ele>
        <time>2026-07-27T07:59:16.000Z</time>
      </trkpt>
      <trkpt lat="44.53214" lon="6.46621">
        <ele>828.825534</ele>
        <time>2026-07-27T07:59:16.000Z</time>
      </trkpt>
      <trkpt lat="44.53213" lon="6.46618">
        <ele>829.334439</ele>
        <time>2026-07-27T07:59:17.000Z</time>
      </trkpt>
      <trkpt lat="44.53213" lon="6.46618">
        <ele>829.334439</ele>
        <time>2026-07-27T07:59:17.000Z</time>
      </trkpt>
      <trkpt lat="44.53212" lon="6.46614">
        <ele>829.867497</ele>
        <time>2026-07-27T07:59:18.000Z</time>
      </trkpt>
      <trkpt lat="44.53212" lon="6.46614">
        <ele>829.867497</ele>
        <time>2026-07-27T07:59:18.000Z</time>
      </trkpt>
      <trkpt lat="44.5321" lon="6.46611">
        <ele>830.376749</ele>
        <time>2026-07-27T07:59:19.000Z</time>
      </trkpt>
      <trkpt lat="44.5321" lon="6.46611">
        <ele>830.376749</ele>
        <time>2026-07-27T07:59:19.000Z</time>
      </trkpt>
      <trkpt lat="44.53209" lon="6.46607">
        <ele>830.966086</ele>
        <time>2026-07-27T07:59:20.000Z</time>
      </trkpt>
      <trkpt lat="44.53209" lon="6.46607">
        <ele>830.966086</ele>
        <time>2026-07-27T07:59:20.000Z</time>
      </trkpt>
      <trkpt lat="44.53208" lon="6.46603">
        <ele>831.475104</ele>
        <time>2026-07-27T07:59:21.000Z</time>
      </trkpt>
      <trkpt lat="44.53208" lon="6.46603">
        <ele>831.475104</ele>
        <time>2026-07-27T07:59:21.000Z</time>
      </trkpt>
      <trkpt lat="44.53207" lon="6.46599">
        <ele>832.052163</ele>
        <time>2026-07-27T07:59:23.000Z</time>
      </trkpt>
      <trkpt lat="44.53207" lon="6.46599">
        <ele>832.052163</ele>
        <time>2026-07-27T07:59:23.000Z</time>
      </trkpt>
      <trkpt lat="44.53206" lon="6.46595">
        <ele>832.634671</ele>
        <time>2026-07-27T07:59:23.000Z</time>
      </trkpt>
      <trkpt lat="44.53206" lon="6.46595">
        <ele>832.634671</ele>
        <time>2026-07-27T07:59:23.000Z</time>
      </trkpt>
      <trkpt lat="44.53205" lon="6.46591">
        <ele>833.224008</ele>
        <time>2026-07-27T07:59:25.000Z</time>
      </trkpt>
      <trkpt lat="44.53205" lon="6.46591">
        <ele>833.224008</ele>
        <time>2026-07-27T07:59:25.000Z</time>
      </trkpt>
      <trkpt lat="44.53204" lon="6.46588">
        <ele>833.694582</ele>
        <time>2026-07-27T07:59:25.000Z</time>
      </trkpt>
      <trkpt lat="44.53204" lon="6.46588">
        <ele>833.694582</ele>
        <time>2026-07-27T07:59:25.000Z</time>
      </trkpt>
      <trkpt lat="44.53203" lon="6.46584">
        <ele>834.211006</ele>
        <time>2026-07-27T07:59:27.000Z</time>
      </trkpt>
      <trkpt lat="44.53203" lon="6.46584">
        <ele>834.211006</ele>
        <time>2026-07-27T07:59:27.000Z</time>
      </trkpt>
      <trkpt lat="44.53202" lon="6.46582">
        <ele>834.59303</ele>
        <time>2026-07-27T07:59:27.000Z</time>
      </trkpt>
      <trkpt lat="44.53202" lon="6.46582">
        <ele>834.59303</ele>
        <time>2026-07-27T07:59:27.000Z</time>
      </trkpt>
      <trkpt lat="44.53201" lon="6.46578">
        <ele>835.097504</ele>
        <time>2026-07-27T07:59:28.000Z</time>
      </trkpt>
      <trkpt lat="44.53201" lon="6.46578">
        <ele>835.097504</ele>
        <time>2026-07-27T07:59:28.000Z</time>
      </trkpt>
      <trkpt lat="44.532" lon="6.46575">
        <ele>835.49861</ele>
        <time>2026-07-27T07:59:30.000Z</time>
      </trkpt>
      <trkpt lat="44.532" lon="6.46575">
        <ele>835.49861</ele>
        <time>2026-07-27T07:59:30.000Z</time>
      </trkpt>
      <trkpt lat="44.53199" lon="6.46572">
        <ele>835.918345</ele>
        <time>2026-07-27T07:59:30.000Z</time>
      </trkpt>
      <trkpt lat="44.53199" lon="6.46572">
        <ele>835.918345</ele>
        <time>2026-07-27T07:59:30.000Z</time>
      </trkpt>
      <trkpt lat="44.53198" lon="6.46569">
        <ele>836.483172</ele>
        <time>2026-07-27T07:59:32.000Z</time>
      </trkpt>
      <trkpt lat="44.53198" lon="6.46569">
        <ele>836.483172</ele>
        <time>2026-07-27T07:59:32.000Z</time>
      </trkpt>
      <trkpt lat="44.53197" lon="6.46565">
        <ele>836.991789</ele>
        <time>2026-07-27T07:59:32.000Z</time>
      </trkpt>
      <trkpt lat="44.53197" lon="6.46565">
        <ele>836.991789</ele>
        <time>2026-07-27T07:59:32.000Z</time>
      </trkpt>
      <trkpt lat="44.53196" lon="6.46562">
        <ele>837.500407</ele>
        <time>2026-07-27T07:59:33.000Z</time>
      </trkpt>
      <trkpt lat="44.53196" lon="6.46562">
        <ele>837.500407</ele>
        <time>2026-07-27T07:59:33.000Z</time>
      </trkpt>
      <trkpt lat="44.53195" lon="6.46558">
        <ele>837.989139</ele>
        <time>2026-07-27T07:59:34.000Z</time>
      </trkpt>
      <trkpt lat="44.53195" lon="6.46558">
        <ele>837.989139</ele>
        <time>2026-07-27T07:59:34.000Z</time>
      </trkpt>
      <trkpt lat="44.53194" lon="6.46554">
        <ele>838.566199</ele>
        <time>2026-07-27T07:59:35.000Z</time>
      </trkpt>
      <trkpt lat="44.53194" lon="6.46554">
        <ele>838.566199</ele>
        <time>2026-07-27T07:59:35.000Z</time>
      </trkpt>
      <trkpt lat="44.53193" lon="6.46552">
        <ele>838.923347</ele>
        <time>2026-07-27T07:59:36.000Z</time>
      </trkpt>
      <trkpt lat="44.53193" lon="6.46552">
        <ele>838.923347</ele>
        <time>2026-07-27T07:59:36.000Z</time>
      </trkpt>
      <trkpt lat="44.53192" lon="6.46548">
        <ele>839.455021</ele>
        <time>2026-07-27T07:59:37.000Z</time>
      </trkpt>
      <trkpt lat="44.53192" lon="6.46548">
        <ele>839.455021</ele>
        <time>2026-07-27T07:59:37.000Z</time>
      </trkpt>
      <trkpt lat="44.53191" lon="6.46544">
        <ele>839.98188</ele>
        <time>2026-07-27T07:59:38.000Z</time>
      </trkpt>
      <trkpt lat="44.53191" lon="6.46544">
        <ele>839.98188</ele>
        <time>2026-07-27T07:59:38.000Z</time>
      </trkpt>
      <trkpt lat="44.5319" lon="6.46541">
        <ele>840.457969</ele>
        <time>2026-07-27T07:59:39.000Z</time>
      </trkpt>
      <trkpt lat="44.5319" lon="6.46541">
        <ele>840.457969</ele>
        <time>2026-07-27T07:59:39.000Z</time>
      </trkpt>
      <trkpt lat="44.53189" lon="6.46537">
        <ele>841.040478</ele>
        <time>2026-07-27T07:59:40.000Z</time>
      </trkpt>
      <trkpt lat="44.53189" lon="6.46537">
        <ele>841.040478</ele>
        <time>2026-07-27T07:59:40.000Z</time>
      </trkpt>
      <trkpt lat="44.53188" lon="6.46533">
        <ele>841.529211</ele>
        <time>2026-07-27T07:59:41.000Z</time>
      </trkpt>
      <trkpt lat="44.53188" lon="6.46533">
        <ele>841.529211</ele>
        <time>2026-07-27T07:59:41.000Z</time>
      </trkpt>
      <trkpt lat="44.53188" lon="6.46529">
        <ele>842.128672</ele>
        <time>2026-07-27T07:59:42.000Z</time>
      </trkpt>
      <trkpt lat="44.53188" lon="6.46529">
        <ele>842.128672</ele>
        <time>2026-07-27T07:59:42.000Z</time>
      </trkpt>
      <trkpt lat="44.53188" lon="6.46525">
        <ele>842.713739</ele>
        <time>2026-07-27T07:59:43.000Z</time>
      </trkpt>
      <trkpt lat="44.53188" lon="6.46525">
        <ele>842.713739</ele>
        <time>2026-07-27T07:59:43.000Z</time>
      </trkpt>
      <trkpt lat="44.53187" lon="6.4652">
        <ele>843.263998</ele>
        <time>2026-07-27T07:59:44.000Z</time>
      </trkpt>
      <trkpt lat="44.53187" lon="6.4652">
        <ele>843.263998</ele>
        <time>2026-07-27T07:59:44.000Z</time>
      </trkpt>
      <trkpt lat="44.53187" lon="6.46517">
        <ele>843.722211</ele>
        <time>2026-07-27T07:59:45.000Z</time>
      </trkpt>
      <trkpt lat="44.53187" lon="6.46517">
        <ele>843.722211</ele>
        <time>2026-07-27T07:59:45.000Z</time>
      </trkpt>
      <trkpt lat="44.53186" lon="6.46513">
        <ele>844.206682</ele>
        <time>2026-07-27T07:59:46.000Z</time>
      </trkpt>
      <trkpt lat="44.53186" lon="6.46513">
        <ele>844.206682</ele>
        <time>2026-07-27T07:59:46.000Z</time>
      </trkpt>
      <trkpt lat="44.53186" lon="6.4651">
        <ele>844.638678</ele>
        <time>2026-07-27T07:59:47.000Z</time>
      </trkpt>
      <trkpt lat="44.53186" lon="6.4651">
        <ele>844.638678</ele>
        <time>2026-07-27T07:59:47.000Z</time>
      </trkpt>
      <trkpt lat="44.53185" lon="6.46506">
        <ele>845.199273</ele>
        <time>2026-07-27T07:59:48.000Z</time>
      </trkpt>
      <trkpt lat="44.53185" lon="6.46506">
        <ele>845.199273</ele>
        <time>2026-07-27T07:59:48.000Z</time>
      </trkpt>
      <trkpt lat="44.53183" lon="6.46498">
        <ele>846.30791</ele>
        <time>2026-07-27T07:59:50.000Z</time>
      </trkpt>
      <trkpt lat="44.53183" lon="6.46498">
        <ele>846.30791</ele>
        <time>2026-07-27T07:59:50.000Z</time>
      </trkpt>
      <trkpt lat="44.53182" lon="6.46494">
        <ele>846.89725</ele>
        <time>2026-07-27T07:59:51.000Z</time>
      </trkpt>
      <trkpt lat="44.53182" lon="6.46494">
        <ele>846.89725</ele>
        <time>2026-07-27T07:59:51.000Z</time>
      </trkpt>
      <trkpt lat="44.53182" lon="6.46491">
        <ele>847.349422</ele>
        <time>2026-07-27T07:59:52.000Z</time>
      </trkpt>
      <trkpt lat="44.53182" lon="6.46491">
        <ele>847.349422</ele>
        <time>2026-07-27T07:59:52.000Z</time>
      </trkpt>
      <trkpt lat="44.53181" lon="6.46487">
        <ele>847.899788</ele>
        <time>2026-07-27T07:59:53.000Z</time>
      </trkpt>
      <trkpt lat="44.53181" lon="6.46487">
        <ele>847.899788</ele>
        <time>2026-07-27T07:59:53.000Z</time>
      </trkpt>
      <trkpt lat="44.5318" lon="6.46484">
        <ele>848.426414</ele>
        <time>2026-07-27T07:59:54.000Z</time>
      </trkpt>
      <trkpt lat="44.5318" lon="6.46484">
        <ele>848.426414</ele>
        <time>2026-07-27T07:59:54.000Z</time>
      </trkpt>
      <trkpt lat="44.53179" lon="6.46479">
        <ele>849.216891</ele>
        <time>2026-07-27T07:59:56.000Z</time>
      </trkpt>
      <trkpt lat="44.53179" lon="6.46479">
        <ele>849.216891</ele>
        <time>2026-07-27T07:59:56.000Z</time>
      </trkpt>
      <trkpt lat="44.53178" lon="6.46476">
        <ele>849.58357</ele>
        <time>2026-07-27T07:59:57.000Z</time>
      </trkpt>
      <trkpt lat="44.53178" lon="6.46476">
        <ele>849.58357</ele>
        <time>2026-07-27T07:59:57.000Z</time>
      </trkpt>
      <trkpt lat="44.53175" lon="6.46469">
        <ele>850.832966</ele>
        <time>2026-07-27T07:59:59.000Z</time>
      </trkpt>
      <trkpt lat="44.53175" lon="6.46469">
        <ele>850.832966</ele>
        <time>2026-07-27T07:59:59.000Z</time>
      </trkpt>
      <trkpt lat="44.53173" lon="6.46466">
        <ele>851.334805</ele>
        <time>2026-07-27T08:00:00.000Z</time>
      </trkpt>
      <trkpt lat="44.53173" lon="6.46466">
        <ele>851.334805</ele>
        <time>2026-07-27T08:00:00.000Z</time>
      </trkpt>
      <trkpt lat="44.53172" lon="6.46464">
        <ele>851.816183</ele>
        <time>2026-07-27T08:00:00.000Z</time>
      </trkpt>
      <trkpt lat="44.53172" lon="6.46464">
        <ele>851.816183</ele>
        <time>2026-07-27T08:00:00.000Z</time>
      </trkpt>
      <trkpt lat="44.53169" lon="6.46459">
        <ele>852.633811</ele>
        <time>2026-07-27T08:00:03.000Z</time>
      </trkpt>
      <trkpt lat="44.53169" lon="6.46459">
        <ele>852.633811</ele>
        <time>2026-07-27T08:00:03.000Z</time>
      </trkpt>
      <trkpt lat="44.53169" lon="6.46456">
        <ele>852.986956</ele>
        <time>2026-07-27T08:00:04.000Z</time>
      </trkpt>
      <trkpt lat="44.53169" lon="6.46456">
        <ele>852.986956</ele>
        <time>2026-07-27T08:00:04.000Z</time>
      </trkpt>
      <trkpt lat="44.53169" lon="6.46454">
        <ele>853.354067</ele>
        <time>2026-07-27T08:00:05.000Z</time>
      </trkpt>
      <trkpt lat="44.53169" lon="6.46454">
        <ele>853.354067</ele>
        <time>2026-07-27T08:00:05.000Z</time>
      </trkpt>
      <trkpt lat="44.53169" lon="6.46454">
        <ele>853.354067</ele>
        <time>2026-07-27T08:00:05.000Z</time>
      </trkpt>
      <trkpt lat="44.53168" lon="6.46448">
        <ele>854.146196</ele>
        <time>2026-07-27T08:00:07.000Z</time>
      </trkpt>
      <trkpt lat="44.53168" lon="6.46448">
        <ele>854.146196</ele>
        <time>2026-07-27T08:00:07.000Z</time>
      </trkpt>
      <trkpt lat="44.53167" lon="6.46446">
        <ele>854.531218</ele>
        <time>2026-07-27T08:00:09.000Z</time>
      </trkpt>
      <trkpt lat="44.53167" lon="6.46446">
        <ele>854.531218</ele>
        <time>2026-07-27T08:00:09.000Z</time>
      </trkpt>
      <trkpt lat="44.53167" lon="6.46446">
        <ele>854.531218</ele>
        <time>2026-07-27T08:00:11.000Z</time>
      </trkpt>
      <trkpt lat="44.53166" lon="6.46445">
        <ele>854.746587</ele>
        <time>2026-07-27T08:00:11.000Z</time>
      </trkpt>
      <trkpt lat="44.53166" lon="6.46445">
        <ele>854.746587</ele>
        <time>2026-07-27T08:00:11.000Z</time>
      </trkpt>
      <trkpt lat="44.53166" lon="6.46445">
        <ele>854.746587</ele>
        <time>2026-07-27T08:00:12.000Z</time>
      </trkpt>
      <trkpt lat="44.53166" lon="6.46445">
        <ele>854.746587</ele>
        <time>2026-07-27T08:00:14.000Z</time>
      </trkpt>
      <trkpt lat="44.53166" lon="6.46445">
        <ele>854.746587</ele>
        <time>2026-07-27T08:00:23.000Z</time>
      </trkpt>
      <trkpt lat="44.53166" lon="6.46445">
        <ele>854.746587</ele>
        <time>2026-07-27T08:00:25.000Z</time>
      </trkpt>
      <trkpt lat="44.53164" lon="6.46447">
        <ele>855.232765</ele>
        <time>2026-07-27T08:00:27.000Z</time>
      </trkpt>
      <trkpt lat="44.53164" lon="6.46447">
        <ele>855.232765</ele>
        <time>2026-07-27T08:00:27.000Z</time>
      </trkpt>
      <trkpt lat="44.53164" lon="6.46447">
        <ele>855.232765</ele>
        <time>2026-07-27T08:00:28.000Z</time>
      </trkpt>
      <trkpt lat="44.53162" lon="6.46445">
        <ele>855.808918</ele>
        <time>2026-07-27T08:00:29.000Z</time>
      </trkpt>
      <trkpt lat="44.53162" lon="6.46445">
        <ele>855.808918</ele>
        <time>2026-07-27T08:00:29.000Z</time>
      </trkpt>
      <trkpt lat="44.53161" lon="6.46444">
        <ele>856.054985</ele>
        <time>2026-07-27T08:00:30.000Z</time>
      </trkpt>
      <trkpt lat="44.53161" lon="6.46444">
        <ele>856.054985</ele>
        <time>2026-07-27T08:00:30.000Z</time>
      </trkpt>
      <trkpt lat="44.53159" lon="6.46441">
        <ele>856.588476</ele>
        <time>2026-07-27T08:00:32.000Z</time>
      </trkpt>
      <trkpt lat="44.53159" lon="6.46441">
        <ele>856.588476</ele>
        <time>2026-07-27T08:00:32.000Z</time>
      </trkpt>
      <trkpt lat="44.53157" lon="6.46438">
        <ele>857.132069</ele>
        <time>2026-07-27T08:00:32.000Z</time>
      </trkpt>
      <trkpt lat="44.53157" lon="6.46438">
        <ele>857.132069</ele>
        <time>2026-07-27T08:00:32.000Z</time>
      </trkpt>
      <trkpt lat="44.53156" lon="6.46436">
        <ele>857.540884</ele>
        <time>2026-07-27T08:00:33.000Z</time>
      </trkpt>
      <trkpt lat="44.53155" lon="6.46433">
        <ele>857.972717</ele>
        <time>2026-07-27T08:00:35.000Z</time>
      </trkpt>
      <trkpt lat="44.53155" lon="6.46433">
        <ele>857.972717</ele>
        <time>2026-07-27T08:00:35.000Z</time>
      </trkpt>
      <trkpt lat="44.53154" lon="6.46431">
        <ele>858.384364</ele>
        <time>2026-07-27T08:00:35.000Z</time>
      </trkpt>
      <trkpt lat="44.53154" lon="6.46431">
        <ele>858.384364</ele>
        <time>2026-07-27T08:00:35.000Z</time>
      </trkpt>
      <trkpt lat="44.53153" lon="6.46428">
        <ele>858.864804</ele>
        <time>2026-07-27T08:00:36.000Z</time>
      </trkpt>
      <trkpt lat="44.53153" lon="6.46428">
        <ele>858.864804</ele>
        <time>2026-07-27T08:00:36.000Z</time>
      </trkpt>
      <trkpt lat="44.53152" lon="6.46425">
        <ele>859.378171</ele>
        <time>2026-07-27T08:00:37.000Z</time>
      </trkpt>
      <trkpt lat="44.53152" lon="6.46425">
        <ele>859.378171</ele>
        <time>2026-07-27T08:00:37.000Z</time>
      </trkpt>
      <trkpt lat="44.53151" lon="6.46422">
        <ele>859.850549</ele>
        <time>2026-07-27T08:00:38.000Z</time>
      </trkpt>
      <trkpt lat="44.53151" lon="6.46422">
        <ele>859.850549</ele>
        <time>2026-07-27T08:00:38.000Z</time>
      </trkpt>
      <trkpt lat="44.5315" lon="6.46418">
        <ele>860.385201</ele>
        <time>2026-07-27T08:00:40.000Z</time>
      </trkpt>
      <trkpt lat="44.5315" lon="6.46418">
        <ele>860.385201</ele>
        <time>2026-07-27T08:00:40.000Z</time>
      </trkpt>
      <trkpt lat="44.53149" lon="6.46415">
        <ele>860.844132</ele>
        <time>2026-07-27T08:00:40.000Z</time>
      </trkpt>
      <trkpt lat="44.53149" lon="6.46415">
        <ele>860.844132</ele>
        <time>2026-07-27T08:00:40.000Z</time>
      </trkpt>
      <trkpt lat="44.53149" lon="6.46412">
        <ele>861.31651</ele>
        <time>2026-07-27T08:00:42.000Z</time>
      </trkpt>
      <trkpt lat="44.53149" lon="6.46412">
        <ele>861.31651</ele>
        <time>2026-07-27T08:00:42.000Z</time>
      </trkpt>
      <trkpt lat="44.53148" lon="6.46409">
        <ele>861.809823</ele>
        <time>2026-07-27T08:00:42.000Z</time>
      </trkpt>
      <trkpt lat="44.53148" lon="6.46409">
        <ele>861.809823</ele>
        <time>2026-07-27T08:00:42.000Z</time>
      </trkpt>
      <trkpt lat="44.53147" lon="6.46406">
        <ele>862.309241</ele>
        <time>2026-07-27T08:00:44.000Z</time>
      </trkpt>
      <trkpt lat="44.53147" lon="6.46406">
        <ele>862.309241</ele>
        <time>2026-07-27T08:00:44.000Z</time>
      </trkpt>
      <trkpt lat="44.53146" lon="6.46402">
        <ele>862.885474</ele>
        <time>2026-07-27T08:00:44.000Z</time>
      </trkpt>
      <trkpt lat="44.53146" lon="6.46402">
        <ele>862.885474</ele>
        <time>2026-07-27T08:00:44.000Z</time>
      </trkpt>
      <trkpt lat="44.53146" lon="6.46398">
        <ele>863.384891</ele>
        <time>2026-07-27T08:00:45.000Z</time>
      </trkpt>
      <trkpt lat="44.53146" lon="6.46398">
        <ele>863.384891</ele>
        <time>2026-07-27T08:00:45.000Z</time>
      </trkpt>
      <trkpt lat="44.53145" lon="6.46395">
        <ele>863.932947</ele>
        <time>2026-07-27T08:00:47.000Z</time>
      </trkpt>
      <trkpt lat="44.53145" lon="6.46395">
        <ele>863.932947</ele>
        <time>2026-07-27T08:00:47.000Z</time>
      </trkpt>
      <trkpt lat="44.53143" lon="6.46392">
        <ele>864.413388</ele>
        <time>2026-07-27T08:00:47.000Z</time>
      </trkpt>
      <trkpt lat="44.53143" lon="6.46392">
        <ele>864.413388</ele>
        <time>2026-07-27T08:00:47.000Z</time>
      </trkpt>
      <trkpt lat="44.53142" lon="6.46389">
        <ele>864.846585</ele>
        <time>2026-07-27T08:00:48.000Z</time>
      </trkpt>
      <trkpt lat="44.53142" lon="6.46389">
        <ele>864.846585</ele>
        <time>2026-07-27T08:00:48.000Z</time>
      </trkpt>
      <trkpt lat="44.5314" lon="6.46386">
        <ele>865.421562</ele>
        <time>2026-07-27T08:00:50.000Z</time>
      </trkpt>
      <trkpt lat="44.5314" lon="6.46386">
        <ele>865.421562</ele>
        <time>2026-07-27T08:00:50.000Z</time>
      </trkpt>
      <trkpt lat="44.53139" lon="6.46384">
        <ele>865.92463</ele>
        <time>2026-07-27T08:00:50.000Z</time>
      </trkpt>
      <trkpt lat="44.53139" lon="6.46384">
        <ele>865.92463</ele>
        <time>2026-07-27T08:00:50.000Z</time>
      </trkpt>
      <trkpt lat="44.53137" lon="6.46382">
        <ele>866.350575</ele>
        <time>2026-07-27T08:00:51.000Z</time>
      </trkpt>
      <trkpt lat="44.53137" lon="6.46382">
        <ele>866.350575</ele>
        <time>2026-07-27T08:00:51.000Z</time>
      </trkpt>
      <trkpt lat="44.53133" lon="6.46377">
        <ele>867.502883</ele>
        <time>2026-07-27T08:00:53.000Z</time>
      </trkpt>
      <trkpt lat="44.53133" lon="6.46377">
        <ele>867.502883</ele>
        <time>2026-07-27T08:00:53.000Z</time>
      </trkpt>
      <trkpt lat="44.5313" lon="6.46374">
        <ele>868.136442</ele>
        <time>2026-07-27T08:00:53.000Z</time>
      </trkpt>
      <trkpt lat="44.5313" lon="6.46374">
        <ele>868.136442</ele>
        <time>2026-07-27T08:00:53.000Z</time>
      </trkpt>
      <trkpt lat="44.53128" lon="6.46372">
        <ele>868.739239</ele>
        <time>2026-07-27T08:00:55.000Z</time>
      </trkpt>
      <trkpt lat="44.53128" lon="6.46372">
        <ele>868.739239</ele>
        <time>2026-07-27T08:00:55.000Z</time>
      </trkpt>
      <trkpt lat="44.53126" lon="6.46369">
        <ele>869.210054</ele>
        <time>2026-07-27T08:00:56.000Z</time>
      </trkpt>
      <trkpt lat="44.53126" lon="6.46369">
        <ele>869.210054</ele>
        <time>2026-07-27T08:00:56.000Z</time>
      </trkpt>
      <trkpt lat="44.53123" lon="6.46364">
        <ele>870.202322</ele>
        <time>2026-07-27T08:00:58.000Z</time>
      </trkpt>
      <trkpt lat="44.53123" lon="6.46364">
        <ele>870.202322</ele>
        <time>2026-07-27T08:00:58.000Z</time>
      </trkpt>
      <trkpt lat="44.5312" lon="6.46358">
        <ele>871.289349</ele>
        <time>2026-07-27T08:01:00.000Z</time>
      </trkpt>
      <trkpt lat="44.5312" lon="6.46358">
        <ele>871.289349</ele>
        <time>2026-07-27T08:01:00.000Z</time>
      </trkpt>
      <trkpt lat="44.53118" lon="6.46355">
        <ele>871.781484</ele>
        <time>2026-07-27T08:01:01.000Z</time>
      </trkpt>
      <trkpt lat="44.53118" lon="6.46355">
        <ele>871.781484</ele>
        <time>2026-07-27T08:01:01.000Z</time>
      </trkpt>
      <trkpt lat="44.53116" lon="6.46352">
        <ele>872.345832</ele>
        <time>2026-07-27T08:01:02.000Z</time>
      </trkpt>
      <trkpt lat="44.53116" lon="6.46352">
        <ele>872.345832</ele>
        <time>2026-07-27T08:01:02.000Z</time>
      </trkpt>
      <trkpt lat="44.53115" lon="6.46349">
        <ele>872.859201</ele>
        <time>2026-07-27T08:01:03.000Z</time>
      </trkpt>
      <trkpt lat="44.53115" lon="6.46349">
        <ele>872.859201</ele>
        <time>2026-07-27T08:01:03.000Z</time>
      </trkpt>
      <trkpt lat="44.53113" lon="6.46348">
        <ele>873.255951</ele>
        <time>2026-07-27T08:01:04.000Z</time>
      </trkpt>
      <trkpt lat="44.53113" lon="6.46348">
        <ele>873.255951</ele>
        <time>2026-07-27T08:01:04.000Z</time>
      </trkpt>
      <trkpt lat="44.53112" lon="6.46345">
        <ele>873.735195</ele>
        <time>2026-07-27T08:01:04.000Z</time>
      </trkpt>
      <trkpt lat="44.53112" lon="6.46345">
        <ele>873.735195</ele>
        <time>2026-07-27T08:01:04.000Z</time>
      </trkpt>
      <trkpt lat="44.53109" lon="6.46343">
        <ele>874.286774</ele>
        <time>2026-07-27T08:01:06.000Z</time>
      </trkpt>
      <trkpt lat="44.53109" lon="6.46343">
        <ele>874.286774</ele>
        <time>2026-07-27T08:01:06.000Z</time>
      </trkpt>
      <trkpt lat="44.53107" lon="6.4634">
        <ele>874.908351</ele>
        <time>2026-07-27T08:01:07.000Z</time>
      </trkpt>
      <trkpt lat="44.53107" lon="6.4634">
        <ele>874.908351</ele>
        <time>2026-07-27T08:01:07.000Z</time>
      </trkpt>
      <trkpt lat="44.53106" lon="6.46337">
        <ele>875.433776</ele>
        <time>2026-07-27T08:01:07.000Z</time>
      </trkpt>
      <trkpt lat="44.53106" lon="6.46337">
        <ele>875.433776</ele>
        <time>2026-07-27T08:01:07.000Z</time>
      </trkpt>
      <trkpt lat="44.53104" lon="6.46334">
        <ele>876.008756</ele>
        <time>2026-07-27T08:01:09.000Z</time>
      </trkpt>
      <trkpt lat="44.53104" lon="6.46334">
        <ele>876.008756</ele>
        <time>2026-07-27T08:01:09.000Z</time>
      </trkpt>
      <trkpt lat="44.53102" lon="6.46332">
        <ele>876.532345</ele>
        <time>2026-07-27T08:01:10.000Z</time>
      </trkpt>
      <trkpt lat="44.53102" lon="6.46332">
        <ele>876.532345</ele>
        <time>2026-07-27T08:01:10.000Z</time>
      </trkpt>
      <trkpt lat="44.531" lon="6.46328">
        <ele>877.118114</ele>
        <time>2026-07-27T08:01:11.000Z</time>
      </trkpt>
      <trkpt lat="44.531" lon="6.46328">
        <ele>877.118114</ele>
        <time>2026-07-27T08:01:11.000Z</time>
      </trkpt>
      <trkpt lat="44.53098" lon="6.46326">
        <ele>877.682463</ele>
        <time>2026-07-27T08:01:12.000Z</time>
      </trkpt>
      <trkpt lat="44.53098" lon="6.46326">
        <ele>877.682463</ele>
        <time>2026-07-27T08:01:12.000Z</time>
      </trkpt>
      <trkpt lat="44.53096" lon="6.46323">
        <ele>878.236347</ele>
        <time>2026-07-27T08:01:13.000Z</time>
      </trkpt>
      <trkpt lat="44.53096" lon="6.46323">
        <ele>878.236347</ele>
        <time>2026-07-27T08:01:13.000Z</time>
      </trkpt>
      <trkpt lat="44.53095" lon="6.4632">
        <ele>878.615959</ele>
        <time>2026-07-27T08:01:14.000Z</time>
      </trkpt>
      <trkpt lat="44.53095" lon="6.4632">
        <ele>878.615959</ele>
        <time>2026-07-27T08:01:14.000Z</time>
      </trkpt>
      <trkpt lat="44.53093" lon="6.46316">
        <ele>879.409642</ele>
        <time>2026-07-27T08:01:16.000Z</time>
      </trkpt>
      <trkpt lat="44.53093" lon="6.46316">
        <ele>879.409642</ele>
        <time>2026-07-27T08:01:16.000Z</time>
      </trkpt>
      <trkpt lat="44.53092" lon="6.46314">
        <ele>879.784196</ele>
        <time>2026-07-27T08:01:17.000Z</time>
      </trkpt>
      <trkpt lat="44.53092" lon="6.46314">
        <ele>879.784196</ele>
        <time>2026-07-27T08:01:17.000Z</time>
      </trkpt>
      <trkpt lat="44.5309" lon="6.46312">
        <ele>880.180947</ele>
        <time>2026-07-27T08:01:18.000Z</time>
      </trkpt>
      <trkpt lat="44.5309" lon="6.46312">
        <ele>880.180947</ele>
        <time>2026-07-27T08:01:18.000Z</time>
      </trkpt>
      <trkpt lat="44.53088" lon="6.4631">
        <ele>880.685365</ele>
        <time>2026-07-27T08:01:18.000Z</time>
      </trkpt>
      <trkpt lat="44.53088" lon="6.4631">
        <ele>880.685365</ele>
        <time>2026-07-27T08:01:18.000Z</time>
      </trkpt>
      <trkpt lat="44.53087" lon="6.46307">
        <ele>881.208955</ele>
        <time>2026-07-27T08:01:19.000Z</time>
      </trkpt>
      <trkpt lat="44.53087" lon="6.46307">
        <ele>881.208955</ele>
        <time>2026-07-27T08:01:19.000Z</time>
      </trkpt>
      <trkpt lat="44.53085" lon="6.46305">
        <ele>881.605864</ele>
        <time>2026-07-27T08:01:20.000Z</time>
      </trkpt>
      <trkpt lat="44.53085" lon="6.46305">
        <ele>881.605864</ele>
        <time>2026-07-27T08:01:20.000Z</time>
      </trkpt>
      <trkpt lat="44.53083" lon="6.46303">
        <ele>882.110282</ele>
        <time>2026-07-27T08:01:22.000Z</time>
      </trkpt>
      <trkpt lat="44.53083" lon="6.46303">
        <ele>882.110282</ele>
        <time>2026-07-27T08:01:22.000Z</time>
      </trkpt>
      <trkpt lat="44.53083" lon="6.463">
        <ele>882.495127</ele>
        <time>2026-07-27T08:01:23.000Z</time>
      </trkpt>
      <trkpt lat="44.53083" lon="6.463">
        <ele>882.495127</ele>
        <time>2026-07-27T08:01:23.000Z</time>
      </trkpt>
      <trkpt lat="44.53081" lon="6.46298">
        <ele>882.93553</ele>
        <time>2026-07-27T08:01:23.000Z</time>
      </trkpt>
      <trkpt lat="44.53081" lon="6.46298">
        <ele>882.93553</ele>
        <time>2026-07-27T08:01:23.000Z</time>
      </trkpt>
      <trkpt lat="44.5308" lon="6.46296">
        <ele>883.356471</ele>
        <time>2026-07-27T08:01:25.000Z</time>
      </trkpt>
      <trkpt lat="44.5308" lon="6.46296">
        <ele>883.356471</ele>
        <time>2026-07-27T08:01:25.000Z</time>
      </trkpt>
      <trkpt lat="44.53079" lon="6.46294">
        <ele>883.690617</ele>
        <time>2026-07-27T08:01:26.000Z</time>
      </trkpt>
      <trkpt lat="44.53079" lon="6.46294">
        <ele>883.690617</ele>
        <time>2026-07-27T08:01:26.000Z</time>
      </trkpt>
      <trkpt lat="44.53079" lon="6.46291">
        <ele>884.029299</ele>
        <time>2026-07-27T08:01:27.000Z</time>
      </trkpt>
      <trkpt lat="44.53079" lon="6.46291">
        <ele>884.029299</ele>
        <time>2026-07-27T08:01:27.000Z</time>
      </trkpt>
      <trkpt lat="44.53077" lon="6.46289">
        <ele>884.478348</ele>
        <time>2026-07-27T08:01:28.000Z</time>
      </trkpt>
      <trkpt lat="44.53077" lon="6.46289">
        <ele>884.478348</ele>
        <time>2026-07-27T08:01:28.000Z</time>
      </trkpt>
      <trkpt lat="44.53076" lon="6.46287">
        <ele>884.843709</ele>
        <time>2026-07-27T08:01:29.000Z</time>
      </trkpt>
      <trkpt lat="44.53076" lon="6.46287">
        <ele>884.843709</ele>
        <time>2026-07-27T08:01:29.000Z</time>
      </trkpt>
      <trkpt lat="44.53075" lon="6.46285">
        <ele>885.260108</ele>
        <time>2026-07-27T08:01:29.000Z</time>
      </trkpt>
      <trkpt lat="44.53075" lon="6.46285">
        <ele>885.260108</ele>
        <time>2026-07-27T08:01:29.000Z</time>
      </trkpt>
      <trkpt lat="44.53074" lon="6.46282">
        <ele>885.760203</ele>
        <time>2026-07-27T08:01:31.000Z</time>
      </trkpt>
      <trkpt lat="44.53074" lon="6.46282">
        <ele>885.760203</ele>
        <time>2026-07-27T08:01:31.000Z</time>
      </trkpt>
      <trkpt lat="44.53074" lon="6.46282">
        <ele>885.760203</ele>
        <time>2026-07-27T08:01:31.000Z</time>
      </trkpt>
      <trkpt lat="44.53071" lon="6.46277">
        <ele>886.605152</ele>
        <time>2026-07-27T08:01:33.000Z</time>
      </trkpt>
      <trkpt lat="44.53071" lon="6.46277">
        <ele>886.605152</ele>
        <time>2026-07-27T08:01:33.000Z</time>
      </trkpt>
      <trkpt lat="44.5307" lon="6.46277">
        <ele>886.842124</ele>
        <time>2026-07-27T08:01:33.000Z</time>
      </trkpt>
      <trkpt lat="44.5307" lon="6.46277">
        <ele>886.842124</ele>
        <time>2026-07-27T08:01:33.000Z</time>
      </trkpt>
      <trkpt lat="44.5307" lon="6.46277">
        <ele>886.842124</ele>
        <time>2026-07-27T08:01:34.000Z</time>
      </trkpt>
      <trkpt lat="44.53069" lon="6.46278">
        <ele>887.195405</ele>
        <time>2026-07-27T08:01:35.000Z</time>
      </trkpt>
      <trkpt lat="44.53069" lon="6.46278">
        <ele>887.195405</ele>
        <time>2026-07-27T08:01:35.000Z</time>
      </trkpt>
      <trkpt lat="44.53068" lon="6.46278">
        <ele>887.290882</ele>
        <time>2026-07-27T08:01:37.000Z</time>
      </trkpt>
      <trkpt lat="44.53068" lon="6.46278">
        <ele>887.290882</ele>
        <time>2026-07-27T08:01:37.000Z</time>
      </trkpt>
      <trkpt lat="44.53068" lon="6.46278">
        <ele>887.290882</ele>
        <time>2026-07-27T08:01:38.000Z</time>
      </trkpt>
      <trkpt lat="44.53067" lon="6.46281">
        <ele>887.80383</ele>
        <time>2026-07-27T08:01:39.000Z</time>
      </trkpt>
      <trkpt lat="44.53067" lon="6.46281">
        <ele>887.80383</ele>
        <time>2026-07-27T08:01:39.000Z</time>
      </trkpt>
      <trkpt lat="44.53066" lon="6.46281">
        <ele>887.950232</ele>
        <time>2026-07-27T08:01:40.000Z</time>
      </trkpt>
      <trkpt lat="44.53066" lon="6.46281">
        <ele>887.950232</ele>
        <time>2026-07-27T08:01:40.000Z</time>
      </trkpt>
      <trkpt lat="44.53066" lon="6.46281">
        <ele>888.033499</ele>
        <time>2026-07-27T08:01:41.000Z</time>
      </trkpt>
      <trkpt lat="44.53064" lon="6.4628">
        <ele>888.2833</ele>
        <time>2026-07-27T08:01:41.000Z</time>
      </trkpt>
      <trkpt lat="44.53064" lon="6.4628">
        <ele>888.2833</ele>
        <time>2026-07-27T08:01:41.000Z</time>
      </trkpt>
      <trkpt lat="44.53063" lon="6.4628">
        <ele>888.530844</ele>
        <time>2026-07-27T08:01:42.000Z</time>
      </trkpt>
      <trkpt lat="44.53063" lon="6.4628">
        <ele>888.530844</ele>
        <time>2026-07-27T08:01:42.000Z</time>
      </trkpt>
      <trkpt lat="44.53062" lon="6.46279">
        <ele>888.854815</ele>
        <time>2026-07-27T08:01:44.000Z</time>
      </trkpt>
      <trkpt lat="44.53062" lon="6.46279">
        <ele>888.854815</ele>
        <time>2026-07-27T08:01:44.000Z</time>
      </trkpt>
      <trkpt lat="44.5306" lon="6.46278">
        <ele>889.183691</ele>
        <time>2026-07-27T08:01:45.000Z</time>
      </trkpt>
      <trkpt lat="44.5306" lon="6.46278">
        <ele>889.183691</ele>
        <time>2026-07-27T08:01:45.000Z</time>
      </trkpt>
      <trkpt lat="44.53059" lon="6.46278">
        <ele>889.52717</ele>
        <time>2026-07-27T08:01:46.000Z</time>
      </trkpt>
      <trkpt lat="44.53059" lon="6.46278">
        <ele>889.52717</ele>
        <time>2026-07-27T08:01:46.000Z</time>
      </trkpt>
      <trkpt lat="44.53057" lon="6.46276">
        <ele>889.948412</ele>
        <time>2026-07-27T08:01:47.000Z</time>
      </trkpt>
      <trkpt lat="44.53057" lon="6.46276">
        <ele>889.948412</ele>
        <time>2026-07-27T08:01:47.000Z</time>
      </trkpt>
      <trkpt lat="44.53055" lon="6.46275">
        <ele>890.402569</ele>
        <time>2026-07-27T08:01:48.000Z</time>
      </trkpt>
      <trkpt lat="44.53055" lon="6.46275">
        <ele>890.402569</ele>
        <time>2026-07-27T08:01:48.000Z</time>
      </trkpt>
      <trkpt lat="44.53053" lon="6.46273">
        <ele>890.788755</ele>
        <time>2026-07-27T08:01:49.000Z</time>
      </trkpt>
      <trkpt lat="44.53053" lon="6.46273">
        <ele>890.788755</ele>
        <time>2026-07-27T08:01:49.000Z</time>
      </trkpt>
      <trkpt lat="44.53051" lon="6.46271">
        <ele>891.25862</ele>
        <time>2026-07-27T08:01:50.000Z</time>
      </trkpt>
      <trkpt lat="44.53051" lon="6.46271">
        <ele>891.25862</ele>
        <time>2026-07-27T08:01:50.000Z</time>
      </trkpt>
      <trkpt lat="44.5305" lon="6.4627">
        <ele>891.685649</ele>
        <time>2026-07-27T08:01:50.000Z</time>
      </trkpt>
      <trkpt lat="44.5305" lon="6.4627">
        <ele>891.685649</ele>
        <time>2026-07-27T08:01:50.000Z</time>
      </trkpt>
      <trkpt lat="44.53048" lon="6.46269">
        <ele>892.101537</ele>
        <time>2026-07-27T08:01:52.000Z</time>
      </trkpt>
      <trkpt lat="44.53048" lon="6.46269">
        <ele>892.101537</ele>
        <time>2026-07-27T08:01:52.000Z</time>
      </trkpt>
      <trkpt lat="44.53046" lon="6.46269">
        <ele>892.437476</ele>
        <time>2026-07-27T08:01:53.000Z</time>
      </trkpt>
      <trkpt lat="44.53046" lon="6.46269">
        <ele>892.437476</ele>
        <time>2026-07-27T08:01:53.000Z</time>
      </trkpt>
      <trkpt lat="44.53043" lon="6.46268">
        <ele>892.977477</ele>
        <time>2026-07-27T08:01:54.000Z</time>
      </trkpt>
      <trkpt lat="44.53043" lon="6.46268">
        <ele>892.977477</ele>
        <time>2026-07-27T08:01:54.000Z</time>
      </trkpt>
      <trkpt lat="44.53042" lon="6.46268">
        <ele>893.367954</ele>
        <time>2026-07-27T08:01:55.000Z</time>
      </trkpt>
      <trkpt lat="44.53042" lon="6.46268">
        <ele>893.367954</ele>
        <time>2026-07-27T08:01:55.000Z</time>
      </trkpt>
      <trkpt lat="44.5304" lon="6.46268">
        <ele>893.696181</ele>
        <time>2026-07-27T08:01:56.000Z</time>
      </trkpt>
      <trkpt lat="44.5304" lon="6.46268">
        <ele>893.696181</ele>
        <time>2026-07-27T08:01:56.000Z</time>
      </trkpt>
      <trkpt lat="44.53038" lon="6.46268">
        <ele>894.086658</ele>
        <time>2026-07-27T08:01:57.000Z</time>
      </trkpt>
      <trkpt lat="44.53038" lon="6.46268">
        <ele>894.086658</ele>
        <time>2026-07-27T08:01:57.000Z</time>
      </trkpt>
      <trkpt lat="44.53037" lon="6.46267">
        <ele>894.39545</ele>
        <time>2026-07-27T08:01:58.000Z</time>
      </trkpt>
      <trkpt lat="44.53037" lon="6.46267">
        <ele>894.39545</ele>
        <time>2026-07-27T08:01:58.000Z</time>
      </trkpt>
      <trkpt lat="44.53035" lon="6.46267">
        <ele>894.628334</ele>
        <time>2026-07-27T08:01:58.000Z</time>
      </trkpt>
      <trkpt lat="44.53035" lon="6.46267">
        <ele>894.807821</ele>
        <time>2026-07-27T08:02:00.000Z</time>
      </trkpt>
      <trkpt lat="44.53033" lon="6.46265">
        <ele>895.169167</ele>
        <time>2026-07-27T08:02:01.000Z</time>
      </trkpt>
      <trkpt lat="44.53031" lon="6.46264">
        <ele>895.602399</ele>
        <time>2026-07-27T08:02:02.000Z</time>
      </trkpt>
      <trkpt lat="44.53031" lon="6.46264">
        <ele>895.602399</ele>
        <time>2026-07-27T08:02:02.000Z</time>
      </trkpt>
      <trkpt lat="44.5303" lon="6.46263">
        <ele>895.881268</ele>
        <time>2026-07-27T08:02:02.000Z</time>
      </trkpt>
      <trkpt lat="44.5303" lon="6.46263">
        <ele>895.881268</ele>
        <time>2026-07-27T08:02:02.000Z</time>
      </trkpt>
      <trkpt lat="44.53029" lon="6.46262">
        <ele>896.210144</ele>
        <time>2026-07-27T08:02:04.000Z</time>
      </trkpt>
      <trkpt lat="44.53029" lon="6.46262">
        <ele>896.210144</ele>
        <time>2026-07-27T08:02:04.000Z</time>
      </trkpt>
      <trkpt lat="44.53027" lon="6.46262">
        <ele>896.534116</ele>
        <time>2026-07-27T08:02:05.000Z</time>
      </trkpt>
      <trkpt lat="44.53027" lon="6.46262">
        <ele>896.534116</ele>
        <time>2026-07-27T08:02:05.000Z</time>
      </trkpt>
      <trkpt lat="44.53025" lon="6.46261">
        <ele>897.009083</ele>
        <time>2026-07-27T08:02:05.000Z</time>
      </trkpt>
      <trkpt lat="44.53025" lon="6.46261">
        <ele>897.009083</ele>
        <time>2026-07-27T08:02:05.000Z</time>
      </trkpt>
      <trkpt lat="44.53022" lon="6.4626">
        <ele>897.494714</ele>
        <time>2026-07-27T08:02:06.000Z</time>
      </trkpt>
      <trkpt lat="44.53022" lon="6.4626">
        <ele>897.494714</ele>
        <time>2026-07-27T08:02:06.000Z</time>
      </trkpt>
      <trkpt lat="44.5302" lon="6.4626">
        <ele>897.980346</ele>
        <time>2026-07-27T08:02:08.000Z</time>
      </trkpt>
      <trkpt lat="44.5302" lon="6.4626">
        <ele>897.980346</ele>
        <time>2026-07-27T08:02:08.000Z</time>
      </trkpt>
      <trkpt lat="44.53018" lon="6.46259">
        <ele>898.465978</ele>
        <time>2026-07-27T08:02:08.000Z</time>
      </trkpt>
      <trkpt lat="44.53018" lon="6.46259">
        <ele>898.465978</ele>
        <time>2026-07-27T08:02:08.000Z</time>
      </trkpt>
      <trkpt lat="44.53016" lon="6.46258">
        <ele>898.857819</ele>
        <time>2026-07-27T08:02:09.000Z</time>
      </trkpt>
      <trkpt lat="44.53016" lon="6.46258">
        <ele>898.857819</ele>
        <time>2026-07-27T08:02:09.000Z</time>
      </trkpt>
      <trkpt lat="44.53014" lon="6.46258">
        <ele>899.248297</ele>
        <time>2026-07-27T08:02:10.000Z</time>
      </trkpt>
      <trkpt lat="44.53014" lon="6.46258">
        <ele>899.248297</ele>
        <time>2026-07-27T08:02:10.000Z</time>
      </trkpt>
      <trkpt lat="44.53012" lon="6.46258">
        <ele>899.721688</ele>
        <time>2026-07-27T08:02:12.000Z</time>
      </trkpt>
      <trkpt lat="44.53012" lon="6.46258">
        <ele>899.721688</ele>
        <time>2026-07-27T08:02:12.000Z</time>
      </trkpt>
      <trkpt lat="44.53009" lon="6.46258">
        <ele>900.275213</ele>
        <time>2026-07-27T08:02:12.000Z</time>
      </trkpt>
      <trkpt lat="44.53009" lon="6.46258">
        <ele>900.275213</ele>
        <time>2026-07-27T08:02:12.000Z</time>
      </trkpt>
      <trkpt lat="44.53007" lon="6.46258">
        <ele>900.668957</ele>
        <time>2026-07-27T08:02:13.000Z</time>
      </trkpt>
      <trkpt lat="44.53007" lon="6.46258">
        <ele>900.668957</ele>
        <time>2026-07-27T08:02:13.000Z</time>
      </trkpt>
      <trkpt lat="44.53006" lon="6.46258">
        <ele>900.977749</ele>
        <time>2026-07-27T08:02:15.000Z</time>
      </trkpt>
      <trkpt lat="44.53006" lon="6.46258">
        <ele>900.977749</ele>
        <time>2026-07-27T08:02:15.000Z</time>
      </trkpt>
      <trkpt lat="44.53005" lon="6.46258">
        <ele>901.207402</ele>
        <time>2026-07-27T08:02:16.000Z</time>
      </trkpt>
      <trkpt lat="44.53002" lon="6.46257">
        <ele>901.686841</ele>
        <time>2026-07-27T08:02:16.000Z</time>
      </trkpt>
      <trkpt lat="44.53002" lon="6.46257">
        <ele>901.686841</ele>
        <time>2026-07-27T08:02:16.000Z</time>
      </trkpt>
      <trkpt lat="44.53001" lon="6.46256">
        <ele>902.03032</ele>
        <time>2026-07-27T08:02:18.000Z</time>
      </trkpt>
      <trkpt lat="44.53001" lon="6.46256">
        <ele>902.03032</ele>
        <time>2026-07-27T08:02:18.000Z</time>
      </trkpt>
      <trkpt lat="44.53" lon="6.46256">
        <ele>902.272195</ele>
        <time>2026-07-27T08:02:18.000Z</time>
      </trkpt>
      <trkpt lat="44.53" lon="6.46256">
        <ele>902.272195</ele>
        <time>2026-07-27T08:02:18.000Z</time>
      </trkpt>
      <trkpt lat="44.52998" lon="6.46255">
        <ele>902.51407</ele>
        <time>2026-07-27T08:02:20.000Z</time>
      </trkpt>
      <trkpt lat="44.52998" lon="6.46255">
        <ele>902.51407</ele>
        <time>2026-07-27T08:02:20.000Z</time>
      </trkpt>
      <trkpt lat="44.52997" lon="6.46255">
        <ele>902.775152</ele>
        <time>2026-07-27T08:02:20.000Z</time>
      </trkpt>
      <trkpt lat="44.52997" lon="6.46255">
        <ele>902.775152</ele>
        <time>2026-07-27T08:02:20.000Z</time>
      </trkpt>
      <trkpt lat="44.52996" lon="6.46254">
        <ele>903.088064</ele>
        <time>2026-07-27T08:02:21.000Z</time>
      </trkpt>
      <trkpt lat="44.52996" lon="6.46254">
        <ele>903.088064</ele>
        <time>2026-07-27T08:02:21.000Z</time>
      </trkpt>
      <trkpt lat="44.52994" lon="6.46254">
        <ele>903.404031</ele>
        <time>2026-07-27T08:02:23.000Z</time>
      </trkpt>
      <trkpt lat="44.52994" lon="6.46254">
        <ele>903.404031</ele>
        <time>2026-07-27T08:02:23.000Z</time>
      </trkpt>
      <trkpt lat="44.52992" lon="6.46254">
        <ele>903.793688</ele>
        <time>2026-07-27T08:02:24.000Z</time>
      </trkpt>
      <trkpt lat="44.52992" lon="6.46254">
        <ele>903.793688</ele>
        <time>2026-07-27T08:02:24.000Z</time>
      </trkpt>
      <trkpt lat="44.5299" lon="6.46254">
        <ele>904.265045</ele>
        <time>2026-07-27T08:02:24.000Z</time>
      </trkpt>
      <trkpt lat="44.5299" lon="6.46254">
        <ele>904.265045</ele>
        <time>2026-07-27T08:02:24.000Z</time>
      </trkpt>
      <trkpt lat="44.52988" lon="6.46254">
        <ele>904.737308</ele>
        <time>2026-07-27T08:02:26.000Z</time>
      </trkpt>
      <trkpt lat="44.52988" lon="6.46254">
        <ele>904.737308</ele>
        <time>2026-07-27T08:02:26.000Z</time>
      </trkpt>
      <trkpt lat="44.52985" lon="6.46254">
        <ele>905.208665</ele>
        <time>2026-07-27T08:02:26.000Z</time>
      </trkpt>
      <trkpt lat="44.52985" lon="6.46254">
        <ele>905.208665</ele>
        <time>2026-07-27T08:02:26.000Z</time>
      </trkpt>
      <trkpt lat="44.52983" lon="6.46254">
        <ele>905.765076</ele>
        <time>2026-07-27T08:02:27.000Z</time>
      </trkpt>
      <trkpt lat="44.52983" lon="6.46254">
        <ele>905.765076</ele>
        <time>2026-07-27T08:02:27.000Z</time>
      </trkpt>
      <trkpt lat="44.5298" lon="6.46254">
        <ele>906.23666</ele>
        <time>2026-07-27T08:02:28.000Z</time>
      </trkpt>
      <trkpt lat="44.5298" lon="6.46254">
        <ele>906.23666</ele>
        <time>2026-07-27T08:02:28.000Z</time>
      </trkpt>
      <trkpt lat="44.52979" lon="6.46254">
        <ele>906.626316</ele>
        <time>2026-07-27T08:02:30.000Z</time>
      </trkpt>
      <trkpt lat="44.52979" lon="6.46254">
        <ele>906.626316</ele>
        <time>2026-07-27T08:02:30.000Z</time>
      </trkpt>
      <trkpt lat="44.52977" lon="6.46254">
        <ele>906.936832</ele>
        <time>2026-07-27T08:02:31.000Z</time>
      </trkpt>
      <trkpt lat="44.52977" lon="6.46254">
        <ele>906.936832</ele>
        <time>2026-07-27T08:02:31.000Z</time>
      </trkpt>
      <trkpt lat="44.52974" lon="6.46253">
        <ele>907.572308</ele>
        <time>2026-07-27T08:02:32.000Z</time>
      </trkpt>
      <trkpt lat="44.52974" lon="6.46253">
        <ele>907.572308</ele>
        <time>2026-07-27T08:02:32.000Z</time>
      </trkpt>
      <trkpt lat="44.52971" lon="6.46253">
        <ele>908.187296</ele>
        <time>2026-07-27T08:02:33.000Z</time>
      </trkpt>
      <trkpt lat="44.52971" lon="6.46253">
        <ele>908.187296</ele>
        <time>2026-07-27T08:02:33.000Z</time>
      </trkpt>
      <trkpt lat="44.52969" lon="6.46253">
        <ele>908.65888</ele>
        <time>2026-07-27T08:02:34.000Z</time>
      </trkpt>
      <trkpt lat="44.52969" lon="6.46253">
        <ele>908.65888</ele>
        <time>2026-07-27T08:02:34.000Z</time>
      </trkpt>
      <trkpt lat="44.52967" lon="6.46254">
        <ele>909.048536</ele>
        <time>2026-07-27T08:02:35.000Z</time>
      </trkpt>
      <trkpt lat="44.52967" lon="6.46254">
        <ele>909.048536</ele>
        <time>2026-07-27T08:02:35.000Z</time>
      </trkpt>
      <trkpt lat="44.52965" lon="6.46254">
        <ele>909.442279</ele>
        <time>2026-07-27T08:02:35.000Z</time>
      </trkpt>
      <trkpt lat="44.52965" lon="6.46254">
        <ele>909.442279</ele>
        <time>2026-07-27T08:02:35.000Z</time>
      </trkpt>
      <trkpt lat="44.52963" lon="6.46254">
        <ele>909.831936</ele>
        <time>2026-07-27T08:02:37.000Z</time>
      </trkpt>
      <trkpt lat="44.52963" lon="6.46254">
        <ele>909.831936</ele>
        <time>2026-07-27T08:02:37.000Z</time>
      </trkpt>
      <trkpt lat="44.52962" lon="6.46255">
        <ele>910.098278</ele>
        <time>2026-07-27T08:02:38.000Z</time>
      </trkpt>
      <trkpt lat="44.52962" lon="6.46255">
        <ele>910.098278</ele>
        <time>2026-07-27T08:02:38.000Z</time>
      </trkpt>
      <trkpt lat="44.52959" lon="6.46255">
        <ele>910.577718</ele>
        <time>2026-07-27T08:02:39.000Z</time>
      </trkpt>
      <trkpt lat="44.52959" lon="6.46255">
        <ele>910.577718</ele>
        <time>2026-07-27T08:02:39.000Z</time>
      </trkpt>
      <trkpt lat="44.52958" lon="6.46257">
        <ele>911.004748</ele>
        <time>2026-07-27T08:02:40.000Z</time>
      </trkpt>
      <trkpt lat="44.52958" lon="6.46257">
        <ele>911.004748</ele>
        <time>2026-07-27T08:02:40.000Z</time>
      </trkpt>
      <trkpt lat="44.52955" lon="6.46258">
        <ele>911.565688</ele>
        <time>2026-07-27T08:02:41.000Z</time>
      </trkpt>
      <trkpt lat="44.52955" lon="6.46258">
        <ele>911.565688</ele>
        <time>2026-07-27T08:02:41.000Z</time>
      </trkpt>
      <trkpt lat="44.52953" lon="6.46259">
        <ele>912.059168</ele>
        <time>2026-07-27T08:02:41.000Z</time>
      </trkpt>
      <trkpt lat="44.52953" lon="6.46259">
        <ele>912.059168</ele>
        <time>2026-07-27T08:02:41.000Z</time>
      </trkpt>
      <trkpt lat="44.52951" lon="6.4626">
        <ele>912.475057</ele>
        <time>2026-07-27T08:02:43.000Z</time>
      </trkpt>
      <trkpt lat="44.52951" lon="6.4626">
        <ele>912.475057</ele>
        <time>2026-07-27T08:02:43.000Z</time>
      </trkpt>
      <trkpt lat="44.52948" lon="6.4626">
        <ele>912.954496</ele>
        <time>2026-07-27T08:02:44.000Z</time>
      </trkpt>
      <trkpt lat="44.52948" lon="6.4626">
        <ele>912.954496</ele>
        <time>2026-07-27T08:02:44.000Z</time>
      </trkpt>
      <trkpt lat="44.52947" lon="6.46261">
        <ele>913.34824</ele>
        <time>2026-07-27T08:02:45.000Z</time>
      </trkpt>
      <trkpt lat="44.52947" lon="6.46261">
        <ele>913.34824</ele>
        <time>2026-07-27T08:02:45.000Z</time>
      </trkpt>
      <trkpt lat="44.52945" lon="6.46261">
        <ele>913.687655</ele>
        <time>2026-07-27T08:02:46.000Z</time>
      </trkpt>
      <trkpt lat="44.52945" lon="6.46261">
        <ele>913.687655</ele>
        <time>2026-07-27T08:02:46.000Z</time>
      </trkpt>
      <trkpt lat="44.52941" lon="6.46262">
        <ele>914.471338</ele>
        <time>2026-07-27T08:02:46.000Z</time>
      </trkpt>
      <trkpt lat="44.52941" lon="6.46262">
        <ele>914.471338</ele>
        <time>2026-07-27T08:02:46.000Z</time>
      </trkpt>
      <trkpt lat="44.52938" lon="6.46262">
        <ele>915.088924</ele>
        <time>2026-07-27T08:02:48.000Z</time>
      </trkpt>
      <trkpt lat="44.52938" lon="6.46262">
        <ele>915.088924</ele>
        <time>2026-07-27T08:02:48.000Z</time>
      </trkpt>
      <trkpt lat="44.52936" lon="6.46263">
        <ele>915.56389</ele>
        <time>2026-07-27T08:02:49.000Z</time>
      </trkpt>
      <trkpt lat="44.52936" lon="6.46263">
        <ele>915.56389</ele>
        <time>2026-07-27T08:02:49.000Z</time>
      </trkpt>
      <trkpt lat="44.52934" lon="6.46264">
        <ele>916.053244</ele>
        <time>2026-07-27T08:02:50.000Z</time>
      </trkpt>
      <trkpt lat="44.52934" lon="6.46264">
        <ele>916.053244</ele>
        <time>2026-07-27T08:02:50.000Z</time>
      </trkpt>
      <trkpt lat="44.52932" lon="6.46264">
        <ele>916.455833</ele>
        <time>2026-07-27T08:02:51.000Z</time>
      </trkpt>
      <trkpt lat="44.52932" lon="6.46264">
        <ele>916.455833</ele>
        <time>2026-07-27T08:02:51.000Z</time>
      </trkpt>
      <trkpt lat="44.52929" lon="6.46266">
        <ele>917.123255</ele>
        <time>2026-07-27T08:02:52.000Z</time>
      </trkpt>
      <trkpt lat="44.52929" lon="6.46266">
        <ele>917.123255</ele>
        <time>2026-07-27T08:02:52.000Z</time>
      </trkpt>
      <trkpt lat="44.52926" lon="6.46267">
        <ele>917.672078</ele>
        <time>2026-07-27T08:02:53.000Z</time>
      </trkpt>
      <trkpt lat="44.52926" lon="6.46267">
        <ele>917.672078</ele>
        <time>2026-07-27T08:02:53.000Z</time>
      </trkpt>
      <trkpt lat="44.52923" lon="6.46267">
        <ele>918.232311</ele>
        <time>2026-07-27T08:02:54.000Z</time>
      </trkpt>
      <trkpt lat="44.52923" lon="6.46267">
        <ele>918.232311</ele>
        <time>2026-07-27T08:02:54.000Z</time>
      </trkpt>
      <trkpt lat="44.52921" lon="6.46268">
        <ele>918.792545</ele>
        <time>2026-07-27T08:02:55.000Z</time>
      </trkpt>
      <trkpt lat="44.52921" lon="6.46268">
        <ele>918.792545</ele>
        <time>2026-07-27T08:02:55.000Z</time>
      </trkpt>
      <trkpt lat="44.52918" lon="6.46268">
        <ele>919.408053</ele>
        <time>2026-07-27T08:02:55.000Z</time>
      </trkpt>
      <trkpt lat="44.52918" lon="6.46268">
        <ele>919.408053</ele>
        <time>2026-07-27T08:02:55.000Z</time>
      </trkpt>
      <trkpt lat="44.52915" lon="6.46268">
        <ele>919.880315</ele>
        <time>2026-07-27T08:02:57.000Z</time>
      </trkpt>
      <trkpt lat="44.52915" lon="6.46268">
        <ele>919.880315</ele>
        <time>2026-07-27T08:02:57.000Z</time>
      </trkpt>
      <trkpt lat="44.52912" lon="6.46269">
        <ele>920.446115</ele>
        <time>2026-07-27T08:02:58.000Z</time>
      </trkpt>
      <trkpt lat="44.52912" lon="6.46269">
        <ele>920.446115</ele>
        <time>2026-07-27T08:02:58.000Z</time>
      </trkpt>
      <trkpt lat="44.52909" lon="6.4627">
        <ele>920.880762</ele>
        <time>2026-07-27T08:02:59.000Z</time>
      </trkpt>
      <trkpt lat="44.52909" lon="6.4627">
        <ele>920.880762</ele>
        <time>2026-07-27T08:02:59.000Z</time>
      </trkpt>
      <trkpt lat="44.52907" lon="6.46271">
        <ele>921.206711</ele>
        <time>2026-07-27T08:03:00.000Z</time>
      </trkpt>
      <trkpt lat="44.52907" lon="6.46271">
        <ele>921.206711</ele>
        <time>2026-07-27T08:03:00.000Z</time>
      </trkpt>
      <trkpt lat="44.52904" lon="6.46273">
        <ele>921.666937</ele>
        <time>2026-07-27T08:03:01.000Z</time>
      </trkpt>
      <trkpt lat="44.52904" lon="6.46273">
        <ele>921.666937</ele>
        <time>2026-07-27T08:03:01.000Z</time>
      </trkpt>
      <trkpt lat="44.52901" lon="6.46274">
        <ele>922.117739</ele>
        <time>2026-07-27T08:03:01.000Z</time>
      </trkpt>
      <trkpt lat="44.52901" lon="6.46274">
        <ele>922.117739</ele>
        <time>2026-07-27T08:03:01.000Z</time>
      </trkpt>
      <trkpt lat="44.52898" lon="6.46276">
        <ele>922.574631</ele>
        <time>2026-07-27T08:03:03.000Z</time>
      </trkpt>
      <trkpt lat="44.52898" lon="6.46276">
        <ele>922.574631</ele>
        <time>2026-07-27T08:03:03.000Z</time>
      </trkpt>
      <trkpt lat="44.52895" lon="6.46277">
        <ele>922.970211</ele>
        <time>2026-07-27T08:03:04.000Z</time>
      </trkpt>
      <trkpt lat="44.52895" lon="6.46277">
        <ele>922.970211</ele>
        <time>2026-07-27T08:03:04.000Z</time>
      </trkpt>
      <trkpt lat="44.52892" lon="6.4628">
        <ele>923.426509</ele>
        <time>2026-07-27T08:03:05.000Z</time>
      </trkpt>
      <trkpt lat="44.52892" lon="6.4628">
        <ele>923.426509</ele>
        <time>2026-07-27T08:03:05.000Z</time>
      </trkpt>
      <trkpt lat="44.5289" lon="6.46282">
        <ele>923.871866</ele>
        <time>2026-07-27T08:03:06.000Z</time>
      </trkpt>
      <trkpt lat="44.5289" lon="6.46282">
        <ele>923.871866</ele>
        <time>2026-07-27T08:03:06.000Z</time>
      </trkpt>
      <trkpt lat="44.52888" lon="6.46285">
        <ele>924.208891</ele>
        <time>2026-07-27T08:03:07.000Z</time>
      </trkpt>
      <trkpt lat="44.52888" lon="6.46285">
        <ele>924.208891</ele>
        <time>2026-07-27T08:03:07.000Z</time>
      </trkpt>
      <trkpt lat="44.52885" lon="6.46287">
        <ele>924.67603</ele>
        <time>2026-07-27T08:03:08.000Z</time>
      </trkpt>
      <trkpt lat="44.52885" lon="6.46287">
        <ele>924.67603</ele>
        <time>2026-07-27T08:03:08.000Z</time>
      </trkpt>
      <trkpt lat="44.52882" lon="6.46288">
        <ele>925.033728</ele>
        <time>2026-07-27T08:03:08.000Z</time>
      </trkpt>
      <trkpt lat="44.52882" lon="6.46288">
        <ele>925.033728</ele>
        <time>2026-07-27T08:03:08.000Z</time>
      </trkpt>
      <trkpt lat="44.5288" lon="6.4629">
        <ele>925.431457</ele>
        <time>2026-07-27T08:03:10.000Z</time>
      </trkpt>
      <trkpt lat="44.5288" lon="6.4629">
        <ele>925.431457</ele>
        <time>2026-07-27T08:03:10.000Z</time>
      </trkpt>
      <trkpt lat="44.52877" lon="6.46291">
        <ele>925.773361</ele>
        <time>2026-07-27T08:03:11.000Z</time>
      </trkpt>
      <trkpt lat="44.52877" lon="6.46291">
        <ele>925.773361</ele>
        <time>2026-07-27T08:03:11.000Z</time>
      </trkpt>
      <trkpt lat="44.52875" lon="6.46292">
        <ele>926.168941</ele>
        <time>2026-07-27T08:03:12.000Z</time>
      </trkpt>
      <trkpt lat="44.52875" lon="6.46292">
        <ele>926.168941</ele>
        <time>2026-07-27T08:03:12.000Z</time>
      </trkpt>
      <trkpt lat="44.52873" lon="6.46294">
        <ele>926.531161</ele>
        <time>2026-07-27T08:03:13.000Z</time>
      </trkpt>
      <trkpt lat="44.52873" lon="6.46294">
        <ele>926.531161</ele>
        <time>2026-07-27T08:03:13.000Z</time>
      </trkpt>
      <trkpt lat="44.5287" lon="6.46295">
        <ele>926.880486</ele>
        <time>2026-07-27T08:03:14.000Z</time>
      </trkpt>
      <trkpt lat="44.5287" lon="6.46295">
        <ele>926.880486</ele>
        <time>2026-07-27T08:03:14.000Z</time>
      </trkpt>
      <trkpt lat="44.52868" lon="6.46297">
        <ele>927.242706</ele>
        <time>2026-07-27T08:03:15.000Z</time>
      </trkpt>
      <trkpt lat="44.52868" lon="6.46297">
        <ele>927.242706</ele>
        <time>2026-07-27T08:03:15.000Z</time>
      </trkpt>
      <trkpt lat="44.52866" lon="6.46298">
        <ele>927.537242</ele>
        <time>2026-07-27T08:03:16.000Z</time>
      </trkpt>
      <trkpt lat="44.52866" lon="6.46298">
        <ele>927.537242</ele>
        <time>2026-07-27T08:03:16.000Z</time>
      </trkpt>
      <trkpt lat="44.52864" lon="6.463">
        <ele>927.890639</ele>
        <time>2026-07-27T08:03:17.000Z</time>
      </trkpt>
      <trkpt lat="44.52864" lon="6.463">
        <ele>927.890639</ele>
        <time>2026-07-27T08:03:17.000Z</time>
      </trkpt>
      <trkpt lat="44.52861" lon="6.46301">
        <ele>928.295254</ele>
        <time>2026-07-27T08:03:18.000Z</time>
      </trkpt>
      <trkpt lat="44.52861" lon="6.46301">
        <ele>928.295254</ele>
        <time>2026-07-27T08:03:18.000Z</time>
      </trkpt>
      <trkpt lat="44.52859" lon="6.46303">
        <ele>928.609246</ele>
        <time>2026-07-27T08:03:19.000Z</time>
      </trkpt>
      <trkpt lat="44.52859" lon="6.46303">
        <ele>928.609246</ele>
        <time>2026-07-27T08:03:19.000Z</time>
      </trkpt>
      <trkpt lat="44.52857" lon="6.46304">
        <ele>928.89563</ele>
        <time>2026-07-27T08:03:20.000Z</time>
      </trkpt>
      <trkpt lat="44.52857" lon="6.46304">
        <ele>928.89563</ele>
        <time>2026-07-27T08:03:20.000Z</time>
      </trkpt>
      <trkpt lat="44.52855" lon="6.46306">
        <ele>929.249027</ele>
        <time>2026-07-27T08:03:21.000Z</time>
      </trkpt>
      <trkpt lat="44.52855" lon="6.46306">
        <ele>929.249027</ele>
        <time>2026-07-27T08:03:21.000Z</time>
      </trkpt>
      <trkpt lat="44.52852" lon="6.46307">
        <ele>929.643644</ele>
        <time>2026-07-27T08:03:22.000Z</time>
      </trkpt>
      <trkpt lat="44.52852" lon="6.46307">
        <ele>929.643644</ele>
        <time>2026-07-27T08:03:22.000Z</time>
      </trkpt>
      <trkpt lat="44.5285" lon="6.46308">
        <ele>929.976253</ele>
        <time>2026-07-27T08:03:23.000Z</time>
      </trkpt>
      <trkpt lat="44.5285" lon="6.46308">
        <ele>929.976253</ele>
        <time>2026-07-27T08:03:23.000Z</time>
      </trkpt>
      <trkpt lat="44.52848" lon="6.46309">
        <ele>930.314822</ele>
        <time>2026-07-27T08:03:24.000Z</time>
      </trkpt>
      <trkpt lat="44.52848" lon="6.46309">
        <ele>930.314822</ele>
        <time>2026-07-27T08:03:24.000Z</time>
      </trkpt>
      <trkpt lat="44.52846" lon="6.4631">
        <ele>930.551486</ele>
        <time>2026-07-27T08:03:25.000Z</time>
      </trkpt>
      <trkpt lat="44.52846" lon="6.4631">
        <ele>930.551486</ele>
        <time>2026-07-27T08:03:25.000Z</time>
      </trkpt>
      <trkpt lat="44.52844" lon="6.46311">
        <ele>930.873699</ele>
        <time>2026-07-27T08:03:26.000Z</time>
      </trkpt>
      <trkpt lat="44.52844" lon="6.46311">
        <ele>930.873699</ele>
        <time>2026-07-27T08:03:26.000Z</time>
      </trkpt>
      <trkpt lat="44.52842" lon="6.46312">
        <ele>931.166343</ele>
        <time>2026-07-27T08:03:27.000Z</time>
      </trkpt>
      <trkpt lat="44.52842" lon="6.46312">
        <ele>931.166343</ele>
        <time>2026-07-27T08:03:27.000Z</time>
      </trkpt>
      <trkpt lat="44.5284" lon="6.46313">
        <ele>931.482997</ele>
        <time>2026-07-27T08:03:28.000Z</time>
      </trkpt>
      <trkpt lat="44.5284" lon="6.46313">
        <ele>931.482997</ele>
        <time>2026-07-27T08:03:28.000Z</time>
      </trkpt>
      <trkpt lat="44.52838" lon="6.46313">
        <ele>931.713751</ele>
        <time>2026-07-27T08:03:29.000Z</time>
      </trkpt>
      <trkpt lat="44.52838" lon="6.46313">
        <ele>931.713751</ele>
        <time>2026-07-27T08:03:29.000Z</time>
      </trkpt>
      <trkpt lat="44.52836" lon="6.46315">
        <ele>932.000135</ele>
        <time>2026-07-27T08:03:30.000Z</time>
      </trkpt>
      <trkpt lat="44.52836" lon="6.46315">
        <ele>932.000135</ele>
        <time>2026-07-27T08:03:30.000Z</time>
      </trkpt>
      <trkpt lat="44.52834" lon="6.46316">
        <ele>932.294672</ele>
        <time>2026-07-27T08:03:31.000Z</time>
      </trkpt>
      <trkpt lat="44.52834" lon="6.46316">
        <ele>932.294672</ele>
        <time>2026-07-27T08:03:31.000Z</time>
      </trkpt>
      <trkpt lat="44.52833" lon="6.46317">
        <ele>932.535264</ele>
        <time>2026-07-27T08:03:32.000Z</time>
      </trkpt>
      <trkpt lat="44.52833" lon="6.46317">
        <ele>932.535264</ele>
        <time>2026-07-27T08:03:32.000Z</time>
      </trkpt>
      <trkpt lat="44.52831" lon="6.46318">
        <ele>932.877168</ele>
        <time>2026-07-27T08:03:33.000Z</time>
      </trkpt>
      <trkpt lat="44.52831" lon="6.46318">
        <ele>932.877168</ele>
        <time>2026-07-27T08:03:33.000Z</time>
      </trkpt>
      <trkpt lat="44.52828" lon="6.46319">
        <ele>933.271785</ele>
        <time>2026-07-27T08:03:34.000Z</time>
      </trkpt>
      <trkpt lat="44.52828" lon="6.46319">
        <ele>933.271785</ele>
        <time>2026-07-27T08:03:34.000Z</time>
      </trkpt>
      <trkpt lat="44.52826" lon="6.46321">
        <ele>933.562104</ele>
        <time>2026-07-27T08:03:35.000Z</time>
      </trkpt>
      <trkpt lat="44.52826" lon="6.46321">
        <ele>933.562104</ele>
        <time>2026-07-27T08:03:35.000Z</time>
      </trkpt>
      <trkpt lat="44.52823" lon="6.46322">
        <ele>933.994133</ele>
        <time>2026-07-27T08:03:36.000Z</time>
      </trkpt>
      <trkpt lat="44.52823" lon="6.46322">
        <ele>933.994133</ele>
        <time>2026-07-27T08:03:36.000Z</time>
      </trkpt>
      <trkpt lat="44.5282" lon="6.46323">
        <ele>934.383211</ele>
        <time>2026-07-27T08:03:37.000Z</time>
      </trkpt>
      <trkpt lat="44.5282" lon="6.46323">
        <ele>934.383211</ele>
        <time>2026-07-27T08:03:37.000Z</time>
      </trkpt>
      <trkpt lat="44.52818" lon="6.46324">
        <ele>934.71337</ele>
        <time>2026-07-27T08:03:38.000Z</time>
      </trkpt>
      <trkpt lat="44.52818" lon="6.46324">
        <ele>934.71337</ele>
        <time>2026-07-27T08:03:38.000Z</time>
      </trkpt>
      <trkpt lat="44.52816" lon="6.46324">
        <ele>934.99278</ele>
        <time>2026-07-27T08:03:39.000Z</time>
      </trkpt>
      <trkpt lat="44.52816" lon="6.46324">
        <ele>934.99278</ele>
        <time>2026-07-27T08:03:39.000Z</time>
      </trkpt>
      <trkpt lat="44.52814" lon="6.46326">
        <ele>935.346177</ele>
        <time>2026-07-27T08:03:40.000Z</time>
      </trkpt>
      <trkpt lat="44.52814" lon="6.46326">
        <ele>935.346177</ele>
        <time>2026-07-27T08:03:40.000Z</time>
      </trkpt>
      <trkpt lat="44.52812" lon="6.46328">
        <ele>935.677149</ele>
        <time>2026-07-27T08:03:41.000Z</time>
      </trkpt>
      <trkpt lat="44.52812" lon="6.46328">
        <ele>935.677149</ele>
        <time>2026-07-27T08:03:41.000Z</time>
      </trkpt>
      <trkpt lat="44.5281" lon="6.46329">
        <ele>935.933813</ele>
        <time>2026-07-27T08:03:42.000Z</time>
      </trkpt>
      <trkpt lat="44.5281" lon="6.46329">
        <ele>935.933813</ele>
        <time>2026-07-27T08:03:42.000Z</time>
      </trkpt>
      <trkpt lat="44.52809" lon="6.46331">
        <ele>936.190477</ele>
        <time>2026-07-27T08:03:43.000Z</time>
      </trkpt>
      <trkpt lat="44.52809" lon="6.46331">
        <ele>936.190477</ele>
        <time>2026-07-27T08:03:43.000Z</time>
      </trkpt>
      <trkpt lat="44.52807" lon="6.46332">
        <ele>936.529046</ele>
        <time>2026-07-27T08:03:44.000Z</time>
      </trkpt>
      <trkpt lat="44.52807" lon="6.46332">
        <ele>936.529046</ele>
        <time>2026-07-27T08:03:44.000Z</time>
      </trkpt>
      <trkpt lat="44.52805" lon="6.46334">
        <ele>936.832817</ele>
        <time>2026-07-27T08:03:45.000Z</time>
      </trkpt>
      <trkpt lat="44.52805" lon="6.46334">
        <ele>936.832817</ele>
        <time>2026-07-27T08:03:45.000Z</time>
      </trkpt>
      <trkpt lat="44.52802" lon="6.46335">
        <ele>937.230547</ele>
        <time>2026-07-27T08:03:46.000Z</time>
      </trkpt>
      <trkpt lat="44.52802" lon="6.46335">
        <ele>937.230547</ele>
        <time>2026-07-27T08:03:46.000Z</time>
      </trkpt>
      <trkpt lat="44.528" lon="6.46336">
        <ele>937.572451</ele>
        <time>2026-07-27T08:03:47.000Z</time>
      </trkpt>
      <trkpt lat="44.528" lon="6.46336">
        <ele>937.572451</ele>
        <time>2026-07-27T08:03:47.000Z</time>
      </trkpt>
      <trkpt lat="44.52797" lon="6.46337">
        <ele>937.973516</ele>
        <time>2026-07-27T08:03:48.000Z</time>
      </trkpt>
      <trkpt lat="44.52797" lon="6.46337">
        <ele>937.973516</ele>
        <time>2026-07-27T08:03:48.000Z</time>
      </trkpt>
      <trkpt lat="44.52794" lon="6.46339">
        <ele>938.354874</ele>
        <time>2026-07-27T08:03:49.000Z</time>
      </trkpt>
      <trkpt lat="44.52794" lon="6.46339">
        <ele>938.354874</ele>
        <time>2026-07-27T08:03:49.000Z</time>
      </trkpt>
      <trkpt lat="44.52792" lon="6.4634">
        <ele>938.645194</ele>
        <time>2026-07-27T08:03:50.000Z</time>
      </trkpt>
      <trkpt lat="44.52792" lon="6.4634">
        <ele>938.645194</ele>
        <time>2026-07-27T08:03:50.000Z</time>
      </trkpt>
      <trkpt lat="44.5279" lon="6.46341">
        <ele>938.99452</ele>
        <time>2026-07-27T08:03:51.000Z</time>
      </trkpt>
      <trkpt lat="44.5279" lon="6.46341">
        <ele>938.99452</ele>
        <time>2026-07-27T08:03:51.000Z</time>
      </trkpt>
      <trkpt lat="44.52788" lon="6.46343">
        <ele>939.361477</ele>
        <time>2026-07-27T08:03:52.000Z</time>
      </trkpt>
      <trkpt lat="44.52788" lon="6.46343">
        <ele>939.361477</ele>
        <time>2026-07-27T08:03:52.000Z</time>
      </trkpt>
      <trkpt lat="44.52786" lon="6.46345">
        <ele>939.728434</ele>
        <time>2026-07-27T08:03:53.000Z</time>
      </trkpt>
      <trkpt lat="44.52786" lon="6.46345">
        <ele>939.728434</ele>
        <time>2026-07-27T08:03:53.000Z</time>
      </trkpt>
      <trkpt lat="44.52784" lon="6.46348">
        <ele>940.119653</ele>
        <time>2026-07-27T08:03:53.000Z</time>
      </trkpt>
      <trkpt lat="44.52784" lon="6.46348">
        <ele>940.119653</ele>
        <time>2026-07-27T08:03:53.000Z</time>
      </trkpt>
      <trkpt lat="44.52781" lon="6.46351">
        <ele>940.578055</ele>
        <time>2026-07-27T08:03:55.000Z</time>
      </trkpt>
      <trkpt lat="44.52781" lon="6.46351">
        <ele>940.578055</ele>
        <time>2026-07-27T08:03:55.000Z</time>
      </trkpt>
      <trkpt lat="44.5278" lon="6.46354">
        <ele>940.918058</ele>
        <time>2026-07-27T08:03:55.000Z</time>
      </trkpt>
      <trkpt lat="44.5278" lon="6.46354">
        <ele>940.918058</ele>
        <time>2026-07-27T08:03:55.000Z</time>
      </trkpt>
      <trkpt lat="44.52778" lon="6.46357">
        <ele>941.316648</ele>
        <time>2026-07-27T08:03:57.000Z</time>
      </trkpt>
      <trkpt lat="44.52778" lon="6.46357">
        <ele>941.316648</ele>
        <time>2026-07-27T08:03:57.000Z</time>
      </trkpt>
      <trkpt lat="44.52776" lon="6.4636">
        <ele>941.673083</ele>
        <time>2026-07-27T08:03:57.000Z</time>
      </trkpt>
      <trkpt lat="44.52776" lon="6.4636">
        <ele>941.673083</ele>
        <time>2026-07-27T08:03:57.000Z</time>
      </trkpt>
      <trkpt lat="44.52775" lon="6.46363">
        <ele>942.08726</ele>
        <time>2026-07-27T08:03:59.000Z</time>
      </trkpt>
      <trkpt lat="44.52775" lon="6.46363">
        <ele>942.08726</ele>
        <time>2026-07-27T08:03:59.000Z</time>
      </trkpt>
      <trkpt lat="44.52774" lon="6.46367">
        <ele>942.467193</ele>
        <time>2026-07-27T08:03:59.000Z</time>
      </trkpt>
      <trkpt lat="44.52774" lon="6.46367">
        <ele>942.467193</ele>
        <time>2026-07-27T08:03:59.000Z</time>
      </trkpt>
      <trkpt lat="44.52773" lon="6.4637">
        <ele>942.844031</ele>
        <time>2026-07-27T08:04:01.000Z</time>
      </trkpt>
      <trkpt lat="44.52773" lon="6.4637">
        <ele>942.844031</ele>
        <time>2026-07-27T08:04:01.000Z</time>
      </trkpt>
      <trkpt lat="44.52772" lon="6.46373">
        <ele>943.156952</ele>
        <time>2026-07-27T08:04:01.000Z</time>
      </trkpt>
      <trkpt lat="44.52772" lon="6.46373">
        <ele>943.156952</ele>
        <time>2026-07-27T08:04:01.000Z</time>
      </trkpt>
      <trkpt lat="44.52771" lon="6.46377">
        <ele>943.556422</ele>
        <time>2026-07-27T08:04:03.000Z</time>
      </trkpt>
      <trkpt lat="44.52771" lon="6.46377">
        <ele>943.556422</ele>
        <time>2026-07-27T08:04:03.000Z</time>
      </trkpt>
      <trkpt lat="44.52771" lon="6.46381">
        <ele>943.928139</ele>
        <time>2026-07-27T08:04:03.000Z</time>
      </trkpt>
      <trkpt lat="44.52771" lon="6.46381">
        <ele>943.928139</ele>
        <time>2026-07-27T08:04:03.000Z</time>
      </trkpt>
      <trkpt lat="44.52771" lon="6.46385">
        <ele>944.325453</ele>
        <time>2026-07-27T08:04:05.000Z</time>
      </trkpt>
      <trkpt lat="44.52771" lon="6.46385">
        <ele>944.325453</ele>
        <time>2026-07-27T08:04:05.000Z</time>
      </trkpt>
      <trkpt lat="44.52771" lon="6.46388">
        <ele>944.687353</ele>
        <time>2026-07-27T08:04:05.000Z</time>
      </trkpt>
      <trkpt lat="44.52771" lon="6.46388">
        <ele>944.687353</ele>
        <time>2026-07-27T08:04:05.000Z</time>
      </trkpt>
      <trkpt lat="44.5277" lon="6.46392">
        <ele>945.010053</ele>
        <time>2026-07-27T08:04:07.000Z</time>
      </trkpt>
      <trkpt lat="44.5277" lon="6.46392">
        <ele>945.010053</ele>
        <time>2026-07-27T08:04:07.000Z</time>
      </trkpt>
      <trkpt lat="44.5277" lon="6.46395">
        <ele>945.329088</ele>
        <time>2026-07-27T08:04:07.000Z</time>
      </trkpt>
      <trkpt lat="44.5277" lon="6.46395">
        <ele>945.329088</ele>
        <time>2026-07-27T08:04:07.000Z</time>
      </trkpt>
      <trkpt lat="44.5277" lon="6.46399">
        <ele>945.632971</ele>
        <time>2026-07-27T08:04:09.000Z</time>
      </trkpt>
      <trkpt lat="44.5277" lon="6.46399">
        <ele>945.632971</ele>
        <time>2026-07-27T08:04:09.000Z</time>
      </trkpt>
      <trkpt lat="44.5277" lon="6.46403">
        <ele>945.991396</ele>
        <time>2026-07-27T08:04:10.000Z</time>
      </trkpt>
      <trkpt lat="44.5277" lon="6.46403">
        <ele>945.991396</ele>
        <time>2026-07-27T08:04:10.000Z</time>
      </trkpt>
      <trkpt lat="44.5277" lon="6.46407">
        <ele>946.271903</ele>
        <time>2026-07-27T08:04:11.000Z</time>
      </trkpt>
      <trkpt lat="44.5277" lon="6.46407">
        <ele>946.271903</ele>
        <time>2026-07-27T08:04:11.000Z</time>
      </trkpt>
      <trkpt lat="44.52771" lon="6.46411">
        <ele>946.59283</ele>
        <time>2026-07-27T08:04:12.000Z</time>
      </trkpt>
      <trkpt lat="44.52771" lon="6.46411">
        <ele>946.59283</ele>
        <time>2026-07-27T08:04:12.000Z</time>
      </trkpt>
      <trkpt lat="44.52771" lon="6.46415">
        <ele>946.899841</ele>
        <time>2026-07-27T08:04:13.000Z</time>
      </trkpt>
      <trkpt lat="44.52771" lon="6.46415">
        <ele>946.899841</ele>
        <time>2026-07-27T08:04:13.000Z</time>
      </trkpt>
      <trkpt lat="44.52772" lon="6.46418">
        <ele>947.18623</ele>
        <time>2026-07-27T08:04:14.000Z</time>
      </trkpt>
      <trkpt lat="44.52772" lon="6.46423">
        <ele>947.529071</ele>
        <time>2026-07-27T08:04:15.000Z</time>
      </trkpt>
      <trkpt lat="44.52772" lon="6.46423">
        <ele>947.529071</ele>
        <time>2026-07-27T08:04:15.000Z</time>
      </trkpt>
      <trkpt lat="44.52772" lon="6.46427">
        <ele>947.857968</ele>
        <time>2026-07-27T08:04:16.000Z</time>
      </trkpt>
      <trkpt lat="44.52772" lon="6.46427">
        <ele>947.857968</ele>
        <time>2026-07-27T08:04:16.000Z</time>
      </trkpt>
      <trkpt lat="44.52773" lon="6.46431">
        <ele>948.219049</ele>
        <time>2026-07-27T08:04:17.000Z</time>
      </trkpt>
      <trkpt lat="44.52773" lon="6.46436">
        <ele>948.564667</ele>
        <time>2026-07-27T08:04:18.000Z</time>
      </trkpt>
      <trkpt lat="44.52773" lon="6.46436">
        <ele>948.564667</ele>
        <time>2026-07-27T08:04:18.000Z</time>
      </trkpt>
      <trkpt lat="44.52773" lon="6.46441">
        <ele>948.962051</ele>
        <time>2026-07-27T08:04:19.000Z</time>
      </trkpt>
      <trkpt lat="44.52773" lon="6.46441">
        <ele>948.962051</ele>
        <time>2026-07-27T08:04:19.000Z</time>
      </trkpt>
      <trkpt lat="44.52773" lon="6.46445">
        <ele>949.289309</ele>
        <time>2026-07-27T08:04:20.000Z</time>
      </trkpt>
      <trkpt lat="44.52773" lon="6.4645">
        <ele>949.655526</ele>
        <time>2026-07-27T08:04:21.000Z</time>
      </trkpt>
      <trkpt lat="44.52773" lon="6.4645">
        <ele>949.655526</ele>
        <time>2026-07-27T08:04:21.000Z</time>
      </trkpt>
      <trkpt lat="44.52773" lon="6.46454">
        <ele>949.985691</ele>
        <time>2026-07-27T08:04:22.000Z</time>
      </trkpt>
      <trkpt lat="44.52773" lon="6.46454">
        <ele>949.985691</ele>
        <time>2026-07-27T08:04:22.000Z</time>
      </trkpt>
      <trkpt lat="44.52772" lon="6.46458">
        <ele>950.331309</ele>
        <time>2026-07-27T08:04:23.000Z</time>
      </trkpt>
      <trkpt lat="44.52772" lon="6.46463">
        <ele>950.675715</ele>
        <time>2026-07-27T08:04:24.000Z</time>
      </trkpt>
      <trkpt lat="44.52772" lon="6.46463">
        <ele>950.675715</ele>
        <time>2026-07-27T08:04:24.000Z</time>
      </trkpt>
      <trkpt lat="44.52771" lon="6.46467">
        <ele>951.029063</ele>
        <time>2026-07-27T08:04:25.000Z</time>
      </trkpt>
      <trkpt lat="44.52771" lon="6.46467">
        <ele>951.029063</ele>
        <time>2026-07-27T08:04:25.000Z</time>
      </trkpt>
      <trkpt lat="44.52771" lon="6.46471">
        <ele>951.30957</ele>
        <time>2026-07-27T08:04:26.000Z</time>
      </trkpt>
      <trkpt lat="44.52771" lon="6.46471">
        <ele>951.30957</ele>
        <time>2026-07-27T08:04:26.000Z</time>
      </trkpt>
      <trkpt lat="44.5277" lon="6.46475">
        <ele>951.669376</ele>
        <time>2026-07-27T08:04:27.000Z</time>
      </trkpt>
      <trkpt lat="44.5277" lon="6.46475">
        <ele>951.669376</ele>
        <time>2026-07-27T08:04:27.000Z</time>
      </trkpt>
      <trkpt lat="44.5277" lon="6.46479">
        <ele>951.967276</ele>
        <time>2026-07-27T08:04:28.000Z</time>
      </trkpt>
      <trkpt lat="44.5277" lon="6.46479">
        <ele>951.967276</ele>
        <time>2026-07-27T08:04:28.000Z</time>
      </trkpt>
      <trkpt lat="44.52769" lon="6.46483">
        <ele>952.313547</ele>
        <time>2026-07-27T08:04:29.000Z</time>
      </trkpt>
      <trkpt lat="44.52769" lon="6.46488">
        <ele>952.651437</ele>
        <time>2026-07-27T08:04:30.000Z</time>
      </trkpt>
      <trkpt lat="44.52769" lon="6.46488">
        <ele>952.651437</ele>
        <time>2026-07-27T08:04:30.000Z</time>
      </trkpt>
      <trkpt lat="44.52768" lon="6.46492">
        <ele>952.958448</ele>
        <time>2026-07-27T08:04:31.000Z</time>
      </trkpt>
      <trkpt lat="44.52768" lon="6.46492">
        <ele>952.958448</ele>
        <time>2026-07-27T08:04:31.000Z</time>
      </trkpt>
      <trkpt lat="44.52768" lon="6.46496">
        <ele>953.31953</ele>
        <time>2026-07-27T08:04:32.000Z</time>
      </trkpt>
      <trkpt lat="44.52768" lon="6.46496">
        <ele>953.31953</ele>
        <time>2026-07-27T08:04:32.000Z</time>
      </trkpt>
      <trkpt lat="44.52767" lon="6.465">
        <ele>953.655613</ele>
        <time>2026-07-27T08:04:33.000Z</time>
      </trkpt>
      <trkpt lat="44.52767" lon="6.465">
        <ele>953.655613</ele>
        <time>2026-07-27T08:04:33.000Z</time>
      </trkpt>
      <trkpt lat="44.52766" lon="6.46504">
        <ele>953.919839</ele>
        <time>2026-07-27T08:04:34.000Z</time>
      </trkpt>
      <trkpt lat="44.52766" lon="6.46504">
        <ele>953.919839</ele>
        <time>2026-07-27T08:04:34.000Z</time>
      </trkpt>
      <trkpt lat="44.52766" lon="6.46507">
        <ele>954.218116</ele>
        <time>2026-07-27T08:04:35.000Z</time>
      </trkpt>
      <trkpt lat="44.52766" lon="6.46507">
        <ele>954.218116</ele>
        <time>2026-07-27T08:04:35.000Z</time>
      </trkpt>
      <trkpt lat="44.52765" lon="6.46511">
        <ele>954.549094</ele>
        <time>2026-07-27T08:04:36.000Z</time>
      </trkpt>
      <trkpt lat="44.52765" lon="6.46511">
        <ele>954.549094</ele>
        <time>2026-07-27T08:04:36.000Z</time>
      </trkpt>
      <trkpt lat="44.52764" lon="6.46515">
        <ele>954.825292</ele>
        <time>2026-07-27T08:04:37.000Z</time>
      </trkpt>
      <trkpt lat="44.52764" lon="6.46515">
        <ele>954.825292</ele>
        <time>2026-07-27T08:04:37.000Z</time>
      </trkpt>
      <trkpt lat="44.52763" lon="6.46519">
        <ele>955.173935</ele>
        <time>2026-07-27T08:04:38.000Z</time>
      </trkpt>
      <trkpt lat="44.52763" lon="6.46519">
        <ele>955.173935</ele>
        <time>2026-07-27T08:04:38.000Z</time>
      </trkpt>
      <trkpt lat="44.52762" lon="6.46523">
        <ele>955.497642</ele>
        <time>2026-07-27T08:04:39.000Z</time>
      </trkpt>
      <trkpt lat="44.52762" lon="6.46523">
        <ele>955.497642</ele>
        <time>2026-07-27T08:04:39.000Z</time>
      </trkpt>
      <trkpt lat="44.52762" lon="6.46527">
        <ele>955.826142</ele>
        <time>2026-07-27T08:04:40.000Z</time>
      </trkpt>
      <trkpt lat="44.52762" lon="6.46527">
        <ele>955.826142</ele>
        <time>2026-07-27T08:04:40.000Z</time>
      </trkpt>
      <trkpt lat="44.5276" lon="6.46531">
        <ele>956.193215</ele>
        <time>2026-07-27T08:04:41.000Z</time>
      </trkpt>
      <trkpt lat="44.5276" lon="6.46531">
        <ele>956.193215</ele>
        <time>2026-07-27T08:04:41.000Z</time>
      </trkpt>
      <trkpt lat="44.52759" lon="6.46535">
        <ele>956.512784</ele>
        <time>2026-07-27T08:04:42.000Z</time>
      </trkpt>
      <trkpt lat="44.52759" lon="6.46535">
        <ele>956.512784</ele>
        <time>2026-07-27T08:04:42.000Z</time>
      </trkpt>
      <trkpt lat="44.52758" lon="6.46539">
        <ele>956.85093</ele>
        <time>2026-07-27T08:04:43.000Z</time>
      </trkpt>
      <trkpt lat="44.52758" lon="6.46539">
        <ele>956.85093</ele>
        <time>2026-07-27T08:04:43.000Z</time>
      </trkpt>
      <trkpt lat="44.52757" lon="6.46543">
        <ele>957.177731</ele>
        <time>2026-07-27T08:04:44.000Z</time>
      </trkpt>
      <trkpt lat="44.52757" lon="6.46543">
        <ele>957.177731</ele>
        <time>2026-07-27T08:04:44.000Z</time>
      </trkpt>
      <trkpt lat="44.52757" lon="6.46546">
        <ele>957.430875</ele>
        <time>2026-07-27T08:04:45.000Z</time>
      </trkpt>
      <trkpt lat="44.52757" lon="6.46546">
        <ele>957.430875</ele>
        <time>2026-07-27T08:04:45.000Z</time>
      </trkpt>
      <trkpt lat="44.52756" lon="6.4655">
        <ele>957.709855</ele>
        <time>2026-07-27T08:04:46.000Z</time>
      </trkpt>
      <trkpt lat="44.52756" lon="6.4655">
        <ele>957.709855</ele>
        <time>2026-07-27T08:04:46.000Z</time>
      </trkpt>
      <trkpt lat="44.52755" lon="6.46553">
        <ele>957.961342</ele>
        <time>2026-07-27T08:04:47.000Z</time>
      </trkpt>
      <trkpt lat="44.52755" lon="6.46553">
        <ele>957.961342</ele>
        <time>2026-07-27T08:04:47.000Z</time>
      </trkpt>
      <trkpt lat="44.52755" lon="6.46556">
        <ele>958.240322</ele>
        <time>2026-07-27T08:04:48.000Z</time>
      </trkpt>
      <trkpt lat="44.52755" lon="6.46556">
        <ele>958.240322</ele>
        <time>2026-07-27T08:04:48.000Z</time>
      </trkpt>
      <trkpt lat="44.52754" lon="6.46561">
        <ele>958.624619</ele>
        <time>2026-07-27T08:04:49.000Z</time>
      </trkpt>
      <trkpt lat="44.52754" lon="6.46561">
        <ele>958.624619</ele>
        <time>2026-07-27T08:04:49.000Z</time>
      </trkpt>
      <trkpt lat="44.52753" lon="6.46566">
        <ele>958.985991</ele>
        <time>2026-07-27T08:04:50.000Z</time>
      </trkpt>
      <trkpt lat="44.52753" lon="6.46566">
        <ele>958.985991</ele>
        <time>2026-07-27T08:04:50.000Z</time>
      </trkpt>
      <trkpt lat="44.52752" lon="6.46571">
        <ele>959.386274</ele>
        <time>2026-07-27T08:04:51.000Z</time>
      </trkpt>
      <trkpt lat="44.52752" lon="6.46571">
        <ele>959.386274</ele>
        <time>2026-07-27T08:04:51.000Z</time>
      </trkpt>
      <trkpt lat="44.52752" lon="6.46575">
        <ele>959.709982</ele>
        <time>2026-07-27T08:04:52.000Z</time>
      </trkpt>
      <trkpt lat="44.52752" lon="6.46575">
        <ele>959.709982</ele>
        <time>2026-07-27T08:04:52.000Z</time>
      </trkpt>
      <trkpt lat="44.52751" lon="6.46579">
        <ele>960.053657</ele>
        <time>2026-07-27T08:04:53.000Z</time>
      </trkpt>
      <trkpt lat="44.52751" lon="6.46579">
        <ele>960.053657</ele>
        <time>2026-07-27T08:04:53.000Z</time>
      </trkpt>
      <trkpt lat="44.5275" lon="6.46583">
        <ele>960.406219</ele>
        <time>2026-07-27T08:04:54.000Z</time>
      </trkpt>
      <trkpt lat="44.5275" lon="6.46583">
        <ele>960.406219</ele>
        <time>2026-07-27T08:04:54.000Z</time>
      </trkpt>
      <trkpt lat="44.52749" lon="6.46587">
        <ele>960.696974</ele>
        <time>2026-07-27T08:04:55.000Z</time>
      </trkpt>
      <trkpt lat="44.52749" lon="6.46587">
        <ele>960.696974</ele>
        <time>2026-07-27T08:04:55.000Z</time>
      </trkpt>
      <trkpt lat="44.52747" lon="6.46591">
        <ele>961.068025</ele>
        <time>2026-07-27T08:04:56.000Z</time>
      </trkpt>
      <trkpt lat="44.52747" lon="6.46591">
        <ele>961.068025</ele>
        <time>2026-07-27T08:04:56.000Z</time>
      </trkpt>
      <trkpt lat="44.52746" lon="6.46594">
        <ele>961.392929</ele>
        <time>2026-07-27T08:04:57.000Z</time>
      </trkpt>
      <trkpt lat="44.52746" lon="6.46594">
        <ele>961.392929</ele>
        <time>2026-07-27T08:04:57.000Z</time>
      </trkpt>
      <trkpt lat="44.52745" lon="6.46598">
        <ele>961.669741</ele>
        <time>2026-07-27T08:04:58.000Z</time>
      </trkpt>
      <trkpt lat="44.52745" lon="6.46598">
        <ele>961.669741</ele>
        <time>2026-07-27T08:04:58.000Z</time>
      </trkpt>
      <trkpt lat="44.52743" lon="6.46601">
        <ele>962.012521</ele>
        <time>2026-07-27T08:04:59.000Z</time>
      </trkpt>
      <trkpt lat="44.52743" lon="6.46601">
        <ele>962.012521</ele>
        <time>2026-07-27T08:04:59.000Z</time>
      </trkpt>
      <trkpt lat="44.52741" lon="6.46604">
        <ele>962.331064</ele>
        <time>2026-07-27T08:05:00.000Z</time>
      </trkpt>
      <trkpt lat="44.52741" lon="6.46604">
        <ele>962.331064</ele>
        <time>2026-07-27T08:05:00.000Z</time>
      </trkpt>
      <trkpt lat="44.52739" lon="6.46606">
        <ele>962.555234</ele>
        <time>2026-07-27T08:05:01.000Z</time>
      </trkpt>
      <trkpt lat="44.52739" lon="6.46606">
        <ele>962.555234</ele>
        <time>2026-07-27T08:05:01.000Z</time>
      </trkpt>
      <trkpt lat="44.52738" lon="6.46608">
        <ele>962.739965</ele>
        <time>2026-07-27T08:05:02.000Z</time>
      </trkpt>
      <trkpt lat="44.52738" lon="6.46608">
        <ele>962.739965</ele>
        <time>2026-07-27T08:05:02.000Z</time>
      </trkpt>
      <trkpt lat="44.52736" lon="6.4661">
        <ele>963.035732</ele>
        <time>2026-07-27T08:05:03.000Z</time>
      </trkpt>
      <trkpt lat="44.52736" lon="6.4661">
        <ele>963.035732</ele>
        <time>2026-07-27T08:05:03.000Z</time>
      </trkpt>
      <trkpt lat="44.52734" lon="6.46612">
        <ele>963.251484</ele>
        <time>2026-07-27T08:05:04.000Z</time>
      </trkpt>
      <trkpt lat="44.52734" lon="6.46612">
        <ele>963.251484</ele>
        <time>2026-07-27T08:05:04.000Z</time>
      </trkpt>
      <trkpt lat="44.52731" lon="6.46614">
        <ele>963.63478</ele>
        <time>2026-07-27T08:05:05.000Z</time>
      </trkpt>
      <trkpt lat="44.52731" lon="6.46614">
        <ele>963.63478</ele>
        <time>2026-07-27T08:05:05.000Z</time>
      </trkpt>
      <trkpt lat="44.52728" lon="6.46616">
        <ele>964.004775</ele>
        <time>2026-07-27T08:05:06.000Z</time>
      </trkpt>
      <trkpt lat="44.52728" lon="6.46616">
        <ele>964.004775</ele>
        <time>2026-07-27T08:05:06.000Z</time>
      </trkpt>
      <trkpt lat="44.52725" lon="6.46618">
        <ele>964.363186</ele>
        <time>2026-07-27T08:05:07.000Z</time>
      </trkpt>
      <trkpt lat="44.52725" lon="6.46618">
        <ele>964.363186</ele>
        <time>2026-07-27T08:05:07.000Z</time>
      </trkpt>
      <trkpt lat="44.52722" lon="6.46619">
        <ele>964.748352</ele>
        <time>2026-07-27T08:05:08.000Z</time>
      </trkpt>
      <trkpt lat="44.52722" lon="6.46619">
        <ele>964.748352</ele>
        <time>2026-07-27T08:05:08.000Z</time>
      </trkpt>
      <trkpt lat="44.52719" lon="6.4662">
        <ele>965.139998</ele>
        <time>2026-07-27T08:05:09.000Z</time>
      </trkpt>
      <trkpt lat="44.52719" lon="6.4662">
        <ele>965.139998</ele>
        <time>2026-07-27T08:05:09.000Z</time>
      </trkpt>
      <trkpt lat="44.52715" lon="6.4662">
        <ele>965.815211</ele>
        <time>2026-07-27T08:05:10.000Z</time>
      </trkpt>
      <trkpt lat="44.52715" lon="6.4662">
        <ele>965.815211</ele>
        <time>2026-07-27T08:05:10.000Z</time>
      </trkpt>
      <trkpt lat="44.52712" lon="6.46621">
        <ele>966.297954</ele>
        <time>2026-07-27T08:05:11.000Z</time>
      </trkpt>
      <trkpt lat="44.52712" lon="6.46621">
        <ele>966.297954</ele>
        <time>2026-07-27T08:05:11.000Z</time>
      </trkpt>
      <trkpt lat="44.52709" lon="6.46621">
        <ele>966.731804</ele>
        <time>2026-07-27T08:05:12.000Z</time>
      </trkpt>
      <trkpt lat="44.52709" lon="6.46621">
        <ele>966.731804</ele>
        <time>2026-07-27T08:05:12.000Z</time>
      </trkpt>
      <trkpt lat="44.52706" lon="6.46622">
        <ele>967.21628</ele>
        <time>2026-07-27T08:05:13.000Z</time>
      </trkpt>
      <trkpt lat="44.52706" lon="6.46622">
        <ele>967.21628</ele>
        <time>2026-07-27T08:05:13.000Z</time>
      </trkpt>
      <trkpt lat="44.52704" lon="6.46623">
        <ele>967.490895</ele>
        <time>2026-07-27T08:05:14.000Z</time>
      </trkpt>
      <trkpt lat="44.52704" lon="6.46623">
        <ele>967.490895</ele>
        <time>2026-07-27T08:05:14.000Z</time>
      </trkpt>
      <trkpt lat="44.52702" lon="6.46624">
        <ele>967.852947</ele>
        <time>2026-07-27T08:05:15.000Z</time>
      </trkpt>
      <trkpt lat="44.52702" lon="6.46624">
        <ele>967.852947</ele>
        <time>2026-07-27T08:05:15.000Z</time>
      </trkpt>
      <trkpt lat="44.527" lon="6.46625">
        <ele>968.204099</ele>
        <time>2026-07-27T08:05:16.000Z</time>
      </trkpt>
      <trkpt lat="44.527" lon="6.46625">
        <ele>968.204099</ele>
        <time>2026-07-27T08:05:16.000Z</time>
      </trkpt>
      <trkpt lat="44.52697" lon="6.46627">
        <ele>968.665988</ele>
        <time>2026-07-27T08:05:17.000Z</time>
      </trkpt>
      <trkpt lat="44.52697" lon="6.46627">
        <ele>968.665988</ele>
        <time>2026-07-27T08:05:17.000Z</time>
      </trkpt>
      <trkpt lat="44.52695" lon="6.46629">
        <ele>969.085555</ele>
        <time>2026-07-27T08:05:18.000Z</time>
      </trkpt>
      <trkpt lat="44.52695" lon="6.46629">
        <ele>969.085555</ele>
        <time>2026-07-27T08:05:18.000Z</time>
      </trkpt>
      <trkpt lat="44.52692" lon="6.4663">
        <ele>969.604359</ele>
        <time>2026-07-27T08:05:19.000Z</time>
      </trkpt>
      <trkpt lat="44.52692" lon="6.4663">
        <ele>969.604359</ele>
        <time>2026-07-27T08:05:19.000Z</time>
      </trkpt>
      <trkpt lat="44.5269" lon="6.46631">
        <ele>969.927641</ele>
        <time>2026-07-27T08:05:20.000Z</time>
      </trkpt>
      <trkpt lat="44.5269" lon="6.46631">
        <ele>969.927641</ele>
        <time>2026-07-27T08:05:20.000Z</time>
      </trkpt>
      <trkpt lat="44.52688" lon="6.46632">
        <ele>970.311235</ele>
        <time>2026-07-27T08:05:21.000Z</time>
      </trkpt>
      <trkpt lat="44.52688" lon="6.46632">
        <ele>970.311235</ele>
        <time>2026-07-27T08:05:21.000Z</time>
      </trkpt>
      <trkpt lat="44.52686" lon="6.46633">
        <ele>970.571133</ele>
        <time>2026-07-27T08:05:22.000Z</time>
      </trkpt>
      <trkpt lat="44.52686" lon="6.46633">
        <ele>970.571133</ele>
        <time>2026-07-27T08:05:22.000Z</time>
      </trkpt>
      <trkpt lat="44.52684" lon="6.46634">
        <ele>971.019026</ele>
        <time>2026-07-27T08:05:23.000Z</time>
      </trkpt>
      <trkpt lat="44.52684" lon="6.46634">
        <ele>971.019026</ele>
        <time>2026-07-27T08:05:23.000Z</time>
      </trkpt>
      <trkpt lat="44.52682" lon="6.46635">
        <ele>971.329277</ele>
        <time>2026-07-27T08:05:24.000Z</time>
      </trkpt>
      <trkpt lat="44.52682" lon="6.46635">
        <ele>971.329277</ele>
        <time>2026-07-27T08:05:24.000Z</time>
      </trkpt>
      <trkpt lat="44.52679" lon="6.46635">
        <ele>971.701957</ele>
        <time>2026-07-27T08:05:25.000Z</time>
      </trkpt>
      <trkpt lat="44.52679" lon="6.46635">
        <ele>971.701957</ele>
        <time>2026-07-27T08:05:25.000Z</time>
      </trkpt>
      <trkpt lat="44.52677" lon="6.46636">
        <ele>972.067024</ele>
        <time>2026-07-27T08:05:26.000Z</time>
      </trkpt>
      <trkpt lat="44.52677" lon="6.46636">
        <ele>972.067024</ele>
        <time>2026-07-27T08:05:26.000Z</time>
      </trkpt>
      <trkpt lat="44.52676" lon="6.46637">
        <ele>972.295389</ele>
        <time>2026-07-27T08:05:27.000Z</time>
      </trkpt>
      <trkpt lat="44.52676" lon="6.46637">
        <ele>972.295389</ele>
        <time>2026-07-27T08:05:27.000Z</time>
      </trkpt>
      <trkpt lat="44.52674" lon="6.46639">
        <ele>972.637285</ele>
        <time>2026-07-27T08:05:28.000Z</time>
      </trkpt>
      <trkpt lat="44.52674" lon="6.46639">
        <ele>972.637285</ele>
        <time>2026-07-27T08:05:28.000Z</time>
      </trkpt>
      <trkpt lat="44.52674" lon="6.46639">
        <ele>972.637285</ele>
        <time>2026-07-27T08:05:29.000Z</time>
      </trkpt>
      <trkpt lat="44.52671" lon="6.46642">
        <ele>973.302468</ele>
        <time>2026-07-27T08:05:30.000Z</time>
      </trkpt>
      <trkpt lat="44.52671" lon="6.46642">
        <ele>973.302468</ele>
        <time>2026-07-27T08:05:30.000Z</time>
      </trkpt>
      <trkpt lat="44.5267" lon="6.46644">
        <ele>973.59075</ele>
        <time>2026-07-27T08:05:31.000Z</time>
      </trkpt>
      <trkpt lat="44.5267" lon="6.46644">
        <ele>973.59075</ele>
        <time>2026-07-27T08:05:31.000Z</time>
      </trkpt>
      <trkpt lat="44.5267" lon="6.46644">
        <ele>973.59075</ele>
        <time>2026-07-27T08:05:32.000Z</time>
      </trkpt>
      <trkpt lat="44.52669" lon="6.4665">
        <ele>974.252536</ele>
        <time>2026-07-27T08:05:33.000Z</time>
      </trkpt>
      <trkpt lat="44.52669" lon="6.4665">
        <ele>974.252536</ele>
        <time>2026-07-27T08:05:33.000Z</time>
      </trkpt>
      <trkpt lat="44.52669" lon="6.46651">
        <ele>974.429468</ele>
        <time>2026-07-27T08:05:34.000Z</time>
      </trkpt>
      <trkpt lat="44.52669" lon="6.46651">
        <ele>974.429468</ele>
        <time>2026-07-27T08:05:34.000Z</time>
      </trkpt>
      <trkpt lat="44.52668" lon="6.46653">
        <ele>974.633239</ele>
        <time>2026-07-27T08:05:34.000Z</time>
      </trkpt>
      <trkpt lat="44.52668" lon="6.46653">
        <ele>974.633239</ele>
        <time>2026-07-27T08:05:34.000Z</time>
      </trkpt>
      <trkpt lat="44.52667" lon="6.46654">
        <ele>974.869855</ele>
        <time>2026-07-27T08:05:36.000Z</time>
      </trkpt>
      <trkpt lat="44.52667" lon="6.46654">
        <ele>974.869855</ele>
        <time>2026-07-27T08:05:36.000Z</time>
      </trkpt>
      <trkpt lat="44.52667" lon="6.46654">
        <ele>974.869855</ele>
        <time>2026-07-27T08:05:36.000Z</time>
      </trkpt>
      <trkpt lat="44.52665" lon="6.46657">
        <ele>975.393983</ele>
        <time>2026-07-27T08:05:37.000Z</time>
      </trkpt>
      <trkpt lat="44.52665" lon="6.46657">
        <ele>975.393983</ele>
        <time>2026-07-27T08:05:37.000Z</time>
      </trkpt>
      <trkpt lat="44.52665" lon="6.46657">
        <ele>975.393983</ele>
        <time>2026-07-27T08:05:39.000Z</time>
      </trkpt>
      <trkpt lat="44.52662" lon="6.46658">
        <ele>975.833592</ele>
        <time>2026-07-27T08:05:40.000Z</time>
      </trkpt>
      <trkpt lat="44.52662" lon="6.46658">
        <ele>975.833592</ele>
        <time>2026-07-27T08:05:40.000Z</time>
      </trkpt>
      <trkpt lat="44.52661" lon="6.46658">
        <ele>975.963043</ele>
        <time>2026-07-27T08:05:40.000Z</time>
      </trkpt>
      <trkpt lat="44.52661" lon="6.46658">
        <ele>975.963043</ele>
        <time>2026-07-27T08:05:40.000Z</time>
      </trkpt>
      <trkpt lat="44.52661" lon="6.46658">
        <ele>975.963043</ele>
        <time>2026-07-27T08:05:42.000Z</time>
      </trkpt>
      <trkpt lat="44.52658" lon="6.4666">
        <ele>976.460004</ele>
        <time>2026-07-27T08:05:43.000Z</time>
      </trkpt>
      <trkpt lat="44.52658" lon="6.4666">
        <ele>976.460004</ele>
        <time>2026-07-27T08:05:43.000Z</time>
      </trkpt>
      <trkpt lat="44.52657" lon="6.4666">
        <ele>976.656491</ele>
        <time>2026-07-27T08:05:44.000Z</time>
      </trkpt>
      <trkpt lat="44.52657" lon="6.4666">
        <ele>976.656491</ele>
        <time>2026-07-27T08:05:44.000Z</time>
      </trkpt>
      <trkpt lat="44.52656" lon="6.46661">
        <ele>976.844508</ele>
        <time>2026-07-27T08:05:44.000Z</time>
      </trkpt>
      <trkpt lat="44.52656" lon="6.46661">
        <ele>976.844508</ele>
        <time>2026-07-27T08:05:44.000Z</time>
      </trkpt>
      <trkpt lat="44.52654" lon="6.46661">
        <ele>977.085879</ele>
        <time>2026-07-27T08:05:46.000Z</time>
      </trkpt>
      <trkpt lat="44.52654" lon="6.46661">
        <ele>977.085879</ele>
        <time>2026-07-27T08:05:46.000Z</time>
      </trkpt>
      <trkpt lat="44.52652" lon="6.46661">
        <ele>977.388767</ele>
        <time>2026-07-27T08:05:47.000Z</time>
      </trkpt>
      <trkpt lat="44.52652" lon="6.46661">
        <ele>977.388767</ele>
        <time>2026-07-27T08:05:47.000Z</time>
      </trkpt>
      <trkpt lat="44.52651" lon="6.46661">
        <ele>977.692294</ele>
        <time>2026-07-27T08:05:47.000Z</time>
      </trkpt>
      <trkpt lat="44.52651" lon="6.46661">
        <ele>977.692294</ele>
        <time>2026-07-27T08:05:47.000Z</time>
      </trkpt>
      <trkpt lat="44.52648" lon="6.4666">
        <ele>978.069788</ele>
        <time>2026-07-27T08:05:49.000Z</time>
      </trkpt>
      <trkpt lat="44.52648" lon="6.4666">
        <ele>978.069788</ele>
        <time>2026-07-27T08:05:49.000Z</time>
      </trkpt>
      <trkpt lat="44.52646" lon="6.4666">
        <ele>978.437765</ele>
        <time>2026-07-27T08:05:50.000Z</time>
      </trkpt>
      <trkpt lat="44.52646" lon="6.4666">
        <ele>978.437765</ele>
        <time>2026-07-27T08:05:50.000Z</time>
      </trkpt>
      <trkpt lat="44.52644" lon="6.4666">
        <ele>978.740654</ele>
        <time>2026-07-27T08:05:50.000Z</time>
      </trkpt>
      <trkpt lat="44.52644" lon="6.4666">
        <ele>978.740654</ele>
        <time>2026-07-27T08:05:50.000Z</time>
      </trkpt>
      <trkpt lat="44.52642" lon="6.4666">
        <ele>979.001787</ele>
        <time>2026-07-27T08:05:52.000Z</time>
      </trkpt>
      <trkpt lat="44.52642" lon="6.4666">
        <ele>979.001787</ele>
        <time>2026-07-27T08:05:52.000Z</time>
      </trkpt>
      <trkpt lat="44.52642" lon="6.4666">
        <ele>979.001787</ele>
        <time>2026-07-27T08:05:53.000Z</time>
      </trkpt>
      <trkpt lat="44.52639" lon="6.46662">
        <ele>979.513077</ele>
        <time>2026-07-27T08:05:54.000Z</time>
      </trkpt>
      <trkpt lat="44.52639" lon="6.46662">
        <ele>979.513077</ele>
        <time>2026-07-27T08:05:54.000Z</time>
      </trkpt>
      <trkpt lat="44.52638" lon="6.46662">
        <ele>979.704577</ele>
        <time>2026-07-27T08:05:55.000Z</time>
      </trkpt>
      <trkpt lat="44.52638" lon="6.46662">
        <ele>979.704577</ele>
        <time>2026-07-27T08:05:55.000Z</time>
      </trkpt>
      <trkpt lat="44.52637" lon="6.46662">
        <ele>979.881277</ele>
        <time>2026-07-27T08:05:55.000Z</time>
      </trkpt>
      <trkpt lat="44.52637" lon="6.46662">
        <ele>979.881277</ele>
        <time>2026-07-27T08:05:55.000Z</time>
      </trkpt>
      <trkpt lat="44.52636" lon="6.46663">
        <ele>980.124511</ele>
        <time>2026-07-27T08:05:56.000Z</time>
      </trkpt>
      <trkpt lat="44.52636" lon="6.46663">
        <ele>980.124511</ele>
        <time>2026-07-27T08:05:56.000Z</time>
      </trkpt>
      <trkpt lat="44.52636" lon="6.46663">
        <ele>980.124511</ele>
        <time>2026-07-27T08:05:58.000Z</time>
      </trkpt>
      <trkpt lat="44.52632" lon="6.46665">
        <ele>980.722371</ele>
        <time>2026-07-27T08:05:58.000Z</time>
      </trkpt>
      <trkpt lat="44.52632" lon="6.46665">
        <ele>980.722371</ele>
        <time>2026-07-27T08:05:58.000Z</time>
      </trkpt>
      <trkpt lat="44.52631" lon="6.46665">
        <ele>980.910388</ele>
        <time>2026-07-27T08:05:59.000Z</time>
      </trkpt>
      <trkpt lat="44.52631" lon="6.46665">
        <ele>980.910388</ele>
        <time>2026-07-27T08:05:59.000Z</time>
      </trkpt>
      <trkpt lat="44.5263" lon="6.46665">
        <ele>981.085989</ele>
        <time>2026-07-27T08:06:01.000Z</time>
      </trkpt>
      <trkpt lat="44.5263" lon="6.46665">
        <ele>981.085989</ele>
        <time>2026-07-27T08:06:01.000Z</time>
      </trkpt>
      <trkpt lat="44.5263" lon="6.46665">
        <ele>981.085989</ele>
        <time>2026-07-27T08:06:02.000Z</time>
      </trkpt>
      <trkpt lat="44.52626" lon="6.46663">
        <ele>981.683849</ele>
        <time>2026-07-27T08:06:03.000Z</time>
      </trkpt>
      <trkpt lat="44.52626" lon="6.46663">
        <ele>981.683849</ele>
        <time>2026-07-27T08:06:03.000Z</time>
      </trkpt>
      <trkpt lat="44.52625" lon="6.46663">
        <ele>981.864875</ele>
        <time>2026-07-27T08:06:03.000Z</time>
      </trkpt>
      <trkpt lat="44.52625" lon="6.46663">
        <ele>981.864875</ele>
        <time>2026-07-27T08:06:03.000Z</time>
      </trkpt>
      <trkpt lat="44.52623" lon="6.46663">
        <ele>982.168402</ele>
        <time>2026-07-27T08:06:05.000Z</time>
      </trkpt>
      <trkpt lat="44.52623" lon="6.46663">
        <ele>982.168402</ele>
        <time>2026-07-27T08:06:05.000Z</time>
      </trkpt>
      <trkpt lat="44.52621" lon="6.46662">
        <ele>982.534974</ele>
        <time>2026-07-27T08:06:06.000Z</time>
      </trkpt>
      <trkpt lat="44.52621" lon="6.46662">
        <ele>982.534974</ele>
        <time>2026-07-27T08:06:06.000Z</time>
      </trkpt>
      <trkpt lat="44.52619" lon="6.46663">
        <ele>982.838501</ele>
        <time>2026-07-27T08:06:07.000Z</time>
      </trkpt>
      <trkpt lat="44.52619" lon="6.46663">
        <ele>982.838501</ele>
        <time>2026-07-27T08:06:07.000Z</time>
      </trkpt>
      <trkpt lat="44.52617" lon="6.46663">
        <ele>983.211181</ele>
        <time>2026-07-27T08:06:08.000Z</time>
      </trkpt>
      <trkpt lat="44.52617" lon="6.46663">
        <ele>983.211181</ele>
        <time>2026-07-27T08:06:08.000Z</time>
      </trkpt>
      <trkpt lat="44.52615" lon="6.46664">
        <ele>983.579158</ele>
        <time>2026-07-27T08:06:09.000Z</time>
      </trkpt>
      <trkpt lat="44.52615" lon="6.46664">
        <ele>983.579158</ele>
        <time>2026-07-27T08:06:09.000Z</time>
      </trkpt>
      <trkpt lat="44.52613" lon="6.46663">
        <ele>983.882047</ele>
        <time>2026-07-27T08:06:10.000Z</time>
      </trkpt>
      <trkpt lat="44.52613" lon="6.46663">
        <ele>983.882047</ele>
        <time>2026-07-27T08:06:10.000Z</time>
      </trkpt>
      <trkpt lat="44.52611" lon="6.46663">
        <ele>984.198065</ele>
        <time>2026-07-27T08:06:11.000Z</time>
      </trkpt>
      <trkpt lat="44.52611" lon="6.46663">
        <ele>984.198065</ele>
        <time>2026-07-27T08:06:11.000Z</time>
      </trkpt>
      <trkpt lat="44.52609" lon="6.46662">
        <ele>984.521347</ele>
        <time>2026-07-27T08:06:12.000Z</time>
      </trkpt>
      <trkpt lat="44.52609" lon="6.46662">
        <ele>984.521347</ele>
        <time>2026-07-27T08:06:12.000Z</time>
      </trkpt>
      <trkpt lat="44.52607" lon="6.46661">
        <ele>984.904942</ele>
        <time>2026-07-27T08:06:13.000Z</time>
      </trkpt>
      <trkpt lat="44.52607" lon="6.46661">
        <ele>984.904942</ele>
        <time>2026-07-27T08:06:13.000Z</time>
      </trkpt>
      <trkpt lat="44.52604" lon="6.4666">
        <ele>985.349801</ele>
        <time>2026-07-27T08:06:14.000Z</time>
      </trkpt>
      <trkpt lat="44.52604" lon="6.4666">
        <ele>985.349801</ele>
        <time>2026-07-27T08:06:14.000Z</time>
      </trkpt>
      <trkpt lat="44.52601" lon="6.46659">
        <ele>985.791898</ele>
        <time>2026-07-27T08:06:15.000Z</time>
      </trkpt>
      <trkpt lat="44.52601" lon="6.46659">
        <ele>985.791898</ele>
        <time>2026-07-27T08:06:15.000Z</time>
      </trkpt>
      <trkpt lat="44.52599" lon="6.46658">
        <ele>986.102149</ele>
        <time>2026-07-27T08:06:16.000Z</time>
      </trkpt>
      <trkpt lat="44.52599" lon="6.46658">
        <ele>986.102149</ele>
        <time>2026-07-27T08:06:16.000Z</time>
      </trkpt>
      <trkpt lat="44.52597" lon="6.46657">
        <ele>986.523898</ele>
        <time>2026-07-27T08:06:17.000Z</time>
      </trkpt>
      <trkpt lat="44.52597" lon="6.46657">
        <ele>986.523898</ele>
        <time>2026-07-27T08:06:17.000Z</time>
      </trkpt>
      <trkpt lat="44.52594" lon="6.46657">
        <ele>986.95938</ele>
        <time>2026-07-27T08:06:18.000Z</time>
      </trkpt>
      <trkpt lat="44.52594" lon="6.46657">
        <ele>986.95938</ele>
        <time>2026-07-27T08:06:18.000Z</time>
      </trkpt>
      <trkpt lat="44.52592" lon="6.46656">
        <ele>987.342975</ele>
        <time>2026-07-27T08:06:19.000Z</time>
      </trkpt>
      <trkpt lat="44.52592" lon="6.46656">
        <ele>987.342975</ele>
        <time>2026-07-27T08:06:19.000Z</time>
      </trkpt>
      <trkpt lat="44.52589" lon="6.46655">
        <ele>987.794169</ele>
        <time>2026-07-27T08:06:20.000Z</time>
      </trkpt>
      <trkpt lat="44.52589" lon="6.46655">
        <ele>987.794169</ele>
        <time>2026-07-27T08:06:20.000Z</time>
      </trkpt>
      <trkpt lat="44.52587" lon="6.46654">
        <ele>988.121613</ele>
        <time>2026-07-27T08:06:21.000Z</time>
      </trkpt>
      <trkpt lat="44.52587" lon="6.46654">
        <ele>988.121613</ele>
        <time>2026-07-27T08:06:21.000Z</time>
      </trkpt>
      <trkpt lat="44.52585" lon="6.46652">
        <ele>988.535768</ele>
        <time>2026-07-27T08:06:22.000Z</time>
      </trkpt>
      <trkpt lat="44.52585" lon="6.46652">
        <ele>988.535768</ele>
        <time>2026-07-27T08:06:22.000Z</time>
      </trkpt>
      <trkpt lat="44.52582" lon="6.4665">
        <ele>988.988064</ele>
        <time>2026-07-27T08:06:23.000Z</time>
      </trkpt>
      <trkpt lat="44.52582" lon="6.4665">
        <ele>988.988064</ele>
        <time>2026-07-27T08:06:23.000Z</time>
      </trkpt>
      <trkpt lat="44.5258" lon="6.46648">
        <ele>989.413283</ele>
        <time>2026-07-27T08:06:24.000Z</time>
      </trkpt>
      <trkpt lat="44.5258" lon="6.46648">
        <ele>989.413283</ele>
        <time>2026-07-27T08:06:24.000Z</time>
      </trkpt>
      <trkpt lat="44.52577" lon="6.46647">
        <ele>989.884747</ele>
        <time>2026-07-27T08:06:25.000Z</time>
      </trkpt>
      <trkpt lat="44.52577" lon="6.46647">
        <ele>989.884747</ele>
        <time>2026-07-27T08:06:25.000Z</time>
      </trkpt>
      <trkpt lat="44.52575" lon="6.46645">
        <ele>990.221513</ele>
        <time>2026-07-27T08:06:26.000Z</time>
      </trkpt>
      <trkpt lat="44.52575" lon="6.46645">
        <ele>990.221513</ele>
        <time>2026-07-27T08:06:26.000Z</time>
      </trkpt>
      <trkpt lat="44.52573" lon="6.46644">
        <ele>990.68414</ele>
        <time>2026-07-27T08:06:27.000Z</time>
      </trkpt>
      <trkpt lat="44.52573" lon="6.46644">
        <ele>990.68414</ele>
        <time>2026-07-27T08:06:27.000Z</time>
      </trkpt>
      <trkpt lat="44.5257" lon="6.46643">
        <ele>991.079166</ele>
        <time>2026-07-27T08:06:28.000Z</time>
      </trkpt>
      <trkpt lat="44.5257" lon="6.46643">
        <ele>991.079166</ele>
        <time>2026-07-27T08:06:28.000Z</time>
      </trkpt>
      <trkpt lat="44.52567" lon="6.46641">
        <ele>991.586531</ele>
        <time>2026-07-27T08:06:29.000Z</time>
      </trkpt>
      <trkpt lat="44.52567" lon="6.46641">
        <ele>991.586531</ele>
        <time>2026-07-27T08:06:29.000Z</time>
      </trkpt>
      <trkpt lat="44.52565" lon="6.4664">
        <ele>992.045097</ele>
        <time>2026-07-27T08:06:30.000Z</time>
      </trkpt>
      <trkpt lat="44.52565" lon="6.4664">
        <ele>992.045097</ele>
        <time>2026-07-27T08:06:30.000Z</time>
      </trkpt>
      <trkpt lat="44.52562" lon="6.46638">
        <ele>992.444507</ele>
        <time>2026-07-27T08:06:31.000Z</time>
      </trkpt>
      <trkpt lat="44.52562" lon="6.46638">
        <ele>992.444507</ele>
        <time>2026-07-27T08:06:31.000Z</time>
      </trkpt>
      <trkpt lat="44.5256" lon="6.46638">
        <ele>992.815278</ele>
        <time>2026-07-27T08:06:32.000Z</time>
      </trkpt>
      <trkpt lat="44.5256" lon="6.46638">
        <ele>992.815278</ele>
        <time>2026-07-27T08:06:32.000Z</time>
      </trkpt>
      <trkpt lat="44.52557" lon="6.46637">
        <ele>993.296549</ele>
        <time>2026-07-27T08:06:33.000Z</time>
      </trkpt>
      <trkpt lat="44.52557" lon="6.46637">
        <ele>993.296549</ele>
        <time>2026-07-27T08:06:33.000Z</time>
      </trkpt>
      <trkpt lat="44.52554" lon="6.46637">
        <ele>993.797247</ele>
        <time>2026-07-27T08:06:34.000Z</time>
      </trkpt>
      <trkpt lat="44.52554" lon="6.46637">
        <ele>993.797247</ele>
        <time>2026-07-27T08:06:34.000Z</time>
      </trkpt>
      <trkpt lat="44.52552" lon="6.46639">
        <ele>994.083504</ele>
        <time>2026-07-27T08:06:35.000Z</time>
      </trkpt>
      <trkpt lat="44.52552" lon="6.46639">
        <ele>994.083504</ele>
        <time>2026-07-27T08:06:35.000Z</time>
      </trkpt>
      <trkpt lat="44.52551" lon="6.4664">
        <ele>994.457094</ele>
        <time>2026-07-27T08:06:36.000Z</time>
      </trkpt>
      <trkpt lat="44.52551" lon="6.4664">
        <ele>994.457094</ele>
        <time>2026-07-27T08:06:36.000Z</time>
      </trkpt>
      <trkpt lat="44.52549" lon="6.46642">
        <ele>994.776776</ele>
        <time>2026-07-27T08:06:37.000Z</time>
      </trkpt>
      <trkpt lat="44.52549" lon="6.46642">
        <ele>994.776776</ele>
        <time>2026-07-27T08:06:37.000Z</time>
      </trkpt>
      <trkpt lat="44.52548" lon="6.46644">
        <ele>995.111817</ele>
        <time>2026-07-27T08:06:38.000Z</time>
      </trkpt>
      <trkpt lat="44.52548" lon="6.46644">
        <ele>995.111817</ele>
        <time>2026-07-27T08:06:38.000Z</time>
      </trkpt>
      <trkpt lat="44.52546" lon="6.46646">
        <ele>995.444556</ele>
        <time>2026-07-27T08:06:39.000Z</time>
      </trkpt>
      <trkpt lat="44.52546" lon="6.46646">
        <ele>995.444556</ele>
        <time>2026-07-27T08:06:39.000Z</time>
      </trkpt>
      <trkpt lat="44.52544" lon="6.46647">
        <ele>995.811926</ele>
        <time>2026-07-27T08:06:40.000Z</time>
      </trkpt>
      <trkpt lat="44.52544" lon="6.46647">
        <ele>995.811926</ele>
        <time>2026-07-27T08:06:40.000Z</time>
      </trkpt>
      <trkpt lat="44.52542" lon="6.46649">
        <ele>996.167706</ele>
        <time>2026-07-27T08:06:41.000Z</time>
      </trkpt>
      <trkpt lat="44.52542" lon="6.46649">
        <ele>996.167706</ele>
        <time>2026-07-27T08:06:41.000Z</time>
      </trkpt>
      <trkpt lat="44.5254" lon="6.4665">
        <ele>996.513127</ele>
        <time>2026-07-27T08:06:42.000Z</time>
      </trkpt>
      <trkpt lat="44.5254" lon="6.4665">
        <ele>996.513127</ele>
        <time>2026-07-27T08:06:42.000Z</time>
      </trkpt>
      <trkpt lat="44.52538" lon="6.46651">
        <ele>996.874555</ele>
        <time>2026-07-27T08:06:43.000Z</time>
      </trkpt>
      <trkpt lat="44.52538" lon="6.46651">
        <ele>996.874555</ele>
        <time>2026-07-27T08:06:43.000Z</time>
      </trkpt>
      <trkpt lat="44.52537" lon="6.46653">
        <ele>997.179936</ele>
        <time>2026-07-27T08:06:44.000Z</time>
      </trkpt>
      <trkpt lat="44.52537" lon="6.46653">
        <ele>997.179936</ele>
        <time>2026-07-27T08:06:44.000Z</time>
      </trkpt>
      <trkpt lat="44.52535" lon="6.46654">
        <ele>997.49896</ele>
        <time>2026-07-27T08:06:45.000Z</time>
      </trkpt>
      <trkpt lat="44.52535" lon="6.46654">
        <ele>997.49896</ele>
        <time>2026-07-27T08:06:45.000Z</time>
      </trkpt>
      <trkpt lat="44.52534" lon="6.46656">
        <ele>997.753278</ele>
        <time>2026-07-27T08:06:46.000Z</time>
      </trkpt>
      <trkpt lat="44.52534" lon="6.46656">
        <ele>997.753278</ele>
        <time>2026-07-27T08:06:46.000Z</time>
      </trkpt>
      <trkpt lat="44.52533" lon="6.46657">
        <ele>998.007597</ele>
        <time>2026-07-27T08:06:47.000Z</time>
      </trkpt>
      <trkpt lat="44.52533" lon="6.46657">
        <ele>998.007597</ele>
        <time>2026-07-27T08:06:47.000Z</time>
      </trkpt>
      <trkpt lat="44.52531" lon="6.46659">
        <ele>998.462533</ele>
        <time>2026-07-27T08:06:48.000Z</time>
      </trkpt>
      <trkpt lat="44.52531" lon="6.46659">
        <ele>998.462533</ele>
        <time>2026-07-27T08:06:48.000Z</time>
      </trkpt>
      <trkpt lat="44.52529" lon="6.46662">
        <ele>998.84232</ele>
        <time>2026-07-27T08:06:49.000Z</time>
      </trkpt>
      <trkpt lat="44.52529" lon="6.46662">
        <ele>998.84232</ele>
        <time>2026-07-27T08:06:49.000Z</time>
      </trkpt>
      <trkpt lat="44.52527" lon="6.46664">
        <ele>999.258363</ele>
        <time>2026-07-27T08:06:50.000Z</time>
      </trkpt>
      <trkpt lat="44.52527" lon="6.46664">
        <ele>999.258363</ele>
        <time>2026-07-27T08:06:50.000Z</time>
      </trkpt>
      <trkpt lat="44.52526" lon="6.46666">
        <ele>999.635569</ele>
        <time>2026-07-27T08:06:51.000Z</time>
      </trkpt>
      <trkpt lat="44.52526" lon="6.46666">
        <ele>999.635569</ele>
        <time>2026-07-27T08:06:51.000Z</time>
      </trkpt>
      <trkpt lat="44.52525" lon="6.46669">
        <ele>1000.003095</ele>
        <time>2026-07-27T08:06:52.000Z</time>
      </trkpt>
      <trkpt lat="44.52525" lon="6.46669">
        <ele>1000.003095</ele>
        <time>2026-07-27T08:06:52.000Z</time>
      </trkpt>
      <trkpt lat="44.52523" lon="6.46673">
        <ele>1000.513653</ele>
        <time>2026-07-27T08:06:53.000Z</time>
      </trkpt>
      <trkpt lat="44.52523" lon="6.46673">
        <ele>1000.513653</ele>
        <time>2026-07-27T08:06:53.000Z</time>
      </trkpt>
      <trkpt lat="44.52521" lon="6.46676">
        <ele>1000.985307</ele>
        <time>2026-07-27T08:06:54.000Z</time>
      </trkpt>
      <trkpt lat="44.52521" lon="6.46676">
        <ele>1000.985307</ele>
        <time>2026-07-27T08:06:54.000Z</time>
      </trkpt>
      <trkpt lat="44.5252" lon="6.46679">
        <ele>1001.415841</ele>
        <time>2026-07-27T08:06:55.000Z</time>
      </trkpt>
      <trkpt lat="44.5252" lon="6.46679">
        <ele>1001.415841</ele>
        <time>2026-07-27T08:06:55.000Z</time>
      </trkpt>
      <trkpt lat="44.52519" lon="6.46683">
        <ele>1001.874835</ele>
        <time>2026-07-27T08:06:56.000Z</time>
      </trkpt>
      <trkpt lat="44.52519" lon="6.46683">
        <ele>1001.874835</ele>
        <time>2026-07-27T08:06:56.000Z</time>
      </trkpt>
      <trkpt lat="44.52518" lon="6.46686">
        <ele>1002.273534</ele>
        <time>2026-07-27T08:06:57.000Z</time>
      </trkpt>
      <trkpt lat="44.52518" lon="6.46686">
        <ele>1002.273534</ele>
        <time>2026-07-27T08:06:57.000Z</time>
      </trkpt>
      <trkpt lat="44.52517" lon="6.4669">
        <ele>1002.753155</ele>
        <time>2026-07-27T08:06:58.000Z</time>
      </trkpt>
      <trkpt lat="44.52517" lon="6.4669">
        <ele>1002.753155</ele>
        <time>2026-07-27T08:06:58.000Z</time>
      </trkpt>
      <trkpt lat="44.52517" lon="6.46693">
        <ele>1003.169782</ele>
        <time>2026-07-27T08:06:59.000Z</time>
      </trkpt>
      <trkpt lat="44.52517" lon="6.46693">
        <ele>1003.169782</ele>
        <time>2026-07-27T08:06:59.000Z</time>
      </trkpt>
      <trkpt lat="44.52516" lon="6.46696">
        <ele>1003.581724</ele>
        <time>2026-07-27T08:07:00.000Z</time>
      </trkpt>
      <trkpt lat="44.52516" lon="6.46696">
        <ele>1003.581724</ele>
        <time>2026-07-27T08:07:00.000Z</time>
      </trkpt>
      <trkpt lat="44.52515" lon="6.467">
        <ele>1004.070799</ele>
        <time>2026-07-27T08:07:01.000Z</time>
      </trkpt>
      <trkpt lat="44.52515" lon="6.467">
        <ele>1004.070799</ele>
        <time>2026-07-27T08:07:01.000Z</time>
      </trkpt>
      <trkpt lat="44.52515" lon="6.46704">
        <ele>1004.466407</ele>
        <time>2026-07-27T08:07:02.000Z</time>
      </trkpt>
      <trkpt lat="44.52515" lon="6.46704">
        <ele>1004.466407</ele>
        <time>2026-07-27T08:07:02.000Z</time>
      </trkpt>
      <trkpt lat="44.52514" lon="6.46707">
        <ele>1004.918464</ele>
        <time>2026-07-27T08:07:03.000Z</time>
      </trkpt>
      <trkpt lat="44.52514" lon="6.46707">
        <ele>1004.918464</ele>
        <time>2026-07-27T08:07:03.000Z</time>
      </trkpt>
      <trkpt lat="44.52513" lon="6.46711">
        <ele>1005.36412</ele>
        <time>2026-07-27T08:07:04.000Z</time>
      </trkpt>
      <trkpt lat="44.52513" lon="6.46711">
        <ele>1005.36412</ele>
        <time>2026-07-27T08:07:04.000Z</time>
      </trkpt>
      <trkpt lat="44.52513" lon="6.46714">
        <ele>1005.78305</ele>
        <time>2026-07-27T08:07:05.000Z</time>
      </trkpt>
      <trkpt lat="44.52513" lon="6.46714">
        <ele>1005.78305</ele>
        <time>2026-07-27T08:07:05.000Z</time>
      </trkpt>
      <trkpt lat="44.52512" lon="6.46718">
        <ele>1006.23547</ele>
        <time>2026-07-27T08:07:06.000Z</time>
      </trkpt>
      <trkpt lat="44.52512" lon="6.46718">
        <ele>1006.23547</ele>
        <time>2026-07-27T08:07:06.000Z</time>
      </trkpt>
      <trkpt lat="44.52511" lon="6.46721">
        <ele>1006.658618</ele>
        <time>2026-07-27T08:07:07.000Z</time>
      </trkpt>
      <trkpt lat="44.52511" lon="6.46721">
        <ele>1006.658618</ele>
        <time>2026-07-27T08:07:07.000Z</time>
      </trkpt>
      <trkpt lat="44.52511" lon="6.46725">
        <ele>1007.135987</ele>
        <time>2026-07-27T08:07:08.000Z</time>
      </trkpt>
      <trkpt lat="44.52511" lon="6.46725">
        <ele>1007.135987</ele>
        <time>2026-07-27T08:07:08.000Z</time>
      </trkpt>
      <trkpt lat="44.5251" lon="6.46729">
        <ele>1007.577256</ele>
        <time>2026-07-27T08:07:09.000Z</time>
      </trkpt>
      <trkpt lat="44.5251" lon="6.46729">
        <ele>1007.577256</ele>
        <time>2026-07-27T08:07:09.000Z</time>
      </trkpt>
      <trkpt lat="44.52509" lon="6.46732">
        <ele>1007.966894</ele>
        <time>2026-07-27T08:07:09.000Z</time>
      </trkpt>
      <trkpt lat="44.52509" lon="6.46732">
        <ele>1007.966894</ele>
        <time>2026-07-27T08:07:09.000Z</time>
      </trkpt>
      <trkpt lat="44.52508" lon="6.46736">
        <ele>1008.451606</ele>
        <time>2026-07-27T08:07:11.000Z</time>
      </trkpt>
      <trkpt lat="44.52508" lon="6.46736">
        <ele>1008.451606</ele>
        <time>2026-07-27T08:07:11.000Z</time>
      </trkpt>
      <trkpt lat="44.52507" lon="6.46739">
        <ele>1008.830152</ele>
        <time>2026-07-27T08:07:11.000Z</time>
      </trkpt>
      <trkpt lat="44.52507" lon="6.46739">
        <ele>1008.830152</ele>
        <time>2026-07-27T08:07:11.000Z</time>
      </trkpt>
      <trkpt lat="44.52506" lon="6.46742">
        <ele>1009.303935</ele>
        <time>2026-07-27T08:07:13.000Z</time>
      </trkpt>
      <trkpt lat="44.52506" lon="6.46742">
        <ele>1009.303935</ele>
        <time>2026-07-27T08:07:13.000Z</time>
      </trkpt>
      <trkpt lat="44.52506" lon="6.46746">
        <ele>1009.734538</ele>
        <time>2026-07-27T08:07:13.000Z</time>
      </trkpt>
      <trkpt lat="44.52506" lon="6.46746">
        <ele>1009.734538</ele>
        <time>2026-07-27T08:07:13.000Z</time>
      </trkpt>
      <trkpt lat="44.52505" lon="6.4675">
        <ele>1010.168926</ele>
        <time>2026-07-27T08:07:15.000Z</time>
      </trkpt>
      <trkpt lat="44.52505" lon="6.4675">
        <ele>1010.168926</ele>
        <time>2026-07-27T08:07:15.000Z</time>
      </trkpt>
      <trkpt lat="44.52504" lon="6.46753">
        <ele>1010.620984</ele>
        <time>2026-07-27T08:07:16.000Z</time>
      </trkpt>
      <trkpt lat="44.52504" lon="6.46753">
        <ele>1010.620984</ele>
        <time>2026-07-27T08:07:16.000Z</time>
      </trkpt>
      <trkpt lat="44.52503" lon="6.46756">
        <ele>1010.970078</ele>
        <time>2026-07-27T08:07:17.000Z</time>
      </trkpt>
      <trkpt lat="44.52503" lon="6.46756">
        <ele>1010.970078</ele>
        <time>2026-07-27T08:07:17.000Z</time>
      </trkpt>
      <trkpt lat="44.52502" lon="6.46759">
        <ele>1011.38202</ele>
        <time>2026-07-27T08:07:17.000Z</time>
      </trkpt>
      <trkpt lat="44.52502" lon="6.46759">
        <ele>1011.38202</ele>
        <time>2026-07-27T08:07:17.000Z</time>
      </trkpt>
      <trkpt lat="44.52502" lon="6.46762">
        <ele>1011.755082</ele>
        <time>2026-07-27T08:07:19.000Z</time>
      </trkpt>
      <trkpt lat="44.52502" lon="6.46762">
        <ele>1011.755082</ele>
        <time>2026-07-27T08:07:19.000Z</time>
      </trkpt>
      <trkpt lat="44.52501" lon="6.46766">
        <ele>1012.189471</ele>
        <time>2026-07-27T08:07:19.000Z</time>
      </trkpt>
      <trkpt lat="44.52501" lon="6.46766">
        <ele>1012.189471</ele>
        <time>2026-07-27T08:07:19.000Z</time>
      </trkpt>
      <trkpt lat="44.525" lon="6.46769">
        <ele>1012.579109</ele>
        <time>2026-07-27T08:07:21.000Z</time>
      </trkpt>
      <trkpt lat="44.525" lon="6.46769">
        <ele>1012.579109</ele>
        <time>2026-07-27T08:07:21.000Z</time>
      </trkpt>
      <trkpt lat="44.525" lon="6.46772">
        <ele>1012.937136</ele>
        <time>2026-07-27T08:07:22.000Z</time>
      </trkpt>
      <trkpt lat="44.525" lon="6.46772">
        <ele>1012.937136</ele>
        <time>2026-07-27T08:07:22.000Z</time>
      </trkpt>
      <trkpt lat="44.52499" lon="6.46776">
        <ele>1013.439154</ele>
        <time>2026-07-27T08:07:23.000Z</time>
      </trkpt>
      <trkpt lat="44.52499" lon="6.46776">
        <ele>1013.439154</ele>
        <time>2026-07-27T08:07:23.000Z</time>
      </trkpt>
      <trkpt lat="44.52498" lon="6.46779">
        <ele>1013.880424</ele>
        <time>2026-07-27T08:07:24.000Z</time>
      </trkpt>
      <trkpt lat="44.52498" lon="6.46779">
        <ele>1013.880424</ele>
        <time>2026-07-27T08:07:24.000Z</time>
      </trkpt>
      <trkpt lat="44.52497" lon="6.46782">
        <ele>1014.204285</ele>
        <time>2026-07-27T08:07:25.000Z</time>
      </trkpt>
      <trkpt lat="44.52497" lon="6.46782">
        <ele>1014.204285</ele>
        <time>2026-07-27T08:07:25.000Z</time>
      </trkpt>
      <trkpt lat="44.52496" lon="6.46785">
        <ele>1014.622536</ele>
        <time>2026-07-27T08:07:26.000Z</time>
      </trkpt>
      <trkpt lat="44.52496" lon="6.46785">
        <ele>1014.622536</ele>
        <time>2026-07-27T08:07:26.000Z</time>
      </trkpt>
      <trkpt lat="44.52495" lon="6.46788">
        <ele>1014.97904</ele>
        <time>2026-07-27T08:07:27.000Z</time>
      </trkpt>
      <trkpt lat="44.52495" lon="6.46788">
        <ele>1014.97904</ele>
        <time>2026-07-27T08:07:27.000Z</time>
      </trkpt>
      <trkpt lat="44.52494" lon="6.4679">
        <ele>1015.313719</ele>
        <time>2026-07-27T08:07:28.000Z</time>
      </trkpt>
      <trkpt lat="44.52494" lon="6.4679">
        <ele>1015.313719</ele>
        <time>2026-07-27T08:07:28.000Z</time>
      </trkpt>
      <trkpt lat="44.52494" lon="6.46792">
        <ele>1015.577037</ele>
        <time>2026-07-27T08:07:29.000Z</time>
      </trkpt>
      <trkpt lat="44.52494" lon="6.46792">
        <ele>1015.577037</ele>
        <time>2026-07-27T08:07:29.000Z</time>
      </trkpt>
      <trkpt lat="44.52493" lon="6.46794">
        <ele>1015.817774</ele>
        <time>2026-07-27T08:07:30.000Z</time>
      </trkpt>
      <trkpt lat="44.52493" lon="6.46794">
        <ele>1015.817774</ele>
        <time>2026-07-27T08:07:30.000Z</time>
      </trkpt>
      <trkpt lat="44.52492" lon="6.46796">
        <ele>1016.10704</ele>
        <time>2026-07-27T08:07:31.000Z</time>
      </trkpt>
      <trkpt lat="44.52492" lon="6.46796">
        <ele>1016.10704</ele>
        <time>2026-07-27T08:07:31.000Z</time>
      </trkpt>
      <trkpt lat="44.5249" lon="6.46798">
        <ele>1016.447047</ele>
        <time>2026-07-27T08:07:32.000Z</time>
      </trkpt>
      <trkpt lat="44.5249" lon="6.46798">
        <ele>1016.447047</ele>
        <time>2026-07-27T08:07:32.000Z</time>
      </trkpt>
      <trkpt lat="44.52489" lon="6.468">
        <ele>1016.76673</ele>
        <time>2026-07-27T08:07:33.000Z</time>
      </trkpt>
      <trkpt lat="44.52489" lon="6.468">
        <ele>1016.76673</ele>
        <time>2026-07-27T08:07:33.000Z</time>
      </trkpt>
      <trkpt lat="44.52487" lon="6.46801">
        <ele>1017.140321</ele>
        <time>2026-07-27T08:07:34.000Z</time>
      </trkpt>
      <trkpt lat="44.52487" lon="6.46801">
        <ele>1017.140321</ele>
        <time>2026-07-27T08:07:34.000Z</time>
      </trkpt>
      <trkpt lat="44.52485" lon="6.46802">
        <ele>1017.547117</ele>
        <time>2026-07-27T08:07:35.000Z</time>
      </trkpt>
      <trkpt lat="44.52485" lon="6.46802">
        <ele>1017.547117</ele>
        <time>2026-07-27T08:07:35.000Z</time>
      </trkpt>
      <trkpt lat="44.52483" lon="6.46803">
        <ele>1017.822431</ele>
        <time>2026-07-27T08:07:36.000Z</time>
      </trkpt>
      <trkpt lat="44.52483" lon="6.46803">
        <ele>1017.822431</ele>
        <time>2026-07-27T08:07:36.000Z</time>
      </trkpt>
      <trkpt lat="44.52481" lon="6.46805">
        <ele>1018.163172</ele>
        <time>2026-07-27T08:07:37.000Z</time>
      </trkpt>
      <trkpt lat="44.52481" lon="6.46805">
        <ele>1018.163172</ele>
        <time>2026-07-27T08:07:37.000Z</time>
      </trkpt>
      <trkpt lat="44.52479" lon="6.46805">
        <ele>1018.495613</ele>
        <time>2026-07-27T08:07:38.000Z</time>
      </trkpt>
      <trkpt lat="44.52479" lon="6.46805">
        <ele>1018.495613</ele>
        <time>2026-07-27T08:07:38.000Z</time>
      </trkpt>
      <trkpt lat="44.52477" lon="6.46807">
        <ele>1018.898441</ele>
        <time>2026-07-27T08:07:39.000Z</time>
      </trkpt>
      <trkpt lat="44.52477" lon="6.46807">
        <ele>1018.898441</ele>
        <time>2026-07-27T08:07:39.000Z</time>
      </trkpt>
      <trkpt lat="44.52475" lon="6.46807">
        <ele>1019.288587</ele>
        <time>2026-07-27T08:07:40.000Z</time>
      </trkpt>
      <trkpt lat="44.52475" lon="6.46807">
        <ele>1019.288587</ele>
        <time>2026-07-27T08:07:40.000Z</time>
      </trkpt>
      <trkpt lat="44.52473" lon="6.46808">
        <ele>1019.621028</ele>
        <time>2026-07-27T08:07:41.000Z</time>
      </trkpt>
      <trkpt lat="44.52473" lon="6.46808">
        <ele>1019.621028</ele>
        <time>2026-07-27T08:07:41.000Z</time>
      </trkpt>
      <trkpt lat="44.52471" lon="6.46809">
        <ele>1019.949878</ele>
        <time>2026-07-27T08:07:42.000Z</time>
      </trkpt>
      <trkpt lat="44.52471" lon="6.46809">
        <ele>1019.949878</ele>
        <time>2026-07-27T08:07:42.000Z</time>
      </trkpt>
      <trkpt lat="44.52469" lon="6.4681">
        <ele>1020.340024</ele>
        <time>2026-07-27T08:07:43.000Z</time>
      </trkpt>
      <trkpt lat="44.52469" lon="6.4681">
        <ele>1020.340024</ele>
        <time>2026-07-27T08:07:43.000Z</time>
      </trkpt>
      <trkpt lat="44.52467" lon="6.4681">
        <ele>1020.595605</ele>
        <time>2026-07-27T08:07:44.000Z</time>
      </trkpt>
      <trkpt lat="44.52467" lon="6.4681">
        <ele>1020.595605</ele>
        <time>2026-07-27T08:07:44.000Z</time>
      </trkpt>
      <trkpt lat="44.52465" lon="6.4681">
        <ele>1020.978524</ele>
        <time>2026-07-27T08:07:45.000Z</time>
      </trkpt>
      <trkpt lat="44.52465" lon="6.4681">
        <ele>1020.978524</ele>
        <time>2026-07-27T08:07:45.000Z</time>
      </trkpt>
      <trkpt lat="44.52462" lon="6.4681">
        <ele>1021.359797</ele>
        <time>2026-07-27T08:07:46.000Z</time>
      </trkpt>
      <trkpt lat="44.52462" lon="6.4681">
        <ele>1021.359797</ele>
        <time>2026-07-27T08:07:46.000Z</time>
      </trkpt>
      <trkpt lat="44.52461" lon="6.46811">
        <ele>1021.675648</ele>
        <time>2026-07-27T08:07:47.000Z</time>
      </trkpt>
      <trkpt lat="44.52461" lon="6.46811">
        <ele>1021.675648</ele>
        <time>2026-07-27T08:07:47.000Z</time>
      </trkpt>
      <trkpt lat="44.52461" lon="6.46811">
        <ele>1021.675648</ele>
        <time>2026-07-27T08:07:48.000Z</time>
      </trkpt>
      <trkpt lat="44.52456" lon="6.46811">
        <ele>1022.439658</ele>
        <time>2026-07-27T08:07:49.000Z</time>
      </trkpt>
      <trkpt lat="44.52456" lon="6.46811">
        <ele>1022.439658</ele>
        <time>2026-07-27T08:07:49.000Z</time>
      </trkpt>
      <trkpt lat="44.52455" lon="6.46811">
        <ele>1022.576933</ele>
        <time>2026-07-27T08:07:50.000Z</time>
      </trkpt>
      <trkpt lat="44.52454" lon="6.4681">
        <ele>1022.76531</ele>
        <time>2026-07-27T08:07:51.000Z</time>
      </trkpt>
      <trkpt lat="44.52454" lon="6.4681">
        <ele>1022.76531</ele>
        <time>2026-07-27T08:07:51.000Z</time>
      </trkpt>
      <trkpt lat="44.52454" lon="6.4681">
        <ele>1022.76531</ele>
        <time>2026-07-27T08:07:52.000Z</time>
      </trkpt>
      <trkpt lat="44.52454" lon="6.4681">
        <ele>1022.76531</ele>
        <time>2026-07-27T08:07:53.000Z</time>
      </trkpt>
      <trkpt lat="44.5245" lon="6.46809">
        <ele>1023.413706</ele>
        <time>2026-07-27T08:08:07.000Z</time>
      </trkpt>
      <trkpt lat="44.5245" lon="6.46809">
        <ele>1023.413706</ele>
        <time>2026-07-27T08:08:07.000Z</time>
      </trkpt>
      <trkpt lat="44.5245" lon="6.46809">
        <ele>1023.413706</ele>
        <time>2026-07-27T08:08:08.000Z</time>
      </trkpt>
      <trkpt lat="44.52447" lon="6.46806">
        <ele>1023.921789</ele>
        <time>2026-07-27T08:08:11.000Z</time>
      </trkpt>
      <trkpt lat="44.52447" lon="6.46806">
        <ele>1023.921789</ele>
        <time>2026-07-27T08:08:11.000Z</time>
      </trkpt>
      <trkpt lat="44.52446" lon="6.46805">
        <ele>1024.067901</ele>
        <time>2026-07-27T08:08:12.000Z</time>
      </trkpt>
      <trkpt lat="44.52445" lon="6.46804">
        <ele>1024.261911</ele>
        <time>2026-07-27T08:08:13.000Z</time>
      </trkpt>
      <trkpt lat="44.52445" lon="6.46804">
        <ele>1024.261911</ele>
        <time>2026-07-27T08:08:13.000Z</time>
      </trkpt>
      <trkpt lat="44.52442" lon="6.46802">
        <ele>1024.78658</ele>
        <time>2026-07-27T08:08:15.000Z</time>
      </trkpt>
      <trkpt lat="44.52442" lon="6.46802">
        <ele>1024.78658</ele>
        <time>2026-07-27T08:08:15.000Z</time>
      </trkpt>
      <trkpt lat="44.5244" lon="6.46801">
        <ele>1025.003383</ele>
        <time>2026-07-27T08:08:16.000Z</time>
      </trkpt>
      <trkpt lat="44.52439" lon="6.46801">
        <ele>1025.23634</ele>
        <time>2026-07-27T08:08:17.000Z</time>
      </trkpt>
      <trkpt lat="44.52437" lon="6.468">
        <ele>1025.509387</ele>
        <time>2026-07-27T08:08:18.000Z</time>
      </trkpt>
      <trkpt lat="44.52437" lon="6.468">
        <ele>1025.509387</ele>
        <time>2026-07-27T08:08:18.000Z</time>
      </trkpt>
      <trkpt lat="44.52435" lon="6.46799">
        <ele>1025.836512</ele>
        <time>2026-07-27T08:08:19.000Z</time>
      </trkpt>
      <trkpt lat="44.52433" lon="6.46799">
        <ele>1026.102268</ele>
        <time>2026-07-27T08:08:20.000Z</time>
      </trkpt>
      <trkpt lat="44.52433" lon="6.46799">
        <ele>1026.102268</ele>
        <time>2026-07-27T08:08:20.000Z</time>
      </trkpt>
      <trkpt lat="44.52431" lon="6.46799">
        <ele>1026.367099</ele>
        <time>2026-07-27T08:08:21.000Z</time>
      </trkpt>
      <trkpt lat="44.52429" lon="6.46799">
        <ele>1026.631373</ele>
        <time>2026-07-27T08:08:22.000Z</time>
      </trkpt>
      <trkpt lat="44.52427" lon="6.46799">
        <ele>1026.951672</ele>
        <time>2026-07-27T08:08:22.000Z</time>
      </trkpt>
      <trkpt lat="44.52427" lon="6.46799">
        <ele>1026.951672</ele>
        <time>2026-07-27T08:08:22.000Z</time>
      </trkpt>
      <trkpt lat="44.52425" lon="6.46799">
        <ele>1027.220368</ele>
        <time>2026-07-27T08:08:24.000Z</time>
      </trkpt>
      <trkpt lat="44.52423" lon="6.468">
        <ele>1027.429798</ele>
        <time>2026-07-27T08:08:25.000Z</time>
      </trkpt>
      <trkpt lat="44.52421" lon="6.468">
        <ele>1027.694629</ele>
        <time>2026-07-27T08:08:26.000Z</time>
      </trkpt>
      <trkpt lat="44.52421" lon="6.468">
        <ele>1027.694629</ele>
        <time>2026-07-27T08:08:26.000Z</time>
      </trkpt>
      <trkpt lat="44.5242" lon="6.468">
        <ele>1027.862595</ele>
        <time>2026-07-27T08:08:27.000Z</time>
      </trkpt>
      <trkpt lat="44.52416" lon="6.46801">
        <ele>1028.394107</ele>
        <time>2026-07-27T08:08:29.000Z</time>
      </trkpt>
      <trkpt lat="44.52416" lon="6.46801">
        <ele>1028.394107</ele>
        <time>2026-07-27T08:08:29.000Z</time>
      </trkpt>
      <trkpt lat="44.52415" lon="6.46801">
        <ele>1028.603538</ele>
        <time>2026-07-27T08:08:30.000Z</time>
      </trkpt>
      <trkpt lat="44.52413" lon="6.46801">
        <ele>1028.814137</ele>
        <time>2026-07-27T08:08:31.000Z</time>
      </trkpt>
      <trkpt lat="44.52411" lon="6.46801">
        <ele>1029.079893</ele>
        <time>2026-07-27T08:08:32.000Z</time>
      </trkpt>
      <trkpt lat="44.52411" lon="6.46801">
        <ele>1029.079893</ele>
        <time>2026-07-27T08:08:32.000Z</time>
      </trkpt>
      <trkpt lat="44.52409" lon="6.46802">
        <ele>1029.34565</ele>
        <time>2026-07-27T08:08:33.000Z</time>
      </trkpt>
      <trkpt lat="44.52408" lon="6.46802">
        <ele>1029.609924</ele>
        <time>2026-07-27T08:08:34.000Z</time>
      </trkpt>
      <trkpt lat="44.52406" lon="6.46801">
        <ele>1029.874754</ele>
        <time>2026-07-27T08:08:35.000Z</time>
      </trkpt>
      <trkpt lat="44.52406" lon="6.46801">
        <ele>1029.874754</ele>
        <time>2026-07-27T08:08:35.000Z</time>
      </trkpt>
      <trkpt lat="44.52404" lon="6.46801">
        <ele>1030.153447</ele>
        <time>2026-07-27T08:08:36.000Z</time>
      </trkpt>
      <trkpt lat="44.52402" lon="6.46801">
        <ele>1030.420494</ele>
        <time>2026-07-27T08:08:37.000Z</time>
      </trkpt>
      <trkpt lat="44.52402" lon="6.46801">
        <ele>1030.420494</ele>
        <time>2026-07-27T08:08:37.000Z</time>
      </trkpt>
      <trkpt lat="44.524" lon="6.46801">
        <ele>1030.684768</ele>
        <time>2026-07-27T08:08:38.000Z</time>
      </trkpt>
      <trkpt lat="44.52398" lon="6.46801">
        <ele>1031.005833</ele>
        <time>2026-07-27T08:08:39.000Z</time>
      </trkpt>
      <trkpt lat="44.52398" lon="6.46801">
        <ele>1031.005833</ele>
        <time>2026-07-27T08:08:39.000Z</time>
      </trkpt>
      <trkpt lat="44.52395" lon="6.46801">
        <ele>1031.325518</ele>
        <time>2026-07-27T08:08:40.000Z</time>
      </trkpt>
      <trkpt lat="44.52395" lon="6.46801">
        <ele>1031.325518</ele>
        <time>2026-07-27T08:08:40.000Z</time>
      </trkpt>
      <trkpt lat="44.52393" lon="6.46801">
        <ele>1031.631946</ele>
        <time>2026-07-27T08:08:41.000Z</time>
      </trkpt>
      <trkpt lat="44.52393" lon="6.46801">
        <ele>1031.631946</ele>
        <time>2026-07-27T08:08:41.000Z</time>
      </trkpt>
      <trkpt lat="44.52391" lon="6.46801">
        <ele>1031.854557</ele>
        <time>2026-07-27T08:08:42.000Z</time>
      </trkpt>
      <trkpt lat="44.5239" lon="6.46801">
        <ele>1032.118645</ele>
        <time>2026-07-27T08:08:43.000Z</time>
      </trkpt>
      <trkpt lat="44.5239" lon="6.46801">
        <ele>1032.118645</ele>
        <time>2026-07-27T08:08:43.000Z</time>
      </trkpt>
      <trkpt lat="44.52387" lon="6.46802">
        <ele>1032.442147</ele>
        <time>2026-07-27T08:08:44.000Z</time>
      </trkpt>
      <trkpt lat="44.52387" lon="6.46802">
        <ele>1032.442147</ele>
        <time>2026-07-27T08:08:44.000Z</time>
      </trkpt>
      <trkpt lat="44.52385" lon="6.46802">
        <ele>1032.706978</ele>
        <time>2026-07-27T08:08:45.000Z</time>
      </trkpt>
      <trkpt lat="44.52383" lon="6.46802">
        <ele>1032.971809</ele>
        <time>2026-07-27T08:08:46.000Z</time>
      </trkpt>
      <trkpt lat="44.52383" lon="6.46802">
        <ele>1032.971809</ele>
        <time>2026-07-27T08:08:46.000Z</time>
      </trkpt>
      <trkpt lat="44.52382" lon="6.46802">
        <ele>1033.235897</ele>
        <time>2026-07-27T08:08:47.000Z</time>
      </trkpt>
      <trkpt lat="44.52382" lon="6.46802">
        <ele>1033.235897</ele>
        <time>2026-07-27T08:08:47.000Z</time>
      </trkpt>
      <trkpt lat="44.52379" lon="6.46802">
        <ele>1033.555736</ele>
        <time>2026-07-27T08:08:48.000Z</time>
      </trkpt>
      <trkpt lat="44.52379" lon="6.46802">
        <ele>1033.555736</ele>
        <time>2026-07-27T08:08:48.000Z</time>
      </trkpt>
      <trkpt lat="44.52377" lon="6.46802">
        <ele>1033.919287</ele>
        <time>2026-07-27T08:08:49.000Z</time>
      </trkpt>
      <trkpt lat="44.52374" lon="6.46803">
        <ele>1034.296658</ele>
        <time>2026-07-27T08:08:50.000Z</time>
      </trkpt>
      <trkpt lat="44.52374" lon="6.46803">
        <ele>1034.296658</ele>
        <time>2026-07-27T08:08:50.000Z</time>
      </trkpt>
      <trkpt lat="44.52372" lon="6.46803">
        <ele>1034.618792</ele>
        <time>2026-07-27T08:08:51.000Z</time>
      </trkpt>
      <trkpt lat="44.52372" lon="6.46803">
        <ele>1034.618792</ele>
        <time>2026-07-27T08:08:51.000Z</time>
      </trkpt>
      <trkpt lat="44.52368" lon="6.46803">
        <ele>1035.093961</ele>
        <time>2026-07-27T08:08:52.000Z</time>
      </trkpt>
      <trkpt lat="44.52368" lon="6.46803">
        <ele>1035.093961</ele>
        <time>2026-07-27T08:08:52.000Z</time>
      </trkpt>
      <trkpt lat="44.52365" lon="6.46804">
        <ele>1035.532074</ele>
        <time>2026-07-27T08:08:53.000Z</time>
      </trkpt>
      <trkpt lat="44.52365" lon="6.46804">
        <ele>1035.532074</ele>
        <time>2026-07-27T08:08:53.000Z</time>
      </trkpt>
      <trkpt lat="44.52362" lon="6.46805">
        <ele>1035.910614</ele>
        <time>2026-07-27T08:08:54.000Z</time>
      </trkpt>
      <trkpt lat="44.52362" lon="6.46805">
        <ele>1035.910614</ele>
        <time>2026-07-27T08:08:54.000Z</time>
      </trkpt>
      <trkpt lat="44.52359" lon="6.46806">
        <ele>1036.335064</ele>
        <time>2026-07-27T08:08:55.000Z</time>
      </trkpt>
      <trkpt lat="44.52359" lon="6.46806">
        <ele>1036.335064</ele>
        <time>2026-07-27T08:08:55.000Z</time>
      </trkpt>
      <trkpt lat="44.52357" lon="6.46806">
        <ele>1036.71087</ele>
        <time>2026-07-27T08:08:56.000Z</time>
      </trkpt>
      <trkpt lat="44.52357" lon="6.46806">
        <ele>1036.71087</ele>
        <time>2026-07-27T08:08:56.000Z</time>
      </trkpt>
      <trkpt lat="44.52354" lon="6.46806">
        <ele>1037.127969</ele>
        <time>2026-07-27T08:08:57.000Z</time>
      </trkpt>
      <trkpt lat="44.52354" lon="6.46806">
        <ele>1037.127969</ele>
        <time>2026-07-27T08:08:57.000Z</time>
      </trkpt>
      <trkpt lat="44.52351" lon="6.46806">
        <ele>1037.558964</ele>
        <time>2026-07-27T08:08:58.000Z</time>
      </trkpt>
      <trkpt lat="44.52351" lon="6.46806">
        <ele>1037.558964</ele>
        <time>2026-07-27T08:08:58.000Z</time>
      </trkpt>
      <trkpt lat="44.52348" lon="6.46805">
        <ele>1037.921568</ele>
        <time>2026-07-27T08:08:59.000Z</time>
      </trkpt>
      <trkpt lat="44.52348" lon="6.46805">
        <ele>1037.921568</ele>
        <time>2026-07-27T08:08:59.000Z</time>
      </trkpt>
      <trkpt lat="44.52345" lon="6.46805">
        <ele>1038.356532</ele>
        <time>2026-07-27T08:09:00.000Z</time>
      </trkpt>
      <trkpt lat="44.52345" lon="6.46805">
        <ele>1038.356532</ele>
        <time>2026-07-27T08:09:00.000Z</time>
      </trkpt>
      <trkpt lat="44.52342" lon="6.46804">
        <ele>1038.740097</ele>
        <time>2026-07-27T08:09:01.000Z</time>
      </trkpt>
      <trkpt lat="44.52342" lon="6.46804">
        <ele>1038.740097</ele>
        <time>2026-07-27T08:09:01.000Z</time>
      </trkpt>
      <trkpt lat="44.5234" lon="6.46803">
        <ele>1039.069466</ele>
        <time>2026-07-27T08:09:02.000Z</time>
      </trkpt>
      <trkpt lat="44.5234" lon="6.46803">
        <ele>1039.069466</ele>
        <time>2026-07-27T08:09:02.000Z</time>
      </trkpt>
      <trkpt lat="44.52337" lon="6.46802">
        <ele>1039.50046</ele>
        <time>2026-07-27T08:09:03.000Z</time>
      </trkpt>
      <trkpt lat="44.52337" lon="6.46802">
        <ele>1039.50046</ele>
        <time>2026-07-27T08:09:03.000Z</time>
      </trkpt>
      <trkpt lat="44.52334" lon="6.46801">
        <ele>1039.888607</ele>
        <time>2026-07-27T08:09:04.000Z</time>
      </trkpt>
      <trkpt lat="44.52334" lon="6.46801">
        <ele>1039.888607</ele>
        <time>2026-07-27T08:09:04.000Z</time>
      </trkpt>
      <trkpt lat="44.52331" lon="6.46799">
        <ele>1040.331291</ele>
        <time>2026-07-27T08:09:05.000Z</time>
      </trkpt>
      <trkpt lat="44.52331" lon="6.46799">
        <ele>1040.331291</ele>
        <time>2026-07-27T08:09:05.000Z</time>
      </trkpt>
      <trkpt lat="44.52329" lon="6.46798">
        <ele>1040.672378</ele>
        <time>2026-07-27T08:09:06.000Z</time>
      </trkpt>
      <trkpt lat="44.52329" lon="6.46798">
        <ele>1040.672378</ele>
        <time>2026-07-27T08:09:06.000Z</time>
      </trkpt>
      <trkpt lat="44.52327" lon="6.46797">
        <ele>1041.010137</ele>
        <time>2026-07-27T08:09:07.000Z</time>
      </trkpt>
      <trkpt lat="44.52327" lon="6.46797">
        <ele>1041.010137</ele>
        <time>2026-07-27T08:09:07.000Z</time>
      </trkpt>
      <trkpt lat="44.52325" lon="6.46796">
        <ele>1041.283184</ele>
        <time>2026-07-27T08:09:08.000Z</time>
      </trkpt>
      <trkpt lat="44.52325" lon="6.46796">
        <ele>1041.283184</ele>
        <time>2026-07-27T08:09:08.000Z</time>
      </trkpt>
      <trkpt lat="44.52322" lon="6.46795">
        <ele>1041.676857</ele>
        <time>2026-07-27T08:09:09.000Z</time>
      </trkpt>
      <trkpt lat="44.52322" lon="6.46795">
        <ele>1041.676857</ele>
        <time>2026-07-27T08:09:09.000Z</time>
      </trkpt>
      <trkpt lat="44.52319" lon="6.46794">
        <ele>1042.065004</ele>
        <time>2026-07-27T08:09:10.000Z</time>
      </trkpt>
      <trkpt lat="44.52319" lon="6.46794">
        <ele>1042.065004</ele>
        <time>2026-07-27T08:09:10.000Z</time>
      </trkpt>
      <trkpt lat="44.52317" lon="6.46794">
        <ele>1042.335703</ele>
        <time>2026-07-27T08:09:11.000Z</time>
      </trkpt>
      <trkpt lat="44.52317" lon="6.46794">
        <ele>1042.335703</ele>
        <time>2026-07-27T08:09:11.000Z</time>
      </trkpt>
      <trkpt lat="44.52315" lon="6.46793">
        <ele>1042.713169</ele>
        <time>2026-07-27T08:09:12.000Z</time>
      </trkpt>
      <trkpt lat="44.52315" lon="6.46793">
        <ele>1042.713169</ele>
        <time>2026-07-27T08:09:12.000Z</time>
      </trkpt>
      <trkpt lat="44.52313" lon="6.46792">
        <ele>1042.995238</ele>
        <time>2026-07-27T08:09:13.000Z</time>
      </trkpt>
      <trkpt lat="44.52313" lon="6.46792">
        <ele>1042.995238</ele>
        <time>2026-07-27T08:09:13.000Z</time>
      </trkpt>
      <trkpt lat="44.52311" lon="6.46791">
        <ele>1043.228196</ele>
        <time>2026-07-27T08:09:14.000Z</time>
      </trkpt>
      <trkpt lat="44.52311" lon="6.46791">
        <ele>1043.228196</ele>
        <time>2026-07-27T08:09:14.000Z</time>
      </trkpt>
      <trkpt lat="44.5231" lon="6.4679">
        <ele>1043.440421</ele>
        <time>2026-07-27T08:09:15.000Z</time>
      </trkpt>
      <trkpt lat="44.5231" lon="6.4679">
        <ele>1043.440421</ele>
        <time>2026-07-27T08:09:15.000Z</time>
      </trkpt>
      <trkpt lat="44.52307" lon="6.4679">
        <ele>1043.81688</ele>
        <time>2026-07-27T08:09:16.000Z</time>
      </trkpt>
      <trkpt lat="44.52307" lon="6.4679">
        <ele>1043.81688</ele>
        <time>2026-07-27T08:09:16.000Z</time>
      </trkpt>
      <trkpt lat="44.52305" lon="6.4679">
        <ele>1044.083926</ele>
        <time>2026-07-27T08:09:17.000Z</time>
      </trkpt>
      <trkpt lat="44.52305" lon="6.4679">
        <ele>1044.083926</ele>
        <time>2026-07-27T08:09:17.000Z</time>
      </trkpt>
      <trkpt lat="44.52303" lon="6.4679">
        <ele>1044.404226</ele>
        <time>2026-07-27T08:09:18.000Z</time>
      </trkpt>
      <trkpt lat="44.52303" lon="6.4679">
        <ele>1044.404226</ele>
        <time>2026-07-27T08:09:18.000Z</time>
      </trkpt>
      <trkpt lat="44.52301" lon="6.46789">
        <ele>1044.616451</ele>
        <time>2026-07-27T08:09:19.000Z</time>
      </trkpt>
      <trkpt lat="44.52301" lon="6.46789">
        <ele>1044.616451</ele>
        <time>2026-07-27T08:09:19.000Z</time>
      </trkpt>
      <trkpt lat="44.523" lon="6.46789">
        <ele>1044.769344</ele>
        <time>2026-07-27T08:09:20.000Z</time>
      </trkpt>
      <trkpt lat="44.523" lon="6.46789">
        <ele>1044.769344</ele>
        <time>2026-07-27T08:09:20.000Z</time>
      </trkpt>
      <trkpt lat="44.52298" lon="6.46789">
        <ele>1045.033432</ele>
        <time>2026-07-27T08:09:21.000Z</time>
      </trkpt>
      <trkpt lat="44.52298" lon="6.46789">
        <ele>1045.033432</ele>
        <time>2026-07-27T08:09:21.000Z</time>
      </trkpt>
      <trkpt lat="44.52296" lon="6.46789">
        <ele>1045.353271</ele>
        <time>2026-07-27T08:09:22.000Z</time>
      </trkpt>
      <trkpt lat="44.52296" lon="6.46789">
        <ele>1045.353271</ele>
        <time>2026-07-27T08:09:22.000Z</time>
      </trkpt>
      <trkpt lat="44.52294" lon="6.46789">
        <ele>1045.618102</ele>
        <time>2026-07-27T08:09:23.000Z</time>
      </trkpt>
      <trkpt lat="44.52294" lon="6.46789">
        <ele>1045.618102</ele>
        <time>2026-07-27T08:09:23.000Z</time>
      </trkpt>
      <trkpt lat="44.52293" lon="6.4679">
        <ele>1045.840713</ele>
        <time>2026-07-27T08:09:24.000Z</time>
      </trkpt>
      <trkpt lat="44.52293" lon="6.4679">
        <ele>1045.840713</ele>
        <time>2026-07-27T08:09:24.000Z</time>
      </trkpt>
      <trkpt lat="44.52291" lon="6.4679">
        <ele>1046.104987</ele>
        <time>2026-07-27T08:09:25.000Z</time>
      </trkpt>
      <trkpt lat="44.52291" lon="6.4679">
        <ele>1046.104987</ele>
        <time>2026-07-27T08:09:25.000Z</time>
      </trkpt>
      <trkpt lat="44.52288" lon="6.4679">
        <ele>1046.427121</ele>
        <time>2026-07-27T08:09:25.000Z</time>
      </trkpt>
      <trkpt lat="44.52288" lon="6.4679">
        <ele>1046.427121</ele>
        <time>2026-07-27T08:09:25.000Z</time>
      </trkpt>
      <trkpt lat="44.52287" lon="6.4679">
        <ele>1046.691395</ele>
        <time>2026-07-27T08:09:27.000Z</time>
      </trkpt>
      <trkpt lat="44.52287" lon="6.4679">
        <ele>1046.691395</ele>
        <time>2026-07-27T08:09:27.000Z</time>
      </trkpt>
      <trkpt lat="44.52285" lon="6.4679">
        <ele>1046.844288</ele>
        <time>2026-07-27T08:09:27.000Z</time>
      </trkpt>
      <trkpt lat="44.52283" lon="6.4679">
        <ele>1047.220746</ele>
        <time>2026-07-27T08:09:29.000Z</time>
      </trkpt>
      <trkpt lat="44.52283" lon="6.4679">
        <ele>1047.220746</ele>
        <time>2026-07-27T08:09:29.000Z</time>
      </trkpt>
      <trkpt lat="44.5228" lon="6.4679">
        <ele>1047.596553</ele>
        <time>2026-07-27T08:09:29.000Z</time>
      </trkpt>
      <trkpt lat="44.5228" lon="6.4679">
        <ele>1047.596553</ele>
        <time>2026-07-27T08:09:29.000Z</time>
      </trkpt>
      <trkpt lat="44.52277" lon="6.46789">
        <ele>1048.019265</ele>
        <time>2026-07-27T08:09:31.000Z</time>
      </trkpt>
      <trkpt lat="44.52277" lon="6.46789">
        <ele>1048.019265</ele>
        <time>2026-07-27T08:09:31.000Z</time>
      </trkpt>
      <trkpt lat="44.52275" lon="6.46789">
        <ele>1048.340329</ele>
        <time>2026-07-27T08:09:31.000Z</time>
      </trkpt>
      <trkpt lat="44.52275" lon="6.46789">
        <ele>1048.340329</ele>
        <time>2026-07-27T08:09:31.000Z</time>
      </trkpt>
      <trkpt lat="44.52272" lon="6.46788">
        <ele>1048.584758</ele>
        <time>2026-07-27T08:09:33.000Z</time>
      </trkpt>
      <trkpt lat="44.52272" lon="6.46788">
        <ele>1048.584758</ele>
        <time>2026-07-27T08:09:33.000Z</time>
      </trkpt>
      <trkpt lat="44.52268" lon="6.46787">
        <ele>1048.846858</ele>
        <time>2026-07-27T08:09:34.000Z</time>
      </trkpt>
      <trkpt lat="44.52268" lon="6.46787">
        <ele>1048.846858</ele>
        <time>2026-07-27T08:09:34.000Z</time>
      </trkpt>
      <trkpt lat="44.52265" lon="6.46786">
        <ele>1049.054092</ele>
        <time>2026-07-27T08:09:35.000Z</time>
      </trkpt>
      <trkpt lat="44.52265" lon="6.46786">
        <ele>1049.054092</ele>
        <time>2026-07-27T08:09:35.000Z</time>
      </trkpt>
      <trkpt lat="44.52263" lon="6.46785">
        <ele>1049.21539</ele>
        <time>2026-07-27T08:09:35.000Z</time>
      </trkpt>
      <trkpt lat="44.52263" lon="6.46785">
        <ele>1049.21539</ele>
        <time>2026-07-27T08:09:35.000Z</time>
      </trkpt>
      <trkpt lat="44.5226" lon="6.46784">
        <ele>1049.402855</ele>
        <time>2026-07-27T08:09:37.000Z</time>
      </trkpt>
      <trkpt lat="44.5226" lon="6.46784">
        <ele>1049.402855</ele>
        <time>2026-07-27T08:09:37.000Z</time>
      </trkpt>
      <trkpt lat="44.52258" lon="6.46783">
        <ele>1049.562926</ele>
        <time>2026-07-27T08:09:37.000Z</time>
      </trkpt>
      <trkpt lat="44.52258" lon="6.46783">
        <ele>1049.562926</ele>
        <time>2026-07-27T08:09:37.000Z</time>
      </trkpt>
      <trkpt lat="44.52255" lon="6.46782">
        <ele>1049.751563</ele>
        <time>2026-07-27T08:09:39.000Z</time>
      </trkpt>
      <trkpt lat="44.52255" lon="6.46782">
        <ele>1049.751563</ele>
        <time>2026-07-27T08:09:39.000Z</time>
      </trkpt>
      <trkpt lat="44.52252" lon="6.46781">
        <ele>1049.958797</ele>
        <time>2026-07-27T08:09:40.000Z</time>
      </trkpt>
      <trkpt lat="44.52252" lon="6.46781">
        <ele>1049.958797</ele>
        <time>2026-07-27T08:09:40.000Z</time>
      </trkpt>
      <trkpt lat="44.52249" lon="6.4678">
        <ele>1050.171717</ele>
        <time>2026-07-27T08:09:41.000Z</time>
      </trkpt>
      <trkpt lat="44.52249" lon="6.4678">
        <ele>1050.171717</ele>
        <time>2026-07-27T08:09:41.000Z</time>
      </trkpt>
      <trkpt lat="44.52247" lon="6.4678">
        <ele>1050.32524</ele>
        <time>2026-07-27T08:09:42.000Z</time>
      </trkpt>
      <trkpt lat="44.52247" lon="6.4678">
        <ele>1050.32524</ele>
        <time>2026-07-27T08:09:42.000Z</time>
      </trkpt>
      <trkpt lat="44.52245" lon="6.46779">
        <ele>1050.484221</ele>
        <time>2026-07-27T08:09:43.000Z</time>
      </trkpt>
      <trkpt lat="44.52245" lon="6.46779">
        <ele>1050.484221</ele>
        <time>2026-07-27T08:09:43.000Z</time>
      </trkpt>
      <trkpt lat="44.52242" lon="6.46778">
        <ele>1050.643202</ele>
        <time>2026-07-27T08:09:44.000Z</time>
      </trkpt>
      <trkpt lat="44.52242" lon="6.46778">
        <ele>1050.643202</ele>
        <time>2026-07-27T08:09:44.000Z</time>
      </trkpt>
      <trkpt lat="44.52239" lon="6.46777">
        <ele>1050.857046</ele>
        <time>2026-07-27T08:09:45.000Z</time>
      </trkpt>
      <trkpt lat="44.52239" lon="6.46777">
        <ele>1050.857046</ele>
        <time>2026-07-27T08:09:45.000Z</time>
      </trkpt>
      <trkpt lat="44.52236" lon="6.46777">
        <ele>1051.061746</ele>
        <time>2026-07-27T08:09:46.000Z</time>
      </trkpt>
      <trkpt lat="44.52236" lon="6.46777">
        <ele>1051.061746</ele>
        <time>2026-07-27T08:09:46.000Z</time>
      </trkpt>
      <trkpt lat="44.52234" lon="6.46776">
        <ele>1051.219775</ele>
        <time>2026-07-27T08:09:47.000Z</time>
      </trkpt>
      <trkpt lat="44.52234" lon="6.46776">
        <ele>1051.219775</ele>
        <time>2026-07-27T08:09:47.000Z</time>
      </trkpt>
      <trkpt lat="44.52232" lon="6.46776">
        <ele>1051.351333</ele>
        <time>2026-07-27T08:09:48.000Z</time>
      </trkpt>
      <trkpt lat="44.52232" lon="6.46776">
        <ele>1051.351333</ele>
        <time>2026-07-27T08:09:48.000Z</time>
      </trkpt>
      <trkpt lat="44.5223" lon="6.46775">
        <ele>1051.480039</ele>
        <time>2026-07-27T08:09:49.000Z</time>
      </trkpt>
      <trkpt lat="44.5223" lon="6.46775">
        <ele>1051.480039</ele>
        <time>2026-07-27T08:09:49.000Z</time>
      </trkpt>
      <trkpt lat="44.52228" lon="6.46775">
        <ele>1051.608384</ele>
        <time>2026-07-27T08:09:49.000Z</time>
      </trkpt>
      <trkpt lat="44.52228" lon="6.46775">
        <ele>1051.608384</ele>
        <time>2026-07-27T08:09:49.000Z</time>
      </trkpt>
      <trkpt lat="44.52228" lon="6.46775">
        <ele>1051.608384</ele>
        <time>2026-07-27T08:09:51.000Z</time>
      </trkpt>
      <trkpt lat="44.52225" lon="6.46776">
        <ele>1051.823256</ele>
        <time>2026-07-27T08:09:52.000Z</time>
      </trkpt>
      <trkpt lat="44.52225" lon="6.46776">
        <ele>1051.823256</ele>
        <time>2026-07-27T08:09:52.000Z</time>
      </trkpt>
      <trkpt lat="44.52225" lon="6.46776">
        <ele>1051.823256</ele>
        <time>2026-07-27T08:09:53.000Z</time>
      </trkpt>
      <trkpt lat="44.52225" lon="6.46776">
        <ele>1051.823256</ele>
        <time>2026-07-27T08:09:54.000Z</time>
      </trkpt>
      <trkpt lat="44.52225" lon="6.46776">
        <ele>1051.823256</ele>
        <time>2026-07-27T08:10:02.000Z</time>
      </trkpt>
      <trkpt lat="44.52225" lon="6.46776">
        <ele>1051.823256</ele>
        <time>2026-07-27T08:10:09.000Z</time>
      </trkpt>
      <trkpt lat="44.52224" lon="6.46778">
        <ele>1051.944965</ele>
        <time>2026-07-27T08:10:14.000Z</time>
      </trkpt>
      <trkpt lat="44.52224" lon="6.46778">
        <ele>1051.944965</ele>
        <time>2026-07-27T08:10:14.000Z</time>
      </trkpt>
      <trkpt lat="44.52224" lon="6.46778">
        <ele>1051.944965</ele>
        <time>2026-07-27T08:11:23.000Z</time>
      </trkpt>
      <trkpt lat="44.52222" lon="6.46776">
        <ele>1052.066674</ele>
        <time>2026-07-27T08:11:27.000Z</time>
      </trkpt>
      <trkpt lat="44.52223" lon="6.46777">
        <ele>1052.1464</ele>
        <time>2026-07-27T08:11:28.000Z</time>
      </trkpt>
      <trkpt lat="44.52226" lon="6.46778">
        <ele>1052.307699</ele>
        <time>2026-07-27T08:11:28.000Z</time>
      </trkpt>
      <trkpt lat="44.52228" lon="6.46779">
        <ele>1052.494109</ele>
        <time>2026-07-27T08:11:29.000Z</time>
      </trkpt>
      <trkpt lat="44.52232" lon="6.4678">
        <ele>1052.730939</ele>
        <time>2026-07-27T08:11:31.000Z</time>
      </trkpt>
      <trkpt lat="44.52236" lon="6.46781">
        <ele>1053.024928</ele>
        <time>2026-07-27T08:11:31.000Z</time>
      </trkpt>
      <trkpt lat="44.52241" lon="6.46784">
        <ele>1053.377496</ele>
        <time>2026-07-27T08:11:33.000Z</time>
      </trkpt>
      <trkpt lat="44.52245" lon="6.46786">
        <ele>1053.712022</ele>
        <time>2026-07-27T08:11:33.000Z</time>
      </trkpt>
      <trkpt lat="44.52245" lon="6.46786">
        <ele>1053.712022</ele>
        <time>2026-07-27T08:11:33.000Z</time>
      </trkpt>
      <trkpt lat="44.5225" lon="6.46789">
        <ele>1054.054701</ele>
        <time>2026-07-27T08:11:34.000Z</time>
      </trkpt>
      <trkpt lat="44.52253" lon="6.46793">
        <ele>1054.328634</ele>
        <time>2026-07-27T08:11:35.000Z</time>
      </trkpt>
      <trkpt lat="44.52257" lon="6.46795">
        <ele>1054.603232</ele>
        <time>2026-07-27T08:11:36.000Z</time>
      </trkpt>
      <trkpt lat="44.52257" lon="6.46795">
        <ele>1054.603232</ele>
        <time>2026-07-27T08:11:36.000Z</time>
      </trkpt>
      <trkpt lat="44.52257" lon="6.46795">
        <ele>1054.603232</ele>
        <time>2026-07-27T08:11:39.000Z</time>
      </trkpt>
      <trkpt lat="44.52257" lon="6.46795">
        <ele>1054.603232</ele>
        <time>2026-07-27T08:11:46.000Z</time>
      </trkpt>
      <trkpt lat="44.52259" lon="6.468">
        <ele>1054.874771</ele>
        <time>2026-07-27T08:12:33.000Z</time>
      </trkpt>
      <trkpt lat="44.52259" lon="6.468">
        <ele>1054.874771</ele>
        <time>2026-07-27T08:12:33.000Z</time>
      </trkpt>
      <trkpt lat="44.52259" lon="6.46799">
        <ele>1054.918305</ele>
        <time>2026-07-27T08:12:36.000Z</time>
      </trkpt>
      <trkpt lat="44.5226" lon="6.46798">
        <ele>1055.01244</ele>
        <time>2026-07-27T08:12:36.000Z</time>
      </trkpt>
      <trkpt lat="44.52261" lon="6.46796">
        <ele>1055.098657</ele>
        <time>2026-07-27T08:12:38.000Z</time>
      </trkpt>
      <trkpt lat="44.5226" lon="6.46794">
        <ele>1055.200812</ele>
        <time>2026-07-27T08:12:38.000Z</time>
      </trkpt>
      <trkpt lat="44.5226" lon="6.46794">
        <ele>1055.200812</ele>
        <time>2026-07-27T08:12:38.000Z</time>
      </trkpt>
      <trkpt lat="44.52259" lon="6.46793">
        <ele>1055.275484</ele>
        <time>2026-07-27T08:12:39.000Z</time>
      </trkpt>
      <trkpt lat="44.52258" lon="6.46792">
        <ele>1055.39585</ele>
        <time>2026-07-27T08:12:41.000Z</time>
      </trkpt>
      <trkpt lat="44.52256" lon="6.46791">
        <ele>1055.514958</ele>
        <time>2026-07-27T08:12:41.000Z</time>
      </trkpt>
      <trkpt lat="44.52254" lon="6.46789">
        <ele>1055.65776</ele>
        <time>2026-07-27T08:12:43.000Z</time>
      </trkpt>
      <trkpt lat="44.52251" lon="6.46788">
        <ele>1055.853932</ele>
        <time>2026-07-27T08:12:43.000Z</time>
      </trkpt>
      <trkpt lat="44.52249" lon="6.46787">
        <ele>1056.019698</ele>
        <time>2026-07-27T08:12:45.000Z</time>
      </trkpt>
      <trkpt lat="44.52246" lon="6.46785">
        <ele>1056.261951</ele>
        <time>2026-07-27T08:12:45.000Z</time>
      </trkpt>
      <trkpt lat="44.52243" lon="6.46783">
        <ele>1056.478757</ele>
        <time>2026-07-27T08:12:46.000Z</time>
      </trkpt>
      <trkpt lat="44.52239" lon="6.46782">
        <ele>1056.723332</ele>
        <time>2026-07-27T08:12:47.000Z</time>
      </trkpt>
      <trkpt lat="44.52235" lon="6.46781">
        <ele>1056.989994</ele>
        <time>2026-07-27T08:12:48.000Z</time>
      </trkpt>
      <trkpt lat="44.52235" lon="6.46781">
        <ele>1056.989994</ele>
        <time>2026-07-27T08:12:48.000Z</time>
      </trkpt>
      <trkpt lat="44.52232" lon="6.46779">
        <ele>1057.230758</ele>
        <time>2026-07-27T08:12:49.000Z</time>
      </trkpt>
      <trkpt lat="44.52228" lon="6.46777">
        <ele>1057.501692</ele>
        <time>2026-07-27T08:12:50.000Z</time>
      </trkpt>
      <trkpt lat="44.52225" lon="6.46776">
        <ele>1057.717694</ele>
        <time>2026-07-27T08:12:51.000Z</time>
      </trkpt>
      <trkpt lat="44.52225" lon="6.46776">
        <ele>1057.717694</ele>
        <time>2026-07-27T08:12:51.000Z</time>
      </trkpt>
      <trkpt lat="44.52222" lon="6.46775">
        <ele>1057.953395</ele>
        <time>2026-07-27T08:12:52.000Z</time>
      </trkpt>
      <trkpt lat="44.52218" lon="6.46774">
        <ele>1058.196782</ele>
        <time>2026-07-27T08:12:53.000Z</time>
      </trkpt>
      <trkpt lat="44.52215" lon="6.46773">
        <ele>1058.436145</ele>
        <time>2026-07-27T08:12:54.000Z</time>
      </trkpt>
      <trkpt lat="44.52215" lon="6.46773">
        <ele>1058.436145</ele>
        <time>2026-07-27T08:12:54.000Z</time>
      </trkpt>
      <trkpt lat="44.52212" lon="6.46771">
        <ele>1058.646875</ele>
        <time>2026-07-27T08:12:55.000Z</time>
      </trkpt>
      <trkpt lat="44.52209" lon="6.4677">
        <ele>1058.864109</ele>
        <time>2026-07-27T08:12:56.000Z</time>
      </trkpt>
      <trkpt lat="44.52209" lon="6.4677">
        <ele>1058.864109</ele>
        <time>2026-07-27T08:12:56.000Z</time>
      </trkpt>
      <trkpt lat="44.52205" lon="6.46769">
        <ele>1059.125278</ele>
        <time>2026-07-27T08:12:57.000Z</time>
      </trkpt>
      <trkpt lat="44.52202" lon="6.46769">
        <ele>1059.334904</ele>
        <time>2026-07-27T08:12:58.000Z</time>
      </trkpt>
      <trkpt lat="44.52202" lon="6.46769">
        <ele>1059.334904</ele>
        <time>2026-07-27T08:12:58.000Z</time>
      </trkpt>
      <trkpt lat="44.52199" lon="6.46768">
        <ele>1059.53898</ele>
        <time>2026-07-27T08:12:59.000Z</time>
      </trkpt>
      <trkpt lat="44.52195" lon="6.46768">
        <ele>1059.770461</ele>
        <time>2026-07-27T08:13:00.000Z</time>
      </trkpt>
      <trkpt lat="44.52195" lon="6.46768">
        <ele>1059.770461</ele>
        <time>2026-07-27T08:13:00.000Z</time>
      </trkpt>
      <trkpt lat="44.52192" lon="6.46767">
        <ele>1059.981851</ele>
        <time>2026-07-27T08:13:01.000Z</time>
      </trkpt>
      <trkpt lat="44.5219" lon="6.46767">
        <ele>1060.167325</ele>
        <time>2026-07-27T08:13:02.000Z</time>
      </trkpt>
      <trkpt lat="44.5219" lon="6.46767">
        <ele>1060.167325</ele>
        <time>2026-07-27T08:13:02.000Z</time>
      </trkpt>
      <trkpt lat="44.52184" lon="6.46765">
        <ele>1060.534583</ele>
        <time>2026-07-27T08:13:04.000Z</time>
      </trkpt>
      <trkpt lat="44.52184" lon="6.46765">
        <ele>1060.534583</ele>
        <time>2026-07-27T08:13:04.000Z</time>
      </trkpt>
      <trkpt lat="44.52181" lon="6.46764">
        <ele>1060.849799</ele>
        <time>2026-07-27T08:13:04.000Z</time>
      </trkpt>
      <trkpt lat="44.52179" lon="6.46763">
        <ele>1061.145897</ele>
        <time>2026-07-27T08:13:05.000Z</time>
      </trkpt>
      <trkpt lat="44.52179" lon="6.46763">
        <ele>1061.145897</ele>
        <time>2026-07-27T08:13:05.000Z</time>
      </trkpt>
      <trkpt lat="44.52176" lon="6.46763">
        <ele>1061.456728</ele>
        <time>2026-07-27T08:13:06.000Z</time>
      </trkpt>
      <trkpt lat="44.5217" lon="6.46762">
        <ele>1062.151087</ele>
        <time>2026-07-27T08:13:09.000Z</time>
      </trkpt>
      <trkpt lat="44.5217" lon="6.46762">
        <ele>1062.151087</ele>
        <time>2026-07-27T08:13:09.000Z</time>
      </trkpt>
      <trkpt lat="44.52167" lon="6.46762">
        <ele>1062.45674</ele>
        <time>2026-07-27T08:13:10.000Z</time>
      </trkpt>
      <trkpt lat="44.52167" lon="6.46762">
        <ele>1062.45674</ele>
        <time>2026-07-27T08:13:10.000Z</time>
      </trkpt>
      <trkpt lat="44.52161" lon="6.46762">
        <ele>1063.192748</ele>
        <time>2026-07-27T08:13:12.000Z</time>
      </trkpt>
      <trkpt lat="44.52161" lon="6.46762">
        <ele>1063.192748</ele>
        <time>2026-07-27T08:13:12.000Z</time>
      </trkpt>
      <trkpt lat="44.52154" lon="6.46761">
        <ele>1063.96271</ele>
        <time>2026-07-27T08:13:14.000Z</time>
      </trkpt>
      <trkpt lat="44.52154" lon="6.46761">
        <ele>1063.96271</ele>
        <time>2026-07-27T08:13:14.000Z</time>
      </trkpt>
      <trkpt lat="44.52151" lon="6.46762">
        <ele>1064.269321</ele>
        <time>2026-07-27T08:13:14.000Z</time>
      </trkpt>
      <trkpt lat="44.52151" lon="6.46762">
        <ele>1064.269321</ele>
        <time>2026-07-27T08:13:14.000Z</time>
      </trkpt>
      <trkpt lat="44.52148" lon="6.46762">
        <ele>1064.609031</ele>
        <time>2026-07-27T08:13:15.000Z</time>
      </trkpt>
      <trkpt lat="44.52148" lon="6.46762">
        <ele>1064.609031</ele>
        <time>2026-07-27T08:13:15.000Z</time>
      </trkpt>
      <trkpt lat="44.52145" lon="6.46762">
        <ele>1064.91511</ele>
        <time>2026-07-27T08:13:16.000Z</time>
      </trkpt>
      <trkpt lat="44.52145" lon="6.46762">
        <ele>1064.91511</ele>
        <time>2026-07-27T08:13:16.000Z</time>
      </trkpt>
      <trkpt lat="44.52139" lon="6.46762">
        <ele>1065.607355</ele>
        <time>2026-07-27T08:13:19.000Z</time>
      </trkpt>
      <trkpt lat="44.52139" lon="6.46762">
        <ele>1065.607355</ele>
        <time>2026-07-27T08:13:19.000Z</time>
      </trkpt>
      <trkpt lat="44.52136" lon="6.46763">
        <ele>1066.004311</ele>
        <time>2026-07-27T08:13:19.000Z</time>
      </trkpt>
      <trkpt lat="44.52136" lon="6.46763">
        <ele>1066.004311</ele>
        <time>2026-07-27T08:13:19.000Z</time>
      </trkpt>
      <trkpt lat="44.52133" lon="6.46763">
        <ele>1066.344021</ele>
        <time>2026-07-27T08:13:20.000Z</time>
      </trkpt>
      <trkpt lat="44.52133" lon="6.46763">
        <ele>1066.344021</ele>
        <time>2026-07-27T08:13:20.000Z</time>
      </trkpt>
      <trkpt lat="44.52129" lon="6.46763">
        <ele>1066.730269</ele>
        <time>2026-07-27T08:13:21.000Z</time>
      </trkpt>
      <trkpt lat="44.52129" lon="6.46763">
        <ele>1066.730269</ele>
        <time>2026-07-27T08:13:21.000Z</time>
      </trkpt>
      <trkpt lat="44.52126" lon="6.46763">
        <ele>1067.081204</ele>
        <time>2026-07-27T08:13:22.000Z</time>
      </trkpt>
      <trkpt lat="44.52126" lon="6.46763">
        <ele>1067.081204</ele>
        <time>2026-07-27T08:13:22.000Z</time>
      </trkpt>
      <trkpt lat="44.52123" lon="6.46763">
        <ele>1067.421202</ele>
        <time>2026-07-27T08:13:23.000Z</time>
      </trkpt>
      <trkpt lat="44.52123" lon="6.46763">
        <ele>1067.421202</ele>
        <time>2026-07-27T08:13:23.000Z</time>
      </trkpt>
      <trkpt lat="44.5212" lon="6.46763">
        <ele>1067.817747</ele>
        <time>2026-07-27T08:13:24.000Z</time>
      </trkpt>
      <trkpt lat="44.5212" lon="6.46763">
        <ele>1067.817747</ele>
        <time>2026-07-27T08:13:24.000Z</time>
      </trkpt>
      <trkpt lat="44.52116" lon="6.46762">
        <ele>1068.203995</ele>
        <time>2026-07-27T08:13:25.000Z</time>
      </trkpt>
      <trkpt lat="44.52116" lon="6.46762">
        <ele>1068.203995</ele>
        <time>2026-07-27T08:13:25.000Z</time>
      </trkpt>
      <trkpt lat="44.52114" lon="6.46762">
        <ele>1068.514826</ele>
        <time>2026-07-27T08:13:26.000Z</time>
      </trkpt>
      <trkpt lat="44.52114" lon="6.46762">
        <ele>1068.514826</ele>
        <time>2026-07-27T08:13:26.000Z</time>
      </trkpt>
      <trkpt lat="44.52111" lon="6.46761">
        <ele>1068.8639</ele>
        <time>2026-07-27T08:13:27.000Z</time>
      </trkpt>
      <trkpt lat="44.52111" lon="6.46761">
        <ele>1068.8639</ele>
        <time>2026-07-27T08:13:27.000Z</time>
      </trkpt>
      <trkpt lat="44.52107" lon="6.46759">
        <ele>1069.280632</ele>
        <time>2026-07-27T08:13:28.000Z</time>
      </trkpt>
      <trkpt lat="44.52107" lon="6.46759">
        <ele>1069.280632</ele>
        <time>2026-07-27T08:13:28.000Z</time>
      </trkpt>
      <trkpt lat="44.52105" lon="6.46758">
        <ele>1069.561175</ele>
        <time>2026-07-27T08:13:29.000Z</time>
      </trkpt>
      <trkpt lat="44.52105" lon="6.46758">
        <ele>1069.561175</ele>
        <time>2026-07-27T08:13:29.000Z</time>
      </trkpt>
      <trkpt lat="44.52101" lon="6.46755">
        <ele>1070.046601</ele>
        <time>2026-07-27T08:13:30.000Z</time>
      </trkpt>
      <trkpt lat="44.52101" lon="6.46755">
        <ele>1070.046601</ele>
        <time>2026-07-27T08:13:30.000Z</time>
      </trkpt>
      <trkpt lat="44.52099" lon="6.46753">
        <ele>1070.39035</ele>
        <time>2026-07-27T08:13:31.000Z</time>
      </trkpt>
      <trkpt lat="44.52099" lon="6.46753">
        <ele>1070.39035</ele>
        <time>2026-07-27T08:13:31.000Z</time>
      </trkpt>
      <trkpt lat="44.52095" lon="6.4675">
        <ele>1070.826087</ele>
        <time>2026-07-27T08:13:32.000Z</time>
      </trkpt>
      <trkpt lat="44.52095" lon="6.4675">
        <ele>1070.826087</ele>
        <time>2026-07-27T08:13:32.000Z</time>
      </trkpt>
      <trkpt lat="44.52092" lon="6.46746">
        <ele>1071.283702</ele>
        <time>2026-07-27T08:13:33.000Z</time>
      </trkpt>
      <trkpt lat="44.52092" lon="6.46746">
        <ele>1071.283702</ele>
        <time>2026-07-27T08:13:33.000Z</time>
      </trkpt>
      <trkpt lat="44.5209" lon="6.46742">
        <ele>1071.667889</ele>
        <time>2026-07-27T08:13:34.000Z</time>
      </trkpt>
      <trkpt lat="44.5209" lon="6.46742">
        <ele>1071.667889</ele>
        <time>2026-07-27T08:13:34.000Z</time>
      </trkpt>
      <trkpt lat="44.52087" lon="6.46739">
        <ele>1072.089618</ele>
        <time>2026-07-27T08:13:35.000Z</time>
      </trkpt>
      <trkpt lat="44.52087" lon="6.46739">
        <ele>1072.089618</ele>
        <time>2026-07-27T08:13:35.000Z</time>
      </trkpt>
      <trkpt lat="44.52085" lon="6.46735">
        <ele>1072.511348</ele>
        <time>2026-07-27T08:13:36.000Z</time>
      </trkpt>
      <trkpt lat="44.52085" lon="6.46735">
        <ele>1072.511348</ele>
        <time>2026-07-27T08:13:36.000Z</time>
      </trkpt>
      <trkpt lat="44.52083" lon="6.46733">
        <ele>1072.781301</ele>
        <time>2026-07-27T08:13:37.000Z</time>
      </trkpt>
      <trkpt lat="44.52083" lon="6.46733">
        <ele>1072.781301</ele>
        <time>2026-07-27T08:13:37.000Z</time>
      </trkpt>
      <trkpt lat="44.52081" lon="6.46729">
        <ele>1073.176309</ele>
        <time>2026-07-27T08:13:38.000Z</time>
      </trkpt>
      <trkpt lat="44.52081" lon="6.46729">
        <ele>1073.176309</ele>
        <time>2026-07-27T08:13:38.000Z</time>
      </trkpt>
      <trkpt lat="44.52078" lon="6.46727">
        <ele>1073.584248</ele>
        <time>2026-07-27T08:13:39.000Z</time>
      </trkpt>
      <trkpt lat="44.52078" lon="6.46727">
        <ele>1073.584248</ele>
        <time>2026-07-27T08:13:39.000Z</time>
      </trkpt>
      <trkpt lat="44.52075" lon="6.46725">
        <ele>1073.916064</ele>
        <time>2026-07-27T08:13:40.000Z</time>
      </trkpt>
      <trkpt lat="44.52075" lon="6.46725">
        <ele>1073.916064</ele>
        <time>2026-07-27T08:13:40.000Z</time>
      </trkpt>
      <trkpt lat="44.52072" lon="6.46724">
        <ele>1074.239226</ele>
        <time>2026-07-27T08:13:42.000Z</time>
      </trkpt>
      <trkpt lat="44.52072" lon="6.46724">
        <ele>1074.239226</ele>
        <time>2026-07-27T08:13:42.000Z</time>
      </trkpt>
      <trkpt lat="44.52071" lon="6.46723">
        <ele>1074.410751</ele>
        <time>2026-07-27T08:13:42.000Z</time>
      </trkpt>
      <trkpt lat="44.52071" lon="6.46723">
        <ele>1074.410751</ele>
        <time>2026-07-27T08:13:42.000Z</time>
      </trkpt>
      <trkpt lat="44.52069" lon="6.46723">
        <ele>1074.582276</ele>
        <time>2026-07-27T08:13:44.000Z</time>
      </trkpt>
      <trkpt lat="44.52069" lon="6.46723">
        <ele>1074.582276</ele>
        <time>2026-07-27T08:13:44.000Z</time>
      </trkpt>
      <trkpt lat="44.52069" lon="6.46723">
        <ele>1074.582276</ele>
        <time>2026-07-27T08:13:45.000Z</time>
      </trkpt>
      <trkpt lat="44.52068" lon="6.46723">
        <ele>1074.720263</ele>
        <time>2026-07-27T08:13:46.000Z</time>
      </trkpt>
      <trkpt lat="44.52068" lon="6.46723">
        <ele>1074.720263</ele>
        <time>2026-07-27T08:13:46.000Z</time>
      </trkpt>
      <trkpt lat="44.52067" lon="6.46723">
        <ele>1074.847121</ele>
        <time>2026-07-27T08:13:46.000Z</time>
      </trkpt>
      <trkpt lat="44.52067" lon="6.46723">
        <ele>1074.847121</ele>
        <time>2026-07-27T08:13:46.000Z</time>
      </trkpt>
      <trkpt lat="44.52067" lon="6.46723">
        <ele>1074.847121</ele>
        <time>2026-07-27T08:13:47.000Z</time>
      </trkpt>
      <trkpt lat="44.52065" lon="6.46724">
        <ele>1075.076856</ele>
        <time>2026-07-27T08:13:49.000Z</time>
      </trkpt>
      <trkpt lat="44.52065" lon="6.46724">
        <ele>1075.076856</ele>
        <time>2026-07-27T08:13:49.000Z</time>
      </trkpt>
      <trkpt lat="44.52064" lon="6.46725">
        <ele>1075.173003</ele>
        <time>2026-07-27T08:13:49.000Z</time>
      </trkpt>
      <trkpt lat="44.52064" lon="6.46725">
        <ele>1075.173003</ele>
        <time>2026-07-27T08:13:49.000Z</time>
      </trkpt>
      <trkpt lat="44.52064" lon="6.46725">
        <ele>1075.173003</ele>
        <time>2026-07-27T08:13:50.000Z</time>
      </trkpt>
      <trkpt lat="44.52062" lon="6.46727">
        <ele>1075.451921</ele>
        <time>2026-07-27T08:13:52.000Z</time>
      </trkpt>
      <trkpt lat="44.52062" lon="6.46727">
        <ele>1075.451921</ele>
        <time>2026-07-27T08:13:52.000Z</time>
      </trkpt>
      <trkpt lat="44.52062" lon="6.46727">
        <ele>1075.451921</ele>
        <time>2026-07-27T08:13:52.000Z</time>
      </trkpt>
      <trkpt lat="44.52062" lon="6.46727">
        <ele>1075.451921</ele>
        <time>2026-07-27T08:13:53.000Z</time>
      </trkpt>
      <trkpt lat="44.52062" lon="6.46727">
        <ele>1075.451921</ele>
        <time>2026-07-27T08:14:01.000Z</time>
      </trkpt>
      <trkpt lat="44.52062" lon="6.46727">
        <ele>1075.451921</ele>
        <time>2026-07-27T08:14:04.000Z</time>
      </trkpt>
      <trkpt lat="44.5206" lon="6.46727">
        <ele>1075.670763</ele>
        <time>2026-07-27T08:14:05.000Z</time>
      </trkpt>
      <trkpt lat="44.52059" lon="6.46731">
        <ele>1075.993481</ele>
        <time>2026-07-27T08:14:06.000Z</time>
      </trkpt>
      <trkpt lat="44.52059" lon="6.46731">
        <ele>1075.993481</ele>
        <time>2026-07-27T08:14:06.000Z</time>
      </trkpt>
      <trkpt lat="44.52058" lon="6.46733">
        <ele>1076.207321</ele>
        <time>2026-07-27T08:14:06.000Z</time>
      </trkpt>
      <trkpt lat="44.52058" lon="6.46733">
        <ele>1076.207321</ele>
        <time>2026-07-27T08:14:06.000Z</time>
      </trkpt>
      <trkpt lat="44.52058" lon="6.46733">
        <ele>1076.207321</ele>
        <time>2026-07-27T08:14:08.000Z</time>
      </trkpt>
      <trkpt lat="44.52057" lon="6.46738">
        <ele>1076.579081</ele>
        <time>2026-07-27T08:14:09.000Z</time>
      </trkpt>
      <trkpt lat="44.52057" lon="6.46738">
        <ele>1076.579081</ele>
        <time>2026-07-27T08:14:09.000Z</time>
      </trkpt>
      <trkpt lat="44.52057" lon="6.46739">
        <ele>1076.67163</ele>
        <time>2026-07-27T08:14:10.000Z</time>
      </trkpt>
      <trkpt lat="44.52057" lon="6.46739">
        <ele>1076.67163</ele>
        <time>2026-07-27T08:14:10.000Z</time>
      </trkpt>
      <trkpt lat="44.52057" lon="6.46739">
        <ele>1076.67163</ele>
        <time>2026-07-27T08:14:10.000Z</time>
      </trkpt>
      <trkpt lat="44.52057" lon="6.46739">
        <ele>1076.67163</ele>
        <time>2026-07-27T08:14:12.000Z</time>
      </trkpt>
      <trkpt lat="44.52057" lon="6.4674">
        <ele>1076.76418</ele>
        <time>2026-07-27T08:14:16.000Z</time>
      </trkpt>
      <trkpt lat="44.52053" lon="6.4674">
        <ele>1077.195039</ele>
        <time>2026-07-27T08:15:31.000Z</time>
      </trkpt>
      <trkpt lat="44.5205" lon="6.4674">
        <ele>1077.545974</ele>
        <time>2026-07-27T08:15:32.000Z</time>
      </trkpt>
      <trkpt lat="44.5205" lon="6.4674">
        <ele>1077.545974</ele>
        <time>2026-07-27T08:15:32.000Z</time>
      </trkpt>
      <trkpt lat="44.52048" lon="6.4674">
        <ele>1077.716546</ele>
        <time>2026-07-27T08:15:33.000Z</time>
      </trkpt>
      <trkpt lat="44.52048" lon="6.4674">
        <ele>1077.716546</ele>
        <time>2026-07-27T08:15:33.000Z</time>
      </trkpt>
      <trkpt lat="44.52046" lon="6.46739">
        <ele>1077.934045</ele>
        <time>2026-07-27T08:15:34.000Z</time>
      </trkpt>
      <trkpt lat="44.52045" lon="6.46739">
        <ele>1078.104618</ele>
        <time>2026-07-27T08:15:35.000Z</time>
      </trkpt>
      <trkpt lat="44.52045" lon="6.46739">
        <ele>1078.104618</ele>
        <time>2026-07-27T08:15:35.000Z</time>
      </trkpt>
      <trkpt lat="44.52043" lon="6.46739">
        <ele>1078.319858</ele>
        <time>2026-07-27T08:15:36.000Z</time>
      </trkpt>
      <trkpt lat="44.52041" lon="6.46739">
        <ele>1078.584695</ele>
        <time>2026-07-27T08:15:37.000Z</time>
      </trkpt>
      <trkpt lat="44.52041" lon="6.46739">
        <ele>1078.584695</ele>
        <time>2026-07-27T08:15:37.000Z</time>
      </trkpt>
      <trkpt lat="44.52038" lon="6.46738">
        <ele>1078.845566</ele>
        <time>2026-07-27T08:15:38.000Z</time>
      </trkpt>
      <trkpt lat="44.52036" lon="6.46738">
        <ele>1079.152177</ele>
        <time>2026-07-27T08:15:39.000Z</time>
      </trkpt>
      <trkpt lat="44.52036" lon="6.46738">
        <ele>1079.152177</ele>
        <time>2026-07-27T08:15:39.000Z</time>
      </trkpt>
      <trkpt lat="44.52034" lon="6.46738">
        <ele>1079.369675</ele>
        <time>2026-07-27T08:15:40.000Z</time>
      </trkpt>
      <trkpt lat="44.52034" lon="6.46738">
        <ele>1079.369675</ele>
        <time>2026-07-27T08:15:40.000Z</time>
      </trkpt>
      <trkpt lat="44.52032" lon="6.46738">
        <ele>1079.584916</ele>
        <time>2026-07-27T08:15:41.000Z</time>
      </trkpt>
      <trkpt lat="44.5203" lon="6.46737">
        <ele>1079.754915</ele>
        <time>2026-07-27T08:15:42.000Z</time>
      </trkpt>
      <trkpt lat="44.5203" lon="6.46737">
        <ele>1079.754915</ele>
        <time>2026-07-27T08:15:42.000Z</time>
      </trkpt>
      <trkpt lat="44.52028" lon="6.46737">
        <ele>1080.023173</ele>
        <time>2026-07-27T08:15:43.000Z</time>
      </trkpt>
      <trkpt lat="44.52028" lon="6.46737">
        <ele>1080.023173</ele>
        <time>2026-07-27T08:15:43.000Z</time>
      </trkpt>
      <trkpt lat="44.52026" lon="6.46737">
        <ele>1080.285538</ele>
        <time>2026-07-27T08:15:44.000Z</time>
      </trkpt>
      <trkpt lat="44.52026" lon="6.46737">
        <ele>1080.285538</ele>
        <time>2026-07-27T08:15:44.000Z</time>
      </trkpt>
      <trkpt lat="44.52023" lon="6.46738">
        <ele>1080.59637</ele>
        <time>2026-07-27T08:15:45.000Z</time>
      </trkpt>
      <trkpt lat="44.52023" lon="6.46738">
        <ele>1080.59637</ele>
        <time>2026-07-27T08:15:45.000Z</time>
      </trkpt>
      <trkpt lat="44.52021" lon="6.46738">
        <ele>1080.85985</ele>
        <time>2026-07-27T08:15:46.000Z</time>
      </trkpt>
      <trkpt lat="44.52021" lon="6.46738">
        <ele>1080.85985</ele>
        <time>2026-07-27T08:15:46.000Z</time>
      </trkpt>
      <trkpt lat="44.52019" lon="6.46739">
        <ele>1081.105576</ele>
        <time>2026-07-27T08:15:47.000Z</time>
      </trkpt>
      <trkpt lat="44.52019" lon="6.46739">
        <ele>1081.105576</ele>
        <time>2026-07-27T08:15:47.000Z</time>
      </trkpt>
      <trkpt lat="44.52016" lon="6.46739">
        <ele>1081.458466</ele>
        <time>2026-07-27T08:15:48.000Z</time>
      </trkpt>
      <trkpt lat="44.52016" lon="6.46739">
        <ele>1081.458466</ele>
        <time>2026-07-27T08:15:48.000Z</time>
      </trkpt>
      <trkpt lat="44.52013" lon="6.4674">
        <ele>1081.828251</ele>
        <time>2026-07-27T08:15:49.000Z</time>
      </trkpt>
      <trkpt lat="44.52013" lon="6.4674">
        <ele>1081.828251</ele>
        <time>2026-07-27T08:15:49.000Z</time>
      </trkpt>
      <trkpt lat="44.52011" lon="6.46741">
        <ele>1082.206</ele>
        <time>2026-07-27T08:15:50.000Z</time>
      </trkpt>
      <trkpt lat="44.52011" lon="6.46741">
        <ele>1082.206</ele>
        <time>2026-07-27T08:15:50.000Z</time>
      </trkpt>
      <trkpt lat="44.52008" lon="6.46742">
        <ele>1082.526546</ele>
        <time>2026-07-27T08:15:51.000Z</time>
      </trkpt>
      <trkpt lat="44.52008" lon="6.46742">
        <ele>1082.526546</ele>
        <time>2026-07-27T08:15:51.000Z</time>
      </trkpt>
      <trkpt lat="44.52007" lon="6.46743">
        <ele>1082.797821</ele>
        <time>2026-07-27T08:15:52.000Z</time>
      </trkpt>
      <trkpt lat="44.52007" lon="6.46743">
        <ele>1082.797821</ele>
        <time>2026-07-27T08:15:52.000Z</time>
      </trkpt>
      <trkpt lat="44.52005" lon="6.46743">
        <ele>1083.018514</ele>
        <time>2026-07-27T08:15:53.000Z</time>
      </trkpt>
      <trkpt lat="44.52005" lon="6.46743">
        <ele>1083.018514</ele>
        <time>2026-07-27T08:15:53.000Z</time>
      </trkpt>
      <trkpt lat="44.52003" lon="6.46744">
        <ele>1083.344242</ele>
        <time>2026-07-27T08:15:54.000Z</time>
      </trkpt>
      <trkpt lat="44.52003" lon="6.46744">
        <ele>1083.344242</ele>
        <time>2026-07-27T08:15:54.000Z</time>
      </trkpt>
      <trkpt lat="44.52001" lon="6.46745">
        <ele>1083.561322</ele>
        <time>2026-07-27T08:15:54.000Z</time>
      </trkpt>
      <trkpt lat="44.52001" lon="6.46745">
        <ele>1083.561322</ele>
        <time>2026-07-27T08:15:54.000Z</time>
      </trkpt>
      <trkpt lat="44.51999" lon="6.46746">
        <ele>1083.827054</ele>
        <time>2026-07-27T08:15:56.000Z</time>
      </trkpt>
      <trkpt lat="44.51999" lon="6.46746">
        <ele>1083.827054</ele>
        <time>2026-07-27T08:15:56.000Z</time>
      </trkpt>
      <trkpt lat="44.51998" lon="6.46747">
        <ele>1084.040896</ele>
        <time>2026-07-27T08:15:56.000Z</time>
      </trkpt>
      <trkpt lat="44.51998" lon="6.46747">
        <ele>1084.040896</ele>
        <time>2026-07-27T08:15:56.000Z</time>
      </trkpt>
      <trkpt lat="44.51996" lon="6.46749">
        <ele>1084.362245</ele>
        <time>2026-07-27T08:15:58.000Z</time>
      </trkpt>
      <trkpt lat="44.51996" lon="6.46749">
        <ele>1084.362245</ele>
        <time>2026-07-27T08:15:58.000Z</time>
      </trkpt>
      <trkpt lat="44.51994" lon="6.4675">
        <ele>1084.683696</ele>
        <time>2026-07-27T08:15:59.000Z</time>
      </trkpt>
      <trkpt lat="44.51994" lon="6.4675">
        <ele>1084.683696</ele>
        <time>2026-07-27T08:15:59.000Z</time>
      </trkpt>
      <trkpt lat="44.51993" lon="6.46752">
        <ele>1084.878276</ele>
        <time>2026-07-27T08:16:00.000Z</time>
      </trkpt>
      <trkpt lat="44.51993" lon="6.46752">
        <ele>1084.878276</ele>
        <time>2026-07-27T08:16:00.000Z</time>
      </trkpt>
      <trkpt lat="44.51991" lon="6.46753">
        <ele>1085.229958</ele>
        <time>2026-07-27T08:16:01.000Z</time>
      </trkpt>
      <trkpt lat="44.51991" lon="6.46753">
        <ele>1085.229958</ele>
        <time>2026-07-27T08:16:01.000Z</time>
      </trkpt>
      <trkpt lat="44.51988" lon="6.46755">
        <ele>1085.55867</ele>
        <time>2026-07-27T08:16:02.000Z</time>
      </trkpt>
      <trkpt lat="44.51988" lon="6.46755">
        <ele>1085.55867</ele>
        <time>2026-07-27T08:16:02.000Z</time>
      </trkpt>
      <trkpt lat="44.51987" lon="6.46755">
        <ele>1085.769666</ele>
        <time>2026-07-27T08:16:03.000Z</time>
      </trkpt>
      <trkpt lat="44.51987" lon="6.46755">
        <ele>1085.769666</ele>
        <time>2026-07-27T08:16:03.000Z</time>
      </trkpt>
      <trkpt lat="44.51984" lon="6.46756">
        <ele>1086.088028</ele>
        <time>2026-07-27T08:16:04.000Z</time>
      </trkpt>
      <trkpt lat="44.51984" lon="6.46756">
        <ele>1086.088028</ele>
        <time>2026-07-27T08:16:04.000Z</time>
      </trkpt>
      <trkpt lat="44.51983" lon="6.46757">
        <ele>1086.353761</ele>
        <time>2026-07-27T08:16:05.000Z</time>
      </trkpt>
      <trkpt lat="44.51983" lon="6.46757">
        <ele>1086.353761</ele>
        <time>2026-07-27T08:16:05.000Z</time>
      </trkpt>
      <trkpt lat="44.51981" lon="6.46757">
        <ele>1086.617208</ele>
        <time>2026-07-27T08:16:06.000Z</time>
      </trkpt>
      <trkpt lat="44.51981" lon="6.46757">
        <ele>1086.617208</ele>
        <time>2026-07-27T08:16:06.000Z</time>
      </trkpt>
      <trkpt lat="44.51978" lon="6.46758">
        <ele>1086.932044</ele>
        <time>2026-07-27T08:16:07.000Z</time>
      </trkpt>
      <trkpt lat="44.51978" lon="6.46758">
        <ele>1086.932044</ele>
        <time>2026-07-27T08:16:07.000Z</time>
      </trkpt>
      <trkpt lat="44.51976" lon="6.46758">
        <ele>1087.200389</ele>
        <time>2026-07-27T08:16:07.000Z</time>
      </trkpt>
      <trkpt lat="44.51976" lon="6.46758">
        <ele>1087.200389</ele>
        <time>2026-07-27T08:16:07.000Z</time>
      </trkpt>
      <trkpt lat="44.51975" lon="6.46759">
        <ele>1087.463836</ele>
        <time>2026-07-27T08:16:09.000Z</time>
      </trkpt>
      <trkpt lat="44.51975" lon="6.46759">
        <ele>1087.463836</ele>
        <time>2026-07-27T08:16:09.000Z</time>
      </trkpt>
      <trkpt lat="44.51973" lon="6.4676">
        <ele>1087.735112</ele>
        <time>2026-07-27T08:16:10.000Z</time>
      </trkpt>
      <trkpt lat="44.51973" lon="6.4676">
        <ele>1087.735112</ele>
        <time>2026-07-27T08:16:10.000Z</time>
      </trkpt>
      <trkpt lat="44.51971" lon="6.46761">
        <ele>1087.952193</ele>
        <time>2026-07-27T08:16:11.000Z</time>
      </trkpt>
      <trkpt lat="44.51971" lon="6.46761">
        <ele>1087.952193</ele>
        <time>2026-07-27T08:16:11.000Z</time>
      </trkpt>
      <trkpt lat="44.51969" lon="6.46762">
        <ele>1088.24645</ele>
        <time>2026-07-27T08:16:12.000Z</time>
      </trkpt>
      <trkpt lat="44.51969" lon="6.46762">
        <ele>1088.24645</ele>
        <time>2026-07-27T08:16:12.000Z</time>
      </trkpt>
      <trkpt lat="44.51967" lon="6.46764">
        <ele>1088.562103</ele>
        <time>2026-07-27T08:16:13.000Z</time>
      </trkpt>
      <trkpt lat="44.51967" lon="6.46764">
        <ele>1088.562103</ele>
        <time>2026-07-27T08:16:13.000Z</time>
      </trkpt>
      <trkpt lat="44.51964" lon="6.46765">
        <ele>1088.986841</ele>
        <time>2026-07-27T08:16:14.000Z</time>
      </trkpt>
      <trkpt lat="44.51964" lon="6.46765">
        <ele>1088.986841</ele>
        <time>2026-07-27T08:16:14.000Z</time>
      </trkpt>
      <trkpt lat="44.51962" lon="6.46767">
        <ele>1089.291701</ele>
        <time>2026-07-27T08:16:15.000Z</time>
      </trkpt>
      <trkpt lat="44.51962" lon="6.46767">
        <ele>1089.291701</ele>
        <time>2026-07-27T08:16:15.000Z</time>
      </trkpt>
      <trkpt lat="44.51961" lon="6.46768">
        <ele>1089.53022</ele>
        <time>2026-07-27T08:16:15.000Z</time>
      </trkpt>
      <trkpt lat="44.51961" lon="6.46768">
        <ele>1089.53022</ele>
        <time>2026-07-27T08:16:15.000Z</time>
      </trkpt>
      <trkpt lat="44.51959" lon="6.4677">
        <ele>1089.896288</ele>
        <time>2026-07-27T08:16:17.000Z</time>
      </trkpt>
      <trkpt lat="44.51959" lon="6.4677">
        <ele>1089.896288</ele>
        <time>2026-07-27T08:16:17.000Z</time>
      </trkpt>
      <trkpt lat="44.51957" lon="6.46771">
        <ele>1090.182255</ele>
        <time>2026-07-27T08:16:18.000Z</time>
      </trkpt>
      <trkpt lat="44.51957" lon="6.46771">
        <ele>1090.182255</ele>
        <time>2026-07-27T08:16:18.000Z</time>
      </trkpt>
      <trkpt lat="44.51955" lon="6.46773">
        <ele>1090.472579</ele>
        <time>2026-07-27T08:16:18.000Z</time>
      </trkpt>
      <trkpt lat="44.51955" lon="6.46773">
        <ele>1090.472579</ele>
        <time>2026-07-27T08:16:18.000Z</time>
      </trkpt>
      <trkpt lat="44.51953" lon="6.46774">
        <ele>1090.756704</ele>
        <time>2026-07-27T08:16:20.000Z</time>
      </trkpt>
      <trkpt lat="44.51953" lon="6.46774">
        <ele>1090.756704</ele>
        <time>2026-07-27T08:16:20.000Z</time>
      </trkpt>
      <trkpt lat="44.51951" lon="6.46775">
        <ele>1091.04267</ele>
        <time>2026-07-27T08:16:21.000Z</time>
      </trkpt>
      <trkpt lat="44.51951" lon="6.46775">
        <ele>1091.04267</ele>
        <time>2026-07-27T08:16:21.000Z</time>
      </trkpt>
      <trkpt lat="44.51948" lon="6.46776">
        <ele>1091.410026</ele>
        <time>2026-07-27T08:16:22.000Z</time>
      </trkpt>
      <trkpt lat="44.51948" lon="6.46776">
        <ele>1091.410026</ele>
        <time>2026-07-27T08:16:22.000Z</time>
      </trkpt>
      <trkpt lat="44.51946" lon="6.46777">
        <ele>1091.745462</ele>
        <time>2026-07-27T08:16:23.000Z</time>
      </trkpt>
      <trkpt lat="44.51946" lon="6.46777">
        <ele>1091.745462</ele>
        <time>2026-07-27T08:16:23.000Z</time>
      </trkpt>
      <trkpt lat="44.51944" lon="6.46779">
        <ele>1092.084621</ele>
        <time>2026-07-27T08:16:24.000Z</time>
      </trkpt>
      <trkpt lat="44.51944" lon="6.46779">
        <ele>1092.084621</ele>
        <time>2026-07-27T08:16:24.000Z</time>
      </trkpt>
      <trkpt lat="44.51941" lon="6.4678">
        <ele>1092.46237</ele>
        <time>2026-07-27T08:16:25.000Z</time>
      </trkpt>
      <trkpt lat="44.51941" lon="6.4678">
        <ele>1092.46237</ele>
        <time>2026-07-27T08:16:25.000Z</time>
      </trkpt>
      <trkpt lat="44.51938" lon="6.46781">
        <ele>1092.873758</ele>
        <time>2026-07-27T08:16:26.000Z</time>
      </trkpt>
      <trkpt lat="44.51938" lon="6.46781">
        <ele>1092.873758</ele>
        <time>2026-07-27T08:16:26.000Z</time>
      </trkpt>
      <trkpt lat="44.51935" lon="6.46781">
        <ele>1093.293095</ele>
        <time>2026-07-27T08:16:27.000Z</time>
      </trkpt>
      <trkpt lat="44.51935" lon="6.46781">
        <ele>1093.293095</ele>
        <time>2026-07-27T08:16:27.000Z</time>
      </trkpt>
      <trkpt lat="44.51933" lon="6.46781">
        <ele>1093.604365</ele>
        <time>2026-07-27T08:16:28.000Z</time>
      </trkpt>
      <trkpt lat="44.51933" lon="6.46781">
        <ele>1093.604365</ele>
        <time>2026-07-27T08:16:28.000Z</time>
      </trkpt>
      <trkpt lat="44.5193" lon="6.46781">
        <ele>1094.010289</ele>
        <time>2026-07-27T08:16:29.000Z</time>
      </trkpt>
      <trkpt lat="44.5193" lon="6.46781">
        <ele>1094.010289</ele>
        <time>2026-07-27T08:16:29.000Z</time>
      </trkpt>
      <trkpt lat="44.51928" lon="6.46781">
        <ele>1094.267483</ele>
        <time>2026-07-27T08:16:30.000Z</time>
      </trkpt>
      <trkpt lat="44.51928" lon="6.46781">
        <ele>1094.267483</ele>
        <time>2026-07-27T08:16:30.000Z</time>
      </trkpt>
      <trkpt lat="44.51926" lon="6.46781">
        <ele>1094.524677</ele>
        <time>2026-07-27T08:16:30.000Z</time>
      </trkpt>
      <trkpt lat="44.51926" lon="6.46781">
        <ele>1094.524677</ele>
        <time>2026-07-27T08:16:30.000Z</time>
      </trkpt>
      <trkpt lat="44.51923" lon="6.46781">
        <ele>1094.835947</ele>
        <time>2026-07-27T08:16:32.000Z</time>
      </trkpt>
      <trkpt lat="44.51923" lon="6.46781">
        <ele>1094.835947</ele>
        <time>2026-07-27T08:16:32.000Z</time>
      </trkpt>
      <trkpt lat="44.51922" lon="6.46781">
        <ele>1095.052379</ele>
        <time>2026-07-27T08:16:33.000Z</time>
      </trkpt>
      <trkpt lat="44.51922" lon="6.46781">
        <ele>1095.052379</ele>
        <time>2026-07-27T08:16:33.000Z</time>
      </trkpt>
      <trkpt lat="44.5192" lon="6.46781">
        <ele>1095.311016</ele>
        <time>2026-07-27T08:16:34.000Z</time>
      </trkpt>
      <trkpt lat="44.5192" lon="6.46781">
        <ele>1095.311016</ele>
        <time>2026-07-27T08:16:34.000Z</time>
      </trkpt>
      <trkpt lat="44.51917" lon="6.46782">
        <ele>1095.669139</ele>
        <time>2026-07-27T08:16:34.000Z</time>
      </trkpt>
      <trkpt lat="44.51917" lon="6.46782">
        <ele>1095.669139</ele>
        <time>2026-07-27T08:16:34.000Z</time>
      </trkpt>
      <trkpt lat="44.51914" lon="6.46782">
        <ele>1096.09124</ele>
        <time>2026-07-27T08:16:36.000Z</time>
      </trkpt>
      <trkpt lat="44.51914" lon="6.46782">
        <ele>1096.09124</ele>
        <time>2026-07-27T08:16:36.000Z</time>
      </trkpt>
      <trkpt lat="44.51912" lon="6.46783">
        <ele>1096.406076</ele>
        <time>2026-07-27T08:16:37.000Z</time>
      </trkpt>
      <trkpt lat="44.51908" lon="6.46784">
        <ele>1096.925861</ele>
        <time>2026-07-27T08:16:38.000Z</time>
      </trkpt>
      <trkpt lat="44.51908" lon="6.46784">
        <ele>1096.925861</ele>
        <time>2026-07-27T08:16:38.000Z</time>
      </trkpt>
      <trkpt lat="44.51905" lon="6.46785">
        <ele>1097.395783</ele>
        <time>2026-07-27T08:16:38.000Z</time>
      </trkpt>
      <trkpt lat="44.51905" lon="6.46785">
        <ele>1097.395783</ele>
        <time>2026-07-27T08:16:38.000Z</time>
      </trkpt>
      <trkpt lat="44.51901" lon="6.46786">
        <ele>1097.87712</ele>
        <time>2026-07-27T08:16:40.000Z</time>
      </trkpt>
      <trkpt lat="44.51901" lon="6.46786">
        <ele>1097.87712</ele>
        <time>2026-07-27T08:16:40.000Z</time>
      </trkpt>
      <trkpt lat="44.51898" lon="6.46787">
        <ele>1098.349116</ele>
        <time>2026-07-27T08:16:40.000Z</time>
      </trkpt>
      <trkpt lat="44.51898" lon="6.46787">
        <ele>1098.349116</ele>
        <time>2026-07-27T08:16:40.000Z</time>
      </trkpt>
      <trkpt lat="44.51895" lon="6.46788">
        <ele>1098.749461</ele>
        <time>2026-07-27T08:16:42.000Z</time>
      </trkpt>
      <trkpt lat="44.51895" lon="6.46788">
        <ele>1098.749461</ele>
        <time>2026-07-27T08:16:42.000Z</time>
      </trkpt>
      <trkpt lat="44.51893" lon="6.4679">
        <ele>1099.119718</ele>
        <time>2026-07-27T08:16:42.000Z</time>
      </trkpt>
      <trkpt lat="44.51893" lon="6.4679">
        <ele>1099.119718</ele>
        <time>2026-07-27T08:16:42.000Z</time>
      </trkpt>
      <trkpt lat="44.51891" lon="6.46791">
        <ele>1099.401589</ele>
        <time>2026-07-27T08:16:44.000Z</time>
      </trkpt>
      <trkpt lat="44.51891" lon="6.46791">
        <ele>1099.401589</ele>
        <time>2026-07-27T08:16:44.000Z</time>
      </trkpt>
      <trkpt lat="44.51888" lon="6.46792">
        <ele>1099.801935</ele>
        <time>2026-07-27T08:16:45.000Z</time>
      </trkpt>
      <trkpt lat="44.51886" lon="6.46794">
        <ele>1100.083806</ele>
        <time>2026-07-27T08:16:46.000Z</time>
      </trkpt>
      <trkpt lat="44.51886" lon="6.46794">
        <ele>1100.083806</ele>
        <time>2026-07-27T08:16:46.000Z</time>
      </trkpt>
      <trkpt lat="44.51885" lon="6.46795">
        <ele>1100.308468</ele>
        <time>2026-07-27T08:16:46.000Z</time>
      </trkpt>
      <trkpt lat="44.51885" lon="6.46795">
        <ele>1100.308468</ele>
        <time>2026-07-27T08:16:46.000Z</time>
      </trkpt>
      <trkpt lat="44.51883" lon="6.46796">
        <ele>1100.598793</ele>
        <time>2026-07-27T08:16:47.000Z</time>
      </trkpt>
      <trkpt lat="44.51883" lon="6.46796">
        <ele>1100.598793</ele>
        <time>2026-07-27T08:16:47.000Z</time>
      </trkpt>
      <trkpt lat="44.51881" lon="6.46797">
        <ele>1100.901159</ele>
        <time>2026-07-27T08:16:49.000Z</time>
      </trkpt>
      <trkpt lat="44.51881" lon="6.46797">
        <ele>1100.901159</ele>
        <time>2026-07-27T08:16:49.000Z</time>
      </trkpt>
      <trkpt lat="44.51879" lon="6.46799">
        <ele>1101.162033</ele>
        <time>2026-07-27T08:16:50.000Z</time>
      </trkpt>
      <trkpt lat="44.51879" lon="6.46799">
        <ele>1101.162033</ele>
        <time>2026-07-27T08:16:50.000Z</time>
      </trkpt>
      <trkpt lat="44.51878" lon="6.46801">
        <ele>1101.422906</ele>
        <time>2026-07-27T08:16:50.000Z</time>
      </trkpt>
      <trkpt lat="44.51878" lon="6.46801">
        <ele>1101.422906</ele>
        <time>2026-07-27T08:16:50.000Z</time>
      </trkpt>
      <trkpt lat="44.51876" lon="6.46803">
        <ele>1101.702872</ele>
        <time>2026-07-27T08:16:51.000Z</time>
      </trkpt>
      <trkpt lat="44.51876" lon="6.46803">
        <ele>1101.702872</ele>
        <time>2026-07-27T08:16:53.000Z</time>
      </trkpt>
      <trkpt lat="44.51873" lon="6.46805">
        <ele>1102.135279</ele>
        <time>2026-07-27T08:16:54.000Z</time>
      </trkpt>
      <trkpt lat="44.51873" lon="6.46805">
        <ele>1102.135279</ele>
        <time>2026-07-27T08:16:54.000Z</time>
      </trkpt>
      <trkpt lat="44.51873" lon="6.46805">
        <ele>1102.135279</ele>
        <time>2026-07-27T08:16:55.000Z</time>
      </trkpt>
      <trkpt lat="44.5187" lon="6.46808">
        <ele>1102.628898</ele>
        <time>2026-07-27T08:16:56.000Z</time>
      </trkpt>
      <trkpt lat="44.5187" lon="6.46808">
        <ele>1102.628898</ele>
        <time>2026-07-27T08:16:56.000Z</time>
      </trkpt>
      <trkpt lat="44.51868" lon="6.46809">
        <ele>1102.900174</ele>
        <time>2026-07-27T08:16:57.000Z</time>
      </trkpt>
      <trkpt lat="44.51868" lon="6.46809">
        <ele>1102.900174</ele>
        <time>2026-07-27T08:16:57.000Z</time>
      </trkpt>
      <trkpt lat="44.51868" lon="6.46809">
        <ele>1102.900174</ele>
        <time>2026-07-27T08:16:58.000Z</time>
      </trkpt>
      <trkpt lat="44.51863" lon="6.46812">
        <ele>1103.723718</ele>
        <time>2026-07-27T08:16:59.000Z</time>
      </trkpt>
      <trkpt lat="44.51863" lon="6.46812">
        <ele>1103.723718</ele>
        <time>2026-07-27T08:16:59.000Z</time>
      </trkpt>
      <trkpt lat="44.51861" lon="6.46813">
        <ele>1104.009686</ele>
        <time>2026-07-27T08:17:00.000Z</time>
      </trkpt>
      <trkpt lat="44.51861" lon="6.46813">
        <ele>1104.009686</ele>
        <time>2026-07-27T08:17:00.000Z</time>
      </trkpt>
      <trkpt lat="44.51859" lon="6.46815">
        <ele>1104.300011</ele>
        <time>2026-07-27T08:17:01.000Z</time>
      </trkpt>
      <trkpt lat="44.51859" lon="6.46815">
        <ele>1104.300011</ele>
        <time>2026-07-27T08:17:01.000Z</time>
      </trkpt>
      <trkpt lat="44.51857" lon="6.46816">
        <ele>1104.567053</ele>
        <time>2026-07-27T08:17:02.000Z</time>
      </trkpt>
      <trkpt lat="44.51857" lon="6.46816">
        <ele>1104.567053</ele>
        <time>2026-07-27T08:17:02.000Z</time>
      </trkpt>
      <trkpt lat="44.51856" lon="6.46818">
        <ele>1104.817181</ele>
        <time>2026-07-27T08:17:03.000Z</time>
      </trkpt>
      <trkpt lat="44.51856" lon="6.46818">
        <ele>1104.817181</ele>
        <time>2026-07-27T08:17:03.000Z</time>
      </trkpt>
      <trkpt lat="44.51854" lon="6.46819">
        <ele>1105.156956</ele>
        <time>2026-07-27T08:17:04.000Z</time>
      </trkpt>
      <trkpt lat="44.51854" lon="6.46819">
        <ele>1105.156956</ele>
        <time>2026-07-27T08:17:04.000Z</time>
      </trkpt>
      <trkpt lat="44.51852" lon="6.4682">
        <ele>1105.393121</ele>
        <time>2026-07-27T08:17:05.000Z</time>
      </trkpt>
      <trkpt lat="44.51852" lon="6.4682">
        <ele>1105.393121</ele>
        <time>2026-07-27T08:17:05.000Z</time>
      </trkpt>
      <trkpt lat="44.51849" lon="6.46822">
        <ele>1105.641274</ele>
        <time>2026-07-27T08:17:06.000Z</time>
      </trkpt>
      <trkpt lat="44.51849" lon="6.46822">
        <ele>1105.641274</ele>
        <time>2026-07-27T08:17:06.000Z</time>
      </trkpt>
      <trkpt lat="44.51848" lon="6.46824">
        <ele>1105.852806</ele>
        <time>2026-07-27T08:17:07.000Z</time>
      </trkpt>
      <trkpt lat="44.51848" lon="6.46824">
        <ele>1105.852806</ele>
        <time>2026-07-27T08:17:07.000Z</time>
      </trkpt>
      <trkpt lat="44.51845" lon="6.46825">
        <ele>1106.094912</ele>
        <time>2026-07-27T08:17:08.000Z</time>
      </trkpt>
      <trkpt lat="44.51845" lon="6.46825">
        <ele>1106.094912</ele>
        <time>2026-07-27T08:17:08.000Z</time>
      </trkpt>
      <trkpt lat="44.51844" lon="6.46827">
        <ele>1106.271407</ele>
        <time>2026-07-27T08:17:09.000Z</time>
      </trkpt>
      <trkpt lat="44.51844" lon="6.46827">
        <ele>1106.271407</ele>
        <time>2026-07-27T08:17:09.000Z</time>
      </trkpt>
      <trkpt lat="44.51842" lon="6.46828">
        <ele>1106.432971</ele>
        <time>2026-07-27T08:17:10.000Z</time>
      </trkpt>
      <trkpt lat="44.51842" lon="6.46828">
        <ele>1106.432971</ele>
        <time>2026-07-27T08:17:10.000Z</time>
      </trkpt>
      <trkpt lat="44.5184" lon="6.46829">
        <ele>1106.672287</ele>
        <time>2026-07-27T08:17:11.000Z</time>
      </trkpt>
      <trkpt lat="44.5184" lon="6.46829">
        <ele>1106.672287</ele>
        <time>2026-07-27T08:17:11.000Z</time>
      </trkpt>
      <trkpt lat="44.51838" lon="6.4683">
        <ele>1106.844266</ele>
        <time>2026-07-27T08:17:12.000Z</time>
      </trkpt>
      <trkpt lat="44.51838" lon="6.4683">
        <ele>1106.844266</ele>
        <time>2026-07-27T08:17:12.000Z</time>
      </trkpt>
      <trkpt lat="44.51837" lon="6.46832">
        <ele>1107.041814</ele>
        <time>2026-07-27T08:17:13.000Z</time>
      </trkpt>
      <trkpt lat="44.51837" lon="6.46832">
        <ele>1107.041814</ele>
        <time>2026-07-27T08:17:13.000Z</time>
      </trkpt>
      <trkpt lat="44.51835" lon="6.46834">
        <ele>1107.243597</ele>
        <time>2026-07-27T08:17:14.000Z</time>
      </trkpt>
      <trkpt lat="44.51835" lon="6.46834">
        <ele>1107.243597</ele>
        <time>2026-07-27T08:17:14.000Z</time>
      </trkpt>
      <trkpt lat="44.51833" lon="6.46835">
        <ele>1107.435014</ele>
        <time>2026-07-27T08:17:15.000Z</time>
      </trkpt>
      <trkpt lat="44.51833" lon="6.46835">
        <ele>1107.435014</ele>
        <time>2026-07-27T08:17:15.000Z</time>
      </trkpt>
      <trkpt lat="44.51831" lon="6.46836">
        <ele>1107.636796</ele>
        <time>2026-07-27T08:17:16.000Z</time>
      </trkpt>
      <trkpt lat="44.51831" lon="6.46836">
        <ele>1107.636796</ele>
        <time>2026-07-27T08:17:16.000Z</time>
      </trkpt>
      <trkpt lat="44.51829" lon="6.46838">
        <ele>1107.867366</ele>
        <time>2026-07-27T08:17:17.000Z</time>
      </trkpt>
      <trkpt lat="44.51829" lon="6.46838">
        <ele>1107.867366</ele>
        <time>2026-07-27T08:17:17.000Z</time>
      </trkpt>
      <trkpt lat="44.51827" lon="6.46839">
        <ele>1108.09523</ele>
        <time>2026-07-27T08:17:18.000Z</time>
      </trkpt>
      <trkpt lat="44.51827" lon="6.46839">
        <ele>1108.09523</ele>
        <time>2026-07-27T08:17:18.000Z</time>
      </trkpt>
      <trkpt lat="44.51825" lon="6.46841">
        <ele>1108.278926</ele>
        <time>2026-07-27T08:17:19.000Z</time>
      </trkpt>
      <trkpt lat="44.51825" lon="6.46841">
        <ele>1108.278926</ele>
        <time>2026-07-27T08:17:19.000Z</time>
      </trkpt>
      <trkpt lat="44.51823" lon="6.46843">
        <ele>1108.505676</ele>
        <time>2026-07-27T08:17:20.000Z</time>
      </trkpt>
      <trkpt lat="44.51823" lon="6.46843">
        <ele>1108.505676</ele>
        <time>2026-07-27T08:17:20.000Z</time>
      </trkpt>
      <trkpt lat="44.51822" lon="6.46844">
        <ele>1108.67398</ele>
        <time>2026-07-27T08:17:21.000Z</time>
      </trkpt>
      <trkpt lat="44.51822" lon="6.46844">
        <ele>1108.67398</ele>
        <time>2026-07-27T08:17:21.000Z</time>
      </trkpt>
      <trkpt lat="44.51821" lon="6.46846">
        <ele>1108.83532</ele>
        <time>2026-07-27T08:17:22.000Z</time>
      </trkpt>
      <trkpt lat="44.51821" lon="6.46846">
        <ele>1108.83532</ele>
        <time>2026-07-27T08:17:22.000Z</time>
      </trkpt>
      <trkpt lat="44.51819" lon="6.46847">
        <ele>1109.046852</ele>
        <time>2026-07-27T08:17:23.000Z</time>
      </trkpt>
      <trkpt lat="44.51819" lon="6.46847">
        <ele>1109.046852</ele>
        <time>2026-07-27T08:17:23.000Z</time>
      </trkpt>
      <trkpt lat="44.51817" lon="6.4685">
        <ele>1109.289462</ele>
        <time>2026-07-27T08:17:24.000Z</time>
      </trkpt>
      <trkpt lat="44.51817" lon="6.4685">
        <ele>1109.289462</ele>
        <time>2026-07-27T08:17:24.000Z</time>
      </trkpt>
      <trkpt lat="44.51815" lon="6.46852">
        <ele>1109.538133</ele>
        <time>2026-07-27T08:17:25.000Z</time>
      </trkpt>
      <trkpt lat="44.51815" lon="6.46852">
        <ele>1109.538133</ele>
        <time>2026-07-27T08:17:25.000Z</time>
      </trkpt>
      <trkpt lat="44.51813" lon="6.46854">
        <ele>1109.764884</ele>
        <time>2026-07-27T08:17:26.000Z</time>
      </trkpt>
      <trkpt lat="44.51813" lon="6.46854">
        <ele>1109.764884</ele>
        <time>2026-07-27T08:17:26.000Z</time>
      </trkpt>
      <trkpt lat="44.51812" lon="6.46856">
        <ele>1109.977018</ele>
        <time>2026-07-27T08:17:27.000Z</time>
      </trkpt>
      <trkpt lat="44.51812" lon="6.46856">
        <ele>1109.977018</ele>
        <time>2026-07-27T08:17:27.000Z</time>
      </trkpt>
      <trkpt lat="44.5181" lon="6.46858">
        <ele>1110.195868</ele>
        <time>2026-07-27T08:17:28.000Z</time>
      </trkpt>
      <trkpt lat="44.5181" lon="6.46858">
        <ele>1110.195868</ele>
        <time>2026-07-27T08:17:28.000Z</time>
      </trkpt>
      <trkpt lat="44.51808" lon="6.46861">
        <ele>1110.449245</ele>
        <time>2026-07-27T08:17:29.000Z</time>
      </trkpt>
      <trkpt lat="44.51808" lon="6.46861">
        <ele>1110.449245</ele>
        <time>2026-07-27T08:17:29.000Z</time>
      </trkpt>
      <trkpt lat="44.51806" lon="6.46863">
        <ele>1110.735532</ele>
        <time>2026-07-27T08:17:30.000Z</time>
      </trkpt>
      <trkpt lat="44.51806" lon="6.46863">
        <ele>1110.735532</ele>
        <time>2026-07-27T08:17:30.000Z</time>
      </trkpt>
      <trkpt lat="44.51804" lon="6.46866">
        <ele>1110.984203</ele>
        <time>2026-07-27T08:17:31.000Z</time>
      </trkpt>
      <trkpt lat="44.51804" lon="6.46866">
        <ele>1110.984203</ele>
        <time>2026-07-27T08:17:31.000Z</time>
      </trkpt>
      <trkpt lat="44.51802" lon="6.46868">
        <ele>1111.199318</ele>
        <time>2026-07-27T08:17:32.000Z</time>
      </trkpt>
      <trkpt lat="44.51802" lon="6.46868">
        <ele>1111.199318</ele>
        <time>2026-07-27T08:17:32.000Z</time>
      </trkpt>
      <trkpt lat="44.51799" lon="6.46869">
        <ele>1111.438635</ele>
        <time>2026-07-27T08:17:33.000Z</time>
      </trkpt>
      <trkpt lat="44.51799" lon="6.46869">
        <ele>1111.438635</ele>
        <time>2026-07-27T08:17:33.000Z</time>
      </trkpt>
      <trkpt lat="44.51797" lon="6.4687">
        <ele>1111.713395</ele>
        <time>2026-07-27T08:17:34.000Z</time>
      </trkpt>
      <trkpt lat="44.51797" lon="6.4687">
        <ele>1111.713395</ele>
        <time>2026-07-27T08:17:34.000Z</time>
      </trkpt>
      <trkpt lat="44.51794" lon="6.46871">
        <ele>1111.935548</ele>
        <time>2026-07-27T08:17:35.000Z</time>
      </trkpt>
      <trkpt lat="44.51794" lon="6.46871">
        <ele>1111.935548</ele>
        <time>2026-07-27T08:17:35.000Z</time>
      </trkpt>
      <trkpt lat="44.51792" lon="6.4687">
        <ele>1112.160189</ele>
        <time>2026-07-27T08:17:36.000Z</time>
      </trkpt>
      <trkpt lat="44.51792" lon="6.4687">
        <ele>1112.160189</ele>
        <time>2026-07-27T08:17:36.000Z</time>
      </trkpt>
      <trkpt lat="44.51791" lon="6.46869">
        <ele>1112.328493</ele>
        <time>2026-07-27T08:17:37.000Z</time>
      </trkpt>
      <trkpt lat="44.51791" lon="6.46869">
        <ele>1112.328493</ele>
        <time>2026-07-27T08:17:37.000Z</time>
      </trkpt>
      <trkpt lat="44.5179" lon="6.46867">
        <ele>1112.500397</ele>
        <time>2026-07-27T08:17:38.000Z</time>
      </trkpt>
      <trkpt lat="44.5179" lon="6.46867">
        <ele>1112.500397</ele>
        <time>2026-07-27T08:17:38.000Z</time>
      </trkpt>
      <trkpt lat="44.51788" lon="6.46865">
        <ele>1112.699893</ele>
        <time>2026-07-27T08:17:39.000Z</time>
      </trkpt>
      <trkpt lat="44.51788" lon="6.46865">
        <ele>1112.699893</ele>
        <time>2026-07-27T08:17:39.000Z</time>
      </trkpt>
      <trkpt lat="44.51788" lon="6.46862">
        <ele>1112.900919</ele>
        <time>2026-07-27T08:17:40.000Z</time>
      </trkpt>
      <trkpt lat="44.51788" lon="6.46862">
        <ele>1112.900919</ele>
        <time>2026-07-27T08:17:40.000Z</time>
      </trkpt>
      <trkpt lat="44.51788" lon="6.46859">
        <ele>1113.09148</ele>
        <time>2026-07-27T08:17:41.000Z</time>
      </trkpt>
      <trkpt lat="44.51788" lon="6.46859">
        <ele>1113.09148</ele>
        <time>2026-07-27T08:17:41.000Z</time>
      </trkpt>
      <trkpt lat="44.51788" lon="6.46856">
        <ele>1113.292507</ele>
        <time>2026-07-27T08:17:42.000Z</time>
      </trkpt>
      <trkpt lat="44.51788" lon="6.46856">
        <ele>1113.292507</ele>
        <time>2026-07-27T08:17:42.000Z</time>
      </trkpt>
      <trkpt lat="44.51789" lon="6.46854">
        <ele>1113.44044</ele>
        <time>2026-07-27T08:17:43.000Z</time>
      </trkpt>
      <trkpt lat="44.51789" lon="6.46854">
        <ele>1113.44044</ele>
        <time>2026-07-27T08:17:43.000Z</time>
      </trkpt>
      <trkpt lat="44.5179" lon="6.46851">
        <ele>1113.658424</ele>
        <time>2026-07-27T08:17:44.000Z</time>
      </trkpt>
      <trkpt lat="44.5179" lon="6.46848">
        <ele>1113.86036</ele>
        <time>2026-07-27T08:17:45.000Z</time>
      </trkpt>
      <trkpt lat="44.5179" lon="6.46848">
        <ele>1113.86036</ele>
        <time>2026-07-27T08:17:45.000Z</time>
      </trkpt>
      <trkpt lat="44.5179" lon="6.46845">
        <ele>1114.050921</ele>
        <time>2026-07-27T08:17:46.000Z</time>
      </trkpt>
      <trkpt lat="44.51791" lon="6.46843">
        <ele>1114.225296</ele>
        <time>2026-07-27T08:17:47.000Z</time>
      </trkpt>
      <trkpt lat="44.51791" lon="6.46843">
        <ele>1114.225296</ele>
        <time>2026-07-27T08:17:47.000Z</time>
      </trkpt>
      <trkpt lat="44.51791" lon="6.4684">
        <ele>1114.446402</ele>
        <time>2026-07-27T08:17:48.000Z</time>
      </trkpt>
      <trkpt lat="44.51791" lon="6.46837">
        <ele>1114.607524</ele>
        <time>2026-07-27T08:17:49.000Z</time>
      </trkpt>
      <trkpt lat="44.5179" lon="6.46835">
        <ele>1114.768646</ele>
        <time>2026-07-27T08:17:50.000Z</time>
      </trkpt>
      <trkpt lat="44.5179" lon="6.46835">
        <ele>1114.768646</ele>
        <time>2026-07-27T08:17:50.000Z</time>
      </trkpt>
      <trkpt lat="44.5179" lon="6.46833">
        <ele>1114.945121</ele>
        <time>2026-07-27T08:17:51.000Z</time>
      </trkpt>
      <trkpt lat="44.51789" lon="6.4683">
        <ele>1115.093054</ele>
        <time>2026-07-27T08:17:52.000Z</time>
      </trkpt>
      <trkpt lat="44.51789" lon="6.4683">
        <ele>1115.093054</ele>
        <time>2026-07-27T08:17:52.000Z</time>
      </trkpt>
      <trkpt lat="44.51789" lon="6.46828">
        <ele>1115.247572</ele>
        <time>2026-07-27T08:17:53.000Z</time>
      </trkpt>
      <trkpt lat="44.51788" lon="6.46825">
        <ele>1115.484788</ele>
        <time>2026-07-27T08:17:54.000Z</time>
      </trkpt>
      <trkpt lat="44.51788" lon="6.46821">
        <ele>1115.731464</ele>
        <time>2026-07-27T08:17:55.000Z</time>
      </trkpt>
      <trkpt lat="44.51786" lon="6.46817">
        <ele>1116.033093</ele>
        <time>2026-07-27T08:17:56.000Z</time>
      </trkpt>
      <trkpt lat="44.51786" lon="6.46817">
        <ele>1116.033093</ele>
        <time>2026-07-27T08:17:56.000Z</time>
      </trkpt>
      <trkpt lat="44.51786" lon="6.46813">
        <ele>1116.307989</ele>
        <time>2026-07-27T08:17:57.000Z</time>
      </trkpt>
      <trkpt lat="44.51785" lon="6.46809">
        <ele>1116.587108</ele>
        <time>2026-07-27T08:17:58.000Z</time>
      </trkpt>
      <trkpt lat="44.51785" lon="6.46807">
        <ele>1116.781457</ele>
        <time>2026-07-27T08:17:59.000Z</time>
      </trkpt>
      <trkpt lat="44.51785" lon="6.46807">
        <ele>1116.781457</ele>
        <time>2026-07-27T08:17:59.000Z</time>
      </trkpt>
      <trkpt lat="44.51784" lon="6.46804">
        <ele>1116.957932</ele>
        <time>2026-07-27T08:18:00.000Z</time>
      </trkpt>
      <trkpt lat="44.51783" lon="6.46802">
        <ele>1117.138955</ele>
        <time>2026-07-27T08:18:01.000Z</time>
      </trkpt>
      <trkpt lat="44.51783" lon="6.46799">
        <ele>1117.336322</ele>
        <time>2026-07-27T08:18:02.000Z</time>
      </trkpt>
      <trkpt lat="44.51783" lon="6.46799">
        <ele>1117.336322</ele>
        <time>2026-07-27T08:18:02.000Z</time>
      </trkpt>
      <trkpt lat="44.51783" lon="6.46796">
        <ele>1117.517344</ele>
        <time>2026-07-27T08:18:03.000Z</time>
      </trkpt>
      <trkpt lat="44.51783" lon="6.46793">
        <ele>1117.735129</ele>
        <time>2026-07-27T08:18:04.000Z</time>
      </trkpt>
      <trkpt lat="44.51783" lon="6.46789">
        <ele>1117.983094</ele>
        <time>2026-07-27T08:18:05.000Z</time>
      </trkpt>
      <trkpt lat="44.51782" lon="6.46786">
        <ele>1118.237786</ele>
        <time>2026-07-27T08:18:06.000Z</time>
      </trkpt>
      <trkpt lat="44.51782" lon="6.46786">
        <ele>1118.237786</ele>
        <time>2026-07-27T08:18:06.000Z</time>
      </trkpt>
      <trkpt lat="44.51782" lon="6.46781">
        <ele>1118.537241</ele>
        <time>2026-07-27T08:18:07.000Z</time>
      </trkpt>
      <trkpt lat="44.51783" lon="6.46777">
        <ele>1118.852626</ele>
        <time>2026-07-27T08:18:08.000Z</time>
      </trkpt>
      <trkpt lat="44.51783" lon="6.46772">
        <ele>1119.15208</ele>
        <time>2026-07-27T08:18:09.000Z</time>
      </trkpt>
      <trkpt lat="44.51783" lon="6.46768">
        <ele>1119.465146</ele>
        <time>2026-07-27T08:18:10.000Z</time>
      </trkpt>
      <trkpt lat="44.51783" lon="6.46764">
        <ele>1119.730571</ele>
        <time>2026-07-27T08:18:11.000Z</time>
      </trkpt>
      <trkpt lat="44.51783" lon="6.46759">
        <ele>1120.043637</ele>
        <time>2026-07-27T08:18:12.000Z</time>
      </trkpt>
      <trkpt lat="44.51782" lon="6.46755">
        <ele>1120.30506</ele>
        <time>2026-07-27T08:18:13.000Z</time>
      </trkpt>
      <trkpt lat="44.51782" lon="6.46752">
        <ele>1120.566483</ele>
        <time>2026-07-27T08:18:14.000Z</time>
      </trkpt>
      <trkpt lat="44.51781" lon="6.46748">
        <ele>1120.846793</ele>
        <time>2026-07-27T08:18:15.000Z</time>
      </trkpt>
      <trkpt lat="44.5178" lon="6.46744">
        <ele>1121.071165</ele>
        <time>2026-07-27T08:18:16.000Z</time>
      </trkpt>
      <trkpt lat="44.5178" lon="6.46744">
        <ele>1121.071165</ele>
        <time>2026-07-27T08:18:17.000Z</time>
      </trkpt>
      <trkpt lat="44.51778" lon="6.46739">
        <ele>1121.487626</ele>
        <time>2026-07-27T08:18:18.000Z</time>
      </trkpt>
      <trkpt lat="44.51777" lon="6.46738">
        <ele>1121.60918</ele>
        <time>2026-07-27T08:18:19.000Z</time>
      </trkpt>
      <trkpt lat="44.51775" lon="6.46738">
        <ele>1121.796686</ele>
        <time>2026-07-27T08:18:20.000Z</time>
      </trkpt>
      <trkpt lat="44.51773" lon="6.46737">
        <ele>1122.021327</ele>
        <time>2026-07-27T08:18:21.000Z</time>
      </trkpt>
      <trkpt lat="44.5177" lon="6.46736">
        <ele>1122.283404</ele>
        <time>2026-07-27T08:18:22.000Z</time>
      </trkpt>
      <trkpt lat="44.5177" lon="6.46736">
        <ele>1122.283404</ele>
        <time>2026-07-27T08:18:22.000Z</time>
      </trkpt>
      <trkpt lat="44.51768" lon="6.46736">
        <ele>1122.479278</ele>
        <time>2026-07-27T08:18:23.000Z</time>
      </trkpt>
      <trkpt lat="44.51765" lon="6.46735">
        <ele>1122.585845</ele>
        <time>2026-07-27T08:18:24.000Z</time>
      </trkpt>
      <trkpt lat="44.51765" lon="6.46735">
        <ele>1122.585845</ele>
        <time>2026-07-27T08:18:24.000Z</time>
      </trkpt>
      <trkpt lat="44.51762" lon="6.46734">
        <ele>1122.699442</ele>
        <time>2026-07-27T08:18:25.000Z</time>
      </trkpt>
      <trkpt lat="44.5176" lon="6.46732">
        <ele>1122.813992</ele>
        <time>2026-07-27T08:18:26.000Z</time>
      </trkpt>
      <trkpt lat="44.5176" lon="6.46732">
        <ele>1122.813992</ele>
        <time>2026-07-27T08:18:26.000Z</time>
      </trkpt>
      <trkpt lat="44.51757" lon="6.46731">
        <ele>1122.939807</ele>
        <time>2026-07-27T08:18:27.000Z</time>
      </trkpt>
      <trkpt lat="44.51753" lon="6.46729">
        <ele>1123.097689</ele>
        <time>2026-07-27T08:18:28.000Z</time>
      </trkpt>
      <trkpt lat="44.51753" lon="6.46729">
        <ele>1123.097689</ele>
        <time>2026-07-27T08:18:28.000Z</time>
      </trkpt>
      <trkpt lat="44.51749" lon="6.46728">
        <ele>1123.25599</ele>
        <time>2026-07-27T08:18:29.000Z</time>
      </trkpt>
      <trkpt lat="44.51749" lon="6.46728">
        <ele>1123.25599</ele>
        <time>2026-07-27T08:18:29.000Z</time>
      </trkpt>
      <trkpt lat="44.51746" lon="6.46728">
        <ele>1123.391406</ele>
        <time>2026-07-27T08:18:30.000Z</time>
      </trkpt>
      <trkpt lat="44.51746" lon="6.46728">
        <ele>1123.391406</ele>
        <time>2026-07-27T08:18:30.000Z</time>
      </trkpt>
      <trkpt lat="44.51743" lon="6.46728">
        <ele>1123.499184</ele>
        <time>2026-07-27T08:18:31.000Z</time>
      </trkpt>
      <trkpt lat="44.5174" lon="6.46727">
        <ele>1123.605107</ele>
        <time>2026-07-27T08:18:32.000Z</time>
      </trkpt>
      <trkpt lat="44.5174" lon="6.46727">
        <ele>1123.605107</ele>
        <time>2026-07-27T08:18:32.000Z</time>
      </trkpt>
      <trkpt lat="44.51737" lon="6.46725">
        <ele>1123.749185</ele>
        <time>2026-07-27T08:18:33.000Z</time>
      </trkpt>
      <trkpt lat="44.51737" lon="6.46725">
        <ele>1123.749185</ele>
        <time>2026-07-27T08:18:33.000Z</time>
      </trkpt>
      <trkpt lat="44.51734" lon="6.46724">
        <ele>1123.874133</ele>
        <time>2026-07-27T08:18:34.000Z</time>
      </trkpt>
      <trkpt lat="44.51734" lon="6.46724">
        <ele>1123.874133</ele>
        <time>2026-07-27T08:18:34.000Z</time>
      </trkpt>
      <trkpt lat="44.5173" lon="6.46722">
        <ele>1124.021525</ele>
        <time>2026-07-27T08:18:35.000Z</time>
      </trkpt>
      <trkpt lat="44.51727" lon="6.4672">
        <ele>1124.184056</ele>
        <time>2026-07-27T08:18:36.000Z</time>
      </trkpt>
      <trkpt lat="44.51727" lon="6.4672">
        <ele>1124.184056</ele>
        <time>2026-07-27T08:18:36.000Z</time>
      </trkpt>
      <trkpt lat="44.51722" lon="6.46718">
        <ele>1124.363477</ele>
        <time>2026-07-27T08:18:37.000Z</time>
      </trkpt>
      <trkpt lat="44.51722" lon="6.46718">
        <ele>1124.363477</ele>
        <time>2026-07-27T08:18:37.000Z</time>
      </trkpt>
      <trkpt lat="44.51719" lon="6.46716">
        <ele>1124.51369</ele>
        <time>2026-07-27T08:18:38.000Z</time>
      </trkpt>
      <trkpt lat="44.51715" lon="6.46713">
        <ele>1124.680716</ele>
        <time>2026-07-27T08:18:39.000Z</time>
      </trkpt>
      <trkpt lat="44.51715" lon="6.46713">
        <ele>1124.680716</ele>
        <time>2026-07-27T08:18:39.000Z</time>
      </trkpt>
      <trkpt lat="44.51712" lon="6.4671">
        <ele>1124.829</ele>
        <time>2026-07-27T08:18:40.000Z</time>
      </trkpt>
      <trkpt lat="44.51712" lon="6.4671">
        <ele>1124.829</ele>
        <time>2026-07-27T08:18:40.000Z</time>
      </trkpt>
      <trkpt lat="44.51709" lon="6.46707">
        <ele>1124.989863</ele>
        <time>2026-07-27T08:18:41.000Z</time>
      </trkpt>
      <trkpt lat="44.51706" lon="6.46703">
        <ele>1125.155583</ele>
        <time>2026-07-27T08:18:42.000Z</time>
      </trkpt>
      <trkpt lat="44.51706" lon="6.46703">
        <ele>1125.155583</ele>
        <time>2026-07-27T08:18:42.000Z</time>
      </trkpt>
      <trkpt lat="44.51703" lon="6.46698">
        <ele>1125.32832</ele>
        <time>2026-07-27T08:18:43.000Z</time>
      </trkpt>
      <trkpt lat="44.517" lon="6.46694">
        <ele>1125.488774</ele>
        <time>2026-07-27T08:18:44.000Z</time>
      </trkpt>
      <trkpt lat="44.51698" lon="6.4669">
        <ele>1125.651347</ele>
        <time>2026-07-27T08:18:45.000Z</time>
      </trkpt>
      <trkpt lat="44.51698" lon="6.4669">
        <ele>1125.651347</ele>
        <time>2026-07-27T08:18:45.000Z</time>
      </trkpt>
      <trkpt lat="44.51695" lon="6.46685">
        <ele>1125.817901</ele>
        <time>2026-07-27T08:18:46.000Z</time>
      </trkpt>
      <trkpt lat="44.51693" lon="6.4668">
        <ele>1125.971201</ele>
        <time>2026-07-27T08:18:47.000Z</time>
      </trkpt>
      <trkpt lat="44.51693" lon="6.4668">
        <ele>1125.971201</ele>
        <time>2026-07-27T08:18:47.000Z</time>
      </trkpt>
      <trkpt lat="44.51691" lon="6.46675">
        <ele>1126.131962</ele>
        <time>2026-07-27T08:18:48.000Z</time>
      </trkpt>
      <trkpt lat="44.51689" lon="6.46671">
        <ele>1126.289707</ele>
        <time>2026-07-27T08:18:49.000Z</time>
      </trkpt>
      <trkpt lat="44.51688" lon="6.46665">
        <ele>1126.451503</ele>
        <time>2026-07-27T08:18:50.000Z</time>
      </trkpt>
      <trkpt lat="44.51688" lon="6.46665">
        <ele>1126.451503</ele>
        <time>2026-07-27T08:18:50.000Z</time>
      </trkpt>
      <trkpt lat="44.51685" lon="6.4666">
        <ele>1126.634874</ele>
        <time>2026-07-27T08:18:51.000Z</time>
      </trkpt>
      <trkpt lat="44.51684" lon="6.46653">
        <ele>1126.823334</ele>
        <time>2026-07-27T08:18:52.000Z</time>
      </trkpt>
      <trkpt lat="44.51682" lon="6.46647">
        <ele>1127.02004</ele>
        <time>2026-07-27T08:18:53.000Z</time>
      </trkpt>
      <trkpt lat="44.5168" lon="6.46641">
        <ele>1127.220866</ele>
        <time>2026-07-27T08:18:54.000Z</time>
      </trkpt>
      <trkpt lat="44.5168" lon="6.46641">
        <ele>1127.220866</ele>
        <time>2026-07-27T08:18:54.000Z</time>
      </trkpt>
      <trkpt lat="44.51678" lon="6.46635">
        <ele>1127.412346</ele>
        <time>2026-07-27T08:18:55.000Z</time>
      </trkpt>
      <trkpt lat="44.51675" lon="6.46628">
        <ele>1127.613173</ele>
        <time>2026-07-27T08:18:56.000Z</time>
      </trkpt>
      <trkpt lat="44.51673" lon="6.46623">
        <ele>1127.791648</ele>
        <time>2026-07-27T08:18:57.000Z</time>
      </trkpt>
      <trkpt lat="44.51671" lon="6.46618">
        <ele>1127.947424</ele>
        <time>2026-07-27T08:18:58.000Z</time>
      </trkpt>
      <trkpt lat="44.51671" lon="6.46618">
        <ele>1127.947424</ele>
        <time>2026-07-27T08:18:58.000Z</time>
      </trkpt>
      <trkpt lat="44.51669" lon="6.46613">
        <ele>1128.116256</ele>
        <time>2026-07-27T08:18:59.000Z</time>
      </trkpt>
      <trkpt lat="44.51667" lon="6.46609">
        <ele>1128.245633</ele>
        <time>2026-07-27T08:19:00.000Z</time>
      </trkpt>
      <trkpt lat="44.51666" lon="6.46607">
        <ele>1128.331415</ele>
        <time>2026-07-27T08:19:01.000Z</time>
      </trkpt>
      <trkpt lat="44.51666" lon="6.46607">
        <ele>1128.331415</ele>
        <time>2026-07-27T08:19:01.000Z</time>
      </trkpt>
      <trkpt lat="44.51663" lon="6.46603">
        <ele>1128.491869</ele>
        <time>2026-07-27T08:19:03.000Z</time>
      </trkpt>
      <trkpt lat="44.51662" lon="6.46602">
        <ele>1128.544034</ele>
        <time>2026-07-27T08:19:04.000Z</time>
      </trkpt>
      <trkpt lat="44.51662" lon="6.46602">
        <ele>1128.544034</ele>
        <time>2026-07-27T08:19:04.000Z</time>
      </trkpt>
      <trkpt lat="44.51661" lon="6.466">
        <ele>1128.601081</ele>
        <time>2026-07-27T08:19:05.000Z</time>
      </trkpt>
      <trkpt lat="44.51659" lon="6.46599">
        <ele>1128.682877</ele>
        <time>2026-07-27T08:19:06.000Z</time>
      </trkpt>
      <trkpt lat="44.51659" lon="6.46599">
        <ele>1128.682877</ele>
        <time>2026-07-27T08:19:06.000Z</time>
      </trkpt>
      <trkpt lat="44.51657" lon="6.46599">
        <ele>1128.777175</ele>
        <time>2026-07-27T08:19:07.000Z</time>
      </trkpt>
      <trkpt lat="44.51654" lon="6.46598">
        <ele>1128.897093</ele>
        <time>2026-07-27T08:19:08.000Z</time>
      </trkpt>
      <trkpt lat="44.51654" lon="6.46598">
        <ele>1128.897093</ele>
        <time>2026-07-27T08:19:08.000Z</time>
      </trkpt>
      <trkpt lat="44.5165" lon="6.46597">
        <ele>1129.049605</ele>
        <time>2026-07-27T08:19:09.000Z</time>
      </trkpt>
      <trkpt lat="44.5165" lon="6.46597">
        <ele>1129.049605</ele>
        <time>2026-07-27T08:19:09.000Z</time>
      </trkpt>
      <trkpt lat="44.51646" lon="6.46596">
        <ele>1129.192336</ele>
        <time>2026-07-27T08:19:10.000Z</time>
      </trkpt>
      <trkpt lat="44.51646" lon="6.46596">
        <ele>1129.192336</ele>
        <time>2026-07-27T08:19:10.000Z</time>
      </trkpt>
      <trkpt lat="44.51643" lon="6.46595">
        <ele>1129.345691</ele>
        <time>2026-07-27T08:19:11.000Z</time>
      </trkpt>
      <trkpt lat="44.51643" lon="6.46595">
        <ele>1129.345691</ele>
        <time>2026-07-27T08:19:11.000Z</time>
      </trkpt>
      <trkpt lat="44.51639" lon="6.46595">
        <ele>1129.497861</ele>
        <time>2026-07-27T08:19:12.000Z</time>
      </trkpt>
      <trkpt lat="44.51639" lon="6.46595">
        <ele>1129.497861</ele>
        <time>2026-07-27T08:19:12.000Z</time>
      </trkpt>
      <trkpt lat="44.51634" lon="6.46594">
        <ele>1129.904399</ele>
        <time>2026-07-27T08:19:13.000Z</time>
      </trkpt>
      <trkpt lat="44.51634" lon="6.46594">
        <ele>1129.904399</ele>
        <time>2026-07-27T08:19:13.000Z</time>
      </trkpt>
      <trkpt lat="44.51629" lon="6.46593">
        <ele>1130.551275</ele>
        <time>2026-07-27T08:19:14.000Z</time>
      </trkpt>
      <trkpt lat="44.51629" lon="6.46593">
        <ele>1130.551275</ele>
        <time>2026-07-27T08:19:14.000Z</time>
      </trkpt>
      <trkpt lat="44.51625" lon="6.46592">
        <ele>1131.11667</ele>
        <time>2026-07-27T08:19:15.000Z</time>
      </trkpt>
      <trkpt lat="44.51625" lon="6.46592">
        <ele>1131.11667</ele>
        <time>2026-07-27T08:19:15.000Z</time>
      </trkpt>
      <trkpt lat="44.51622" lon="6.46591">
        <ele>1131.554176</ele>
        <time>2026-07-27T08:19:16.000Z</time>
      </trkpt>
      <trkpt lat="44.51622" lon="6.46591">
        <ele>1131.554176</ele>
        <time>2026-07-27T08:19:16.000Z</time>
      </trkpt>
      <trkpt lat="44.5162" lon="6.4659">
        <ele>1131.968332</ele>
        <time>2026-07-27T08:19:17.000Z</time>
      </trkpt>
      <trkpt lat="44.5162" lon="6.4659">
        <ele>1131.968332</ele>
        <time>2026-07-27T08:19:17.000Z</time>
      </trkpt>
      <trkpt lat="44.51617" lon="6.46588">
        <ele>1132.343948</ele>
        <time>2026-07-27T08:19:18.000Z</time>
      </trkpt>
      <trkpt lat="44.51617" lon="6.46588">
        <ele>1132.343948</ele>
        <time>2026-07-27T08:19:18.000Z</time>
      </trkpt>
      <trkpt lat="44.51616" lon="6.46586">
        <ele>1132.625483</ele>
        <time>2026-07-27T08:19:19.000Z</time>
      </trkpt>
      <trkpt lat="44.51616" lon="6.46586">
        <ele>1132.625483</ele>
        <time>2026-07-27T08:19:19.000Z</time>
      </trkpt>
      <trkpt lat="44.51614" lon="6.46584">
        <ele>1132.927741</ele>
        <time>2026-07-27T08:19:20.000Z</time>
      </trkpt>
      <trkpt lat="44.51614" lon="6.46584">
        <ele>1132.927741</ele>
        <time>2026-07-27T08:19:20.000Z</time>
      </trkpt>
      <trkpt lat="44.51613" lon="6.46582">
        <ele>1133.242681</ele>
        <time>2026-07-27T08:19:21.000Z</time>
      </trkpt>
      <trkpt lat="44.51613" lon="6.46582">
        <ele>1133.242681</ele>
        <time>2026-07-27T08:19:21.000Z</time>
      </trkpt>
      <trkpt lat="44.51613" lon="6.46579">
        <ele>1133.534823</ele>
        <time>2026-07-27T08:19:22.000Z</time>
      </trkpt>
      <trkpt lat="44.51613" lon="6.46579">
        <ele>1133.534823</ele>
        <time>2026-07-27T08:19:22.000Z</time>
      </trkpt>
      <trkpt lat="44.51612" lon="6.46577">
        <ele>1133.736275</ele>
        <time>2026-07-27T08:19:23.000Z</time>
      </trkpt>
      <trkpt lat="44.51612" lon="6.46577">
        <ele>1133.736275</ele>
        <time>2026-07-27T08:19:23.000Z</time>
      </trkpt>
      <trkpt lat="44.51612" lon="6.46576">
        <ele>1133.827794</ele>
        <time>2026-07-27T08:19:24.000Z</time>
      </trkpt>
      <trkpt lat="44.51613" lon="6.46575">
        <ele>1133.994845</ele>
        <time>2026-07-27T08:19:25.000Z</time>
      </trkpt>
      <trkpt lat="44.51613" lon="6.46575">
        <ele>1133.994845</ele>
        <time>2026-07-27T08:19:25.000Z</time>
      </trkpt>
      <trkpt lat="44.51614" lon="6.46572">
        <ele>1134.302269</ele>
        <time>2026-07-27T08:19:26.000Z</time>
      </trkpt>
      <trkpt lat="44.51614" lon="6.46572">
        <ele>1134.302269</ele>
        <time>2026-07-27T08:19:26.000Z</time>
      </trkpt>
      <trkpt lat="44.51616" lon="6.4657">
        <ele>1134.611795</ele>
        <time>2026-07-27T08:19:27.000Z</time>
      </trkpt>
      <trkpt lat="44.51616" lon="6.4657">
        <ele>1134.611795</ele>
        <time>2026-07-27T08:19:27.000Z</time>
      </trkpt>
      <trkpt lat="44.51617" lon="6.46568">
        <ele>1134.869893</ele>
        <time>2026-07-27T08:19:28.000Z</time>
      </trkpt>
      <trkpt lat="44.51617" lon="6.46568">
        <ele>1134.869893</ele>
        <time>2026-07-27T08:19:28.000Z</time>
      </trkpt>
      <trkpt lat="44.51618" lon="6.46566">
        <ele>1135.151512</ele>
        <time>2026-07-27T08:19:29.000Z</time>
      </trkpt>
      <trkpt lat="44.51618" lon="6.46566">
        <ele>1135.151512</ele>
        <time>2026-07-27T08:19:29.000Z</time>
      </trkpt>
      <trkpt lat="44.51618" lon="6.46566">
        <ele>1135.151512</ele>
        <time>2026-07-27T08:19:30.000Z</time>
      </trkpt>
      <trkpt lat="44.51618" lon="6.46566">
        <ele>1135.151512</ele>
        <time>2026-07-27T08:19:32.000Z</time>
      </trkpt>
      <trkpt lat="44.51619" lon="6.46562">
        <ele>1135.602187</ele>
        <time>2026-07-27T08:19:40.000Z</time>
      </trkpt>
      <trkpt lat="44.51619" lon="6.46562">
        <ele>1135.602187</ele>
        <time>2026-07-27T08:19:40.000Z</time>
      </trkpt>
      <trkpt lat="44.51619" lon="6.46562">
        <ele>1135.602187</ele>
        <time>2026-07-27T08:19:41.000Z</time>
      </trkpt>
      <trkpt lat="44.51619" lon="6.46562">
        <ele>1135.602187</ele>
        <time>2026-07-27T08:19:46.000Z</time>
      </trkpt>
      <trkpt lat="44.51616" lon="6.46559">
        <ele>1136.117301</ele>
        <time>2026-07-27T08:19:51.000Z</time>
      </trkpt>
      <trkpt lat="44.51613" lon="6.46557">
        <ele>1136.674509</ele>
        <time>2026-07-27T08:19:52.000Z</time>
      </trkpt>
      <trkpt lat="44.51613" lon="6.46557">
        <ele>1136.674509</ele>
        <time>2026-07-27T08:19:52.000Z</time>
      </trkpt>
      <trkpt lat="44.5161" lon="6.46555">
        <ele>1137.036242</ele>
        <time>2026-07-27T08:19:52.000Z</time>
      </trkpt>
      <trkpt lat="44.51608" lon="6.46554">
        <ele>1137.337727</ele>
        <time>2026-07-27T08:19:54.000Z</time>
      </trkpt>
      <trkpt lat="44.51608" lon="6.46554">
        <ele>1137.337727</ele>
        <time>2026-07-27T08:19:54.000Z</time>
      </trkpt>
      <trkpt lat="44.51607" lon="6.46553">
        <ele>1137.573918</ele>
        <time>2026-07-27T08:19:55.000Z</time>
      </trkpt>
      <trkpt lat="44.51605" lon="6.46552">
        <ele>1137.859914</ele>
        <time>2026-07-27T08:19:56.000Z</time>
      </trkpt>
      <trkpt lat="44.51603" lon="6.46552">
        <ele>1138.133907</ele>
        <time>2026-07-27T08:19:57.000Z</time>
      </trkpt>
      <trkpt lat="44.51603" lon="6.46552">
        <ele>1138.133907</ele>
        <time>2026-07-27T08:19:57.000Z</time>
      </trkpt>
      <trkpt lat="44.51601" lon="6.46552">
        <ele>1138.404864</ele>
        <time>2026-07-27T08:19:58.000Z</time>
      </trkpt>
      <trkpt lat="44.51601" lon="6.46552">
        <ele>1138.404864</ele>
        <time>2026-07-27T08:19:58.000Z</time>
      </trkpt>
      <trkpt lat="44.516" lon="6.46552">
        <ele>1138.563047</ele>
        <time>2026-07-27T08:19:59.000Z</time>
      </trkpt>
      <trkpt lat="44.516" lon="6.46552">
        <ele>1138.563047</ele>
        <time>2026-07-27T08:19:59.000Z</time>
      </trkpt>
      <trkpt lat="44.51598" lon="6.46552">
        <ele>1138.83704</ele>
        <time>2026-07-27T08:20:00.000Z</time>
      </trkpt>
      <trkpt lat="44.51596" lon="6.46551">
        <ele>1139.170667</ele>
        <time>2026-07-27T08:20:01.000Z</time>
      </trkpt>
      <trkpt lat="44.51596" lon="6.46551">
        <ele>1139.170667</ele>
        <time>2026-07-27T08:20:01.000Z</time>
      </trkpt>
      <trkpt lat="44.51594" lon="6.4655">
        <ele>1139.456663</ele>
        <time>2026-07-27T08:20:02.000Z</time>
      </trkpt>
      <trkpt lat="44.51594" lon="6.4655">
        <ele>1139.456663</ele>
        <time>2026-07-27T08:20:02.000Z</time>
      </trkpt>
      <trkpt lat="44.51592" lon="6.46549">
        <ele>1139.739569</ele>
        <time>2026-07-27T08:20:03.000Z</time>
      </trkpt>
      <trkpt lat="44.51592" lon="6.46549">
        <ele>1139.739569</ele>
        <time>2026-07-27T08:20:03.000Z</time>
      </trkpt>
      <trkpt lat="44.5159" lon="6.46549">
        <ele>1140.01731</ele>
        <time>2026-07-27T08:20:04.000Z</time>
      </trkpt>
      <trkpt lat="44.5159" lon="6.46549">
        <ele>1140.01731</ele>
        <time>2026-07-27T08:20:04.000Z</time>
      </trkpt>
      <trkpt lat="44.5159" lon="6.46549">
        <ele>1140.01731</ele>
        <time>2026-07-27T08:20:05.000Z</time>
      </trkpt>
      <trkpt lat="44.5159" lon="6.46549">
        <ele>1140.01731</ele>
        <time>2026-07-27T08:20:06.000Z</time>
      </trkpt>
      <trkpt lat="44.5159" lon="6.46549">
        <ele>1140.01731</ele>
        <time>2026-07-27T08:20:09.000Z</time>
      </trkpt>
      <trkpt lat="44.5159" lon="6.46549">
        <ele>1140.01731</ele>
        <time>2026-07-27T08:20:28.000Z</time>
      </trkpt>
      <trkpt lat="44.51586" lon="6.46548">
        <ele>1140.56388</ele>
        <time>2026-07-27T08:20:54.000Z</time>
      </trkpt>
      <trkpt lat="44.51586" lon="6.46548">
        <ele>1140.56388</ele>
        <time>2026-07-27T08:20:54.000Z</time>
      </trkpt>
      <trkpt lat="44.51586" lon="6.46548">
        <ele>1140.56388</ele>
        <time>2026-07-27T08:21:00.000Z</time>
      </trkpt>
      <trkpt lat="44.51585" lon="6.46544">
        <ele>1141.003908</ele>
        <time>2026-07-27T08:21:05.000Z</time>
      </trkpt>
      <trkpt lat="44.51584" lon="6.46541">
        <ele>1141.324262</ele>
        <time>2026-07-27T08:21:05.000Z</time>
      </trkpt>
      <trkpt lat="44.51584" lon="6.46541">
        <ele>1141.324262</ele>
        <time>2026-07-27T08:21:05.000Z</time>
      </trkpt>
      <trkpt lat="44.51584" lon="6.46539">
        <ele>1141.527638</ele>
        <time>2026-07-27T08:21:06.000Z</time>
      </trkpt>
      <trkpt lat="44.51585" lon="6.46537">
        <ele>1141.729091</ele>
        <time>2026-07-27T08:21:08.000Z</time>
      </trkpt>
      <trkpt lat="44.51585" lon="6.46535">
        <ele>1142.009513</ele>
        <time>2026-07-27T08:21:08.000Z</time>
      </trkpt>
      <trkpt lat="44.51585" lon="6.46535">
        <ele>1142.009513</ele>
        <time>2026-07-27T08:21:08.000Z</time>
      </trkpt>
      <trkpt lat="44.51585" lon="6.46532">
        <ele>1142.299898</ele>
        <time>2026-07-27T08:21:09.000Z</time>
      </trkpt>
      <trkpt lat="44.51584" lon="6.4653">
        <ele>1142.581518</ele>
        <time>2026-07-27T08:21:10.000Z</time>
      </trkpt>
      <trkpt lat="44.51584" lon="6.4653">
        <ele>1142.581518</ele>
        <time>2026-07-27T08:21:10.000Z</time>
      </trkpt>
      <trkpt lat="44.51584" lon="6.4653">
        <ele>1142.581518</ele>
        <time>2026-07-27T08:21:11.000Z</time>
      </trkpt>
      <trkpt lat="44.51582" lon="6.46524">
        <ele>1143.146983</ele>
        <time>2026-07-27T08:21:13.000Z</time>
      </trkpt>
      <trkpt lat="44.51582" lon="6.46524">
        <ele>1143.146983</ele>
        <time>2026-07-27T08:21:13.000Z</time>
      </trkpt>
      <trkpt lat="44.51582" lon="6.46522">
        <ele>1143.340191</ele>
        <time>2026-07-27T08:21:13.000Z</time>
      </trkpt>
      <trkpt lat="44.51582" lon="6.46522">
        <ele>1143.340191</ele>
        <time>2026-07-27T08:21:13.000Z</time>
      </trkpt>
      <trkpt lat="44.51583" lon="6.4652">
        <ele>1143.620613</ele>
        <time>2026-07-27T08:21:14.000Z</time>
      </trkpt>
      <trkpt lat="44.51583" lon="6.4652">
        <ele>1143.620613</ele>
        <time>2026-07-27T08:21:14.000Z</time>
      </trkpt>
      <trkpt lat="44.51583" lon="6.46517">
        <ele>1143.925678</ele>
        <time>2026-07-27T08:21:16.000Z</time>
      </trkpt>
      <trkpt lat="44.51583" lon="6.46517">
        <ele>1143.925678</ele>
        <time>2026-07-27T08:21:16.000Z</time>
      </trkpt>
      <trkpt lat="44.51582" lon="6.46513">
        <ele>1144.286129</ele>
        <time>2026-07-27T08:21:16.000Z</time>
      </trkpt>
      <trkpt lat="44.51582" lon="6.46513">
        <ele>1144.286129</ele>
        <time>2026-07-27T08:21:16.000Z</time>
      </trkpt>
      <trkpt lat="44.51582" lon="6.46509">
        <ele>1144.675394</ele>
        <time>2026-07-27T08:21:18.000Z</time>
      </trkpt>
      <trkpt lat="44.51582" lon="6.46509">
        <ele>1144.675394</ele>
        <time>2026-07-27T08:21:18.000Z</time>
      </trkpt>
      <trkpt lat="44.51582" lon="6.46506">
        <ele>1145.041472</ele>
        <time>2026-07-27T08:21:18.000Z</time>
      </trkpt>
      <trkpt lat="44.51582" lon="6.46506">
        <ele>1145.041472</ele>
        <time>2026-07-27T08:21:18.000Z</time>
      </trkpt>
      <trkpt lat="44.51582" lon="6.46503">
        <ele>1145.381858</ele>
        <time>2026-07-27T08:21:20.000Z</time>
      </trkpt>
      <trkpt lat="44.51582" lon="6.46503">
        <ele>1145.381858</ele>
        <time>2026-07-27T08:21:20.000Z</time>
      </trkpt>
      <trkpt lat="44.51582" lon="6.46498">
        <ele>1145.85309</ele>
        <time>2026-07-27T08:21:20.000Z</time>
      </trkpt>
      <trkpt lat="44.51582" lon="6.46498">
        <ele>1145.85309</ele>
        <time>2026-07-27T08:21:20.000Z</time>
      </trkpt>
      <trkpt lat="44.51581" lon="6.46494">
        <ele>1146.253756</ele>
        <time>2026-07-27T08:21:22.000Z</time>
      </trkpt>
      <trkpt lat="44.51581" lon="6.46494">
        <ele>1146.253756</ele>
        <time>2026-07-27T08:21:22.000Z</time>
      </trkpt>
      <trkpt lat="44.51582" lon="6.4649">
        <ele>1146.656662</ele>
        <time>2026-07-27T08:21:23.000Z</time>
      </trkpt>
      <trkpt lat="44.51582" lon="6.4649">
        <ele>1146.656662</ele>
        <time>2026-07-27T08:21:23.000Z</time>
      </trkpt>
      <trkpt lat="44.51582" lon="6.46486">
        <ele>1147.063415</ele>
        <time>2026-07-27T08:21:24.000Z</time>
      </trkpt>
      <trkpt lat="44.51582" lon="6.46486">
        <ele>1147.063415</ele>
        <time>2026-07-27T08:21:24.000Z</time>
      </trkpt>
      <trkpt lat="44.51582" lon="6.46483">
        <ele>1147.409155</ele>
        <time>2026-07-27T08:21:24.000Z</time>
      </trkpt>
      <trkpt lat="44.51582" lon="6.46483">
        <ele>1147.409155</ele>
        <time>2026-07-27T08:21:24.000Z</time>
      </trkpt>
      <trkpt lat="44.51583" lon="6.46479">
        <ele>1147.808257</ele>
        <time>2026-07-27T08:21:26.000Z</time>
      </trkpt>
      <trkpt lat="44.51583" lon="6.46479">
        <ele>1147.808257</ele>
        <time>2026-07-27T08:21:26.000Z</time>
      </trkpt>
      <trkpt lat="44.51583" lon="6.46477">
        <ele>1148.058887</ele>
        <time>2026-07-27T08:21:26.000Z</time>
      </trkpt>
      <trkpt lat="44.51584" lon="6.46469">
        <ele>1148.799879</ele>
        <time>2026-07-27T08:21:29.000Z</time>
      </trkpt>
      <trkpt lat="44.51584" lon="6.46469">
        <ele>1148.810048</ele>
        <time>2026-07-27T08:21:36.000Z</time>
      </trkpt>
      <trkpt lat="44.51588" lon="6.46456">
        <ele>1150.267032</ele>
        <time>2026-07-27T08:21:55.000Z</time>
      </trkpt>
      <trkpt lat="44.51588" lon="6.46456">
        <ele>1150.277201</ele>
        <time>2026-07-27T08:21:56.000Z</time>
      </trkpt>
      <trkpt lat="44.51588" lon="6.4645">
        <ele>1150.889992</ele>
        <time>2026-07-27T08:21:59.000Z</time>
      </trkpt>
      <trkpt lat="44.51588" lon="6.4645">
        <ele>1150.889992</ele>
        <time>2026-07-27T08:21:59.000Z</time>
      </trkpt>
      <trkpt lat="44.51588" lon="6.46448">
        <ele>1151.093368</ele>
        <time>2026-07-27T08:21:59.000Z</time>
      </trkpt>
      <trkpt lat="44.51588" lon="6.46446">
        <ele>1151.331132</ele>
        <time>2026-07-27T08:22:00.000Z</time>
      </trkpt>
      <trkpt lat="44.51588" lon="6.46446">
        <ele>1151.331132</ele>
        <time>2026-07-27T08:22:00.000Z</time>
      </trkpt>
      <trkpt lat="44.51589" lon="6.46443">
        <ele>1151.651485</ele>
        <time>2026-07-27T08:22:01.000Z</time>
      </trkpt>
      <trkpt lat="44.51589" lon="6.46443">
        <ele>1151.651485</ele>
        <time>2026-07-27T08:22:01.000Z</time>
      </trkpt>
      <trkpt lat="44.51589" lon="6.46439">
        <ele>1151.997225</ele>
        <time>2026-07-27T08:22:03.000Z</time>
      </trkpt>
      <trkpt lat="44.51589" lon="6.46436">
        <ele>1152.322627</ele>
        <time>2026-07-27T08:22:03.000Z</time>
      </trkpt>
      <trkpt lat="44.51589" lon="6.46436">
        <ele>1152.322627</ele>
        <time>2026-07-27T08:22:03.000Z</time>
      </trkpt>
      <trkpt lat="44.51589" lon="6.46433">
        <ele>1152.668367</ele>
        <time>2026-07-27T08:22:04.000Z</time>
      </trkpt>
      <trkpt lat="44.51589" lon="6.46433">
        <ele>1152.668367</ele>
        <time>2026-07-27T08:22:04.000Z</time>
      </trkpt>
      <trkpt lat="44.51589" lon="6.46429">
        <ele>1153.008753</ele>
        <time>2026-07-27T08:22:06.000Z</time>
      </trkpt>
      <trkpt lat="44.51589" lon="6.46429">
        <ele>1153.008753</ele>
        <time>2026-07-27T08:22:06.000Z</time>
      </trkpt>
      <trkpt lat="44.5159" lon="6.46425">
        <ele>1153.429559</ele>
        <time>2026-07-27T08:22:06.000Z</time>
      </trkpt>
      <trkpt lat="44.5159" lon="6.46425">
        <ele>1153.429559</ele>
        <time>2026-07-27T08:22:06.000Z</time>
      </trkpt>
      <trkpt lat="44.51591" lon="6.46422">
        <ele>1153.837198</ele>
        <time>2026-07-27T08:22:08.000Z</time>
      </trkpt>
      <trkpt lat="44.51591" lon="6.46422">
        <ele>1153.837198</ele>
        <time>2026-07-27T08:22:08.000Z</time>
      </trkpt>
      <trkpt lat="44.51592" lon="6.46418">
        <ele>1154.220641</ele>
        <time>2026-07-27T08:22:08.000Z</time>
      </trkpt>
      <trkpt lat="44.51592" lon="6.46418">
        <ele>1154.220641</ele>
        <time>2026-07-27T08:22:08.000Z</time>
      </trkpt>
      <trkpt lat="44.51593" lon="6.46414">
        <ele>1154.653446</ele>
        <time>2026-07-27T08:22:09.000Z</time>
      </trkpt>
      <trkpt lat="44.51593" lon="6.46414">
        <ele>1154.653446</ele>
        <time>2026-07-27T08:22:09.000Z</time>
      </trkpt>
      <trkpt lat="44.51594" lon="6.46412">
        <ele>1154.9414</ele>
        <time>2026-07-27T08:22:10.000Z</time>
      </trkpt>
      <trkpt lat="44.51594" lon="6.46412">
        <ele>1154.9414</ele>
        <time>2026-07-27T08:22:10.000Z</time>
      </trkpt>
      <trkpt lat="44.51595" lon="6.46409">
        <ele>1155.233543</ele>
        <time>2026-07-27T08:22:11.000Z</time>
      </trkpt>
      <trkpt lat="44.51595" lon="6.46409">
        <ele>1155.233543</ele>
        <time>2026-07-27T08:22:11.000Z</time>
      </trkpt>
      <trkpt lat="44.51596" lon="6.46406">
        <ele>1155.550887</ele>
        <time>2026-07-27T08:22:12.000Z</time>
      </trkpt>
      <trkpt lat="44.51596" lon="6.46406">
        <ele>1155.550887</ele>
        <time>2026-07-27T08:22:12.000Z</time>
      </trkpt>
      <trkpt lat="44.51596" lon="6.46403">
        <ele>1155.790276</ele>
        <time>2026-07-27T08:22:13.000Z</time>
      </trkpt>
      <trkpt lat="44.51597" lon="6.46399">
        <ele>1156.053348</ele>
        <time>2026-07-27T08:22:14.000Z</time>
      </trkpt>
      <trkpt lat="44.51597" lon="6.46399">
        <ele>1156.053348</ele>
        <time>2026-07-27T08:22:14.000Z</time>
      </trkpt>
      <trkpt lat="44.51597" lon="6.46397">
        <ele>1156.290112</ele>
        <time>2026-07-27T08:22:15.000Z</time>
      </trkpt>
      <trkpt lat="44.51597" lon="6.46397">
        <ele>1156.290112</ele>
        <time>2026-07-27T08:22:15.000Z</time>
      </trkpt>
      <trkpt lat="44.51598" lon="6.46394">
        <ele>1156.501516</ele>
        <time>2026-07-27T08:22:16.000Z</time>
      </trkpt>
      <trkpt lat="44.51598" lon="6.46394">
        <ele>1156.501516</ele>
        <time>2026-07-27T08:22:16.000Z</time>
      </trkpt>
      <trkpt lat="44.51598" lon="6.46392">
        <ele>1156.677068</ele>
        <time>2026-07-27T08:22:17.000Z</time>
      </trkpt>
      <trkpt lat="44.51598" lon="6.46392">
        <ele>1156.677068</ele>
        <time>2026-07-27T08:22:17.000Z</time>
      </trkpt>
      <trkpt lat="44.51598" lon="6.4639">
        <ele>1156.858238</ele>
        <time>2026-07-27T08:22:18.000Z</time>
      </trkpt>
      <trkpt lat="44.51598" lon="6.4639">
        <ele>1156.858238</ele>
        <time>2026-07-27T08:22:18.000Z</time>
      </trkpt>
      <trkpt lat="44.51598" lon="6.46387">
        <ele>1157.081668</ele>
        <time>2026-07-27T08:22:20.000Z</time>
      </trkpt>
      <trkpt lat="44.51598" lon="6.46387">
        <ele>1157.081668</ele>
        <time>2026-07-27T08:22:20.000Z</time>
      </trkpt>
      <trkpt lat="44.51599" lon="6.46384">
        <ele>1157.3155</ele>
        <time>2026-07-27T08:22:20.000Z</time>
      </trkpt>
      <trkpt lat="44.51599" lon="6.46384">
        <ele>1157.3155</ele>
        <time>2026-07-27T08:22:20.000Z</time>
      </trkpt>
      <trkpt lat="44.51598" lon="6.46381">
        <ele>1157.533551</ele>
        <time>2026-07-27T08:22:21.000Z</time>
      </trkpt>
      <trkpt lat="44.51598" lon="6.46381">
        <ele>1157.533551</ele>
        <time>2026-07-27T08:22:21.000Z</time>
      </trkpt>
      <trkpt lat="44.51598" lon="6.46378">
        <ele>1157.812838</ele>
        <time>2026-07-27T08:22:22.000Z</time>
      </trkpt>
      <trkpt lat="44.51598" lon="6.46378">
        <ele>1157.812838</ele>
        <time>2026-07-27T08:22:22.000Z</time>
      </trkpt>
      <trkpt lat="44.51598" lon="6.46375">
        <ele>1158.087814</ele>
        <time>2026-07-27T08:22:23.000Z</time>
      </trkpt>
      <trkpt lat="44.51598" lon="6.46375">
        <ele>1158.087814</ele>
        <time>2026-07-27T08:22:23.000Z</time>
      </trkpt>
      <trkpt lat="44.51598" lon="6.46371">
        <ele>1158.339201</ele>
        <time>2026-07-27T08:22:24.000Z</time>
      </trkpt>
      <trkpt lat="44.51598" lon="6.46371">
        <ele>1158.339201</ele>
        <time>2026-07-27T08:22:24.000Z</time>
      </trkpt>
      <trkpt lat="44.51597" lon="6.46368">
        <ele>1158.632487</ele>
        <time>2026-07-27T08:22:25.000Z</time>
      </trkpt>
      <trkpt lat="44.51597" lon="6.46368">
        <ele>1158.632487</ele>
        <time>2026-07-27T08:22:25.000Z</time>
      </trkpt>
      <trkpt lat="44.51596" lon="6.46365">
        <ele>1158.884367</ele>
        <time>2026-07-27T08:22:26.000Z</time>
      </trkpt>
      <trkpt lat="44.51596" lon="6.46365">
        <ele>1158.884367</ele>
        <time>2026-07-27T08:22:26.000Z</time>
      </trkpt>
      <trkpt lat="44.51595" lon="6.46363">
        <ele>1159.11827</ele>
        <time>2026-07-27T08:22:27.000Z</time>
      </trkpt>
      <trkpt lat="44.51595" lon="6.46363">
        <ele>1159.11827</ele>
        <time>2026-07-27T08:22:27.000Z</time>
      </trkpt>
      <trkpt lat="44.51594" lon="6.4636">
        <ele>1159.303248</ele>
        <time>2026-07-27T08:22:28.000Z</time>
      </trkpt>
      <trkpt lat="44.51594" lon="6.4636">
        <ele>1159.303248</ele>
        <time>2026-07-27T08:22:28.000Z</time>
      </trkpt>
      <trkpt lat="44.51593" lon="6.46359">
        <ele>1159.502659</ele>
        <time>2026-07-27T08:22:29.000Z</time>
      </trkpt>
      <trkpt lat="44.51593" lon="6.46359">
        <ele>1159.502659</ele>
        <time>2026-07-27T08:22:29.000Z</time>
      </trkpt>
      <trkpt lat="44.51592" lon="6.46359">
        <ele>1159.582604</ele>
        <time>2026-07-27T08:22:30.000Z</time>
      </trkpt>
      <trkpt lat="44.5159" lon="6.4636">
        <ele>1159.789536</ele>
        <time>2026-07-27T08:22:32.000Z</time>
      </trkpt>
      <trkpt lat="44.5159" lon="6.46362">
        <ele>1159.891006</ele>
        <time>2026-07-27T08:22:33.000Z</time>
      </trkpt>
      <trkpt lat="44.51589" lon="6.46363">
        <ele>1160.040478</ele>
        <time>2026-07-27T08:22:35.000Z</time>
      </trkpt>
      <trkpt lat="44.51588" lon="6.46365">
        <ele>1160.223467</ele>
        <time>2026-07-27T08:22:35.000Z</time>
      </trkpt>
      <trkpt lat="44.51588" lon="6.46365">
        <ele>1160.223467</ele>
        <time>2026-07-27T08:22:35.000Z</time>
      </trkpt>
      <trkpt lat="44.51587" lon="6.46367">
        <ele>1160.466359</ele>
        <time>2026-07-27T08:22:36.000Z</time>
      </trkpt>
      <trkpt lat="44.51587" lon="6.46367">
        <ele>1160.466359</ele>
        <time>2026-07-27T08:22:36.000Z</time>
      </trkpt>
      <trkpt lat="44.51585" lon="6.46369">
        <ele>1160.73708</ele>
        <time>2026-07-27T08:22:37.000Z</time>
      </trkpt>
      <trkpt lat="44.51585" lon="6.46369">
        <ele>1160.73708</ele>
        <time>2026-07-27T08:22:37.000Z</time>
      </trkpt>
      <trkpt lat="44.51583" lon="6.46371">
        <ele>1160.981081</ele>
        <time>2026-07-27T08:22:39.000Z</time>
      </trkpt>
      <trkpt lat="44.51583" lon="6.46371">
        <ele>1160.981081</ele>
        <time>2026-07-27T08:22:39.000Z</time>
      </trkpt>
      <trkpt lat="44.51582" lon="6.46372">
        <ele>1161.160671</ele>
        <time>2026-07-27T08:22:39.000Z</time>
      </trkpt>
      <trkpt lat="44.51582" lon="6.46372">
        <ele>1161.160671</ele>
        <time>2026-07-27T08:22:39.000Z</time>
      </trkpt>
      <trkpt lat="44.51579" lon="6.46373">
        <ele>1161.438178</ele>
        <time>2026-07-27T08:22:40.000Z</time>
      </trkpt>
      <trkpt lat="44.51579" lon="6.46373">
        <ele>1161.438178</ele>
        <time>2026-07-27T08:22:40.000Z</time>
      </trkpt>
      <trkpt lat="44.51577" lon="6.46374">
        <ele>1161.674759</ele>
        <time>2026-07-27T08:22:41.000Z</time>
      </trkpt>
      <trkpt lat="44.51577" lon="6.46374">
        <ele>1161.674759</ele>
        <time>2026-07-27T08:22:41.000Z</time>
      </trkpt>
      <trkpt lat="44.51575" lon="6.46375">
        <ele>1161.946702</ele>
        <time>2026-07-27T08:22:42.000Z</time>
      </trkpt>
      <trkpt lat="44.51575" lon="6.46375">
        <ele>1161.946702</ele>
        <time>2026-07-27T08:22:42.000Z</time>
      </trkpt>
      <trkpt lat="44.51573" lon="6.46377">
        <ele>1162.190703</ele>
        <time>2026-07-27T08:22:43.000Z</time>
      </trkpt>
      <trkpt lat="44.51573" lon="6.46377">
        <ele>1162.190703</ele>
        <time>2026-07-27T08:22:43.000Z</time>
      </trkpt>
      <trkpt lat="44.51571" lon="6.46379">
        <ele>1162.478017</ele>
        <time>2026-07-27T08:22:44.000Z</time>
      </trkpt>
      <trkpt lat="44.51571" lon="6.46379">
        <ele>1162.478017</ele>
        <time>2026-07-27T08:22:44.000Z</time>
      </trkpt>
      <trkpt lat="44.51568" lon="6.46381">
        <ele>1162.83575</ele>
        <time>2026-07-27T08:22:45.000Z</time>
      </trkpt>
      <trkpt lat="44.51568" lon="6.46381">
        <ele>1162.83575</ele>
        <time>2026-07-27T08:22:45.000Z</time>
      </trkpt>
      <trkpt lat="44.51566" lon="6.46383">
        <ele>1163.106472</ele>
        <time>2026-07-27T08:22:46.000Z</time>
      </trkpt>
      <trkpt lat="44.51566" lon="6.46383">
        <ele>1163.106472</ele>
        <time>2026-07-27T08:22:46.000Z</time>
      </trkpt>
      <trkpt lat="44.51564" lon="6.46385">
        <ele>1163.405195</ele>
        <time>2026-07-27T08:22:47.000Z</time>
      </trkpt>
      <trkpt lat="44.51564" lon="6.46385">
        <ele>1163.405195</ele>
        <time>2026-07-27T08:22:47.000Z</time>
      </trkpt>
      <trkpt lat="44.51561" lon="6.46387">
        <ele>1163.753527</ele>
        <time>2026-07-27T08:22:48.000Z</time>
      </trkpt>
      <trkpt lat="44.51561" lon="6.46387">
        <ele>1163.753527</ele>
        <time>2026-07-27T08:22:48.000Z</time>
      </trkpt>
      <trkpt lat="44.51559" lon="6.4639">
        <ele>1164.053345</ele>
        <time>2026-07-27T08:22:49.000Z</time>
      </trkpt>
      <trkpt lat="44.51559" lon="6.4639">
        <ele>1164.053345</ele>
        <time>2026-07-27T08:22:49.000Z</time>
      </trkpt>
      <trkpt lat="44.51558" lon="6.46392">
        <ele>1164.314064</ele>
        <time>2026-07-27T08:22:50.000Z</time>
      </trkpt>
      <trkpt lat="44.51558" lon="6.46392">
        <ele>1164.314064</ele>
        <time>2026-07-27T08:22:50.000Z</time>
      </trkpt>
      <trkpt lat="44.51557" lon="6.46395">
        <ele>1164.569162</ele>
        <time>2026-07-27T08:22:51.000Z</time>
      </trkpt>
      <trkpt lat="44.51557" lon="6.46395">
        <ele>1164.569162</ele>
        <time>2026-07-27T08:22:51.000Z</time>
      </trkpt>
      <trkpt lat="44.51555" lon="6.46398">
        <ele>1164.881034</ele>
        <time>2026-07-27T08:22:52.000Z</time>
      </trkpt>
      <trkpt lat="44.51555" lon="6.46398">
        <ele>1164.881034</ele>
        <time>2026-07-27T08:22:52.000Z</time>
      </trkpt>
      <trkpt lat="44.51554" lon="6.46401">
        <ele>1165.150221</ele>
        <time>2026-07-27T08:22:53.000Z</time>
      </trkpt>
      <trkpt lat="44.51554" lon="6.46401">
        <ele>1165.150221</ele>
        <time>2026-07-27T08:22:53.000Z</time>
      </trkpt>
      <trkpt lat="44.51553" lon="6.46404">
        <ele>1165.423345</ele>
        <time>2026-07-27T08:22:55.000Z</time>
      </trkpt>
      <trkpt lat="44.51553" lon="6.46404">
        <ele>1165.423345</ele>
        <time>2026-07-27T08:22:55.000Z</time>
      </trkpt>
      <trkpt lat="44.51551" lon="6.46406">
        <ele>1165.614228</ele>
        <time>2026-07-27T08:22:55.000Z</time>
      </trkpt>
      <trkpt lat="44.51551" lon="6.46406">
        <ele>1165.614228</ele>
        <time>2026-07-27T08:22:55.000Z</time>
      </trkpt>
      <trkpt lat="44.5155" lon="6.46407">
        <ele>1165.796807</ele>
        <time>2026-07-27T08:22:56.000Z</time>
      </trkpt>
      <trkpt lat="44.5155" lon="6.46407">
        <ele>1165.796807</ele>
        <time>2026-07-27T08:22:56.000Z</time>
      </trkpt>
      <trkpt lat="44.5155" lon="6.46407">
        <ele>1165.796807</ele>
        <time>2026-07-27T08:22:57.000Z</time>
      </trkpt>
      <trkpt lat="44.51547" lon="6.46405">
        <ele>1166.191182</ele>
        <time>2026-07-27T08:22:58.000Z</time>
      </trkpt>
      <trkpt lat="44.51547" lon="6.46405">
        <ele>1166.191182</ele>
        <time>2026-07-27T08:22:58.000Z</time>
      </trkpt>
      <trkpt lat="44.51546" lon="6.46404">
        <ele>1166.353716</ele>
        <time>2026-07-27T08:22:59.000Z</time>
      </trkpt>
      <trkpt lat="44.51546" lon="6.46404">
        <ele>1166.353716</ele>
        <time>2026-07-27T08:22:59.000Z</time>
      </trkpt>
      <trkpt lat="44.51545" lon="6.46401">
        <ele>1166.534887</ele>
        <time>2026-07-27T08:23:00.000Z</time>
      </trkpt>
      <trkpt lat="44.51545" lon="6.46401">
        <ele>1166.534887</ele>
        <time>2026-07-27T08:23:00.000Z</time>
      </trkpt>
      <trkpt lat="44.51545" lon="6.46399">
        <ele>1166.764138</ele>
        <time>2026-07-27T08:23:01.000Z</time>
      </trkpt>
      <trkpt lat="44.51545" lon="6.46399">
        <ele>1166.764138</ele>
        <time>2026-07-27T08:23:01.000Z</time>
      </trkpt>
      <trkpt lat="44.51545" lon="6.46397">
        <ele>1166.931712</ele>
        <time>2026-07-27T08:23:02.000Z</time>
      </trkpt>
      <trkpt lat="44.51545" lon="6.46397">
        <ele>1166.931712</ele>
        <time>2026-07-27T08:23:02.000Z</time>
      </trkpt>
      <trkpt lat="44.51543" lon="6.46393">
        <ele>1167.227308</ele>
        <time>2026-07-27T08:23:03.000Z</time>
      </trkpt>
      <trkpt lat="44.51543" lon="6.46393">
        <ele>1167.227308</ele>
        <time>2026-07-27T08:23:03.000Z</time>
      </trkpt>
      <trkpt lat="44.51543" lon="6.46391">
        <ele>1167.464075</ele>
        <time>2026-07-27T08:23:04.000Z</time>
      </trkpt>
      <trkpt lat="44.51543" lon="6.46391">
        <ele>1167.464075</ele>
        <time>2026-07-27T08:23:04.000Z</time>
      </trkpt>
      <trkpt lat="44.51542" lon="6.46388">
        <ele>1167.691491</ele>
        <time>2026-07-27T08:23:05.000Z</time>
      </trkpt>
      <trkpt lat="44.51542" lon="6.46388">
        <ele>1167.691491</ele>
        <time>2026-07-27T08:23:05.000Z</time>
      </trkpt>
      <trkpt lat="44.5154" lon="6.46386">
        <ele>1167.972372</ele>
        <time>2026-07-27T08:23:06.000Z</time>
      </trkpt>
      <trkpt lat="44.5154" lon="6.46386">
        <ele>1167.972372</ele>
        <time>2026-07-27T08:23:06.000Z</time>
      </trkpt>
      <trkpt lat="44.51538" lon="6.46384">
        <ele>1168.203992</ele>
        <time>2026-07-27T08:23:07.000Z</time>
      </trkpt>
      <trkpt lat="44.51538" lon="6.46384">
        <ele>1168.203992</ele>
        <time>2026-07-27T08:23:07.000Z</time>
      </trkpt>
      <trkpt lat="44.51536" lon="6.46382">
        <ele>1168.452006</ele>
        <time>2026-07-27T08:23:08.000Z</time>
      </trkpt>
      <trkpt lat="44.51536" lon="6.46382">
        <ele>1168.452006</ele>
        <time>2026-07-27T08:23:08.000Z</time>
      </trkpt>
      <trkpt lat="44.51535" lon="6.46381">
        <ele>1168.658172</ele>
        <time>2026-07-27T08:23:10.000Z</time>
      </trkpt>
      <trkpt lat="44.51535" lon="6.46381">
        <ele>1168.658172</ele>
        <time>2026-07-27T08:23:10.000Z</time>
      </trkpt>
      <trkpt lat="44.51533" lon="6.46379">
        <ele>1168.928507</ele>
        <time>2026-07-27T08:23:10.000Z</time>
      </trkpt>
      <trkpt lat="44.51533" lon="6.46379">
        <ele>1168.928507</ele>
        <time>2026-07-27T08:23:10.000Z</time>
      </trkpt>
      <trkpt lat="44.51531" lon="6.46376">
        <ele>1169.201632</ele>
        <time>2026-07-27T08:23:11.000Z</time>
      </trkpt>
      <trkpt lat="44.51531" lon="6.46376">
        <ele>1169.201632</ele>
        <time>2026-07-27T08:23:11.000Z</time>
      </trkpt>
      <trkpt lat="44.51531" lon="6.46373">
        <ele>1169.438399</ele>
        <time>2026-07-27T08:23:12.000Z</time>
      </trkpt>
      <trkpt lat="44.51531" lon="6.46373">
        <ele>1169.438399</ele>
        <time>2026-07-27T08:23:12.000Z</time>
      </trkpt>
      <trkpt lat="44.51529" lon="6.46371">
        <ele>1169.705954</ele>
        <time>2026-07-27T08:23:14.000Z</time>
      </trkpt>
      <trkpt lat="44.51529" lon="6.46371">
        <ele>1169.705954</ele>
        <time>2026-07-27T08:23:14.000Z</time>
      </trkpt>
      <trkpt lat="44.51529" lon="6.46367">
        <ele>1170.004578</ele>
        <time>2026-07-27T08:23:14.000Z</time>
      </trkpt>
      <trkpt lat="44.51529" lon="6.46367">
        <ele>1170.004578</ele>
        <time>2026-07-27T08:23:14.000Z</time>
      </trkpt>
      <trkpt lat="44.51528" lon="6.46363">
        <ele>1170.302338</ele>
        <time>2026-07-27T08:23:16.000Z</time>
      </trkpt>
      <trkpt lat="44.51528" lon="6.46363">
        <ele>1170.302338</ele>
        <time>2026-07-27T08:23:16.000Z</time>
      </trkpt>
      <trkpt lat="44.51527" lon="6.46359">
        <ele>1170.641535</ele>
        <time>2026-07-27T08:23:17.000Z</time>
      </trkpt>
      <trkpt lat="44.51527" lon="6.46359">
        <ele>1170.641535</ele>
        <time>2026-07-27T08:23:17.000Z</time>
      </trkpt>
      <trkpt lat="44.51527" lon="6.46355">
        <ele>1170.955948</ele>
        <time>2026-07-27T08:23:17.000Z</time>
      </trkpt>
      <trkpt lat="44.51527" lon="6.46355">
        <ele>1170.955948</ele>
        <time>2026-07-27T08:23:17.000Z</time>
      </trkpt>
      <trkpt lat="44.51526" lon="6.46352">
        <ele>1171.238342</ele>
        <time>2026-07-27T08:23:18.000Z</time>
      </trkpt>
      <trkpt lat="44.51525" lon="6.46349">
        <ele>1171.519814</ele>
        <time>2026-07-27T08:23:19.000Z</time>
      </trkpt>
      <trkpt lat="44.51525" lon="6.46349">
        <ele>1171.519814</ele>
        <time>2026-07-27T08:23:19.000Z</time>
      </trkpt>
      <trkpt lat="44.51524" lon="6.46346">
        <ele>1171.741584</ele>
        <time>2026-07-27T08:23:20.000Z</time>
      </trkpt>
      <trkpt lat="44.51524" lon="6.46346">
        <ele>1171.741584</ele>
        <time>2026-07-27T08:23:20.000Z</time>
      </trkpt>
      <trkpt lat="44.51523" lon="6.46343">
        <ele>1172.002267</ele>
        <time>2026-07-27T08:23:21.000Z</time>
      </trkpt>
      <trkpt lat="44.51522" lon="6.46341">
        <ele>1172.275393</ele>
        <time>2026-07-27T08:23:22.000Z</time>
      </trkpt>
      <trkpt lat="44.51522" lon="6.46341">
        <ele>1172.275393</ele>
        <time>2026-07-27T08:23:22.000Z</time>
      </trkpt>
      <trkpt lat="44.5152" lon="6.46339">
        <ele>1172.512583</ele>
        <time>2026-07-27T08:23:24.000Z</time>
      </trkpt>
      <trkpt lat="44.51517" lon="6.46334">
        <ele>1173.006169</ele>
        <time>2026-07-27T08:23:25.000Z</time>
      </trkpt>
      <trkpt lat="44.51517" lon="6.46334">
        <ele>1173.006169</ele>
        <time>2026-07-27T08:23:25.000Z</time>
      </trkpt>
      <trkpt lat="44.51516" lon="6.46332">
        <ele>1173.23779</ele>
        <time>2026-07-27T08:23:26.000Z</time>
      </trkpt>
      <trkpt lat="44.51516" lon="6.46332">
        <ele>1173.23779</ele>
        <time>2026-07-27T08:23:26.000Z</time>
      </trkpt>
      <trkpt lat="44.51514" lon="6.4633">
        <ele>1173.494384</ele>
        <time>2026-07-27T08:23:27.000Z</time>
      </trkpt>
      <trkpt lat="44.5151" lon="6.46327">
        <ele>1174.049439</ele>
        <time>2026-07-27T08:23:29.000Z</time>
      </trkpt>
      <trkpt lat="44.5151" lon="6.46327">
        <ele>1174.049439</ele>
        <time>2026-07-27T08:23:29.000Z</time>
      </trkpt>
      <trkpt lat="44.51506" lon="6.46324">
        <ele>1174.500365</ele>
        <time>2026-07-27T08:23:31.000Z</time>
      </trkpt>
      <trkpt lat="44.51506" lon="6.46324">
        <ele>1174.500365</ele>
        <time>2026-07-27T08:23:31.000Z</time>
      </trkpt>
      <trkpt lat="44.51502" lon="6.46321">
        <ele>1175.017407</ele>
        <time>2026-07-27T08:23:33.000Z</time>
      </trkpt>
      <trkpt lat="44.51502" lon="6.46321">
        <ele>1175.017407</ele>
        <time>2026-07-27T08:23:33.000Z</time>
      </trkpt>
      <trkpt lat="44.515" lon="6.4632">
        <ele>1175.244513</ele>
        <time>2026-07-27T08:23:33.000Z</time>
      </trkpt>
      <trkpt lat="44.51498" lon="6.46319">
        <ele>1175.395848</ele>
        <time>2026-07-27T08:23:35.000Z</time>
      </trkpt>
      <trkpt lat="44.51497" lon="6.46317">
        <ele>1175.392719</ele>
        <time>2026-07-27T08:23:36.000Z</time>
      </trkpt>
      <trkpt lat="44.51497" lon="6.46317">
        <ele>1175.392719</ele>
        <time>2026-07-27T08:23:36.000Z</time>
      </trkpt>
      <trkpt lat="44.51494" lon="6.46315">
        <ele>1175.387603</ele>
        <time>2026-07-27T08:23:38.000Z</time>
      </trkpt>
      <trkpt lat="44.51494" lon="6.46315">
        <ele>1175.387603</ele>
        <time>2026-07-27T08:23:38.000Z</time>
      </trkpt>
      <trkpt lat="44.5149" lon="6.46312">
        <ele>1175.381716</ele>
        <time>2026-07-27T08:23:40.000Z</time>
      </trkpt>
      <trkpt lat="44.51488" lon="6.4631">
        <ele>1175.377935</ele>
        <time>2026-07-27T08:23:41.000Z</time>
      </trkpt>
      <trkpt lat="44.51488" lon="6.4631">
        <ele>1175.377935</ele>
        <time>2026-07-27T08:23:41.000Z</time>
      </trkpt>
      <trkpt lat="44.51484" lon="6.46307">
        <ele>1175.370975</ele>
        <time>2026-07-27T08:23:43.000Z</time>
      </trkpt>
      <trkpt lat="44.51481" lon="6.46305">
        <ele>1175.366813</ele>
        <time>2026-07-27T08:23:43.000Z</time>
      </trkpt>
      <trkpt lat="44.51481" lon="6.46305">
        <ele>1175.366813</ele>
        <time>2026-07-27T08:23:43.000Z</time>
      </trkpt>
      <trkpt lat="44.51479" lon="6.46303">
        <ele>1175.363033</ele>
        <time>2026-07-27T08:23:44.000Z</time>
      </trkpt>
      <trkpt lat="44.51477" lon="6.463">
        <ele>1175.359367</ele>
        <time>2026-07-27T08:23:46.000Z</time>
      </trkpt>
      <trkpt lat="44.51477" lon="6.463">
        <ele>1175.359367</ele>
        <time>2026-07-27T08:23:46.000Z</time>
      </trkpt>
      <trkpt lat="44.51476" lon="6.46297">
        <ele>1175.355935</ele>
        <time>2026-07-27T08:23:47.000Z</time>
      </trkpt>
      <trkpt lat="44.51474" lon="6.46294">
        <ele>1175.352432</ele>
        <time>2026-07-27T08:23:47.000Z</time>
      </trkpt>
      <trkpt lat="44.51474" lon="6.46294">
        <ele>1175.352432</ele>
        <time>2026-07-27T08:23:49.000Z</time>
      </trkpt>
      <trkpt lat="44.51471" lon="6.46289">
        <ele>1175.345257</ele>
        <time>2026-07-27T08:23:49.000Z</time>
      </trkpt>
      <trkpt lat="44.51471" lon="6.46288">
        <ele>1175.343748</ele>
        <time>2026-07-27T08:23:51.000Z</time>
      </trkpt>
      <trkpt lat="44.51471" lon="6.46288">
        <ele>1175.343748</ele>
        <time>2026-07-27T08:23:51.000Z</time>
      </trkpt>
      <trkpt lat="44.51469" lon="6.46287">
        <ele>1175.341234</ele>
        <time>2026-07-27T08:23:51.000Z</time>
      </trkpt>
      <trkpt lat="44.51467" lon="6.46286">
        <ele>1175.33846</ele>
        <time>2026-07-27T08:23:53.000Z</time>
      </trkpt>
      <trkpt lat="44.51465" lon="6.46286">
        <ele>1175.335144</ele>
        <time>2026-07-27T08:23:54.000Z</time>
      </trkpt>
      <trkpt lat="44.51465" lon="6.46286">
        <ele>1175.335144</ele>
        <time>2026-07-27T08:23:54.000Z</time>
      </trkpt>
      <trkpt lat="44.51463" lon="6.46286">
        <ele>1175.33198</ele>
        <time>2026-07-27T08:23:55.000Z</time>
      </trkpt>
      <trkpt lat="44.5146" lon="6.46285">
        <ele>1175.328057</ele>
        <time>2026-07-27T08:23:56.000Z</time>
      </trkpt>
      <trkpt lat="44.5146" lon="6.46285">
        <ele>1175.328057</ele>
        <time>2026-07-27T08:23:56.000Z</time>
      </trkpt>
      <trkpt lat="44.51457" lon="6.46283">
        <ele>1175.323115</ele>
        <time>2026-07-27T08:23:56.000Z</time>
      </trkpt>
      <trkpt lat="44.51455" lon="6.46279">
        <ele>1175.317857</ele>
        <time>2026-07-27T08:23:57.000Z</time>
      </trkpt>
      <trkpt lat="44.51452" lon="6.46274">
        <ele>1175.31158</ele>
        <time>2026-07-27T08:23:58.000Z</time>
      </trkpt>
      <trkpt lat="44.51452" lon="6.46274">
        <ele>1175.31158</ele>
        <time>2026-07-27T08:23:58.000Z</time>
      </trkpt>
      <trkpt lat="44.5145" lon="6.46268">
        <ele>1175.304877</ele>
        <time>2026-07-27T08:23:59.000Z</time>
      </trkpt>
      <trkpt lat="44.51447" lon="6.46264">
        <ele>1175.298936</ele>
        <time>2026-07-27T08:24:00.000Z</time>
      </trkpt>
      <trkpt lat="44.51445" lon="6.4626">
        <ele>1175.293597</ele>
        <time>2026-07-27T08:24:01.000Z</time>
      </trkpt>
      <trkpt lat="44.51444" lon="6.46257">
        <ele>1175.289848</ele>
        <time>2026-07-27T08:24:02.000Z</time>
      </trkpt>
      <trkpt lat="44.51442" lon="6.46255">
        <ele>1175.286438</ele>
        <time>2026-07-27T08:24:04.000Z</time>
      </trkpt>
      <trkpt lat="44.5144" lon="6.46252">
        <ele>1175.283603</ele>
        <time>2026-07-27T08:24:05.000Z</time>
      </trkpt>
      <trkpt lat="44.5144" lon="6.46252">
        <ele>1175.283603</ele>
        <time>2026-07-27T08:24:07.000Z</time>
      </trkpt>
      <trkpt lat="44.51439" lon="6.46249">
        <ele>1175.279853</ele>
        <time>2026-07-27T08:24:08.000Z</time>
      </trkpt>
      <trkpt lat="44.5144" lon="6.46245">
        <ele>1175.275274</ele>
        <time>2026-07-27T08:24:12.000Z</time>
      </trkpt>
      <trkpt lat="44.51441" lon="6.46243">
        <ele>1175.272357</ele>
        <time>2026-07-27T08:24:13.000Z</time>
      </trkpt>
      <trkpt lat="44.51442" lon="6.46241">
        <ele>1175.269738</ele>
        <time>2026-07-27T08:24:14.000Z</time>
      </trkpt>
      <trkpt lat="44.51443" lon="6.46239">
        <ele>1175.267729</ele>
        <time>2026-07-27T08:24:15.000Z</time>
      </trkpt>
      <trkpt lat="44.51443" lon="6.46239">
        <ele>1175.267729</ele>
        <time>2026-07-27T08:24:16.000Z</time>
      </trkpt>
      <trkpt lat="44.51445" lon="6.46237">
        <ele>1175.264438</ele>
        <time>2026-07-27T08:24:17.000Z</time>
      </trkpt>
      <trkpt lat="44.51445" lon="6.46237">
        <ele>1175.264438</ele>
        <time>2026-07-27T08:24:25.000Z</time>
      </trkpt>
      <trkpt lat="44.51445" lon="6.46236">
        <ele>1175.263517</ele>
        <time>2026-07-27T08:24:26.000Z</time>
      </trkpt>
      <trkpt lat="44.51445" lon="6.46236">
        <ele>1175.263517</ele>
        <time>2026-07-27T08:24:26.000Z</time>
      </trkpt>
      <trkpt lat="44.51442" lon="6.46238">
        <ele>1175.25952</ele>
        <time>2026-07-27T08:24:28.000Z</time>
      </trkpt>
      <trkpt lat="44.5144" lon="6.46239">
        <ele>1175.256312</ele>
        <time>2026-07-27T08:24:28.000Z</time>
      </trkpt>
      <trkpt lat="44.51439" lon="6.46241">
        <ele>1175.253478</ele>
        <time>2026-07-27T08:24:30.000Z</time>
      </trkpt>
      <trkpt lat="44.51437" lon="6.46244">
        <ele>1175.249448</ele>
        <time>2026-07-27T08:24:31.000Z</time>
      </trkpt>
      <trkpt lat="44.51435" lon="6.46247">
        <ele>1175.245781</ele>
        <time>2026-07-27T08:24:31.000Z</time>
      </trkpt>
      <trkpt lat="44.51433" lon="6.46252">
        <ele>1175.239519</ele>
        <time>2026-07-27T08:24:34.000Z</time>
      </trkpt>
      <trkpt lat="44.51432" lon="6.46253">
        <ele>1175.238165</ele>
        <time>2026-07-27T08:24:34.000Z</time>
      </trkpt>
      <trkpt lat="44.51431" lon="6.46253">
        <ele>1175.236802</ele>
        <time>2026-07-27T08:24:48.000Z</time>
      </trkpt>
      <trkpt lat="44.51433" lon="6.46252">
        <ele>1175.234034</ele>
        <time>2026-07-27T08:24:50.000Z</time>
      </trkpt>
      <trkpt lat="44.51434" lon="6.46249">
        <ele>1175.230844</ele>
        <time>2026-07-27T08:24:51.000Z</time>
      </trkpt>
      <trkpt lat="44.51437" lon="6.46246">
        <ele>1175.225771</ele>
        <time>2026-07-27T08:24:51.000Z</time>
      </trkpt>
      <trkpt lat="44.51439" lon="6.46243">
        <ele>1175.220899</ele>
        <time>2026-07-27T08:24:53.000Z</time>
      </trkpt>
      <trkpt lat="44.51442" lon="6.46239">
        <ele>1175.215097</ele>
        <time>2026-07-27T08:24:53.000Z</time>
      </trkpt>
      <trkpt lat="44.51446" lon="6.46235">
        <ele>1175.208617</ele>
        <time>2026-07-27T08:24:54.000Z</time>
      </trkpt>
      <trkpt lat="44.51449" lon="6.46232">
        <ele>1175.203081</ele>
        <time>2026-07-27T08:24:56.000Z</time>
      </trkpt>
      <trkpt lat="44.51452" lon="6.46229">
        <ele>1175.198137</ele>
        <time>2026-07-27T08:24:56.000Z</time>
      </trkpt>
      <trkpt lat="44.51452" lon="6.46229">
        <ele>1175.198137</ele>
        <time>2026-07-27T08:24:56.000Z</time>
      </trkpt>
      <trkpt lat="44.51455" lon="6.46226">
        <ele>1175.193128</ele>
        <time>2026-07-27T08:24:58.000Z</time>
      </trkpt>
      <trkpt lat="44.51457" lon="6.46224">
        <ele>1175.188485</ele>
        <time>2026-07-27T08:24:58.000Z</time>
      </trkpt>
      <trkpt lat="44.51457" lon="6.46224">
        <ele>1175.188485</ele>
        <time>2026-07-27T08:24:58.000Z</time>
      </trkpt>
      <trkpt lat="44.5146" lon="6.46221">
        <ele>1175.183725</ele>
        <time>2026-07-27T08:24:59.000Z</time>
      </trkpt>
      <trkpt lat="44.51463" lon="6.46218">
        <ele>1175.179025</ele>
        <time>2026-07-27T08:25:00.000Z</time>
      </trkpt>
      <trkpt lat="44.51466" lon="6.46216">
        <ele>1175.173963</ele>
        <time>2026-07-27T08:25:02.000Z</time>
      </trkpt>
      <trkpt lat="44.51466" lon="6.46216">
        <ele>1175.173963</ele>
        <time>2026-07-27T08:25:02.000Z</time>
      </trkpt>
      <trkpt lat="44.51468" lon="6.46214">
        <ele>1175.170322</ele>
        <time>2026-07-27T08:25:03.000Z</time>
      </trkpt>
      <trkpt lat="44.51468" lon="6.46214">
        <ele>1175.170322</ele>
        <time>2026-07-27T08:25:03.000Z</time>
      </trkpt>
      <trkpt lat="44.5147" lon="6.46213">
        <ele>1175.167288</ele>
        <time>2026-07-27T08:25:03.000Z</time>
      </trkpt>
      <trkpt lat="44.51472" lon="6.46211">
        <ele>1175.164159</ele>
        <time>2026-07-27T08:25:04.000Z</time>
      </trkpt>
      <trkpt lat="44.51472" lon="6.46211">
        <ele>1175.164159</ele>
        <time>2026-07-27T08:25:04.000Z</time>
      </trkpt>
      <trkpt lat="44.51474" lon="6.4621">
        <ele>1175.160868</ele>
        <time>2026-07-27T08:25:06.000Z</time>
      </trkpt>
      <trkpt lat="44.51475" lon="6.46208">
        <ele>1175.158337</ele>
        <time>2026-07-27T08:25:06.000Z</time>
      </trkpt>
      <trkpt lat="44.51475" lon="6.46208">
        <ele>1175.158337</ele>
        <time>2026-07-27T08:25:06.000Z</time>
      </trkpt>
      <trkpt lat="44.51477" lon="6.46206">
        <ele>1175.154557</ele>
        <time>2026-07-27T08:25:08.000Z</time>
      </trkpt>
      <trkpt lat="44.51477" lon="6.46206">
        <ele>1175.154557</ele>
        <time>2026-07-27T08:25:08.000Z</time>
      </trkpt>
      <trkpt lat="44.51479" lon="6.46205">
        <ele>1175.151266</ele>
        <time>2026-07-27T08:25:08.000Z</time>
      </trkpt>
      <trkpt lat="44.51481" lon="6.46203">
        <ele>1175.148031</ele>
        <time>2026-07-27T08:25:09.000Z</time>
      </trkpt>
      <trkpt lat="44.51481" lon="6.46203">
        <ele>1175.148031</ele>
        <time>2026-07-27T08:25:09.000Z</time>
      </trkpt>
      <trkpt lat="44.51484" lon="6.46201">
        <ele>1175.1442</ele>
        <time>2026-07-27T08:25:11.000Z</time>
      </trkpt>
      <trkpt lat="44.51484" lon="6.46201">
        <ele>1175.1442</ele>
        <time>2026-07-27T08:25:11.000Z</time>
      </trkpt>
      <trkpt lat="44.51486" lon="6.46198">
        <ele>1175.139499</ele>
        <time>2026-07-27T08:25:11.000Z</time>
      </trkpt>
      <trkpt lat="44.51489" lon="6.46196">
        <ele>1175.162316</ele>
        <time>2026-07-27T08:25:13.000Z</time>
      </trkpt>
      <trkpt lat="44.51489" lon="6.46196">
        <ele>1175.162316</ele>
        <time>2026-07-27T08:25:13.000Z</time>
      </trkpt>
      <trkpt lat="44.51491" lon="6.46195">
        <ele>1175.186573</ele>
        <time>2026-07-27T08:25:13.000Z</time>
      </trkpt>
      <trkpt lat="44.51491" lon="6.46195">
        <ele>1175.186573</ele>
        <time>2026-07-27T08:25:13.000Z</time>
      </trkpt>
      <trkpt lat="44.51494" lon="6.46192">
        <ele>1175.222264</ele>
        <time>2026-07-27T08:25:14.000Z</time>
      </trkpt>
      <trkpt lat="44.51494" lon="6.46192">
        <ele>1175.222264</ele>
        <time>2026-07-27T08:25:14.000Z</time>
      </trkpt>
      <trkpt lat="44.51496" lon="6.4619">
        <ele>1175.250482</ele>
        <time>2026-07-27T08:25:15.000Z</time>
      </trkpt>
      <trkpt lat="44.51496" lon="6.4619">
        <ele>1175.250482</ele>
        <time>2026-07-27T08:25:15.000Z</time>
      </trkpt>
      <trkpt lat="44.51498" lon="6.46187">
        <ele>1175.286624</ele>
        <time>2026-07-27T08:25:16.000Z</time>
      </trkpt>
      <trkpt lat="44.51501" lon="6.46184">
        <ele>1175.318906</ele>
        <time>2026-07-27T08:25:18.000Z</time>
      </trkpt>
      <trkpt lat="44.51501" lon="6.46184">
        <ele>1175.318906</ele>
        <time>2026-07-27T08:25:18.000Z</time>
      </trkpt>
      <trkpt lat="44.51502" lon="6.46184">
        <ele>1175.329481</ele>
        <time>2026-07-27T08:25:18.000Z</time>
      </trkpt>
      <trkpt lat="44.51502" lon="6.46184">
        <ele>1175.329481</ele>
        <time>2026-07-27T08:25:18.000Z</time>
      </trkpt>
      <trkpt lat="44.51504" lon="6.46181">
        <ele>1175.359015</ele>
        <time>2026-07-27T08:25:19.000Z</time>
      </trkpt>
      <trkpt lat="44.51504" lon="6.46181">
        <ele>1175.359015</ele>
        <time>2026-07-27T08:25:19.000Z</time>
      </trkpt>
      <trkpt lat="44.51506" lon="6.46179">
        <ele>1175.388979</ele>
        <time>2026-07-27T08:25:20.000Z</time>
      </trkpt>
      <trkpt lat="44.51506" lon="6.46179">
        <ele>1175.388979</ele>
        <time>2026-07-27T08:25:20.000Z</time>
      </trkpt>
      <trkpt lat="44.51508" lon="6.46177">
        <ele>1175.412048</ele>
        <time>2026-07-27T08:25:21.000Z</time>
      </trkpt>
      <trkpt lat="44.51508" lon="6.46177">
        <ele>1175.412048</ele>
        <time>2026-07-27T08:25:21.000Z</time>
      </trkpt>
      <trkpt lat="44.51508" lon="6.46176">
        <ele>1175.42455</ele>
        <time>2026-07-27T08:25:22.000Z</time>
      </trkpt>
      <trkpt lat="44.51508" lon="6.46176">
        <ele>1175.42455</ele>
        <time>2026-07-27T08:25:24.000Z</time>
      </trkpt>
      <trkpt lat="44.51508" lon="6.46176">
        <ele>1175.42455</ele>
        <time>2026-07-27T08:25:26.000Z</time>
      </trkpt>
      <trkpt lat="44.5151" lon="6.46173">
        <ele>1175.45269</ele>
        <time>2026-07-27T08:25:28.000Z</time>
      </trkpt>
      <trkpt lat="44.5151" lon="6.46173">
        <ele>1175.45269</ele>
        <time>2026-07-27T08:25:28.000Z</time>
      </trkpt>
      <trkpt lat="44.5151" lon="6.46173">
        <ele>1175.453458</ele>
        <time>2026-07-27T08:25:30.000Z</time>
      </trkpt>
      <trkpt lat="44.51507" lon="6.46173">
        <ele>1175.487043</ele>
        <time>2026-07-27T08:25:32.000Z</time>
      </trkpt>
      <trkpt lat="44.51507" lon="6.46173">
        <ele>1175.487043</ele>
        <time>2026-07-27T08:25:32.000Z</time>
      </trkpt>
      <trkpt lat="44.51506" lon="6.46174">
        <ele>1175.495842</ele>
        <time>2026-07-27T08:25:33.000Z</time>
      </trkpt>
      <trkpt lat="44.51506" lon="6.46174">
        <ele>1175.495842</ele>
        <time>2026-07-27T08:25:33.000Z</time>
      </trkpt>
      <trkpt lat="44.51505" lon="6.46176">
        <ele>1175.510383</ele>
        <time>2026-07-27T08:25:34.000Z</time>
      </trkpt>
      <trkpt lat="44.51504" lon="6.46177">
        <ele>1175.528741</ele>
        <time>2026-07-27T08:25:35.000Z</time>
      </trkpt>
      <trkpt lat="44.51501" lon="6.46181">
        <ele>1175.573294</ele>
        <time>2026-07-27T08:25:36.000Z</time>
      </trkpt>
      <trkpt lat="44.51498" lon="6.46184">
        <ele>1175.608545</ele>
        <time>2026-07-27T08:25:37.000Z</time>
      </trkpt>
      <trkpt lat="44.51498" lon="6.46184">
        <ele>1175.608545</ele>
        <time>2026-07-27T08:25:37.000Z</time>
      </trkpt>
      <trkpt lat="44.51496" lon="6.46186">
        <ele>1175.64034</ele>
        <time>2026-07-27T08:25:38.000Z</time>
      </trkpt>
      <trkpt lat="44.51494" lon="6.46189">
        <ele>1175.676095</ele>
        <time>2026-07-27T08:25:39.000Z</time>
      </trkpt>
      <trkpt lat="44.51491" lon="6.46192">
        <ele>1175.708876</ele>
        <time>2026-07-27T08:25:40.000Z</time>
      </trkpt>
      <trkpt lat="44.51489" lon="6.46195">
        <ele>1175.747423</ele>
        <time>2026-07-27T08:25:41.000Z</time>
      </trkpt>
      <trkpt lat="44.51489" lon="6.46195">
        <ele>1175.747423</ele>
        <time>2026-07-27T08:25:41.000Z</time>
      </trkpt>
      <trkpt lat="44.51485" lon="6.46199">
        <ele>1175.788402</ele>
        <time>2026-07-27T08:25:42.000Z</time>
      </trkpt>
      <trkpt lat="44.51482" lon="6.46202">
        <ele>1175.828509</ele>
        <time>2026-07-27T08:25:43.000Z</time>
      </trkpt>
      <trkpt lat="44.5148" lon="6.46204">
        <ele>1175.8642</ele>
        <time>2026-07-27T08:25:44.000Z</time>
      </trkpt>
      <trkpt lat="44.51476" lon="6.46207">
        <ele>1175.906636</ele>
        <time>2026-07-27T08:25:45.000Z</time>
      </trkpt>
      <trkpt lat="44.51473" lon="6.46209">
        <ele>1175.944383</ele>
        <time>2026-07-27T08:25:46.000Z</time>
      </trkpt>
      <trkpt lat="44.5147" lon="6.46211">
        <ele>1175.980134</ele>
        <time>2026-07-27T08:25:47.000Z</time>
      </trkpt>
      <trkpt lat="44.51466" lon="6.46214">
        <ele>1176.024381</ele>
        <time>2026-07-27T08:25:48.000Z</time>
      </trkpt>
      <trkpt lat="44.51466" lon="6.46214">
        <ele>1176.024381</ele>
        <time>2026-07-27T08:25:48.000Z</time>
      </trkpt>
      <trkpt lat="44.51463" lon="6.46216">
        <ele>1176.065981</ele>
        <time>2026-07-27T08:25:48.000Z</time>
      </trkpt>
      <trkpt lat="44.51459" lon="6.46218">
        <ele>1176.111157</ele>
        <time>2026-07-27T08:25:50.000Z</time>
      </trkpt>
      <trkpt lat="44.51457" lon="6.46221">
        <ele>1176.146912</ele>
        <time>2026-07-27T08:25:51.000Z</time>
      </trkpt>
      <trkpt lat="44.51457" lon="6.46221">
        <ele>1176.146912</ele>
        <time>2026-07-27T08:25:51.000Z</time>
      </trkpt>
      <trkpt lat="44.51453" lon="6.46225">
        <ele>1176.188341</ele>
        <time>2026-07-27T08:25:52.000Z</time>
      </trkpt>
      <trkpt lat="44.51451" lon="6.46228">
        <ele>1176.227397</ele>
        <time>2026-07-27T08:25:53.000Z</time>
      </trkpt>
      <trkpt lat="44.51451" lon="6.46228">
        <ele>1176.227397</ele>
        <time>2026-07-27T08:25:53.000Z</time>
      </trkpt>
      <trkpt lat="44.51448" lon="6.46231">
        <ele>1176.265659</ele>
        <time>2026-07-27T08:25:54.000Z</time>
      </trkpt>
      <trkpt lat="44.51446" lon="6.46235">
        <ele>1176.302755</ele>
        <time>2026-07-27T08:25:55.000Z</time>
      </trkpt>
      <trkpt lat="44.51446" lon="6.46235">
        <ele>1176.302755</ele>
        <time>2026-07-27T08:25:55.000Z</time>
      </trkpt>
      <trkpt lat="44.51444" lon="6.46238">
        <ele>1176.336044</ele>
        <time>2026-07-27T08:25:56.000Z</time>
      </trkpt>
      <trkpt lat="44.51444" lon="6.46238">
        <ele>1176.336044</ele>
        <time>2026-07-27T08:25:56.000Z</time>
      </trkpt>
      <trkpt lat="44.51441" lon="6.46241">
        <ele>1176.372012</ele>
        <time>2026-07-27T08:25:57.000Z</time>
      </trkpt>
      <trkpt lat="44.51438" lon="6.46244">
        <ele>1176.41299</ele>
        <time>2026-07-27T08:25:58.000Z</time>
      </trkpt>
      <trkpt lat="44.51438" lon="6.46244">
        <ele>1176.41299</ele>
        <time>2026-07-27T08:25:58.000Z</time>
      </trkpt>
      <trkpt lat="44.51436" lon="6.46247">
        <ele>1176.446797</ele>
        <time>2026-07-27T08:25:59.000Z</time>
      </trkpt>
      <trkpt lat="44.51436" lon="6.46247">
        <ele>1176.446797</ele>
        <time>2026-07-27T08:25:59.000Z</time>
      </trkpt>
      <trkpt lat="44.51433" lon="6.46251">
        <ele>1176.488311</ele>
        <time>2026-07-27T08:26:00.000Z</time>
      </trkpt>
      <trkpt lat="44.51433" lon="6.46251">
        <ele>1176.488311</ele>
        <time>2026-07-27T08:26:00.000Z</time>
      </trkpt>
      <trkpt lat="44.5143" lon="6.46255">
        <ele>1176.529482</ele>
        <time>2026-07-27T08:26:01.000Z</time>
      </trkpt>
      <trkpt lat="44.5143" lon="6.46255">
        <ele>1176.529482</ele>
        <time>2026-07-27T08:26:01.000Z</time>
      </trkpt>
      <trkpt lat="44.51427" lon="6.46259">
        <ele>1176.579048</ele>
        <time>2026-07-27T08:26:02.000Z</time>
      </trkpt>
      <trkpt lat="44.51427" lon="6.46259">
        <ele>1176.579048</ele>
        <time>2026-07-27T08:26:02.000Z</time>
      </trkpt>
      <trkpt lat="44.51424" lon="6.46264">
        <ele>1176.627183</ele>
        <time>2026-07-27T08:26:03.000Z</time>
      </trkpt>
      <trkpt lat="44.51424" lon="6.46264">
        <ele>1176.627183</ele>
        <time>2026-07-27T08:26:03.000Z</time>
      </trkpt>
      <trkpt lat="44.51421" lon="6.4627">
        <ele>1176.678517</ele>
        <time>2026-07-27T08:26:04.000Z</time>
      </trkpt>
      <trkpt lat="44.51421" lon="6.4627">
        <ele>1176.678517</ele>
        <time>2026-07-27T08:26:04.000Z</time>
      </trkpt>
      <trkpt lat="44.51418" lon="6.46275">
        <ele>1176.730536</ele>
        <time>2026-07-27T08:26:05.000Z</time>
      </trkpt>
      <trkpt lat="44.51418" lon="6.46275">
        <ele>1176.730536</ele>
        <time>2026-07-27T08:26:05.000Z</time>
      </trkpt>
      <trkpt lat="44.51415" lon="6.4628">
        <ele>1176.785823</ele>
        <time>2026-07-27T08:26:06.000Z</time>
      </trkpt>
      <trkpt lat="44.51415" lon="6.4628">
        <ele>1176.785823</ele>
        <time>2026-07-27T08:26:06.000Z</time>
      </trkpt>
      <trkpt lat="44.51412" lon="6.46286">
        <ele>1176.841452</ele>
        <time>2026-07-27T08:26:07.000Z</time>
      </trkpt>
      <trkpt lat="44.51412" lon="6.46286">
        <ele>1176.841452</ele>
        <time>2026-07-27T08:26:07.000Z</time>
      </trkpt>
      <trkpt lat="44.51409" lon="6.46292">
        <ele>1176.892097</ele>
        <time>2026-07-27T08:26:08.000Z</time>
      </trkpt>
      <trkpt lat="44.51409" lon="6.46292">
        <ele>1176.892097</ele>
        <time>2026-07-27T08:26:08.000Z</time>
      </trkpt>
      <trkpt lat="44.51406" lon="6.46297">
        <ele>1176.947726</ele>
        <time>2026-07-27T08:26:09.000Z</time>
      </trkpt>
      <trkpt lat="44.51406" lon="6.46297">
        <ele>1176.947726</ele>
        <time>2026-07-27T08:26:09.000Z</time>
      </trkpt>
      <trkpt lat="44.51403" lon="6.46303">
        <ele>1177.00153</ele>
        <time>2026-07-27T08:26:10.000Z</time>
      </trkpt>
      <trkpt lat="44.51403" lon="6.46303">
        <ele>1177.00153</ele>
        <time>2026-07-27T08:26:10.000Z</time>
      </trkpt>
      <trkpt lat="44.514" lon="6.46309">
        <ele>1177.059034</ele>
        <time>2026-07-27T08:26:11.000Z</time>
      </trkpt>
      <trkpt lat="44.514" lon="6.46309">
        <ele>1177.059034</ele>
        <time>2026-07-27T08:26:11.000Z</time>
      </trkpt>
      <trkpt lat="44.51398" lon="6.46315">
        <ele>1177.113212</ele>
        <time>2026-07-27T08:26:12.000Z</time>
      </trkpt>
      <trkpt lat="44.51398" lon="6.46315">
        <ele>1177.113212</ele>
        <time>2026-07-27T08:26:12.000Z</time>
      </trkpt>
      <trkpt lat="44.51395" lon="6.46321">
        <ele>1177.171566</ele>
        <time>2026-07-27T08:26:13.000Z</time>
      </trkpt>
      <trkpt lat="44.51395" lon="6.46321">
        <ele>1177.171566</ele>
        <time>2026-07-27T08:26:13.000Z</time>
      </trkpt>
      <trkpt lat="44.51393" lon="6.46326">
        <ele>1177.224474</ele>
        <time>2026-07-27T08:26:14.000Z</time>
      </trkpt>
      <trkpt lat="44.51393" lon="6.46326">
        <ele>1177.224474</ele>
        <time>2026-07-27T08:26:14.000Z</time>
      </trkpt>
      <trkpt lat="44.51391" lon="6.46332">
        <ele>1177.283316</ele>
        <time>2026-07-27T08:26:15.000Z</time>
      </trkpt>
      <trkpt lat="44.51391" lon="6.46332">
        <ele>1177.283316</ele>
        <time>2026-07-27T08:26:15.000Z</time>
      </trkpt>
      <trkpt lat="44.51388" lon="6.46338">
        <ele>1177.342461</ele>
        <time>2026-07-27T08:26:16.000Z</time>
      </trkpt>
      <trkpt lat="44.51388" lon="6.46338">
        <ele>1177.342461</ele>
        <time>2026-07-27T08:26:16.000Z</time>
      </trkpt>
      <trkpt lat="44.51386" lon="6.46344">
        <ele>1177.399801</ele>
        <time>2026-07-27T08:26:17.000Z</time>
      </trkpt>
      <trkpt lat="44.51386" lon="6.46344">
        <ele>1177.399801</ele>
        <time>2026-07-27T08:26:17.000Z</time>
      </trkpt>
      <trkpt lat="44.51384" lon="6.4635">
        <ele>1177.455651</ele>
        <time>2026-07-27T08:26:18.000Z</time>
      </trkpt>
      <trkpt lat="44.51384" lon="6.4635">
        <ele>1177.455651</ele>
        <time>2026-07-27T08:26:18.000Z</time>
      </trkpt>
      <trkpt lat="44.51381" lon="6.46355">
        <ele>1177.504966</ele>
        <time>2026-07-27T08:26:19.000Z</time>
      </trkpt>
      <trkpt lat="44.51381" lon="6.46355">
        <ele>1177.504966</ele>
        <time>2026-07-27T08:26:19.000Z</time>
      </trkpt>
      <trkpt lat="44.51379" lon="6.46359">
        <ele>1177.55253</ele>
        <time>2026-07-27T08:26:20.000Z</time>
      </trkpt>
      <trkpt lat="44.51379" lon="6.46359">
        <ele>1177.55253</ele>
        <time>2026-07-27T08:26:20.000Z</time>
      </trkpt>
      <trkpt lat="44.51378" lon="6.46364">
        <ele>1177.593351</ele>
        <time>2026-07-27T08:26:21.000Z</time>
      </trkpt>
      <trkpt lat="44.51377" lon="6.46367">
        <ele>1177.624939</ele>
        <time>2026-07-27T08:26:22.000Z</time>
      </trkpt>
      <trkpt lat="44.51377" lon="6.46367">
        <ele>1177.624939</ele>
        <time>2026-07-27T08:26:22.000Z</time>
      </trkpt>
      <trkpt lat="44.51375" lon="6.46369">
        <ele>1177.651519</ele>
        <time>2026-07-27T08:26:22.000Z</time>
      </trkpt>
      <trkpt lat="44.51375" lon="6.46369">
        <ele>1177.651519</ele>
        <time>2026-07-27T08:26:22.000Z</time>
      </trkpt>
      <trkpt lat="44.51374" lon="6.46371">
        <ele>1177.673739</ele>
        <time>2026-07-27T08:26:24.000Z</time>
      </trkpt>
      <trkpt lat="44.51374" lon="6.46371">
        <ele>1177.673739</ele>
        <time>2026-07-27T08:26:25.000Z</time>
      </trkpt>
      <trkpt lat="44.51372" lon="6.46374">
        <ele>1177.709609</ele>
        <time>2026-07-27T08:26:25.000Z</time>
      </trkpt>
      <trkpt lat="44.51372" lon="6.46374">
        <ele>1177.709609</ele>
        <time>2026-07-27T08:26:27.000Z</time>
      </trkpt>
      <trkpt lat="44.51372" lon="6.46374">
        <ele>1177.709609</ele>
        <time>2026-07-27T08:28:22.000Z</time>
      </trkpt>
      <trkpt lat="44.51371" lon="6.46375">
        <ele>1177.716614</ele>
        <time>2026-07-27T08:28:23.000Z</time>
      </trkpt>
      <trkpt lat="44.51374" lon="6.46376">
        <ele>1177.753921</ele>
        <time>2026-07-27T08:28:25.000Z</time>
      </trkpt>
      <trkpt lat="44.51374" lon="6.46376">
        <ele>1177.753921</ele>
        <time>2026-07-27T08:28:26.000Z</time>
      </trkpt>
      <trkpt lat="44.51376" lon="6.46375">
        <ele>1177.775619</ele>
        <time>2026-07-27T08:28:35.000Z</time>
      </trkpt>
      <trkpt lat="44.51378" lon="6.46371">
        <ele>1177.808991</ele>
        <time>2026-07-27T08:28:38.000Z</time>
      </trkpt>
      <trkpt lat="44.51378" lon="6.46369">
        <ele>1177.829535</ele>
        <time>2026-07-27T08:28:39.000Z</time>
      </trkpt>
      <trkpt lat="44.51379" lon="6.46368">
        <ele>1177.849933</ele>
        <time>2026-07-27T08:28:40.000Z</time>
      </trkpt>
      <trkpt lat="44.51381" lon="6.46366">
        <ele>1177.873542</ele>
        <time>2026-07-27T08:28:42.000Z</time>
      </trkpt>
      <trkpt lat="44.51382" lon="6.46364">
        <ele>1177.895186</ele>
        <time>2026-07-27T08:28:42.000Z</time>
      </trkpt>
      <trkpt lat="44.51383" lon="6.46361">
        <ele>1177.91809</ele>
        <time>2026-07-27T08:28:43.000Z</time>
      </trkpt>
      <trkpt lat="44.51383" lon="6.46361">
        <ele>1177.91809</ele>
        <time>2026-07-27T08:28:43.000Z</time>
      </trkpt>
      <trkpt lat="44.51384" lon="6.46359">
        <ele>1177.9445</ele>
        <time>2026-07-27T08:28:44.000Z</time>
      </trkpt>
      <trkpt lat="44.51385" lon="6.46356">
        <ele>1177.971418</ele>
        <time>2026-07-27T08:28:45.000Z</time>
      </trkpt>
      <trkpt lat="44.51386" lon="6.46353">
        <ele>1178.002249</ele>
        <time>2026-07-27T08:28:46.000Z</time>
      </trkpt>
      <trkpt lat="44.51387" lon="6.46349">
        <ele>1178.035648</ele>
        <time>2026-07-27T08:28:47.000Z</time>
      </trkpt>
      <trkpt lat="44.51389" lon="6.46345">
        <ele>1178.073435</ele>
        <time>2026-07-27T08:28:48.000Z</time>
      </trkpt>
      <trkpt lat="44.5139" lon="6.46342">
        <ele>1178.106552</ele>
        <time>2026-07-27T08:28:49.000Z</time>
      </trkpt>
      <trkpt lat="44.51392" lon="6.46338">
        <ele>1178.146129</ele>
        <time>2026-07-27T08:28:50.000Z</time>
      </trkpt>
      <trkpt lat="44.51394" lon="6.46335">
        <ele>1178.180988</ele>
        <time>2026-07-27T08:28:51.000Z</time>
      </trkpt>
      <trkpt lat="44.51396" lon="6.46331">
        <ele>1178.223492</ele>
        <time>2026-07-27T08:28:52.000Z</time>
      </trkpt>
      <trkpt lat="44.51398" lon="6.46327">
        <ele>1178.265907</ele>
        <time>2026-07-27T08:28:53.000Z</time>
      </trkpt>
      <trkpt lat="44.51399" lon="6.46322">
        <ele>1178.310597</ele>
        <time>2026-07-27T08:28:54.000Z</time>
      </trkpt>
      <trkpt lat="44.51401" lon="6.46317">
        <ele>1178.358911</ele>
        <time>2026-07-27T08:28:55.000Z</time>
      </trkpt>
      <trkpt lat="44.51403" lon="6.46312">
        <ele>1178.405727</ele>
        <time>2026-07-27T08:28:56.000Z</time>
      </trkpt>
      <trkpt lat="44.51405" lon="6.46307">
        <ele>1178.454615</ele>
        <time>2026-07-27T08:28:57.000Z</time>
      </trkpt>
      <trkpt lat="44.51407" lon="6.46302">
        <ele>1178.50765</ele>
        <time>2026-07-27T08:28:58.000Z</time>
      </trkpt>
      <trkpt lat="44.5141" lon="6.46297">
        <ele>1178.558389</ele>
        <time>2026-07-27T08:28:59.000Z</time>
      </trkpt>
      <trkpt lat="44.5141" lon="6.46297">
        <ele>1178.558389</ele>
        <time>2026-07-27T08:28:59.000Z</time>
      </trkpt>
      <trkpt lat="44.51413" lon="6.46292">
        <ele>1178.615536</ele>
        <time>2026-07-27T08:29:00.000Z</time>
      </trkpt>
      <trkpt lat="44.51415" lon="6.46287">
        <ele>1178.66902</ele>
        <time>2026-07-27T08:29:01.000Z</time>
      </trkpt>
      <trkpt lat="44.51418" lon="6.46282">
        <ele>1178.720422</ele>
        <time>2026-07-27T08:29:02.000Z</time>
      </trkpt>
      <trkpt lat="44.51418" lon="6.46282">
        <ele>1178.720422</ele>
        <time>2026-07-27T08:29:02.000Z</time>
      </trkpt>
      <trkpt lat="44.51421" lon="6.46276">
        <ele>1178.782918</ele>
        <time>2026-07-27T08:29:03.000Z</time>
      </trkpt>
      <trkpt lat="44.51424" lon="6.46271">
        <ele>1178.840622</ele>
        <time>2026-07-27T08:29:04.000Z</time>
      </trkpt>
      <trkpt lat="44.51426" lon="6.46266">
        <ele>1178.888531</ele>
        <time>2026-07-27T08:29:05.000Z</time>
      </trkpt>
      <trkpt lat="44.51426" lon="6.46266">
        <ele>1178.888531</ele>
        <time>2026-07-27T08:29:05.000Z</time>
      </trkpt>
      <trkpt lat="44.51429" lon="6.46261">
        <ele>1178.942504</ele>
        <time>2026-07-27T08:29:07.000Z</time>
      </trkpt>
      <trkpt lat="44.51429" lon="6.46261">
        <ele>1178.942504</ele>
        <time>2026-07-27T08:29:07.000Z</time>
      </trkpt>
      <trkpt lat="44.51432" lon="6.46258">
        <ele>1178.985017</ele>
        <time>2026-07-27T08:29:07.000Z</time>
      </trkpt>
      <trkpt lat="44.51434" lon="6.46255">
        <ele>1179.023762</ele>
        <time>2026-07-27T08:29:09.000Z</time>
      </trkpt>
      <trkpt lat="44.51434" lon="6.46255">
        <ele>1179.023762</ele>
        <time>2026-07-27T08:29:09.000Z</time>
      </trkpt>
      <trkpt lat="44.51437" lon="6.46251">
        <ele>1179.075309</ele>
        <time>2026-07-27T08:29:09.000Z</time>
      </trkpt>
      <trkpt lat="44.51437" lon="6.46251">
        <ele>1179.075309</ele>
        <time>2026-07-27T08:29:09.000Z</time>
      </trkpt>
      <trkpt lat="44.51441" lon="6.46245">
        <ele>1179.134846</ele>
        <time>2026-07-27T08:29:10.000Z</time>
      </trkpt>
      <trkpt lat="44.51441" lon="6.46245">
        <ele>1179.134846</ele>
        <time>2026-07-27T08:29:10.000Z</time>
      </trkpt>
      <trkpt lat="44.51444" lon="6.46242">
        <ele>1179.184649</ele>
        <time>2026-07-27T08:29:11.000Z</time>
      </trkpt>
      <trkpt lat="44.51448" lon="6.46236">
        <ele>1179.101244</ele>
        <time>2026-07-27T08:29:12.000Z</time>
      </trkpt>
      <trkpt lat="44.51448" lon="6.46236">
        <ele>1179.101244</ele>
        <time>2026-07-27T08:29:12.000Z</time>
      </trkpt>
      <trkpt lat="44.51453" lon="6.46231">
        <ele>1178.868311</ele>
        <time>2026-07-27T08:29:13.000Z</time>
      </trkpt>
      <trkpt lat="44.51453" lon="6.46231">
        <ele>1178.868311</ele>
        <time>2026-07-27T08:29:13.000Z</time>
      </trkpt>
      <trkpt lat="44.51457" lon="6.46227">
        <ele>1178.646399</ele>
        <time>2026-07-27T08:29:14.000Z</time>
      </trkpt>
      <trkpt lat="44.51457" lon="6.46227">
        <ele>1178.646399</ele>
        <time>2026-07-27T08:29:14.000Z</time>
      </trkpt>
      <trkpt lat="44.51461" lon="6.46222">
        <ele>1178.411535</ele>
        <time>2026-07-27T08:29:15.000Z</time>
      </trkpt>
      <trkpt lat="44.51461" lon="6.46222">
        <ele>1178.411535</ele>
        <time>2026-07-27T08:29:15.000Z</time>
      </trkpt>
      <trkpt lat="44.51465" lon="6.46218">
        <ele>1178.207535</ele>
        <time>2026-07-27T08:29:17.000Z</time>
      </trkpt>
      <trkpt lat="44.51465" lon="6.46218">
        <ele>1178.207535</ele>
        <time>2026-07-27T08:29:17.000Z</time>
      </trkpt>
      <trkpt lat="44.51469" lon="6.46215">
        <ele>1177.97418</ele>
        <time>2026-07-27T08:29:17.000Z</time>
      </trkpt>
      <trkpt lat="44.51469" lon="6.46215">
        <ele>1177.97418</ele>
        <time>2026-07-27T08:29:17.000Z</time>
      </trkpt>
      <trkpt lat="44.51474" lon="6.46212">
        <ele>1177.769555</ele>
        <time>2026-07-27T08:29:18.000Z</time>
      </trkpt>
      <trkpt lat="44.51474" lon="6.46212">
        <ele>1177.769555</ele>
        <time>2026-07-27T08:29:18.000Z</time>
      </trkpt>
      <trkpt lat="44.51477" lon="6.46208">
        <ele>1177.572532</ele>
        <time>2026-07-27T08:29:19.000Z</time>
      </trkpt>
      <trkpt lat="44.51477" lon="6.46208">
        <ele>1177.572532</ele>
        <time>2026-07-27T08:29:19.000Z</time>
      </trkpt>
      <trkpt lat="44.51482" lon="6.46204">
        <ele>1177.335953</ele>
        <time>2026-07-27T08:29:20.000Z</time>
      </trkpt>
      <trkpt lat="44.51482" lon="6.46204">
        <ele>1177.335953</ele>
        <time>2026-07-27T08:29:20.000Z</time>
      </trkpt>
      <trkpt lat="44.51486" lon="6.462">
        <ele>1177.115777</ele>
        <time>2026-07-27T08:29:21.000Z</time>
      </trkpt>
      <trkpt lat="44.51486" lon="6.462">
        <ele>1177.115777</ele>
        <time>2026-07-27T08:29:21.000Z</time>
      </trkpt>
      <trkpt lat="44.51491" lon="6.46196">
        <ele>1176.872397</ele>
        <time>2026-07-27T08:29:22.000Z</time>
      </trkpt>
      <trkpt lat="44.51491" lon="6.46196">
        <ele>1176.872397</ele>
        <time>2026-07-27T08:29:22.000Z</time>
      </trkpt>
      <trkpt lat="44.51495" lon="6.46192">
        <ele>1176.648719</ele>
        <time>2026-07-27T08:29:23.000Z</time>
      </trkpt>
      <trkpt lat="44.51495" lon="6.46192">
        <ele>1176.648719</ele>
        <time>2026-07-27T08:29:23.000Z</time>
      </trkpt>
      <trkpt lat="44.515" lon="6.46188">
        <ele>1176.41214</ele>
        <time>2026-07-27T08:29:24.000Z</time>
      </trkpt>
      <trkpt lat="44.515" lon="6.46188">
        <ele>1176.41214</ele>
        <time>2026-07-27T08:29:24.000Z</time>
      </trkpt>
      <trkpt lat="44.51504" lon="6.46184">
        <ele>1176.197329</ele>
        <time>2026-07-27T08:29:25.000Z</time>
      </trkpt>
      <trkpt lat="44.51504" lon="6.46184">
        <ele>1176.197329</ele>
        <time>2026-07-27T08:29:25.000Z</time>
      </trkpt>
      <trkpt lat="44.51508" lon="6.4618">
        <ele>1175.971857</ele>
        <time>2026-07-27T08:29:27.000Z</time>
      </trkpt>
      <trkpt lat="44.51508" lon="6.4618">
        <ele>1175.971857</ele>
        <time>2026-07-27T08:29:27.000Z</time>
      </trkpt>
      <trkpt lat="44.51513" lon="6.46176">
        <ele>1175.717103</ele>
        <time>2026-07-27T08:29:27.000Z</time>
      </trkpt>
      <trkpt lat="44.51513" lon="6.46176">
        <ele>1175.717103</ele>
        <time>2026-07-27T08:29:27.000Z</time>
      </trkpt>
      <trkpt lat="44.51517" lon="6.46172">
        <ele>1175.496928</ele>
        <time>2026-07-27T08:29:29.000Z</time>
      </trkpt>
      <trkpt lat="44.51517" lon="6.46172">
        <ele>1175.496928</ele>
        <time>2026-07-27T08:29:29.000Z</time>
      </trkpt>
      <trkpt lat="44.51522" lon="6.46168">
        <ele>1175.258692</ele>
        <time>2026-07-27T08:29:29.000Z</time>
      </trkpt>
      <trkpt lat="44.51522" lon="6.46168">
        <ele>1175.258692</ele>
        <time>2026-07-27T08:29:29.000Z</time>
      </trkpt>
      <trkpt lat="44.51525" lon="6.46164">
        <ele>1175.060647</ele>
        <time>2026-07-27T08:29:31.000Z</time>
      </trkpt>
      <trkpt lat="44.51525" lon="6.46164">
        <ele>1175.060647</ele>
        <time>2026-07-27T08:29:31.000Z</time>
      </trkpt>
      <trkpt lat="44.51529" lon="6.46159">
        <ele>1174.853101</ele>
        <time>2026-07-27T08:29:31.000Z</time>
      </trkpt>
      <trkpt lat="44.51529" lon="6.46159">
        <ele>1174.853101</ele>
        <time>2026-07-27T08:29:31.000Z</time>
      </trkpt>
      <trkpt lat="44.51532" lon="6.46155">
        <ele>1174.663066</ele>
        <time>2026-07-27T08:29:32.000Z</time>
      </trkpt>
      <trkpt lat="44.51532" lon="6.46155">
        <ele>1174.663066</ele>
        <time>2026-07-27T08:29:32.000Z</time>
      </trkpt>
      <trkpt lat="44.51536" lon="6.46151">
        <ele>1174.445674</ele>
        <time>2026-07-27T08:29:33.000Z</time>
      </trkpt>
      <trkpt lat="44.51536" lon="6.46151">
        <ele>1174.445674</ele>
        <time>2026-07-27T08:29:33.000Z</time>
      </trkpt>
      <trkpt lat="44.51539" lon="6.46147">
        <ele>1174.247629</ele>
        <time>2026-07-27T08:29:34.000Z</time>
      </trkpt>
      <trkpt lat="44.51539" lon="6.46147">
        <ele>1174.247629</ele>
        <time>2026-07-27T08:29:34.000Z</time>
      </trkpt>
      <trkpt lat="44.51543" lon="6.46143">
        <ele>1174.03995</ele>
        <time>2026-07-27T08:29:35.000Z</time>
      </trkpt>
      <trkpt lat="44.51543" lon="6.46143">
        <ele>1174.03995</ele>
        <time>2026-07-27T08:29:35.000Z</time>
      </trkpt>
      <trkpt lat="44.51547" lon="6.46138">
        <ele>1173.821167</ele>
        <time>2026-07-27T08:29:36.000Z</time>
      </trkpt>
      <trkpt lat="44.51547" lon="6.46138">
        <ele>1173.821167</ele>
        <time>2026-07-27T08:29:36.000Z</time>
      </trkpt>
      <trkpt lat="44.51551" lon="6.46134">
        <ele>1173.57959</ele>
        <time>2026-07-27T08:29:37.000Z</time>
      </trkpt>
      <trkpt lat="44.51556" lon="6.46129">
        <ele>1173.323283</ele>
        <time>2026-07-27T08:29:38.000Z</time>
      </trkpt>
      <trkpt lat="44.51556" lon="6.46129">
        <ele>1173.323283</ele>
        <time>2026-07-27T08:29:38.000Z</time>
      </trkpt>
      <trkpt lat="44.5156" lon="6.46123">
        <ele>1173.078397</ele>
        <time>2026-07-27T08:29:39.000Z</time>
      </trkpt>
      <trkpt lat="44.5156" lon="6.46123">
        <ele>1173.078397</ele>
        <time>2026-07-27T08:29:39.000Z</time>
      </trkpt>
      <trkpt lat="44.51564" lon="6.46117">
        <ele>1172.818558</ele>
        <time>2026-07-27T08:29:40.000Z</time>
      </trkpt>
      <trkpt lat="44.51569" lon="6.4611">
        <ele>1172.521866</ele>
        <time>2026-07-27T08:29:41.000Z</time>
      </trkpt>
      <trkpt lat="44.51573" lon="6.46103">
        <ele>1172.231935</ele>
        <time>2026-07-27T08:29:42.000Z</time>
      </trkpt>
      <trkpt lat="44.51573" lon="6.46103">
        <ele>1172.231935</ele>
        <time>2026-07-27T08:29:42.000Z</time>
      </trkpt>
      <trkpt lat="44.51577" lon="6.46096">
        <ele>1171.942004</ele>
        <time>2026-07-27T08:29:43.000Z</time>
      </trkpt>
      <trkpt lat="44.51582" lon="6.4609">
        <ele>1171.670913</ele>
        <time>2026-07-27T08:29:44.000Z</time>
      </trkpt>
      <trkpt lat="44.51585" lon="6.46085">
        <ele>1171.441012</ele>
        <time>2026-07-27T08:29:45.000Z</time>
      </trkpt>
      <trkpt lat="44.5159" lon="6.4608">
        <ele>1171.690823</ele>
        <time>2026-07-27T08:29:46.000Z</time>
      </trkpt>
      <trkpt lat="44.51595" lon="6.46077">
        <ele>1172.103597</ele>
        <time>2026-07-27T08:29:47.000Z</time>
      </trkpt>
      <trkpt lat="44.51595" lon="6.46077">
        <ele>1172.103597</ele>
        <time>2026-07-27T08:29:47.000Z</time>
      </trkpt>
      <trkpt lat="44.51598" lon="6.46074">
        <ele>1172.454091</ele>
        <time>2026-07-27T08:29:48.000Z</time>
      </trkpt>
      <trkpt lat="44.51598" lon="6.46074">
        <ele>1172.454091</ele>
        <time>2026-07-27T08:29:48.000Z</time>
      </trkpt>
      <trkpt lat="44.51602" lon="6.46073">
        <ele>1172.747649</ele>
        <time>2026-07-27T08:29:49.000Z</time>
      </trkpt>
      <trkpt lat="44.51605" lon="6.46071">
        <ele>1173.020348</ele>
        <time>2026-07-27T08:29:50.000Z</time>
      </trkpt>
      <trkpt lat="44.51605" lon="6.46071">
        <ele>1173.020348</ele>
        <time>2026-07-27T08:29:50.000Z</time>
      </trkpt>
      <trkpt lat="44.51609" lon="6.46069">
        <ele>1173.375589</ele>
        <time>2026-07-27T08:29:51.000Z</time>
      </trkpt>
      <trkpt lat="44.51609" lon="6.46069">
        <ele>1173.375589</ele>
        <time>2026-07-27T08:29:51.000Z</time>
      </trkpt>
      <trkpt lat="44.51612" lon="6.46065">
        <ele>1173.724993</ele>
        <time>2026-07-27T08:29:52.000Z</time>
      </trkpt>
      <trkpt lat="44.51615" lon="6.46063">
        <ele>1173.977954</ele>
        <time>2026-07-27T08:29:53.000Z</time>
      </trkpt>
      <trkpt lat="44.51615" lon="6.46063">
        <ele>1173.977954</ele>
        <time>2026-07-27T08:29:53.000Z</time>
      </trkpt>
      <trkpt lat="44.51617" lon="6.46061">
        <ele>1174.178364</ele>
        <time>2026-07-27T08:29:54.000Z</time>
      </trkpt>
      <trkpt lat="44.51617" lon="6.46061">
        <ele>1174.178364</ele>
        <time>2026-07-27T08:29:54.000Z</time>
      </trkpt>
      <trkpt lat="44.51619" lon="6.46058">
        <ele>1174.476928</ele>
        <time>2026-07-27T08:29:55.000Z</time>
      </trkpt>
      <trkpt lat="44.51619" lon="6.46058">
        <ele>1174.476928</ele>
        <time>2026-07-27T08:29:55.000Z</time>
      </trkpt>
      <trkpt lat="44.51622" lon="6.46054">
        <ele>1174.741199</ele>
        <time>2026-07-27T08:29:56.000Z</time>
      </trkpt>
      <trkpt lat="44.51622" lon="6.46054">
        <ele>1174.741199</ele>
        <time>2026-07-27T08:29:56.000Z</time>
      </trkpt>
      <trkpt lat="44.51624" lon="6.46051">
        <ele>1175.037901</ele>
        <time>2026-07-27T08:29:57.000Z</time>
      </trkpt>
      <trkpt lat="44.51624" lon="6.46051">
        <ele>1175.037901</ele>
        <time>2026-07-27T08:29:57.000Z</time>
      </trkpt>
      <trkpt lat="44.51626" lon="6.46049">
        <ele>1175.25782</ele>
        <time>2026-07-27T08:29:58.000Z</time>
      </trkpt>
      <trkpt lat="44.51626" lon="6.46049">
        <ele>1175.25782</ele>
        <time>2026-07-27T08:29:58.000Z</time>
      </trkpt>
      <trkpt lat="44.51628" lon="6.46045">
        <ele>1175.493998</ele>
        <time>2026-07-27T08:29:59.000Z</time>
      </trkpt>
      <trkpt lat="44.51628" lon="6.46045">
        <ele>1175.493998</ele>
        <time>2026-07-27T08:29:59.000Z</time>
      </trkpt>
      <trkpt lat="44.51628" lon="6.46043">
        <ele>1175.633845</ele>
        <time>2026-07-27T08:30:01.000Z</time>
      </trkpt>
      <trkpt lat="44.51628" lon="6.46043">
        <ele>1175.633845</ele>
        <time>2026-07-27T08:30:01.000Z</time>
      </trkpt>
      <trkpt lat="44.51629" lon="6.46039">
        <ele>1175.837404</ele>
        <time>2026-07-27T08:30:01.000Z</time>
      </trkpt>
      <trkpt lat="44.51629" lon="6.46039">
        <ele>1175.837404</ele>
        <time>2026-07-27T08:30:01.000Z</time>
      </trkpt>
      <trkpt lat="44.51629" lon="6.46036">
        <ele>1176.0235</ele>
        <time>2026-07-27T08:30:02.000Z</time>
      </trkpt>
      <trkpt lat="44.51629" lon="6.46036">
        <ele>1176.0235</ele>
        <time>2026-07-27T08:30:02.000Z</time>
      </trkpt>
      <trkpt lat="44.51629" lon="6.46034">
        <ele>1176.182994</ele>
        <time>2026-07-27T08:30:03.000Z</time>
      </trkpt>
      <trkpt lat="44.51629" lon="6.46034">
        <ele>1176.182994</ele>
        <time>2026-07-27T08:30:03.000Z</time>
      </trkpt>
      <trkpt lat="44.51629" lon="6.4603">
        <ele>1176.404057</ele>
        <time>2026-07-27T08:30:04.000Z</time>
      </trkpt>
      <trkpt lat="44.51629" lon="6.46026">
        <ele>1176.622622</ele>
        <time>2026-07-27T08:30:05.000Z</time>
      </trkpt>
      <trkpt lat="44.51629" lon="6.46026">
        <ele>1176.622622</ele>
        <time>2026-07-27T08:30:05.000Z</time>
      </trkpt>
      <trkpt lat="44.51628" lon="6.46023">
        <ele>1176.837846</ele>
        <time>2026-07-27T08:30:06.000Z</time>
      </trkpt>
      <trkpt lat="44.51628" lon="6.46019">
        <ele>1177.082296</ele>
        <time>2026-07-27T08:30:07.000Z</time>
      </trkpt>
      <trkpt lat="44.51628" lon="6.46019">
        <ele>1177.082296</ele>
        <time>2026-07-27T08:30:07.000Z</time>
      </trkpt>
      <trkpt lat="44.51627" lon="6.46015">
        <ele>1177.303359</ele>
        <time>2026-07-27T08:30:08.000Z</time>
      </trkpt>
      <trkpt lat="44.51626" lon="6.46009">
        <ele>1177.680771</ele>
        <time>2026-07-27T08:30:10.000Z</time>
      </trkpt>
      <trkpt lat="44.51625" lon="6.46006">
        <ele>1177.869973</ele>
        <time>2026-07-27T08:30:10.000Z</time>
      </trkpt>
      <trkpt lat="44.51625" lon="6.46006">
        <ele>1177.869973</ele>
        <time>2026-07-27T08:30:10.000Z</time>
      </trkpt>
      <trkpt lat="44.51625" lon="6.46001">
        <ele>1178.172262</ele>
        <time>2026-07-27T08:30:13.000Z</time>
      </trkpt>
      <trkpt lat="44.51625" lon="6.45995">
        <ele>1178.510597</ele>
        <time>2026-07-27T08:30:15.000Z</time>
      </trkpt>
      <trkpt lat="44.51625" lon="6.45995">
        <ele>1178.510597</ele>
        <time>2026-07-27T08:30:15.000Z</time>
      </trkpt>
      <trkpt lat="44.51624" lon="6.45992">
        <ele>1178.661949</ele>
        <time>2026-07-27T08:30:16.000Z</time>
      </trkpt>
      <trkpt lat="44.51624" lon="6.4599">
        <ele>1178.821442</ele>
        <time>2026-07-27T08:30:16.000Z</time>
      </trkpt>
      <trkpt lat="44.51624" lon="6.4599">
        <ele>1178.821442</ele>
        <time>2026-07-27T08:30:16.000Z</time>
      </trkpt>
      <trkpt lat="44.51624" lon="6.45986">
        <ele>1179.022286</ele>
        <time>2026-07-27T08:30:18.000Z</time>
      </trkpt>
      <trkpt lat="44.51624" lon="6.45986">
        <ele>1179.022286</ele>
        <time>2026-07-27T08:30:18.000Z</time>
      </trkpt>
      <trkpt lat="44.51624" lon="6.45983">
        <ele>1179.200471</ele>
        <time>2026-07-27T08:30:18.000Z</time>
      </trkpt>
      <trkpt lat="44.51624" lon="6.45983">
        <ele>1179.200471</ele>
        <time>2026-07-27T08:30:18.000Z</time>
      </trkpt>
      <trkpt lat="44.51623" lon="6.4598">
        <ele>1179.40871</ele>
        <time>2026-07-27T08:30:20.000Z</time>
      </trkpt>
      <trkpt lat="44.51623" lon="6.4598">
        <ele>1179.40871</ele>
        <time>2026-07-27T08:30:20.000Z</time>
      </trkpt>
      <trkpt lat="44.51623" lon="6.45977">
        <ele>1179.600622</ele>
        <time>2026-07-27T08:30:20.000Z</time>
      </trkpt>
      <trkpt lat="44.51623" lon="6.45977">
        <ele>1179.600622</ele>
        <time>2026-07-27T08:30:20.000Z</time>
      </trkpt>
      <trkpt lat="44.51622" lon="6.45973">
        <ele>1179.827527</ele>
        <time>2026-07-27T08:30:22.000Z</time>
      </trkpt>
      <trkpt lat="44.51622" lon="6.45973">
        <ele>1179.827527</ele>
        <time>2026-07-27T08:30:22.000Z</time>
      </trkpt>
      <trkpt lat="44.51622" lon="6.4597">
        <ele>1180.004742</ele>
        <time>2026-07-27T08:30:22.000Z</time>
      </trkpt>
      <trkpt lat="44.51622" lon="6.4597">
        <ele>1180.004742</ele>
        <time>2026-07-27T08:30:22.000Z</time>
      </trkpt>
      <trkpt lat="44.51622" lon="6.45967">
        <ele>1180.199489</ele>
        <time>2026-07-27T08:30:24.000Z</time>
      </trkpt>
      <trkpt lat="44.51622" lon="6.45967">
        <ele>1180.199489</ele>
        <time>2026-07-27T08:30:24.000Z</time>
      </trkpt>
      <trkpt lat="44.51622" lon="6.45964">
        <ele>1180.358982</ele>
        <time>2026-07-27T08:30:24.000Z</time>
      </trkpt>
      <trkpt lat="44.51622" lon="6.45964">
        <ele>1180.358982</ele>
        <time>2026-07-27T08:30:24.000Z</time>
      </trkpt>
      <trkpt lat="44.51621" lon="6.45961">
        <ele>1180.568372</ele>
        <time>2026-07-27T08:30:25.000Z</time>
      </trkpt>
      <trkpt lat="44.51621" lon="6.45961">
        <ele>1180.568372</ele>
        <time>2026-07-27T08:30:25.000Z</time>
      </trkpt>
      <trkpt lat="44.51621" lon="6.45956">
        <ele>1180.823594</ele>
        <time>2026-07-27T08:30:26.000Z</time>
      </trkpt>
      <trkpt lat="44.51621" lon="6.45956">
        <ele>1180.823594</ele>
        <time>2026-07-27T08:30:26.000Z</time>
      </trkpt>
      <trkpt lat="44.51621" lon="6.45953">
        <ele>1181.038818</ele>
        <time>2026-07-27T08:30:27.000Z</time>
      </trkpt>
      <trkpt lat="44.51621" lon="6.45953">
        <ele>1181.038818</ele>
        <time>2026-07-27T08:30:27.000Z</time>
      </trkpt>
      <trkpt lat="44.5162" lon="6.45949">
        <ele>1181.277417</ele>
        <time>2026-07-27T08:30:28.000Z</time>
      </trkpt>
      <trkpt lat="44.5162" lon="6.45949">
        <ele>1181.277417</ele>
        <time>2026-07-27T08:30:28.000Z</time>
      </trkpt>
      <trkpt lat="44.51619" lon="6.45945">
        <ele>1181.50581</ele>
        <time>2026-07-27T08:30:30.000Z</time>
      </trkpt>
      <trkpt lat="44.51619" lon="6.45945">
        <ele>1181.50581</ele>
        <time>2026-07-27T08:30:30.000Z</time>
      </trkpt>
      <trkpt lat="44.51619" lon="6.45943">
        <ele>1181.647582</ele>
        <time>2026-07-27T08:30:31.000Z</time>
      </trkpt>
      <trkpt lat="44.5162" lon="6.45939">
        <ele>1181.880333</ele>
        <time>2026-07-27T08:30:31.000Z</time>
      </trkpt>
      <trkpt lat="44.5162" lon="6.45939">
        <ele>1181.880333</ele>
        <time>2026-07-27T08:30:31.000Z</time>
      </trkpt>
      <trkpt lat="44.5162" lon="6.45935">
        <ele>1182.124784</ele>
        <time>2026-07-27T08:30:33.000Z</time>
      </trkpt>
      <trkpt lat="44.5162" lon="6.45935">
        <ele>1182.124784</ele>
        <time>2026-07-27T08:30:33.000Z</time>
      </trkpt>
      <trkpt lat="44.51621" lon="6.45932">
        <ele>1182.31088</ele>
        <time>2026-07-27T08:30:33.000Z</time>
      </trkpt>
      <trkpt lat="44.51621" lon="6.45926">
        <ele>1182.619835</ele>
        <time>2026-07-27T08:30:35.000Z</time>
      </trkpt>
      <trkpt lat="44.51621" lon="6.45926">
        <ele>1182.619835</ele>
        <time>2026-07-27T08:30:35.000Z</time>
      </trkpt>
      <trkpt lat="44.51621" lon="6.45922">
        <ele>1182.8927</ele>
        <time>2026-07-27T08:30:35.000Z</time>
      </trkpt>
      <trkpt lat="44.51621" lon="6.45922">
        <ele>1182.8927</ele>
        <time>2026-07-27T08:30:35.000Z</time>
      </trkpt>
      <trkpt lat="44.51621" lon="6.45918">
        <ele>1183.128987</ele>
        <time>2026-07-27T08:30:37.000Z</time>
      </trkpt>
      <trkpt lat="44.51621" lon="6.45918">
        <ele>1183.128987</ele>
        <time>2026-07-27T08:30:37.000Z</time>
      </trkpt>
      <trkpt lat="44.51621" lon="6.45913">
        <ele>1183.382995</ele>
        <time>2026-07-27T08:30:37.000Z</time>
      </trkpt>
      <trkpt lat="44.51621" lon="6.45913">
        <ele>1183.382995</ele>
        <time>2026-07-27T08:30:37.000Z</time>
      </trkpt>
      <trkpt lat="44.51622" lon="6.45909">
        <ele>1183.645014</ele>
        <time>2026-07-27T08:30:39.000Z</time>
      </trkpt>
      <trkpt lat="44.51622" lon="6.45909">
        <ele>1183.645014</ele>
        <time>2026-07-27T08:30:39.000Z</time>
      </trkpt>
      <trkpt lat="44.51622" lon="6.45905">
        <ele>1183.875394</ele>
        <time>2026-07-27T08:30:40.000Z</time>
      </trkpt>
      <trkpt lat="44.51622" lon="6.45905">
        <ele>1183.875394</ele>
        <time>2026-07-27T08:30:40.000Z</time>
      </trkpt>
      <trkpt lat="44.51622" lon="6.45901">
        <ele>1184.115117</ele>
        <time>2026-07-27T08:30:40.000Z</time>
      </trkpt>
      <trkpt lat="44.51622" lon="6.45901">
        <ele>1184.115117</ele>
        <time>2026-07-27T08:30:40.000Z</time>
      </trkpt>
      <trkpt lat="44.51622" lon="6.45896">
        <ele>1184.404569</ele>
        <time>2026-07-27T08:30:41.000Z</time>
      </trkpt>
      <trkpt lat="44.51622" lon="6.45896">
        <ele>1184.404569</ele>
        <time>2026-07-27T08:30:41.000Z</time>
      </trkpt>
      <trkpt lat="44.51622" lon="6.45892">
        <ele>1184.676299</ele>
        <time>2026-07-27T08:30:43.000Z</time>
      </trkpt>
      <trkpt lat="44.51622" lon="6.45892">
        <ele>1184.676299</ele>
        <time>2026-07-27T08:30:43.000Z</time>
      </trkpt>
      <trkpt lat="44.51623" lon="6.45888">
        <ele>1184.921704</ele>
        <time>2026-07-27T08:30:44.000Z</time>
      </trkpt>
      <trkpt lat="44.51623" lon="6.45888">
        <ele>1184.921704</ele>
        <time>2026-07-27T08:30:44.000Z</time>
      </trkpt>
      <trkpt lat="44.51624" lon="6.45883">
        <ele>1185.197132</ele>
        <time>2026-07-27T08:30:44.000Z</time>
      </trkpt>
      <trkpt lat="44.51624" lon="6.45883">
        <ele>1185.197132</ele>
        <time>2026-07-27T08:30:44.000Z</time>
      </trkpt>
      <trkpt lat="44.51625" lon="6.45878">
        <ele>1185.494343</ele>
        <time>2026-07-27T08:30:45.000Z</time>
      </trkpt>
      <trkpt lat="44.51625" lon="6.45878">
        <ele>1185.494343</ele>
        <time>2026-07-27T08:30:45.000Z</time>
      </trkpt>
      <trkpt lat="44.51625" lon="6.45874">
        <ele>1185.777972</ele>
        <time>2026-07-27T08:30:47.000Z</time>
      </trkpt>
      <trkpt lat="44.51625" lon="6.45874">
        <ele>1185.777972</ele>
        <time>2026-07-27T08:30:47.000Z</time>
      </trkpt>
      <trkpt lat="44.51626" lon="6.45869">
        <ele>1186.051715</ele>
        <time>2026-07-27T08:30:48.000Z</time>
      </trkpt>
      <trkpt lat="44.51626" lon="6.45869">
        <ele>1186.051715</ele>
        <time>2026-07-27T08:30:48.000Z</time>
      </trkpt>
      <trkpt lat="44.51626" lon="6.45865">
        <ele>1186.280884</ele>
        <time>2026-07-27T08:30:49.000Z</time>
      </trkpt>
      <trkpt lat="44.51626" lon="6.45865">
        <ele>1186.280884</ele>
        <time>2026-07-27T08:30:49.000Z</time>
      </trkpt>
      <trkpt lat="44.51627" lon="6.45861">
        <ele>1186.802951</ele>
        <time>2026-07-27T08:30:49.000Z</time>
      </trkpt>
      <trkpt lat="44.51627" lon="6.45861">
        <ele>1186.802951</ele>
        <time>2026-07-27T08:30:49.000Z</time>
      </trkpt>
      <trkpt lat="44.51627" lon="6.45857">
        <ele>1187.286997</ele>
        <time>2026-07-27T08:30:51.000Z</time>
      </trkpt>
      <trkpt lat="44.51627" lon="6.45857">
        <ele>1187.286997</ele>
        <time>2026-07-27T08:30:51.000Z</time>
      </trkpt>
      <trkpt lat="44.51627" lon="6.45853">
        <ele>1187.695003</ele>
        <time>2026-07-27T08:30:52.000Z</time>
      </trkpt>
      <trkpt lat="44.51627" lon="6.45853">
        <ele>1187.695003</ele>
        <time>2026-07-27T08:30:52.000Z</time>
      </trkpt>
      <trkpt lat="44.51627" lon="6.45849">
        <ele>1188.17905</ele>
        <time>2026-07-27T08:30:52.000Z</time>
      </trkpt>
      <trkpt lat="44.51627" lon="6.45849">
        <ele>1188.17905</ele>
        <time>2026-07-27T08:30:52.000Z</time>
      </trkpt>
      <trkpt lat="44.51627" lon="6.45845">
        <ele>1188.595555</ele>
        <time>2026-07-27T08:30:54.000Z</time>
      </trkpt>
      <trkpt lat="44.51627" lon="6.45842">
        <ele>1188.950883</ele>
        <time>2026-07-27T08:30:54.000Z</time>
      </trkpt>
      <trkpt lat="44.51627" lon="6.45842">
        <ele>1188.950883</ele>
        <time>2026-07-27T08:30:54.000Z</time>
      </trkpt>
      <trkpt lat="44.51625" lon="6.45839">
        <ele>1189.318626</ele>
        <time>2026-07-27T08:30:56.000Z</time>
      </trkpt>
      <trkpt lat="44.51625" lon="6.45837">
        <ele>1189.559369</ele>
        <time>2026-07-27T08:30:57.000Z</time>
      </trkpt>
      <trkpt lat="44.51625" lon="6.45837">
        <ele>1189.559369</ele>
        <time>2026-07-27T08:30:57.000Z</time>
      </trkpt>
      <trkpt lat="44.51625" lon="6.45837">
        <ele>1189.559369</ele>
        <time>2026-07-27T08:30:58.000Z</time>
      </trkpt>
      <trkpt lat="44.51622" lon="6.45833">
        <ele>1190.280082</ele>
        <time>2026-07-27T08:30:58.000Z</time>
      </trkpt>
      <trkpt lat="44.51621" lon="6.45831">
        <ele>1190.500091</ele>
        <time>2026-07-27T08:31:00.000Z</time>
      </trkpt>
      <trkpt lat="44.51621" lon="6.45831">
        <ele>1190.500091</ele>
        <time>2026-07-27T08:31:00.000Z</time>
      </trkpt>
      <trkpt lat="44.51619" lon="6.45831">
        <ele>1190.741138</ele>
        <time>2026-07-27T08:31:00.000Z</time>
      </trkpt>
      <trkpt lat="44.51619" lon="6.45831">
        <ele>1190.741138</ele>
        <time>2026-07-27T08:31:02.000Z</time>
      </trkpt>
      <trkpt lat="44.51619" lon="6.45831">
        <ele>1190.741138</ele>
        <time>2026-07-27T08:31:05.000Z</time>
      </trkpt>
      <trkpt lat="44.51619" lon="6.45831">
        <ele>1190.741138</ele>
        <time>2026-07-27T08:31:09.000Z</time>
      </trkpt>
      <trkpt lat="44.51619" lon="6.45831">
        <ele>1190.741138</ele>
        <time>2026-07-27T08:31:13.000Z</time>
      </trkpt>
      <trkpt lat="44.51617" lon="6.45829">
        <ele>1191.162548</ele>
        <time>2026-07-27T08:31:13.000Z</time>
      </trkpt>
      <trkpt lat="44.51617" lon="6.45829">
        <ele>1191.162548</ele>
        <time>2026-07-27T08:31:16.000Z</time>
      </trkpt>
      <trkpt lat="44.51614" lon="6.4583">
        <ele>1191.54996</ele>
        <time>2026-07-27T08:31:16.000Z</time>
      </trkpt>
      <trkpt lat="44.51613" lon="6.45832">
        <ele>1191.918357</ele>
        <time>2026-07-27T08:31:17.000Z</time>
      </trkpt>
      <trkpt lat="44.51611" lon="6.45834">
        <ele>1192.25719</ele>
        <time>2026-07-27T08:31:18.000Z</time>
      </trkpt>
      <trkpt lat="44.51611" lon="6.45834">
        <ele>1192.25719</ele>
        <time>2026-07-27T08:31:18.000Z</time>
      </trkpt>
      <trkpt lat="44.51609" lon="6.45835">
        <ele>1192.581009</ele>
        <time>2026-07-27T08:31:20.000Z</time>
      </trkpt>
      <trkpt lat="44.51609" lon="6.45835">
        <ele>1192.581009</ele>
        <time>2026-07-27T08:31:20.000Z</time>
      </trkpt>
      <trkpt lat="44.51607" lon="6.45837">
        <ele>1192.914756</ele>
        <time>2026-07-27T08:31:20.000Z</time>
      </trkpt>
      <trkpt lat="44.51605" lon="6.45838">
        <ele>1193.243721</ele>
        <time>2026-07-27T08:31:21.000Z</time>
      </trkpt>
      <trkpt lat="44.51605" lon="6.45838">
        <ele>1193.243721</ele>
        <time>2026-07-27T08:31:21.000Z</time>
      </trkpt>
      <trkpt lat="44.51603" lon="6.45839">
        <ele>1193.639547</ele>
        <time>2026-07-27T08:31:22.000Z</time>
      </trkpt>
      <trkpt lat="44.51603" lon="6.45839">
        <ele>1193.639547</ele>
        <time>2026-07-27T08:31:22.000Z</time>
      </trkpt>
      <trkpt lat="44.51601" lon="6.45841">
        <ele>1193.923999</ele>
        <time>2026-07-27T08:31:24.000Z</time>
      </trkpt>
      <trkpt lat="44.51601" lon="6.45841">
        <ele>1193.923999</ele>
        <time>2026-07-27T08:31:24.000Z</time>
      </trkpt>
      <trkpt lat="44.516" lon="6.45843">
        <ele>1194.292396</ele>
        <time>2026-07-27T08:31:24.000Z</time>
      </trkpt>
      <trkpt lat="44.516" lon="6.45843">
        <ele>1194.292396</ele>
        <time>2026-07-27T08:31:24.000Z</time>
      </trkpt>
      <trkpt lat="44.51598" lon="6.45844">
        <ele>1194.604058</ele>
        <time>2026-07-27T08:31:25.000Z</time>
      </trkpt>
      <trkpt lat="44.51598" lon="6.45844">
        <ele>1194.604058</ele>
        <time>2026-07-27T08:31:25.000Z</time>
      </trkpt>
      <trkpt lat="44.51596" lon="6.45847">
        <ele>1195.07043</ele>
        <time>2026-07-27T08:31:26.000Z</time>
      </trkpt>
      <trkpt lat="44.51596" lon="6.45847">
        <ele>1195.07043</ele>
        <time>2026-07-27T08:31:26.000Z</time>
      </trkpt>
      <trkpt lat="44.51594" lon="6.4585">
        <ele>1195.510967</ele>
        <time>2026-07-27T08:31:28.000Z</time>
      </trkpt>
      <trkpt lat="44.51594" lon="6.4585">
        <ele>1195.510967</ele>
        <time>2026-07-27T08:31:28.000Z</time>
      </trkpt>
      <trkpt lat="44.51592" lon="6.45853">
        <ele>1195.962651</ele>
        <time>2026-07-27T08:31:28.000Z</time>
      </trkpt>
      <trkpt lat="44.51592" lon="6.45853">
        <ele>1195.962651</ele>
        <time>2026-07-27T08:31:28.000Z</time>
      </trkpt>
      <trkpt lat="44.51591" lon="6.45857">
        <ele>1196.420218</ele>
        <time>2026-07-27T08:31:30.000Z</time>
      </trkpt>
      <trkpt lat="44.51591" lon="6.45857">
        <ele>1196.420218</ele>
        <time>2026-07-27T08:31:30.000Z</time>
      </trkpt>
      <trkpt lat="44.5159" lon="6.4586">
        <ele>1196.870288</ele>
        <time>2026-07-27T08:31:31.000Z</time>
      </trkpt>
      <trkpt lat="44.5159" lon="6.4586">
        <ele>1196.870288</ele>
        <time>2026-07-27T08:31:31.000Z</time>
      </trkpt>
      <trkpt lat="44.51588" lon="6.45864">
        <ele>1197.277289</ele>
        <time>2026-07-27T08:31:32.000Z</time>
      </trkpt>
      <trkpt lat="44.51588" lon="6.45864">
        <ele>1197.277289</ele>
        <time>2026-07-27T08:31:32.000Z</time>
      </trkpt>
      <trkpt lat="44.51588" lon="6.45866">
        <ele>1197.558796</ele>
        <time>2026-07-27T08:31:32.000Z</time>
      </trkpt>
      <trkpt lat="44.51588" lon="6.45866">
        <ele>1197.558796</ele>
        <time>2026-07-27T08:31:32.000Z</time>
      </trkpt>
      <trkpt lat="44.51587" lon="6.45868">
        <ele>1197.888765</ele>
        <time>2026-07-27T08:31:34.000Z</time>
      </trkpt>
      <trkpt lat="44.51587" lon="6.45868">
        <ele>1197.888765</ele>
        <time>2026-07-27T08:31:34.000Z</time>
      </trkpt>
      <trkpt lat="44.51585" lon="6.45871">
        <ele>1198.20993</ele>
        <time>2026-07-27T08:31:34.000Z</time>
      </trkpt>
      <trkpt lat="44.51585" lon="6.45871">
        <ele>1198.20993</ele>
        <time>2026-07-27T08:31:34.000Z</time>
      </trkpt>
      <trkpt lat="44.51584" lon="6.45872">
        <ele>1198.487321</ele>
        <time>2026-07-27T08:31:35.000Z</time>
      </trkpt>
      <trkpt lat="44.51584" lon="6.45872">
        <ele>1198.487321</ele>
        <time>2026-07-27T08:31:35.000Z</time>
      </trkpt>
      <trkpt lat="44.51583" lon="6.45874">
        <ele>1198.762824</ele>
        <time>2026-07-27T08:31:37.000Z</time>
      </trkpt>
      <trkpt lat="44.51583" lon="6.45874">
        <ele>1198.762824</ele>
        <time>2026-07-27T08:31:37.000Z</time>
      </trkpt>
      <trkpt lat="44.51583" lon="6.45877">
        <ele>1199.040273</ele>
        <time>2026-07-27T08:31:37.000Z</time>
      </trkpt>
      <trkpt lat="44.51583" lon="6.45877">
        <ele>1199.040273</ele>
        <time>2026-07-27T08:31:37.000Z</time>
      </trkpt>
      <trkpt lat="44.51581" lon="6.4588">
        <ele>1199.462</ele>
        <time>2026-07-27T08:31:38.000Z</time>
      </trkpt>
      <trkpt lat="44.51581" lon="6.4588">
        <ele>1199.462</ele>
        <time>2026-07-27T08:31:38.000Z</time>
      </trkpt>
      <trkpt lat="44.5158" lon="6.45884">
        <ele>1199.970751</ele>
        <time>2026-07-27T08:31:39.000Z</time>
      </trkpt>
      <trkpt lat="44.5158" lon="6.45884">
        <ele>1199.970751</ele>
        <time>2026-07-27T08:31:39.000Z</time>
      </trkpt>
      <trkpt lat="44.51578" lon="6.45887">
        <ele>1200.429325</ele>
        <time>2026-07-27T08:31:40.000Z</time>
      </trkpt>
      <trkpt lat="44.51578" lon="6.45887">
        <ele>1200.429325</ele>
        <time>2026-07-27T08:31:40.000Z</time>
      </trkpt>
      <trkpt lat="44.51577" lon="6.45891">
        <ele>1200.889008</ele>
        <time>2026-07-27T08:31:41.000Z</time>
      </trkpt>
      <trkpt lat="44.51577" lon="6.45891">
        <ele>1200.889008</ele>
        <time>2026-07-27T08:31:41.000Z</time>
      </trkpt>
      <trkpt lat="44.51575" lon="6.45893">
        <ele>1201.300312</ele>
        <time>2026-07-27T08:31:42.000Z</time>
      </trkpt>
      <trkpt lat="44.51575" lon="6.45893">
        <ele>1201.300312</ele>
        <time>2026-07-27T08:31:42.000Z</time>
      </trkpt>
      <trkpt lat="44.51572" lon="6.45896">
        <ele>1201.811782</ele>
        <time>2026-07-27T08:31:43.000Z</time>
      </trkpt>
      <trkpt lat="44.51572" lon="6.45896">
        <ele>1201.811782</ele>
        <time>2026-07-27T08:31:43.000Z</time>
      </trkpt>
      <trkpt lat="44.51571" lon="6.45898">
        <ele>1202.116246</ele>
        <time>2026-07-27T08:31:45.000Z</time>
      </trkpt>
      <trkpt lat="44.51571" lon="6.45898">
        <ele>1202.116246</ele>
        <time>2026-07-27T08:31:45.000Z</time>
      </trkpt>
      <trkpt lat="44.51568" lon="6.45899">
        <ele>1202.551903</ele>
        <time>2026-07-27T08:31:45.000Z</time>
      </trkpt>
      <trkpt lat="44.51568" lon="6.45899">
        <ele>1202.551903</ele>
        <time>2026-07-27T08:31:45.000Z</time>
      </trkpt>
      <trkpt lat="44.51566" lon="6.45899">
        <ele>1202.915699</ele>
        <time>2026-07-27T08:31:46.000Z</time>
      </trkpt>
      <trkpt lat="44.51566" lon="6.45899">
        <ele>1202.915699</ele>
        <time>2026-07-27T08:31:46.000Z</time>
      </trkpt>
      <trkpt lat="44.51563" lon="6.459">
        <ele>1203.39264</ele>
        <time>2026-07-27T08:31:47.000Z</time>
      </trkpt>
      <trkpt lat="44.51563" lon="6.459">
        <ele>1203.39264</ele>
        <time>2026-07-27T08:31:47.000Z</time>
      </trkpt>
      <trkpt lat="44.5156" lon="6.459">
        <ele>1203.818887</ele>
        <time>2026-07-27T08:31:48.000Z</time>
      </trkpt>
      <trkpt lat="44.5156" lon="6.459">
        <ele>1203.818887</ele>
        <time>2026-07-27T08:31:48.000Z</time>
      </trkpt>
      <trkpt lat="44.51558" lon="6.45901">
        <ele>1204.266027</ele>
        <time>2026-07-27T08:31:49.000Z</time>
      </trkpt>
      <trkpt lat="44.51558" lon="6.45901">
        <ele>1204.266027</ele>
        <time>2026-07-27T08:31:49.000Z</time>
      </trkpt>
      <trkpt lat="44.51555" lon="6.45902">
        <ele>1204.642996</ele>
        <time>2026-07-27T08:31:50.000Z</time>
      </trkpt>
      <trkpt lat="44.51555" lon="6.45902">
        <ele>1204.642996</ele>
        <time>2026-07-27T08:31:50.000Z</time>
      </trkpt>
      <trkpt lat="44.51553" lon="6.45902">
        <ele>1204.953126</ele>
        <time>2026-07-27T08:31:51.000Z</time>
      </trkpt>
      <trkpt lat="44.51553" lon="6.45902">
        <ele>1204.953126</ele>
        <time>2026-07-27T08:31:51.000Z</time>
      </trkpt>
      <trkpt lat="44.51551" lon="6.45903">
        <ele>1205.373349</ele>
        <time>2026-07-27T08:31:53.000Z</time>
      </trkpt>
      <trkpt lat="44.51551" lon="6.45903">
        <ele>1205.373349</ele>
        <time>2026-07-27T08:31:53.000Z</time>
      </trkpt>
      <trkpt lat="44.51549" lon="6.45904">
        <ele>1205.675196</ele>
        <time>2026-07-27T08:31:53.000Z</time>
      </trkpt>
      <trkpt lat="44.51549" lon="6.45904">
        <ele>1205.675196</ele>
        <time>2026-07-27T08:31:53.000Z</time>
      </trkpt>
      <trkpt lat="44.51546" lon="6.45904">
        <ele>1206.102037</ele>
        <time>2026-07-27T08:31:54.000Z</time>
      </trkpt>
      <trkpt lat="44.51546" lon="6.45904">
        <ele>1206.102037</ele>
        <time>2026-07-27T08:31:54.000Z</time>
      </trkpt>
      <trkpt lat="44.51543" lon="6.45903">
        <ele>1206.52962</ele>
        <time>2026-07-27T08:31:55.000Z</time>
      </trkpt>
      <trkpt lat="44.51543" lon="6.45903">
        <ele>1206.52962</ele>
        <time>2026-07-27T08:31:55.000Z</time>
      </trkpt>
      <trkpt lat="44.51541" lon="6.45903">
        <ele>1206.940235</ele>
        <time>2026-07-27T08:31:56.000Z</time>
      </trkpt>
      <trkpt lat="44.51541" lon="6.45903">
        <ele>1206.940235</ele>
        <time>2026-07-27T08:31:56.000Z</time>
      </trkpt>
      <trkpt lat="44.51539" lon="6.45903">
        <ele>1207.257774</ele>
        <time>2026-07-27T08:31:57.000Z</time>
      </trkpt>
      <trkpt lat="44.51539" lon="6.45903">
        <ele>1207.257774</ele>
        <time>2026-07-27T08:31:57.000Z</time>
      </trkpt>
      <trkpt lat="44.51538" lon="6.45902">
        <ele>1207.453393</ele>
        <time>2026-07-27T08:31:58.000Z</time>
      </trkpt>
      <trkpt lat="44.51535" lon="6.45901">
        <ele>1207.844873</ele>
        <time>2026-07-27T08:32:00.000Z</time>
      </trkpt>
      <trkpt lat="44.51535" lon="6.45901">
        <ele>1207.844873</ele>
        <time>2026-07-27T08:32:00.000Z</time>
      </trkpt>
      <trkpt lat="44.51534" lon="6.459">
        <ele>1208.098224</ele>
        <time>2026-07-27T08:32:01.000Z</time>
      </trkpt>
      <trkpt lat="44.51534" lon="6.459">
        <ele>1208.098224</ele>
        <time>2026-07-27T08:32:01.000Z</time>
      </trkpt>
      <trkpt lat="44.51532" lon="6.45899">
        <ele>1208.35579</ele>
        <time>2026-07-27T08:32:01.000Z</time>
      </trkpt>
      <trkpt lat="44.51532" lon="6.45899">
        <ele>1208.35579</ele>
        <time>2026-07-27T08:32:01.000Z</time>
      </trkpt>
      <trkpt lat="44.51532" lon="6.45899">
        <ele>1208.482586</ele>
        <time>2026-07-27T08:32:02.000Z</time>
      </trkpt>
      <trkpt lat="44.51531" lon="6.45899">
        <ele>1208.668915</ele>
        <time>2026-07-27T08:32:04.000Z</time>
      </trkpt>
      <trkpt lat="44.51529" lon="6.45899">
        <ele>1208.927701</ele>
        <time>2026-07-27T08:32:04.000Z</time>
      </trkpt>
      <trkpt lat="44.51529" lon="6.45899">
        <ele>1208.927701</ele>
        <time>2026-07-27T08:32:04.000Z</time>
      </trkpt>
      <trkpt lat="44.51527" lon="6.459">
        <ele>1209.171102</ele>
        <time>2026-07-27T08:32:05.000Z</time>
      </trkpt>
      <trkpt lat="44.51527" lon="6.459">
        <ele>1209.171102</ele>
        <time>2026-07-27T08:32:05.000Z</time>
      </trkpt>
      <trkpt lat="44.51526" lon="6.45901">
        <ele>1209.491482</ele>
        <time>2026-07-27T08:32:06.000Z</time>
      </trkpt>
      <trkpt lat="44.51526" lon="6.45901">
        <ele>1209.491482</ele>
        <time>2026-07-27T08:32:06.000Z</time>
      </trkpt>
      <trkpt lat="44.51524" lon="6.45901">
        <ele>1209.732529</ele>
        <time>2026-07-27T08:32:07.000Z</time>
      </trkpt>
      <trkpt lat="44.51524" lon="6.45901">
        <ele>1209.732529</ele>
        <time>2026-07-27T08:32:07.000Z</time>
      </trkpt>
      <trkpt lat="44.51522" lon="6.45902">
        <ele>1210.042659</ele>
        <time>2026-07-27T08:32:09.000Z</time>
      </trkpt>
      <trkpt lat="44.51522" lon="6.45902">
        <ele>1210.042659</ele>
        <time>2026-07-27T08:32:09.000Z</time>
      </trkpt>
      <trkpt lat="44.5152" lon="6.45902">
        <ele>1210.347846</ele>
        <time>2026-07-27T08:32:09.000Z</time>
      </trkpt>
      <trkpt lat="44.5152" lon="6.45902">
        <ele>1210.347846</ele>
        <time>2026-07-27T08:32:09.000Z</time>
      </trkpt>
      <trkpt lat="44.51518" lon="6.45903">
        <ele>1210.653033</ele>
        <time>2026-07-27T08:32:11.000Z</time>
      </trkpt>
      <trkpt lat="44.51518" lon="6.45903">
        <ele>1210.653033</ele>
        <time>2026-07-27T08:32:11.000Z</time>
      </trkpt>
      <trkpt lat="44.51515" lon="6.45904">
        <ele>1211.155207</ele>
        <time>2026-07-27T08:32:11.000Z</time>
      </trkpt>
      <trkpt lat="44.51515" lon="6.45904">
        <ele>1211.155207</ele>
        <time>2026-07-27T08:32:11.000Z</time>
      </trkpt>
      <trkpt lat="44.51512" lon="6.45905">
        <ele>1211.660025</ele>
        <time>2026-07-27T08:32:12.000Z</time>
      </trkpt>
      <trkpt lat="44.51512" lon="6.45905">
        <ele>1211.660025</ele>
        <time>2026-07-27T08:32:12.000Z</time>
      </trkpt>
      <trkpt lat="44.51508" lon="6.45906">
        <ele>1212.385353</ele>
        <time>2026-07-27T08:32:13.000Z</time>
      </trkpt>
      <trkpt lat="44.51508" lon="6.45906">
        <ele>1212.385353</ele>
        <time>2026-07-27T08:32:13.000Z</time>
      </trkpt>
      <trkpt lat="44.51504" lon="6.45907">
        <ele>1212.954169</ele>
        <time>2026-07-27T08:32:15.000Z</time>
      </trkpt>
      <trkpt lat="44.51504" lon="6.45907">
        <ele>1212.954169</ele>
        <time>2026-07-27T08:32:15.000Z</time>
      </trkpt>
      <trkpt lat="44.51501" lon="6.45908">
        <ele>1213.505023</ele>
        <time>2026-07-27T08:32:15.000Z</time>
      </trkpt>
      <trkpt lat="44.51501" lon="6.45908">
        <ele>1213.505023</ele>
        <time>2026-07-27T08:32:15.000Z</time>
      </trkpt>
      <trkpt lat="44.51498" lon="6.45909">
        <ele>1214.007198</ele>
        <time>2026-07-27T08:32:17.000Z</time>
      </trkpt>
      <trkpt lat="44.51498" lon="6.45909">
        <ele>1214.007198</ele>
        <time>2026-07-27T08:32:17.000Z</time>
      </trkpt>
      <trkpt lat="44.51495" lon="6.4591">
        <ele>1214.496726</ele>
        <time>2026-07-27T08:32:17.000Z</time>
      </trkpt>
      <trkpt lat="44.51495" lon="6.4591">
        <ele>1214.496726</ele>
        <time>2026-07-27T08:32:17.000Z</time>
      </trkpt>
      <trkpt lat="44.51492" lon="6.45912">
        <ele>1214.897725</ele>
        <time>2026-07-27T08:32:19.000Z</time>
      </trkpt>
      <trkpt lat="44.51492" lon="6.45912">
        <ele>1214.897725</ele>
        <time>2026-07-27T08:32:19.000Z</time>
      </trkpt>
      <trkpt lat="44.51489" lon="6.45913">
        <ele>1215.152597</ele>
        <time>2026-07-27T08:32:19.000Z</time>
      </trkpt>
      <trkpt lat="44.51489" lon="6.45913">
        <ele>1215.152597</ele>
        <time>2026-07-27T08:32:19.000Z</time>
      </trkpt>
      <trkpt lat="44.51487" lon="6.45914">
        <ele>1215.466721</ele>
        <time>2026-07-27T08:32:20.000Z</time>
      </trkpt>
      <trkpt lat="44.51487" lon="6.45914">
        <ele>1215.466721</ele>
        <time>2026-07-27T08:32:20.000Z</time>
      </trkpt>
      <trkpt lat="44.51484" lon="6.45914">
        <ele>1215.80509</ele>
        <time>2026-07-27T08:32:21.000Z</time>
      </trkpt>
      <trkpt lat="44.51484" lon="6.45914">
        <ele>1215.80509</ele>
        <time>2026-07-27T08:32:21.000Z</time>
      </trkpt>
      <trkpt lat="44.51481" lon="6.45914">
        <ele>1216.091463</ele>
        <time>2026-07-27T08:32:22.000Z</time>
      </trkpt>
      <trkpt lat="44.51481" lon="6.45914">
        <ele>1216.091463</ele>
        <time>2026-07-27T08:32:22.000Z</time>
      </trkpt>
      <trkpt lat="44.51479" lon="6.45913">
        <ele>1216.35423</ele>
        <time>2026-07-27T08:32:24.000Z</time>
      </trkpt>
      <trkpt lat="44.51479" lon="6.45913">
        <ele>1216.35423</ele>
        <time>2026-07-27T08:32:24.000Z</time>
      </trkpt>
      <trkpt lat="44.51477" lon="6.45912">
        <ele>1216.568598</ele>
        <time>2026-07-27T08:32:25.000Z</time>
      </trkpt>
      <trkpt lat="44.51477" lon="6.45912">
        <ele>1216.568598</ele>
        <time>2026-07-27T08:32:25.000Z</time>
      </trkpt>
      <trkpt lat="44.51475" lon="6.45911">
        <ele>1216.782966</ele>
        <time>2026-07-27T08:32:26.000Z</time>
      </trkpt>
      <trkpt lat="44.51475" lon="6.45911">
        <ele>1216.782966</ele>
        <time>2026-07-27T08:32:26.000Z</time>
      </trkpt>
      <trkpt lat="44.51472" lon="6.4591">
        <ele>1217.082589</ele>
        <time>2026-07-27T08:32:26.000Z</time>
      </trkpt>
      <trkpt lat="44.51472" lon="6.4591">
        <ele>1217.082589</ele>
        <time>2026-07-27T08:32:26.000Z</time>
      </trkpt>
      <trkpt lat="44.5147" lon="6.4591">
        <ele>1217.334052</ele>
        <time>2026-07-27T08:32:27.000Z</time>
      </trkpt>
      <trkpt lat="44.5147" lon="6.4591">
        <ele>1217.334052</ele>
        <time>2026-07-27T08:32:27.000Z</time>
      </trkpt>
      <trkpt lat="44.51467" lon="6.4591">
        <ele>1217.63124</ele>
        <time>2026-07-27T08:32:28.000Z</time>
      </trkpt>
      <trkpt lat="44.51467" lon="6.4591">
        <ele>1217.63124</ele>
        <time>2026-07-27T08:32:28.000Z</time>
      </trkpt>
      <trkpt lat="44.51465" lon="6.45909">
        <ele>1217.916661</ele>
        <time>2026-07-27T08:32:30.000Z</time>
      </trkpt>
      <trkpt lat="44.51465" lon="6.45909">
        <ele>1217.916661</ele>
        <time>2026-07-27T08:32:30.000Z</time>
      </trkpt>
      <trkpt lat="44.51463" lon="6.45909">
        <ele>1218.124139</ele>
        <time>2026-07-27T08:32:31.000Z</time>
      </trkpt>
      <trkpt lat="44.51463" lon="6.45909">
        <ele>1218.124139</ele>
        <time>2026-07-27T08:32:31.000Z</time>
      </trkpt>
      <trkpt lat="44.5146" lon="6.4591">
        <ele>1218.463223</ele>
        <time>2026-07-27T08:32:31.000Z</time>
      </trkpt>
      <trkpt lat="44.5146" lon="6.4591">
        <ele>1218.463223</ele>
        <time>2026-07-27T08:32:31.000Z</time>
      </trkpt>
      <trkpt lat="44.51457" lon="6.4591">
        <ele>1218.795091</ele>
        <time>2026-07-27T08:32:32.000Z</time>
      </trkpt>
      <trkpt lat="44.51457" lon="6.4591">
        <ele>1218.795091</ele>
        <time>2026-07-27T08:32:32.000Z</time>
      </trkpt>
      <trkpt lat="44.51454" lon="6.45911">
        <ele>1219.094714</ele>
        <time>2026-07-27T08:32:33.000Z</time>
      </trkpt>
      <trkpt lat="44.51454" lon="6.45911">
        <ele>1219.094714</ele>
        <time>2026-07-27T08:32:33.000Z</time>
      </trkpt>
      <trkpt lat="44.51451" lon="6.45912">
        <ele>1219.438673</ele>
        <time>2026-07-27T08:32:35.000Z</time>
      </trkpt>
      <trkpt lat="44.51451" lon="6.45912">
        <ele>1219.438673</ele>
        <time>2026-07-27T08:32:35.000Z</time>
      </trkpt>
      <trkpt lat="44.51448" lon="6.45913">
        <ele>1219.732868</ele>
        <time>2026-07-27T08:32:36.000Z</time>
      </trkpt>
      <trkpt lat="44.51448" lon="6.45913">
        <ele>1219.732868</ele>
        <time>2026-07-27T08:32:36.000Z</time>
      </trkpt>
      <trkpt lat="44.51446" lon="6.45914">
        <ele>1220.000656</ele>
        <time>2026-07-27T08:32:36.000Z</time>
      </trkpt>
      <trkpt lat="44.51446" lon="6.45914">
        <ele>1220.000656</ele>
        <time>2026-07-27T08:32:36.000Z</time>
      </trkpt>
      <trkpt lat="44.51444" lon="6.45915">
        <ele>1220.219497</ele>
        <time>2026-07-27T08:32:38.000Z</time>
      </trkpt>
      <trkpt lat="44.51444" lon="6.45915">
        <ele>1220.219497</ele>
        <time>2026-07-27T08:32:38.000Z</time>
      </trkpt>
      <trkpt lat="44.51441" lon="6.45916">
        <ele>1220.572577</ele>
        <time>2026-07-27T08:32:39.000Z</time>
      </trkpt>
      <trkpt lat="44.51441" lon="6.45916">
        <ele>1220.572577</ele>
        <time>2026-07-27T08:32:39.000Z</time>
      </trkpt>
      <trkpt lat="44.51438" lon="6.45917">
        <ele>1220.910948</ele>
        <time>2026-07-27T08:32:40.000Z</time>
      </trkpt>
      <trkpt lat="44.51438" lon="6.45917">
        <ele>1220.910948</ele>
        <time>2026-07-27T08:32:40.000Z</time>
      </trkpt>
      <trkpt lat="44.51434" lon="6.45918">
        <ele>1221.296741</ele>
        <time>2026-07-27T08:32:41.000Z</time>
      </trkpt>
      <trkpt lat="44.51434" lon="6.45918">
        <ele>1221.296741</ele>
        <time>2026-07-27T08:32:41.000Z</time>
      </trkpt>
      <trkpt lat="44.51431" lon="6.45918">
        <ele>1221.624478</ele>
        <time>2026-07-27T08:32:42.000Z</time>
      </trkpt>
      <trkpt lat="44.51431" lon="6.45918">
        <ele>1221.624478</ele>
        <time>2026-07-27T08:32:42.000Z</time>
      </trkpt>
      <trkpt lat="44.51428" lon="6.45919">
        <ele>1222.008383</ele>
        <time>2026-07-27T08:32:43.000Z</time>
      </trkpt>
      <trkpt lat="44.51428" lon="6.45919">
        <ele>1222.008383</ele>
        <time>2026-07-27T08:32:43.000Z</time>
      </trkpt>
      <trkpt lat="44.51426" lon="6.4592">
        <ele>1222.258458</ele>
        <time>2026-07-27T08:32:44.000Z</time>
      </trkpt>
      <trkpt lat="44.51426" lon="6.4592">
        <ele>1222.258458</ele>
        <time>2026-07-27T08:32:44.000Z</time>
      </trkpt>
      <trkpt lat="44.51423" lon="6.4592">
        <ele>1222.558081</ele>
        <time>2026-07-27T08:32:44.000Z</time>
      </trkpt>
      <trkpt lat="44.51423" lon="6.4592">
        <ele>1222.558081</ele>
        <time>2026-07-27T08:32:44.000Z</time>
      </trkpt>
      <trkpt lat="44.51421" lon="6.4592">
        <ele>1222.767737</ele>
        <time>2026-07-27T08:32:46.000Z</time>
      </trkpt>
      <trkpt lat="44.51421" lon="6.4592">
        <ele>1222.767737</ele>
        <time>2026-07-27T08:32:46.000Z</time>
      </trkpt>
      <trkpt lat="44.51418" lon="6.4592">
        <ele>1223.106374</ele>
        <time>2026-07-27T08:32:47.000Z</time>
      </trkpt>
      <trkpt lat="44.51418" lon="6.4592">
        <ele>1223.106374</ele>
        <time>2026-07-27T08:32:47.000Z</time>
      </trkpt>
      <trkpt lat="44.51415" lon="6.4592">
        <ele>1223.391051</ele>
        <time>2026-07-27T08:32:47.000Z</time>
      </trkpt>
      <trkpt lat="44.51415" lon="6.4592">
        <ele>1223.391051</ele>
        <time>2026-07-27T08:32:47.000Z</time>
      </trkpt>
      <trkpt lat="44.51412" lon="6.45919">
        <ele>1223.730135</ele>
        <time>2026-07-27T08:32:49.000Z</time>
      </trkpt>
      <trkpt lat="44.51412" lon="6.45919">
        <ele>1223.730135</ele>
        <time>2026-07-27T08:32:49.000Z</time>
      </trkpt>
      <trkpt lat="44.51409" lon="6.45919">
        <ele>1224.057502</ele>
        <time>2026-07-27T08:32:50.000Z</time>
      </trkpt>
      <trkpt lat="44.51409" lon="6.45919">
        <ele>1224.057502</ele>
        <time>2026-07-27T08:32:50.000Z</time>
      </trkpt>
      <trkpt lat="44.51406" lon="6.45919">
        <ele>1224.398988</ele>
        <time>2026-07-27T08:32:51.000Z</time>
      </trkpt>
      <trkpt lat="44.51406" lon="6.45919">
        <ele>1224.398988</ele>
        <time>2026-07-27T08:32:51.000Z</time>
      </trkpt>
      <trkpt lat="44.51403" lon="6.45918">
        <ele>1224.696176</ele>
        <time>2026-07-27T08:32:52.000Z</time>
      </trkpt>
      <trkpt lat="44.51403" lon="6.45918">
        <ele>1224.696176</ele>
        <time>2026-07-27T08:32:52.000Z</time>
      </trkpt>
      <trkpt lat="44.514" lon="6.45918">
        <ele>1225.068496</ele>
        <time>2026-07-27T08:32:53.000Z</time>
      </trkpt>
      <trkpt lat="44.514" lon="6.45918">
        <ele>1225.068496</ele>
        <time>2026-07-27T08:32:53.000Z</time>
      </trkpt>
      <trkpt lat="44.51396" lon="6.45917">
        <ele>1225.484327</ele>
        <time>2026-07-27T08:32:54.000Z</time>
      </trkpt>
      <trkpt lat="44.51396" lon="6.45917">
        <ele>1225.484327</ele>
        <time>2026-07-27T08:32:54.000Z</time>
      </trkpt>
      <trkpt lat="44.51393" lon="6.45916">
        <ele>1225.831441</ele>
        <time>2026-07-27T08:32:55.000Z</time>
      </trkpt>
      <trkpt lat="44.51393" lon="6.45916">
        <ele>1225.831441</ele>
        <time>2026-07-27T08:32:55.000Z</time>
      </trkpt>
      <trkpt lat="44.5139" lon="6.45915">
        <ele>1226.222789</ele>
        <time>2026-07-27T08:32:56.000Z</time>
      </trkpt>
      <trkpt lat="44.5139" lon="6.45915">
        <ele>1226.222789</ele>
        <time>2026-07-27T08:32:56.000Z</time>
      </trkpt>
      <trkpt lat="44.51387" lon="6.45913">
        <ele>1226.499583</ele>
        <time>2026-07-27T08:32:57.000Z</time>
      </trkpt>
      <trkpt lat="44.51387" lon="6.45913">
        <ele>1226.499583</ele>
        <time>2026-07-27T08:32:57.000Z</time>
      </trkpt>
      <trkpt lat="44.51385" lon="6.45912">
        <ele>1226.813709</ele>
        <time>2026-07-27T08:32:58.000Z</time>
      </trkpt>
      <trkpt lat="44.51385" lon="6.45912">
        <ele>1226.813709</ele>
        <time>2026-07-27T08:32:58.000Z</time>
      </trkpt>
      <trkpt lat="44.51382" lon="6.45911">
        <ele>1227.114921</ele>
        <time>2026-07-27T08:32:59.000Z</time>
      </trkpt>
      <trkpt lat="44.51382" lon="6.45911">
        <ele>1227.114921</ele>
        <time>2026-07-27T08:32:59.000Z</time>
      </trkpt>
      <trkpt lat="44.51378" lon="6.45909">
        <ele>1227.556214</ele>
        <time>2026-07-27T08:33:00.000Z</time>
      </trkpt>
      <trkpt lat="44.51378" lon="6.45909">
        <ele>1227.556214</ele>
        <time>2026-07-27T08:33:00.000Z</time>
      </trkpt>
      <trkpt lat="44.51374" lon="6.45907">
        <ele>1227.989166</ele>
        <time>2026-07-27T08:33:01.000Z</time>
      </trkpt>
      <trkpt lat="44.51374" lon="6.45907">
        <ele>1227.989166</ele>
        <time>2026-07-27T08:33:01.000Z</time>
      </trkpt>
      <trkpt lat="44.51371" lon="6.45906">
        <ele>1228.411069</ele>
        <time>2026-07-27T08:33:02.000Z</time>
      </trkpt>
      <trkpt lat="44.51371" lon="6.45906">
        <ele>1228.411069</ele>
        <time>2026-07-27T08:33:02.000Z</time>
      </trkpt>
      <trkpt lat="44.51367" lon="6.45906">
        <ele>1228.782166</ele>
        <time>2026-07-27T08:33:03.000Z</time>
      </trkpt>
      <trkpt lat="44.51367" lon="6.45906">
        <ele>1228.782166</ele>
        <time>2026-07-27T08:33:03.000Z</time>
      </trkpt>
      <trkpt lat="44.51363" lon="6.45907">
        <ele>1229.204069</ele>
        <time>2026-07-27T08:33:04.000Z</time>
      </trkpt>
      <trkpt lat="44.51363" lon="6.45907">
        <ele>1229.204069</ele>
        <time>2026-07-27T08:33:04.000Z</time>
      </trkpt>
      <trkpt lat="44.51359" lon="6.45909">
        <ele>1229.675153</ele>
        <time>2026-07-27T08:33:05.000Z</time>
      </trkpt>
      <trkpt lat="44.51359" lon="6.45909">
        <ele>1229.675153</ele>
        <time>2026-07-27T08:33:05.000Z</time>
      </trkpt>
      <trkpt lat="44.51356" lon="6.45911">
        <ele>1230.093692</ele>
        <time>2026-07-27T08:33:06.000Z</time>
      </trkpt>
      <trkpt lat="44.51356" lon="6.45911">
        <ele>1230.093692</ele>
        <time>2026-07-27T08:33:06.000Z</time>
      </trkpt>
      <trkpt lat="44.51352" lon="6.45913">
        <ele>1230.496026</ele>
        <time>2026-07-27T08:33:07.000Z</time>
      </trkpt>
      <trkpt lat="44.51352" lon="6.45913">
        <ele>1230.496026</ele>
        <time>2026-07-27T08:33:07.000Z</time>
      </trkpt>
      <trkpt lat="44.51349" lon="6.45915">
        <ele>1230.954055</ele>
        <time>2026-07-27T08:33:08.000Z</time>
      </trkpt>
      <trkpt lat="44.51349" lon="6.45915">
        <ele>1230.954055</ele>
        <time>2026-07-27T08:33:08.000Z</time>
      </trkpt>
      <trkpt lat="44.51345" lon="6.45917">
        <ele>1231.350629</ele>
        <time>2026-07-27T08:33:09.000Z</time>
      </trkpt>
      <trkpt lat="44.51345" lon="6.45917">
        <ele>1231.350629</ele>
        <time>2026-07-27T08:33:09.000Z</time>
      </trkpt>
      <trkpt lat="44.51342" lon="6.45919">
        <ele>1231.752338</ele>
        <time>2026-07-27T08:33:10.000Z</time>
      </trkpt>
      <trkpt lat="44.51342" lon="6.45919">
        <ele>1231.752338</ele>
        <time>2026-07-27T08:33:10.000Z</time>
      </trkpt>
      <trkpt lat="44.51338" lon="6.4592">
        <ele>1232.134924</ele>
        <time>2026-07-27T08:33:11.000Z</time>
      </trkpt>
      <trkpt lat="44.51338" lon="6.4592">
        <ele>1232.134924</ele>
        <time>2026-07-27T08:33:11.000Z</time>
      </trkpt>
      <trkpt lat="44.51335" lon="6.45922">
        <ele>1232.498148</ele>
        <time>2026-07-27T08:33:12.000Z</time>
      </trkpt>
      <trkpt lat="44.51335" lon="6.45922">
        <ele>1232.498148</ele>
        <time>2026-07-27T08:33:12.000Z</time>
      </trkpt>
      <trkpt lat="44.51332" lon="6.45923">
        <ele>1232.880734</ele>
        <time>2026-07-27T08:33:13.000Z</time>
      </trkpt>
      <trkpt lat="44.51332" lon="6.45923">
        <ele>1232.880734</ele>
        <time>2026-07-27T08:33:13.000Z</time>
      </trkpt>
      <trkpt lat="44.51328" lon="6.45924">
        <ele>1233.267413</ele>
        <time>2026-07-27T08:33:14.000Z</time>
      </trkpt>
      <trkpt lat="44.51328" lon="6.45924">
        <ele>1233.267413</ele>
        <time>2026-07-27T08:33:14.000Z</time>
      </trkpt>
      <trkpt lat="44.51324" lon="6.45926">
        <ele>1233.753987</ele>
        <time>2026-07-27T08:33:15.000Z</time>
      </trkpt>
      <trkpt lat="44.51324" lon="6.45926">
        <ele>1233.753987</ele>
        <time>2026-07-27T08:33:15.000Z</time>
      </trkpt>
      <trkpt lat="44.5132" lon="6.45929">
        <ele>1234.208766</ele>
        <time>2026-07-27T08:33:16.000Z</time>
      </trkpt>
      <trkpt lat="44.5132" lon="6.45929">
        <ele>1234.208766</ele>
        <time>2026-07-27T08:33:16.000Z</time>
      </trkpt>
      <trkpt lat="44.51316" lon="6.45932">
        <ele>1234.697577</ele>
        <time>2026-07-27T08:33:16.000Z</time>
      </trkpt>
      <trkpt lat="44.51316" lon="6.45932">
        <ele>1234.697577</ele>
        <time>2026-07-27T08:33:16.000Z</time>
      </trkpt>
      <trkpt lat="44.51313" lon="6.45935">
        <ele>1235.190112</ele>
        <time>2026-07-27T08:33:18.000Z</time>
      </trkpt>
      <trkpt lat="44.51308" lon="6.45938">
        <ele>1235.809868</ele>
        <time>2026-07-27T08:33:19.000Z</time>
      </trkpt>
      <trkpt lat="44.51308" lon="6.45938">
        <ele>1235.809868</ele>
        <time>2026-07-27T08:33:19.000Z</time>
      </trkpt>
      <trkpt lat="44.51303" lon="6.45942">
        <ele>1236.447026</ele>
        <time>2026-07-27T08:33:20.000Z</time>
      </trkpt>
      <trkpt lat="44.51303" lon="6.45942">
        <ele>1236.447026</ele>
        <time>2026-07-27T08:33:20.000Z</time>
      </trkpt>
      <trkpt lat="44.51298" lon="6.45946">
        <ele>1237.074357</ele>
        <time>2026-07-27T08:33:21.000Z</time>
      </trkpt>
      <trkpt lat="44.51294" lon="6.4595">
        <ele>1237.625846</ele>
        <time>2026-07-27T08:33:22.000Z</time>
      </trkpt>
      <trkpt lat="44.51294" lon="6.4595">
        <ele>1237.625846</ele>
        <time>2026-07-27T08:33:22.000Z</time>
      </trkpt>
      <trkpt lat="44.51289" lon="6.45953">
        <ele>1238.251939</ele>
        <time>2026-07-27T08:33:23.000Z</time>
      </trkpt>
      <trkpt lat="44.51284" lon="6.45956">
        <ele>1238.827233</ele>
        <time>2026-07-27T08:33:24.000Z</time>
      </trkpt>
      <trkpt lat="44.51284" lon="6.45956">
        <ele>1238.827233</ele>
        <time>2026-07-27T08:33:24.000Z</time>
      </trkpt>
      <trkpt lat="44.51279" lon="6.4596">
        <ele>1239.439738</ele>
        <time>2026-07-27T08:33:25.000Z</time>
      </trkpt>
      <trkpt lat="44.51274" lon="6.45963">
        <ele>1240.04904</ele>
        <time>2026-07-27T08:33:26.000Z</time>
      </trkpt>
      <trkpt lat="44.5127" lon="6.45965">
        <ele>1240.560227</ele>
        <time>2026-07-27T08:33:27.000Z</time>
      </trkpt>
      <trkpt lat="44.5127" lon="6.45965">
        <ele>1240.560227</ele>
        <time>2026-07-27T08:33:27.000Z</time>
      </trkpt>
      <trkpt lat="44.51265" lon="6.45968">
        <ele>1241.179349</ele>
        <time>2026-07-27T08:33:28.000Z</time>
      </trkpt>
      <trkpt lat="44.51261" lon="6.45972">
        <ele>1241.693134</ele>
        <time>2026-07-27T08:33:29.000Z</time>
      </trkpt>
      <trkpt lat="44.51261" lon="6.45972">
        <ele>1241.693134</ele>
        <time>2026-07-27T08:33:29.000Z</time>
      </trkpt>
      <trkpt lat="44.51258" lon="6.45977">
        <ele>1242.239353</ele>
        <time>2026-07-27T08:33:30.000Z</time>
      </trkpt>
      <trkpt lat="44.51258" lon="6.45977">
        <ele>1242.239353</ele>
        <time>2026-07-27T08:33:30.000Z</time>
      </trkpt>
      <trkpt lat="44.51255" lon="6.45982">
        <ele>1242.74682</ele>
        <time>2026-07-27T08:33:31.000Z</time>
      </trkpt>
      <trkpt lat="44.51252" lon="6.45987">
        <ele>1243.267374</ele>
        <time>2026-07-27T08:33:32.000Z</time>
      </trkpt>
      <trkpt lat="44.51252" lon="6.45987">
        <ele>1243.267374</ele>
        <time>2026-07-27T08:33:32.000Z</time>
      </trkpt>
      <trkpt lat="44.5125" lon="6.45993">
        <ele>1243.776769</ele>
        <time>2026-07-27T08:33:33.000Z</time>
      </trkpt>
      <trkpt lat="44.5125" lon="6.45993">
        <ele>1243.776769</ele>
        <time>2026-07-27T08:33:33.000Z</time>
      </trkpt>
      <trkpt lat="44.51247" lon="6.45998">
        <ele>1244.258954</ele>
        <time>2026-07-27T08:33:34.000Z</time>
      </trkpt>
      <trkpt lat="44.51247" lon="6.45998">
        <ele>1244.258954</ele>
        <time>2026-07-27T08:33:34.000Z</time>
      </trkpt>
      <trkpt lat="44.51245" lon="6.46002">
        <ele>1244.698989</ele>
        <time>2026-07-27T08:33:35.000Z</time>
      </trkpt>
      <trkpt lat="44.51245" lon="6.46002">
        <ele>1244.698989</ele>
        <time>2026-07-27T08:33:35.000Z</time>
      </trkpt>
      <trkpt lat="44.51242" lon="6.46004">
        <ele>1245.061458</ele>
        <time>2026-07-27T08:33:36.000Z</time>
      </trkpt>
      <trkpt lat="44.51242" lon="6.46004">
        <ele>1245.061458</ele>
        <time>2026-07-27T08:33:36.000Z</time>
      </trkpt>
      <trkpt lat="44.51239" lon="6.46007">
        <ele>1245.452412</ele>
        <time>2026-07-27T08:33:37.000Z</time>
      </trkpt>
      <trkpt lat="44.51239" lon="6.46007">
        <ele>1245.452412</ele>
        <time>2026-07-27T08:33:37.000Z</time>
      </trkpt>
      <trkpt lat="44.51236" lon="6.46011">
        <ele>1245.911175</ele>
        <time>2026-07-27T08:33:38.000Z</time>
      </trkpt>
      <trkpt lat="44.51236" lon="6.46011">
        <ele>1245.911175</ele>
        <time>2026-07-27T08:33:38.000Z</time>
      </trkpt>
      <trkpt lat="44.51233" lon="6.46014">
        <ele>1246.337749</ele>
        <time>2026-07-27T08:33:39.000Z</time>
      </trkpt>
      <trkpt lat="44.51233" lon="6.46014">
        <ele>1246.337749</ele>
        <time>2026-07-27T08:33:39.000Z</time>
      </trkpt>
      <trkpt lat="44.5123" lon="6.46017">
        <ele>1246.805605</ele>
        <time>2026-07-27T08:33:40.000Z</time>
      </trkpt>
      <trkpt lat="44.5123" lon="6.46017">
        <ele>1246.805605</ele>
        <time>2026-07-27T08:33:40.000Z</time>
      </trkpt>
      <trkpt lat="44.51226" lon="6.4602">
        <ele>1247.261066</ele>
        <time>2026-07-27T08:33:41.000Z</time>
      </trkpt>
      <trkpt lat="44.51226" lon="6.4602">
        <ele>1247.261066</ele>
        <time>2026-07-27T08:33:41.000Z</time>
      </trkpt>
      <trkpt lat="44.51222" lon="6.46024">
        <ele>1247.779366</ele>
        <time>2026-07-27T08:33:42.000Z</time>
      </trkpt>
      <trkpt lat="44.51222" lon="6.46024">
        <ele>1247.779366</ele>
        <time>2026-07-27T08:33:42.000Z</time>
      </trkpt>
      <trkpt lat="44.51219" lon="6.46027">
        <ele>1248.225217</ele>
        <time>2026-07-27T08:33:43.000Z</time>
      </trkpt>
      <trkpt lat="44.51219" lon="6.46027">
        <ele>1248.225217</ele>
        <time>2026-07-27T08:33:43.000Z</time>
      </trkpt>
      <trkpt lat="44.51216" lon="6.46029">
        <ele>1248.638337</ele>
        <time>2026-07-27T08:33:44.000Z</time>
      </trkpt>
      <trkpt lat="44.51216" lon="6.46029">
        <ele>1248.638337</ele>
        <time>2026-07-27T08:33:44.000Z</time>
      </trkpt>
      <trkpt lat="44.51212" lon="6.46032">
        <ele>1249.072217</ele>
        <time>2026-07-27T08:33:45.000Z</time>
      </trkpt>
      <trkpt lat="44.51212" lon="6.46032">
        <ele>1249.072217</ele>
        <time>2026-07-27T08:33:45.000Z</time>
      </trkpt>
      <trkpt lat="44.51209" lon="6.46034">
        <ele>1249.447874</ele>
        <time>2026-07-27T08:33:46.000Z</time>
      </trkpt>
      <trkpt lat="44.51209" lon="6.46034">
        <ele>1249.447874</ele>
        <time>2026-07-27T08:33:46.000Z</time>
      </trkpt>
      <trkpt lat="44.51208" lon="6.46036">
        <ele>1249.677687</ele>
        <time>2026-07-27T08:33:47.000Z</time>
      </trkpt>
      <trkpt lat="44.51208" lon="6.46036">
        <ele>1249.677687</ele>
        <time>2026-07-27T08:33:47.000Z</time>
      </trkpt>
      <trkpt lat="44.51205" lon="6.46038">
        <ele>1250.053344</ele>
        <time>2026-07-27T08:33:48.000Z</time>
      </trkpt>
      <trkpt lat="44.51205" lon="6.46038">
        <ele>1250.053344</ele>
        <time>2026-07-27T08:33:48.000Z</time>
      </trkpt>
      <trkpt lat="44.51202" lon="6.46041">
        <ele>1250.453993</ele>
        <time>2026-07-27T08:33:49.000Z</time>
      </trkpt>
      <trkpt lat="44.51202" lon="6.46041">
        <ele>1250.453993</ele>
        <time>2026-07-27T08:33:49.000Z</time>
      </trkpt>
      <trkpt lat="44.51199" lon="6.46043">
        <ele>1250.811766</ele>
        <time>2026-07-27T08:33:50.000Z</time>
      </trkpt>
      <trkpt lat="44.51199" lon="6.46043">
        <ele>1250.811766</ele>
        <time>2026-07-27T08:33:50.000Z</time>
      </trkpt>
      <trkpt lat="44.51197" lon="6.46045">
        <ele>1251.128258</ele>
        <time>2026-07-27T08:33:51.000Z</time>
      </trkpt>
      <trkpt lat="44.51197" lon="6.46045">
        <ele>1251.128258</ele>
        <time>2026-07-27T08:33:51.000Z</time>
      </trkpt>
      <trkpt lat="44.51194" lon="6.46048">
        <ele>1251.509291</ele>
        <time>2026-07-27T08:33:52.000Z</time>
      </trkpt>
      <trkpt lat="44.51194" lon="6.46048">
        <ele>1251.509291</ele>
        <time>2026-07-27T08:33:52.000Z</time>
      </trkpt>
      <trkpt lat="44.51191" lon="6.46051">
        <ele>1251.86744</ele>
        <time>2026-07-27T08:33:53.000Z</time>
      </trkpt>
      <trkpt lat="44.51191" lon="6.46051">
        <ele>1251.86744</ele>
        <time>2026-07-27T08:33:53.000Z</time>
      </trkpt>
      <trkpt lat="44.51189" lon="6.46053">
        <ele>1252.22991</ele>
        <time>2026-07-27T08:33:54.000Z</time>
      </trkpt>
      <trkpt lat="44.51189" lon="6.46053">
        <ele>1252.22991</ele>
        <time>2026-07-27T08:33:54.000Z</time>
      </trkpt>
      <trkpt lat="44.51187" lon="6.46056">
        <ele>1252.486619</ele>
        <time>2026-07-27T08:33:55.000Z</time>
      </trkpt>
      <trkpt lat="44.51187" lon="6.46056">
        <ele>1252.486619</ele>
        <time>2026-07-27T08:33:55.000Z</time>
      </trkpt>
      <trkpt lat="44.51186" lon="6.46058">
        <ele>1252.747648</ele>
        <time>2026-07-27T08:33:56.000Z</time>
      </trkpt>
      <trkpt lat="44.51185" lon="6.46061">
        <ele>1252.981241</ele>
        <time>2026-07-27T08:33:57.000Z</time>
      </trkpt>
      <trkpt lat="44.51184" lon="6.46063">
        <ele>1253.202497</ele>
        <time>2026-07-27T08:33:58.000Z</time>
      </trkpt>
      <trkpt lat="44.51184" lon="6.46063">
        <ele>1253.202497</ele>
        <time>2026-07-27T08:33:58.000Z</time>
      </trkpt>
      <trkpt lat="44.51183" lon="6.46066">
        <ele>1253.472006</ele>
        <time>2026-07-27T08:33:59.000Z</time>
      </trkpt>
      <trkpt lat="44.51183" lon="6.46066">
        <ele>1253.472006</ele>
        <time>2026-07-27T08:33:59.000Z</time>
      </trkpt>
      <trkpt lat="44.51181" lon="6.4607">
        <ele>1253.81136</ele>
        <time>2026-07-27T08:34:00.000Z</time>
      </trkpt>
      <trkpt lat="44.51181" lon="6.4607">
        <ele>1253.81136</ele>
        <time>2026-07-27T08:34:00.000Z</time>
      </trkpt>
      <trkpt lat="44.5118" lon="6.46074">
        <ele>1254.131628</ele>
        <time>2026-07-27T08:34:01.000Z</time>
      </trkpt>
      <trkpt lat="44.5118" lon="6.46074">
        <ele>1254.131628</ele>
        <time>2026-07-27T08:34:01.000Z</time>
      </trkpt>
      <trkpt lat="44.51179" lon="6.46077">
        <ele>1254.434716</ele>
        <time>2026-07-27T08:34:02.000Z</time>
      </trkpt>
      <trkpt lat="44.51179" lon="6.46077">
        <ele>1254.434716</ele>
        <time>2026-07-27T08:34:02.000Z</time>
      </trkpt>
      <trkpt lat="44.51178" lon="6.4608">
        <ele>1254.904084</ele>
        <time>2026-07-27T08:34:03.000Z</time>
      </trkpt>
      <trkpt lat="44.51178" lon="6.4608">
        <ele>1254.904084</ele>
        <time>2026-07-27T08:34:03.000Z</time>
      </trkpt>
      <trkpt lat="44.51177" lon="6.46085">
        <ele>1255.442685</ele>
        <time>2026-07-27T08:34:04.000Z</time>
      </trkpt>
      <trkpt lat="44.51177" lon="6.46085">
        <ele>1255.442685</ele>
        <time>2026-07-27T08:34:04.000Z</time>
      </trkpt>
      <trkpt lat="44.51175" lon="6.46089">
        <ele>1255.987598</ele>
        <time>2026-07-27T08:34:05.000Z</time>
      </trkpt>
      <trkpt lat="44.51175" lon="6.46089">
        <ele>1255.987598</ele>
        <time>2026-07-27T08:34:05.000Z</time>
      </trkpt>
      <trkpt lat="44.51175" lon="6.46091">
        <ele>1256.290635</ele>
        <time>2026-07-27T08:34:06.000Z</time>
      </trkpt>
      <trkpt lat="44.51175" lon="6.46091">
        <ele>1256.290635</ele>
        <time>2026-07-27T08:34:06.000Z</time>
      </trkpt>
      <trkpt lat="44.51173" lon="6.46094">
        <ele>1256.701829</ele>
        <time>2026-07-27T08:34:07.000Z</time>
      </trkpt>
      <trkpt lat="44.51173" lon="6.46094">
        <ele>1256.701829</ele>
        <time>2026-07-27T08:34:07.000Z</time>
      </trkpt>
      <trkpt lat="44.51172" lon="6.46097">
        <ele>1257.149711</ele>
        <time>2026-07-27T08:34:08.000Z</time>
      </trkpt>
      <trkpt lat="44.51172" lon="6.46097">
        <ele>1257.149711</ele>
        <time>2026-07-27T08:34:08.000Z</time>
      </trkpt>
      <trkpt lat="44.51172" lon="6.461">
        <ele>1257.561274</ele>
        <time>2026-07-27T08:34:09.000Z</time>
      </trkpt>
      <trkpt lat="44.51172" lon="6.461">
        <ele>1257.561274</ele>
        <time>2026-07-27T08:34:09.000Z</time>
      </trkpt>
      <trkpt lat="44.51171" lon="6.46103">
        <ele>1257.92076</ele>
        <time>2026-07-27T08:34:10.000Z</time>
      </trkpt>
      <trkpt lat="44.51171" lon="6.46103">
        <ele>1257.92076</ele>
        <time>2026-07-27T08:34:10.000Z</time>
      </trkpt>
      <trkpt lat="44.5117" lon="6.46106">
        <ele>1258.391034</ele>
        <time>2026-07-27T08:34:10.000Z</time>
      </trkpt>
      <trkpt lat="44.5117" lon="6.46106">
        <ele>1258.391034</ele>
        <time>2026-07-27T08:34:10.000Z</time>
      </trkpt>
      <trkpt lat="44.51169" lon="6.46109">
        <ele>1258.750521</ele>
        <time>2026-07-27T08:34:12.000Z</time>
      </trkpt>
      <trkpt lat="44.51169" lon="6.46109">
        <ele>1258.750521</ele>
        <time>2026-07-27T08:34:12.000Z</time>
      </trkpt>
      <trkpt lat="44.51167" lon="6.46113">
        <ele>1259.301192</ele>
        <time>2026-07-27T08:34:13.000Z</time>
      </trkpt>
      <trkpt lat="44.51167" lon="6.46113">
        <ele>1259.301192</ele>
        <time>2026-07-27T08:34:13.000Z</time>
      </trkpt>
      <trkpt lat="44.51166" lon="6.46116">
        <ele>1259.803262</ele>
        <time>2026-07-27T08:34:13.000Z</time>
      </trkpt>
      <trkpt lat="44.51166" lon="6.46116">
        <ele>1259.803262</ele>
        <time>2026-07-27T08:34:13.000Z</time>
      </trkpt>
      <trkpt lat="44.51166" lon="6.46116">
        <ele>1259.803262</ele>
        <time>2026-07-27T08:34:15.000Z</time>
      </trkpt>
      <trkpt lat="44.51166" lon="6.46116">
        <ele>1259.803262</ele>
        <time>2026-07-27T08:34:16.000Z</time>
      </trkpt>
      <trkpt lat="44.51166" lon="6.46116">
        <ele>1259.803262</ele>
        <time>2026-07-27T08:34:47.000Z</time>
      </trkpt>
      <trkpt lat="44.51157" lon="6.4613">
        <ele>1262.03408</ele>
        <time>2026-07-27T08:34:49.000Z</time>
      </trkpt>
      <trkpt lat="44.51149" lon="6.46133">
        <ele>1263.587249</ele>
        <time>2026-07-27T08:34:52.000Z</time>
      </trkpt>
      <trkpt lat="44.51149" lon="6.46133">
        <ele>1263.587249</ele>
        <time>2026-07-27T08:34:52.000Z</time>
      </trkpt>
      <trkpt lat="44.51148" lon="6.46133">
        <ele>1263.727358</ele>
        <time>2026-07-27T08:34:52.000Z</time>
      </trkpt>
      <trkpt lat="44.51148" lon="6.46133">
        <ele>1263.727358</ele>
        <time>2026-07-27T08:34:52.000Z</time>
      </trkpt>
      <trkpt lat="44.51148" lon="6.46133">
        <ele>1263.727358</ele>
        <time>2026-07-27T08:34:54.000Z</time>
      </trkpt>
      <trkpt lat="44.51147" lon="6.46132">
        <ele>1263.935632</ele>
        <time>2026-07-27T08:35:00.000Z</time>
      </trkpt>
      <trkpt lat="44.51147" lon="6.46132">
        <ele>1263.935632</ele>
        <time>2026-07-27T08:35:00.000Z</time>
      </trkpt>
      <trkpt lat="44.51147" lon="6.46132">
        <ele>1263.935632</ele>
        <time>2026-07-27T08:35:01.000Z</time>
      </trkpt>
      <trkpt lat="44.51147" lon="6.46132">
        <ele>1263.935632</ele>
        <time>2026-07-27T08:35:03.000Z</time>
      </trkpt>
      <trkpt lat="44.51147" lon="6.46132">
        <ele>1263.935632</ele>
        <time>2026-07-27T08:35:06.000Z</time>
      </trkpt>
      <trkpt lat="44.51147" lon="6.46132">
        <ele>1263.935632</ele>
        <time>2026-07-27T08:35:20.000Z</time>
      </trkpt>
      <trkpt lat="44.51147" lon="6.46132">
        <ele>1263.935632</ele>
        <time>2026-07-27T08:35:26.000Z</time>
      </trkpt>
      <trkpt lat="44.51147" lon="6.46132">
        <ele>1263.935632</ele>
        <time>2026-07-27T08:35:46.000Z</time>
      </trkpt>
      <trkpt lat="44.51143" lon="6.4612">
        <ele>1265.55716</ele>
        <time>2026-07-27T08:35:48.000Z</time>
      </trkpt>
      <trkpt lat="44.51142" lon="6.46117">
        <ele>1265.944503</ele>
        <time>2026-07-27T08:35:50.000Z</time>
      </trkpt>
      <trkpt lat="44.51142" lon="6.46117">
        <ele>1265.944503</ele>
        <time>2026-07-27T08:35:50.000Z</time>
      </trkpt>
      <trkpt lat="44.51142" lon="6.4611">
        <ele>1266.746668</ele>
        <time>2026-07-27T08:35:51.000Z</time>
      </trkpt>
      <trkpt lat="44.51142" lon="6.4611">
        <ele>1266.746668</ele>
        <time>2026-07-27T08:35:51.000Z</time>
      </trkpt>
      <trkpt lat="44.51142" lon="6.46107">
        <ele>1267.127822</ele>
        <time>2026-07-27T08:35:53.000Z</time>
      </trkpt>
      <trkpt lat="44.51142" lon="6.46107">
        <ele>1267.127822</ele>
        <time>2026-07-27T08:35:53.000Z</time>
      </trkpt>
      <trkpt lat="44.51143" lon="6.46105">
        <ele>1267.420557</ele>
        <time>2026-07-27T08:35:53.000Z</time>
      </trkpt>
      <trkpt lat="44.51143" lon="6.46103">
        <ele>1267.666463</ele>
        <time>2026-07-27T08:35:55.000Z</time>
      </trkpt>
      <trkpt lat="44.51143" lon="6.46103">
        <ele>1267.666463</ele>
        <time>2026-07-27T08:35:55.000Z</time>
      </trkpt>
      <trkpt lat="44.51143" lon="6.46101">
        <ele>1267.921857</ele>
        <time>2026-07-27T08:35:56.000Z</time>
      </trkpt>
      <trkpt lat="44.51143" lon="6.46101">
        <ele>1267.921857</ele>
        <time>2026-07-27T08:35:56.000Z</time>
      </trkpt>
      <trkpt lat="44.51141" lon="6.46098">
        <ele>1268.44516</ele>
        <time>2026-07-27T08:35:57.000Z</time>
      </trkpt>
      <trkpt lat="44.51141" lon="6.46098">
        <ele>1268.44516</ele>
        <time>2026-07-27T08:35:57.000Z</time>
      </trkpt>
      <trkpt lat="44.51141" lon="6.46098">
        <ele>1268.515214</ele>
        <time>2026-07-27T08:35:58.000Z</time>
      </trkpt>
      <trkpt lat="44.51141" lon="6.46098">
        <ele>1268.515214</ele>
        <time>2026-07-27T08:35:58.000Z</time>
      </trkpt>
      <trkpt lat="44.51141" lon="6.46098">
        <ele>1268.599921</ele>
        <time>2026-07-27T08:35:59.000Z</time>
      </trkpt>
      <trkpt lat="44.51141" lon="6.46098">
        <ele>1268.599921</ele>
        <time>2026-07-27T08:35:59.000Z</time>
      </trkpt>
      <trkpt lat="44.51139" lon="6.46099">
        <ele>1268.834555</ele>
        <time>2026-07-27T08:36:01.000Z</time>
      </trkpt>
      <trkpt lat="44.51139" lon="6.461">
        <ele>1268.956706</ele>
        <time>2026-07-27T08:36:02.000Z</time>
      </trkpt>
      <trkpt lat="44.51139" lon="6.461">
        <ele>1268.956706</ele>
        <time>2026-07-27T08:36:02.000Z</time>
      </trkpt>
      <trkpt lat="44.51139" lon="6.461">
        <ele>1268.956706</ele>
        <time>2026-07-27T08:36:03.000Z</time>
      </trkpt>
      <trkpt lat="44.51138" lon="6.46101">
        <ele>1269.210826</ele>
        <time>2026-07-27T08:36:04.000Z</time>
      </trkpt>
      <trkpt lat="44.51138" lon="6.46101">
        <ele>1269.210826</ele>
        <time>2026-07-27T08:36:04.000Z</time>
      </trkpt>
      <trkpt lat="44.51137" lon="6.46102">
        <ele>1269.392096</ele>
        <time>2026-07-27T08:36:05.000Z</time>
      </trkpt>
      <trkpt lat="44.51137" lon="6.46103">
        <ele>1269.522486</ele>
        <time>2026-07-27T08:36:06.000Z</time>
      </trkpt>
      <trkpt lat="44.51137" lon="6.46103">
        <ele>1269.522486</ele>
        <time>2026-07-27T08:36:06.000Z</time>
      </trkpt>
      <trkpt lat="44.51137" lon="6.46103">
        <ele>1269.522486</ele>
        <time>2026-07-27T08:36:06.000Z</time>
      </trkpt>
      <trkpt lat="44.51135" lon="6.46107">
        <ele>1270.08309</ele>
        <time>2026-07-27T08:36:07.000Z</time>
      </trkpt>
      <trkpt lat="44.51135" lon="6.46107">
        <ele>1270.08309</ele>
        <time>2026-07-27T08:36:07.000Z</time>
      </trkpt>
      <trkpt lat="44.51135" lon="6.46107">
        <ele>1270.132271</ele>
        <time>2026-07-27T08:36:08.000Z</time>
      </trkpt>
      <trkpt lat="44.5113" lon="6.46109">
        <ele>1271.025451</ele>
        <time>2026-07-27T08:36:36.000Z</time>
      </trkpt>
      <trkpt lat="44.51127" lon="6.46111">
        <ele>1271.593012</ele>
        <time>2026-07-27T08:36:40.000Z</time>
      </trkpt>
      <trkpt lat="44.51127" lon="6.46111">
        <ele>1271.593012</ele>
        <time>2026-07-27T08:36:40.000Z</time>
      </trkpt>
      <trkpt lat="44.51126" lon="6.46112">
        <ele>1271.79499</ele>
        <time>2026-07-27T08:36:40.000Z</time>
      </trkpt>
      <trkpt lat="44.51126" lon="6.46113">
        <ele>1271.925381</ele>
        <time>2026-07-27T08:36:41.000Z</time>
      </trkpt>
      <trkpt lat="44.51126" lon="6.46113">
        <ele>1271.925381</ele>
        <time>2026-07-27T08:36:41.000Z</time>
      </trkpt>
      <trkpt lat="44.51124" lon="6.46115">
        <ele>1272.342497</ele>
        <time>2026-07-27T08:36:43.000Z</time>
      </trkpt>
      <trkpt lat="44.51123" lon="6.46116">
        <ele>1272.434887</ele>
        <time>2026-07-27T08:36:45.000Z</time>
      </trkpt>
      <trkpt lat="44.51123" lon="6.46116">
        <ele>1272.434887</ele>
        <time>2026-07-27T08:36:45.000Z</time>
      </trkpt>
      <trkpt lat="44.51122" lon="6.46116">
        <ele>1272.703829</ele>
        <time>2026-07-27T08:36:46.000Z</time>
      </trkpt>
      <trkpt lat="44.51122" lon="6.46116">
        <ele>1272.703829</ele>
        <time>2026-07-27T08:36:46.000Z</time>
      </trkpt>
      <trkpt lat="44.51122" lon="6.46117">
        <ele>1272.777601</ele>
        <time>2026-07-27T08:36:48.000Z</time>
      </trkpt>
      <trkpt lat="44.51122" lon="6.46117">
        <ele>1272.777601</ele>
        <time>2026-07-27T08:36:49.000Z</time>
      </trkpt>
      <trkpt lat="44.51122" lon="6.46117">
        <ele>1272.802192</ele>
        <time>2026-07-27T08:36:53.000Z</time>
      </trkpt>
      <trkpt lat="44.51122" lon="6.46117">
        <ele>1272.839078</ele>
        <time>2026-07-27T08:36:54.000Z</time>
      </trkpt>
      <trkpt lat="44.51122" lon="6.46115">
        <ele>1273.09728</ele>
        <time>2026-07-27T08:36:56.000Z</time>
      </trkpt>
      <trkpt lat="44.51122" lon="6.46115">
        <ele>1273.09728</ele>
        <time>2026-07-27T08:36:56.000Z</time>
      </trkpt>
      <trkpt lat="44.51122" lon="6.46114">
        <ele>1273.171052</ele>
        <time>2026-07-27T08:36:56.000Z</time>
      </trkpt>
      <trkpt lat="44.51122" lon="6.46113">
        <ele>1273.244824</ele>
        <time>2026-07-27T08:36:58.000Z</time>
      </trkpt>
      <trkpt lat="44.51122" lon="6.46113">
        <ele>1273.244824</ele>
        <time>2026-07-27T08:36:58.000Z</time>
      </trkpt>
      <trkpt lat="44.51122" lon="6.46113">
        <ele>1273.345813</ele>
        <time>2026-07-27T08:36:59.000Z</time>
      </trkpt>
      <trkpt lat="44.5112" lon="6.46111">
        <ele>1273.76293</ele>
        <time>2026-07-27T08:37:00.000Z</time>
      </trkpt>
      <trkpt lat="44.5112" lon="6.46111">
        <ele>1273.76293</ele>
        <time>2026-07-27T08:37:00.000Z</time>
      </trkpt>
      <trkpt lat="44.51119" lon="6.46111">
        <ele>1273.836149</ele>
        <time>2026-07-27T08:37:01.000Z</time>
      </trkpt>
      <trkpt lat="44.51119" lon="6.46111">
        <ele>1273.907524</ele>
        <time>2026-07-27T08:37:03.000Z</time>
      </trkpt>
      <trkpt lat="44.51119" lon="6.46111">
        <ele>1273.907524</ele>
        <time>2026-07-27T08:37:03.000Z</time>
      </trkpt>
      <trkpt lat="44.51118" lon="6.46111">
        <ele>1274.045458</ele>
        <time>2026-07-27T08:37:03.000Z</time>
      </trkpt>
      <trkpt lat="44.51117" lon="6.46112">
        <ele>1274.292643</ele>
        <time>2026-07-27T08:37:05.000Z</time>
      </trkpt>
      <trkpt lat="44.51117" lon="6.46112">
        <ele>1274.292643</ele>
        <time>2026-07-27T08:37:05.000Z</time>
      </trkpt>
      <trkpt lat="44.51115" lon="6.46113">
        <ele>1274.565215</ele>
        <time>2026-07-27T08:37:05.000Z</time>
      </trkpt>
      <trkpt lat="44.51114" lon="6.46114">
        <ele>1274.778864</ele>
        <time>2026-07-27T08:37:06.000Z</time>
      </trkpt>
      <trkpt lat="44.51114" lon="6.46114">
        <ele>1274.778864</ele>
        <time>2026-07-27T08:37:06.000Z</time>
      </trkpt>
      <trkpt lat="44.51114" lon="6.46114">
        <ele>1274.941448</ele>
        <time>2026-07-27T08:37:07.000Z</time>
      </trkpt>
      <trkpt lat="44.51112" lon="6.46114">
        <ele>1275.200367</ele>
        <time>2026-07-27T08:37:09.000Z</time>
      </trkpt>
      <trkpt lat="44.51112" lon="6.46114">
        <ele>1275.200367</ele>
        <time>2026-07-27T08:37:09.000Z</time>
      </trkpt>
      <trkpt lat="44.51111" lon="6.46115">
        <ele>1275.46016</ele>
        <time>2026-07-27T08:37:10.000Z</time>
      </trkpt>
      <trkpt lat="44.51109" lon="6.46115">
        <ele>1275.736302</ele>
        <time>2026-07-27T08:37:10.000Z</time>
      </trkpt>
      <trkpt lat="44.51109" lon="6.46115">
        <ele>1275.736302</ele>
        <time>2026-07-27T08:37:10.000Z</time>
      </trkpt>
      <trkpt lat="44.51107" lon="6.46114">
        <ele>1276.064818</ele>
        <time>2026-07-27T08:37:11.000Z</time>
      </trkpt>
      <trkpt lat="44.51107" lon="6.46114">
        <ele>1276.064818</ele>
        <time>2026-07-27T08:37:11.000Z</time>
      </trkpt>
      <trkpt lat="44.51106" lon="6.46114">
        <ele>1276.328079</ele>
        <time>2026-07-27T08:37:12.000Z</time>
      </trkpt>
      <trkpt lat="44.51106" lon="6.46114">
        <ele>1276.328079</ele>
        <time>2026-07-27T08:37:12.000Z</time>
      </trkpt>
      <trkpt lat="44.51103" lon="6.46113">
        <ele>1276.733873</ele>
        <time>2026-07-27T08:37:14.000Z</time>
      </trkpt>
      <trkpt lat="44.51103" lon="6.46113">
        <ele>1276.733873</ele>
        <time>2026-07-27T08:37:14.000Z</time>
      </trkpt>
      <trkpt lat="44.51101" lon="6.46112">
        <ele>1277.079651</ele>
        <time>2026-07-27T08:37:14.000Z</time>
      </trkpt>
      <trkpt lat="44.51101" lon="6.46112">
        <ele>1277.079651</ele>
        <time>2026-07-27T08:37:14.000Z</time>
      </trkpt>
      <trkpt lat="44.511" lon="6.46111">
        <ele>1277.366017</ele>
        <time>2026-07-27T08:37:15.000Z</time>
      </trkpt>
      <trkpt lat="44.511" lon="6.46111">
        <ele>1277.366017</ele>
        <time>2026-07-27T08:37:15.000Z</time>
      </trkpt>
      <trkpt lat="44.51098" lon="6.4611">
        <ele>1277.730526</ele>
        <time>2026-07-27T08:37:16.000Z</time>
      </trkpt>
      <trkpt lat="44.51098" lon="6.4611">
        <ele>1277.730526</ele>
        <time>2026-07-27T08:37:16.000Z</time>
      </trkpt>
      <trkpt lat="44.51096" lon="6.46108">
        <ele>1278.178801</ele>
        <time>2026-07-27T08:37:17.000Z</time>
      </trkpt>
      <trkpt lat="44.51096" lon="6.46108">
        <ele>1278.178801</ele>
        <time>2026-07-27T08:37:17.000Z</time>
      </trkpt>
      <trkpt lat="44.51093" lon="6.46107">
        <ele>1278.616152</ele>
        <time>2026-07-27T08:37:18.000Z</time>
      </trkpt>
      <trkpt lat="44.51093" lon="6.46107">
        <ele>1278.616152</ele>
        <time>2026-07-27T08:37:18.000Z</time>
      </trkpt>
      <trkpt lat="44.51091" lon="6.46106">
        <ele>1278.966059</ele>
        <time>2026-07-27T08:37:20.000Z</time>
      </trkpt>
      <trkpt lat="44.51091" lon="6.46106">
        <ele>1278.966059</ele>
        <time>2026-07-27T08:37:20.000Z</time>
      </trkpt>
      <trkpt lat="44.5109" lon="6.46105">
        <ele>1279.238631</ele>
        <time>2026-07-27T08:37:21.000Z</time>
      </trkpt>
      <trkpt lat="44.5109" lon="6.46105">
        <ele>1279.238631</ele>
        <time>2026-07-27T08:37:21.000Z</time>
      </trkpt>
      <trkpt lat="44.51088" lon="6.46105">
        <ele>1279.635192</ele>
        <time>2026-07-27T08:37:22.000Z</time>
      </trkpt>
      <trkpt lat="44.51088" lon="6.46105">
        <ele>1279.635192</ele>
        <time>2026-07-27T08:37:22.000Z</time>
      </trkpt>
      <trkpt lat="44.51086" lon="6.46105">
        <ele>1279.962786</ele>
        <time>2026-07-27T08:37:23.000Z</time>
      </trkpt>
      <trkpt lat="44.51086" lon="6.46105">
        <ele>1279.962786</ele>
        <time>2026-07-27T08:37:23.000Z</time>
      </trkpt>
      <trkpt lat="44.51084" lon="6.46105">
        <ele>1280.238928</ele>
        <time>2026-07-27T08:37:24.000Z</time>
      </trkpt>
      <trkpt lat="44.51084" lon="6.46105">
        <ele>1280.238928</ele>
        <time>2026-07-27T08:37:24.000Z</time>
      </trkpt>
      <trkpt lat="44.51082" lon="6.46105">
        <ele>1280.567444</ele>
        <time>2026-07-27T08:37:25.000Z</time>
      </trkpt>
      <trkpt lat="44.51082" lon="6.46105">
        <ele>1280.567444</ele>
        <time>2026-07-27T08:37:25.000Z</time>
      </trkpt>
      <trkpt lat="44.5108" lon="6.46105">
        <ele>1280.903242</ele>
        <time>2026-07-27T08:37:26.000Z</time>
      </trkpt>
      <trkpt lat="44.5108" lon="6.46105">
        <ele>1280.903242</ele>
        <time>2026-07-27T08:37:26.000Z</time>
      </trkpt>
      <trkpt lat="44.51078" lon="6.46104">
        <ele>1281.239039</ele>
        <time>2026-07-27T08:37:27.000Z</time>
      </trkpt>
      <trkpt lat="44.51078" lon="6.46104">
        <ele>1281.239039</ele>
        <time>2026-07-27T08:37:27.000Z</time>
      </trkpt>
      <trkpt lat="44.51077" lon="6.46103">
        <ele>1281.581082</ele>
        <time>2026-07-27T08:37:27.000Z</time>
      </trkpt>
      <trkpt lat="44.51077" lon="6.46103">
        <ele>1281.581082</ele>
        <time>2026-07-27T08:37:27.000Z</time>
      </trkpt>
      <trkpt lat="44.51075" lon="6.46103">
        <ele>1281.91688</ele>
        <time>2026-07-27T08:37:28.000Z</time>
      </trkpt>
      <trkpt lat="44.51075" lon="6.46103">
        <ele>1281.91688</ele>
        <time>2026-07-27T08:37:28.000Z</time>
      </trkpt>
      <trkpt lat="44.51073" lon="6.46102">
        <ele>1282.252677</ele>
        <time>2026-07-27T08:37:29.000Z</time>
      </trkpt>
      <trkpt lat="44.51073" lon="6.46102">
        <ele>1282.252677</ele>
        <time>2026-07-27T08:37:29.000Z</time>
      </trkpt>
      <trkpt lat="44.51071" lon="6.46101">
        <ele>1282.588475</ele>
        <time>2026-07-27T08:37:30.000Z</time>
      </trkpt>
      <trkpt lat="44.51071" lon="6.46101">
        <ele>1282.588475</ele>
        <time>2026-07-27T08:37:30.000Z</time>
      </trkpt>
      <trkpt lat="44.51069" lon="6.46101">
        <ele>1282.9163</ele>
        <time>2026-07-27T08:37:32.000Z</time>
      </trkpt>
      <trkpt lat="44.51069" lon="6.46101">
        <ele>1282.9163</ele>
        <time>2026-07-27T08:37:32.000Z</time>
      </trkpt>
      <trkpt lat="44.51067" lon="6.46101">
        <ele>1283.179561</ele>
        <time>2026-07-27T08:37:32.000Z</time>
      </trkpt>
      <trkpt lat="44.51067" lon="6.46101">
        <ele>1283.179561</ele>
        <time>2026-07-27T08:37:32.000Z</time>
      </trkpt>
      <trkpt lat="44.51066" lon="6.46101">
        <ele>1283.457885</ele>
        <time>2026-07-27T08:37:33.000Z</time>
      </trkpt>
      <trkpt lat="44.51066" lon="6.46101">
        <ele>1283.457885</ele>
        <time>2026-07-27T08:37:33.000Z</time>
      </trkpt>
      <trkpt lat="44.51064" lon="6.461">
        <ele>1283.785709</ele>
        <time>2026-07-27T08:37:35.000Z</time>
      </trkpt>
      <trkpt lat="44.51064" lon="6.461">
        <ele>1283.785709</ele>
        <time>2026-07-27T08:37:35.000Z</time>
      </trkpt>
      <trkpt lat="44.51063" lon="6.46101">
        <ele>1283.976956</ele>
        <time>2026-07-27T08:37:36.000Z</time>
      </trkpt>
      <trkpt lat="44.51063" lon="6.46101">
        <ele>1283.976956</ele>
        <time>2026-07-27T08:37:36.000Z</time>
      </trkpt>
      <trkpt lat="44.51061" lon="6.46101">
        <ele>1284.235583</ele>
        <time>2026-07-27T08:37:36.000Z</time>
      </trkpt>
      <trkpt lat="44.51061" lon="6.46101">
        <ele>1284.235583</ele>
        <time>2026-07-27T08:37:36.000Z</time>
      </trkpt>
      <trkpt lat="44.5106" lon="6.46101">
        <ele>1284.511725</ele>
        <time>2026-07-27T08:37:37.000Z</time>
      </trkpt>
      <trkpt lat="44.5106" lon="6.46101">
        <ele>1284.511725</ele>
        <time>2026-07-27T08:37:37.000Z</time>
      </trkpt>
      <trkpt lat="44.51058" lon="6.461">
        <ele>1284.774987</ele>
        <time>2026-07-27T08:37:38.000Z</time>
      </trkpt>
      <trkpt lat="44.51058" lon="6.461">
        <ele>1284.774987</ele>
        <time>2026-07-27T08:37:38.000Z</time>
      </trkpt>
      <trkpt lat="44.51058" lon="6.461">
        <ele>1284.774987</ele>
        <time>2026-07-27T08:37:39.000Z</time>
      </trkpt>
      <trkpt lat="44.51054" lon="6.461">
        <ele>1285.433053</ele>
        <time>2026-07-27T08:37:41.000Z</time>
      </trkpt>
      <trkpt lat="44.51054" lon="6.461">
        <ele>1285.433053</ele>
        <time>2026-07-27T08:37:41.000Z</time>
      </trkpt>
      <trkpt lat="44.51053" lon="6.46099">
        <ele>1285.592127</ele>
        <time>2026-07-27T08:37:41.000Z</time>
      </trkpt>
      <trkpt lat="44.51053" lon="6.46099">
        <ele>1285.592127</ele>
        <time>2026-07-27T08:37:41.000Z</time>
      </trkpt>
      <trkpt lat="44.51052" lon="6.46099">
        <ele>1285.786045</ele>
        <time>2026-07-27T08:37:42.000Z</time>
      </trkpt>
      <trkpt lat="44.51052" lon="6.46099">
        <ele>1285.786045</ele>
        <time>2026-07-27T08:37:42.000Z</time>
      </trkpt>
      <trkpt lat="44.5105" lon="6.46099">
        <ele>1286.030054</ele>
        <time>2026-07-27T08:37:44.000Z</time>
      </trkpt>
      <trkpt lat="44.5105" lon="6.46099">
        <ele>1286.030054</ele>
        <time>2026-07-27T08:37:44.000Z</time>
      </trkpt>
      <trkpt lat="44.51048" lon="6.46098">
        <ele>1286.228156</ele>
        <time>2026-07-27T08:37:44.000Z</time>
      </trkpt>
      <trkpt lat="44.51048" lon="6.46098">
        <ele>1286.228156</ele>
        <time>2026-07-27T08:37:44.000Z</time>
      </trkpt>
      <trkpt lat="44.51046" lon="6.46097">
        <ele>1286.47765</ele>
        <time>2026-07-27T08:37:45.000Z</time>
      </trkpt>
      <trkpt lat="44.51046" lon="6.46097">
        <ele>1286.47765</ele>
        <time>2026-07-27T08:37:45.000Z</time>
      </trkpt>
      <trkpt lat="44.51045" lon="6.46097">
        <ele>1286.684058</ele>
        <time>2026-07-27T08:37:47.000Z</time>
      </trkpt>
      <trkpt lat="44.51045" lon="6.46097">
        <ele>1286.684058</ele>
        <time>2026-07-27T08:37:47.000Z</time>
      </trkpt>
      <trkpt lat="44.51043" lon="6.46097">
        <ele>1286.875421</ele>
        <time>2026-07-27T08:37:48.000Z</time>
      </trkpt>
      <trkpt lat="44.51043" lon="6.46097">
        <ele>1286.875421</ele>
        <time>2026-07-27T08:37:48.000Z</time>
      </trkpt>
      <trkpt lat="44.51041" lon="6.46097">
        <ele>1287.118251</ele>
        <time>2026-07-27T08:37:49.000Z</time>
      </trkpt>
      <trkpt lat="44.51041" lon="6.46097">
        <ele>1287.118251</ele>
        <time>2026-07-27T08:37:49.000Z</time>
      </trkpt>
      <trkpt lat="44.5104" lon="6.46097">
        <ele>1287.36226</ele>
        <time>2026-07-27T08:37:49.000Z</time>
      </trkpt>
      <trkpt lat="44.5104" lon="6.46097">
        <ele>1287.36226</ele>
        <time>2026-07-27T08:37:49.000Z</time>
      </trkpt>
      <trkpt lat="44.51038" lon="6.46098">
        <ele>1287.558072</ele>
        <time>2026-07-27T08:37:50.000Z</time>
      </trkpt>
      <trkpt lat="44.51038" lon="6.46098">
        <ele>1287.558072</ele>
        <time>2026-07-27T08:37:50.000Z</time>
      </trkpt>
      <trkpt lat="44.51036" lon="6.46098">
        <ele>1287.852415</ele>
        <time>2026-07-27T08:37:51.000Z</time>
      </trkpt>
      <trkpt lat="44.51036" lon="6.46098">
        <ele>1287.852415</ele>
        <time>2026-07-27T08:37:51.000Z</time>
      </trkpt>
      <trkpt lat="44.51034" lon="6.46098">
        <ele>1288.094399</ele>
        <time>2026-07-27T08:37:52.000Z</time>
      </trkpt>
      <trkpt lat="44.51034" lon="6.46098">
        <ele>1288.094399</ele>
        <time>2026-07-27T08:37:52.000Z</time>
      </trkpt>
      <trkpt lat="44.51032" lon="6.46098">
        <ele>1288.337228</ele>
        <time>2026-07-27T08:37:54.000Z</time>
      </trkpt>
      <trkpt lat="44.51032" lon="6.46098">
        <ele>1288.337228</ele>
        <time>2026-07-27T08:37:54.000Z</time>
      </trkpt>
      <trkpt lat="44.5103" lon="6.46098">
        <ele>1288.541238</ele>
        <time>2026-07-27T08:37:55.000Z</time>
      </trkpt>
      <trkpt lat="44.5103" lon="6.46098">
        <ele>1288.541238</ele>
        <time>2026-07-27T08:37:55.000Z</time>
      </trkpt>
      <trkpt lat="44.51028" lon="6.46097">
        <ele>1288.786755</ele>
        <time>2026-07-27T08:37:56.000Z</time>
      </trkpt>
      <trkpt lat="44.51028" lon="6.46097">
        <ele>1288.786755</ele>
        <time>2026-07-27T08:37:56.000Z</time>
      </trkpt>
      <trkpt lat="44.51027" lon="6.46097">
        <ele>1289.029585</ele>
        <time>2026-07-27T08:37:56.000Z</time>
      </trkpt>
      <trkpt lat="44.51027" lon="6.46097">
        <ele>1289.029585</ele>
        <time>2026-07-27T08:37:56.000Z</time>
      </trkpt>
      <trkpt lat="44.51025" lon="6.46097">
        <ele>1289.271059</ele>
        <time>2026-07-27T08:37:57.000Z</time>
      </trkpt>
      <trkpt lat="44.51025" lon="6.46097">
        <ele>1289.271059</ele>
        <time>2026-07-27T08:37:57.000Z</time>
      </trkpt>
      <trkpt lat="44.51023" lon="6.46097">
        <ele>1289.462422</ele>
        <time>2026-07-27T08:37:58.000Z</time>
      </trkpt>
      <trkpt lat="44.51023" lon="6.46097">
        <ele>1289.462422</ele>
        <time>2026-07-27T08:37:58.000Z</time>
      </trkpt>
      <trkpt lat="44.51021" lon="6.46097">
        <ele>1289.703897</ele>
        <time>2026-07-27T08:38:00.000Z</time>
      </trkpt>
      <trkpt lat="44.51021" lon="6.46097">
        <ele>1289.703897</ele>
        <time>2026-07-27T08:38:00.000Z</time>
      </trkpt>
      <trkpt lat="44.51019" lon="6.46097">
        <ele>1289.945372</ele>
        <time>2026-07-27T08:38:01.000Z</time>
      </trkpt>
      <trkpt lat="44.51019" lon="6.46097">
        <ele>1289.945372</ele>
        <time>2026-07-27T08:38:01.000Z</time>
      </trkpt>
      <trkpt lat="44.51017" lon="6.46097">
        <ele>1290.186846</ele>
        <time>2026-07-27T08:38:02.000Z</time>
      </trkpt>
      <trkpt lat="44.51017" lon="6.46097">
        <ele>1290.186846</ele>
        <time>2026-07-27T08:38:02.000Z</time>
      </trkpt>
      <trkpt lat="44.51016" lon="6.46097">
        <ele>1290.339518</ele>
        <time>2026-07-27T08:38:03.000Z</time>
      </trkpt>
      <trkpt lat="44.51016" lon="6.46097">
        <ele>1290.339518</ele>
        <time>2026-07-27T08:38:03.000Z</time>
      </trkpt>
      <trkpt lat="44.51015" lon="6.46097">
        <ele>1290.479514</ele>
        <time>2026-07-27T08:38:03.000Z</time>
      </trkpt>
      <trkpt lat="44.51015" lon="6.46097">
        <ele>1290.479514</ele>
        <time>2026-07-27T08:38:03.000Z</time>
      </trkpt>
      <trkpt lat="44.51013" lon="6.46098">
        <ele>1290.773858</ele>
        <time>2026-07-27T08:38:05.000Z</time>
      </trkpt>
      <trkpt lat="44.51013" lon="6.46098">
        <ele>1290.773858</ele>
        <time>2026-07-27T08:38:05.000Z</time>
      </trkpt>
      <trkpt lat="44.51011" lon="6.46098">
        <ele>1291.021206</ele>
        <time>2026-07-27T08:38:05.000Z</time>
      </trkpt>
      <trkpt lat="44.51011" lon="6.46098">
        <ele>1291.021206</ele>
        <time>2026-07-27T08:38:05.000Z</time>
      </trkpt>
      <trkpt lat="44.51009" lon="6.46099">
        <ele>1291.320112</ele>
        <time>2026-07-27T08:38:07.000Z</time>
      </trkpt>
      <trkpt lat="44.51009" lon="6.46099">
        <ele>1291.320112</ele>
        <time>2026-07-27T08:38:07.000Z</time>
      </trkpt>
      <trkpt lat="44.51006" lon="6.461">
        <ele>1291.677198</ele>
        <time>2026-07-27T08:38:07.000Z</time>
      </trkpt>
      <trkpt lat="44.51006" lon="6.461">
        <ele>1291.677198</ele>
        <time>2026-07-27T08:38:07.000Z</time>
      </trkpt>
      <trkpt lat="44.51004" lon="6.46101">
        <ele>1291.980463</ele>
        <time>2026-07-27T08:38:09.000Z</time>
      </trkpt>
      <trkpt lat="44.51004" lon="6.46101">
        <ele>1291.980463</ele>
        <time>2026-07-27T08:38:09.000Z</time>
      </trkpt>
      <trkpt lat="44.51001" lon="6.46102">
        <ele>1292.374281</ele>
        <time>2026-07-27T08:38:09.000Z</time>
      </trkpt>
      <trkpt lat="44.51001" lon="6.46102">
        <ele>1292.374281</ele>
        <time>2026-07-27T08:38:09.000Z</time>
      </trkpt>
      <trkpt lat="44.50998" lon="6.46103">
        <ele>1292.743118</ele>
        <time>2026-07-27T08:38:11.000Z</time>
      </trkpt>
      <trkpt lat="44.50998" lon="6.46103">
        <ele>1292.743118</ele>
        <time>2026-07-27T08:38:11.000Z</time>
      </trkpt>
      <trkpt lat="44.50996" lon="6.46104">
        <ele>1293.048942</ele>
        <time>2026-07-27T08:38:11.000Z</time>
      </trkpt>
      <trkpt lat="44.50996" lon="6.46104">
        <ele>1293.048942</ele>
        <time>2026-07-27T08:38:11.000Z</time>
      </trkpt>
      <trkpt lat="44.50993" lon="6.46106">
        <ele>1293.445148</ele>
        <time>2026-07-27T08:38:13.000Z</time>
      </trkpt>
      <trkpt lat="44.50993" lon="6.46106">
        <ele>1293.445148</ele>
        <time>2026-07-27T08:38:13.000Z</time>
      </trkpt>
      <trkpt lat="44.5099" lon="6.46107">
        <ele>1293.799814</ele>
        <time>2026-07-27T08:38:13.000Z</time>
      </trkpt>
      <trkpt lat="44.5099" lon="6.46107">
        <ele>1293.799814</ele>
        <time>2026-07-27T08:38:13.000Z</time>
      </trkpt>
      <trkpt lat="44.50987" lon="6.46108">
        <ele>1294.198598</ele>
        <time>2026-07-27T08:38:14.000Z</time>
      </trkpt>
      <trkpt lat="44.50987" lon="6.46108">
        <ele>1294.198598</ele>
        <time>2026-07-27T08:38:14.000Z</time>
      </trkpt>
      <trkpt lat="44.50984" lon="6.46109">
        <ele>1294.558316</ele>
        <time>2026-07-27T08:38:15.000Z</time>
      </trkpt>
      <trkpt lat="44.50984" lon="6.46109">
        <ele>1294.558316</ele>
        <time>2026-07-27T08:38:15.000Z</time>
      </trkpt>
      <trkpt lat="44.50981" lon="6.4611">
        <ele>1295.003592</ele>
        <time>2026-07-27T08:38:17.000Z</time>
      </trkpt>
      <trkpt lat="44.50981" lon="6.4611">
        <ele>1295.003592</ele>
        <time>2026-07-27T08:38:17.000Z</time>
      </trkpt>
      <trkpt lat="44.50978" lon="6.46112">
        <ele>1295.369191</ele>
        <time>2026-07-27T08:38:17.000Z</time>
      </trkpt>
      <trkpt lat="44.50978" lon="6.46112">
        <ele>1295.369191</ele>
        <time>2026-07-27T08:38:17.000Z</time>
      </trkpt>
      <trkpt lat="44.50975" lon="6.46114">
        <ele>1295.748878</ele>
        <time>2026-07-27T08:38:19.000Z</time>
      </trkpt>
      <trkpt lat="44.50975" lon="6.46114">
        <ele>1295.748878</ele>
        <time>2026-07-27T08:38:19.000Z</time>
      </trkpt>
      <trkpt lat="44.50973" lon="6.46115">
        <ele>1296.117716</ele>
        <time>2026-07-27T08:38:19.000Z</time>
      </trkpt>
      <trkpt lat="44.50973" lon="6.46115">
        <ele>1296.117716</ele>
        <time>2026-07-27T08:38:19.000Z</time>
      </trkpt>
      <trkpt lat="44.5097" lon="6.46117">
        <ele>1296.513044</ele>
        <time>2026-07-27T08:38:21.000Z</time>
      </trkpt>
      <trkpt lat="44.5097" lon="6.46117">
        <ele>1296.513044</ele>
        <time>2026-07-27T08:38:21.000Z</time>
      </trkpt>
      <trkpt lat="44.50967" lon="6.4612">
        <ele>1296.976514</ele>
        <time>2026-07-27T08:38:21.000Z</time>
      </trkpt>
      <trkpt lat="44.50967" lon="6.4612">
        <ele>1296.976514</ele>
        <time>2026-07-27T08:38:21.000Z</time>
      </trkpt>
      <trkpt lat="44.50964" lon="6.46122">
        <ele>1297.406478</ele>
        <time>2026-07-27T08:38:23.000Z</time>
      </trkpt>
      <trkpt lat="44.50964" lon="6.46122">
        <ele>1297.406478</ele>
        <time>2026-07-27T08:38:23.000Z</time>
      </trkpt>
      <trkpt lat="44.50962" lon="6.46124">
        <ele>1297.683397</ele>
        <time>2026-07-27T08:38:23.000Z</time>
      </trkpt>
      <trkpt lat="44.50962" lon="6.46124">
        <ele>1297.683397</ele>
        <time>2026-07-27T08:38:23.000Z</time>
      </trkpt>
      <trkpt lat="44.5096" lon="6.46125">
        <ele>1297.96487</ele>
        <time>2026-07-27T08:38:24.000Z</time>
      </trkpt>
      <trkpt lat="44.5096" lon="6.46125">
        <ele>1297.96487</ele>
        <time>2026-07-27T08:38:24.000Z</time>
      </trkpt>
      <trkpt lat="44.50958" lon="6.46127">
        <ele>1298.308581</ele>
        <time>2026-07-27T08:38:26.000Z</time>
      </trkpt>
      <trkpt lat="44.50958" lon="6.46127">
        <ele>1298.308581</ele>
        <time>2026-07-27T08:38:26.000Z</time>
      </trkpt>
      <trkpt lat="44.50956" lon="6.4613">
        <ele>1298.667356</ele>
        <time>2026-07-27T08:38:26.000Z</time>
      </trkpt>
      <trkpt lat="44.50956" lon="6.4613">
        <ele>1298.667356</ele>
        <time>2026-07-27T08:38:26.000Z</time>
      </trkpt>
      <trkpt lat="44.50953" lon="6.46132">
        <ele>1299.006381</ele>
        <time>2026-07-27T08:38:27.000Z</time>
      </trkpt>
      <trkpt lat="44.50953" lon="6.46132">
        <ele>1299.006381</ele>
        <time>2026-07-27T08:38:27.000Z</time>
      </trkpt>
      <trkpt lat="44.50951" lon="6.46134">
        <ele>1299.375967</ele>
        <time>2026-07-27T08:38:28.000Z</time>
      </trkpt>
      <trkpt lat="44.50951" lon="6.46134">
        <ele>1299.375967</ele>
        <time>2026-07-27T08:38:28.000Z</time>
      </trkpt>
      <trkpt lat="44.5095" lon="6.46136">
        <ele>1299.658252</ele>
        <time>2026-07-27T08:38:30.000Z</time>
      </trkpt>
      <trkpt lat="44.5095" lon="6.46136">
        <ele>1299.658252</ele>
        <time>2026-07-27T08:38:30.000Z</time>
      </trkpt>
      <trkpt lat="44.50948" lon="6.46139">
        <ele>1299.961144</ele>
        <time>2026-07-27T08:38:30.000Z</time>
      </trkpt>
      <trkpt lat="44.50948" lon="6.46139">
        <ele>1299.961144</ele>
        <time>2026-07-27T08:38:30.000Z</time>
      </trkpt>
      <trkpt lat="44.50946" lon="6.46142">
        <ele>1300.286109</ele>
        <time>2026-07-27T08:38:31.000Z</time>
      </trkpt>
      <trkpt lat="44.50946" lon="6.46142">
        <ele>1300.286109</ele>
        <time>2026-07-27T08:38:31.000Z</time>
      </trkpt>
      <trkpt lat="44.50945" lon="6.46145">
        <ele>1300.632937</ele>
        <time>2026-07-27T08:38:33.000Z</time>
      </trkpt>
      <trkpt lat="44.50945" lon="6.46145">
        <ele>1300.632937</ele>
        <time>2026-07-27T08:38:33.000Z</time>
      </trkpt>
      <trkpt lat="44.50943" lon="6.46148">
        <ele>1300.950116</ele>
        <time>2026-07-27T08:38:33.000Z</time>
      </trkpt>
      <trkpt lat="44.50943" lon="6.46148">
        <ele>1300.950116</ele>
        <time>2026-07-27T08:38:33.000Z</time>
      </trkpt>
      <trkpt lat="44.50942" lon="6.4615">
        <ele>1301.253007</ele>
        <time>2026-07-27T08:38:34.000Z</time>
      </trkpt>
      <trkpt lat="44.50942" lon="6.4615">
        <ele>1301.253007</ele>
        <time>2026-07-27T08:38:34.000Z</time>
      </trkpt>
      <trkpt lat="44.5094" lon="6.46153">
        <ele>1301.624955</ele>
        <time>2026-07-27T08:38:36.000Z</time>
      </trkpt>
      <trkpt lat="44.5094" lon="6.46153">
        <ele>1301.624955</ele>
        <time>2026-07-27T08:38:36.000Z</time>
      </trkpt>
      <trkpt lat="44.50938" lon="6.46156">
        <ele>1301.93494</ele>
        <time>2026-07-27T08:38:37.000Z</time>
      </trkpt>
      <trkpt lat="44.50938" lon="6.46156">
        <ele>1301.93494</ele>
        <time>2026-07-27T08:38:37.000Z</time>
      </trkpt>
      <trkpt lat="44.50938" lon="6.46156">
        <ele>1301.93494</ele>
        <time>2026-07-27T08:38:37.000Z</time>
      </trkpt>
      <trkpt lat="44.50936" lon="6.46162">
        <ele>1302.532253</ele>
        <time>2026-07-27T08:38:39.000Z</time>
      </trkpt>
      <trkpt lat="44.50936" lon="6.46162">
        <ele>1302.532253</ele>
        <time>2026-07-27T08:38:39.000Z</time>
      </trkpt>
      <trkpt lat="44.50936" lon="6.46162">
        <ele>1302.532253</ele>
        <time>2026-07-27T08:38:40.000Z</time>
      </trkpt>
      <trkpt lat="44.50936" lon="6.46162">
        <ele>1302.532253</ele>
        <time>2026-07-27T08:38:41.000Z</time>
      </trkpt>
      <trkpt lat="44.50933" lon="6.46167">
        <ele>1303.145104</ele>
        <time>2026-07-27T08:38:41.000Z</time>
      </trkpt>
      <trkpt lat="44.50933" lon="6.46167">
        <ele>1303.145104</ele>
        <time>2026-07-27T08:38:41.000Z</time>
      </trkpt>
      <trkpt lat="44.50932" lon="6.46168">
        <ele>1303.322086</ele>
        <time>2026-07-27T08:38:43.000Z</time>
      </trkpt>
      <trkpt lat="44.50932" lon="6.46168">
        <ele>1303.322086</ele>
        <time>2026-07-27T08:38:43.000Z</time>
      </trkpt>
      <trkpt lat="44.50931" lon="6.46171">
        <ele>1303.540273</ele>
        <time>2026-07-27T08:38:43.000Z</time>
      </trkpt>
      <trkpt lat="44.50931" lon="6.46171">
        <ele>1303.540273</ele>
        <time>2026-07-27T08:38:43.000Z</time>
      </trkpt>
      <trkpt lat="44.5093" lon="6.46173">
        <ele>1303.858222</ele>
        <time>2026-07-27T08:38:44.000Z</time>
      </trkpt>
      <trkpt lat="44.5093" lon="6.46173">
        <ele>1303.858222</ele>
        <time>2026-07-27T08:38:44.000Z</time>
      </trkpt>
      <trkpt lat="44.50928" lon="6.46176">
        <ele>1304.221615</ele>
        <time>2026-07-27T08:38:45.000Z</time>
      </trkpt>
      <trkpt lat="44.50928" lon="6.46176">
        <ele>1304.221615</ele>
        <time>2026-07-27T08:38:45.000Z</time>
      </trkpt>
      <trkpt lat="44.50926" lon="6.46179">
        <ele>1304.55878</ele>
        <time>2026-07-27T08:38:46.000Z</time>
      </trkpt>
      <trkpt lat="44.50926" lon="6.46179">
        <ele>1304.55878</ele>
        <time>2026-07-27T08:38:46.000Z</time>
      </trkpt>
      <trkpt lat="44.50924" lon="6.46182">
        <ele>1304.875959</ele>
        <time>2026-07-27T08:38:48.000Z</time>
      </trkpt>
      <trkpt lat="44.50924" lon="6.46182">
        <ele>1304.875959</ele>
        <time>2026-07-27T08:38:48.000Z</time>
      </trkpt>
      <trkpt lat="44.50922" lon="6.46185">
        <ele>1305.226015</ele>
        <time>2026-07-27T08:38:48.000Z</time>
      </trkpt>
      <trkpt lat="44.50922" lon="6.46185">
        <ele>1305.226015</ele>
        <time>2026-07-27T08:38:48.000Z</time>
      </trkpt>
      <trkpt lat="44.50921" lon="6.46188">
        <ele>1305.545479</ele>
        <time>2026-07-27T08:38:49.000Z</time>
      </trkpt>
      <trkpt lat="44.50921" lon="6.46188">
        <ele>1305.545479</ele>
        <time>2026-07-27T08:38:49.000Z</time>
      </trkpt>
      <trkpt lat="44.5092" lon="6.4619">
        <ele>1305.848372</ele>
        <time>2026-07-27T08:38:51.000Z</time>
      </trkpt>
      <trkpt lat="44.5092" lon="6.4619">
        <ele>1305.848372</ele>
        <time>2026-07-27T08:38:51.000Z</time>
      </trkpt>
      <trkpt lat="44.50918" lon="6.46193">
        <ele>1306.225501</ele>
        <time>2026-07-27T08:38:51.000Z</time>
      </trkpt>
      <trkpt lat="44.50918" lon="6.46193">
        <ele>1306.225501</ele>
        <time>2026-07-27T08:38:51.000Z</time>
      </trkpt>
      <trkpt lat="44.50916" lon="6.46197">
        <ele>1306.57233</ele>
        <time>2026-07-27T08:38:53.000Z</time>
      </trkpt>
      <trkpt lat="44.50916" lon="6.46197">
        <ele>1306.57233</ele>
        <time>2026-07-27T08:38:53.000Z</time>
      </trkpt>
      <trkpt lat="44.50915" lon="6.462">
        <ele>1306.899782</ele>
        <time>2026-07-27T08:38:53.000Z</time>
      </trkpt>
      <trkpt lat="44.50915" lon="6.462">
        <ele>1306.899782</ele>
        <time>2026-07-27T08:38:53.000Z</time>
      </trkpt>
      <trkpt lat="44.50914" lon="6.46203">
        <ele>1307.254215</ele>
        <time>2026-07-27T08:38:55.000Z</time>
      </trkpt>
      <trkpt lat="44.50914" lon="6.46203">
        <ele>1307.254215</ele>
        <time>2026-07-27T08:38:55.000Z</time>
      </trkpt>
      <trkpt lat="44.50912" lon="6.46206">
        <ele>1307.571395</ele>
        <time>2026-07-27T08:38:55.000Z</time>
      </trkpt>
      <trkpt lat="44.50912" lon="6.46206">
        <ele>1307.571395</ele>
        <time>2026-07-27T08:38:55.000Z</time>
      </trkpt>
      <trkpt lat="44.5091" lon="6.46209">
        <ele>1307.955528</ele>
        <time>2026-07-27T08:38:57.000Z</time>
      </trkpt>
      <trkpt lat="44.5091" lon="6.46209">
        <ele>1307.955528</ele>
        <time>2026-07-27T08:38:57.000Z</time>
      </trkpt>
      <trkpt lat="44.50909" lon="6.46213">
        <ele>1308.291024</ele>
        <time>2026-07-27T08:38:57.000Z</time>
      </trkpt>
      <trkpt lat="44.50909" lon="6.46213">
        <ele>1308.291024</ele>
        <time>2026-07-27T08:38:57.000Z</time>
      </trkpt>
      <trkpt lat="44.50907" lon="6.46216">
        <ele>1308.215598</ele>
        <time>2026-07-27T08:38:59.000Z</time>
      </trkpt>
      <trkpt lat="44.50906" lon="6.46219">
        <ele>1308.149204</ele>
        <time>2026-07-27T08:38:59.000Z</time>
      </trkpt>
      <trkpt lat="44.50906" lon="6.46219">
        <ele>1308.149204</ele>
        <time>2026-07-27T08:38:59.000Z</time>
      </trkpt>
      <trkpt lat="44.50904" lon="6.46222">
        <ele>1308.07622</ele>
        <time>2026-07-27T08:39:01.000Z</time>
      </trkpt>
      <trkpt lat="44.50901" lon="6.46224">
        <ele>1308.000593</ele>
        <time>2026-07-27T08:39:02.000Z</time>
      </trkpt>
      <trkpt lat="44.50899" lon="6.46227">
        <ele>1307.914411</ele>
        <time>2026-07-27T08:39:03.000Z</time>
      </trkpt>
      <trkpt lat="44.50899" lon="6.46227">
        <ele>1307.914411</ele>
        <time>2026-07-27T08:39:03.000Z</time>
      </trkpt>
      <trkpt lat="44.50896" lon="6.46229">
        <ele>1307.823719</ele>
        <time>2026-07-27T08:39:04.000Z</time>
      </trkpt>
      <trkpt lat="44.50892" lon="6.46233">
        <ele>1307.716259</ele>
        <time>2026-07-27T08:39:05.000Z</time>
      </trkpt>
      <trkpt lat="44.50888" lon="6.46236">
        <ele>1307.597883</ele>
        <time>2026-07-27T08:39:06.000Z</time>
      </trkpt>
      <trkpt lat="44.50885" lon="6.4624">
        <ele>1307.470985</ele>
        <time>2026-07-27T08:39:07.000Z</time>
      </trkpt>
      <trkpt lat="44.5088" lon="6.46245">
        <ele>1307.33362</ele>
        <time>2026-07-27T08:39:08.000Z</time>
      </trkpt>
      <trkpt lat="44.50877" lon="6.46248">
        <ele>1307.224008</ele>
        <time>2026-07-27T08:39:09.000Z</time>
      </trkpt>
      <trkpt lat="44.50874" lon="6.46251">
        <ele>1307.127162</ele>
        <time>2026-07-27T08:39:10.000Z</time>
      </trkpt>
      <trkpt lat="44.50871" lon="6.46254">
        <ele>1307.036475</ele>
        <time>2026-07-27T08:39:11.000Z</time>
      </trkpt>
      <trkpt lat="44.50868" lon="6.46258">
        <ele>1306.926867</ele>
        <time>2026-07-27T08:39:12.000Z</time>
      </trkpt>
      <trkpt lat="44.50868" lon="6.46258">
        <ele>1306.926867</ele>
        <time>2026-07-27T08:39:13.000Z</time>
      </trkpt>
      <trkpt lat="44.50868" lon="6.46258">
        <ele>1306.926867</ele>
        <time>2026-07-27T08:40:31.000Z</time>
      </trkpt>
      <trkpt lat="44.50835" lon="6.46303">
        <ele>1305.729138</ele>
        <time>2026-07-27T08:40:39.000Z</time>
      </trkpt>
      <trkpt lat="44.50835" lon="6.46303">
        <ele>1305.729138</ele>
        <time>2026-07-27T08:40:39.000Z</time>
      </trkpt>
      <trkpt lat="44.50835" lon="6.46302">
        <ele>1305.703192</ele>
        <time>2026-07-27T08:41:11.000Z</time>
      </trkpt>
      <trkpt lat="44.50833" lon="6.46304">
        <ele>1305.64032</ele>
        <time>2026-07-27T08:41:12.000Z</time>
      </trkpt>
      <trkpt lat="44.5083" lon="6.46308">
        <ele>1305.534006</ele>
        <time>2026-07-27T08:41:14.000Z</time>
      </trkpt>
      <trkpt lat="44.5083" lon="6.46308">
        <ele>1305.534006</ele>
        <time>2026-07-27T08:41:14.000Z</time>
      </trkpt>
      <trkpt lat="44.50829" lon="6.46309">
        <ele>1305.492229</ele>
        <time>2026-07-27T08:41:15.000Z</time>
      </trkpt>
      <trkpt lat="44.50828" lon="6.46311">
        <ele>1305.448296</ele>
        <time>2026-07-27T08:41:16.000Z</time>
      </trkpt>
      <trkpt lat="44.50828" lon="6.46311">
        <ele>1305.448296</ele>
        <time>2026-07-27T08:41:16.000Z</time>
      </trkpt>
      <trkpt lat="44.50827" lon="6.46313">
        <ele>1305.401259</ele>
        <time>2026-07-27T08:41:16.000Z</time>
      </trkpt>
      <trkpt lat="44.50826" lon="6.46314">
        <ele>1305.368036</ele>
        <time>2026-07-27T08:41:18.000Z</time>
      </trkpt>
      <trkpt lat="44.50826" lon="6.46314">
        <ele>1305.368036</ele>
        <time>2026-07-27T08:41:18.000Z</time>
      </trkpt>
      <trkpt lat="44.50823" lon="6.46318">
        <ele>1305.265961</ele>
        <time>2026-07-27T08:41:20.000Z</time>
      </trkpt>
      <trkpt lat="44.50823" lon="6.46318">
        <ele>1305.265961</ele>
        <time>2026-07-27T08:41:20.000Z</time>
      </trkpt>
      <trkpt lat="44.50822" lon="6.4632">
        <ele>1305.229743</ele>
        <time>2026-07-27T08:41:21.000Z</time>
      </trkpt>
      <trkpt lat="44.50821" lon="6.46321">
        <ele>1305.189175</ele>
        <time>2026-07-27T08:41:21.000Z</time>
      </trkpt>
      <trkpt lat="44.50821" lon="6.46321">
        <ele>1305.189175</ele>
        <time>2026-07-27T08:41:21.000Z</time>
      </trkpt>
      <trkpt lat="44.50819" lon="6.46322">
        <ele>1305.141295</ele>
        <time>2026-07-27T08:41:23.000Z</time>
      </trkpt>
      <trkpt lat="44.50819" lon="6.46322">
        <ele>1305.141295</ele>
        <time>2026-07-27T08:41:23.000Z</time>
      </trkpt>
      <trkpt lat="44.50818" lon="6.46324">
        <ele>1305.098753</ele>
        <time>2026-07-27T08:41:24.000Z</time>
      </trkpt>
      <trkpt lat="44.50817" lon="6.46326">
        <ele>1305.050313</ele>
        <time>2026-07-27T08:41:25.000Z</time>
      </trkpt>
      <trkpt lat="44.50817" lon="6.46326">
        <ele>1305.050313</ele>
        <time>2026-07-27T08:41:25.000Z</time>
      </trkpt>
      <trkpt lat="44.50817" lon="6.46326">
        <ele>1305.050313</ele>
        <time>2026-07-27T08:41:26.000Z</time>
      </trkpt>
      <trkpt lat="44.50814" lon="6.46332">
        <ele>1304.923449</ele>
        <time>2026-07-27T08:41:27.000Z</time>
      </trkpt>
      <trkpt lat="44.50814" lon="6.46332">
        <ele>1304.923449</ele>
        <time>2026-07-27T08:41:27.000Z</time>
      </trkpt>
      <trkpt lat="44.50814" lon="6.46333">
        <ele>1304.895498</ele>
        <time>2026-07-27T08:41:28.000Z</time>
      </trkpt>
      <trkpt lat="44.50814" lon="6.46333">
        <ele>1304.895498</ele>
        <time>2026-07-27T08:41:28.000Z</time>
      </trkpt>
      <trkpt lat="44.50813" lon="6.46335">
        <ele>1304.852465</ele>
        <time>2026-07-27T08:41:29.000Z</time>
      </trkpt>
      <trkpt lat="44.50813" lon="6.46335">
        <ele>1304.852465</ele>
        <time>2026-07-27T08:41:29.000Z</time>
      </trkpt>
      <trkpt lat="44.50811" lon="6.46336">
        <ele>1304.808532</ele>
        <time>2026-07-27T08:41:30.000Z</time>
      </trkpt>
      <trkpt lat="44.50811" lon="6.46336">
        <ele>1304.808532</ele>
        <time>2026-07-27T08:41:30.000Z</time>
      </trkpt>
      <trkpt lat="44.5081" lon="6.46338">
        <ele>1304.74566</ele>
        <time>2026-07-27T08:41:31.000Z</time>
      </trkpt>
      <trkpt lat="44.5081" lon="6.46338">
        <ele>1304.74566</ele>
        <time>2026-07-27T08:41:31.000Z</time>
      </trkpt>
      <trkpt lat="44.50808" lon="6.46341">
        <ele>1304.686516</ele>
        <time>2026-07-27T08:41:32.000Z</time>
      </trkpt>
      <trkpt lat="44.50806" lon="6.46343">
        <ele>1304.621583</ele>
        <time>2026-07-27T08:41:33.000Z</time>
      </trkpt>
      <trkpt lat="44.50806" lon="6.46343">
        <ele>1304.621583</ele>
        <time>2026-07-27T08:41:33.000Z</time>
      </trkpt>
      <trkpt lat="44.50804" lon="6.46345">
        <ele>1304.555389</ele>
        <time>2026-07-27T08:41:34.000Z</time>
      </trkpt>
      <trkpt lat="44.50802" lon="6.46346">
        <ele>1304.489468</ele>
        <time>2026-07-27T08:41:35.000Z</time>
      </trkpt>
      <trkpt lat="44.50802" lon="6.46346">
        <ele>1304.489468</ele>
        <time>2026-07-27T08:41:35.000Z</time>
      </trkpt>
      <trkpt lat="44.50799" lon="6.46348">
        <ele>1304.422745</ele>
        <time>2026-07-27T08:41:36.000Z</time>
      </trkpt>
      <trkpt lat="44.50799" lon="6.46348">
        <ele>1304.422745</ele>
        <time>2026-07-27T08:41:36.000Z</time>
      </trkpt>
      <trkpt lat="44.50796" lon="6.4635">
        <ele>1304.323067</ele>
        <time>2026-07-27T08:41:37.000Z</time>
      </trkpt>
      <trkpt lat="44.50796" lon="6.4635">
        <ele>1304.323067</ele>
        <time>2026-07-27T08:41:37.000Z</time>
      </trkpt>
      <trkpt lat="44.50792" lon="6.46352">
        <ele>1304.215505</ele>
        <time>2026-07-27T08:41:38.000Z</time>
      </trkpt>
      <trkpt lat="44.50792" lon="6.46352">
        <ele>1304.215505</ele>
        <time>2026-07-27T08:41:38.000Z</time>
      </trkpt>
      <trkpt lat="44.50788" lon="6.46355">
        <ele>1304.103947</ele>
        <time>2026-07-27T08:41:39.000Z</time>
      </trkpt>
      <trkpt lat="44.50788" lon="6.46355">
        <ele>1304.103947</ele>
        <time>2026-07-27T08:41:39.000Z</time>
      </trkpt>
      <trkpt lat="44.50784" lon="6.46359">
        <ele>1303.970953</ele>
        <time>2026-07-27T08:41:40.000Z</time>
      </trkpt>
      <trkpt lat="44.50784" lon="6.46359">
        <ele>1303.970953</ele>
        <time>2026-07-27T08:41:40.000Z</time>
      </trkpt>
      <trkpt lat="44.5078" lon="6.46364">
        <ele>1303.84049</ele>
        <time>2026-07-27T08:41:41.000Z</time>
      </trkpt>
      <trkpt lat="44.5078" lon="6.46364">
        <ele>1303.84049</ele>
        <time>2026-07-27T08:41:41.000Z</time>
      </trkpt>
      <trkpt lat="44.50776" lon="6.46369">
        <ele>1303.693649</ele>
        <time>2026-07-27T08:41:42.000Z</time>
      </trkpt>
      <trkpt lat="44.50776" lon="6.46369">
        <ele>1303.693649</ele>
        <time>2026-07-27T08:41:42.000Z</time>
      </trkpt>
      <trkpt lat="44.50772" lon="6.46375">
        <ele>1303.59858</ele>
        <time>2026-07-27T08:41:43.000Z</time>
      </trkpt>
      <trkpt lat="44.50772" lon="6.46375">
        <ele>1303.59858</ele>
        <time>2026-07-27T08:41:43.000Z</time>
      </trkpt>
      <trkpt lat="44.50769" lon="6.4638">
        <ele>1303.561116</ele>
        <time>2026-07-27T08:41:44.000Z</time>
      </trkpt>
      <trkpt lat="44.50769" lon="6.4638">
        <ele>1303.561116</ele>
        <time>2026-07-27T08:41:44.000Z</time>
      </trkpt>
      <trkpt lat="44.50766" lon="6.46385">
        <ele>1303.524133</ele>
        <time>2026-07-27T08:41:45.000Z</time>
      </trkpt>
      <trkpt lat="44.50766" lon="6.46385">
        <ele>1303.524133</ele>
        <time>2026-07-27T08:41:45.000Z</time>
      </trkpt>
      <trkpt lat="44.50764" lon="6.4639">
        <ele>1303.495551</ele>
        <time>2026-07-27T08:41:46.000Z</time>
      </trkpt>
      <trkpt lat="44.50764" lon="6.4639">
        <ele>1303.495551</ele>
        <time>2026-07-27T08:41:46.000Z</time>
      </trkpt>
      <trkpt lat="44.50763" lon="6.46394">
        <ele>1303.47085</ele>
        <time>2026-07-27T08:41:47.000Z</time>
      </trkpt>
      <trkpt lat="44.50761" lon="6.46397">
        <ele>1303.446809</ele>
        <time>2026-07-27T08:41:48.000Z</time>
      </trkpt>
      <trkpt lat="44.50761" lon="6.46397">
        <ele>1303.446809</ele>
        <time>2026-07-27T08:41:48.000Z</time>
      </trkpt>
      <trkpt lat="44.5076" lon="6.46401">
        <ele>1303.426563</ele>
        <time>2026-07-27T08:41:49.000Z</time>
      </trkpt>
      <trkpt lat="44.5076" lon="6.46401">
        <ele>1303.426563</ele>
        <time>2026-07-27T08:41:49.000Z</time>
      </trkpt>
      <trkpt lat="44.50758" lon="6.46404">
        <ele>1303.406088</ele>
        <time>2026-07-27T08:41:50.000Z</time>
      </trkpt>
      <trkpt lat="44.50757" lon="6.46406">
        <ele>1303.386948</ele>
        <time>2026-07-27T08:41:51.000Z</time>
      </trkpt>
      <trkpt lat="44.50755" lon="6.46409">
        <ele>1303.365424</ele>
        <time>2026-07-27T08:41:52.000Z</time>
      </trkpt>
      <trkpt lat="44.50755" lon="6.46409">
        <ele>1303.365424</ele>
        <time>2026-07-27T08:41:52.000Z</time>
      </trkpt>
      <trkpt lat="44.50752" lon="6.46413">
        <ele>1303.339811</ele>
        <time>2026-07-27T08:41:53.000Z</time>
      </trkpt>
      <trkpt lat="44.5075" lon="6.46416">
        <ele>1303.31747</ele>
        <time>2026-07-27T08:41:54.000Z</time>
      </trkpt>
      <trkpt lat="44.50748" lon="6.46419">
        <ele>1303.291458</ele>
        <time>2026-07-27T08:41:55.000Z</time>
      </trkpt>
      <trkpt lat="44.50746" lon="6.46422">
        <ele>1303.269934</ele>
        <time>2026-07-27T08:41:56.000Z</time>
      </trkpt>
      <trkpt lat="44.50744" lon="6.46426">
        <ele>1303.243517</ele>
        <time>2026-07-27T08:41:57.000Z</time>
      </trkpt>
      <trkpt lat="44.50741" lon="6.46429">
        <ele>1303.216773</ele>
        <time>2026-07-27T08:41:58.000Z</time>
      </trkpt>
      <trkpt lat="44.50741" lon="6.46429">
        <ele>1303.216773</ele>
        <time>2026-07-27T08:41:58.000Z</time>
      </trkpt>
      <trkpt lat="44.50739" lon="6.46432">
        <ele>1303.189679</ele>
        <time>2026-07-27T08:41:59.000Z</time>
      </trkpt>
      <trkpt lat="44.50735" lon="6.46435">
        <ele>1303.158892</ele>
        <time>2026-07-27T08:42:00.000Z</time>
      </trkpt>
      <trkpt lat="44.50735" lon="6.46435">
        <ele>1303.158892</ele>
        <time>2026-07-27T08:42:00.000Z</time>
      </trkpt>
      <trkpt lat="44.50732" lon="6.46438">
        <ele>1303.132827</ele>
        <time>2026-07-27T08:42:01.000Z</time>
      </trkpt>
      <trkpt lat="44.5073" lon="6.46441">
        <ele>1303.106082</ele>
        <time>2026-07-27T08:42:02.000Z</time>
      </trkpt>
      <trkpt lat="44.50728" lon="6.46444">
        <ele>1303.08472</ele>
        <time>2026-07-27T08:42:03.000Z</time>
      </trkpt>
      <trkpt lat="44.50725" lon="6.46446">
        <ele>1303.062417</ele>
        <time>2026-07-27T08:42:04.000Z</time>
      </trkpt>
      <trkpt lat="44.50723" lon="6.46449">
        <ele>1303.039428</ele>
        <time>2026-07-27T08:42:04.000Z</time>
      </trkpt>
      <trkpt lat="44.50721" lon="6.46451">
        <ele>1303.022394</ele>
        <time>2026-07-27T08:42:06.000Z</time>
      </trkpt>
      <trkpt lat="44.5072" lon="6.46453">
        <ele>1303.004833</ele>
        <time>2026-07-27T08:42:07.000Z</time>
      </trkpt>
      <trkpt lat="44.50718" lon="6.46456">
        <ele>1302.980383</ele>
        <time>2026-07-27T08:42:08.000Z</time>
      </trkpt>
      <trkpt lat="44.50718" lon="6.46456">
        <ele>1302.980383</ele>
        <time>2026-07-27T08:42:08.000Z</time>
      </trkpt>
      <trkpt lat="44.50715" lon="6.4646">
        <ele>1302.955693</ele>
        <time>2026-07-27T08:42:09.000Z</time>
      </trkpt>
      <trkpt lat="44.50713" lon="6.46462">
        <ele>1302.934791</ele>
        <time>2026-07-27T08:42:10.000Z</time>
      </trkpt>
      <trkpt lat="44.50712" lon="6.46465">
        <ele>1302.915651</ele>
        <time>2026-07-27T08:42:11.000Z</time>
      </trkpt>
      <trkpt lat="44.5071" lon="6.46467">
        <ele>1302.900159</ele>
        <time>2026-07-27T08:42:12.000Z</time>
      </trkpt>
      <trkpt lat="44.5071" lon="6.46469">
        <ele>1302.889027</ele>
        <time>2026-07-27T08:42:13.000Z</time>
      </trkpt>
      <trkpt lat="44.5071" lon="6.46469">
        <ele>1302.889027</ele>
        <time>2026-07-27T08:42:14.000Z</time>
      </trkpt>
      <trkpt lat="44.50708" lon="6.46474">
        <ele>1302.859022</ele>
        <time>2026-07-27T08:42:15.000Z</time>
      </trkpt>
      <trkpt lat="44.50707" lon="6.46475">
        <ele>1302.849238</ele>
        <time>2026-07-27T08:42:16.000Z</time>
      </trkpt>
      <trkpt lat="44.50707" lon="6.46477">
        <ele>1302.836568</ele>
        <time>2026-07-27T08:42:17.000Z</time>
      </trkpt>
      <trkpt lat="44.50705" lon="6.4648">
        <ele>1302.820992</ele>
        <time>2026-07-27T08:42:18.000Z</time>
      </trkpt>
      <trkpt lat="44.50705" lon="6.4648">
        <ele>1302.820992</ele>
        <time>2026-07-27T08:42:18.000Z</time>
      </trkpt>
      <trkpt lat="44.50705" lon="6.46482">
        <ele>1302.808322</ele>
        <time>2026-07-27T08:42:19.000Z</time>
      </trkpt>
      <trkpt lat="44.50704" lon="6.46483">
        <ele>1302.79957</ele>
        <time>2026-07-27T08:42:20.000Z</time>
      </trkpt>
      <trkpt lat="44.50702" lon="6.46488">
        <ele>1302.770987</ele>
        <time>2026-07-27T08:42:22.000Z</time>
      </trkpt>
      <trkpt lat="44.50702" lon="6.46488">
        <ele>1302.770987</ele>
        <time>2026-07-27T08:42:22.000Z</time>
      </trkpt>
      <trkpt lat="44.50702" lon="6.46489">
        <ele>1302.764238</ele>
        <time>2026-07-27T08:42:23.000Z</time>
      </trkpt>
      <trkpt lat="44.50702" lon="6.46489">
        <ele>1302.764238</ele>
        <time>2026-07-27T08:42:34.000Z</time>
      </trkpt>
      <trkpt lat="44.50701" lon="6.46493">
        <ele>1302.742058</ele>
        <time>2026-07-27T08:42:35.000Z</time>
      </trkpt>
      <trkpt lat="44.50699" lon="6.46496">
        <ele>1302.715181</ele>
        <time>2026-07-27T08:42:36.000Z</time>
      </trkpt>
      <trkpt lat="44.50697" lon="6.46497">
        <ele>1302.703885</ele>
        <time>2026-07-27T08:42:38.000Z</time>
      </trkpt>
      <trkpt lat="44.50696" lon="6.46499">
        <ele>1302.688394</ele>
        <time>2026-07-27T08:42:39.000Z</time>
      </trkpt>
      <trkpt lat="44.50694" lon="6.46502">
        <ele>1302.665405</ele>
        <time>2026-07-27T08:42:40.000Z</time>
      </trkpt>
      <trkpt lat="44.50694" lon="6.46502">
        <ele>1302.665405</ele>
        <time>2026-07-27T08:42:40.000Z</time>
      </trkpt>
      <trkpt lat="44.50691" lon="6.46505">
        <ele>1302.641699</ele>
        <time>2026-07-27T08:42:41.000Z</time>
      </trkpt>
      <trkpt lat="44.50689" lon="6.46508">
        <ele>1302.613696</ele>
        <time>2026-07-27T08:42:42.000Z</time>
      </trkpt>
      <trkpt lat="44.50686" lon="6.46512">
        <ele>1302.584378</ele>
        <time>2026-07-27T08:42:43.000Z</time>
      </trkpt>
      <trkpt lat="44.50683" lon="6.46516">
        <ele>1302.553876</ele>
        <time>2026-07-27T08:42:44.000Z</time>
      </trkpt>
      <trkpt lat="44.50681" lon="6.4652">
        <ele>1302.525365</ele>
        <time>2026-07-27T08:42:45.000Z</time>
      </trkpt>
      <trkpt lat="44.50678" lon="6.46524">
        <ele>1302.493638</ele>
        <time>2026-07-27T08:42:46.000Z</time>
      </trkpt>
      <trkpt lat="44.50676" lon="6.46528">
        <ele>1302.467625</ele>
        <time>2026-07-27T08:42:47.000Z</time>
      </trkpt>
      <trkpt lat="44.50674" lon="6.46531">
        <ele>1302.445285</ele>
        <time>2026-07-27T08:42:48.000Z</time>
      </trkpt>
      <trkpt lat="44.50672" lon="6.46535">
        <ele>1302.420365</ele>
        <time>2026-07-27T08:42:49.000Z</time>
      </trkpt>
      <trkpt lat="44.5067" lon="6.46538">
        <ele>1302.399449</ele>
        <time>2026-07-27T08:42:50.000Z</time>
      </trkpt>
      <trkpt lat="44.50669" lon="6.4654">
        <ele>1302.381171</ele>
        <time>2026-07-27T08:42:51.000Z</time>
      </trkpt>
      <trkpt lat="44.50667" lon="6.46543">
        <ele>1302.359242</ele>
        <time>2026-07-27T08:42:52.000Z</time>
      </trkpt>
      <trkpt lat="44.50665" lon="6.46546">
        <ele>1302.33851</ele>
        <time>2026-07-27T08:42:53.000Z</time>
      </trkpt>
      <trkpt lat="44.50665" lon="6.46546">
        <ele>1302.33851</ele>
        <time>2026-07-27T08:42:53.000Z</time>
      </trkpt>
      <trkpt lat="44.50663" lon="6.46548">
        <ele>1302.323018</ele>
        <time>2026-07-27T08:42:54.000Z</time>
      </trkpt>
      <trkpt lat="44.50661" lon="6.46551">
        <ele>1302.296616</ele>
        <time>2026-07-27T08:42:55.000Z</time>
      </trkpt>
      <trkpt lat="44.50658" lon="6.46554">
        <ele>1302.268436</ele>
        <time>2026-07-27T08:42:56.000Z</time>
      </trkpt>
      <trkpt lat="44.50656" lon="6.46558">
        <ele>1302.242823</ele>
        <time>2026-07-27T08:42:57.000Z</time>
      </trkpt>
      <trkpt lat="44.50653" lon="6.46562">
        <ele>1302.259645</ele>
        <time>2026-07-27T08:42:58.000Z</time>
      </trkpt>
      <trkpt lat="44.5065" lon="6.46566">
        <ele>1302.282707</ele>
        <time>2026-07-27T08:42:59.000Z</time>
      </trkpt>
      <trkpt lat="44.50648" lon="6.4657">
        <ele>1302.306076</ele>
        <time>2026-07-27T08:43:00.000Z</time>
      </trkpt>
      <trkpt lat="44.50645" lon="6.46573">
        <ele>1302.327548</ele>
        <time>2026-07-27T08:43:00.000Z</time>
      </trkpt>
      <trkpt lat="44.50643" lon="6.46577">
        <ele>1302.350512</ele>
        <time>2026-07-27T08:43:02.000Z</time>
      </trkpt>
      <trkpt lat="44.50643" lon="6.46577">
        <ele>1302.350512</ele>
        <time>2026-07-27T08:43:02.000Z</time>
      </trkpt>
      <trkpt lat="44.5064" lon="6.46582">
        <ele>1302.376158</ele>
        <time>2026-07-27T08:43:03.000Z</time>
      </trkpt>
      <trkpt lat="44.50637" lon="6.46585">
        <ele>1302.396984</ele>
        <time>2026-07-27T08:43:04.000Z</time>
      </trkpt>
      <trkpt lat="44.50635" lon="6.46589">
        <ele>1302.418135</ele>
        <time>2026-07-27T08:43:05.000Z</time>
      </trkpt>
      <trkpt lat="44.50632" lon="6.46592">
        <ele>1302.440545</ele>
        <time>2026-07-27T08:43:06.000Z</time>
      </trkpt>
      <trkpt lat="44.50629" lon="6.46594">
        <ele>1302.461094</ele>
        <time>2026-07-27T08:43:07.000Z</time>
      </trkpt>
      <trkpt lat="44.50629" lon="6.46594">
        <ele>1302.461094</ele>
        <time>2026-07-27T08:43:07.000Z</time>
      </trkpt>
      <trkpt lat="44.50626" lon="6.46597">
        <ele>1302.482806</ele>
        <time>2026-07-27T08:43:08.000Z</time>
      </trkpt>
      <trkpt lat="44.50622" lon="6.466">
        <ele>1302.508345</ele>
        <time>2026-07-27T08:43:09.000Z</time>
      </trkpt>
      <trkpt lat="44.50618" lon="6.46603">
        <ele>1302.532707</ele>
        <time>2026-07-27T08:43:10.000Z</time>
      </trkpt>
      <trkpt lat="44.50615" lon="6.46606">
        <ele>1302.558532</ele>
        <time>2026-07-27T08:43:11.000Z</time>
      </trkpt>
      <trkpt lat="44.50612" lon="6.4661">
        <ele>1302.5844</ele>
        <time>2026-07-27T08:43:12.000Z</time>
      </trkpt>
      <trkpt lat="44.50612" lon="6.4661">
        <ele>1302.5844</ele>
        <time>2026-07-27T08:43:12.000Z</time>
      </trkpt>
      <trkpt lat="44.50608" lon="6.46614">
        <ele>1302.607556</ele>
        <time>2026-07-27T08:43:13.000Z</time>
      </trkpt>
      <trkpt lat="44.50606" lon="6.46617">
        <ele>1302.626416</ele>
        <time>2026-07-27T08:43:14.000Z</time>
      </trkpt>
      <trkpt lat="44.50604" lon="6.46619">
        <ele>1302.643223</ele>
        <time>2026-07-27T08:43:15.000Z</time>
      </trkpt>
      <trkpt lat="44.50604" lon="6.46619">
        <ele>1302.643223</ele>
        <time>2026-07-27T08:43:15.000Z</time>
      </trkpt>
      <trkpt lat="44.50601" lon="6.46622">
        <ele>1302.662473</ele>
        <time>2026-07-27T08:43:16.000Z</time>
      </trkpt>
      <trkpt lat="44.50599" lon="6.46623">
        <ele>1302.677941</ele>
        <time>2026-07-27T08:43:17.000Z</time>
      </trkpt>
      <trkpt lat="44.50599" lon="6.46623">
        <ele>1302.677941</ele>
        <time>2026-07-27T08:43:17.000Z</time>
      </trkpt>
      <trkpt lat="44.50597" lon="6.46625">
        <ele>1302.690914</ele>
        <time>2026-07-27T08:43:18.000Z</time>
      </trkpt>
      <trkpt lat="44.50597" lon="6.46625">
        <ele>1302.690914</ele>
        <time>2026-07-27T08:43:19.000Z</time>
      </trkpt>
      <trkpt lat="44.50593" lon="6.46628">
        <ele>1302.71707</ele>
        <time>2026-07-27T08:43:20.000Z</time>
      </trkpt>
      <trkpt lat="44.50593" lon="6.46628">
        <ele>1302.71707</ele>
        <time>2026-07-27T08:43:21.000Z</time>
      </trkpt>
      <trkpt lat="44.50593" lon="6.46628">
        <ele>1302.71707</ele>
        <time>2026-07-27T08:43:47.000Z</time>
      </trkpt>
      <trkpt lat="44.50591" lon="6.4663">
        <ele>1302.735237</ele>
        <time>2026-07-27T08:43:47.000Z</time>
      </trkpt>
      <trkpt lat="44.50591" lon="6.4663">
        <ele>1302.735237</ele>
        <time>2026-07-27T08:43:48.000Z</time>
      </trkpt>
      <trkpt lat="44.50588" lon="6.46631">
        <ele>1302.751851</ele>
        <time>2026-07-27T08:43:49.000Z</time>
      </trkpt>
      <trkpt lat="44.50585" lon="6.4663">
        <ele>1302.7703</ele>
        <time>2026-07-27T08:43:51.000Z</time>
      </trkpt>
      <trkpt lat="44.50585" lon="6.4663">
        <ele>1302.7703</ele>
        <time>2026-07-27T08:43:51.000Z</time>
      </trkpt>
      <trkpt lat="44.50583" lon="6.46628">
        <ele>1302.781775</ele>
        <time>2026-07-27T08:43:52.000Z</time>
      </trkpt>
      <trkpt lat="44.50581" lon="6.46627">
        <ele>1302.796692</ele>
        <time>2026-07-27T08:43:53.000Z</time>
      </trkpt>
      <trkpt lat="44.5058" lon="6.46626">
        <ele>1302.806763</ele>
        <time>2026-07-27T08:43:54.000Z</time>
      </trkpt>
      <trkpt lat="44.50578" lon="6.46625">
        <ele>1302.819027</ele>
        <time>2026-07-27T08:43:55.000Z</time>
      </trkpt>
      <trkpt lat="44.50576" lon="6.46625">
        <ele>1302.825694</ele>
        <time>2026-07-27T08:43:57.000Z</time>
      </trkpt>
      <trkpt lat="44.50574" lon="6.46623">
        <ele>1302.840152</ele>
        <time>2026-07-27T08:43:59.000Z</time>
      </trkpt>
      <trkpt lat="44.50573" lon="6.46623">
        <ele>1302.844826</ele>
        <time>2026-07-27T08:43:59.000Z</time>
      </trkpt>
      <trkpt lat="44.50573" lon="6.46623">
        <ele>1302.844826</ele>
        <time>2026-07-27T08:43:59.000Z</time>
      </trkpt>
      <trkpt lat="44.50572" lon="6.46622">
        <ele>1302.854932</ele>
        <time>2026-07-27T08:44:00.000Z</time>
      </trkpt>
      <trkpt lat="44.5057" lon="6.46621">
        <ele>1302.86751</ele>
        <time>2026-07-27T08:44:01.000Z</time>
      </trkpt>
      <trkpt lat="44.50568" lon="6.46619">
        <ele>1302.881394</ele>
        <time>2026-07-27T08:44:03.000Z</time>
      </trkpt>
      <trkpt lat="44.50568" lon="6.46619">
        <ele>1302.881394</ele>
        <time>2026-07-27T08:44:03.000Z</time>
      </trkpt>
      <trkpt lat="44.50567" lon="6.46617">
        <ele>1302.891452</ele>
        <time>2026-07-27T08:44:03.000Z</time>
      </trkpt>
      <trkpt lat="44.50567" lon="6.46615">
        <ele>1302.899858</ele>
        <time>2026-07-27T08:44:04.000Z</time>
      </trkpt>
      <trkpt lat="44.50566" lon="6.46612">
        <ele>1302.913448</ele>
        <time>2026-07-27T08:44:05.000Z</time>
      </trkpt>
      <trkpt lat="44.50565" lon="6.46609">
        <ele>1302.926397</ele>
        <time>2026-07-27T08:44:06.000Z</time>
      </trkpt>
      <trkpt lat="44.50564" lon="6.46607">
        <ele>1302.939591</ele>
        <time>2026-07-27T08:44:07.000Z</time>
      </trkpt>
      <trkpt lat="44.50563" lon="6.46604">
        <ele>1302.953452</ele>
        <time>2026-07-27T08:44:08.000Z</time>
      </trkpt>
      <trkpt lat="44.50562" lon="6.46601">
        <ele>1302.968311</ele>
        <time>2026-07-27T08:44:10.000Z</time>
      </trkpt>
      <trkpt lat="44.5056" lon="6.46599">
        <ele>1302.981225</ele>
        <time>2026-07-27T08:44:11.000Z</time>
      </trkpt>
      <trkpt lat="44.50558" lon="6.46597">
        <ele>1302.99536</ele>
        <time>2026-07-27T08:44:12.000Z</time>
      </trkpt>
      <trkpt lat="44.50558" lon="6.46597">
        <ele>1302.99536</ele>
        <time>2026-07-27T08:44:12.000Z</time>
      </trkpt>
      <trkpt lat="44.50556" lon="6.46594">
        <ele>1303.012937</ele>
        <time>2026-07-27T08:44:12.000Z</time>
      </trkpt>
      <trkpt lat="44.50554" lon="6.46592">
        <ele>1303.026346</ele>
        <time>2026-07-27T08:44:14.000Z</time>
      </trkpt>
      <trkpt lat="44.50552" lon="6.4659">
        <ele>1303.041006</ele>
        <time>2026-07-27T08:44:14.000Z</time>
      </trkpt>
      <trkpt lat="44.50552" lon="6.4659">
        <ele>1303.041006</ele>
        <time>2026-07-27T08:44:14.000Z</time>
      </trkpt>
      <trkpt lat="44.5055" lon="6.46587">
        <ele>1303.059128</ele>
        <time>2026-07-27T08:44:15.000Z</time>
      </trkpt>
      <trkpt lat="44.50547" lon="6.46585">
        <ele>1303.079107</ele>
        <time>2026-07-27T08:44:17.000Z</time>
      </trkpt>
      <trkpt lat="44.50547" lon="6.46585">
        <ele>1303.079107</ele>
        <time>2026-07-27T08:44:17.000Z</time>
      </trkpt>
      <trkpt lat="44.50545" lon="6.46582">
        <ele>1303.09751</ele>
        <time>2026-07-27T08:44:17.000Z</time>
      </trkpt>
      <trkpt lat="44.50542" lon="6.46579">
        <ele>1303.115356</ele>
        <time>2026-07-27T08:44:19.000Z</time>
      </trkpt>
      <trkpt lat="44.50542" lon="6.46579">
        <ele>1303.115356</ele>
        <time>2026-07-27T08:44:19.000Z</time>
      </trkpt>
      <trkpt lat="44.5054" lon="6.46576">
        <ele>1303.133321</ele>
        <time>2026-07-27T08:44:19.000Z</time>
      </trkpt>
      <trkpt lat="44.50538" lon="6.46574">
        <ele>1303.149116</ele>
        <time>2026-07-27T08:44:21.000Z</time>
      </trkpt>
      <trkpt lat="44.50538" lon="6.46574">
        <ele>1303.149116</ele>
        <time>2026-07-27T08:44:21.000Z</time>
      </trkpt>
      <trkpt lat="44.50536" lon="6.46571">
        <ele>1303.166233</ele>
        <time>2026-07-27T08:44:21.000Z</time>
      </trkpt>
      <trkpt lat="44.50535" lon="6.46568">
        <ele>1303.181092</ele>
        <time>2026-07-27T08:44:23.000Z</time>
      </trkpt>
      <trkpt lat="44.50535" lon="6.46568">
        <ele>1303.181092</ele>
        <time>2026-07-27T08:44:23.000Z</time>
      </trkpt>
      <trkpt lat="44.50533" lon="6.46565">
        <ele>1303.196594</ele>
        <time>2026-07-27T08:44:24.000Z</time>
      </trkpt>
      <trkpt lat="44.50533" lon="6.46565">
        <ele>1303.196594</ele>
        <time>2026-07-27T08:44:24.000Z</time>
      </trkpt>
      <trkpt lat="44.50531" lon="6.46562">
        <ele>1303.213303</ele>
        <time>2026-07-27T08:44:25.000Z</time>
      </trkpt>
      <trkpt lat="44.5053" lon="6.4656">
        <ele>1303.228162</ele>
        <time>2026-07-27T08:44:25.000Z</time>
      </trkpt>
      <trkpt lat="44.5053" lon="6.4656">
        <ele>1303.228162</ele>
        <time>2026-07-27T08:44:25.000Z</time>
      </trkpt>
      <trkpt lat="44.50528" lon="6.46557">
        <ele>1303.243095</ele>
        <time>2026-07-27T08:44:27.000Z</time>
      </trkpt>
      <trkpt lat="44.50526" lon="6.46555">
        <ele>1303.25919</ele>
        <time>2026-07-27T08:44:28.000Z</time>
      </trkpt>
      <trkpt lat="44.50524" lon="6.46553">
        <ele>1303.270641</ele>
        <time>2026-07-27T08:44:29.000Z</time>
      </trkpt>
      <trkpt lat="44.50524" lon="6.46553">
        <ele>1303.270641</ele>
        <time>2026-07-27T08:44:29.000Z</time>
      </trkpt>
      <trkpt lat="44.50522" lon="6.46553">
        <ele>1303.283839</ele>
        <time>2026-07-27T08:44:29.000Z</time>
      </trkpt>
      <trkpt lat="44.5052" lon="6.46553">
        <ele>1303.295768</ele>
        <time>2026-07-27T08:44:30.000Z</time>
      </trkpt>
      <trkpt lat="44.5052" lon="6.46553">
        <ele>1303.295768</ele>
        <time>2026-07-27T08:44:30.000Z</time>
      </trkpt>
      <trkpt lat="44.50518" lon="6.46554">
        <ele>1303.30919</ele>
        <time>2026-07-27T08:44:31.000Z</time>
      </trkpt>
      <trkpt lat="44.50515" lon="6.46555">
        <ele>1303.433413</ele>
        <time>2026-07-27T08:44:33.000Z</time>
      </trkpt>
      <trkpt lat="44.50515" lon="6.46555">
        <ele>1303.433413</ele>
        <time>2026-07-27T08:44:33.000Z</time>
      </trkpt>
      <trkpt lat="44.50513" lon="6.46556">
        <ele>1303.545143</ele>
        <time>2026-07-27T08:44:34.000Z</time>
      </trkpt>
      <trkpt lat="44.50513" lon="6.46556">
        <ele>1303.545143</ele>
        <time>2026-07-27T08:44:34.000Z</time>
      </trkpt>
      <trkpt lat="44.50511" lon="6.46557">
        <ele>1303.639654</ele>
        <time>2026-07-27T08:44:34.000Z</time>
      </trkpt>
      <trkpt lat="44.50509" lon="6.46558">
        <ele>1303.738339</ele>
        <time>2026-07-27T08:44:35.000Z</time>
      </trkpt>
      <trkpt lat="44.50509" lon="6.46558">
        <ele>1303.738339</ele>
        <time>2026-07-27T08:44:35.000Z</time>
      </trkpt>
      <trkpt lat="44.50507" lon="6.4656">
        <ele>1303.856386</ele>
        <time>2026-07-27T08:44:37.000Z</time>
      </trkpt>
      <trkpt lat="44.50507" lon="6.4656">
        <ele>1303.856386</ele>
        <time>2026-07-27T08:44:37.000Z</time>
      </trkpt>
      <trkpt lat="44.50505" lon="6.46561">
        <ele>1303.953589</ele>
        <time>2026-07-27T08:44:37.000Z</time>
      </trkpt>
      <trkpt lat="44.50505" lon="6.46561">
        <ele>1303.953589</ele>
        <time>2026-07-27T08:44:37.000Z</time>
      </trkpt>
      <trkpt lat="44.50503" lon="6.46563">
        <ele>1304.052274</ele>
        <time>2026-07-27T08:44:39.000Z</time>
      </trkpt>
      <trkpt lat="44.50503" lon="6.46563">
        <ele>1304.052274</ele>
        <time>2026-07-27T08:44:39.000Z</time>
      </trkpt>
      <trkpt lat="44.50501" lon="6.46564">
        <ele>1304.154175</ele>
        <time>2026-07-27T08:44:40.000Z</time>
      </trkpt>
      <trkpt lat="44.50501" lon="6.46564">
        <ele>1304.154175</ele>
        <time>2026-07-27T08:44:40.000Z</time>
      </trkpt>
      <trkpt lat="44.50499" lon="6.46566">
        <ele>1304.246473</ele>
        <time>2026-07-27T08:44:40.000Z</time>
      </trkpt>
      <trkpt lat="44.50499" lon="6.46566">
        <ele>1304.246473</ele>
        <time>2026-07-27T08:44:40.000Z</time>
      </trkpt>
      <trkpt lat="44.50498" lon="6.46567">
        <ele>1304.331182</ele>
        <time>2026-07-27T08:44:42.000Z</time>
      </trkpt>
      <trkpt lat="44.50498" lon="6.46567">
        <ele>1304.331182</ele>
        <time>2026-07-27T08:44:42.000Z</time>
      </trkpt>
      <trkpt lat="44.50498" lon="6.46567">
        <ele>1304.331182</ele>
        <time>2026-07-27T08:44:42.000Z</time>
      </trkpt>
      <trkpt lat="44.50496" lon="6.4657">
        <ele>1304.475611</ele>
        <time>2026-07-27T08:44:43.000Z</time>
      </trkpt>
      <trkpt lat="44.50496" lon="6.4657">
        <ele>1304.475611</ele>
        <time>2026-07-27T08:44:43.000Z</time>
      </trkpt>
      <trkpt lat="44.50496" lon="6.4657">
        <ele>1304.475611</ele>
        <time>2026-07-27T08:44:44.000Z</time>
      </trkpt>
      <trkpt lat="44.50496" lon="6.4657">
        <ele>1304.475611</ele>
        <time>2026-07-27T08:44:46.000Z</time>
      </trkpt>
      <trkpt lat="44.50493" lon="6.46571">
        <ele>1304.5854</ele>
        <time>2026-07-27T08:45:23.000Z</time>
      </trkpt>
      <trkpt lat="44.50493" lon="6.46571">
        <ele>1304.5854</ele>
        <time>2026-07-27T08:45:23.000Z</time>
      </trkpt>
      <trkpt lat="44.50479" lon="6.46562">
        <ele>1305.319879</ele>
        <time>2026-07-27T08:57:52.000Z</time>
      </trkpt>
      <trkpt lat="44.50479" lon="6.46562">
        <ele>1305.319879</ele>
        <time>2026-07-27T08:57:52.000Z</time>
      </trkpt>
      <trkpt lat="44.50477" lon="6.46562">
        <ele>1305.388923</ele>
        <time>2026-07-27T08:57:53.000Z</time>
      </trkpt>
      <trkpt lat="44.50476" lon="6.46562">
        <ele>1305.458587</ele>
        <time>2026-07-27T08:57:54.000Z</time>
      </trkpt>
      <trkpt lat="44.50474" lon="6.46563">
        <ele>1305.550794</ele>
        <time>2026-07-27T08:57:55.000Z</time>
      </trkpt>
      <trkpt lat="44.50472" lon="6.46564">
        <ele>1305.631871</ele>
        <time>2026-07-27T08:57:56.000Z</time>
      </trkpt>
      <trkpt lat="44.50471" lon="6.46566">
        <ele>1305.712666</ele>
        <time>2026-07-27T08:57:57.000Z</time>
      </trkpt>
      <trkpt lat="44.5047" lon="6.46567">
        <ele>1305.754187</ele>
        <time>2026-07-27T08:57:58.000Z</time>
      </trkpt>
      <trkpt lat="44.50469" lon="6.46571">
        <ele>1305.887468</ele>
        <time>2026-07-27T08:57:59.000Z</time>
      </trkpt>
      <trkpt lat="44.50469" lon="6.46573">
        <ele>1305.979282</ele>
        <time>2026-07-27T08:58:00.000Z</time>
      </trkpt>
      <trkpt lat="44.5047" lon="6.46577">
        <ele>1306.111729</ele>
        <time>2026-07-27T08:58:01.000Z</time>
      </trkpt>
      <trkpt lat="44.5047" lon="6.46577">
        <ele>1306.111729</ele>
        <time>2026-07-27T08:58:01.000Z</time>
      </trkpt>
      <trkpt lat="44.5047" lon="6.4658">
        <ele>1306.210636</ele>
        <time>2026-07-27T08:58:02.000Z</time>
      </trkpt>
      <trkpt lat="44.50471" lon="6.46584">
        <ele>1306.329831</ele>
        <time>2026-07-27T08:58:03.000Z</time>
      </trkpt>
      <trkpt lat="44.50472" lon="6.46587">
        <ele>1306.452543</ele>
        <time>2026-07-27T08:58:04.000Z</time>
      </trkpt>
      <trkpt lat="44.50472" lon="6.4659">
        <ele>1306.555845</ele>
        <time>2026-07-27T08:58:05.000Z</time>
      </trkpt>
      <trkpt lat="44.50472" lon="6.46593">
        <ele>1306.655921</ele>
        <time>2026-07-27T08:58:06.000Z</time>
      </trkpt>
      <trkpt lat="44.50472" lon="6.46593">
        <ele>1306.655921</ele>
        <time>2026-07-27T08:58:06.000Z</time>
      </trkpt>
      <trkpt lat="44.50472" lon="6.46597">
        <ele>1306.781876</ele>
        <time>2026-07-27T08:58:07.000Z</time>
      </trkpt>
      <trkpt lat="44.50472" lon="6.46601">
        <ele>1306.898108</ele>
        <time>2026-07-27T08:58:08.000Z</time>
      </trkpt>
      <trkpt lat="44.5047" lon="6.46604">
        <ele>1307.011646</ele>
        <time>2026-07-27T08:58:08.000Z</time>
      </trkpt>
      <trkpt lat="44.5047" lon="6.46604">
        <ele>1307.011646</ele>
        <time>2026-07-27T08:58:08.000Z</time>
      </trkpt>
      <trkpt lat="44.50469" lon="6.46606">
        <ele>1307.11046</ele>
        <time>2026-07-27T08:58:10.000Z</time>
      </trkpt>
      <trkpt lat="44.50468" lon="6.46609">
        <ele>1307.197329</ele>
        <time>2026-07-27T08:58:10.000Z</time>
      </trkpt>
      <trkpt lat="44.50468" lon="6.46611">
        <ele>1307.276323</ele>
        <time>2026-07-27T08:58:12.000Z</time>
      </trkpt>
      <trkpt lat="44.50468" lon="6.46611">
        <ele>1307.276323</ele>
        <time>2026-07-27T08:58:12.000Z</time>
      </trkpt>
      <trkpt lat="44.50467" lon="6.46614">
        <ele>1307.369961</ele>
        <time>2026-07-27T08:58:14.000Z</time>
      </trkpt>
      <trkpt lat="44.50467" lon="6.46614">
        <ele>1307.369961</ele>
        <time>2026-07-27T08:58:14.000Z</time>
      </trkpt>
      <trkpt lat="44.50466" lon="6.46615">
        <ele>1307.438264</ele>
        <time>2026-07-27T08:58:17.000Z</time>
      </trkpt>
      <trkpt lat="44.50466" lon="6.46615">
        <ele>1307.438264</ele>
        <time>2026-07-27T08:58:17.000Z</time>
      </trkpt>
      <trkpt lat="44.50466" lon="6.46615">
        <ele>1307.438264</ele>
        <time>2026-07-27T08:58:23.000Z</time>
      </trkpt>
      <trkpt lat="44.50465" lon="6.46615">
        <ele>1307.514413</ele>
        <time>2026-07-27T08:58:24.000Z</time>
      </trkpt>
      <trkpt lat="44.50463" lon="6.46615">
        <ele>1307.60177</ele>
        <time>2026-07-27T08:58:26.000Z</time>
      </trkpt>
      <trkpt lat="44.50463" lon="6.46615">
        <ele>1307.60177</ele>
        <time>2026-07-27T08:58:26.000Z</time>
      </trkpt>
      <trkpt lat="44.50462" lon="6.46615">
        <ele>1307.633954</ele>
        <time>2026-07-27T08:58:27.000Z</time>
      </trkpt>
      <trkpt lat="44.50461" lon="6.46614">
        <ele>1307.671316</ele>
        <time>2026-07-27T08:58:29.000Z</time>
      </trkpt>
      <trkpt lat="44.50461" lon="6.46614">
        <ele>1307.671316</ele>
        <time>2026-07-27T08:58:30.000Z</time>
      </trkpt>
      <trkpt lat="44.50457" lon="6.46613">
        <ele>1307.869803</ele>
        <time>2026-07-27T08:58:31.000Z</time>
      </trkpt>
      <trkpt lat="44.50456" lon="6.46613">
        <ele>1307.922051</ele>
        <time>2026-07-27T08:58:31.000Z</time>
      </trkpt>
      <trkpt lat="44.50454" lon="6.46612">
        <ele>1307.99627</ele>
        <time>2026-07-27T08:58:33.000Z</time>
      </trkpt>
      <trkpt lat="44.50453" lon="6.46612">
        <ele>1308.065547</ele>
        <time>2026-07-27T08:58:33.000Z</time>
      </trkpt>
      <trkpt lat="44.50453" lon="6.46612">
        <ele>1308.065547</ele>
        <time>2026-07-27T08:58:33.000Z</time>
      </trkpt>
      <trkpt lat="44.50451" lon="6.46612">
        <ele>1308.152904</ele>
        <time>2026-07-27T08:58:34.000Z</time>
      </trkpt>
      <trkpt lat="44.50449" lon="6.46612">
        <ele>1308.258703</ele>
        <time>2026-07-27T08:58:36.000Z</time>
      </trkpt>
      <trkpt lat="44.50446" lon="6.46612">
        <ele>1308.364502</ele>
        <time>2026-07-27T08:58:36.000Z</time>
      </trkpt>
      <trkpt lat="44.50444" lon="6.46612">
        <ele>1308.451921</ele>
        <time>2026-07-27T08:58:38.000Z</time>
      </trkpt>
      <trkpt lat="44.50444" lon="6.46612">
        <ele>1308.451921</ele>
        <time>2026-07-27T08:58:38.000Z</time>
      </trkpt>
      <trkpt lat="44.50443" lon="6.46612">
        <ele>1308.539339</ele>
        <time>2026-07-27T08:58:39.000Z</time>
      </trkpt>
      <trkpt lat="44.50441" lon="6.46612">
        <ele>1308.609004</ele>
        <time>2026-07-27T08:58:40.000Z</time>
      </trkpt>
      <trkpt lat="44.50439" lon="6.46612">
        <ele>1308.696606</ele>
        <time>2026-07-27T08:58:41.000Z</time>
      </trkpt>
      <trkpt lat="44.50437" lon="6.46611">
        <ele>1308.784943</ele>
        <time>2026-07-27T08:58:42.000Z</time>
      </trkpt>
      <trkpt lat="44.50437" lon="6.46611">
        <ele>1308.784943</ele>
        <time>2026-07-27T08:58:42.000Z</time>
      </trkpt>
      <trkpt lat="44.50435" lon="6.46611">
        <ele>1308.873825</ele>
        <time>2026-07-27T08:58:43.000Z</time>
      </trkpt>
      <trkpt lat="44.50431" lon="6.4661">
        <ele>1309.056111</ele>
        <time>2026-07-27T08:58:45.000Z</time>
      </trkpt>
      <trkpt lat="44.50431" lon="6.4661">
        <ele>1309.088295</ele>
        <time>2026-07-27T08:58:46.000Z</time>
      </trkpt>
      <trkpt lat="44.50431" lon="6.4661">
        <ele>1309.088295</ele>
        <time>2026-07-27T08:58:46.000Z</time>
      </trkpt>
      <trkpt lat="44.5043" lon="6.46609">
        <ele>1309.143856</ele>
        <time>2026-07-27T08:58:47.000Z</time>
      </trkpt>
      <trkpt lat="44.50428" lon="6.46609">
        <ele>1309.194855</ele>
        <time>2026-07-27T08:58:48.000Z</time>
      </trkpt>
      <trkpt lat="44.50424" lon="6.46608">
        <ele>1309.390724</ele>
        <time>2026-07-27T08:58:50.000Z</time>
      </trkpt>
      <trkpt lat="44.50423" lon="6.46608">
        <ele>1309.460001</ele>
        <time>2026-07-27T08:58:51.000Z</time>
      </trkpt>
      <trkpt lat="44.50421" lon="6.46608">
        <ele>1309.533857</ele>
        <time>2026-07-27T08:58:52.000Z</time>
      </trkpt>
      <trkpt lat="44.50419" lon="6.46608">
        <ele>1309.63506</ele>
        <time>2026-07-27T08:58:53.000Z</time>
      </trkpt>
      <trkpt lat="44.50417" lon="6.46608">
        <ele>1309.727074</ele>
        <time>2026-07-27T08:58:54.000Z</time>
      </trkpt>
      <trkpt lat="44.50417" lon="6.46608">
        <ele>1309.727074</ele>
        <time>2026-07-27T08:58:54.000Z</time>
      </trkpt>
      <trkpt lat="44.50415" lon="6.46608">
        <ele>1309.828436</ele>
        <time>2026-07-27T08:58:55.000Z</time>
      </trkpt>
      <trkpt lat="44.50412" lon="6.46608">
        <ele>1309.935448</ele>
        <time>2026-07-27T08:58:56.000Z</time>
      </trkpt>
      <trkpt lat="44.5041" lon="6.46607">
        <ele>1310.05976</ele>
        <time>2026-07-27T08:58:57.000Z</time>
      </trkpt>
      <trkpt lat="44.50407" lon="6.46607">
        <ele>1310.165711</ele>
        <time>2026-07-27T08:58:58.000Z</time>
      </trkpt>
      <trkpt lat="44.50405" lon="6.46607">
        <ele>1310.272269</ele>
        <time>2026-07-27T08:58:59.000Z</time>
      </trkpt>
      <trkpt lat="44.50402" lon="6.46607">
        <ele>1310.42873</ele>
        <time>2026-07-27T08:59:00.000Z</time>
      </trkpt>
      <trkpt lat="44.50398" lon="6.46606">
        <ele>1310.585363</ele>
        <time>2026-07-27T08:59:01.000Z</time>
      </trkpt>
      <trkpt lat="44.50396" lon="6.46606">
        <ele>1310.71058</ele>
        <time>2026-07-27T08:59:02.000Z</time>
      </trkpt>
      <trkpt lat="44.50392" lon="6.46605">
        <ele>1310.868136</ele>
        <time>2026-07-27T08:59:03.000Z</time>
      </trkpt>
      <trkpt lat="44.50389" lon="6.46604">
        <ele>1311.031741</ele>
        <time>2026-07-27T08:59:04.000Z</time>
      </trkpt>
      <trkpt lat="44.50385" lon="6.46603">
        <ele>1311.191466</ele>
        <time>2026-07-27T08:59:05.000Z</time>
      </trkpt>
      <trkpt lat="44.50382" lon="6.46602">
        <ele>1311.341207</ele>
        <time>2026-07-27T08:59:06.000Z</time>
      </trkpt>
      <trkpt lat="44.50379" lon="6.466">
        <ele>1311.486578</ele>
        <time>2026-07-27T08:59:07.000Z</time>
      </trkpt>
      <trkpt lat="44.50375" lon="6.46599">
        <ele>1311.539973</ele>
        <time>2026-07-27T08:59:07.000Z</time>
      </trkpt>
      <trkpt lat="44.50372" lon="6.46597">
        <ele>1311.474537</ele>
        <time>2026-07-27T08:59:09.000Z</time>
      </trkpt>
      <trkpt lat="44.50369" lon="6.46596">
        <ele>1311.41101</ele>
        <time>2026-07-27T08:59:10.000Z</time>
      </trkpt>
      <trkpt lat="44.50365" lon="6.46594">
        <ele>1311.329367</ele>
        <time>2026-07-27T08:59:11.000Z</time>
      </trkpt>
      <trkpt lat="44.50365" lon="6.46594">
        <ele>1311.329367</ele>
        <time>2026-07-27T08:59:11.000Z</time>
      </trkpt>
      <trkpt lat="44.50362" lon="6.46593">
        <ele>1311.257753</ele>
        <time>2026-07-27T08:59:12.000Z</time>
      </trkpt>
      <trkpt lat="44.50358" lon="6.46591">
        <ele>1311.170672</ele>
        <time>2026-07-27T08:59:13.000Z</time>
      </trkpt>
      <trkpt lat="44.50355" lon="6.4659">
        <ele>1311.10837</ele>
        <time>2026-07-27T08:59:14.000Z</time>
      </trkpt>
      <trkpt lat="44.50351" lon="6.46589">
        <ele>1311.029781</ele>
        <time>2026-07-27T08:59:15.000Z</time>
      </trkpt>
      <trkpt lat="44.50351" lon="6.46589">
        <ele>1311.029781</ele>
        <time>2026-07-27T08:59:15.000Z</time>
      </trkpt>
      <trkpt lat="44.50347" lon="6.46588">
        <ele>1310.949239</ele>
        <time>2026-07-27T08:59:16.000Z</time>
      </trkpt>
      <trkpt lat="44.50343" lon="6.46586">
        <ele>1310.870977</ele>
        <time>2026-07-27T08:59:17.000Z</time>
      </trkpt>
      <trkpt lat="44.50343" lon="6.46586">
        <ele>1310.870977</ele>
        <time>2026-07-27T08:59:17.000Z</time>
      </trkpt>
      <trkpt lat="44.5034" lon="6.46585">
        <ele>1310.790836</ele>
        <time>2026-07-27T08:59:18.000Z</time>
      </trkpt>
      <trkpt lat="44.50337" lon="6.46583">
        <ele>1310.725273</ele>
        <time>2026-07-27T08:59:19.000Z</time>
      </trkpt>
      <trkpt lat="44.50337" lon="6.46583">
        <ele>1310.725273</ele>
        <time>2026-07-27T08:59:19.000Z</time>
      </trkpt>
      <trkpt lat="44.50333" lon="6.46581">
        <ele>1310.642779</ele>
        <time>2026-07-27T08:59:20.000Z</time>
      </trkpt>
      <trkpt lat="44.50329" lon="6.4658">
        <ele>1310.57326</ele>
        <time>2026-07-27T08:59:21.000Z</time>
      </trkpt>
      <trkpt lat="44.50329" lon="6.4658">
        <ele>1310.57326</ele>
        <time>2026-07-27T08:59:21.000Z</time>
      </trkpt>
      <trkpt lat="44.50326" lon="6.46579">
        <ele>1310.502816</ele>
        <time>2026-07-27T08:59:21.000Z</time>
      </trkpt>
      <trkpt lat="44.50326" lon="6.46579">
        <ele>1310.502816</ele>
        <time>2026-07-27T08:59:21.000Z</time>
      </trkpt>
      <trkpt lat="44.50322" lon="6.46578">
        <ele>1310.429283</ele>
        <time>2026-07-27T08:59:23.000Z</time>
      </trkpt>
      <trkpt lat="44.50319" lon="6.46576">
        <ele>1310.366195</ele>
        <time>2026-07-27T08:59:24.000Z</time>
      </trkpt>
      <trkpt lat="44.50319" lon="6.46576">
        <ele>1310.366195</ele>
        <time>2026-07-27T08:59:24.000Z</time>
      </trkpt>
      <trkpt lat="44.50316" lon="6.46575">
        <ele>1310.294997</ele>
        <time>2026-07-27T08:59:25.000Z</time>
      </trkpt>
      <trkpt lat="44.50316" lon="6.46575">
        <ele>1310.294997</ele>
        <time>2026-07-27T08:59:25.000Z</time>
      </trkpt>
      <trkpt lat="44.50313" lon="6.46574">
        <ele>1310.238889</ele>
        <time>2026-07-27T08:59:26.000Z</time>
      </trkpt>
      <trkpt lat="44.5031" lon="6.46573">
        <ele>1310.174977</ele>
        <time>2026-07-27T08:59:27.000Z</time>
      </trkpt>
      <trkpt lat="44.5031" lon="6.46573">
        <ele>1310.174977</ele>
        <time>2026-07-27T08:59:27.000Z</time>
      </trkpt>
      <trkpt lat="44.50306" lon="6.46572">
        <ele>1310.097546</ele>
        <time>2026-07-27T08:59:28.000Z</time>
      </trkpt>
      <trkpt lat="44.50303" lon="6.46571">
        <ele>1310.028501</ele>
        <time>2026-07-27T08:59:29.000Z</time>
      </trkpt>
      <trkpt lat="44.503" lon="6.46571">
        <ele>1309.965953</ele>
        <time>2026-07-27T08:59:30.000Z</time>
      </trkpt>
      <trkpt lat="44.50296" lon="6.46571">
        <ele>1309.88955</ele>
        <time>2026-07-27T08:59:31.000Z</time>
      </trkpt>
      <trkpt lat="44.50296" lon="6.46571">
        <ele>1309.88955</ele>
        <time>2026-07-27T08:59:31.000Z</time>
      </trkpt>
      <trkpt lat="44.50293" lon="6.4657">
        <ele>1309.821178</ele>
        <time>2026-07-27T08:59:32.000Z</time>
      </trkpt>
      <trkpt lat="44.50289" lon="6.4657">
        <ele>1309.752805</ele>
        <time>2026-07-27T08:59:33.000Z</time>
      </trkpt>
      <trkpt lat="44.50286" lon="6.4657">
        <ele>1309.68993</ele>
        <time>2026-07-27T08:59:34.000Z</time>
      </trkpt>
      <trkpt lat="44.50284" lon="6.46569">
        <ele>1309.642642</ele>
        <time>2026-07-27T08:59:35.000Z</time>
      </trkpt>
      <trkpt lat="44.50281" lon="6.46568">
        <ele>1309.581757</ele>
        <time>2026-07-27T08:59:36.000Z</time>
      </trkpt>
      <trkpt lat="44.50278" lon="6.46567">
        <ele>1309.525648</ele>
        <time>2026-07-27T08:59:37.000Z</time>
      </trkpt>
      <trkpt lat="44.50274" lon="6.46566">
        <ele>1309.447966</ele>
        <time>2026-07-27T08:59:38.000Z</time>
      </trkpt>
      <trkpt lat="44.50271" lon="6.46565">
        <ele>1309.384054</ele>
        <time>2026-07-27T08:59:39.000Z</time>
      </trkpt>
      <trkpt lat="44.50268" lon="6.46564">
        <ele>1309.322098</ele>
        <time>2026-07-27T08:59:40.000Z</time>
      </trkpt>
      <trkpt lat="44.50268" lon="6.46564">
        <ele>1309.322098</ele>
        <time>2026-07-27T08:59:40.000Z</time>
      </trkpt>
      <trkpt lat="44.50265" lon="6.46563">
        <ele>1309.257483</ele>
        <time>2026-07-27T08:59:41.000Z</time>
      </trkpt>
      <trkpt lat="44.50262" lon="6.46563">
        <ele>1309.202764</ele>
        <time>2026-07-27T08:59:42.000Z</time>
      </trkpt>
      <trkpt lat="44.50259" lon="6.46562">
        <ele>1309.141408</ele>
        <time>2026-07-27T08:59:43.000Z</time>
      </trkpt>
      <trkpt lat="44.50257" lon="6.46561">
        <ele>1309.084916</ele>
        <time>2026-07-27T08:59:44.000Z</time>
      </trkpt>
      <trkpt lat="44.50254" lon="6.4656">
        <ele>1309.022236</ele>
        <time>2026-07-27T08:59:45.000Z</time>
      </trkpt>
      <trkpt lat="44.50251" lon="6.46558">
        <ele>1308.964397</ele>
        <time>2026-07-27T08:59:46.000Z</time>
      </trkpt>
      <trkpt lat="44.50248" lon="6.46556">
        <ele>1308.898834</ele>
        <time>2026-07-27T08:59:47.000Z</time>
      </trkpt>
      <trkpt lat="44.50245" lon="6.46554">
        <ele>1308.829661</ele>
        <time>2026-07-27T08:59:48.000Z</time>
      </trkpt>
      <trkpt lat="44.50245" lon="6.46554">
        <ele>1308.829661</ele>
        <time>2026-07-27T08:59:48.000Z</time>
      </trkpt>
      <trkpt lat="44.50242" lon="6.46552">
        <ele>1308.751849</ele>
        <time>2026-07-27T08:59:49.000Z</time>
      </trkpt>
      <trkpt lat="44.50238" lon="6.46549">
        <ele>1308.677759</ele>
        <time>2026-07-27T08:59:50.000Z</time>
      </trkpt>
      <trkpt lat="44.50238" lon="6.46549">
        <ele>1308.677759</ele>
        <time>2026-07-27T08:59:50.000Z</time>
      </trkpt>
      <trkpt lat="44.50235" lon="6.46546">
        <ele>1308.60535</ele>
        <time>2026-07-27T08:59:51.000Z</time>
      </trkpt>
      <trkpt lat="44.50232" lon="6.46543">
        <ele>1308.518423</ele>
        <time>2026-07-27T08:59:52.000Z</time>
      </trkpt>
      <trkpt lat="44.50228" lon="6.46541">
        <ele>1308.431658</ele>
        <time>2026-07-27T08:59:53.000Z</time>
      </trkpt>
      <trkpt lat="44.50228" lon="6.46541">
        <ele>1308.431658</ele>
        <time>2026-07-27T08:59:53.000Z</time>
      </trkpt>
      <trkpt lat="44.50224" lon="6.46538">
        <ele>1308.348499</ele>
        <time>2026-07-27T08:59:54.000Z</time>
      </trkpt>
      <trkpt lat="44.50224" lon="6.46538">
        <ele>1308.348499</ele>
        <time>2026-07-27T08:59:54.000Z</time>
      </trkpt>
      <trkpt lat="44.5022" lon="6.46536">
        <ele>1308.266948</ele>
        <time>2026-07-27T08:59:55.000Z</time>
      </trkpt>
      <trkpt lat="44.5022" lon="6.46536">
        <ele>1308.266948</ele>
        <time>2026-07-27T08:59:55.000Z</time>
      </trkpt>
      <trkpt lat="44.50216" lon="6.46535">
        <ele>1308.18021</ele>
        <time>2026-07-27T08:59:56.000Z</time>
      </trkpt>
      <trkpt lat="44.50216" lon="6.46535">
        <ele>1308.18021</ele>
        <time>2026-07-27T08:59:56.000Z</time>
      </trkpt>
      <trkpt lat="44.50213" lon="6.46534">
        <ele>1308.110691</ele>
        <time>2026-07-27T08:59:57.000Z</time>
      </trkpt>
      <trkpt lat="44.50213" lon="6.46534">
        <ele>1308.110691</ele>
        <time>2026-07-27T08:59:57.000Z</time>
      </trkpt>
      <trkpt lat="44.50208" lon="6.46533">
        <ele>1308.017373</ele>
        <time>2026-07-27T08:59:58.000Z</time>
      </trkpt>
      <trkpt lat="44.50208" lon="6.46533">
        <ele>1308.017373</ele>
        <time>2026-07-27T08:59:58.000Z</time>
      </trkpt>
      <trkpt lat="44.50203" lon="6.46533">
        <ele>1307.921222</ele>
        <time>2026-07-27T08:59:59.000Z</time>
      </trkpt>
      <trkpt lat="44.50203" lon="6.46533">
        <ele>1307.921222</ele>
        <time>2026-07-27T08:59:59.000Z</time>
      </trkpt>
      <trkpt lat="44.50198" lon="6.46532">
        <ele>1307.81431</ele>
        <time>2026-07-27T09:00:00.000Z</time>
      </trkpt>
      <trkpt lat="44.50198" lon="6.46532">
        <ele>1307.81431</ele>
        <time>2026-07-27T09:00:00.000Z</time>
      </trkpt>
      <trkpt lat="44.50195" lon="6.46532">
        <ele>1307.72936</ele>
        <time>2026-07-27T09:00:01.000Z</time>
      </trkpt>
      <trkpt lat="44.50195" lon="6.46532">
        <ele>1307.72936</ele>
        <time>2026-07-27T09:00:01.000Z</time>
      </trkpt>
      <trkpt lat="44.5019" lon="6.46533">
        <ele>1307.631145</ele>
        <time>2026-07-27T09:00:02.000Z</time>
      </trkpt>
      <trkpt lat="44.5019" lon="6.46533">
        <ele>1307.631145</ele>
        <time>2026-07-27T09:00:02.000Z</time>
      </trkpt>
      <trkpt lat="44.50186" lon="6.46533">
        <ele>1307.539542</ele>
        <time>2026-07-27T09:00:03.000Z</time>
      </trkpt>
      <trkpt lat="44.50186" lon="6.46533">
        <ele>1307.539542</ele>
        <time>2026-07-27T09:00:03.000Z</time>
      </trkpt>
      <trkpt lat="44.50182" lon="6.46533">
        <ele>1307.447729</ele>
        <time>2026-07-27T09:00:04.000Z</time>
      </trkpt>
      <trkpt lat="44.50182" lon="6.46533">
        <ele>1307.447729</ele>
        <time>2026-07-27T09:00:04.000Z</time>
      </trkpt>
      <trkpt lat="44.50177" lon="6.46534">
        <ele>1307.338421</ele>
        <time>2026-07-27T09:00:05.000Z</time>
      </trkpt>
      <trkpt lat="44.50177" lon="6.46534">
        <ele>1307.338421</ele>
        <time>2026-07-27T09:00:05.000Z</time>
      </trkpt>
      <trkpt lat="44.50172" lon="6.46535">
        <ele>1307.237791</ele>
        <time>2026-07-27T09:00:06.000Z</time>
      </trkpt>
      <trkpt lat="44.50172" lon="6.46535">
        <ele>1307.237791</ele>
        <time>2026-07-27T09:00:06.000Z</time>
      </trkpt>
      <trkpt lat="44.50166" lon="6.46535">
        <ele>1307.113391</ele>
        <time>2026-07-27T09:00:07.000Z</time>
      </trkpt>
      <trkpt lat="44.50166" lon="6.46535">
        <ele>1307.113391</ele>
        <time>2026-07-27T09:00:07.000Z</time>
      </trkpt>
      <trkpt lat="44.50161" lon="6.46535">
        <ele>1307.006558</ele>
        <time>2026-07-27T09:00:08.000Z</time>
      </trkpt>
      <trkpt lat="44.50161" lon="6.46535">
        <ele>1307.006558</ele>
        <time>2026-07-27T09:00:08.000Z</time>
      </trkpt>
      <trkpt lat="44.50156" lon="6.46535">
        <ele>1306.880213</ele>
        <time>2026-07-27T09:00:09.000Z</time>
      </trkpt>
      <trkpt lat="44.50156" lon="6.46535">
        <ele>1306.880213</ele>
        <time>2026-07-27T09:00:09.000Z</time>
      </trkpt>
      <trkpt lat="44.50148" lon="6.46535">
        <ele>1306.714663</ele>
        <time>2026-07-27T09:00:10.000Z</time>
      </trkpt>
      <trkpt lat="44.50148" lon="6.46535">
        <ele>1306.714663</ele>
        <time>2026-07-27T09:00:10.000Z</time>
      </trkpt>
      <trkpt lat="44.50141" lon="6.46535">
        <ele>1306.557802</ele>
        <time>2026-07-27T09:00:11.000Z</time>
      </trkpt>
      <trkpt lat="44.50133" lon="6.46535">
        <ele>1306.383436</ele>
        <time>2026-07-27T09:00:12.000Z</time>
      </trkpt>
      <trkpt lat="44.50133" lon="6.46535">
        <ele>1306.383436</ele>
        <time>2026-07-27T09:00:12.000Z</time>
      </trkpt>
      <trkpt lat="44.50127" lon="6.46535">
        <ele>1306.248379</ele>
        <time>2026-07-27T09:00:13.000Z</time>
      </trkpt>
      <trkpt lat="44.50127" lon="6.46535">
        <ele>1306.248379</ele>
        <time>2026-07-27T09:00:13.000Z</time>
      </trkpt>
      <trkpt lat="44.50116" lon="6.46534">
        <ele>1306.008531</ele>
        <time>2026-07-27T09:00:14.000Z</time>
      </trkpt>
      <trkpt lat="44.50108" lon="6.46533">
        <ele>1305.833584</ele>
        <time>2026-07-27T09:00:14.000Z</time>
      </trkpt>
      <trkpt lat="44.50108" lon="6.46533">
        <ele>1305.833584</ele>
        <time>2026-07-27T09:00:14.000Z</time>
      </trkpt>
      <trkpt lat="44.50101" lon="6.46532">
        <ele>1305.681723</ele>
        <time>2026-07-27T09:00:16.000Z</time>
      </trkpt>
      <trkpt lat="44.50094" lon="6.4653">
        <ele>1305.537975</ele>
        <time>2026-07-27T09:00:17.000Z</time>
      </trkpt>
      <trkpt lat="44.5009" lon="6.46528">
        <ele>1305.433949</ele>
        <time>2026-07-27T09:00:18.000Z</time>
      </trkpt>
      <trkpt lat="44.5009" lon="6.46528">
        <ele>1305.433949</ele>
        <time>2026-07-27T09:00:18.000Z</time>
      </trkpt>
      <trkpt lat="44.50085" lon="6.46526">
        <ele>1305.322342</ele>
        <time>2026-07-27T09:00:19.000Z</time>
      </trkpt>
      <trkpt lat="44.5008" lon="6.46524">
        <ele>1305.215433</ele>
        <time>2026-07-27T09:00:20.000Z</time>
      </trkpt>
      <trkpt lat="44.5008" lon="6.46524">
        <ele>1305.215433</ele>
        <time>2026-07-27T09:00:20.000Z</time>
      </trkpt>
      <trkpt lat="44.50075" lon="6.46522">
        <ele>1305.103366</ele>
        <time>2026-07-27T09:00:21.000Z</time>
      </trkpt>
      <trkpt lat="44.50071" lon="6.46521">
        <ele>1305.013723</ele>
        <time>2026-07-27T09:00:22.000Z</time>
      </trkpt>
      <trkpt lat="44.50071" lon="6.46521">
        <ele>1305.013723</ele>
        <time>2026-07-27T09:00:22.000Z</time>
      </trkpt>
      <trkpt lat="44.50067" lon="6.46521">
        <ele>1304.928419</ele>
        <time>2026-07-27T09:00:23.000Z</time>
      </trkpt>
      <trkpt lat="44.50063" lon="6.46521">
        <ele>1304.830204</ele>
        <time>2026-07-27T09:00:24.000Z</time>
      </trkpt>
      <trkpt lat="44.50063" lon="6.46521">
        <ele>1304.830204</ele>
        <time>2026-07-27T09:00:24.000Z</time>
      </trkpt>
      <trkpt lat="44.50058" lon="6.4652">
        <ele>1304.72125</ele>
        <time>2026-07-27T09:00:25.000Z</time>
      </trkpt>
      <trkpt lat="44.50053" lon="6.4652">
        <ele>1304.621004</ele>
        <time>2026-07-27T09:00:26.000Z</time>
      </trkpt>
      <trkpt lat="44.50053" lon="6.4652">
        <ele>1304.621004</ele>
        <time>2026-07-27T09:00:26.000Z</time>
      </trkpt>
      <trkpt lat="44.50048" lon="6.4652">
        <ele>1304.514228</ele>
        <time>2026-07-27T09:00:27.000Z</time>
      </trkpt>
      <trkpt lat="44.50044" lon="6.4652">
        <ele>1304.42273</ele>
        <time>2026-07-27T09:00:28.000Z</time>
      </trkpt>
      <trkpt lat="44.5004" lon="6.4652">
        <ele>1304.331193</ele>
        <time>2026-07-27T09:00:29.000Z</time>
      </trkpt>
      <trkpt lat="44.5004" lon="6.4652">
        <ele>1304.331193</ele>
        <time>2026-07-27T09:00:29.000Z</time>
      </trkpt>
      <trkpt lat="44.50035" lon="6.4652">
        <ele>1304.230696</ele>
        <time>2026-07-27T09:00:30.000Z</time>
      </trkpt>
      <trkpt lat="44.50031" lon="6.46521">
        <ele>1304.138371</ele>
        <time>2026-07-27T09:00:31.000Z</time>
      </trkpt>
      <trkpt lat="44.50027" lon="6.46522">
        <ele>1304.055077</ele>
        <time>2026-07-27T09:00:32.000Z</time>
      </trkpt>
      <trkpt lat="44.50023" lon="6.46523">
        <ele>1303.991162</ele>
        <time>2026-07-27T09:00:33.000Z</time>
      </trkpt>
      <trkpt lat="44.50018" lon="6.46524">
        <ele>1303.909786</ele>
        <time>2026-07-27T09:00:34.000Z</time>
      </trkpt>
      <trkpt lat="44.50014" lon="6.46525">
        <ele>1303.841445</ele>
        <time>2026-07-27T09:00:35.000Z</time>
      </trkpt>
      <trkpt lat="44.50009" lon="6.46526">
        <ele>1303.761445</ele>
        <time>2026-07-27T09:00:36.000Z</time>
      </trkpt>
      <trkpt lat="44.50009" lon="6.46526">
        <ele>1303.761445</ele>
        <time>2026-07-27T09:00:36.000Z</time>
      </trkpt>
      <trkpt lat="44.50005" lon="6.46527">
        <ele>1303.687087</ele>
        <time>2026-07-27T09:00:37.000Z</time>
      </trkpt>
      <trkpt lat="44.49999" lon="6.46526">
        <ele>1303.600189</ele>
        <time>2026-07-27T09:00:38.000Z</time>
      </trkpt>
      <trkpt lat="44.49994" lon="6.46526">
        <ele>1303.51489</ele>
        <time>2026-07-27T09:00:39.000Z</time>
      </trkpt>
      <trkpt lat="44.49989" lon="6.46525">
        <ele>1303.433869</ele>
        <time>2026-07-27T09:00:40.000Z</time>
      </trkpt>
      <trkpt lat="44.49984" lon="6.46524">
        <ele>1303.347555</ele>
        <time>2026-07-27T09:00:41.000Z</time>
      </trkpt>
      <trkpt lat="44.49979" lon="6.46522">
        <ele>1303.272697</ele>
        <time>2026-07-27T09:00:42.000Z</time>
      </trkpt>
      <trkpt lat="44.49979" lon="6.46522">
        <ele>1303.272697</ele>
        <time>2026-07-27T09:00:42.000Z</time>
      </trkpt>
      <trkpt lat="44.49974" lon="6.46522">
        <ele>1303.194092</ele>
        <time>2026-07-27T09:00:43.000Z</time>
      </trkpt>
      <trkpt lat="44.4997" lon="6.46522">
        <ele>1303.126677</ele>
        <time>2026-07-27T09:00:44.000Z</time>
      </trkpt>
      <trkpt lat="44.49966" lon="6.46522">
        <ele>1303.064019</ele>
        <time>2026-07-27T09:00:45.000Z</time>
      </trkpt>
      <trkpt lat="44.49963" lon="6.46521">
        <ele>1303.008714</ele>
        <time>2026-07-27T09:00:46.000Z</time>
      </trkpt>
      <trkpt lat="44.49959" lon="6.4652">
        <ele>1302.945385</ele>
        <time>2026-07-27T09:00:47.000Z</time>
      </trkpt>
      <trkpt lat="44.49959" lon="6.4652">
        <ele>1302.945385</ele>
        <time>2026-07-27T09:00:47.000Z</time>
      </trkpt>
      <trkpt lat="44.49955" lon="6.46517">
        <ele>1302.884826</ele>
        <time>2026-07-27T09:00:48.000Z</time>
      </trkpt>
      <trkpt lat="44.49952" lon="6.46515">
        <ele>1302.819302</ele>
        <time>2026-07-27T09:00:49.000Z</time>
      </trkpt>
      <trkpt lat="44.49949" lon="6.46513">
        <ele>1302.762494</ele>
        <time>2026-07-27T09:00:50.000Z</time>
      </trkpt>
      <trkpt lat="44.49945" lon="6.4651">
        <ele>1302.690788</ele>
        <time>2026-07-27T09:00:51.000Z</time>
      </trkpt>
      <trkpt lat="44.49941" lon="6.46506">
        <ele>1302.611818</ele>
        <time>2026-07-27T09:00:52.000Z</time>
      </trkpt>
      <trkpt lat="44.49941" lon="6.46506">
        <ele>1302.611818</ele>
        <time>2026-07-27T09:00:52.000Z</time>
      </trkpt>
      <trkpt lat="44.49936" lon="6.46502">
        <ele>1302.527859</ele>
        <time>2026-07-27T09:00:53.000Z</time>
      </trkpt>
      <trkpt lat="44.49931" lon="6.46499">
        <ele>1302.444967</ele>
        <time>2026-07-27T09:00:54.000Z</time>
      </trkpt>
      <trkpt lat="44.49931" lon="6.46499">
        <ele>1302.444967</ele>
        <time>2026-07-27T09:00:54.000Z</time>
      </trkpt>
      <trkpt lat="44.49927" lon="6.46495">
        <ele>1302.36478</ele>
        <time>2026-07-27T09:00:55.000Z</time>
      </trkpt>
      <trkpt lat="44.49927" lon="6.46495">
        <ele>1302.36478</ele>
        <time>2026-07-27T09:00:55.000Z</time>
      </trkpt>
      <trkpt lat="44.49923" lon="6.46493">
        <ele>1302.295914</ele>
        <time>2026-07-27T09:00:56.000Z</time>
      </trkpt>
      <trkpt lat="44.49923" lon="6.46493">
        <ele>1302.295914</ele>
        <time>2026-07-27T09:00:56.000Z</time>
      </trkpt>
      <trkpt lat="44.49919" lon="6.46489">
        <ele>1302.216342</ele>
        <time>2026-07-27T09:00:57.000Z</time>
      </trkpt>
      <trkpt lat="44.49915" lon="6.46485">
        <ele>1302.131831</ele>
        <time>2026-07-27T09:00:58.000Z</time>
      </trkpt>
      <trkpt lat="44.49915" lon="6.46485">
        <ele>1302.131831</ele>
        <time>2026-07-27T09:00:58.000Z</time>
      </trkpt>
      <trkpt lat="44.4991" lon="6.46482">
        <ele>1302.050364</ele>
        <time>2026-07-27T09:00:59.000Z</time>
      </trkpt>
      <trkpt lat="44.4991" lon="6.46482">
        <ele>1302.050364</ele>
        <time>2026-07-27T09:00:59.000Z</time>
      </trkpt>
      <trkpt lat="44.49905" lon="6.46479">
        <ele>1301.963118</ele>
        <time>2026-07-27T09:01:00.000Z</time>
      </trkpt>
      <trkpt lat="44.499" lon="6.46476">
        <ele>1301.881732</ele>
        <time>2026-07-27T09:01:01.000Z</time>
      </trkpt>
      <trkpt lat="44.499" lon="6.46476">
        <ele>1301.881732</ele>
        <time>2026-07-27T09:01:01.000Z</time>
      </trkpt>
      <trkpt lat="44.49897" lon="6.46474">
        <ele>1301.826881</ele>
        <time>2026-07-27T09:01:02.000Z</time>
      </trkpt>
      <trkpt lat="44.49894" lon="6.46472">
        <ele>1301.77165</ele>
        <time>2026-07-27T09:01:03.000Z</time>
      </trkpt>
      <trkpt lat="44.49894" lon="6.46472">
        <ele>1301.77165</ele>
        <time>2026-07-27T09:01:03.000Z</time>
      </trkpt>
      <trkpt lat="44.49893" lon="6.46471">
        <ele>1301.750619</ele>
        <time>2026-07-27T09:01:05.000Z</time>
      </trkpt>
      <trkpt lat="44.49892" lon="6.4647">
        <ele>1301.728225</ele>
        <time>2026-07-27T09:01:05.000Z</time>
      </trkpt>
      <trkpt lat="44.49892" lon="6.4647">
        <ele>1301.728225</ele>
        <time>2026-07-27T09:01:05.000Z</time>
      </trkpt>
      <trkpt lat="44.49891" lon="6.46468">
        <ele>1301.706748</ele>
        <time>2026-07-27T09:01:06.000Z</time>
      </trkpt>
      <trkpt lat="44.4989" lon="6.46466">
        <ele>1301.673212</ele>
        <time>2026-07-27T09:01:07.000Z</time>
      </trkpt>
      <trkpt lat="44.4989" lon="6.46466">
        <ele>1301.673212</ele>
        <time>2026-07-27T09:01:07.000Z</time>
      </trkpt>
      <trkpt lat="44.49889" lon="6.46463">
        <ele>1301.641527</ele>
        <time>2026-07-27T09:01:08.000Z</time>
      </trkpt>
      <trkpt lat="44.49888" lon="6.46458">
        <ele>1301.576284</ele>
        <time>2026-07-27T09:01:11.000Z</time>
      </trkpt>
      <trkpt lat="44.49888" lon="6.46458">
        <ele>1301.576284</ele>
        <time>2026-07-27T09:01:11.000Z</time>
      </trkpt>
      <trkpt lat="44.49887" lon="6.46456">
        <ele>1301.553926</ele>
        <time>2026-07-27T09:01:11.000Z</time>
      </trkpt>
      <trkpt lat="44.49887" lon="6.46456">
        <ele>1301.553926</ele>
        <time>2026-07-27T09:01:12.000Z</time>
      </trkpt>
      <trkpt lat="44.49885" lon="6.46453">
        <ele>1301.509152</ele>
        <time>2026-07-27T09:01:13.000Z</time>
      </trkpt>
      <trkpt lat="44.49885" lon="6.46452">
        <ele>1301.492952</ele>
        <time>2026-07-27T09:01:14.000Z</time>
      </trkpt>
      <trkpt lat="44.49885" lon="6.46452">
        <ele>1301.492952</ele>
        <time>2026-07-27T09:01:14.000Z</time>
      </trkpt>
      <trkpt lat="44.49884" lon="6.4645">
        <ele>1301.473306</ele>
        <time>2026-07-27T09:01:15.000Z</time>
      </trkpt>
      <trkpt lat="44.49883" lon="6.46448">
        <ele>1301.443494</ele>
        <time>2026-07-27T09:01:16.000Z</time>
      </trkpt>
      <trkpt lat="44.49882" lon="6.46446">
        <ele>1301.407094</ele>
        <time>2026-07-27T09:01:17.000Z</time>
      </trkpt>
      <trkpt lat="44.49882" lon="6.46446">
        <ele>1301.407094</ele>
        <time>2026-07-27T09:01:17.000Z</time>
      </trkpt>
      <trkpt lat="44.49881" lon="6.46443">
        <ele>1301.376352</ele>
        <time>2026-07-27T09:01:18.000Z</time>
      </trkpt>
      <trkpt lat="44.4988" lon="6.46442">
        <ele>1301.353048</ele>
        <time>2026-07-27T09:01:20.000Z</time>
      </trkpt>
      <trkpt lat="44.4988" lon="6.46442">
        <ele>1301.353048</ele>
        <time>2026-07-27T09:01:20.000Z</time>
      </trkpt>
      <trkpt lat="44.49878" lon="6.46439">
        <ele>1301.311128</ele>
        <time>2026-07-27T09:01:20.000Z</time>
      </trkpt>
      <trkpt lat="44.49877" lon="6.46437">
        <ele>1301.283128</ele>
        <time>2026-07-27T09:01:21.000Z</time>
      </trkpt>
      <trkpt lat="44.49877" lon="6.46437">
        <ele>1301.283128</ele>
        <time>2026-07-27T09:01:21.000Z</time>
      </trkpt>
      <trkpt lat="44.49876" lon="6.46435">
        <ele>1301.25409</ele>
        <time>2026-07-27T09:01:22.000Z</time>
      </trkpt>
      <trkpt lat="44.49875" lon="6.46433">
        <ele>1301.224422</ele>
        <time>2026-07-27T09:01:23.000Z</time>
      </trkpt>
      <trkpt lat="44.49875" lon="6.46433">
        <ele>1301.224422</ele>
        <time>2026-07-27T09:01:23.000Z</time>
      </trkpt>
      <trkpt lat="44.49873" lon="6.46427">
        <ele>1301.18484</ele>
        <time>2026-07-27T09:01:24.000Z</time>
      </trkpt>
      <trkpt lat="44.49872" lon="6.46423">
        <ele>1301.443196</ele>
        <time>2026-07-27T09:01:25.000Z</time>
      </trkpt>
      <trkpt lat="44.49871" lon="6.46419">
        <ele>1301.644854</ele>
        <time>2026-07-27T09:01:26.000Z</time>
      </trkpt>
      <trkpt lat="44.49871" lon="6.46419">
        <ele>1301.644854</ele>
        <time>2026-07-27T09:01:26.000Z</time>
      </trkpt>
      <trkpt lat="44.4987" lon="6.46415">
        <ele>1301.848434</ele>
        <time>2026-07-27T09:01:27.000Z</time>
      </trkpt>
      <trkpt lat="44.4987" lon="6.46411">
        <ele>1302.076769</ele>
        <time>2026-07-27T09:01:28.000Z</time>
      </trkpt>
      <trkpt lat="44.4987" lon="6.46411">
        <ele>1302.076769</ele>
        <time>2026-07-27T09:01:28.000Z</time>
      </trkpt>
      <trkpt lat="44.49869" lon="6.46406">
        <ele>1302.313424</ele>
        <time>2026-07-27T09:01:29.000Z</time>
      </trkpt>
      <trkpt lat="44.49869" lon="6.46406">
        <ele>1302.313424</ele>
        <time>2026-07-27T09:01:29.000Z</time>
      </trkpt>
      <trkpt lat="44.49868" lon="6.46403">
        <ele>1302.521937</ele>
        <time>2026-07-27T09:01:30.000Z</time>
      </trkpt>
      <trkpt lat="44.49867" lon="6.46398">
        <ele>1302.761503</ele>
        <time>2026-07-27T09:01:31.000Z</time>
      </trkpt>
      <trkpt lat="44.49867" lon="6.46398">
        <ele>1302.761503</ele>
        <time>2026-07-27T09:01:31.000Z</time>
      </trkpt>
      <trkpt lat="44.49866" lon="6.46394">
        <ele>1302.993978</ele>
        <time>2026-07-27T09:01:32.000Z</time>
      </trkpt>
      <trkpt lat="44.49864" lon="6.4639">
        <ele>1303.217137</ele>
        <time>2026-07-27T09:01:33.000Z</time>
      </trkpt>
      <trkpt lat="44.49863" lon="6.46386">
        <ele>1303.442214</ele>
        <time>2026-07-27T09:01:35.000Z</time>
      </trkpt>
      <trkpt lat="44.49861" lon="6.46382">
        <ele>1303.714648</ele>
        <time>2026-07-27T09:01:35.000Z</time>
      </trkpt>
      <trkpt lat="44.49861" lon="6.46378">
        <ele>1303.916201</ele>
        <time>2026-07-27T09:01:36.000Z</time>
      </trkpt>
      <trkpt lat="44.4986" lon="6.46374">
        <ele>1304.100161</ele>
        <time>2026-07-27T09:01:37.000Z</time>
      </trkpt>
      <trkpt lat="44.49859" lon="6.4637">
        <ele>1304.325238</ele>
        <time>2026-07-27T09:01:39.000Z</time>
      </trkpt>
      <trkpt lat="44.49857" lon="6.46367">
        <ele>1304.543186</ele>
        <time>2026-07-27T09:01:40.000Z</time>
      </trkpt>
      <trkpt lat="44.49856" lon="6.46364">
        <ele>1304.723116</ele>
        <time>2026-07-27T09:01:40.000Z</time>
      </trkpt>
      <trkpt lat="44.49853" lon="6.4636">
        <ele>1304.984557</ele>
        <time>2026-07-27T09:01:41.000Z</time>
      </trkpt>
      <trkpt lat="44.49851" lon="6.46357">
        <ele>1305.1907</ele>
        <time>2026-07-27T09:01:42.000Z</time>
      </trkpt>
      <trkpt lat="44.49851" lon="6.46357">
        <ele>1305.1907</ele>
        <time>2026-07-27T09:01:42.000Z</time>
      </trkpt>
      <trkpt lat="44.49849" lon="6.46354">
        <ele>1305.420535</ele>
        <time>2026-07-27T09:01:43.000Z</time>
      </trkpt>
      <trkpt lat="44.49846" lon="6.46352">
        <ele>1305.650596</ele>
        <time>2026-07-27T09:01:44.000Z</time>
      </trkpt>
      <trkpt lat="44.49844" lon="6.46349">
        <ele>1305.870029</ele>
        <time>2026-07-27T09:01:45.000Z</time>
      </trkpt>
      <trkpt lat="44.49844" lon="6.46349">
        <ele>1305.870029</ele>
        <time>2026-07-27T09:01:45.000Z</time>
      </trkpt>
      <trkpt lat="44.49842" lon="6.46347">
        <ele>1306.067754</ele>
        <time>2026-07-27T09:01:47.000Z</time>
      </trkpt>
      <trkpt lat="44.49839" lon="6.46344">
        <ele>1306.303717</ele>
        <time>2026-07-27T09:01:47.000Z</time>
      </trkpt>
      <trkpt lat="44.49839" lon="6.46344">
        <ele>1306.303717</ele>
        <time>2026-07-27T09:01:47.000Z</time>
      </trkpt>
      <trkpt lat="44.49837" lon="6.46343">
        <ele>1306.488679</ele>
        <time>2026-07-27T09:01:48.000Z</time>
      </trkpt>
      <trkpt lat="44.49837" lon="6.46343">
        <ele>1306.488679</ele>
        <time>2026-07-27T09:01:48.000Z</time>
      </trkpt>
      <trkpt lat="44.49834" lon="6.4634">
        <ele>1306.704836</ele>
        <time>2026-07-27T09:01:49.000Z</time>
      </trkpt>
      <trkpt lat="44.49834" lon="6.4634">
        <ele>1306.704836</ele>
        <time>2026-07-27T09:01:49.000Z</time>
      </trkpt>
      <trkpt lat="44.49832" lon="6.46339">
        <ele>1306.852918</ele>
        <time>2026-07-27T09:01:51.000Z</time>
      </trkpt>
      <trkpt lat="44.49832" lon="6.46339">
        <ele>1306.852918</ele>
        <time>2026-07-27T09:01:51.000Z</time>
      </trkpt>
      <trkpt lat="44.4983" lon="6.46338">
        <ele>1307.004234</ele>
        <time>2026-07-27T09:01:51.000Z</time>
      </trkpt>
      <trkpt lat="44.4983" lon="6.46338">
        <ele>1307.004234</ele>
        <time>2026-07-27T09:01:51.000Z</time>
      </trkpt>
      <trkpt lat="44.49828" lon="6.46337">
        <ele>1307.170838</ele>
        <time>2026-07-27T09:01:52.000Z</time>
      </trkpt>
      <trkpt lat="44.49828" lon="6.46337">
        <ele>1307.170838</ele>
        <time>2026-07-27T09:01:52.000Z</time>
      </trkpt>
      <trkpt lat="44.49826" lon="6.46337">
        <ele>1307.340384</ele>
        <time>2026-07-27T09:01:53.000Z</time>
      </trkpt>
      <trkpt lat="44.49826" lon="6.46337">
        <ele>1307.340384</ele>
        <time>2026-07-27T09:01:53.000Z</time>
      </trkpt>
      <trkpt lat="44.49824" lon="6.46336">
        <ele>1307.484857</ele>
        <time>2026-07-27T09:01:54.000Z</time>
      </trkpt>
      <trkpt lat="44.49824" lon="6.46336">
        <ele>1307.484857</ele>
        <time>2026-07-27T09:01:54.000Z</time>
      </trkpt>
      <trkpt lat="44.49822" lon="6.46335">
        <ele>1307.661645</ele>
        <time>2026-07-27T09:01:56.000Z</time>
      </trkpt>
      <trkpt lat="44.49822" lon="6.46335">
        <ele>1307.661645</ele>
        <time>2026-07-27T09:01:56.000Z</time>
      </trkpt>
      <trkpt lat="44.49819" lon="6.46334">
        <ele>1307.864193</ele>
        <time>2026-07-27T09:01:56.000Z</time>
      </trkpt>
      <trkpt lat="44.49819" lon="6.46334">
        <ele>1307.864193</ele>
        <time>2026-07-27T09:01:56.000Z</time>
      </trkpt>
      <trkpt lat="44.49816" lon="6.46332">
        <ele>1308.091964</ele>
        <time>2026-07-27T09:01:57.000Z</time>
      </trkpt>
      <trkpt lat="44.49816" lon="6.46332">
        <ele>1308.091964</ele>
        <time>2026-07-27T09:01:57.000Z</time>
      </trkpt>
      <trkpt lat="44.49813" lon="6.46331">
        <ele>1308.296006</ele>
        <time>2026-07-27T09:01:58.000Z</time>
      </trkpt>
      <trkpt lat="44.49813" lon="6.46331">
        <ele>1308.296006</ele>
        <time>2026-07-27T09:01:58.000Z</time>
      </trkpt>
      <trkpt lat="44.4981" lon="6.4633">
        <ele>1308.556836</ele>
        <time>2026-07-27T09:01:59.000Z</time>
      </trkpt>
      <trkpt lat="44.4981" lon="6.4633">
        <ele>1308.556836</ele>
        <time>2026-07-27T09:01:59.000Z</time>
      </trkpt>
      <trkpt lat="44.49807" lon="6.46329">
        <ele>1308.751055</ele>
        <time>2026-07-27T09:02:00.000Z</time>
      </trkpt>
      <trkpt lat="44.49807" lon="6.46329">
        <ele>1308.751055</ele>
        <time>2026-07-27T09:02:00.000Z</time>
      </trkpt>
      <trkpt lat="44.49805" lon="6.46328">
        <ele>1308.926117</ele>
        <time>2026-07-27T09:02:01.000Z</time>
      </trkpt>
      <trkpt lat="44.49805" lon="6.46328">
        <ele>1308.926117</ele>
        <time>2026-07-27T09:02:01.000Z</time>
      </trkpt>
      <trkpt lat="44.49802" lon="6.46326">
        <ele>1309.162361</ele>
        <time>2026-07-27T09:02:02.000Z</time>
      </trkpt>
      <trkpt lat="44.49802" lon="6.46326">
        <ele>1309.162361</ele>
        <time>2026-07-27T09:02:02.000Z</time>
      </trkpt>
      <trkpt lat="44.49799" lon="6.46325">
        <ele>1309.387098</ele>
        <time>2026-07-27T09:02:03.000Z</time>
      </trkpt>
      <trkpt lat="44.49799" lon="6.46325">
        <ele>1309.387098</ele>
        <time>2026-07-27T09:02:03.000Z</time>
      </trkpt>
      <trkpt lat="44.49796" lon="6.46324">
        <ele>1309.563886</ele>
        <time>2026-07-27T09:02:05.000Z</time>
      </trkpt>
      <trkpt lat="44.49796" lon="6.46324">
        <ele>1309.563886</ele>
        <time>2026-07-27T09:02:05.000Z</time>
      </trkpt>
      <trkpt lat="44.49793" lon="6.46322">
        <ele>1309.803679</ele>
        <time>2026-07-27T09:02:05.000Z</time>
      </trkpt>
      <trkpt lat="44.49793" lon="6.46322">
        <ele>1309.803679</ele>
        <time>2026-07-27T09:02:05.000Z</time>
      </trkpt>
      <trkpt lat="44.4979" lon="6.46321">
        <ele>1310.031451</ele>
        <time>2026-07-27T09:02:06.000Z</time>
      </trkpt>
      <trkpt lat="44.4979" lon="6.46321">
        <ele>1310.031451</ele>
        <time>2026-07-27T09:02:06.000Z</time>
      </trkpt>
      <trkpt lat="44.49788" lon="6.4632">
        <ele>1310.202161</ele>
        <time>2026-07-27T09:02:07.000Z</time>
      </trkpt>
      <trkpt lat="44.49788" lon="6.4632">
        <ele>1310.202161</ele>
        <time>2026-07-27T09:02:07.000Z</time>
      </trkpt>
      <trkpt lat="44.49786" lon="6.46318">
        <ele>1310.38279</ele>
        <time>2026-07-27T09:02:08.000Z</time>
      </trkpt>
      <trkpt lat="44.49786" lon="6.46318">
        <ele>1310.38279</ele>
        <time>2026-07-27T09:02:08.000Z</time>
      </trkpt>
      <trkpt lat="44.49784" lon="6.46317">
        <ele>1310.504736</ele>
        <time>2026-07-27T09:02:09.000Z</time>
      </trkpt>
      <trkpt lat="44.49784" lon="6.46317">
        <ele>1310.504736</ele>
        <time>2026-07-27T09:02:09.000Z</time>
      </trkpt>
      <trkpt lat="44.49781" lon="6.46317">
        <ele>1310.700928</ele>
        <time>2026-07-27T09:02:10.000Z</time>
      </trkpt>
      <trkpt lat="44.49781" lon="6.46317">
        <ele>1310.700928</ele>
        <time>2026-07-27T09:02:10.000Z</time>
      </trkpt>
      <trkpt lat="44.4978" lon="6.46316">
        <ele>1310.843839</ele>
        <time>2026-07-27T09:02:11.000Z</time>
      </trkpt>
      <trkpt lat="44.4978" lon="6.46316">
        <ele>1310.843839</ele>
        <time>2026-07-27T09:02:11.000Z</time>
      </trkpt>
      <trkpt lat="44.49777" lon="6.46315">
        <ele>1311.049492</ele>
        <time>2026-07-27T09:02:12.000Z</time>
      </trkpt>
      <trkpt lat="44.49777" lon="6.46315">
        <ele>1311.049492</ele>
        <time>2026-07-27T09:02:12.000Z</time>
      </trkpt>
      <trkpt lat="44.49773" lon="6.46314">
        <ele>1311.32901</ele>
        <time>2026-07-27T09:02:13.000Z</time>
      </trkpt>
      <trkpt lat="44.49773" lon="6.46314">
        <ele>1311.32901</ele>
        <time>2026-07-27T09:02:13.000Z</time>
      </trkpt>
      <trkpt lat="44.4977" lon="6.46313">
        <ele>1311.574799</ele>
        <time>2026-07-27T09:02:14.000Z</time>
      </trkpt>
      <trkpt lat="44.4977" lon="6.46313">
        <ele>1311.574799</ele>
        <time>2026-07-27T09:02:14.000Z</time>
      </trkpt>
      <trkpt lat="44.49766" lon="6.46314">
        <ele>1311.821071</ele>
        <time>2026-07-27T09:02:16.000Z</time>
      </trkpt>
      <trkpt lat="44.49766" lon="6.46314">
        <ele>1311.821071</ele>
        <time>2026-07-27T09:02:16.000Z</time>
      </trkpt>
      <trkpt lat="44.49764" lon="6.46314">
        <ele>1312.015641</ele>
        <time>2026-07-27T09:02:16.000Z</time>
      </trkpt>
      <trkpt lat="44.49764" lon="6.46314">
        <ele>1312.015641</ele>
        <time>2026-07-27T09:02:16.000Z</time>
      </trkpt>
      <trkpt lat="44.49761" lon="6.46315">
        <ele>1312.215565</ele>
        <time>2026-07-27T09:02:18.000Z</time>
      </trkpt>
      <trkpt lat="44.49761" lon="6.46315">
        <ele>1312.215565</ele>
        <time>2026-07-27T09:02:18.000Z</time>
      </trkpt>
      <trkpt lat="44.49759" lon="6.46315">
        <ele>1312.353302</ele>
        <time>2026-07-27T09:02:18.000Z</time>
      </trkpt>
      <trkpt lat="44.49759" lon="6.46315">
        <ele>1312.353302</ele>
        <time>2026-07-27T09:02:18.000Z</time>
      </trkpt>
      <trkpt lat="44.49759" lon="6.46315">
        <ele>1312.353302</ele>
        <time>2026-07-27T09:02:19.000Z</time>
      </trkpt>
      <trkpt lat="44.49756" lon="6.46314">
        <ele>1312.600164</ele>
        <time>2026-07-27T09:02:20.000Z</time>
      </trkpt>
      <trkpt lat="44.49756" lon="6.46314">
        <ele>1312.600164</ele>
        <time>2026-07-27T09:02:20.000Z</time>
      </trkpt>
      <trkpt lat="44.49754" lon="6.46314">
        <ele>1312.711233</ele>
        <time>2026-07-27T09:02:21.000Z</time>
      </trkpt>
      <trkpt lat="44.49754" lon="6.46314">
        <ele>1312.711233</ele>
        <time>2026-07-27T09:02:21.000Z</time>
      </trkpt>
      <trkpt lat="44.49752" lon="6.46313">
        <ele>1312.828311</ele>
        <time>2026-07-27T09:02:22.000Z</time>
      </trkpt>
      <trkpt lat="44.49752" lon="6.46313">
        <ele>1312.828311</ele>
        <time>2026-07-27T09:02:22.000Z</time>
      </trkpt>
      <trkpt lat="44.49751" lon="6.46313">
        <ele>1312.966718</ele>
        <time>2026-07-27T09:02:23.000Z</time>
      </trkpt>
      <trkpt lat="44.49751" lon="6.46313">
        <ele>1312.966718</ele>
        <time>2026-07-27T09:02:23.000Z</time>
      </trkpt>
      <trkpt lat="44.49751" lon="6.46313">
        <ele>1312.966718</ele>
        <time>2026-07-27T09:02:24.000Z</time>
      </trkpt>
      <trkpt lat="44.49747" lon="6.46314">
        <ele>1313.249756</ele>
        <time>2026-07-27T09:02:25.000Z</time>
      </trkpt>
      <trkpt lat="44.49747" lon="6.46314">
        <ele>1313.249756</ele>
        <time>2026-07-27T09:02:25.000Z</time>
      </trkpt>
      <trkpt lat="44.49745" lon="6.46315">
        <ele>1313.369407</ele>
        <time>2026-07-27T09:02:26.000Z</time>
      </trkpt>
      <trkpt lat="44.49745" lon="6.46315">
        <ele>1313.369407</ele>
        <time>2026-07-27T09:02:26.000Z</time>
      </trkpt>
      <trkpt lat="44.49743" lon="6.46317">
        <ele>1313.531778</ele>
        <time>2026-07-27T09:02:27.000Z</time>
      </trkpt>
      <trkpt lat="44.49743" lon="6.46317">
        <ele>1313.531778</ele>
        <time>2026-07-27T09:02:27.000Z</time>
      </trkpt>
      <trkpt lat="44.49741" lon="6.46318">
        <ele>1313.710423</ele>
        <time>2026-07-27T09:02:28.000Z</time>
      </trkpt>
      <trkpt lat="44.4974" lon="6.4632">
        <ele>1313.852658</ele>
        <time>2026-07-27T09:02:29.000Z</time>
      </trkpt>
      <trkpt lat="44.4974" lon="6.4632">
        <ele>1313.852658</ele>
        <time>2026-07-27T09:02:29.000Z</time>
      </trkpt>
      <trkpt lat="44.49737" lon="6.46322">
        <ele>1314.053234</ele>
        <time>2026-07-27T09:02:30.000Z</time>
      </trkpt>
      <trkpt lat="44.49737" lon="6.46322">
        <ele>1314.053234</ele>
        <time>2026-07-27T09:02:30.000Z</time>
      </trkpt>
      <trkpt lat="44.49735" lon="6.46326">
        <ele>1314.208263</ele>
        <time>2026-07-27T09:02:31.000Z</time>
      </trkpt>
      <trkpt lat="44.49735" lon="6.46326">
        <ele>1314.208263</ele>
        <time>2026-07-27T09:02:31.000Z</time>
      </trkpt>
      <trkpt lat="44.49732" lon="6.4633">
        <ele>1314.338065</ele>
        <time>2026-07-27T09:02:32.000Z</time>
      </trkpt>
      <trkpt lat="44.49732" lon="6.4633">
        <ele>1314.338065</ele>
        <time>2026-07-27T09:02:32.000Z</time>
      </trkpt>
      <trkpt lat="44.49729" lon="6.46334">
        <ele>1314.489092</ele>
        <time>2026-07-27T09:02:33.000Z</time>
      </trkpt>
      <trkpt lat="44.49729" lon="6.46334">
        <ele>1314.489092</ele>
        <time>2026-07-27T09:02:33.000Z</time>
      </trkpt>
      <trkpt lat="44.49725" lon="6.46338">
        <ele>1314.65071</ele>
        <time>2026-07-27T09:02:34.000Z</time>
      </trkpt>
      <trkpt lat="44.49725" lon="6.46338">
        <ele>1314.65071</ele>
        <time>2026-07-27T09:02:34.000Z</time>
      </trkpt>
      <trkpt lat="44.49722" lon="6.46342">
        <ele>1314.8065</ele>
        <time>2026-07-27T09:02:35.000Z</time>
      </trkpt>
      <trkpt lat="44.49722" lon="6.46342">
        <ele>1314.8065</ele>
        <time>2026-07-27T09:02:35.000Z</time>
      </trkpt>
      <trkpt lat="44.49714" lon="6.46351">
        <ele>1315.1362</ele>
        <time>2026-07-27T09:02:37.000Z</time>
      </trkpt>
      <trkpt lat="44.49714" lon="6.46351">
        <ele>1315.1362</ele>
        <time>2026-07-27T09:02:37.000Z</time>
      </trkpt>
      <trkpt lat="44.4971" lon="6.46355">
        <ele>1315.326274</ele>
        <time>2026-07-27T09:02:37.000Z</time>
      </trkpt>
      <trkpt lat="44.4971" lon="6.46355">
        <ele>1315.326274</ele>
        <time>2026-07-27T09:02:37.000Z</time>
      </trkpt>
      <trkpt lat="44.49706" lon="6.46359">
        <ele>1315.502222</ele>
        <time>2026-07-27T09:02:38.000Z</time>
      </trkpt>
      <trkpt lat="44.49706" lon="6.46359">
        <ele>1315.502222</ele>
        <time>2026-07-27T09:02:38.000Z</time>
      </trkpt>
      <trkpt lat="44.49701" lon="6.46362">
        <ele>1315.662108</ele>
        <time>2026-07-27T09:02:39.000Z</time>
      </trkpt>
      <trkpt lat="44.49701" lon="6.46362">
        <ele>1315.662108</ele>
        <time>2026-07-27T09:02:39.000Z</time>
      </trkpt>
      <trkpt lat="44.49692" lon="6.46365">
        <ele>1316.001079</ele>
        <time>2026-07-27T09:02:42.000Z</time>
      </trkpt>
      <trkpt lat="44.49692" lon="6.46365">
        <ele>1316.001079</ele>
        <time>2026-07-27T09:02:42.000Z</time>
      </trkpt>
      <trkpt lat="44.49687" lon="6.46367">
        <ele>1316.179835</ele>
        <time>2026-07-27T09:02:42.000Z</time>
      </trkpt>
      <trkpt lat="44.49687" lon="6.46367">
        <ele>1316.179835</ele>
        <time>2026-07-27T09:02:42.000Z</time>
      </trkpt>
      <trkpt lat="44.49679" lon="6.4637">
        <ele>1316.460591</ele>
        <time>2026-07-27T09:02:45.000Z</time>
      </trkpt>
      <trkpt lat="44.49679" lon="6.4637">
        <ele>1316.460591</ele>
        <time>2026-07-27T09:02:45.000Z</time>
      </trkpt>
      <trkpt lat="44.49675" lon="6.4637">
        <ele>1316.578122</ele>
        <time>2026-07-27T09:02:46.000Z</time>
      </trkpt>
      <trkpt lat="44.49675" lon="6.4637">
        <ele>1316.578122</ele>
        <time>2026-07-27T09:02:46.000Z</time>
      </trkpt>
      <trkpt lat="44.49672" lon="6.46371">
        <ele>1316.699345</ele>
        <time>2026-07-27T09:02:46.000Z</time>
      </trkpt>
      <trkpt lat="44.49669" lon="6.46371">
        <ele>1316.816875</ele>
        <time>2026-07-27T09:02:47.000Z</time>
      </trkpt>
      <trkpt lat="44.49669" lon="6.46371">
        <ele>1316.816875</ele>
        <time>2026-07-27T09:02:47.000Z</time>
      </trkpt>
      <trkpt lat="44.49665" lon="6.46373">
        <ele>1316.939415</ele>
        <time>2026-07-27T09:02:48.000Z</time>
      </trkpt>
      <trkpt lat="44.49665" lon="6.46373">
        <ele>1316.939415</ele>
        <time>2026-07-27T09:02:48.000Z</time>
      </trkpt>
      <trkpt lat="44.49661" lon="6.46375">
        <ele>1317.094433</ele>
        <time>2026-07-27T09:02:49.000Z</time>
      </trkpt>
      <trkpt lat="44.49653" lon="6.46382">
        <ele>1317.426684</ele>
        <time>2026-07-27T09:02:52.000Z</time>
      </trkpt>
      <trkpt lat="44.49648" lon="6.46386">
        <ele>1317.623394</ele>
        <time>2026-07-27T09:02:52.000Z</time>
      </trkpt>
      <trkpt lat="44.49642" lon="6.46389">
        <ele>1317.824806</ele>
        <time>2026-07-27T09:02:53.000Z</time>
      </trkpt>
      <trkpt lat="44.49636" lon="6.46393">
        <ele>1318.068851</ele>
        <time>2026-07-27T09:02:54.000Z</time>
      </trkpt>
      <trkpt lat="44.4963" lon="6.46397">
        <ele>1318.286904</ele>
        <time>2026-07-27T09:02:55.000Z</time>
      </trkpt>
      <trkpt lat="44.49624" lon="6.46403">
        <ele>1318.534926</ele>
        <time>2026-07-27T09:02:56.000Z</time>
      </trkpt>
      <trkpt lat="44.49624" lon="6.46403">
        <ele>1318.534926</ele>
        <time>2026-07-27T09:02:56.000Z</time>
      </trkpt>
      <trkpt lat="44.49619" lon="6.46409">
        <ele>1318.778024</ele>
        <time>2026-07-27T09:02:57.000Z</time>
      </trkpt>
      <trkpt lat="44.49613" lon="6.46415">
        <ele>1319.012223</ele>
        <time>2026-07-27T09:02:58.000Z</time>
      </trkpt>
      <trkpt lat="44.49613" lon="6.46415">
        <ele>1319.012223</ele>
        <time>2026-07-27T09:02:58.000Z</time>
      </trkpt>
      <trkpt lat="44.49609" lon="6.46419">
        <ele>1319.199622</ele>
        <time>2026-07-27T09:02:59.000Z</time>
      </trkpt>
      <trkpt lat="44.49609" lon="6.46419">
        <ele>1319.199622</ele>
        <time>2026-07-27T09:02:59.000Z</time>
      </trkpt>
      <trkpt lat="44.49604" lon="6.46423">
        <ele>1319.38981</ele>
        <time>2026-07-27T09:03:01.000Z</time>
      </trkpt>
      <trkpt lat="44.49604" lon="6.46423">
        <ele>1319.38981</ele>
        <time>2026-07-27T09:03:01.000Z</time>
      </trkpt>
      <trkpt lat="44.496" lon="6.46424">
        <ele>1319.530968</ele>
        <time>2026-07-27T09:03:02.000Z</time>
      </trkpt>
      <trkpt lat="44.496" lon="6.46424">
        <ele>1319.530968</ele>
        <time>2026-07-27T09:03:02.000Z</time>
      </trkpt>
      <trkpt lat="44.49596" lon="6.46426">
        <ele>1319.678328</ele>
        <time>2026-07-27T09:03:03.000Z</time>
      </trkpt>
      <trkpt lat="44.49596" lon="6.46426">
        <ele>1319.678328</ele>
        <time>2026-07-27T09:03:03.000Z</time>
      </trkpt>
      <trkpt lat="44.49592" lon="6.46426">
        <ele>1319.808992</ele>
        <time>2026-07-27T09:03:04.000Z</time>
      </trkpt>
      <trkpt lat="44.49592" lon="6.46426">
        <ele>1319.808992</ele>
        <time>2026-07-27T09:03:04.000Z</time>
      </trkpt>
      <trkpt lat="44.49588" lon="6.46425">
        <ele>1319.927516</ele>
        <time>2026-07-27T09:03:05.000Z</time>
      </trkpt>
      <trkpt lat="44.49588" lon="6.46425">
        <ele>1319.927516</ele>
        <time>2026-07-27T09:03:05.000Z</time>
      </trkpt>
      <trkpt lat="44.49585" lon="6.46424">
        <ele>1320.06143</ele>
        <time>2026-07-27T09:03:06.000Z</time>
      </trkpt>
      <trkpt lat="44.49585" lon="6.46424">
        <ele>1320.06143</ele>
        <time>2026-07-27T09:03:06.000Z</time>
      </trkpt>
      <trkpt lat="44.4958" lon="6.46423">
        <ele>1320.221464</ele>
        <time>2026-07-27T09:03:07.000Z</time>
      </trkpt>
      <trkpt lat="44.49575" lon="6.46422">
        <ele>1320.025379</ele>
        <time>2026-07-27T09:03:08.000Z</time>
      </trkpt>
      <trkpt lat="44.49575" lon="6.46422">
        <ele>1320.025379</ele>
        <time>2026-07-27T09:03:08.000Z</time>
      </trkpt>
      <trkpt lat="44.49571" lon="6.46421">
        <ele>1319.425052</ele>
        <time>2026-07-27T09:03:09.000Z</time>
      </trkpt>
      <trkpt lat="44.49566" lon="6.4642">
        <ele>1318.910486</ele>
        <time>2026-07-27T09:03:09.000Z</time>
      </trkpt>
      <trkpt lat="44.49562" lon="6.4642">
        <ele>1318.348739</ele>
        <time>2026-07-27T09:03:10.000Z</time>
      </trkpt>
      <trkpt lat="44.49562" lon="6.4642">
        <ele>1318.348739</ele>
        <time>2026-07-27T09:03:10.000Z</time>
      </trkpt>
      <trkpt lat="44.49558" lon="6.4642">
        <ele>1317.933511</ele>
        <time>2026-07-27T09:03:11.000Z</time>
      </trkpt>
      <trkpt lat="44.49555" lon="6.4642">
        <ele>1317.506561</ele>
        <time>2026-07-27T09:03:12.000Z</time>
      </trkpt>
      <trkpt lat="44.49552" lon="6.4642">
        <ele>1317.139978</ele>
        <time>2026-07-27T09:03:14.000Z</time>
      </trkpt>
      <trkpt lat="44.4955" lon="6.4642">
        <ele>1316.858432</ele>
        <time>2026-07-27T09:03:14.000Z</time>
      </trkpt>
      <trkpt lat="44.4955" lon="6.4642">
        <ele>1316.858432</ele>
        <time>2026-07-27T09:03:14.000Z</time>
      </trkpt>
      <trkpt lat="44.49547" lon="6.46421">
        <ele>1316.575949</ele>
        <time>2026-07-27T09:03:16.000Z</time>
      </trkpt>
      <trkpt lat="44.49545" lon="6.46421">
        <ele>1316.344368</ele>
        <time>2026-07-27T09:03:17.000Z</time>
      </trkpt>
      <trkpt lat="44.49543" lon="6.46421">
        <ele>1316.112135</ele>
        <time>2026-07-27T09:03:18.000Z</time>
      </trkpt>
      <trkpt lat="44.49541" lon="6.4642">
        <ele>1315.831666</ele>
        <time>2026-07-27T09:03:18.000Z</time>
      </trkpt>
      <trkpt lat="44.49539" lon="6.4642">
        <ele>1315.589866</ele>
        <time>2026-07-27T09:03:19.000Z</time>
      </trkpt>
      <trkpt lat="44.49538" lon="6.46418">
        <ele>1315.360135</ele>
        <time>2026-07-27T09:03:20.000Z</time>
      </trkpt>
      <trkpt lat="44.49538" lon="6.46418">
        <ele>1315.360135</ele>
        <time>2026-07-27T09:03:20.000Z</time>
      </trkpt>
      <trkpt lat="44.49537" lon="6.46416">
        <ele>1315.183069</ele>
        <time>2026-07-27T09:03:21.000Z</time>
      </trkpt>
      <trkpt lat="44.49537" lon="6.46414">
        <ele>1315.002481</ele>
        <time>2026-07-27T09:03:22.000Z</time>
      </trkpt>
      <trkpt lat="44.49537" lon="6.46412">
        <ele>1314.81121</ele>
        <time>2026-07-27T09:03:23.000Z</time>
      </trkpt>
      <trkpt lat="44.49537" lon="6.46412">
        <ele>1314.81121</ele>
        <time>2026-07-27T09:03:23.000Z</time>
      </trkpt>
      <trkpt lat="44.49537" lon="6.4641">
        <ele>1314.611854</ele>
        <time>2026-07-27T09:03:24.000Z</time>
      </trkpt>
      <trkpt lat="44.49537" lon="6.4641">
        <ele>1314.611854</ele>
        <time>2026-07-27T09:03:24.000Z</time>
      </trkpt>
      <trkpt lat="44.49538" lon="6.46408">
        <ele>1314.425933</ele>
        <time>2026-07-27T09:03:26.000Z</time>
      </trkpt>
      <trkpt lat="44.49538" lon="6.46408">
        <ele>1314.425933</ele>
        <time>2026-07-27T09:03:26.000Z</time>
      </trkpt>
      <trkpt lat="44.49538" lon="6.46408">
        <ele>1314.425933</ele>
        <time>2026-07-27T09:03:26.000Z</time>
      </trkpt>
      <trkpt lat="44.49541" lon="6.46403">
        <ele>1313.88071</ele>
        <time>2026-07-27T09:03:28.000Z</time>
      </trkpt>
      <trkpt lat="44.49541" lon="6.46403">
        <ele>1313.88071</ele>
        <time>2026-07-27T09:03:28.000Z</time>
      </trkpt>
      <trkpt lat="44.49541" lon="6.46403">
        <ele>1313.88071</ele>
        <time>2026-07-27T09:03:28.000Z</time>
      </trkpt>
      <trkpt lat="44.49543" lon="6.46402">
        <ele>1313.610562</ele>
        <time>2026-07-27T09:03:29.000Z</time>
      </trkpt>
      <trkpt lat="44.49543" lon="6.46402">
        <ele>1313.610562</ele>
        <time>2026-07-27T09:03:29.000Z</time>
      </trkpt>
      <trkpt lat="44.49543" lon="6.46402">
        <ele>1313.610562</ele>
        <time>2026-07-27T09:03:31.000Z</time>
      </trkpt>
      <trkpt lat="44.49542" lon="6.464">
        <ele>1313.429974</ele>
        <time>2026-07-27T09:03:31.000Z</time>
      </trkpt>
      <trkpt lat="44.49542" lon="6.464">
        <ele>1313.429974</ele>
        <time>2026-07-27T09:03:31.000Z</time>
      </trkpt>
      <trkpt lat="44.49542" lon="6.464">
        <ele>1313.42128</ele>
        <time>2026-07-27T09:03:32.000Z</time>
      </trkpt>
      <trkpt lat="44.49541" lon="6.46399">
        <ele>1313.256593</ele>
        <time>2026-07-27T09:03:33.000Z</time>
      </trkpt>
      <trkpt lat="44.4954" lon="6.46398">
        <ele>1313.06647</ele>
        <time>2026-07-27T09:03:34.000Z</time>
      </trkpt>
      <trkpt lat="44.4954" lon="6.46398">
        <ele>1313.06647</ele>
        <time>2026-07-27T09:03:34.000Z</time>
      </trkpt>
      <trkpt lat="44.49538" lon="6.46398">
        <ele>1312.866669</ele>
        <time>2026-07-27T09:03:35.000Z</time>
      </trkpt>
      <trkpt lat="44.49538" lon="6.46398">
        <ele>1312.866669</ele>
        <time>2026-07-27T09:03:35.000Z</time>
      </trkpt>
      <trkpt lat="44.49536" lon="6.46397">
        <ele>1312.627224</ele>
        <time>2026-07-27T09:03:37.000Z</time>
      </trkpt>
      <trkpt lat="44.49536" lon="6.46397">
        <ele>1312.627224</ele>
        <time>2026-07-27T09:03:37.000Z</time>
      </trkpt>
      <trkpt lat="44.49535" lon="6.46397">
        <ele>1312.492028</ele>
        <time>2026-07-27T09:03:37.000Z</time>
      </trkpt>
      <trkpt lat="44.49535" lon="6.46397">
        <ele>1312.492028</ele>
        <time>2026-07-27T09:03:37.000Z</time>
      </trkpt>
      <trkpt lat="44.49535" lon="6.46397">
        <ele>1312.492028</ele>
        <time>2026-07-27T09:03:38.000Z</time>
      </trkpt>
      <trkpt lat="44.49533" lon="6.46397">
        <ele>1312.211559</ele>
        <time>2026-07-27T09:03:39.000Z</time>
      </trkpt>
      <trkpt lat="44.49533" lon="6.46397">
        <ele>1312.211559</ele>
        <time>2026-07-27T09:03:39.000Z</time>
      </trkpt>
      <trkpt lat="44.49533" lon="6.46397">
        <ele>1312.211559</ele>
        <time>2026-07-27T09:03:40.000Z</time>
      </trkpt>
      <trkpt lat="44.49531" lon="6.46397">
        <ele>1312.027907</ele>
        <time>2026-07-27T09:03:41.000Z</time>
      </trkpt>
      <trkpt lat="44.49531" lon="6.46397">
        <ele>1312.027907</ele>
        <time>2026-07-27T09:03:41.000Z</time>
      </trkpt>
      <trkpt lat="44.49531" lon="6.46397">
        <ele>1311.972615</ele>
        <time>2026-07-27T09:03:42.000Z</time>
      </trkpt>
      <trkpt lat="44.49529" lon="6.46396">
        <ele>1311.679108</ele>
        <time>2026-07-27T09:03:44.000Z</time>
      </trkpt>
      <trkpt lat="44.49529" lon="6.46396">
        <ele>1311.679108</ele>
        <time>2026-07-27T09:03:44.000Z</time>
      </trkpt>
      <trkpt lat="44.49529" lon="6.46396">
        <ele>1311.679108</ele>
        <time>2026-07-27T09:03:46.000Z</time>
      </trkpt>
      <trkpt lat="44.49529" lon="6.46393">
        <ele>1311.392494</ele>
        <time>2026-07-27T09:03:47.000Z</time>
      </trkpt>
      <trkpt lat="44.49529" lon="6.46393">
        <ele>1311.392494</ele>
        <time>2026-07-27T09:03:47.000Z</time>
      </trkpt>
      <trkpt lat="44.4953" lon="6.46392">
        <ele>1311.243851</ele>
        <time>2026-07-27T09:03:47.000Z</time>
      </trkpt>
      <trkpt lat="44.4953" lon="6.46392">
        <ele>1311.243851</ele>
        <time>2026-07-27T09:03:47.000Z</time>
      </trkpt>
      <trkpt lat="44.49531" lon="6.4639">
        <ele>1311.081017</ele>
        <time>2026-07-27T09:03:49.000Z</time>
      </trkpt>
      <trkpt lat="44.49531" lon="6.4639">
        <ele>1311.081017</ele>
        <time>2026-07-27T09:03:49.000Z</time>
      </trkpt>
      <trkpt lat="44.49532" lon="6.46388">
        <ele>1310.851286</ele>
        <time>2026-07-27T09:03:49.000Z</time>
      </trkpt>
      <trkpt lat="44.49532" lon="6.46388">
        <ele>1310.851286</ele>
        <time>2026-07-27T09:03:49.000Z</time>
      </trkpt>
      <trkpt lat="44.49534" lon="6.46387">
        <ele>1310.671628</ele>
        <time>2026-07-27T09:03:50.000Z</time>
      </trkpt>
      <trkpt lat="44.49534" lon="6.46387">
        <ele>1310.671628</ele>
        <time>2026-07-27T09:03:50.000Z</time>
      </trkpt>
      <trkpt lat="44.49535" lon="6.46386">
        <ele>1310.520588</ele>
        <time>2026-07-27T09:03:51.000Z</time>
      </trkpt>
      <trkpt lat="44.49535" lon="6.46386">
        <ele>1310.520588</ele>
        <time>2026-07-27T09:03:51.000Z</time>
      </trkpt>
      <trkpt lat="44.49535" lon="6.46386">
        <ele>1310.520588</ele>
        <time>2026-07-27T09:03:52.000Z</time>
      </trkpt>
      <trkpt lat="44.49537" lon="6.46385">
        <ele>1310.236129</ele>
        <time>2026-07-27T09:03:53.000Z</time>
      </trkpt>
      <trkpt lat="44.49537" lon="6.46385">
        <ele>1310.236129</ele>
        <time>2026-07-27T09:03:53.000Z</time>
      </trkpt>
      <trkpt lat="44.49537" lon="6.46385">
        <ele>1310.236129</ele>
        <time>2026-07-27T09:03:54.000Z</time>
      </trkpt>
      <trkpt lat="44.49538" lon="6.46384">
        <ele>1310.043439</ele>
        <time>2026-07-27T09:03:55.000Z</time>
      </trkpt>
      <trkpt lat="44.49538" lon="6.46384">
        <ele>1310.043439</ele>
        <time>2026-07-27T09:03:55.000Z</time>
      </trkpt>
      <trkpt lat="44.49538" lon="6.46384">
        <ele>1310.043439</ele>
        <time>2026-07-27T09:03:56.000Z</time>
      </trkpt>
      <trkpt lat="44.49538" lon="6.46384">
        <ele>1310.043439</ele>
        <time>2026-07-27T09:03:58.000Z</time>
      </trkpt>
      <trkpt lat="44.49538" lon="6.46384">
        <ele>1310.034745</ele>
        <time>2026-07-27T09:03:59.000Z</time>
      </trkpt>
      <trkpt lat="44.49537" lon="6.46381">
        <ele>1309.7303</ele>
        <time>2026-07-27T09:04:00.000Z</time>
      </trkpt>
      <trkpt lat="44.49537" lon="6.46381">
        <ele>1309.7303</ele>
        <time>2026-07-27T09:04:00.000Z</time>
      </trkpt>
      <trkpt lat="44.49535" lon="6.4638">
        <ele>1309.554944</ele>
        <time>2026-07-27T09:04:01.000Z</time>
      </trkpt>
      <trkpt lat="44.49535" lon="6.4638">
        <ele>1309.554944</ele>
        <time>2026-07-27T09:04:01.000Z</time>
      </trkpt>
      <trkpt lat="44.49534" lon="6.46378">
        <ele>1309.275444</ele>
        <time>2026-07-27T09:04:01.000Z</time>
      </trkpt>
      <trkpt lat="44.49534" lon="6.46378">
        <ele>1309.275444</ele>
        <time>2026-07-27T09:04:01.000Z</time>
      </trkpt>
      <trkpt lat="44.49532" lon="6.46377">
        <ele>1309.021447</ele>
        <time>2026-07-27T09:04:03.000Z</time>
      </trkpt>
      <trkpt lat="44.49532" lon="6.46377">
        <ele>1309.021447</ele>
        <time>2026-07-27T09:04:03.000Z</time>
      </trkpt>
      <trkpt lat="44.4953" lon="6.46375">
        <ele>1308.75629</ele>
        <time>2026-07-27T09:04:03.000Z</time>
      </trkpt>
      <trkpt lat="44.4953" lon="6.46375">
        <ele>1308.75629</ele>
        <time>2026-07-27T09:04:03.000Z</time>
      </trkpt>
      <trkpt lat="44.49528" lon="6.46374">
        <ele>1308.505739</ele>
        <time>2026-07-27T09:04:04.000Z</time>
      </trkpt>
      <trkpt lat="44.49528" lon="6.46374">
        <ele>1308.505739</ele>
        <time>2026-07-27T09:04:04.000Z</time>
      </trkpt>
      <trkpt lat="44.49526" lon="6.46373">
        <ele>1308.258376</ele>
        <time>2026-07-27T09:04:05.000Z</time>
      </trkpt>
      <trkpt lat="44.49526" lon="6.46373">
        <ele>1308.258376</ele>
        <time>2026-07-27T09:04:05.000Z</time>
      </trkpt>
      <trkpt lat="44.49526" lon="6.46373">
        <ele>1308.258376</ele>
        <time>2026-07-27T09:04:06.000Z</time>
      </trkpt>
      <trkpt lat="44.49522" lon="6.46373">
        <ele>1307.746387</ele>
        <time>2026-07-27T09:04:08.000Z</time>
      </trkpt>
      <trkpt lat="44.49522" lon="6.46373">
        <ele>1307.746387</ele>
        <time>2026-07-27T09:04:08.000Z</time>
      </trkpt>
      <trkpt lat="44.49521" lon="6.46373">
        <ele>1307.65717</ele>
        <time>2026-07-27T09:04:08.000Z</time>
      </trkpt>
      <trkpt lat="44.49521" lon="6.46372">
        <ele>1307.55284</ele>
        <time>2026-07-27T09:04:09.000Z</time>
      </trkpt>
      <trkpt lat="44.49521" lon="6.4637">
        <ele>1307.388927</ele>
        <time>2026-07-27T09:04:10.000Z</time>
      </trkpt>
      <trkpt lat="44.49521" lon="6.46368">
        <ele>1307.183105</ele>
        <time>2026-07-27T09:04:12.000Z</time>
      </trkpt>
      <trkpt lat="44.49522" lon="6.46365">
        <ele>1306.949605</ele>
        <time>2026-07-27T09:04:13.000Z</time>
      </trkpt>
      <trkpt lat="44.49523" lon="6.46363">
        <ele>1306.694031</ele>
        <time>2026-07-27T09:04:13.000Z</time>
      </trkpt>
      <trkpt lat="44.49526" lon="6.46361">
        <ele>1306.328393</ele>
        <time>2026-07-27T09:04:15.000Z</time>
      </trkpt>
      <trkpt lat="44.49526" lon="6.46361">
        <ele>1306.328393</ele>
        <time>2026-07-27T09:04:15.000Z</time>
      </trkpt>
      <trkpt lat="44.49528" lon="6.46358">
        <ele>1305.92343</ele>
        <time>2026-07-27T09:04:16.000Z</time>
      </trkpt>
      <trkpt lat="44.49528" lon="6.46358">
        <ele>1305.92343</ele>
        <time>2026-07-27T09:04:16.000Z</time>
      </trkpt>
      <trkpt lat="44.49531" lon="6.46354">
        <ele>1305.46927</ele>
        <time>2026-07-27T09:04:17.000Z</time>
      </trkpt>
      <trkpt lat="44.49531" lon="6.46354">
        <ele>1305.46927</ele>
        <time>2026-07-27T09:04:17.000Z</time>
      </trkpt>
      <trkpt lat="44.49534" lon="6.46351">
        <ele>1304.993562</ele>
        <time>2026-07-27T09:04:17.000Z</time>
      </trkpt>
      <trkpt lat="44.49534" lon="6.46351">
        <ele>1304.993562</ele>
        <time>2026-07-27T09:04:17.000Z</time>
      </trkpt>
      <trkpt lat="44.49537" lon="6.46348">
        <ele>1304.524343</ele>
        <time>2026-07-27T09:04:19.000Z</time>
      </trkpt>
      <trkpt lat="44.49537" lon="6.46348">
        <ele>1304.524343</ele>
        <time>2026-07-27T09:04:19.000Z</time>
      </trkpt>
      <trkpt lat="44.4954" lon="6.46344">
        <ele>1304.054149</ele>
        <time>2026-07-27T09:04:19.000Z</time>
      </trkpt>
      <trkpt lat="44.4954" lon="6.46344">
        <ele>1304.054149</ele>
        <time>2026-07-27T09:04:19.000Z</time>
      </trkpt>
      <trkpt lat="44.49543" lon="6.46341">
        <ele>1303.599909</ele>
        <time>2026-07-27T09:04:21.000Z</time>
      </trkpt>
      <trkpt lat="44.49543" lon="6.46341">
        <ele>1303.599909</ele>
        <time>2026-07-27T09:04:21.000Z</time>
      </trkpt>
      <trkpt lat="44.49546" lon="6.46338">
        <ele>1303.179995</ele>
        <time>2026-07-27T09:04:21.000Z</time>
      </trkpt>
      <trkpt lat="44.49546" lon="6.46338">
        <ele>1303.179995</ele>
        <time>2026-07-27T09:04:21.000Z</time>
      </trkpt>
      <trkpt lat="44.49548" lon="6.46336">
        <ele>1302.795719</ele>
        <time>2026-07-27T09:04:22.000Z</time>
      </trkpt>
      <trkpt lat="44.49548" lon="6.46336">
        <ele>1302.795719</ele>
        <time>2026-07-27T09:04:22.000Z</time>
      </trkpt>
      <trkpt lat="44.4955" lon="6.46334">
        <ele>1302.51622</ele>
        <time>2026-07-27T09:04:23.000Z</time>
      </trkpt>
      <trkpt lat="44.49551" lon="6.46332">
        <ele>1302.314371</ele>
        <time>2026-07-27T09:04:24.000Z</time>
      </trkpt>
      <trkpt lat="44.49553" lon="6.46331">
        <ele>1302.044223</ele>
        <time>2026-07-27T09:04:26.000Z</time>
      </trkpt>
      <trkpt lat="44.49556" lon="6.46326">
        <ele>1301.499001</ele>
        <time>2026-07-27T09:04:27.000Z</time>
      </trkpt>
      <trkpt lat="44.49556" lon="6.46325">
        <ele>1301.414063</ele>
        <time>2026-07-27T09:04:28.000Z</time>
      </trkpt>
      <trkpt lat="44.49555" lon="6.46324">
        <ele>1301.283424</ele>
        <time>2026-07-27T09:04:29.000Z</time>
      </trkpt>
      <trkpt lat="44.49553" lon="6.46323">
        <ele>1301.063786</ele>
        <time>2026-07-27T09:04:31.000Z</time>
      </trkpt>
      <trkpt lat="44.49551" lon="6.46321">
        <ele>1300.802167</ele>
        <time>2026-07-27T09:04:32.000Z</time>
      </trkpt>
      <trkpt lat="44.49549" lon="6.4632">
        <ele>1300.503048</ele>
        <time>2026-07-27T09:04:32.000Z</time>
      </trkpt>
      <trkpt lat="44.49547" lon="6.46319">
        <ele>1300.258605</ele>
        <time>2026-07-27T09:04:34.000Z</time>
      </trkpt>
      <trkpt lat="44.49545" lon="6.46318">
        <ele>1299.956344</ele>
        <time>2026-07-27T09:04:35.000Z</time>
      </trkpt>
      <trkpt lat="44.49543" lon="6.46317">
        <ele>1299.7169</ele>
        <time>2026-07-27T09:04:36.000Z</time>
      </trkpt>
      <trkpt lat="44.49542" lon="6.46317">
        <ele>1299.528976</ele>
        <time>2026-07-27T09:04:37.000Z</time>
      </trkpt>
      <trkpt lat="44.4954" lon="6.46316">
        <ele>1299.329174</ele>
        <time>2026-07-27T09:04:37.000Z</time>
      </trkpt>
      <trkpt lat="44.49536" lon="6.46315">
        <ele>1298.818673</ele>
        <time>2026-07-27T09:04:39.000Z</time>
      </trkpt>
      <trkpt lat="44.49534" lon="6.46311">
        <ele>1298.421955</ele>
        <time>2026-07-27T09:04:41.000Z</time>
      </trkpt>
      <trkpt lat="44.49535" lon="6.4631">
        <ele>1298.165211</ele>
        <time>2026-07-27T09:04:42.000Z</time>
      </trkpt>
      <trkpt lat="44.49535" lon="6.46309">
        <ele>1297.828534</ele>
        <time>2026-07-27T09:04:43.000Z</time>
      </trkpt>
      <trkpt lat="44.49537" lon="6.46308">
        <ele>1297.361857</ele>
        <time>2026-07-27T09:04:45.000Z</time>
      </trkpt>
      <trkpt lat="44.49538" lon="6.46307">
        <ele>1296.968622</ele>
        <time>2026-07-27T09:04:46.000Z</time>
      </trkpt>
      <trkpt lat="44.49539" lon="6.46306">
        <ele>1296.43754</ele>
        <time>2026-07-27T09:04:47.000Z</time>
      </trkpt>
      <trkpt lat="44.4954" lon="6.46304">
        <ele>1295.831659</ele>
        <time>2026-07-27T09:04:48.000Z</time>
      </trkpt>
      <trkpt lat="44.49542" lon="6.46302">
        <ele>1295.18726</ele>
        <time>2026-07-27T09:04:49.000Z</time>
      </trkpt>
      <trkpt lat="44.49543" lon="6.463">
        <ele>1294.672987</ele>
        <time>2026-07-27T09:04:49.000Z</time>
      </trkpt>
      <trkpt lat="44.49543" lon="6.46298">
        <ele>1294.185973</ele>
        <time>2026-07-27T09:04:51.000Z</time>
      </trkpt>
      <trkpt lat="44.49543" lon="6.46297">
        <ele>1293.784881</ele>
        <time>2026-07-27T09:04:52.000Z</time>
      </trkpt>
      <trkpt lat="44.49542" lon="6.46295">
        <ele>1293.24239</ele>
        <time>2026-07-27T09:04:52.000Z</time>
      </trkpt>
      <trkpt lat="44.49539" lon="6.46294">
        <ele>1292.425662</ele>
        <time>2026-07-27T09:04:54.000Z</time>
      </trkpt>
      <trkpt lat="44.49537" lon="6.46292">
        <ele>1291.563482</ele>
        <time>2026-07-27T09:04:54.000Z</time>
      </trkpt>
      <trkpt lat="44.49535" lon="6.4629">
        <ele>1290.817153</ele>
        <time>2026-07-27T09:04:56.000Z</time>
      </trkpt>
      <trkpt lat="44.49532" lon="6.46286">
        <ele>1289.706578</ele>
        <time>2026-07-27T09:04:57.000Z</time>
      </trkpt>
      <trkpt lat="44.49531" lon="6.46283">
        <ele>1288.810835</ele>
        <time>2026-07-27T09:04:57.000Z</time>
      </trkpt>
      <trkpt lat="44.4953" lon="6.46279">
        <ele>1287.858434</ele>
        <time>2026-07-27T09:04:59.000Z</time>
      </trkpt>
      <trkpt lat="44.49529" lon="6.46274">
        <ele>1286.826461</ele>
        <time>2026-07-27T09:05:00.000Z</time>
      </trkpt>
      <trkpt lat="44.49529" lon="6.4627">
        <ele>1285.722</ele>
        <time>2026-07-27T09:05:01.000Z</time>
      </trkpt>
      <trkpt lat="44.49527" lon="6.46264">
        <ele>1284.506726</ele>
        <time>2026-07-27T09:05:02.000Z</time>
      </trkpt>
      <trkpt lat="44.49527" lon="6.4626">
        <ele>1283.51103</ele>
        <time>2026-07-27T09:05:03.000Z</time>
      </trkpt>
      <trkpt lat="44.49525" lon="6.46257">
        <ele>1282.50762</ele>
        <time>2026-07-27T09:05:04.000Z</time>
      </trkpt>
      <trkpt lat="44.49523" lon="6.46253">
        <ele>1281.668299</ele>
        <time>2026-07-27T09:05:05.000Z</time>
      </trkpt>
      <trkpt lat="44.49521" lon="6.46251">
        <ele>1280.696615</ele>
        <time>2026-07-27T09:05:06.000Z</time>
      </trkpt>
      <trkpt lat="44.49518" lon="6.46248">
        <ele>1279.680216</ele>
        <time>2026-07-27T09:05:07.000Z</time>
      </trkpt>
      <trkpt lat="44.49515" lon="6.46244">
        <ele>1278.410193</ele>
        <time>2026-07-27T09:05:08.000Z</time>
      </trkpt>
      <trkpt lat="44.49512" lon="6.46241">
        <ele>1277.131328</ele>
        <time>2026-07-27T09:05:09.000Z</time>
      </trkpt>
      <trkpt lat="44.49509" lon="6.46237">
        <ele>1275.822969</ele>
        <time>2026-07-27T09:05:10.000Z</time>
      </trkpt>
      <trkpt lat="44.49507" lon="6.46233">
        <ele>1274.760802</ele>
        <time>2026-07-27T09:05:11.000Z</time>
      </trkpt>
      <trkpt lat="44.49505" lon="6.46229">
        <ele>1273.791327</ele>
        <time>2026-07-27T09:05:12.000Z</time>
      </trkpt>
      <trkpt lat="44.49504" lon="6.46227">
        <ele>1273.094638</ele>
        <time>2026-07-27T09:05:13.000Z</time>
      </trkpt>
      <trkpt lat="44.49502" lon="6.46223">
        <ele>1272.126883</ele>
        <time>2026-07-27T09:05:14.000Z</time>
      </trkpt>
      <trkpt lat="44.49501" lon="6.4622">
        <ele>1271.212004</ele>
        <time>2026-07-27T09:05:14.000Z</time>
      </trkpt>
      <trkpt lat="44.49499" lon="6.46216">
        <ele>1270.171828</ele>
        <time>2026-07-27T09:05:16.000Z</time>
      </trkpt>
      <trkpt lat="44.49498" lon="6.46212">
        <ele>1269.105986</ele>
        <time>2026-07-27T09:05:16.000Z</time>
      </trkpt>
      <trkpt lat="44.49497" lon="6.46207">
        <ele>1268.124498</ele>
        <time>2026-07-27T09:05:17.000Z</time>
      </trkpt>
      <trkpt lat="44.49495" lon="6.46205">
        <ele>1267.392595</ele>
        <time>2026-07-27T09:05:19.000Z</time>
      </trkpt>
      <trkpt lat="44.49494" lon="6.46201">
        <ele>1266.473717</ele>
        <time>2026-07-27T09:05:19.000Z</time>
      </trkpt>
      <trkpt lat="44.49492" lon="6.46197">
        <ele>1265.505961</ele>
        <time>2026-07-27T09:05:21.000Z</time>
      </trkpt>
      <trkpt lat="44.49492" lon="6.46197">
        <ele>1265.505961</ele>
        <time>2026-07-27T09:05:21.000Z</time>
      </trkpt>
      <trkpt lat="44.49491" lon="6.46194">
        <ele>1264.630357</ele>
        <time>2026-07-27T09:05:22.000Z</time>
      </trkpt>
      <trkpt lat="44.49491" lon="6.46194">
        <ele>1264.630357</ele>
        <time>2026-07-27T09:05:22.000Z</time>
      </trkpt>
      <trkpt lat="44.49488" lon="6.46192">
        <ele>1263.702275</ele>
        <time>2026-07-27T09:05:23.000Z</time>
      </trkpt>
      <trkpt lat="44.49488" lon="6.46192">
        <ele>1263.702275</ele>
        <time>2026-07-27T09:05:23.000Z</time>
      </trkpt>
      <trkpt lat="44.49486" lon="6.46189">
        <ele>1262.738224</ele>
        <time>2026-07-27T09:05:24.000Z</time>
      </trkpt>
      <trkpt lat="44.49486" lon="6.46189">
        <ele>1262.738224</ele>
        <time>2026-07-27T09:05:24.000Z</time>
      </trkpt>
      <trkpt lat="44.49484" lon="6.46187">
        <ele>1261.789261</ele>
        <time>2026-07-27T09:05:25.000Z</time>
      </trkpt>
      <trkpt lat="44.49484" lon="6.46187">
        <ele>1261.789261</ele>
        <time>2026-07-27T09:05:25.000Z</time>
      </trkpt>
      <trkpt lat="44.49481" lon="6.46185">
        <ele>1260.982737</ele>
        <time>2026-07-27T09:05:25.000Z</time>
      </trkpt>
      <trkpt lat="44.49481" lon="6.46185">
        <ele>1260.982737</ele>
        <time>2026-07-27T09:05:25.000Z</time>
      </trkpt>
      <trkpt lat="44.49479" lon="6.46184">
        <ele>1260.328147</ele>
        <time>2026-07-27T09:05:26.000Z</time>
      </trkpt>
      <trkpt lat="44.49479" lon="6.46184">
        <ele>1260.328147</ele>
        <time>2026-07-27T09:05:26.000Z</time>
      </trkpt>
      <trkpt lat="44.49479" lon="6.46184">
        <ele>1260.328147</ele>
        <time>2026-07-27T09:05:27.000Z</time>
      </trkpt>
      <trkpt lat="44.49479" lon="6.46184">
        <ele>1260.328147</ele>
        <time>2026-07-27T09:05:28.000Z</time>
      </trkpt>
      <trkpt lat="44.49479" lon="6.46184">
        <ele>1260.328147</ele>
        <time>2026-07-27T09:05:29.000Z</time>
      </trkpt>
      <trkpt lat="44.49476" lon="6.4618">
        <ele>1258.808154</ele>
        <time>2026-07-27T09:05:30.000Z</time>
      </trkpt>
      <trkpt lat="44.49476" lon="6.4618">
        <ele>1258.808154</ele>
        <time>2026-07-27T09:05:30.000Z</time>
      </trkpt>
      <trkpt lat="44.49476" lon="6.4618">
        <ele>1258.808154</ele>
        <time>2026-07-27T09:05:31.000Z</time>
      </trkpt>
      <trkpt lat="44.49476" lon="6.4618">
        <ele>1258.808154</ele>
        <time>2026-07-27T09:05:33.000Z</time>
      </trkpt>
      <trkpt lat="44.49474" lon="6.46175">
        <ele>1257.689629</ele>
        <time>2026-07-27T09:05:34.000Z</time>
      </trkpt>
      <trkpt lat="44.49474" lon="6.46175">
        <ele>1257.689629</ele>
        <time>2026-07-27T09:05:34.000Z</time>
      </trkpt>
      <trkpt lat="44.49474" lon="6.46175">
        <ele>1257.689629</ele>
        <time>2026-07-27T09:05:34.000Z</time>
      </trkpt>
      <trkpt lat="44.49476" lon="6.46173">
        <ele>1257.072284</ele>
        <time>2026-07-27T09:05:35.000Z</time>
      </trkpt>
      <trkpt lat="44.49476" lon="6.46173">
        <ele>1257.072284</ele>
        <time>2026-07-27T09:05:35.000Z</time>
      </trkpt>
      <trkpt lat="44.49477" lon="6.46174">
        <ele>1256.834839</ele>
        <time>2026-07-27T09:05:36.000Z</time>
      </trkpt>
      <trkpt lat="44.49479" lon="6.46175">
        <ele>1256.197345</ele>
        <time>2026-07-27T09:05:37.000Z</time>
      </trkpt>
      <trkpt lat="44.49479" lon="6.46175">
        <ele>1256.197345</ele>
        <time>2026-07-27T09:05:37.000Z</time>
      </trkpt>
      <trkpt lat="44.4948" lon="6.46176">
        <ele>1255.559851</ele>
        <time>2026-07-27T09:05:38.000Z</time>
      </trkpt>
      <trkpt lat="44.4948" lon="6.46176">
        <ele>1255.559851</ele>
        <time>2026-07-27T09:05:38.000Z</time>
      </trkpt>
      <trkpt lat="44.49483" lon="6.46177">
        <ele>1254.7965</ele>
        <time>2026-07-27T09:05:40.000Z</time>
      </trkpt>
      <trkpt lat="44.49483" lon="6.46177">
        <ele>1254.7965</ele>
        <time>2026-07-27T09:05:40.000Z</time>
      </trkpt>
      <trkpt lat="44.49486" lon="6.46178">
        <ele>1253.80208</ele>
        <time>2026-07-27T09:05:41.000Z</time>
      </trkpt>
      <trkpt lat="44.49486" lon="6.46178">
        <ele>1253.80208</ele>
        <time>2026-07-27T09:05:41.000Z</time>
      </trkpt>
      <trkpt lat="44.49488" lon="6.46178">
        <ele>1253.076494</ele>
        <time>2026-07-27T09:05:41.000Z</time>
      </trkpt>
      <trkpt lat="44.49488" lon="6.46178">
        <ele>1253.076494</ele>
        <time>2026-07-27T09:05:41.000Z</time>
      </trkpt>
      <trkpt lat="44.49491" lon="6.46179">
        <ele>1252.129894</ele>
        <time>2026-07-27T09:05:42.000Z</time>
      </trkpt>
      <trkpt lat="44.49491" lon="6.46179">
        <ele>1252.129894</ele>
        <time>2026-07-27T09:05:42.000Z</time>
      </trkpt>
      <trkpt lat="44.49494" lon="6.4618">
        <ele>1251.240182</ele>
        <time>2026-07-27T09:05:43.000Z</time>
      </trkpt>
      <trkpt lat="44.49494" lon="6.4618">
        <ele>1251.240182</ele>
        <time>2026-07-27T09:05:43.000Z</time>
      </trkpt>
      <trkpt lat="44.49497" lon="6.4618">
        <ele>1250.288294</ele>
        <time>2026-07-27T09:05:44.000Z</time>
      </trkpt>
      <trkpt lat="44.49497" lon="6.4618">
        <ele>1250.288294</ele>
        <time>2026-07-27T09:05:44.000Z</time>
      </trkpt>
      <trkpt lat="44.495" lon="6.46182">
        <ele>1249.271903</ele>
        <time>2026-07-27T09:05:45.000Z</time>
      </trkpt>
      <trkpt lat="44.495" lon="6.46182">
        <ele>1249.271903</ele>
        <time>2026-07-27T09:05:45.000Z</time>
      </trkpt>
      <trkpt lat="44.49502" lon="6.46183">
        <ele>1248.508552</ele>
        <time>2026-07-27T09:05:46.000Z</time>
      </trkpt>
      <trkpt lat="44.49505" lon="6.46182">
        <ele>1247.539934</ele>
        <time>2026-07-27T09:05:47.000Z</time>
      </trkpt>
      <trkpt lat="44.49505" lon="6.46182">
        <ele>1247.539934</ele>
        <time>2026-07-27T09:05:47.000Z</time>
      </trkpt>
      <trkpt lat="44.49508" lon="6.4618">
        <ele>1246.494326</ele>
        <time>2026-07-27T09:05:48.000Z</time>
      </trkpt>
      <trkpt lat="44.49508" lon="6.4618">
        <ele>1246.494326</ele>
        <time>2026-07-27T09:05:48.000Z</time>
      </trkpt>
      <trkpt lat="44.49511" lon="6.4618">
        <ele>1245.545343</ele>
        <time>2026-07-27T09:05:49.000Z</time>
      </trkpt>
      <trkpt lat="44.49511" lon="6.4618">
        <ele>1245.545343</ele>
        <time>2026-07-27T09:05:49.000Z</time>
      </trkpt>
      <trkpt lat="44.49515" lon="6.46177">
        <ele>1244.16899</ele>
        <time>2026-07-27T09:05:50.000Z</time>
      </trkpt>
      <trkpt lat="44.49515" lon="6.46177">
        <ele>1244.16899</ele>
        <time>2026-07-27T09:05:50.000Z</time>
      </trkpt>
      <trkpt lat="44.49519" lon="6.46173">
        <ele>1242.610849</ele>
        <time>2026-07-27T09:05:51.000Z</time>
      </trkpt>
      <trkpt lat="44.49519" lon="6.46173">
        <ele>1242.610849</ele>
        <time>2026-07-27T09:05:51.000Z</time>
      </trkpt>
      <trkpt lat="44.49524" lon="6.4617">
        <ele>1241.483786</ele>
        <time>2026-07-27T09:05:52.000Z</time>
      </trkpt>
      <trkpt lat="44.49524" lon="6.4617">
        <ele>1241.483786</ele>
        <time>2026-07-27T09:05:52.000Z</time>
      </trkpt>
      <trkpt lat="44.49529" lon="6.46168">
        <ele>1240.841065</ele>
        <time>2026-07-27T09:05:53.000Z</time>
      </trkpt>
      <trkpt lat="44.49529" lon="6.46168">
        <ele>1240.841065</ele>
        <time>2026-07-27T09:05:53.000Z</time>
      </trkpt>
      <trkpt lat="44.49534" lon="6.46166">
        <ele>1240.168096</ele>
        <time>2026-07-27T09:05:54.000Z</time>
      </trkpt>
      <trkpt lat="44.49534" lon="6.46166">
        <ele>1240.168096</ele>
        <time>2026-07-27T09:05:54.000Z</time>
      </trkpt>
      <trkpt lat="44.4954" lon="6.46165">
        <ele>1239.34689</ele>
        <time>2026-07-27T09:05:55.000Z</time>
      </trkpt>
      <trkpt lat="44.4954" lon="6.46165">
        <ele>1239.34689</ele>
        <time>2026-07-27T09:05:55.000Z</time>
      </trkpt>
      <trkpt lat="44.49545" lon="6.46164">
        <ele>1238.67716</ele>
        <time>2026-07-27T09:05:56.000Z</time>
      </trkpt>
      <trkpt lat="44.49545" lon="6.46164">
        <ele>1238.67716</ele>
        <time>2026-07-27T09:05:56.000Z</time>
      </trkpt>
      <trkpt lat="44.49551" lon="6.46163">
        <ele>1237.917752</ele>
        <time>2026-07-27T09:05:57.000Z</time>
      </trkpt>
      <trkpt lat="44.49551" lon="6.46163">
        <ele>1237.917752</ele>
        <time>2026-07-27T09:05:57.000Z</time>
      </trkpt>
      <trkpt lat="44.49557" lon="6.46163">
        <ele>1237.053984</ele>
        <time>2026-07-27T09:05:58.000Z</time>
      </trkpt>
      <trkpt lat="44.49557" lon="6.46163">
        <ele>1237.053984</ele>
        <time>2026-07-27T09:05:58.000Z</time>
      </trkpt>
      <trkpt lat="44.49564" lon="6.46163">
        <ele>1236.08414</ele>
        <time>2026-07-27T09:05:59.000Z</time>
      </trkpt>
      <trkpt lat="44.49564" lon="6.46163">
        <ele>1236.08414</ele>
        <time>2026-07-27T09:05:59.000Z</time>
      </trkpt>
      <trkpt lat="44.49572" lon="6.46164">
        <ele>1235.020241</ele>
        <time>2026-07-27T09:06:00.000Z</time>
      </trkpt>
      <trkpt lat="44.49572" lon="6.46164">
        <ele>1235.020241</ele>
        <time>2026-07-27T09:06:00.000Z</time>
      </trkpt>
      <trkpt lat="44.4958" lon="6.46163">
        <ele>1234.06326</ele>
        <time>2026-07-27T09:06:01.000Z</time>
      </trkpt>
      <trkpt lat="44.4958" lon="6.46163">
        <ele>1234.06326</ele>
        <time>2026-07-27T09:06:01.000Z</time>
      </trkpt>
      <trkpt lat="44.49587" lon="6.46162">
        <ele>1233.086771</ele>
        <time>2026-07-27T09:06:02.000Z</time>
      </trkpt>
      <trkpt lat="44.49587" lon="6.46162">
        <ele>1233.086771</ele>
        <time>2026-07-27T09:06:02.000Z</time>
      </trkpt>
      <trkpt lat="44.49593" lon="6.46159">
        <ele>1232.22475</ele>
        <time>2026-07-27T09:06:03.000Z</time>
      </trkpt>
      <trkpt lat="44.49593" lon="6.46159">
        <ele>1232.22475</ele>
        <time>2026-07-27T09:06:03.000Z</time>
      </trkpt>
      <trkpt lat="44.49598" lon="6.46154">
        <ele>1231.381289</ele>
        <time>2026-07-27T09:06:04.000Z</time>
      </trkpt>
      <trkpt lat="44.49598" lon="6.46154">
        <ele>1231.381289</ele>
        <time>2026-07-27T09:06:04.000Z</time>
      </trkpt>
      <trkpt lat="44.49601" lon="6.46148">
        <ele>1230.686858</ele>
        <time>2026-07-27T09:06:05.000Z</time>
      </trkpt>
      <trkpt lat="44.49601" lon="6.46148">
        <ele>1230.686858</ele>
        <time>2026-07-27T09:06:05.000Z</time>
      </trkpt>
      <trkpt lat="44.49603" lon="6.46143">
        <ele>1230.154665</ele>
        <time>2026-07-27T09:06:06.000Z</time>
      </trkpt>
      <trkpt lat="44.49603" lon="6.46143">
        <ele>1230.154665</ele>
        <time>2026-07-27T09:06:06.000Z</time>
      </trkpt>
      <trkpt lat="44.49602" lon="6.46139">
        <ele>1229.762509</ele>
        <time>2026-07-27T09:06:07.000Z</time>
      </trkpt>
      <trkpt lat="44.49602" lon="6.46139">
        <ele>1229.762509</ele>
        <time>2026-07-27T09:06:07.000Z</time>
      </trkpt>
      <trkpt lat="44.49601" lon="6.46136">
        <ele>1229.500089</ele>
        <time>2026-07-27T09:06:08.000Z</time>
      </trkpt>
      <trkpt lat="44.49599" lon="6.46135">
        <ele>1229.219205</ele>
        <time>2026-07-27T09:06:09.000Z</time>
      </trkpt>
      <trkpt lat="44.49597" lon="6.46135">
        <ele>1228.960456</ele>
        <time>2026-07-27T09:06:10.000Z</time>
      </trkpt>
      <trkpt lat="44.49595" lon="6.46134">
        <ele>1228.600621</ele>
        <time>2026-07-27T09:06:12.000Z</time>
      </trkpt>
      <trkpt lat="44.49595" lon="6.46134">
        <ele>1228.600621</ele>
        <time>2026-07-27T09:06:12.000Z</time>
      </trkpt>
      <trkpt lat="44.49591" lon="6.46135">
        <ele>1228.148019</ele>
        <time>2026-07-27T09:06:13.000Z</time>
      </trkpt>
      <trkpt lat="44.49591" lon="6.46135">
        <ele>1228.148019</ele>
        <time>2026-07-27T09:06:13.000Z</time>
      </trkpt>
      <trkpt lat="44.49588" lon="6.46135">
        <ele>1227.787312</ele>
        <time>2026-07-27T09:06:13.000Z</time>
      </trkpt>
      <trkpt lat="44.49588" lon="6.46135">
        <ele>1227.787312</ele>
        <time>2026-07-27T09:06:13.000Z</time>
      </trkpt>
      <trkpt lat="44.49585" lon="6.46136">
        <ele>1227.329286</ele>
        <time>2026-07-27T09:06:15.000Z</time>
      </trkpt>
      <trkpt lat="44.49585" lon="6.46136">
        <ele>1227.329286</ele>
        <time>2026-07-27T09:06:15.000Z</time>
      </trkpt>
      <trkpt lat="44.49581" lon="6.46136">
        <ele>1226.768404</ele>
        <time>2026-07-27T09:06:15.000Z</time>
      </trkpt>
      <trkpt lat="44.49581" lon="6.46136">
        <ele>1226.768404</ele>
        <time>2026-07-27T09:06:15.000Z</time>
      </trkpt>
      <trkpt lat="44.49576" lon="6.46137">
        <ele>1226.097401</ele>
        <time>2026-07-27T09:06:16.000Z</time>
      </trkpt>
      <trkpt lat="44.49576" lon="6.46137">
        <ele>1226.097401</ele>
        <time>2026-07-27T09:06:16.000Z</time>
      </trkpt>
      <trkpt lat="44.49572" lon="6.46138">
        <ele>1225.538123</ele>
        <time>2026-07-27T09:06:17.000Z</time>
      </trkpt>
      <trkpt lat="44.49572" lon="6.46138">
        <ele>1225.538123</ele>
        <time>2026-07-27T09:06:17.000Z</time>
      </trkpt>
      <trkpt lat="44.49567" lon="6.46138">
        <ele>1224.979406</ele>
        <time>2026-07-27T09:06:18.000Z</time>
      </trkpt>
      <trkpt lat="44.49567" lon="6.46138">
        <ele>1224.979406</ele>
        <time>2026-07-27T09:06:18.000Z</time>
      </trkpt>
      <trkpt lat="44.49562" lon="6.46137">
        <ele>1224.272981</ele>
        <time>2026-07-27T09:06:19.000Z</time>
      </trkpt>
      <trkpt lat="44.49562" lon="6.46137">
        <ele>1224.272981</ele>
        <time>2026-07-27T09:06:19.000Z</time>
      </trkpt>
      <trkpt lat="44.49558" lon="6.46135">
        <ele>1223.63026</ele>
        <time>2026-07-27T09:06:20.000Z</time>
      </trkpt>
      <trkpt lat="44.49558" lon="6.46135">
        <ele>1223.63026</ele>
        <time>2026-07-27T09:06:20.000Z</time>
      </trkpt>
      <trkpt lat="44.49553" lon="6.46133">
        <ele>1222.931138</ele>
        <time>2026-07-27T09:06:21.000Z</time>
      </trkpt>
      <trkpt lat="44.49553" lon="6.46133">
        <ele>1222.931138</ele>
        <time>2026-07-27T09:06:21.000Z</time>
      </trkpt>
      <trkpt lat="44.49547" lon="6.46131">
        <ele>1222.188215</ele>
        <time>2026-07-27T09:06:22.000Z</time>
      </trkpt>
      <trkpt lat="44.49547" lon="6.46131">
        <ele>1222.188215</ele>
        <time>2026-07-27T09:06:22.000Z</time>
      </trkpt>
      <trkpt lat="44.49542" lon="6.46128">
        <ele>1221.397522</ele>
        <time>2026-07-27T09:06:23.000Z</time>
      </trkpt>
      <trkpt lat="44.49542" lon="6.46128">
        <ele>1221.397522</ele>
        <time>2026-07-27T09:06:23.000Z</time>
      </trkpt>
      <trkpt lat="44.49535" lon="6.46127">
        <ele>1220.473794</ele>
        <time>2026-07-27T09:06:24.000Z</time>
      </trkpt>
      <trkpt lat="44.49535" lon="6.46127">
        <ele>1220.473794</ele>
        <time>2026-07-27T09:06:24.000Z</time>
      </trkpt>
      <trkpt lat="44.49526" lon="6.46126">
        <ele>1219.352029</ele>
        <time>2026-07-27T09:06:25.000Z</time>
      </trkpt>
      <trkpt lat="44.49526" lon="6.46126">
        <ele>1219.352029</ele>
        <time>2026-07-27T09:06:25.000Z</time>
      </trkpt>
      <trkpt lat="44.49518" lon="6.46125">
        <ele>1218.28851</ele>
        <time>2026-07-27T09:06:26.000Z</time>
      </trkpt>
      <trkpt lat="44.49518" lon="6.46125">
        <ele>1218.28851</ele>
        <time>2026-07-27T09:06:26.000Z</time>
      </trkpt>
      <trkpt lat="44.49515" lon="6.46125">
        <ele>1217.928987</ele>
        <time>2026-07-27T09:06:27.000Z</time>
      </trkpt>
      <trkpt lat="44.49515" lon="6.46125">
        <ele>1217.928987</ele>
        <time>2026-07-27T09:06:27.000Z</time>
      </trkpt>
      <trkpt lat="44.49507" lon="6.46125">
        <ele>1217.287659</ele>
        <time>2026-07-27T09:06:28.000Z</time>
      </trkpt>
      <trkpt lat="44.49507" lon="6.46125">
        <ele>1217.287659</ele>
        <time>2026-07-27T09:06:28.000Z</time>
      </trkpt>
      <trkpt lat="44.49493" lon="6.46124">
        <ele>1216.173261</ele>
        <time>2026-07-27T09:06:29.000Z</time>
      </trkpt>
      <trkpt lat="44.49493" lon="6.46124">
        <ele>1216.173261</ele>
        <time>2026-07-27T09:06:29.000Z</time>
      </trkpt>
      <trkpt lat="44.49484" lon="6.46124">
        <ele>1215.485709</ele>
        <time>2026-07-27T09:06:30.000Z</time>
      </trkpt>
      <trkpt lat="44.49484" lon="6.46124">
        <ele>1215.485709</ele>
        <time>2026-07-27T09:06:30.000Z</time>
      </trkpt>
      <trkpt lat="44.49477" lon="6.46125">
        <ele>1214.907827</ele>
        <time>2026-07-27T09:06:31.000Z</time>
      </trkpt>
      <trkpt lat="44.49477" lon="6.46125">
        <ele>1214.907827</ele>
        <time>2026-07-27T09:06:31.000Z</time>
      </trkpt>
      <trkpt lat="44.49469" lon="6.46126">
        <ele>1214.305537</ele>
        <time>2026-07-27T09:06:32.000Z</time>
      </trkpt>
      <trkpt lat="44.49469" lon="6.46126">
        <ele>1214.305537</ele>
        <time>2026-07-27T09:06:32.000Z</time>
      </trkpt>
      <trkpt lat="44.49463" lon="6.46124">
        <ele>1213.814044</ele>
        <time>2026-07-27T09:06:33.000Z</time>
      </trkpt>
      <trkpt lat="44.49463" lon="6.46124">
        <ele>1213.814044</ele>
        <time>2026-07-27T09:06:33.000Z</time>
      </trkpt>
      <trkpt lat="44.49459" lon="6.46122">
        <ele>1213.424162</ele>
        <time>2026-07-27T09:06:34.000Z</time>
      </trkpt>
      <trkpt lat="44.49459" lon="6.46122">
        <ele>1213.424162</ele>
        <time>2026-07-27T09:06:34.000Z</time>
      </trkpt>
      <trkpt lat="44.49456" lon="6.46118">
        <ele>1213.13891</ele>
        <time>2026-07-27T09:06:35.000Z</time>
      </trkpt>
      <trkpt lat="44.49456" lon="6.46118">
        <ele>1213.13891</ele>
        <time>2026-07-27T09:06:35.000Z</time>
      </trkpt>
      <trkpt lat="44.49457" lon="6.46113">
        <ele>1212.877482</ele>
        <time>2026-07-27T09:06:36.000Z</time>
      </trkpt>
      <trkpt lat="44.49457" lon="6.46113">
        <ele>1212.877482</ele>
        <time>2026-07-27T09:06:36.000Z</time>
      </trkpt>
      <trkpt lat="44.4946" lon="6.46108">
        <ele>1212.524115</ele>
        <time>2026-07-27T09:06:37.000Z</time>
      </trkpt>
      <trkpt lat="44.4946" lon="6.46108">
        <ele>1212.524115</ele>
        <time>2026-07-27T09:06:37.000Z</time>
      </trkpt>
      <trkpt lat="44.49464" lon="6.46105">
        <ele>1212.18038</ele>
        <time>2026-07-27T09:06:38.000Z</time>
      </trkpt>
      <trkpt lat="44.49464" lon="6.46105">
        <ele>1212.18038</ele>
        <time>2026-07-27T09:06:38.000Z</time>
      </trkpt>
      <trkpt lat="44.49469" lon="6.46104">
        <ele>1211.722063</ele>
        <time>2026-07-27T09:06:39.000Z</time>
      </trkpt>
      <trkpt lat="44.49469" lon="6.46104">
        <ele>1211.722063</ele>
        <time>2026-07-27T09:06:39.000Z</time>
      </trkpt>
      <trkpt lat="44.49477" lon="6.46104">
        <ele>1211.152962</ele>
        <time>2026-07-27T09:06:40.000Z</time>
      </trkpt>
      <trkpt lat="44.49477" lon="6.46104">
        <ele>1211.152962</ele>
        <time>2026-07-27T09:06:40.000Z</time>
      </trkpt>
      <trkpt lat="44.49484" lon="6.46103">
        <ele>1210.543521</ele>
        <time>2026-07-27T09:06:41.000Z</time>
      </trkpt>
      <trkpt lat="44.49484" lon="6.46103">
        <ele>1210.543521</ele>
        <time>2026-07-27T09:06:41.000Z</time>
      </trkpt>
      <trkpt lat="44.49493" lon="6.46102">
        <ele>1209.884679</ele>
        <time>2026-07-27T09:06:42.000Z</time>
      </trkpt>
      <trkpt lat="44.49493" lon="6.46102">
        <ele>1209.884679</ele>
        <time>2026-07-27T09:06:42.000Z</time>
      </trkpt>
      <trkpt lat="44.49497" lon="6.461">
        <ele>1209.540733</ele>
        <time>2026-07-27T09:06:43.000Z</time>
      </trkpt>
      <trkpt lat="44.49497" lon="6.461">
        <ele>1209.540733</ele>
        <time>2026-07-27T09:06:43.000Z</time>
      </trkpt>
      <trkpt lat="44.49512" lon="6.46096">
        <ele>1208.331278</ele>
        <time>2026-07-27T09:06:44.000Z</time>
      </trkpt>
      <trkpt lat="44.49512" lon="6.46096">
        <ele>1208.331278</ele>
        <time>2026-07-27T09:06:44.000Z</time>
      </trkpt>
      <trkpt lat="44.49522" lon="6.46091">
        <ele>1207.483575</ele>
        <time>2026-07-27T09:06:45.000Z</time>
      </trkpt>
      <trkpt lat="44.49522" lon="6.46091">
        <ele>1207.483575</ele>
        <time>2026-07-27T09:06:45.000Z</time>
      </trkpt>
      <trkpt lat="44.49531" lon="6.46087">
        <ele>1206.718957</ele>
        <time>2026-07-27T09:06:46.000Z</time>
      </trkpt>
      <trkpt lat="44.49531" lon="6.46087">
        <ele>1206.718957</ele>
        <time>2026-07-27T09:06:46.000Z</time>
      </trkpt>
      <trkpt lat="44.49542" lon="6.46083">
        <ele>1205.83932</ele>
        <time>2026-07-27T09:06:47.000Z</time>
      </trkpt>
      <trkpt lat="44.49542" lon="6.46083">
        <ele>1205.83932</ele>
        <time>2026-07-27T09:06:47.000Z</time>
      </trkpt>
      <trkpt lat="44.49552" lon="6.46079">
        <ele>1204.999053</ele>
        <time>2026-07-27T09:06:48.000Z</time>
      </trkpt>
      <trkpt lat="44.49552" lon="6.46079">
        <ele>1204.999053</ele>
        <time>2026-07-27T09:06:48.000Z</time>
      </trkpt>
      <trkpt lat="44.49562" lon="6.46076">
        <ele>1204.226938</ele>
        <time>2026-07-27T09:06:49.000Z</time>
      </trkpt>
      <trkpt lat="44.49562" lon="6.46076">
        <ele>1204.226938</ele>
        <time>2026-07-27T09:06:49.000Z</time>
      </trkpt>
      <trkpt lat="44.4957" lon="6.46073">
        <ele>1203.501826</ele>
        <time>2026-07-27T09:06:50.000Z</time>
      </trkpt>
      <trkpt lat="44.4957" lon="6.46073">
        <ele>1203.501826</ele>
        <time>2026-07-27T09:06:50.000Z</time>
      </trkpt>
      <trkpt lat="44.49578" lon="6.46069">
        <ele>1202.742544</ele>
        <time>2026-07-27T09:06:51.000Z</time>
      </trkpt>
      <trkpt lat="44.49578" lon="6.46069">
        <ele>1202.742544</ele>
        <time>2026-07-27T09:06:51.000Z</time>
      </trkpt>
      <trkpt lat="44.49585" lon="6.46065">
        <ele>1202.088133</ele>
        <time>2026-07-27T09:06:52.000Z</time>
      </trkpt>
      <trkpt lat="44.49585" lon="6.46065">
        <ele>1202.088133</ele>
        <time>2026-07-27T09:06:52.000Z</time>
      </trkpt>
      <trkpt lat="44.4959" lon="6.46059">
        <ele>1201.467874</ele>
        <time>2026-07-27T09:06:53.000Z</time>
      </trkpt>
      <trkpt lat="44.4959" lon="6.46059">
        <ele>1201.467874</ele>
        <time>2026-07-27T09:06:53.000Z</time>
      </trkpt>
      <trkpt lat="44.49594" lon="6.46052">
        <ele>1200.901719</ele>
        <time>2026-07-27T09:06:54.000Z</time>
      </trkpt>
      <trkpt lat="44.49594" lon="6.46052">
        <ele>1200.901719</ele>
        <time>2026-07-27T09:06:54.000Z</time>
      </trkpt>
      <trkpt lat="44.49596" lon="6.46043">
        <ele>1200.292138</ele>
        <time>2026-07-27T09:06:55.000Z</time>
      </trkpt>
      <trkpt lat="44.49596" lon="6.46043">
        <ele>1200.292138</ele>
        <time>2026-07-27T09:06:55.000Z</time>
      </trkpt>
      <trkpt lat="44.49596" lon="6.46036">
        <ele>1199.80368</ele>
        <time>2026-07-27T09:06:56.000Z</time>
      </trkpt>
      <trkpt lat="44.49596" lon="6.46036">
        <ele>1199.80368</ele>
        <time>2026-07-27T09:06:56.000Z</time>
      </trkpt>
      <trkpt lat="44.49596" lon="6.46024">
        <ele>1199.037312</ele>
        <time>2026-07-27T09:06:57.000Z</time>
      </trkpt>
      <trkpt lat="44.49596" lon="6.46024">
        <ele>1199.037312</ele>
        <time>2026-07-27T09:06:57.000Z</time>
      </trkpt>
      <trkpt lat="44.49596" lon="6.46015">
        <ele>1198.451661</ele>
        <time>2026-07-27T09:06:58.000Z</time>
      </trkpt>
      <trkpt lat="44.49596" lon="6.46015">
        <ele>1198.451661</ele>
        <time>2026-07-27T09:06:58.000Z</time>
      </trkpt>
      <trkpt lat="44.49595" lon="6.46005">
        <ele>1197.834066</ele>
        <time>2026-07-27T09:07:00.000Z</time>
      </trkpt>
      <trkpt lat="44.49595" lon="6.46005">
        <ele>1197.834066</ele>
        <time>2026-07-27T09:07:00.000Z</time>
      </trkpt>
      <trkpt lat="44.49595" lon="6.45997">
        <ele>1197.262538</ele>
        <time>2026-07-27T09:07:00.000Z</time>
      </trkpt>
      <trkpt lat="44.49595" lon="6.45997">
        <ele>1197.262538</ele>
        <time>2026-07-27T09:07:00.000Z</time>
      </trkpt>
      <trkpt lat="44.49596" lon="6.45988">
        <ele>1196.719728</ele>
        <time>2026-07-27T09:07:02.000Z</time>
      </trkpt>
      <trkpt lat="44.49596" lon="6.45988">
        <ele>1196.719728</ele>
        <time>2026-07-27T09:07:02.000Z</time>
      </trkpt>
      <trkpt lat="44.49597" lon="6.4598">
        <ele>1196.169711</ele>
        <time>2026-07-27T09:07:03.000Z</time>
      </trkpt>
      <trkpt lat="44.49597" lon="6.4598">
        <ele>1196.169711</ele>
        <time>2026-07-27T09:07:03.000Z</time>
      </trkpt>
      <trkpt lat="44.49598" lon="6.45973">
        <ele>1195.691491</ele>
        <time>2026-07-27T09:07:03.000Z</time>
      </trkpt>
      <trkpt lat="44.49598" lon="6.45973">
        <ele>1195.691491</ele>
        <time>2026-07-27T09:07:03.000Z</time>
      </trkpt>
      <trkpt lat="44.496" lon="6.45966">
        <ele>1195.247797</ele>
        <time>2026-07-27T09:07:05.000Z</time>
      </trkpt>
      <trkpt lat="44.496" lon="6.45966">
        <ele>1195.247797</ele>
        <time>2026-07-27T09:07:05.000Z</time>
      </trkpt>
      <trkpt lat="44.49602" lon="6.4596">
        <ele>1194.803566</ele>
        <time>2026-07-27T09:07:06.000Z</time>
      </trkpt>
      <trkpt lat="44.49602" lon="6.4596">
        <ele>1194.803566</ele>
        <time>2026-07-27T09:07:06.000Z</time>
      </trkpt>
      <trkpt lat="44.49604" lon="6.45954">
        <ele>1194.361636</ele>
        <time>2026-07-27T09:07:07.000Z</time>
      </trkpt>
      <trkpt lat="44.49604" lon="6.45954">
        <ele>1194.361636</ele>
        <time>2026-07-27T09:07:07.000Z</time>
      </trkpt>
      <trkpt lat="44.49605" lon="6.45948">
        <ele>1193.954841</ele>
        <time>2026-07-27T09:07:07.000Z</time>
      </trkpt>
      <trkpt lat="44.49605" lon="6.45948">
        <ele>1193.954841</ele>
        <time>2026-07-27T09:07:07.000Z</time>
      </trkpt>
      <trkpt lat="44.49608" lon="6.45942">
        <ele>1193.523854</ele>
        <time>2026-07-27T09:07:09.000Z</time>
      </trkpt>
      <trkpt lat="44.49608" lon="6.45942">
        <ele>1193.523854</ele>
        <time>2026-07-27T09:07:09.000Z</time>
      </trkpt>
      <trkpt lat="44.49609" lon="6.45937">
        <ele>1193.132798</ele>
        <time>2026-07-27T09:07:09.000Z</time>
      </trkpt>
      <trkpt lat="44.49609" lon="6.45937">
        <ele>1193.132798</ele>
        <time>2026-07-27T09:07:09.000Z</time>
      </trkpt>
      <trkpt lat="44.49611" lon="6.45931">
        <ele>1192.744301</ele>
        <time>2026-07-27T09:07:11.000Z</time>
      </trkpt>
      <trkpt lat="44.49612" lon="6.45925">
        <ele>1192.337506</ele>
        <time>2026-07-27T09:07:12.000Z</time>
      </trkpt>
      <trkpt lat="44.49614" lon="6.45919">
        <ele>1191.90521</ele>
        <time>2026-07-27T09:07:13.000Z</time>
      </trkpt>
      <trkpt lat="44.49616" lon="6.45914">
        <ele>1191.543363</ele>
        <time>2026-07-27T09:07:14.000Z</time>
      </trkpt>
      <trkpt lat="44.49616" lon="6.45914">
        <ele>1191.543363</ele>
        <time>2026-07-27T09:07:14.000Z</time>
      </trkpt>
      <trkpt lat="44.49618" lon="6.45908">
        <ele>1191.146472</ele>
        <time>2026-07-27T09:07:15.000Z</time>
      </trkpt>
      <trkpt lat="44.4962" lon="6.45903">
        <ele>1190.737997</ele>
        <time>2026-07-27T09:07:15.000Z</time>
      </trkpt>
      <trkpt lat="44.49622" lon="6.45896">
        <ele>1190.247137</ele>
        <time>2026-07-27T09:07:16.000Z</time>
      </trkpt>
      <trkpt lat="44.49625" lon="6.4589">
        <ele>1189.775898</ele>
        <time>2026-07-27T09:07:18.000Z</time>
      </trkpt>
      <trkpt lat="44.49627" lon="6.45884">
        <ele>1189.361385</ele>
        <time>2026-07-27T09:07:19.000Z</time>
      </trkpt>
      <trkpt lat="44.4963" lon="6.45874">
        <ele>1188.672722</ele>
        <time>2026-07-27T09:07:20.000Z</time>
      </trkpt>
      <trkpt lat="44.49633" lon="6.45868">
        <ele>1188.128064</ele>
        <time>2026-07-27T09:07:21.000Z</time>
      </trkpt>
      <trkpt lat="44.49636" lon="6.4586">
        <ele>1187.60382</ele>
        <time>2026-07-27T09:07:22.000Z</time>
      </trkpt>
      <trkpt lat="44.49639" lon="6.45853">
        <ele>1187.366388</ele>
        <time>2026-07-27T09:07:23.000Z</time>
      </trkpt>
      <trkpt lat="44.49641" lon="6.45846">
        <ele>1187.319902</ele>
        <time>2026-07-27T09:07:24.000Z</time>
      </trkpt>
      <trkpt lat="44.49645" lon="6.45839">
        <ele>1187.272961</ele>
        <time>2026-07-27T09:07:24.000Z</time>
      </trkpt>
      <trkpt lat="44.49648" lon="6.45832">
        <ele>1187.228854</ele>
        <time>2026-07-27T09:07:26.000Z</time>
      </trkpt>
      <trkpt lat="44.49648" lon="6.45832">
        <ele>1187.228854</ele>
        <time>2026-07-27T09:07:26.000Z</time>
      </trkpt>
      <trkpt lat="44.49651" lon="6.45826">
        <ele>1187.183566</ele>
        <time>2026-07-27T09:07:26.000Z</time>
      </trkpt>
      <trkpt lat="44.49655" lon="6.45822">
        <ele>1187.144632</ele>
        <time>2026-07-27T09:07:28.000Z</time>
      </trkpt>
      <trkpt lat="44.49655" lon="6.45822">
        <ele>1187.144632</ele>
        <time>2026-07-27T09:07:28.000Z</time>
      </trkpt>
      <trkpt lat="44.49659" lon="6.45818">
        <ele>1187.109181</ele>
        <time>2026-07-27T09:07:28.000Z</time>
      </trkpt>
      <trkpt lat="44.49663" lon="6.45815">
        <ele>1187.070444</ele>
        <time>2026-07-27T09:07:30.000Z</time>
      </trkpt>
      <trkpt lat="44.49667" lon="6.45812">
        <ele>1187.029429</ele>
        <time>2026-07-27T09:07:31.000Z</time>
      </trkpt>
      <trkpt lat="44.49667" lon="6.45812">
        <ele>1187.029429</ele>
        <time>2026-07-27T09:07:31.000Z</time>
      </trkpt>
      <trkpt lat="44.49672" lon="6.45808">
        <ele>1186.99125</ele>
        <time>2026-07-27T09:07:32.000Z</time>
      </trkpt>
      <trkpt lat="44.49676" lon="6.45806">
        <ele>1186.95507</ele>
        <time>2026-07-27T09:07:33.000Z</time>
      </trkpt>
      <trkpt lat="44.4968" lon="6.45803">
        <ele>1186.918845</ele>
        <time>2026-07-27T09:07:34.000Z</time>
      </trkpt>
      <trkpt lat="44.49684" lon="6.45801">
        <ele>1186.88262</ele>
        <time>2026-07-27T09:07:35.000Z</time>
      </trkpt>
      <trkpt lat="44.49684" lon="6.45801">
        <ele>1186.88262</ele>
        <time>2026-07-27T09:07:35.000Z</time>
      </trkpt>
      <trkpt lat="44.49687" lon="6.45799">
        <ele>1186.855821</ele>
        <time>2026-07-27T09:07:36.000Z</time>
      </trkpt>
      <trkpt lat="44.49691" lon="6.45797">
        <ele>1186.826989</ele>
        <time>2026-07-27T09:07:37.000Z</time>
      </trkpt>
      <trkpt lat="44.49694" lon="6.45796">
        <ele>1186.797586</ele>
        <time>2026-07-27T09:07:38.000Z</time>
      </trkpt>
      <trkpt lat="44.49697" lon="6.45794">
        <ele>1186.77195</ele>
        <time>2026-07-27T09:07:39.000Z</time>
      </trkpt>
      <trkpt lat="44.49701" lon="6.45792">
        <ele>1186.739113</ele>
        <time>2026-07-27T09:07:40.000Z</time>
      </trkpt>
      <trkpt lat="44.49704" lon="6.4579">
        <ele>1186.708239</ele>
        <time>2026-07-27T09:07:41.000Z</time>
      </trkpt>
      <trkpt lat="44.49708" lon="6.45787">
        <ele>1186.674951</ele>
        <time>2026-07-27T09:07:42.000Z</time>
      </trkpt>
      <trkpt lat="44.49711" lon="6.45785">
        <ele>1186.647641</ele>
        <time>2026-07-27T09:07:43.000Z</time>
      </trkpt>
      <trkpt lat="44.49714" lon="6.45783">
        <ele>1186.623251</ele>
        <time>2026-07-27T09:07:44.000Z</time>
      </trkpt>
      <trkpt lat="44.49718" lon="6.4578">
        <ele>1186.588419</ele>
        <time>2026-07-27T09:07:45.000Z</time>
      </trkpt>
      <trkpt lat="44.49722" lon="6.45777">
        <ele>1186.553014</ele>
        <time>2026-07-27T09:07:46.000Z</time>
      </trkpt>
      <trkpt lat="44.49726" lon="6.45773">
        <ele>1186.514277</ele>
        <time>2026-07-27T09:07:46.000Z</time>
      </trkpt>
      <trkpt lat="44.49729" lon="6.4577">
        <ele>1186.482126</ele>
        <time>2026-07-27T09:07:48.000Z</time>
      </trkpt>
      <trkpt lat="44.49729" lon="6.4577">
        <ele>1186.482126</ele>
        <time>2026-07-27T09:07:48.000Z</time>
      </trkpt>
      <trkpt lat="44.49732" lon="6.45765">
        <ele>1186.44517</ele>
        <time>2026-07-27T09:07:49.000Z</time>
      </trkpt>
      <trkpt lat="44.49735" lon="6.45761">
        <ele>1186.411519</ele>
        <time>2026-07-27T09:07:50.000Z</time>
      </trkpt>
      <trkpt lat="44.49738" lon="6.45758">
        <ele>1186.379979</ele>
        <time>2026-07-27T09:07:51.000Z</time>
      </trkpt>
      <trkpt lat="44.49744" lon="6.45754">
        <ele>1186.331199</ele>
        <time>2026-07-27T09:07:52.000Z</time>
      </trkpt>
      <trkpt lat="44.49744" lon="6.45754">
        <ele>1186.331199</ele>
        <time>2026-07-27T09:07:52.000Z</time>
      </trkpt>
      <trkpt lat="44.49751" lon="6.4575">
        <ele>1186.272518</ele>
        <time>2026-07-27T09:07:53.000Z</time>
      </trkpt>
      <trkpt lat="44.49757" lon="6.45746">
        <ele>1186.21627</ele>
        <time>2026-07-27T09:07:54.000Z</time>
      </trkpt>
      <trkpt lat="44.49757" lon="6.45746">
        <ele>1186.21627</ele>
        <time>2026-07-27T09:07:54.000Z</time>
      </trkpt>
      <trkpt lat="44.49765" lon="6.45741">
        <ele>1186.149925</ele>
        <time>2026-07-27T09:07:55.000Z</time>
      </trkpt>
      <trkpt lat="44.49772" lon="6.45737">
        <ele>1186.085765</ele>
        <time>2026-07-27T09:07:56.000Z</time>
      </trkpt>
      <trkpt lat="44.49772" lon="6.45737">
        <ele>1186.085765</ele>
        <time>2026-07-27T09:07:56.000Z</time>
      </trkpt>
      <trkpt lat="44.49779" lon="6.45732">
        <ele>1186.025948</ele>
        <time>2026-07-27T09:07:57.000Z</time>
      </trkpt>
      <trkpt lat="44.49785" lon="6.45728">
        <ele>1185.971668</ele>
        <time>2026-07-27T09:07:58.000Z</time>
      </trkpt>
      <trkpt lat="44.49785" lon="6.45728">
        <ele>1185.971668</ele>
        <time>2026-07-27T09:07:58.000Z</time>
      </trkpt>
      <trkpt lat="44.4979" lon="6.45724">
        <ele>1185.603034</ele>
        <time>2026-07-27T09:07:59.000Z</time>
      </trkpt>
      <trkpt lat="44.4979" lon="6.45724">
        <ele>1185.603034</ele>
        <time>2026-07-27T09:07:59.000Z</time>
      </trkpt>
      <trkpt lat="44.49796" lon="6.45721">
        <ele>1185.116994</ele>
        <time>2026-07-27T09:08:00.000Z</time>
      </trkpt>
      <trkpt lat="44.498" lon="6.45718">
        <ele>1184.745487</ele>
        <time>2026-07-27T09:08:01.000Z</time>
      </trkpt>
      <trkpt lat="44.49806" lon="6.45715">
        <ele>1184.29549</ele>
        <time>2026-07-27T09:08:02.000Z</time>
      </trkpt>
      <trkpt lat="44.49806" lon="6.45715">
        <ele>1184.29549</ele>
        <time>2026-07-27T09:08:02.000Z</time>
      </trkpt>
      <trkpt lat="44.49811" lon="6.45712">
        <ele>1183.833753</ele>
        <time>2026-07-27T09:08:03.000Z</time>
      </trkpt>
      <trkpt lat="44.49811" lon="6.45712">
        <ele>1183.833753</ele>
        <time>2026-07-27T09:08:03.000Z</time>
      </trkpt>
      <trkpt lat="44.49817" lon="6.45708">
        <ele>1183.34103</ele>
        <time>2026-07-27T09:08:04.000Z</time>
      </trkpt>
      <trkpt lat="44.49822" lon="6.45705">
        <ele>1182.852817</ele>
        <time>2026-07-27T09:08:05.000Z</time>
      </trkpt>
      <trkpt lat="44.49822" lon="6.45705">
        <ele>1182.852817</ele>
        <time>2026-07-27T09:08:05.000Z</time>
      </trkpt>
      <trkpt lat="44.49827" lon="6.45702">
        <ele>1182.434434</ele>
        <time>2026-07-27T09:08:05.000Z</time>
      </trkpt>
      <trkpt lat="44.49827" lon="6.45702">
        <ele>1182.434434</ele>
        <time>2026-07-27T09:08:05.000Z</time>
      </trkpt>
      <trkpt lat="44.49827" lon="6.45702">
        <ele>1182.434434</ele>
        <time>2026-07-27T09:08:07.000Z</time>
      </trkpt>
      <trkpt lat="44.49833" lon="6.45699">
        <ele>1181.956525</ele>
        <time>2026-07-27T09:08:08.000Z</time>
      </trkpt>
      <trkpt lat="44.49833" lon="6.45699">
        <ele>1181.956525</ele>
        <time>2026-07-27T09:08:08.000Z</time>
      </trkpt>
      <trkpt lat="44.49833" lon="6.45699">
        <ele>1181.956525</ele>
        <time>2026-07-27T09:08:09.000Z</time>
      </trkpt>
      <trkpt lat="44.49836" lon="6.45698">
        <ele>1181.705816</ele>
        <time>2026-07-27T09:08:10.000Z</time>
      </trkpt>
      <trkpt lat="44.49836" lon="6.45698">
        <ele>1181.705816</ele>
        <time>2026-07-27T09:08:10.000Z</time>
      </trkpt>
      <trkpt lat="44.49837" lon="6.45697">
        <ele>1181.609703</ele>
        <time>2026-07-27T09:08:11.000Z</time>
      </trkpt>
      <trkpt lat="44.49837" lon="6.45697">
        <ele>1181.609703</ele>
        <time>2026-07-27T09:08:11.000Z</time>
      </trkpt>
      <trkpt lat="44.49838" lon="6.45695">
        <ele>1181.48567</ele>
        <time>2026-07-27T09:08:12.000Z</time>
      </trkpt>
      <trkpt lat="44.49838" lon="6.45695">
        <ele>1181.48567</ele>
        <time>2026-07-27T09:08:12.000Z</time>
      </trkpt>
      <trkpt lat="44.49839" lon="6.45693">
        <ele>1181.329998</ele>
        <time>2026-07-27T09:08:13.000Z</time>
      </trkpt>
      <trkpt lat="44.49839" lon="6.45693">
        <ele>1181.329998</ele>
        <time>2026-07-27T09:08:13.000Z</time>
      </trkpt>
      <trkpt lat="44.4984" lon="6.4569">
        <ele>1181.123892</ele>
        <time>2026-07-27T09:08:14.000Z</time>
      </trkpt>
      <trkpt lat="44.4984" lon="6.4569">
        <ele>1181.123892</ele>
        <time>2026-07-27T09:08:14.000Z</time>
      </trkpt>
      <trkpt lat="44.49842" lon="6.45687">
        <ele>1180.913307</ele>
        <time>2026-07-27T09:08:15.000Z</time>
      </trkpt>
      <trkpt lat="44.49842" lon="6.45687">
        <ele>1180.913307</ele>
        <time>2026-07-27T09:08:15.000Z</time>
      </trkpt>
      <trkpt lat="44.49843" lon="6.45683">
        <ele>1180.664221</ele>
        <time>2026-07-27T09:08:16.000Z</time>
      </trkpt>
      <trkpt lat="44.49843" lon="6.45683">
        <ele>1180.664221</ele>
        <time>2026-07-27T09:08:16.000Z</time>
      </trkpt>
      <trkpt lat="44.49845" lon="6.4568">
        <ele>1180.458264</ele>
        <time>2026-07-27T09:08:17.000Z</time>
      </trkpt>
      <trkpt lat="44.49845" lon="6.4568">
        <ele>1180.458264</ele>
        <time>2026-07-27T09:08:17.000Z</time>
      </trkpt>
      <trkpt lat="44.49847" lon="6.45677">
        <ele>1180.214465</ele>
        <time>2026-07-27T09:08:18.000Z</time>
      </trkpt>
      <trkpt lat="44.49847" lon="6.45677">
        <ele>1180.214465</ele>
        <time>2026-07-27T09:08:18.000Z</time>
      </trkpt>
      <trkpt lat="44.4985" lon="6.45674">
        <ele>1179.956305</ele>
        <time>2026-07-27T09:08:19.000Z</time>
      </trkpt>
      <trkpt lat="44.4985" lon="6.45674">
        <ele>1179.956305</ele>
        <time>2026-07-27T09:08:19.000Z</time>
      </trkpt>
      <trkpt lat="44.49852" lon="6.45672">
        <ele>1179.712953</ele>
        <time>2026-07-27T09:08:20.000Z</time>
      </trkpt>
      <trkpt lat="44.49852" lon="6.45672">
        <ele>1179.712953</ele>
        <time>2026-07-27T09:08:20.000Z</time>
      </trkpt>
      <trkpt lat="44.49855" lon="6.4567">
        <ele>1179.483581</ele>
        <time>2026-07-27T09:08:21.000Z</time>
      </trkpt>
      <trkpt lat="44.49855" lon="6.4567">
        <ele>1179.483581</ele>
        <time>2026-07-27T09:08:21.000Z</time>
      </trkpt>
      <trkpt lat="44.49857" lon="6.45667">
        <ele>1179.256804</ele>
        <time>2026-07-27T09:08:22.000Z</time>
      </trkpt>
      <trkpt lat="44.49857" lon="6.45667">
        <ele>1179.256804</ele>
        <time>2026-07-27T09:08:22.000Z</time>
      </trkpt>
      <trkpt lat="44.4986" lon="6.45665">
        <ele>1178.977703</ele>
        <time>2026-07-27T09:08:23.000Z</time>
      </trkpt>
      <trkpt lat="44.4986" lon="6.45665">
        <ele>1178.977703</ele>
        <time>2026-07-27T09:08:23.000Z</time>
      </trkpt>
      <trkpt lat="44.49863" lon="6.45663">
        <ele>1178.722683</ele>
        <time>2026-07-27T09:08:24.000Z</time>
      </trkpt>
      <trkpt lat="44.49863" lon="6.45663">
        <ele>1178.722683</ele>
        <time>2026-07-27T09:08:24.000Z</time>
      </trkpt>
      <trkpt lat="44.49866" lon="6.45661">
        <ele>1178.460869</ele>
        <time>2026-07-27T09:08:25.000Z</time>
      </trkpt>
      <trkpt lat="44.49866" lon="6.45661">
        <ele>1178.460869</ele>
        <time>2026-07-27T09:08:25.000Z</time>
      </trkpt>
      <trkpt lat="44.49869" lon="6.4566">
        <ele>1178.205848</ele>
        <time>2026-07-27T09:08:26.000Z</time>
      </trkpt>
      <trkpt lat="44.49869" lon="6.4566">
        <ele>1178.205848</ele>
        <time>2026-07-27T09:08:26.000Z</time>
      </trkpt>
      <trkpt lat="44.49872" lon="6.45658">
        <ele>1177.93362</ele>
        <time>2026-07-27T09:08:27.000Z</time>
      </trkpt>
      <trkpt lat="44.49872" lon="6.45658">
        <ele>1177.93362</ele>
        <time>2026-07-27T09:08:27.000Z</time>
      </trkpt>
      <trkpt lat="44.49875" lon="6.45656">
        <ele>1177.659777</ele>
        <time>2026-07-27T09:08:28.000Z</time>
      </trkpt>
      <trkpt lat="44.49875" lon="6.45656">
        <ele>1177.659777</ele>
        <time>2026-07-27T09:08:28.000Z</time>
      </trkpt>
      <trkpt lat="44.49878" lon="6.45653">
        <ele>1177.411296</ele>
        <time>2026-07-27T09:08:29.000Z</time>
      </trkpt>
      <trkpt lat="44.49878" lon="6.45653">
        <ele>1177.411296</ele>
        <time>2026-07-27T09:08:29.000Z</time>
      </trkpt>
      <trkpt lat="44.49878" lon="6.45653">
        <ele>1177.411296</ele>
        <time>2026-07-27T09:08:30.000Z</time>
      </trkpt>
      <trkpt lat="44.49883" lon="6.45649">
        <ele>1176.99609</ele>
        <time>2026-07-27T09:08:31.000Z</time>
      </trkpt>
      <trkpt lat="44.49883" lon="6.45649">
        <ele>1176.99609</ele>
        <time>2026-07-27T09:08:31.000Z</time>
      </trkpt>
      <trkpt lat="44.49884" lon="6.45648">
        <ele>1176.834077</ele>
        <time>2026-07-27T09:08:32.000Z</time>
      </trkpt>
      <trkpt lat="44.49884" lon="6.45648">
        <ele>1176.834077</ele>
        <time>2026-07-27T09:08:32.000Z</time>
      </trkpt>
      <trkpt lat="44.49886" lon="6.45647">
        <ele>1176.672064</ele>
        <time>2026-07-27T09:08:33.000Z</time>
      </trkpt>
      <trkpt lat="44.49886" lon="6.45647">
        <ele>1176.672064</ele>
        <time>2026-07-27T09:08:33.000Z</time>
      </trkpt>
      <trkpt lat="44.49889" lon="6.45646">
        <ele>1176.485296</ele>
        <time>2026-07-27T09:08:34.000Z</time>
      </trkpt>
      <trkpt lat="44.49889" lon="6.45646">
        <ele>1176.485296</ele>
        <time>2026-07-27T09:08:34.000Z</time>
      </trkpt>
      <trkpt lat="44.49891" lon="6.45645">
        <ele>1176.258409</ele>
        <time>2026-07-27T09:08:35.000Z</time>
      </trkpt>
      <trkpt lat="44.49891" lon="6.45645">
        <ele>1176.258409</ele>
        <time>2026-07-27T09:08:35.000Z</time>
      </trkpt>
      <trkpt lat="44.49895" lon="6.45644">
        <ele>1175.977486</ele>
        <time>2026-07-27T09:08:36.000Z</time>
      </trkpt>
      <trkpt lat="44.49895" lon="6.45644">
        <ele>1175.977486</ele>
        <time>2026-07-27T09:08:36.000Z</time>
      </trkpt>
      <trkpt lat="44.49898" lon="6.45642">
        <ele>1175.708533</ele>
        <time>2026-07-27T09:08:37.000Z</time>
      </trkpt>
      <trkpt lat="44.49898" lon="6.45642">
        <ele>1175.708533</ele>
        <time>2026-07-27T09:08:37.000Z</time>
      </trkpt>
      <trkpt lat="44.499" lon="6.45639">
        <ele>1175.479162</ele>
        <time>2026-07-27T09:08:38.000Z</time>
      </trkpt>
      <trkpt lat="44.499" lon="6.45639">
        <ele>1175.479162</ele>
        <time>2026-07-27T09:08:38.000Z</time>
      </trkpt>
      <trkpt lat="44.49903" lon="6.45636">
        <ele>1175.20119</ele>
        <time>2026-07-27T09:08:39.000Z</time>
      </trkpt>
      <trkpt lat="44.49903" lon="6.45636">
        <ele>1175.20119</ele>
        <time>2026-07-27T09:08:39.000Z</time>
      </trkpt>
      <trkpt lat="44.49906" lon="6.45634">
        <ele>1174.939807</ele>
        <time>2026-07-27T09:08:40.000Z</time>
      </trkpt>
      <trkpt lat="44.49906" lon="6.45634">
        <ele>1174.939807</ele>
        <time>2026-07-27T09:08:40.000Z</time>
      </trkpt>
      <trkpt lat="44.49908" lon="6.45631">
        <ele>1174.688105</ele>
        <time>2026-07-27T09:08:41.000Z</time>
      </trkpt>
      <trkpt lat="44.49908" lon="6.45631">
        <ele>1174.688105</ele>
        <time>2026-07-27T09:08:41.000Z</time>
      </trkpt>
      <trkpt lat="44.49912" lon="6.45628">
        <ele>1174.370851</ele>
        <time>2026-07-27T09:08:42.000Z</time>
      </trkpt>
      <trkpt lat="44.49912" lon="6.45628">
        <ele>1174.370851</ele>
        <time>2026-07-27T09:08:42.000Z</time>
      </trkpt>
      <trkpt lat="44.49913" lon="6.45625">
        <ele>1174.173995</ele>
        <time>2026-07-27T09:08:43.000Z</time>
      </trkpt>
      <trkpt lat="44.49913" lon="6.45625">
        <ele>1174.173995</ele>
        <time>2026-07-27T09:08:43.000Z</time>
      </trkpt>
      <trkpt lat="44.49915" lon="6.45621">
        <ele>1173.913118</ele>
        <time>2026-07-27T09:08:44.000Z</time>
      </trkpt>
      <trkpt lat="44.49915" lon="6.45621">
        <ele>1173.913118</ele>
        <time>2026-07-27T09:08:44.000Z</time>
      </trkpt>
      <trkpt lat="44.49917" lon="6.45617">
        <ele>1173.65224</ele>
        <time>2026-07-27T09:08:45.000Z</time>
      </trkpt>
      <trkpt lat="44.49917" lon="6.45617">
        <ele>1173.65224</ele>
        <time>2026-07-27T09:08:45.000Z</time>
      </trkpt>
      <trkpt lat="44.49919" lon="6.45613">
        <ele>1173.377383</ele>
        <time>2026-07-27T09:08:46.000Z</time>
      </trkpt>
      <trkpt lat="44.49919" lon="6.45613">
        <ele>1173.377383</ele>
        <time>2026-07-27T09:08:46.000Z</time>
      </trkpt>
      <trkpt lat="44.49921" lon="6.45608">
        <ele>1173.061584</ele>
        <time>2026-07-27T09:08:47.000Z</time>
      </trkpt>
      <trkpt lat="44.49921" lon="6.45608">
        <ele>1173.061584</ele>
        <time>2026-07-27T09:08:47.000Z</time>
      </trkpt>
      <trkpt lat="44.49923" lon="6.45603">
        <ele>1172.727124</ele>
        <time>2026-07-27T09:08:48.000Z</time>
      </trkpt>
      <trkpt lat="44.49923" lon="6.45603">
        <ele>1172.727124</ele>
        <time>2026-07-27T09:08:48.000Z</time>
      </trkpt>
      <trkpt lat="44.49926" lon="6.45598">
        <ele>1172.354072</ele>
        <time>2026-07-27T09:08:49.000Z</time>
      </trkpt>
      <trkpt lat="44.49926" lon="6.45598">
        <ele>1172.354072</ele>
        <time>2026-07-27T09:08:49.000Z</time>
      </trkpt>
      <trkpt lat="44.49927" lon="6.45592">
        <ele>1172.023057</ele>
        <time>2026-07-27T09:08:50.000Z</time>
      </trkpt>
      <trkpt lat="44.49927" lon="6.45592">
        <ele>1172.023057</ele>
        <time>2026-07-27T09:08:50.000Z</time>
      </trkpt>
      <trkpt lat="44.49929" lon="6.45587">
        <ele>1171.71438</ele>
        <time>2026-07-27T09:08:51.000Z</time>
      </trkpt>
      <trkpt lat="44.49932" lon="6.45584">
        <ele>1171.477312</ele>
        <time>2026-07-27T09:08:52.000Z</time>
      </trkpt>
      <trkpt lat="44.49932" lon="6.45584">
        <ele>1171.477312</ele>
        <time>2026-07-27T09:08:52.000Z</time>
      </trkpt>
      <trkpt lat="44.49935" lon="6.45581">
        <ele>1171.266304</ele>
        <time>2026-07-27T09:08:53.000Z</time>
      </trkpt>
      <trkpt lat="44.49935" lon="6.45581">
        <ele>1171.266304</ele>
        <time>2026-07-27T09:08:53.000Z</time>
      </trkpt>
      <trkpt lat="44.49937" lon="6.45579">
        <ele>1171.106591</ele>
        <time>2026-07-27T09:08:53.000Z</time>
      </trkpt>
      <trkpt lat="44.49937" lon="6.45579">
        <ele>1171.106591</ele>
        <time>2026-07-27T09:08:53.000Z</time>
      </trkpt>
      <trkpt lat="44.49937" lon="6.45579">
        <ele>1171.106591</ele>
        <time>2026-07-27T09:08:55.000Z</time>
      </trkpt>
      <trkpt lat="44.4994" lon="6.45576">
        <ele>1170.889042</ele>
        <time>2026-07-27T09:08:56.000Z</time>
      </trkpt>
      <trkpt lat="44.4994" lon="6.45576">
        <ele>1170.889042</ele>
        <time>2026-07-27T09:08:56.000Z</time>
      </trkpt>
      <trkpt lat="44.49941" lon="6.45576">
        <ele>1170.837339</ele>
        <time>2026-07-27T09:08:57.000Z</time>
      </trkpt>
      <trkpt lat="44.49941" lon="6.45576">
        <ele>1170.837339</ele>
        <time>2026-07-27T09:08:58.000Z</time>
      </trkpt>
      <trkpt lat="44.49941" lon="6.45576">
        <ele>1170.837339</ele>
        <time>2026-07-27T09:08:59.000Z</time>
      </trkpt>
      <trkpt lat="44.49941" lon="6.45576">
        <ele>1170.837339</ele>
        <time>2026-07-27T09:09:00.000Z</time>
      </trkpt>
      <trkpt lat="44.49941" lon="6.45576">
        <ele>1170.837339</ele>
        <time>2026-07-27T09:09:01.000Z</time>
      </trkpt>
      <trkpt lat="44.49941" lon="6.45576">
        <ele>1170.837339</ele>
        <time>2026-07-27T09:09:10.000Z</time>
      </trkpt>
      <trkpt lat="44.49942" lon="6.45576">
        <ele>1170.736753</ele>
        <time>2026-07-27T09:09:10.000Z</time>
      </trkpt>
      <trkpt lat="44.49942" lon="6.45576">
        <ele>1170.736753</ele>
        <time>2026-07-27T09:09:10.000Z</time>
      </trkpt>
      <trkpt lat="44.49942" lon="6.45576">
        <ele>1170.736753</ele>
        <time>2026-07-27T09:09:12.000Z</time>
      </trkpt>
      <trkpt lat="44.49942" lon="6.45576">
        <ele>1170.736753</ele>
        <time>2026-07-27T09:09:14.000Z</time>
      </trkpt>
      <trkpt lat="44.49942" lon="6.45576">
        <ele>1170.736753</ele>
        <time>2026-07-27T09:09:28.000Z</time>
      </trkpt>
      <trkpt lat="44.49945" lon="6.45563">
        <ele>1170.157066</ele>
        <time>2026-07-27T09:09:30.000Z</time>
      </trkpt>
      <trkpt lat="44.49946" lon="6.45562">
        <ele>1170.088873</ele>
        <time>2026-07-27T09:09:31.000Z</time>
      </trkpt>
      <trkpt lat="44.49947" lon="6.45561">
        <ele>1169.98471</ele>
        <time>2026-07-27T09:09:32.000Z</time>
      </trkpt>
      <trkpt lat="44.49947" lon="6.45561">
        <ele>1169.98471</ele>
        <time>2026-07-27T09:09:32.000Z</time>
      </trkpt>
      <trkpt lat="44.4995" lon="6.45556">
        <ele>1169.677715</ele>
        <time>2026-07-27T09:09:33.000Z</time>
      </trkpt>
      <trkpt lat="44.49951" lon="6.45555">
        <ele>1169.599797</ele>
        <time>2026-07-27T09:09:35.000Z</time>
      </trkpt>
      <trkpt lat="44.49951" lon="6.45555">
        <ele>1169.599797</ele>
        <time>2026-07-27T09:09:35.000Z</time>
      </trkpt>
      <trkpt lat="44.49952" lon="6.45553">
        <ele>1169.518388</ele>
        <time>2026-07-27T09:09:35.000Z</time>
      </trkpt>
      <trkpt lat="44.49954" lon="6.45551">
        <ele>1169.37249</ele>
        <time>2026-07-27T09:09:37.000Z</time>
      </trkpt>
      <trkpt lat="44.49954" lon="6.45551">
        <ele>1169.37249</ele>
        <time>2026-07-27T09:09:37.000Z</time>
      </trkpt>
      <trkpt lat="44.49955" lon="6.4555">
        <ele>1169.255264</ele>
        <time>2026-07-27T09:09:38.000Z</time>
      </trkpt>
      <trkpt lat="44.49955" lon="6.4555">
        <ele>1169.255264</ele>
        <time>2026-07-27T09:09:38.000Z</time>
      </trkpt>
      <trkpt lat="44.49957" lon="6.45548">
        <ele>1169.091903</ele>
        <time>2026-07-27T09:09:39.000Z</time>
      </trkpt>
      <trkpt lat="44.49957" lon="6.45548">
        <ele>1169.091903</ele>
        <time>2026-07-27T09:09:39.000Z</time>
      </trkpt>
      <trkpt lat="44.49959" lon="6.45547">
        <ele>1168.964302</ele>
        <time>2026-07-27T09:09:40.000Z</time>
      </trkpt>
      <trkpt lat="44.49962" lon="6.45547">
        <ele>1168.789602</ele>
        <time>2026-07-27T09:09:41.000Z</time>
      </trkpt>
      <trkpt lat="44.49962" lon="6.45547">
        <ele>1168.789602</ele>
        <time>2026-07-27T09:09:41.000Z</time>
      </trkpt>
      <trkpt lat="44.49965" lon="6.45547">
        <ele>1168.598673</ele>
        <time>2026-07-27T09:09:42.000Z</time>
      </trkpt>
      <trkpt lat="44.49965" lon="6.45547">
        <ele>1168.598673</ele>
        <time>2026-07-27T09:09:42.000Z</time>
      </trkpt>
      <trkpt lat="44.49967" lon="6.45546">
        <ele>1168.452265</ele>
        <time>2026-07-27T09:09:43.000Z</time>
      </trkpt>
      <trkpt lat="44.49967" lon="6.45546">
        <ele>1168.452265</ele>
        <time>2026-07-27T09:09:43.000Z</time>
      </trkpt>
      <trkpt lat="44.4997" lon="6.45547">
        <ele>1168.278986</ele>
        <time>2026-07-27T09:09:44.000Z</time>
      </trkpt>
      <trkpt lat="44.4997" lon="6.45547">
        <ele>1168.278986</ele>
        <time>2026-07-27T09:09:44.000Z</time>
      </trkpt>
      <trkpt lat="44.49972" lon="6.45548">
        <ele>1168.153994</ele>
        <time>2026-07-27T09:09:45.000Z</time>
      </trkpt>
      <trkpt lat="44.49972" lon="6.45548">
        <ele>1168.153994</ele>
        <time>2026-07-27T09:09:45.000Z</time>
      </trkpt>
      <trkpt lat="44.49973" lon="6.45549">
        <ele>1168.04629</ele>
        <time>2026-07-27T09:09:46.000Z</time>
      </trkpt>
      <trkpt lat="44.49973" lon="6.45549">
        <ele>1168.04629</ele>
        <time>2026-07-27T09:09:46.000Z</time>
      </trkpt>
      <trkpt lat="44.49973" lon="6.4555">
        <ele>1167.982757</ele>
        <time>2026-07-27T09:09:47.000Z</time>
      </trkpt>
      <trkpt lat="44.49974" lon="6.45553">
        <ele>1167.848714</ele>
        <time>2026-07-27T09:09:48.000Z</time>
      </trkpt>
      <trkpt lat="44.49974" lon="6.45553">
        <ele>1167.848714</ele>
        <time>2026-07-27T09:09:48.000Z</time>
      </trkpt>
      <trkpt lat="44.49974" lon="6.45557">
        <ele>1167.667191</ele>
        <time>2026-07-27T09:09:49.000Z</time>
      </trkpt>
      <trkpt lat="44.49974" lon="6.45557">
        <ele>1167.667191</ele>
        <time>2026-07-27T09:09:49.000Z</time>
      </trkpt>
      <trkpt lat="44.49974" lon="6.45561">
        <ele>1167.462609</ele>
        <time>2026-07-27T09:09:50.000Z</time>
      </trkpt>
      <trkpt lat="44.49974" lon="6.45561">
        <ele>1167.462609</ele>
        <time>2026-07-27T09:09:50.000Z</time>
      </trkpt>
      <trkpt lat="44.49976" lon="6.45566">
        <ele>1167.248835</ele>
        <time>2026-07-27T09:09:51.000Z</time>
      </trkpt>
      <trkpt lat="44.49976" lon="6.45566">
        <ele>1167.248835</ele>
        <time>2026-07-27T09:09:51.000Z</time>
      </trkpt>
      <trkpt lat="44.49977" lon="6.45569">
        <ele>1167.086268</ele>
        <time>2026-07-27T09:09:52.000Z</time>
      </trkpt>
      <trkpt lat="44.49977" lon="6.45569">
        <ele>1167.086268</ele>
        <time>2026-07-27T09:09:52.000Z</time>
      </trkpt>
      <trkpt lat="44.49979" lon="6.45571">
        <ele>1166.917343</ele>
        <time>2026-07-27T09:09:53.000Z</time>
      </trkpt>
      <trkpt lat="44.49979" lon="6.45571">
        <ele>1166.917343</ele>
        <time>2026-07-27T09:09:53.000Z</time>
      </trkpt>
      <trkpt lat="44.4998" lon="6.45573">
        <ele>1166.839425</ele>
        <time>2026-07-27T09:09:53.000Z</time>
      </trkpt>
      <trkpt lat="44.49981" lon="6.45576">
        <ele>1166.669428</ele>
        <time>2026-07-27T09:11:27.000Z</time>
      </trkpt>
      <trkpt lat="44.49984" lon="6.45578">
        <ele>1166.470736</ele>
        <time>2026-07-27T09:11:40.000Z</time>
      </trkpt>
      <trkpt lat="44.49984" lon="6.45578">
        <ele>1166.448045</ele>
        <time>2026-07-27T09:11:42.000Z</time>
      </trkpt>
      <trkpt lat="44.49983" lon="6.45579">
        <ele>1166.39032</ele>
        <time>2026-07-27T09:11:42.000Z</time>
      </trkpt>
      <trkpt lat="44.49981" lon="6.45581">
        <ele>1166.226959</ele>
        <time>2026-07-27T09:11:43.000Z</time>
      </trkpt>
      <trkpt lat="44.49979" lon="6.45582">
        <ele>1166.067425</ele>
        <time>2026-07-27T09:11:44.000Z</time>
      </trkpt>
      <trkpt lat="44.49976" lon="6.45584">
        <ele>1165.90603</ele>
        <time>2026-07-27T09:11:45.000Z</time>
      </trkpt>
      <trkpt lat="44.49974" lon="6.45586">
        <ele>1165.710429</ele>
        <time>2026-07-27T09:11:46.000Z</time>
      </trkpt>
      <trkpt lat="44.49971" lon="6.45589">
        <ele>1165.465499</ele>
        <time>2026-07-27T09:11:48.000Z</time>
      </trkpt>
      <trkpt lat="44.49968" lon="6.45592">
        <ele>1165.265625</ele>
        <time>2026-07-27T09:11:48.000Z</time>
      </trkpt>
      <trkpt lat="44.49966" lon="6.45595">
        <ele>1165.056241</ele>
        <time>2026-07-27T09:11:49.000Z</time>
      </trkpt>
      <trkpt lat="44.49966" lon="6.45595">
        <ele>1165.056241</ele>
        <time>2026-07-27T09:11:49.000Z</time>
      </trkpt>
      <trkpt lat="44.49964" lon="6.45598">
        <ele>1164.890454</ele>
        <time>2026-07-27T09:11:51.000Z</time>
      </trkpt>
      <trkpt lat="44.49962" lon="6.456">
        <ele>1164.73367</ele>
        <time>2026-07-27T09:11:52.000Z</time>
      </trkpt>
      <trkpt lat="44.4996" lon="6.45602">
        <ele>1164.576885</ele>
        <time>2026-07-27T09:11:53.000Z</time>
      </trkpt>
      <trkpt lat="44.49958" lon="6.45604">
        <ele>1164.411457</ele>
        <time>2026-07-27T09:11:54.000Z</time>
      </trkpt>
      <trkpt lat="44.49956" lon="6.45606">
        <ele>1164.234307</ele>
        <time>2026-07-27T09:11:55.000Z</time>
      </trkpt>
      <trkpt lat="44.49954" lon="6.45608">
        <ele>1164.059701</ele>
        <time>2026-07-27T09:11:56.000Z</time>
      </trkpt>
      <trkpt lat="44.49951" lon="6.45611">
        <ele>1163.877281</ele>
        <time>2026-07-27T09:11:57.000Z</time>
      </trkpt>
      <trkpt lat="44.4995" lon="6.45613">
        <ele>1163.737834</ele>
        <time>2026-07-27T09:11:57.000Z</time>
      </trkpt>
      <trkpt lat="44.49947" lon="6.45616">
        <ele>1163.542571</ele>
        <time>2026-07-27T09:11:59.000Z</time>
      </trkpt>
      <trkpt lat="44.49947" lon="6.45616">
        <ele>1163.542571</ele>
        <time>2026-07-27T09:11:59.000Z</time>
      </trkpt>
      <trkpt lat="44.49945" lon="6.45619">
        <ele>1163.331563</ele>
        <time>2026-07-27T09:12:00.000Z</time>
      </trkpt>
      <trkpt lat="44.49942" lon="6.45621">
        <ele>1163.154412</ele>
        <time>2026-07-27T09:12:01.000Z</time>
      </trkpt>
      <trkpt lat="44.4994" lon="6.45624">
        <ele>1162.960607</ele>
        <time>2026-07-27T09:12:02.000Z</time>
      </trkpt>
      <trkpt lat="44.49937" lon="6.45626">
        <ele>1162.768394</ele>
        <time>2026-07-27T09:12:03.000Z</time>
      </trkpt>
      <trkpt lat="44.49935" lon="6.45628">
        <ele>1162.577482</ele>
        <time>2026-07-27T09:12:04.000Z</time>
      </trkpt>
      <trkpt lat="44.49932" lon="6.4563">
        <ele>1162.37879</ele>
        <time>2026-07-27T09:12:05.000Z</time>
      </trkpt>
      <trkpt lat="44.49932" lon="6.4563">
        <ele>1162.37879</ele>
        <time>2026-07-27T09:12:05.000Z</time>
      </trkpt>
      <trkpt lat="44.4993" lon="6.45632">
        <ele>1162.211197</ele>
        <time>2026-07-27T09:12:06.000Z</time>
      </trkpt>
      <trkpt lat="44.49928" lon="6.45634">
        <ele>1162.036564</ele>
        <time>2026-07-27T09:12:06.000Z</time>
      </trkpt>
      <trkpt lat="44.49926" lon="6.45635">
        <ele>1161.897828</ele>
        <time>2026-07-27T09:12:07.000Z</time>
      </trkpt>
      <trkpt lat="44.49926" lon="6.45635">
        <ele>1161.897828</ele>
        <time>2026-07-27T09:12:07.000Z</time>
      </trkpt>
      <trkpt lat="44.49923" lon="6.45637">
        <ele>1161.720677</ele>
        <time>2026-07-27T09:12:08.000Z</time>
      </trkpt>
      <trkpt lat="44.49921" lon="6.45639">
        <ele>1161.550826</ele>
        <time>2026-07-27T09:12:10.000Z</time>
      </trkpt>
      <trkpt lat="44.49921" lon="6.45639">
        <ele>1161.550826</ele>
        <time>2026-07-27T09:12:10.000Z</time>
      </trkpt>
      <trkpt lat="44.49919" lon="6.45641">
        <ele>1161.402339</ele>
        <time>2026-07-27T09:12:11.000Z</time>
      </trkpt>
      <trkpt lat="44.49917" lon="6.45643">
        <ele>1161.263604</ele>
        <time>2026-07-27T09:12:12.000Z</time>
      </trkpt>
      <trkpt lat="44.49917" lon="6.45643">
        <ele>1161.263604</ele>
        <time>2026-07-27T09:12:12.000Z</time>
      </trkpt>
      <trkpt lat="44.49915" lon="6.45645">
        <ele>1161.112436</ele>
        <time>2026-07-27T09:12:13.000Z</time>
      </trkpt>
      <trkpt lat="44.49915" lon="6.45645">
        <ele>1161.112436</ele>
        <time>2026-07-27T09:12:13.000Z</time>
      </trkpt>
      <trkpt lat="44.49913" lon="6.45647">
        <ele>1160.966538</ele>
        <time>2026-07-27T09:12:14.000Z</time>
      </trkpt>
      <trkpt lat="44.49913" lon="6.45647">
        <ele>1160.966538</ele>
        <time>2026-07-27T09:12:14.000Z</time>
      </trkpt>
      <trkpt lat="44.49912" lon="6.45648">
        <ele>1160.840915</ele>
        <time>2026-07-27T09:12:15.000Z</time>
      </trkpt>
      <trkpt lat="44.49912" lon="6.45648">
        <ele>1160.840915</ele>
        <time>2026-07-27T09:12:15.000Z</time>
      </trkpt>
      <trkpt lat="44.49909" lon="6.4565">
        <ele>1160.650695</ele>
        <time>2026-07-27T09:12:16.000Z</time>
      </trkpt>
      <trkpt lat="44.49909" lon="6.4565">
        <ele>1160.650695</ele>
        <time>2026-07-27T09:12:16.000Z</time>
      </trkpt>
      <trkpt lat="44.49907" lon="6.45652">
        <ele>1160.465913</ele>
        <time>2026-07-27T09:12:17.000Z</time>
      </trkpt>
      <trkpt lat="44.49907" lon="6.45652">
        <ele>1160.465913</ele>
        <time>2026-07-27T09:12:17.000Z</time>
      </trkpt>
      <trkpt lat="44.49904" lon="6.45653">
        <ele>1160.433416</ele>
        <time>2026-07-27T09:12:18.000Z</time>
      </trkpt>
      <trkpt lat="44.49904" lon="6.45653">
        <ele>1160.433416</ele>
        <time>2026-07-27T09:12:18.000Z</time>
      </trkpt>
      <trkpt lat="44.49901" lon="6.45654">
        <ele>1160.804101</ele>
        <time>2026-07-27T09:12:19.000Z</time>
      </trkpt>
      <trkpt lat="44.49901" lon="6.45654">
        <ele>1160.804101</ele>
        <time>2026-07-27T09:12:19.000Z</time>
      </trkpt>
      <trkpt lat="44.49899" lon="6.45656">
        <ele>1161.121185</ele>
        <time>2026-07-27T09:12:20.000Z</time>
      </trkpt>
      <trkpt lat="44.49899" lon="6.45656">
        <ele>1161.121185</ele>
        <time>2026-07-27T09:12:20.000Z</time>
      </trkpt>
      <trkpt lat="44.49897" lon="6.45657">
        <ele>1161.428497</ele>
        <time>2026-07-27T09:12:21.000Z</time>
      </trkpt>
      <trkpt lat="44.49897" lon="6.45657">
        <ele>1161.428497</ele>
        <time>2026-07-27T09:12:21.000Z</time>
      </trkpt>
      <trkpt lat="44.49894" lon="6.45658">
        <ele>1161.828337</ele>
        <time>2026-07-27T09:12:22.000Z</time>
      </trkpt>
      <trkpt lat="44.49894" lon="6.45658">
        <ele>1161.828337</ele>
        <time>2026-07-27T09:12:22.000Z</time>
      </trkpt>
      <trkpt lat="44.49891" lon="6.45659">
        <ele>1162.183899</ele>
        <time>2026-07-27T09:12:23.000Z</time>
      </trkpt>
      <trkpt lat="44.49891" lon="6.45659">
        <ele>1162.183899</ele>
        <time>2026-07-27T09:12:23.000Z</time>
      </trkpt>
      <trkpt lat="44.49889" lon="6.45661">
        <ele>1162.451256</ele>
        <time>2026-07-27T09:12:24.000Z</time>
      </trkpt>
      <trkpt lat="44.49889" lon="6.45661">
        <ele>1162.451256</ele>
        <time>2026-07-27T09:12:24.000Z</time>
      </trkpt>
      <trkpt lat="44.49886" lon="6.45662">
        <ele>1162.868998</ele>
        <time>2026-07-27T09:12:25.000Z</time>
      </trkpt>
      <trkpt lat="44.49886" lon="6.45662">
        <ele>1162.868998</ele>
        <time>2026-07-27T09:12:25.000Z</time>
      </trkpt>
      <trkpt lat="44.49883" lon="6.45664">
        <ele>1163.271777</ele>
        <time>2026-07-27T09:12:26.000Z</time>
      </trkpt>
      <trkpt lat="44.49883" lon="6.45664">
        <ele>1163.271777</ele>
        <time>2026-07-27T09:12:26.000Z</time>
      </trkpt>
      <trkpt lat="44.4988" lon="6.45666">
        <ele>1163.649851</ele>
        <time>2026-07-27T09:12:26.000Z</time>
      </trkpt>
      <trkpt lat="44.4988" lon="6.45666">
        <ele>1163.649851</ele>
        <time>2026-07-27T09:12:26.000Z</time>
      </trkpt>
      <trkpt lat="44.49878" lon="6.45667">
        <ele>1164.005393</ele>
        <time>2026-07-27T09:12:28.000Z</time>
      </trkpt>
      <trkpt lat="44.49878" lon="6.45667">
        <ele>1164.005393</ele>
        <time>2026-07-27T09:12:28.000Z</time>
      </trkpt>
      <trkpt lat="44.49875" lon="6.45669">
        <ele>1164.383467</ele>
        <time>2026-07-27T09:12:29.000Z</time>
      </trkpt>
      <trkpt lat="44.49875" lon="6.45669">
        <ele>1164.383467</ele>
        <time>2026-07-27T09:12:29.000Z</time>
      </trkpt>
      <trkpt lat="44.49873" lon="6.4567">
        <ele>1164.700551</ele>
        <time>2026-07-27T09:12:30.000Z</time>
      </trkpt>
      <trkpt lat="44.49873" lon="6.4567">
        <ele>1164.700551</ele>
        <time>2026-07-27T09:12:30.000Z</time>
      </trkpt>
      <trkpt lat="44.4987" lon="6.45672">
        <ele>1165.064593</ele>
        <time>2026-07-27T09:12:31.000Z</time>
      </trkpt>
      <trkpt lat="44.4987" lon="6.45672">
        <ele>1165.064593</ele>
        <time>2026-07-27T09:12:31.000Z</time>
      </trkpt>
      <trkpt lat="44.49868" lon="6.45673">
        <ele>1165.374934</ele>
        <time>2026-07-27T09:12:32.000Z</time>
      </trkpt>
      <trkpt lat="44.49868" lon="6.45673">
        <ele>1165.374934</ele>
        <time>2026-07-27T09:12:32.000Z</time>
      </trkpt>
      <trkpt lat="44.49865" lon="6.45674">
        <ele>1165.72401</ele>
        <time>2026-07-27T09:12:33.000Z</time>
      </trkpt>
      <trkpt lat="44.49865" lon="6.45674">
        <ele>1165.72401</ele>
        <time>2026-07-27T09:12:33.000Z</time>
      </trkpt>
      <trkpt lat="44.49863" lon="6.45675">
        <ele>1166.034352</ele>
        <time>2026-07-27T09:12:34.000Z</time>
      </trkpt>
      <trkpt lat="44.49863" lon="6.45675">
        <ele>1166.034352</ele>
        <time>2026-07-27T09:12:34.000Z</time>
      </trkpt>
      <trkpt lat="44.49861" lon="6.45677">
        <ele>1166.301709</ele>
        <time>2026-07-27T09:12:35.000Z</time>
      </trkpt>
      <trkpt lat="44.49861" lon="6.45677">
        <ele>1166.301709</ele>
        <time>2026-07-27T09:12:35.000Z</time>
      </trkpt>
      <trkpt lat="44.49861" lon="6.45677">
        <ele>1166.301709</ele>
        <time>2026-07-27T09:12:36.000Z</time>
      </trkpt>
      <trkpt lat="44.49858" lon="6.45679">
        <ele>1166.749529</ele>
        <time>2026-07-27T09:12:37.000Z</time>
      </trkpt>
      <trkpt lat="44.49858" lon="6.45679">
        <ele>1166.749529</ele>
        <time>2026-07-27T09:12:37.000Z</time>
      </trkpt>
      <trkpt lat="44.49857" lon="6.4568">
        <ele>1166.868782</ele>
        <time>2026-07-27T09:12:37.000Z</time>
      </trkpt>
      <trkpt lat="44.49855" lon="6.45681">
        <ele>1167.170693</ele>
        <time>2026-07-27T09:12:39.000Z</time>
      </trkpt>
      <trkpt lat="44.49855" lon="6.45681">
        <ele>1167.170693</ele>
        <time>2026-07-27T09:12:39.000Z</time>
      </trkpt>
      <trkpt lat="44.49854" lon="6.45682">
        <ele>1167.258815</ele>
        <time>2026-07-27T09:12:41.000Z</time>
      </trkpt>
      <trkpt lat="44.49853" lon="6.45682">
        <ele>1167.417125</ele>
        <time>2026-07-27T09:12:41.000Z</time>
      </trkpt>
      <trkpt lat="44.49853" lon="6.45682">
        <ele>1167.417125</ele>
        <time>2026-07-27T09:12:41.000Z</time>
      </trkpt>
      <trkpt lat="44.49853" lon="6.45682">
        <ele>1167.417125</ele>
        <time>2026-07-27T09:12:43.000Z</time>
      </trkpt>
      <trkpt lat="44.4985" lon="6.45681">
        <ele>1167.870659</ele>
        <time>2026-07-27T09:12:43.000Z</time>
      </trkpt>
      <trkpt lat="44.4985" lon="6.45681">
        <ele>1167.870659</ele>
        <time>2026-07-27T09:12:43.000Z</time>
      </trkpt>
      <trkpt lat="44.49849" lon="6.4568">
        <ele>1167.998363</ele>
        <time>2026-07-27T09:12:45.000Z</time>
      </trkpt>
      <trkpt lat="44.49849" lon="6.4568">
        <ele>1167.998363</ele>
        <time>2026-07-27T09:12:45.000Z</time>
      </trkpt>
      <trkpt lat="44.49849" lon="6.45679">
        <ele>1168.079542</ele>
        <time>2026-07-27T09:12:45.000Z</time>
      </trkpt>
      <trkpt lat="44.49849" lon="6.45678">
        <ele>1168.160721</ele>
        <time>2026-07-27T09:12:47.000Z</time>
      </trkpt>
      <trkpt lat="44.4985" lon="6.45677">
        <ele>1168.280196</ele>
        <time>2026-07-27T09:12:48.000Z</time>
      </trkpt>
      <trkpt lat="44.49851" lon="6.45674">
        <ele>1168.554712</ele>
        <time>2026-07-27T09:12:49.000Z</time>
      </trkpt>
      <trkpt lat="44.49851" lon="6.45674">
        <ele>1168.554712</ele>
        <time>2026-07-27T09:12:49.000Z</time>
      </trkpt>
      <trkpt lat="44.49852" lon="6.45673">
        <ele>1168.723651</ele>
        <time>2026-07-27T09:12:50.000Z</time>
      </trkpt>
      <trkpt lat="44.49852" lon="6.45673">
        <ele>1168.723651</ele>
        <time>2026-07-27T09:12:50.000Z</time>
      </trkpt>
      <trkpt lat="44.49853" lon="6.45672">
        <ele>1168.899905</ele>
        <time>2026-07-27T09:12:51.000Z</time>
      </trkpt>
      <trkpt lat="44.49853" lon="6.45672">
        <ele>1168.899905</ele>
        <time>2026-07-27T09:12:51.000Z</time>
      </trkpt>
      <trkpt lat="44.49855" lon="6.4567">
        <ele>1169.189889</ele>
        <time>2026-07-27T09:12:52.000Z</time>
      </trkpt>
      <trkpt lat="44.49855" lon="6.4567">
        <ele>1169.189889</ele>
        <time>2026-07-27T09:12:52.000Z</time>
      </trkpt>
      <trkpt lat="44.49857" lon="6.45669">
        <ele>1169.423744</ele>
        <time>2026-07-27T09:12:53.000Z</time>
      </trkpt>
      <trkpt lat="44.49857" lon="6.45669">
        <ele>1169.423744</ele>
        <time>2026-07-27T09:12:53.000Z</time>
      </trkpt>
      <trkpt lat="44.49858" lon="6.45668">
        <ele>1169.630073</ele>
        <time>2026-07-27T09:12:54.000Z</time>
      </trkpt>
      <trkpt lat="44.49858" lon="6.45668">
        <ele>1169.630073</ele>
        <time>2026-07-27T09:12:54.000Z</time>
      </trkpt>
      <trkpt lat="44.4986" lon="6.45667">
        <ele>1169.844143</ele>
        <time>2026-07-27T09:12:55.000Z</time>
      </trkpt>
      <trkpt lat="44.4986" lon="6.45667">
        <ele>1169.844143</ele>
        <time>2026-07-27T09:12:55.000Z</time>
      </trkpt>
      <trkpt lat="44.49861" lon="6.45665">
        <ele>1170.035918</ele>
        <time>2026-07-27T09:12:56.000Z</time>
      </trkpt>
      <trkpt lat="44.49862" lon="6.45664">
        <ele>1170.223791</ele>
        <time>2026-07-27T09:12:57.000Z</time>
      </trkpt>
      <trkpt lat="44.49862" lon="6.45664">
        <ele>1170.223791</ele>
        <time>2026-07-27T09:12:57.000Z</time>
      </trkpt>
      <trkpt lat="44.49863" lon="6.45663">
        <ele>1170.410187</ele>
        <time>2026-07-27T09:12:58.000Z</time>
      </trkpt>
      <trkpt lat="44.49863" lon="6.45663">
        <ele>1170.410187</ele>
        <time>2026-07-27T09:12:58.000Z</time>
      </trkpt>
      <trkpt lat="44.49865" lon="6.45661">
        <ele>1170.628584</ele>
        <time>2026-07-27T09:12:59.000Z</time>
      </trkpt>
      <trkpt lat="44.49865" lon="6.45661">
        <ele>1170.628584</ele>
        <time>2026-07-27T09:12:59.000Z</time>
      </trkpt>
      <trkpt lat="44.49867" lon="6.4566">
        <ele>1170.913615</ele>
        <time>2026-07-27T09:13:00.000Z</time>
      </trkpt>
      <trkpt lat="44.49867" lon="6.4566">
        <ele>1170.913615</ele>
        <time>2026-07-27T09:13:00.000Z</time>
      </trkpt>
      <trkpt lat="44.49868" lon="6.45658">
        <ele>1171.146611</ele>
        <time>2026-07-27T09:13:01.000Z</time>
      </trkpt>
      <trkpt lat="44.49868" lon="6.45658">
        <ele>1171.146611</ele>
        <time>2026-07-27T09:13:02.000Z</time>
      </trkpt>
      <trkpt lat="44.49872" lon="6.45656">
        <ele>1171.663138</ele>
        <time>2026-07-27T09:13:03.000Z</time>
      </trkpt>
      <trkpt lat="44.49872" lon="6.45656">
        <ele>1171.663138</ele>
        <time>2026-07-27T09:13:03.000Z</time>
      </trkpt>
      <trkpt lat="44.49875" lon="6.45655">
        <ele>1172.024149</ele>
        <time>2026-07-27T09:13:05.000Z</time>
      </trkpt>
      <trkpt lat="44.49875" lon="6.45655">
        <ele>1172.024149</ele>
        <time>2026-07-27T09:13:05.000Z</time>
      </trkpt>
      <trkpt lat="44.49878" lon="6.45652">
        <ele>1172.50553</ele>
        <time>2026-07-27T09:13:07.000Z</time>
      </trkpt>
      <trkpt lat="44.49878" lon="6.45652">
        <ele>1172.50553</ele>
        <time>2026-07-27T09:13:07.000Z</time>
      </trkpt>
      <trkpt lat="44.49879" lon="6.45652">
        <ele>1172.610253</ele>
        <time>2026-07-27T09:13:08.000Z</time>
      </trkpt>
      <trkpt lat="44.49881" lon="6.45651">
        <ele>1172.885999</ele>
        <time>2026-07-27T09:13:11.000Z</time>
      </trkpt>
      <trkpt lat="44.49882" lon="6.45649">
        <ele>1173.104395</ele>
        <time>2026-07-27T09:13:12.000Z</time>
      </trkpt>
      <trkpt lat="44.49883" lon="6.45648">
        <ele>1173.232098</ele>
        <time>2026-07-27T09:13:15.000Z</time>
      </trkpt>
      <trkpt lat="44.49883" lon="6.45648">
        <ele>1173.250138</ele>
        <time>2026-07-27T09:13:15.000Z</time>
      </trkpt>
      <trkpt lat="44.49883" lon="6.45647">
        <ele>1173.304257</ele>
        <time>2026-07-27T09:13:17.000Z</time>
      </trkpt>
      <trkpt lat="44.49883" lon="6.45647">
        <ele>1173.304257</ele>
        <time>2026-07-27T09:13:17.000Z</time>
      </trkpt>
      <trkpt lat="44.49882" lon="6.45646">
        <ele>1173.423732</ele>
        <time>2026-07-27T09:13:18.000Z</time>
      </trkpt>
      <trkpt lat="44.49882" lon="6.45641">
        <ele>1173.856684</ele>
        <time>2026-07-27T09:13:20.000Z</time>
      </trkpt>
      <trkpt lat="44.49882" lon="6.45641">
        <ele>1173.856684</ele>
        <time>2026-07-27T09:13:20.000Z</time>
      </trkpt>
      <trkpt lat="44.49883" lon="6.45639">
        <ele>1174.044039</ele>
        <time>2026-07-27T09:13:21.000Z</time>
      </trkpt>
      <trkpt lat="44.49883" lon="6.45637">
        <ele>1174.248821</ele>
        <time>2026-07-27T09:13:22.000Z</time>
      </trkpt>
      <trkpt lat="44.49883" lon="6.45635">
        <ele>1174.479921</ele>
        <time>2026-07-27T09:13:23.000Z</time>
      </trkpt>
      <trkpt lat="44.49883" lon="6.45635">
        <ele>1174.479921</ele>
        <time>2026-07-27T09:13:23.000Z</time>
      </trkpt>
      <trkpt lat="44.49884" lon="6.45632">
        <ele>1174.730587</ele>
        <time>2026-07-27T09:13:24.000Z</time>
      </trkpt>
      <trkpt lat="44.49885" lon="6.4563">
        <ele>1174.987621</ele>
        <time>2026-07-27T09:13:25.000Z</time>
      </trkpt>
      <trkpt lat="44.49885" lon="6.4563">
        <ele>1174.987621</ele>
        <time>2026-07-27T09:13:25.000Z</time>
      </trkpt>
      <trkpt lat="44.49886" lon="6.45628">
        <ele>1175.204906</ele>
        <time>2026-07-27T09:13:26.000Z</time>
      </trkpt>
      <trkpt lat="44.49887" lon="6.45626">
        <ele>1175.402325</ele>
        <time>2026-07-27T09:13:27.000Z</time>
      </trkpt>
      <trkpt lat="44.49887" lon="6.45626">
        <ele>1175.402325</ele>
        <time>2026-07-27T09:13:27.000Z</time>
      </trkpt>
      <trkpt lat="44.49888" lon="6.45625">
        <ele>1175.573188</ele>
        <time>2026-07-27T09:13:28.000Z</time>
      </trkpt>
      <trkpt lat="44.49888" lon="6.45625">
        <ele>1175.573188</ele>
        <time>2026-07-27T09:13:29.000Z</time>
      </trkpt>
      <trkpt lat="44.4989" lon="6.45622">
        <ele>1175.896798</ele>
        <time>2026-07-27T09:13:30.000Z</time>
      </trkpt>
      <trkpt lat="44.49889" lon="6.45622">
        <ele>1175.95893</ele>
        <time>2026-07-27T09:13:31.000Z</time>
      </trkpt>
      <trkpt lat="44.49889" lon="6.45622">
        <ele>1175.95893</ele>
        <time>2026-07-27T09:13:31.000Z</time>
      </trkpt>
      <trkpt lat="44.49889" lon="6.45622">
        <ele>1175.95893</ele>
        <time>2026-07-27T09:13:33.000Z</time>
      </trkpt>
      <trkpt lat="44.49887" lon="6.4562">
        <ele>1176.333219</ele>
        <time>2026-07-27T09:13:34.000Z</time>
      </trkpt>
      <trkpt lat="44.49887" lon="6.4562">
        <ele>1176.333219</ele>
        <time>2026-07-27T09:13:34.000Z</time>
      </trkpt>
      <trkpt lat="44.49886" lon="6.4562">
        <ele>1176.434787</ele>
        <time>2026-07-27T09:13:35.000Z</time>
      </trkpt>
      <trkpt lat="44.49886" lon="6.4562">
        <ele>1176.434787</ele>
        <time>2026-07-27T09:13:35.000Z</time>
      </trkpt>
      <trkpt lat="44.49885" lon="6.4562">
        <ele>1176.530379</ele>
        <time>2026-07-27T09:13:36.000Z</time>
      </trkpt>
      <trkpt lat="44.49885" lon="6.4562">
        <ele>1176.530379</ele>
        <time>2026-07-27T09:13:36.000Z</time>
      </trkpt>
      <trkpt lat="44.49884" lon="6.45619">
        <ele>1176.720922</ele>
        <time>2026-07-27T09:13:37.000Z</time>
      </trkpt>
      <trkpt lat="44.49884" lon="6.45619">
        <ele>1176.720922</ele>
        <time>2026-07-27T09:13:37.000Z</time>
      </trkpt>
      <trkpt lat="44.49883" lon="6.45619">
        <ele>1176.87294</ele>
        <time>2026-07-27T09:13:38.000Z</time>
      </trkpt>
      <trkpt lat="44.49883" lon="6.45619">
        <ele>1176.87294</ele>
        <time>2026-07-27T09:13:38.000Z</time>
      </trkpt>
      <trkpt lat="44.49882" lon="6.45619">
        <ele>1176.974508</ele>
        <time>2026-07-27T09:13:39.000Z</time>
      </trkpt>
      <trkpt lat="44.49882" lon="6.45619">
        <ele>1176.974508</ele>
        <time>2026-07-27T09:13:39.000Z</time>
      </trkpt>
      <trkpt lat="44.4988" lon="6.4562">
        <ele>1177.216299</ele>
        <time>2026-07-27T09:13:40.000Z</time>
      </trkpt>
      <trkpt lat="44.4988" lon="6.4562">
        <ele>1177.216299</ele>
        <time>2026-07-27T09:13:40.000Z</time>
      </trkpt>
      <trkpt lat="44.49878" lon="6.4562">
        <ele>1177.460766</ele>
        <time>2026-07-27T09:13:41.000Z</time>
      </trkpt>
      <trkpt lat="44.49878" lon="6.4562">
        <ele>1177.460766</ele>
        <time>2026-07-27T09:13:41.000Z</time>
      </trkpt>
      <trkpt lat="44.49876" lon="6.45621">
        <ele>1177.711639</ele>
        <time>2026-07-27T09:13:42.000Z</time>
      </trkpt>
      <trkpt lat="44.49876" lon="6.45621">
        <ele>1177.711639</ele>
        <time>2026-07-27T09:13:42.000Z</time>
      </trkpt>
      <trkpt lat="44.49874" lon="6.45621">
        <ele>1177.953429</ele>
        <time>2026-07-27T09:13:43.000Z</time>
      </trkpt>
      <trkpt lat="44.49874" lon="6.45621">
        <ele>1177.953429</ele>
        <time>2026-07-27T09:13:43.000Z</time>
      </trkpt>
      <trkpt lat="44.49872" lon="6.45622">
        <ele>1178.196394</ele>
        <time>2026-07-27T09:13:44.000Z</time>
      </trkpt>
      <trkpt lat="44.49872" lon="6.45622">
        <ele>1178.196394</ele>
        <time>2026-07-27T09:13:44.000Z</time>
      </trkpt>
      <trkpt lat="44.4987" lon="6.45622">
        <ele>1178.439359</ele>
        <time>2026-07-27T09:13:45.000Z</time>
      </trkpt>
      <trkpt lat="44.4987" lon="6.45622">
        <ele>1178.439359</ele>
        <time>2026-07-27T09:13:45.000Z</time>
      </trkpt>
      <trkpt lat="44.49868" lon="6.45623">
        <ele>1178.690232</ele>
        <time>2026-07-27T09:13:46.000Z</time>
      </trkpt>
      <trkpt lat="44.49868" lon="6.45623">
        <ele>1178.690232</ele>
        <time>2026-07-27T09:13:46.000Z</time>
      </trkpt>
      <trkpt lat="44.49867" lon="6.45623">
        <ele>1178.933197</ele>
        <time>2026-07-27T09:13:47.000Z</time>
      </trkpt>
      <trkpt lat="44.49867" lon="6.45623">
        <ele>1178.933197</ele>
        <time>2026-07-27T09:13:47.000Z</time>
      </trkpt>
      <trkpt lat="44.49864" lon="6.45624">
        <ele>1179.288759</ele>
        <time>2026-07-27T09:13:48.000Z</time>
      </trkpt>
      <trkpt lat="44.49864" lon="6.45624">
        <ele>1179.288759</ele>
        <time>2026-07-27T09:13:48.000Z</time>
      </trkpt>
      <trkpt lat="44.49861" lon="6.45625">
        <ele>1179.64191</ele>
        <time>2026-07-27T09:13:49.000Z</time>
      </trkpt>
      <trkpt lat="44.49861" lon="6.45625">
        <ele>1179.64191</ele>
        <time>2026-07-27T09:13:49.000Z</time>
      </trkpt>
      <trkpt lat="44.49859" lon="6.45626">
        <ele>1179.927194</ele>
        <time>2026-07-27T09:13:50.000Z</time>
      </trkpt>
      <trkpt lat="44.49859" lon="6.45626">
        <ele>1179.927194</ele>
        <time>2026-07-27T09:13:50.000Z</time>
      </trkpt>
      <trkpt lat="44.49855" lon="6.45627">
        <ele>1180.390016</ele>
        <time>2026-07-27T09:13:51.000Z</time>
      </trkpt>
      <trkpt lat="44.49855" lon="6.45627">
        <ele>1180.390016</ele>
        <time>2026-07-27T09:13:51.000Z</time>
      </trkpt>
      <trkpt lat="44.49853" lon="6.45629">
        <ele>1180.754058</ele>
        <time>2026-07-27T09:13:52.000Z</time>
      </trkpt>
      <trkpt lat="44.49853" lon="6.45629">
        <ele>1180.754058</ele>
        <time>2026-07-27T09:13:52.000Z</time>
      </trkpt>
      <trkpt lat="44.4985" lon="6.4563">
        <ele>1181.113129</ele>
        <time>2026-07-27T09:13:53.000Z</time>
      </trkpt>
      <trkpt lat="44.4985" lon="6.4563">
        <ele>1181.113129</ele>
        <time>2026-07-27T09:13:53.000Z</time>
      </trkpt>
      <trkpt lat="44.49848" lon="6.45632">
        <ele>1181.433912</ele>
        <time>2026-07-27T09:13:54.000Z</time>
      </trkpt>
      <trkpt lat="44.49848" lon="6.45632">
        <ele>1181.433912</ele>
        <time>2026-07-27T09:13:54.000Z</time>
      </trkpt>
      <trkpt lat="44.49845" lon="6.45634">
        <ele>1181.873297</ele>
        <time>2026-07-27T09:13:55.000Z</time>
      </trkpt>
      <trkpt lat="44.49845" lon="6.45634">
        <ele>1181.873297</ele>
        <time>2026-07-27T09:13:55.000Z</time>
      </trkpt>
      <trkpt lat="44.49842" lon="6.45636">
        <ele>1182.25733</ele>
        <time>2026-07-27T09:13:56.000Z</time>
      </trkpt>
      <trkpt lat="44.49842" lon="6.45636">
        <ele>1182.25733</ele>
        <time>2026-07-27T09:13:56.000Z</time>
      </trkpt>
      <trkpt lat="44.49839" lon="6.45639">
        <ele>1182.696715</ele>
        <time>2026-07-27T09:13:57.000Z</time>
      </trkpt>
      <trkpt lat="44.49839" lon="6.45639">
        <ele>1182.696715</ele>
        <time>2026-07-27T09:13:57.000Z</time>
      </trkpt>
      <trkpt lat="44.49836" lon="6.45641">
        <ele>1183.094477</ele>
        <time>2026-07-27T09:13:58.000Z</time>
      </trkpt>
      <trkpt lat="44.49836" lon="6.45641">
        <ele>1183.094477</ele>
        <time>2026-07-27T09:13:58.000Z</time>
      </trkpt>
      <trkpt lat="44.49834" lon="6.45642">
        <ele>1183.58845</ele>
        <time>2026-07-27T09:13:59.000Z</time>
      </trkpt>
      <trkpt lat="44.49834" lon="6.45642">
        <ele>1183.58845</ele>
        <time>2026-07-27T09:13:59.000Z</time>
      </trkpt>
      <trkpt lat="44.49831" lon="6.45644">
        <ele>1184.178825</ele>
        <time>2026-07-27T09:14:00.000Z</time>
      </trkpt>
      <trkpt lat="44.49831" lon="6.45644">
        <ele>1184.178825</ele>
        <time>2026-07-27T09:14:00.000Z</time>
      </trkpt>
      <trkpt lat="44.49829" lon="6.45645">
        <ele>1184.538769</ele>
        <time>2026-07-27T09:14:01.000Z</time>
      </trkpt>
      <trkpt lat="44.49829" lon="6.45645">
        <ele>1184.538769</ele>
        <time>2026-07-27T09:14:01.000Z</time>
      </trkpt>
      <trkpt lat="44.49826" lon="6.45646">
        <ele>1184.978596</ele>
        <time>2026-07-27T09:14:02.000Z</time>
      </trkpt>
      <trkpt lat="44.49826" lon="6.45646">
        <ele>1184.978596</ele>
        <time>2026-07-27T09:14:02.000Z</time>
      </trkpt>
      <trkpt lat="44.49825" lon="6.45648">
        <ele>1185.365331</ele>
        <time>2026-07-27T09:14:03.000Z</time>
      </trkpt>
      <trkpt lat="44.49825" lon="6.45648">
        <ele>1185.365331</ele>
        <time>2026-07-27T09:14:03.000Z</time>
      </trkpt>
      <trkpt lat="44.49822" lon="6.45649">
        <ele>1185.826474</ele>
        <time>2026-07-27T09:14:04.000Z</time>
      </trkpt>
      <trkpt lat="44.49822" lon="6.45649">
        <ele>1185.826474</ele>
        <time>2026-07-27T09:14:04.000Z</time>
      </trkpt>
      <trkpt lat="44.4982" lon="6.45651">
        <ele>1186.219571</ele>
        <time>2026-07-27T09:14:05.000Z</time>
      </trkpt>
      <trkpt lat="44.4982" lon="6.45651">
        <ele>1186.219571</ele>
        <time>2026-07-27T09:14:05.000Z</time>
      </trkpt>
      <trkpt lat="44.49818" lon="6.45652">
        <ele>1186.669471</ele>
        <time>2026-07-27T09:14:06.000Z</time>
      </trkpt>
      <trkpt lat="44.49818" lon="6.45652">
        <ele>1186.669471</ele>
        <time>2026-07-27T09:14:06.000Z</time>
      </trkpt>
      <trkpt lat="44.49815" lon="6.45655">
        <ele>1187.20808</ele>
        <time>2026-07-27T09:14:07.000Z</time>
      </trkpt>
      <trkpt lat="44.49815" lon="6.45655">
        <ele>1187.20808</ele>
        <time>2026-07-27T09:14:07.000Z</time>
      </trkpt>
      <trkpt lat="44.49814" lon="6.45657">
        <ele>1187.621999</ele>
        <time>2026-07-27T09:14:08.000Z</time>
      </trkpt>
      <trkpt lat="44.49814" lon="6.45657">
        <ele>1187.621999</ele>
        <time>2026-07-27T09:14:08.000Z</time>
      </trkpt>
      <trkpt lat="44.49811" lon="6.45659">
        <ele>1188.182332</ele>
        <time>2026-07-27T09:14:09.000Z</time>
      </trkpt>
      <trkpt lat="44.49811" lon="6.45659">
        <ele>1188.182332</ele>
        <time>2026-07-27T09:14:09.000Z</time>
      </trkpt>
      <trkpt lat="44.49809" lon="6.4566">
        <ele>1188.569067</ele>
        <time>2026-07-27T09:14:10.000Z</time>
      </trkpt>
      <trkpt lat="44.49809" lon="6.4566">
        <ele>1188.569067</ele>
        <time>2026-07-27T09:14:10.000Z</time>
      </trkpt>
      <trkpt lat="44.49807" lon="6.45662">
        <ele>1188.936205</ele>
        <time>2026-07-27T09:14:11.000Z</time>
      </trkpt>
      <trkpt lat="44.49807" lon="6.45662">
        <ele>1188.936205</ele>
        <time>2026-07-27T09:14:11.000Z</time>
      </trkpt>
      <trkpt lat="44.49806" lon="6.45664">
        <ele>1189.258032</ele>
        <time>2026-07-27T09:14:12.000Z</time>
      </trkpt>
      <trkpt lat="44.49806" lon="6.45664">
        <ele>1189.258032</ele>
        <time>2026-07-27T09:14:12.000Z</time>
      </trkpt>
      <trkpt lat="44.49804" lon="6.45665">
        <ele>1189.651129</ele>
        <time>2026-07-27T09:14:13.000Z</time>
      </trkpt>
      <trkpt lat="44.49804" lon="6.45665">
        <ele>1189.651129</ele>
        <time>2026-07-27T09:14:13.000Z</time>
      </trkpt>
      <trkpt lat="44.49801" lon="6.45667">
        <ele>1190.225024</ele>
        <time>2026-07-27T09:14:14.000Z</time>
      </trkpt>
      <trkpt lat="44.49801" lon="6.45667">
        <ele>1190.225024</ele>
        <time>2026-07-27T09:14:14.000Z</time>
      </trkpt>
      <trkpt lat="44.49798" lon="6.45668">
        <ele>1190.744912</ele>
        <time>2026-07-27T09:14:15.000Z</time>
      </trkpt>
      <trkpt lat="44.49798" lon="6.45668">
        <ele>1190.744912</ele>
        <time>2026-07-27T09:14:15.000Z</time>
      </trkpt>
      <trkpt lat="44.49795" lon="6.4567">
        <ele>1191.322544</ele>
        <time>2026-07-27T09:14:16.000Z</time>
      </trkpt>
      <trkpt lat="44.49795" lon="6.4567">
        <ele>1191.322544</ele>
        <time>2026-07-27T09:14:16.000Z</time>
      </trkpt>
      <trkpt lat="44.49792" lon="6.45671">
        <ele>1191.875852</ele>
        <time>2026-07-27T09:14:17.000Z</time>
      </trkpt>
      <trkpt lat="44.49792" lon="6.45671">
        <ele>1191.875852</ele>
        <time>2026-07-27T09:14:17.000Z</time>
      </trkpt>
      <trkpt lat="44.49789" lon="6.45673">
        <ele>1192.470952</ele>
        <time>2026-07-27T09:14:18.000Z</time>
      </trkpt>
      <trkpt lat="44.49789" lon="6.45673">
        <ele>1192.470952</ele>
        <time>2026-07-27T09:14:18.000Z</time>
      </trkpt>
      <trkpt lat="44.49786" lon="6.45675">
        <ele>1193.129897</ele>
        <time>2026-07-27T09:14:19.000Z</time>
      </trkpt>
      <trkpt lat="44.49786" lon="6.45675">
        <ele>1193.129897</ele>
        <time>2026-07-27T09:14:19.000Z</time>
      </trkpt>
      <trkpt lat="44.49783" lon="6.45677">
        <ele>1193.730365</ele>
        <time>2026-07-27T09:14:20.000Z</time>
      </trkpt>
      <trkpt lat="44.49783" lon="6.45677">
        <ele>1193.730365</ele>
        <time>2026-07-27T09:14:20.000Z</time>
      </trkpt>
      <trkpt lat="44.4978" lon="6.45679">
        <ele>1194.231426</ele>
        <time>2026-07-27T09:14:21.000Z</time>
      </trkpt>
      <trkpt lat="44.4978" lon="6.45679">
        <ele>1194.231426</ele>
        <time>2026-07-27T09:14:21.000Z</time>
      </trkpt>
      <trkpt lat="44.49778" lon="6.45681">
        <ele>1194.624523</ele>
        <time>2026-07-27T09:14:22.000Z</time>
      </trkpt>
      <trkpt lat="44.49778" lon="6.45681">
        <ele>1194.624523</ele>
        <time>2026-07-27T09:14:22.000Z</time>
      </trkpt>
      <trkpt lat="44.49776" lon="6.45682">
        <ele>1195.113969</ele>
        <time>2026-07-27T09:14:23.000Z</time>
      </trkpt>
      <trkpt lat="44.49776" lon="6.45682">
        <ele>1195.113969</ele>
        <time>2026-07-27T09:14:23.000Z</time>
      </trkpt>
      <trkpt lat="44.49773" lon="6.45683">
        <ele>1195.53426</ele>
        <time>2026-07-27T09:14:24.000Z</time>
      </trkpt>
      <trkpt lat="44.49773" lon="6.45683">
        <ele>1195.53426</ele>
        <time>2026-07-27T09:14:24.000Z</time>
      </trkpt>
      <trkpt lat="44.49772" lon="6.45683">
        <ele>1195.875019</ele>
        <time>2026-07-27T09:14:25.000Z</time>
      </trkpt>
      <trkpt lat="44.49772" lon="6.45683">
        <ele>1195.875019</ele>
        <time>2026-07-27T09:14:25.000Z</time>
      </trkpt>
      <trkpt lat="44.49769" lon="6.45684">
        <ele>1196.287819</ele>
        <time>2026-07-27T09:14:26.000Z</time>
      </trkpt>
      <trkpt lat="44.49769" lon="6.45684">
        <ele>1196.287819</ele>
        <time>2026-07-27T09:14:26.000Z</time>
      </trkpt>
      <trkpt lat="44.49768" lon="6.45684">
        <ele>1196.492911</ele>
        <time>2026-07-27T09:14:27.000Z</time>
      </trkpt>
      <trkpt lat="44.49766" lon="6.45685">
        <ele>1196.928167</ele>
        <time>2026-07-27T09:14:28.000Z</time>
      </trkpt>
      <trkpt lat="44.49766" lon="6.45685">
        <ele>1196.928167</ele>
        <time>2026-07-27T09:14:28.000Z</time>
      </trkpt>
      <trkpt lat="44.49764" lon="6.45686">
        <ele>1197.343093</ele>
        <time>2026-07-27T09:14:29.000Z</time>
      </trkpt>
      <trkpt lat="44.49764" lon="6.45686">
        <ele>1197.343093</ele>
        <time>2026-07-27T09:14:29.000Z</time>
      </trkpt>
      <trkpt lat="44.49762" lon="6.45687">
        <ele>1197.63247</ele>
        <time>2026-07-27T09:14:30.000Z</time>
      </trkpt>
      <trkpt lat="44.49762" lon="6.45687">
        <ele>1197.63247</ele>
        <time>2026-07-27T09:14:30.000Z</time>
      </trkpt>
      <trkpt lat="44.4976" lon="6.45688">
        <ele>1198.077183</ele>
        <time>2026-07-27T09:14:31.000Z</time>
      </trkpt>
      <trkpt lat="44.4976" lon="6.45688">
        <ele>1198.077183</ele>
        <time>2026-07-27T09:14:31.000Z</time>
      </trkpt>
      <trkpt lat="44.49758" lon="6.45689">
        <ele>1198.432879</ele>
        <time>2026-07-27T09:14:32.000Z</time>
      </trkpt>
      <trkpt lat="44.49758" lon="6.45689">
        <ele>1198.432879</ele>
        <time>2026-07-27T09:14:32.000Z</time>
      </trkpt>
      <trkpt lat="44.49756" lon="6.45689">
        <ele>1198.773638</ele>
        <time>2026-07-27T09:14:33.000Z</time>
      </trkpt>
      <trkpt lat="44.49756" lon="6.45689">
        <ele>1198.773638</ele>
        <time>2026-07-27T09:14:33.000Z</time>
      </trkpt>
      <trkpt lat="44.49754" lon="6.4569">
        <ele>1199.070908</ele>
        <time>2026-07-27T09:14:34.000Z</time>
      </trkpt>
      <trkpt lat="44.49754" lon="6.4569">
        <ele>1199.070908</ele>
        <time>2026-07-27T09:14:34.000Z</time>
      </trkpt>
      <trkpt lat="44.49752" lon="6.45691">
        <ele>1199.440504</ele>
        <time>2026-07-27T09:14:35.000Z</time>
      </trkpt>
      <trkpt lat="44.49752" lon="6.45691">
        <ele>1199.440504</ele>
        <time>2026-07-27T09:14:35.000Z</time>
      </trkpt>
      <trkpt lat="44.49751" lon="6.45693">
        <ele>1199.767284</ele>
        <time>2026-07-27T09:14:36.000Z</time>
      </trkpt>
      <trkpt lat="44.49751" lon="6.45693">
        <ele>1199.767284</ele>
        <time>2026-07-27T09:14:36.000Z</time>
      </trkpt>
      <trkpt lat="44.49749" lon="6.45694">
        <ele>1200.08005</ele>
        <time>2026-07-27T09:14:37.000Z</time>
      </trkpt>
      <trkpt lat="44.49749" lon="6.45694">
        <ele>1200.08005</ele>
        <time>2026-07-27T09:14:37.000Z</time>
      </trkpt>
      <trkpt lat="44.49748" lon="6.45695">
        <ele>1200.374634</ele>
        <time>2026-07-27T09:14:38.000Z</time>
      </trkpt>
      <trkpt lat="44.49748" lon="6.45695">
        <ele>1200.374634</ele>
        <time>2026-07-27T09:14:38.000Z</time>
      </trkpt>
      <trkpt lat="44.49746" lon="6.45696">
        <ele>1200.675915</ele>
        <time>2026-07-27T09:14:39.000Z</time>
      </trkpt>
      <trkpt lat="44.49746" lon="6.45696">
        <ele>1200.675915</ele>
        <time>2026-07-27T09:14:39.000Z</time>
      </trkpt>
      <trkpt lat="44.49745" lon="6.45697">
        <ele>1200.956303</ele>
        <time>2026-07-27T09:14:40.000Z</time>
      </trkpt>
      <trkpt lat="44.49745" lon="6.45697">
        <ele>1200.956303</ele>
        <time>2026-07-27T09:14:40.000Z</time>
      </trkpt>
      <trkpt lat="44.49744" lon="6.45697">
        <ele>1201.153032</ele>
        <time>2026-07-27T09:14:41.000Z</time>
      </trkpt>
      <trkpt lat="44.49744" lon="6.45697">
        <ele>1201.153032</ele>
        <time>2026-07-27T09:14:41.000Z</time>
      </trkpt>
      <trkpt lat="44.49744" lon="6.45697">
        <ele>1201.153032</ele>
        <time>2026-07-27T09:14:42.000Z</time>
      </trkpt>
      <trkpt lat="44.49744" lon="6.45697">
        <ele>1201.153032</ele>
        <time>2026-07-27T09:14:43.000Z</time>
      </trkpt>
      <trkpt lat="44.49742" lon="6.45696">
        <ele>1201.469089</ele>
        <time>2026-07-27T09:14:44.000Z</time>
      </trkpt>
      <trkpt lat="44.49742" lon="6.45696">
        <ele>1201.469089</ele>
        <time>2026-07-27T09:14:44.000Z</time>
      </trkpt>
      <trkpt lat="44.49743" lon="6.45696">
        <ele>1201.540032</ele>
        <time>2026-07-27T09:14:45.000Z</time>
      </trkpt>
      <trkpt lat="44.49743" lon="6.45696">
        <ele>1201.552683</ele>
        <time>2026-07-27T09:14:46.000Z</time>
      </trkpt>
      <trkpt lat="44.49744" lon="6.45695">
        <ele>1201.794054</ele>
        <time>2026-07-27T09:14:47.000Z</time>
      </trkpt>
      <trkpt lat="44.49744" lon="6.45693">
        <ele>1202.000112</ele>
        <time>2026-07-27T09:14:48.000Z</time>
      </trkpt>
      <trkpt lat="44.49744" lon="6.45693">
        <ele>1202.000112</ele>
        <time>2026-07-27T09:14:48.000Z</time>
      </trkpt>
      <trkpt lat="44.49746" lon="6.45692">
        <ele>1202.321158</ele>
        <time>2026-07-27T09:14:49.000Z</time>
      </trkpt>
      <trkpt lat="44.49746" lon="6.45692">
        <ele>1202.321158</ele>
        <time>2026-07-27T09:14:49.000Z</time>
      </trkpt>
      <trkpt lat="44.49746" lon="6.45689">
        <ele>1202.637503</ele>
        <time>2026-07-27T09:14:50.000Z</time>
      </trkpt>
      <trkpt lat="44.49746" lon="6.45689">
        <ele>1202.637503</ele>
        <time>2026-07-27T09:14:50.000Z</time>
      </trkpt>
      <trkpt lat="44.49748" lon="6.45687">
        <ele>1203.026225</ele>
        <time>2026-07-27T09:14:51.000Z</time>
      </trkpt>
      <trkpt lat="44.49748" lon="6.45687">
        <ele>1203.026225</ele>
        <time>2026-07-27T09:14:51.000Z</time>
      </trkpt>
      <trkpt lat="44.49749" lon="6.45685">
        <ele>1203.319466</ele>
        <time>2026-07-27T09:14:52.000Z</time>
      </trkpt>
      <trkpt lat="44.49749" lon="6.45685">
        <ele>1203.319466</ele>
        <time>2026-07-27T09:14:52.000Z</time>
      </trkpt>
      <trkpt lat="44.4975" lon="6.45682">
        <ele>1203.742506</ele>
        <time>2026-07-27T09:14:53.000Z</time>
      </trkpt>
      <trkpt lat="44.4975" lon="6.45682">
        <ele>1203.742506</ele>
        <time>2026-07-27T09:14:53.000Z</time>
      </trkpt>
      <trkpt lat="44.49751" lon="6.4568">
        <ele>1204.07313</ele>
        <time>2026-07-27T09:14:54.000Z</time>
      </trkpt>
      <trkpt lat="44.49751" lon="6.4568">
        <ele>1204.07313</ele>
        <time>2026-07-27T09:14:54.000Z</time>
      </trkpt>
      <trkpt lat="44.49752" lon="6.45678">
        <ele>1204.401147</ele>
        <time>2026-07-27T09:14:55.000Z</time>
      </trkpt>
      <trkpt lat="44.49752" lon="6.45678">
        <ele>1204.401147</ele>
        <time>2026-07-27T09:14:55.000Z</time>
      </trkpt>
      <trkpt lat="44.49753" lon="6.45675">
        <ele>1204.794498</ele>
        <time>2026-07-27T09:14:56.000Z</time>
      </trkpt>
      <trkpt lat="44.49753" lon="6.45675">
        <ele>1204.794498</ele>
        <time>2026-07-27T09:14:56.000Z</time>
      </trkpt>
      <trkpt lat="44.49754" lon="6.45673">
        <ele>1205.12963</ele>
        <time>2026-07-27T09:14:57.000Z</time>
      </trkpt>
      <trkpt lat="44.49754" lon="6.45673">
        <ele>1205.12963</ele>
        <time>2026-07-27T09:14:57.000Z</time>
      </trkpt>
      <trkpt lat="44.49754" lon="6.4567">
        <ele>1205.445896</ele>
        <time>2026-07-27T09:14:58.000Z</time>
      </trkpt>
      <trkpt lat="44.49754" lon="6.4567">
        <ele>1205.445896</ele>
        <time>2026-07-27T09:14:58.000Z</time>
      </trkpt>
      <trkpt lat="44.49754" lon="6.45668">
        <ele>1205.745385</ele>
        <time>2026-07-27T09:14:59.000Z</time>
      </trkpt>
      <trkpt lat="44.49754" lon="6.45668">
        <ele>1205.745385</ele>
        <time>2026-07-27T09:14:59.000Z</time>
      </trkpt>
      <trkpt lat="44.49755" lon="6.45665">
        <ele>1206.085146</ele>
        <time>2026-07-27T09:14:59.000Z</time>
      </trkpt>
      <trkpt lat="44.49755" lon="6.45665">
        <ele>1206.085146</ele>
        <time>2026-07-27T09:14:59.000Z</time>
      </trkpt>
      <trkpt lat="44.49756" lon="6.45664">
        <ele>1206.387714</ele>
        <time>2026-07-27T09:15:01.000Z</time>
      </trkpt>
      <trkpt lat="44.49756" lon="6.45664">
        <ele>1206.387714</ele>
        <time>2026-07-27T09:15:01.000Z</time>
      </trkpt>
      <trkpt lat="44.49757" lon="6.45662">
        <ele>1206.746253</ele>
        <time>2026-07-27T09:15:01.000Z</time>
      </trkpt>
      <trkpt lat="44.49757" lon="6.45662">
        <ele>1206.746253</ele>
        <time>2026-07-27T09:15:01.000Z</time>
      </trkpt>
      <trkpt lat="44.49759" lon="6.4566">
        <ele>1207.03662</ele>
        <time>2026-07-27T09:15:03.000Z</time>
      </trkpt>
      <trkpt lat="44.49759" lon="6.4566">
        <ele>1207.03662</ele>
        <time>2026-07-27T09:15:03.000Z</time>
      </trkpt>
      <trkpt lat="44.49761" lon="6.45658">
        <ele>1207.552785</ele>
        <time>2026-07-27T09:15:03.000Z</time>
      </trkpt>
      <trkpt lat="44.49761" lon="6.45658">
        <ele>1207.552785</ele>
        <time>2026-07-27T09:15:03.000Z</time>
      </trkpt>
      <trkpt lat="44.49763" lon="6.45656">
        <ele>1207.974177</ele>
        <time>2026-07-27T09:15:05.000Z</time>
      </trkpt>
      <trkpt lat="44.49763" lon="6.45656">
        <ele>1207.974177</ele>
        <time>2026-07-27T09:15:05.000Z</time>
      </trkpt>
      <trkpt lat="44.49765" lon="6.45654">
        <ele>1208.343774</ele>
        <time>2026-07-27T09:15:05.000Z</time>
      </trkpt>
      <trkpt lat="44.49765" lon="6.45654">
        <ele>1208.343774</ele>
        <time>2026-07-27T09:15:05.000Z</time>
      </trkpt>
      <trkpt lat="44.49767" lon="6.45653">
        <ele>1208.87958</ele>
        <time>2026-07-27T09:15:07.000Z</time>
      </trkpt>
      <trkpt lat="44.49767" lon="6.45653">
        <ele>1208.87958</ele>
        <time>2026-07-27T09:15:07.000Z</time>
      </trkpt>
      <trkpt lat="44.49769" lon="6.4565">
        <ele>1209.316632</ele>
        <time>2026-07-27T09:15:07.000Z</time>
      </trkpt>
      <trkpt lat="44.49769" lon="6.4565">
        <ele>1209.316632</ele>
        <time>2026-07-27T09:15:07.000Z</time>
      </trkpt>
      <trkpt lat="44.49772" lon="6.45648">
        <ele>1209.803437</ele>
        <time>2026-07-27T09:15:09.000Z</time>
      </trkpt>
      <trkpt lat="44.49772" lon="6.45648">
        <ele>1209.803437</ele>
        <time>2026-07-27T09:15:09.000Z</time>
      </trkpt>
      <trkpt lat="44.49773" lon="6.45646">
        <ele>1210.161975</ele>
        <time>2026-07-27T09:15:09.000Z</time>
      </trkpt>
      <trkpt lat="44.49773" lon="6.45646">
        <ele>1210.161975</ele>
        <time>2026-07-27T09:15:09.000Z</time>
      </trkpt>
      <trkpt lat="44.49775" lon="6.45644">
        <ele>1210.591082</ele>
        <time>2026-07-27T09:15:11.000Z</time>
      </trkpt>
      <trkpt lat="44.49775" lon="6.45644">
        <ele>1210.591082</ele>
        <time>2026-07-27T09:15:11.000Z</time>
      </trkpt>
      <trkpt lat="44.49777" lon="6.45642">
        <ele>1210.979802</ele>
        <time>2026-07-27T09:15:12.000Z</time>
      </trkpt>
      <trkpt lat="44.49777" lon="6.45642">
        <ele>1210.979802</ele>
        <time>2026-07-27T09:15:12.000Z</time>
      </trkpt>
      <trkpt lat="44.49779" lon="6.45638">
        <ele>1211.589178</ele>
        <time>2026-07-27T09:15:13.000Z</time>
      </trkpt>
      <trkpt lat="44.49779" lon="6.45638">
        <ele>1211.589178</ele>
        <time>2026-07-27T09:15:13.000Z</time>
      </trkpt>
      <trkpt lat="44.49781" lon="6.45635">
        <ele>1212.136996</ele>
        <time>2026-07-27T09:15:14.000Z</time>
      </trkpt>
      <trkpt lat="44.49782" lon="6.45632">
        <ele>1212.597801</ele>
        <time>2026-07-27T09:15:15.000Z</time>
      </trkpt>
      <trkpt lat="44.49783" lon="6.45628">
        <ele>1213.15833</ele>
        <time>2026-07-27T09:15:16.000Z</time>
      </trkpt>
      <trkpt lat="44.49783" lon="6.45628">
        <ele>1213.15833</ele>
        <time>2026-07-27T09:15:16.000Z</time>
      </trkpt>
      <trkpt lat="44.49785" lon="6.45624">
        <ele>1213.763875</ele>
        <time>2026-07-27T09:15:17.000Z</time>
      </trkpt>
      <trkpt lat="44.49785" lon="6.45624">
        <ele>1213.763875</ele>
        <time>2026-07-27T09:15:17.000Z</time>
      </trkpt>
      <trkpt lat="44.49786" lon="6.4562">
        <ele>1214.312833</ele>
        <time>2026-07-27T09:15:18.000Z</time>
      </trkpt>
      <trkpt lat="44.49786" lon="6.4562">
        <ele>1214.312833</ele>
        <time>2026-07-27T09:15:18.000Z</time>
      </trkpt>
      <trkpt lat="44.49788" lon="6.45615">
        <ele>1214.941204</ele>
        <time>2026-07-27T09:15:19.000Z</time>
      </trkpt>
      <trkpt lat="44.49788" lon="6.45615">
        <ele>1214.941204</ele>
        <time>2026-07-27T09:15:19.000Z</time>
      </trkpt>
      <trkpt lat="44.49789" lon="6.45612">
        <ele>1215.305696</ele>
        <time>2026-07-27T09:15:20.000Z</time>
      </trkpt>
      <trkpt lat="44.49789" lon="6.45612">
        <ele>1215.305696</ele>
        <time>2026-07-27T09:15:20.000Z</time>
      </trkpt>
      <trkpt lat="44.49791" lon="6.45608">
        <ele>1215.796383</ele>
        <time>2026-07-27T09:15:21.000Z</time>
      </trkpt>
      <trkpt lat="44.49791" lon="6.45608">
        <ele>1215.796383</ele>
        <time>2026-07-27T09:15:21.000Z</time>
      </trkpt>
      <trkpt lat="44.49793" lon="6.45605">
        <ele>1216.15414</ele>
        <time>2026-07-27T09:15:22.000Z</time>
      </trkpt>
      <trkpt lat="44.49793" lon="6.45605">
        <ele>1216.15414</ele>
        <time>2026-07-27T09:15:22.000Z</time>
      </trkpt>
      <trkpt lat="44.49794" lon="6.45601">
        <ele>1216.527857</ele>
        <time>2026-07-27T09:15:23.000Z</time>
      </trkpt>
      <trkpt lat="44.49794" lon="6.45601">
        <ele>1216.527857</ele>
        <time>2026-07-27T09:15:23.000Z</time>
      </trkpt>
      <trkpt lat="44.49796" lon="6.45598">
        <ele>1216.893557</ele>
        <time>2026-07-27T09:15:24.000Z</time>
      </trkpt>
      <trkpt lat="44.49796" lon="6.45598">
        <ele>1216.893557</ele>
        <time>2026-07-27T09:15:24.000Z</time>
      </trkpt>
      <trkpt lat="44.49797" lon="6.45595">
        <ele>1217.282572</ele>
        <time>2026-07-27T09:15:25.000Z</time>
      </trkpt>
      <trkpt lat="44.49797" lon="6.45595">
        <ele>1217.282572</ele>
        <time>2026-07-27T09:15:25.000Z</time>
      </trkpt>
      <trkpt lat="44.49799" lon="6.45592">
        <ele>1217.632467</ele>
        <time>2026-07-27T09:15:26.000Z</time>
      </trkpt>
      <trkpt lat="44.49799" lon="6.45592">
        <ele>1217.632467</ele>
        <time>2026-07-27T09:15:26.000Z</time>
      </trkpt>
      <trkpt lat="44.49801" lon="6.45589">
        <ele>1218.053093</ele>
        <time>2026-07-27T09:15:27.000Z</time>
      </trkpt>
      <trkpt lat="44.49801" lon="6.45589">
        <ele>1218.053093</ele>
        <time>2026-07-27T09:15:27.000Z</time>
      </trkpt>
      <trkpt lat="44.49803" lon="6.45586">
        <ele>1218.442764</ele>
        <time>2026-07-27T09:15:28.000Z</time>
      </trkpt>
      <trkpt lat="44.49803" lon="6.45586">
        <ele>1218.442764</ele>
        <time>2026-07-27T09:15:28.000Z</time>
      </trkpt>
      <trkpt lat="44.49806" lon="6.45584">
        <ele>1218.826658</ele>
        <time>2026-07-27T09:15:29.000Z</time>
      </trkpt>
      <trkpt lat="44.49806" lon="6.45584">
        <ele>1218.826658</ele>
        <time>2026-07-27T09:15:29.000Z</time>
      </trkpt>
      <trkpt lat="44.49807" lon="6.45582">
        <ele>1219.144782</ele>
        <time>2026-07-27T09:15:30.000Z</time>
      </trkpt>
      <trkpt lat="44.49807" lon="6.45582">
        <ele>1219.144782</ele>
        <time>2026-07-27T09:15:30.000Z</time>
      </trkpt>
      <trkpt lat="44.49809" lon="6.4558">
        <ele>1219.415455</ele>
        <time>2026-07-27T09:15:31.000Z</time>
      </trkpt>
      <trkpt lat="44.49809" lon="6.4558">
        <ele>1219.415455</ele>
        <time>2026-07-27T09:15:31.000Z</time>
      </trkpt>
      <trkpt lat="44.4981" lon="6.45578">
        <ele>1219.649162</ele>
        <time>2026-07-27T09:15:32.000Z</time>
      </trkpt>
      <trkpt lat="44.4981" lon="6.45578">
        <ele>1219.649162</ele>
        <time>2026-07-27T09:15:32.000Z</time>
      </trkpt>
      <trkpt lat="44.49812" lon="6.45575">
        <ele>1220.063342</ele>
        <time>2026-07-27T09:15:32.000Z</time>
      </trkpt>
      <trkpt lat="44.49812" lon="6.45575">
        <ele>1220.063342</ele>
        <time>2026-07-27T09:15:32.000Z</time>
      </trkpt>
      <trkpt lat="44.49815" lon="6.45572">
        <ele>1220.503983</ele>
        <time>2026-07-27T09:15:34.000Z</time>
      </trkpt>
      <trkpt lat="44.49815" lon="6.45572">
        <ele>1220.503983</ele>
        <time>2026-07-27T09:15:34.000Z</time>
      </trkpt>
      <trkpt lat="44.49817" lon="6.45568">
        <ele>1220.972707</ele>
        <time>2026-07-27T09:15:34.000Z</time>
      </trkpt>
      <trkpt lat="44.49817" lon="6.45568">
        <ele>1220.972707</ele>
        <time>2026-07-27T09:15:34.000Z</time>
      </trkpt>
      <trkpt lat="44.49819" lon="6.45565">
        <ele>1221.40812</ele>
        <time>2026-07-27T09:15:36.000Z</time>
      </trkpt>
      <trkpt lat="44.49819" lon="6.45565">
        <ele>1221.40812</ele>
        <time>2026-07-27T09:15:36.000Z</time>
      </trkpt>
      <trkpt lat="44.49821" lon="6.45561">
        <ele>1221.813145</ele>
        <time>2026-07-27T09:15:37.000Z</time>
      </trkpt>
      <trkpt lat="44.49821" lon="6.45561">
        <ele>1221.813145</ele>
        <time>2026-07-27T09:15:37.000Z</time>
      </trkpt>
      <trkpt lat="44.49823" lon="6.45558">
        <ele>1222.196299</ele>
        <time>2026-07-27T09:15:38.000Z</time>
      </trkpt>
      <trkpt lat="44.49823" lon="6.45558">
        <ele>1222.196299</ele>
        <time>2026-07-27T09:15:38.000Z</time>
      </trkpt>
      <trkpt lat="44.49825" lon="6.45555">
        <ele>1222.63694</ele>
        <time>2026-07-27T09:15:39.000Z</time>
      </trkpt>
      <trkpt lat="44.49825" lon="6.45555">
        <ele>1222.63694</ele>
        <time>2026-07-27T09:15:39.000Z</time>
      </trkpt>
      <trkpt lat="44.49827" lon="6.45551">
        <ele>1223.072352</ele>
        <time>2026-07-27T09:15:40.000Z</time>
      </trkpt>
      <trkpt lat="44.49827" lon="6.45551">
        <ele>1223.072352</ele>
        <time>2026-07-27T09:15:40.000Z</time>
      </trkpt>
      <trkpt lat="44.49828" lon="6.45547">
        <ele>1223.520938</ele>
        <time>2026-07-27T09:15:41.000Z</time>
      </trkpt>
      <trkpt lat="44.49828" lon="6.45547">
        <ele>1223.520938</ele>
        <time>2026-07-27T09:15:41.000Z</time>
      </trkpt>
      <trkpt lat="44.4983" lon="6.45543">
        <ele>1223.967275</ele>
        <time>2026-07-27T09:15:42.000Z</time>
      </trkpt>
      <trkpt lat="44.4983" lon="6.45543">
        <ele>1223.967275</ele>
        <time>2026-07-27T09:15:42.000Z</time>
      </trkpt>
      <trkpt lat="44.49831" lon="6.45539">
        <ele>1224.388498</ele>
        <time>2026-07-27T09:15:43.000Z</time>
      </trkpt>
      <trkpt lat="44.49831" lon="6.45539">
        <ele>1224.388498</ele>
        <time>2026-07-27T09:15:43.000Z</time>
      </trkpt>
      <trkpt lat="44.49831" lon="6.45535">
        <ele>1224.770511</ele>
        <time>2026-07-27T09:15:44.000Z</time>
      </trkpt>
      <trkpt lat="44.49831" lon="6.45535">
        <ele>1224.770511</ele>
        <time>2026-07-27T09:15:44.000Z</time>
      </trkpt>
      <trkpt lat="44.4983" lon="6.45532">
        <ele>1225.061983</ele>
        <time>2026-07-27T09:15:45.000Z</time>
      </trkpt>
      <trkpt lat="44.4983" lon="6.45532">
        <ele>1225.061983</ele>
        <time>2026-07-27T09:15:45.000Z</time>
      </trkpt>
      <trkpt lat="44.4983" lon="6.45529">
        <ele>1225.285283</ele>
        <time>2026-07-27T09:15:46.000Z</time>
      </trkpt>
      <trkpt lat="44.4983" lon="6.45529">
        <ele>1225.285283</ele>
        <time>2026-07-27T09:15:46.000Z</time>
      </trkpt>
      <trkpt lat="44.4983" lon="6.45529">
        <ele>1225.285283</ele>
        <time>2026-07-27T09:15:47.000Z</time>
      </trkpt>
      <trkpt lat="44.49828" lon="6.45528">
        <ele>1225.516114</ele>
        <time>2026-07-27T09:15:48.000Z</time>
      </trkpt>
      <trkpt lat="44.49828" lon="6.45528">
        <ele>1225.516114</ele>
        <time>2026-07-27T09:15:48.000Z</time>
      </trkpt>
      <trkpt lat="44.49828" lon="6.45529">
        <ele>1225.578513</ele>
        <time>2026-07-27T09:15:49.000Z</time>
      </trkpt>
      <trkpt lat="44.49828" lon="6.4553">
        <ele>1225.664173</ele>
        <time>2026-07-27T09:15:50.000Z</time>
      </trkpt>
      <trkpt lat="44.49827" lon="6.45532">
        <ele>1225.952238</ele>
        <time>2026-07-27T09:15:52.000Z</time>
      </trkpt>
      <trkpt lat="44.49827" lon="6.45532">
        <ele>1225.952238</ele>
        <time>2026-07-27T09:15:52.000Z</time>
      </trkpt>
      <trkpt lat="44.49827" lon="6.45532">
        <ele>1225.952238</ele>
        <time>2026-07-27T09:15:53.000Z</time>
      </trkpt>
      <trkpt lat="44.49825" lon="6.45532">
        <ele>1226.211081</ele>
        <time>2026-07-27T09:15:53.000Z</time>
      </trkpt>
      <trkpt lat="44.49825" lon="6.45532">
        <ele>1226.211081</ele>
        <time>2026-07-27T09:15:53.000Z</time>
      </trkpt>
      <trkpt lat="44.49825" lon="6.45532">
        <ele>1226.211081</ele>
        <time>2026-07-27T09:15:55.000Z</time>
      </trkpt>
      <trkpt lat="44.49825" lon="6.45532">
        <ele>1226.211081</ele>
        <time>2026-07-27T09:15:56.000Z</time>
      </trkpt>
      <trkpt lat="44.49825" lon="6.45532">
        <ele>1226.211081</ele>
        <time>2026-07-27T09:17:03.000Z</time>
      </trkpt>
      <trkpt lat="44.49825" lon="6.45532">
        <ele>1226.211081</ele>
        <time>2026-07-27T09:17:04.000Z</time>
      </trkpt>
      <trkpt lat="44.49826" lon="6.45528">
        <ele>1226.571192</ele>
        <time>2026-07-27T09:17:05.000Z</time>
      </trkpt>
      <trkpt lat="44.49824" lon="6.45527">
        <ele>1226.818799</ele>
        <time>2026-07-27T09:17:06.000Z</time>
      </trkpt>
      <trkpt lat="44.49824" lon="6.45525">
        <ele>1227.032711</ele>
        <time>2026-07-27T09:17:06.000Z</time>
      </trkpt>
      <trkpt lat="44.49823" lon="6.45522">
        <ele>1227.377985</ele>
        <time>2026-07-27T09:17:08.000Z</time>
      </trkpt>
      <trkpt lat="44.49823" lon="6.45522">
        <ele>1227.377985</ele>
        <time>2026-07-27T09:17:08.000Z</time>
      </trkpt>
      <trkpt lat="44.49822" lon="6.45518">
        <ele>1227.762059</ele>
        <time>2026-07-27T09:17:09.000Z</time>
      </trkpt>
      <trkpt lat="44.49821" lon="6.45515">
        <ele>1228.098909</ele>
        <time>2026-07-27T09:17:10.000Z</time>
      </trkpt>
      <trkpt lat="44.49819" lon="6.45511">
        <ele>1228.530501</ele>
        <time>2026-07-27T09:17:11.000Z</time>
      </trkpt>
      <trkpt lat="44.49819" lon="6.45511">
        <ele>1228.530501</ele>
        <time>2026-07-27T09:17:11.000Z</time>
      </trkpt>
      <trkpt lat="44.49818" lon="6.45508">
        <ele>1228.850692</ele>
        <time>2026-07-27T09:17:12.000Z</time>
      </trkpt>
      <trkpt lat="44.49816" lon="6.45506">
        <ele>1229.17464</ele>
        <time>2026-07-27T09:17:13.000Z</time>
      </trkpt>
      <trkpt lat="44.49816" lon="6.45506">
        <ele>1229.17464</ele>
        <time>2026-07-27T09:17:13.000Z</time>
      </trkpt>
      <trkpt lat="44.49815" lon="6.45504">
        <ele>1229.445313</ele>
        <time>2026-07-27T09:17:14.000Z</time>
      </trkpt>
      <trkpt lat="44.49813" lon="6.45502">
        <ele>1229.735972</ele>
        <time>2026-07-27T09:17:15.000Z</time>
      </trkpt>
      <trkpt lat="44.49813" lon="6.45502">
        <ele>1229.735972</ele>
        <time>2026-07-27T09:17:15.000Z</time>
      </trkpt>
      <trkpt lat="44.49812" lon="6.455">
        <ele>1229.985571</ele>
        <time>2026-07-27T09:17:16.000Z</time>
      </trkpt>
      <trkpt lat="44.49812" lon="6.455">
        <ele>1229.985571</ele>
        <time>2026-07-27T09:17:16.000Z</time>
      </trkpt>
      <trkpt lat="44.4981" lon="6.45497">
        <ele>1230.309519</ele>
        <time>2026-07-27T09:17:17.000Z</time>
      </trkpt>
      <trkpt lat="44.4981" lon="6.45497">
        <ele>1230.309519</ele>
        <time>2026-07-27T09:17:17.000Z</time>
      </trkpt>
      <trkpt lat="44.49809" lon="6.45495">
        <ele>1230.628885</ele>
        <time>2026-07-27T09:17:18.000Z</time>
      </trkpt>
      <trkpt lat="44.49807" lon="6.45492">
        <ele>1230.971311</ele>
        <time>2026-07-27T09:17:19.000Z</time>
      </trkpt>
      <trkpt lat="44.49807" lon="6.45492">
        <ele>1230.971311</ele>
        <time>2026-07-27T09:17:19.000Z</time>
      </trkpt>
      <trkpt lat="44.49805" lon="6.4549">
        <ele>1231.305744</ele>
        <time>2026-07-27T09:17:20.000Z</time>
      </trkpt>
      <trkpt lat="44.49805" lon="6.4549">
        <ele>1231.305744</ele>
        <time>2026-07-27T09:17:20.000Z</time>
      </trkpt>
      <trkpt lat="44.49804" lon="6.45487">
        <ele>1231.663492</ele>
        <time>2026-07-27T09:17:21.000Z</time>
      </trkpt>
      <trkpt lat="44.49803" lon="6.45484">
        <ele>1231.946852</ele>
        <time>2026-07-27T09:17:22.000Z</time>
      </trkpt>
      <trkpt lat="44.49803" lon="6.45484">
        <ele>1231.946852</ele>
        <time>2026-07-27T09:17:22.000Z</time>
      </trkpt>
      <trkpt lat="44.49802" lon="6.45482">
        <ele>1232.191236</ele>
        <time>2026-07-27T09:17:23.000Z</time>
      </trkpt>
      <trkpt lat="44.49802" lon="6.45482">
        <ele>1232.191236</ele>
        <time>2026-07-27T09:17:23.000Z</time>
      </trkpt>
      <trkpt lat="44.49801" lon="6.45479">
        <ele>1232.447825</ele>
        <time>2026-07-27T09:17:24.000Z</time>
      </trkpt>
      <trkpt lat="44.498" lon="6.45477">
        <ele>1232.735891</ele>
        <time>2026-07-27T09:17:25.000Z</time>
      </trkpt>
      <trkpt lat="44.498" lon="6.45477">
        <ele>1232.735891</ele>
        <time>2026-07-27T09:17:25.000Z</time>
      </trkpt>
      <trkpt lat="44.49799" lon="6.45474">
        <ele>1233.016423</ele>
        <time>2026-07-27T09:17:25.000Z</time>
      </trkpt>
      <trkpt lat="44.49799" lon="6.45474">
        <ele>1233.016423</ele>
        <time>2026-07-27T09:17:25.000Z</time>
      </trkpt>
      <trkpt lat="44.49797" lon="6.45472">
        <ele>1233.30344</ele>
        <time>2026-07-27T09:17:27.000Z</time>
      </trkpt>
      <trkpt lat="44.49797" lon="6.45472">
        <ele>1233.30344</ele>
        <time>2026-07-27T09:17:27.000Z</time>
      </trkpt>
      <trkpt lat="44.49796" lon="6.4547">
        <ele>1233.587273</ele>
        <time>2026-07-27T09:17:28.000Z</time>
      </trkpt>
      <trkpt lat="44.49796" lon="6.4547">
        <ele>1233.587273</ele>
        <time>2026-07-27T09:17:28.000Z</time>
      </trkpt>
      <trkpt lat="44.49794" lon="6.45469">
        <ele>1233.874668</ele>
        <time>2026-07-27T09:17:29.000Z</time>
      </trkpt>
      <trkpt lat="44.49794" lon="6.45469">
        <ele>1233.874668</ele>
        <time>2026-07-27T09:17:29.000Z</time>
      </trkpt>
      <trkpt lat="44.49793" lon="6.45468">
        <ele>1234.023186</ele>
        <time>2026-07-27T09:17:30.000Z</time>
      </trkpt>
      <trkpt lat="44.49793" lon="6.45468">
        <ele>1234.023186</ele>
        <time>2026-07-27T09:17:30.000Z</time>
      </trkpt>
      <trkpt lat="44.49791" lon="6.45469">
        <ele>1234.279194</ele>
        <time>2026-07-27T09:17:31.000Z</time>
      </trkpt>
      <trkpt lat="44.49791" lon="6.45469">
        <ele>1234.279194</ele>
        <time>2026-07-27T09:17:31.000Z</time>
      </trkpt>
      <trkpt lat="44.4979" lon="6.4547">
        <ele>1234.471163</ele>
        <time>2026-07-27T09:17:32.000Z</time>
      </trkpt>
      <trkpt lat="44.4979" lon="6.4547">
        <ele>1234.471163</ele>
        <time>2026-07-27T09:17:32.000Z</time>
      </trkpt>
      <trkpt lat="44.49789" lon="6.45471">
        <ele>1234.615197</ele>
        <time>2026-07-27T09:17:33.000Z</time>
      </trkpt>
      <trkpt lat="44.49789" lon="6.45471">
        <ele>1234.615197</ele>
        <time>2026-07-27T09:17:33.000Z</time>
      </trkpt>
      <trkpt lat="44.49789" lon="6.45474">
        <ele>1234.87856</ele>
        <time>2026-07-27T09:17:34.000Z</time>
      </trkpt>
      <trkpt lat="44.49789" lon="6.45474">
        <ele>1234.87856</ele>
        <time>2026-07-27T09:17:34.000Z</time>
      </trkpt>
      <trkpt lat="44.49789" lon="6.45477">
        <ele>1235.179427</ele>
        <time>2026-07-27T09:17:35.000Z</time>
      </trkpt>
      <trkpt lat="44.49789" lon="6.45477">
        <ele>1235.179427</ele>
        <time>2026-07-27T09:17:35.000Z</time>
      </trkpt>
      <trkpt lat="44.49789" lon="6.45479">
        <ele>1235.408636</ele>
        <time>2026-07-27T09:17:36.000Z</time>
      </trkpt>
      <trkpt lat="44.49789" lon="6.45479">
        <ele>1235.408636</ele>
        <time>2026-07-27T09:17:36.000Z</time>
      </trkpt>
      <trkpt lat="44.49789" lon="6.45482">
        <ele>1235.666497</ele>
        <time>2026-07-27T09:17:37.000Z</time>
      </trkpt>
      <trkpt lat="44.49789" lon="6.45482">
        <ele>1235.666497</ele>
        <time>2026-07-27T09:17:37.000Z</time>
      </trkpt>
      <trkpt lat="44.4979" lon="6.45485">
        <ele>1235.92986</ele>
        <time>2026-07-27T09:17:38.000Z</time>
      </trkpt>
      <trkpt lat="44.4979" lon="6.45485">
        <ele>1235.92986</ele>
        <time>2026-07-27T09:17:38.000Z</time>
      </trkpt>
      <trkpt lat="44.4979" lon="6.45488">
        <ele>1236.216372</ele>
        <time>2026-07-27T09:17:39.000Z</time>
      </trkpt>
      <trkpt lat="44.4979" lon="6.45488">
        <ele>1236.216372</ele>
        <time>2026-07-27T09:17:39.000Z</time>
      </trkpt>
      <trkpt lat="44.4979" lon="6.45491">
        <ele>1236.560185</ele>
        <time>2026-07-27T09:17:40.000Z</time>
      </trkpt>
      <trkpt lat="44.4979" lon="6.45491">
        <ele>1236.560185</ele>
        <time>2026-07-27T09:17:40.000Z</time>
      </trkpt>
      <trkpt lat="44.4979" lon="6.45495">
        <ele>1236.865797</ele>
        <time>2026-07-27T09:17:41.000Z</time>
      </trkpt>
      <trkpt lat="44.4979" lon="6.45495">
        <ele>1236.865797</ele>
        <time>2026-07-27T09:17:41.000Z</time>
      </trkpt>
      <trkpt lat="44.4979" lon="6.45497">
        <ele>1237.085456</ele>
        <time>2026-07-27T09:17:42.000Z</time>
      </trkpt>
      <trkpt lat="44.4979" lon="6.45497">
        <ele>1237.085456</ele>
        <time>2026-07-27T09:17:42.000Z</time>
      </trkpt>
      <trkpt lat="44.4979" lon="6.455">
        <ele>1237.34882</ele>
        <time>2026-07-27T09:17:43.000Z</time>
      </trkpt>
      <trkpt lat="44.4979" lon="6.455">
        <ele>1237.34882</ele>
        <time>2026-07-27T09:17:43.000Z</time>
      </trkpt>
      <trkpt lat="44.49791" lon="6.45502">
        <ele>1237.645773</ele>
        <time>2026-07-27T09:17:44.000Z</time>
      </trkpt>
      <trkpt lat="44.49791" lon="6.45502">
        <ele>1237.645773</ele>
        <time>2026-07-27T09:17:44.000Z</time>
      </trkpt>
      <trkpt lat="44.49791" lon="6.45505">
        <ele>1237.897311</ele>
        <time>2026-07-27T09:17:45.000Z</time>
      </trkpt>
      <trkpt lat="44.49791" lon="6.45505">
        <ele>1237.897311</ele>
        <time>2026-07-27T09:17:45.000Z</time>
      </trkpt>
      <trkpt lat="44.49791" lon="6.45508">
        <ele>1238.193372</ele>
        <time>2026-07-27T09:17:46.000Z</time>
      </trkpt>
      <trkpt lat="44.49791" lon="6.45508">
        <ele>1238.193372</ele>
        <time>2026-07-27T09:17:46.000Z</time>
      </trkpt>
      <trkpt lat="44.49792" lon="6.45511">
        <ele>1238.513053</ele>
        <time>2026-07-27T09:17:47.000Z</time>
      </trkpt>
      <trkpt lat="44.49792" lon="6.45511">
        <ele>1238.513053</ele>
        <time>2026-07-27T09:17:47.000Z</time>
      </trkpt>
      <trkpt lat="44.49792" lon="6.45515">
        <ele>1238.847316</ele>
        <time>2026-07-27T09:17:48.000Z</time>
      </trkpt>
      <trkpt lat="44.49792" lon="6.45515">
        <ele>1238.847316</ele>
        <time>2026-07-27T09:17:48.000Z</time>
      </trkpt>
      <trkpt lat="44.49792" lon="6.45518">
        <ele>1239.210351</ele>
        <time>2026-07-27T09:17:49.000Z</time>
      </trkpt>
      <trkpt lat="44.49792" lon="6.45518">
        <ele>1239.210351</ele>
        <time>2026-07-27T09:17:49.000Z</time>
      </trkpt>
      <trkpt lat="44.49791" lon="6.45522">
        <ele>1239.587343</ele>
        <time>2026-07-27T09:17:50.000Z</time>
      </trkpt>
      <trkpt lat="44.49791" lon="6.45522">
        <ele>1239.587343</ele>
        <time>2026-07-27T09:17:50.000Z</time>
      </trkpt>
      <trkpt lat="44.49791" lon="6.45525">
        <ele>1239.994214</ele>
        <time>2026-07-27T09:17:51.000Z</time>
      </trkpt>
      <trkpt lat="44.49791" lon="6.45525">
        <ele>1239.994214</ele>
        <time>2026-07-27T09:17:51.000Z</time>
      </trkpt>
      <trkpt lat="44.49791" lon="6.45528">
        <ele>1240.356729</ele>
        <time>2026-07-27T09:17:52.000Z</time>
      </trkpt>
      <trkpt lat="44.49791" lon="6.45528">
        <ele>1240.356729</ele>
        <time>2026-07-27T09:17:52.000Z</time>
      </trkpt>
      <trkpt lat="44.4979" lon="6.4553">
        <ele>1240.673746</ele>
        <time>2026-07-27T09:17:53.000Z</time>
      </trkpt>
      <trkpt lat="44.4979" lon="6.4553">
        <ele>1240.673746</ele>
        <time>2026-07-27T09:17:53.000Z</time>
      </trkpt>
      <trkpt lat="44.49789" lon="6.45532">
        <ele>1240.958645</ele>
        <time>2026-07-27T09:17:54.000Z</time>
      </trkpt>
      <trkpt lat="44.49789" lon="6.45532">
        <ele>1240.958645</ele>
        <time>2026-07-27T09:17:54.000Z</time>
      </trkpt>
      <trkpt lat="44.49789" lon="6.45533">
        <ele>1241.085543</ele>
        <time>2026-07-27T09:17:55.000Z</time>
      </trkpt>
      <trkpt lat="44.49789" lon="6.45533">
        <ele>1241.085543</ele>
        <time>2026-07-27T09:17:55.000Z</time>
      </trkpt>
      <trkpt lat="44.49789" lon="6.45534">
        <ele>1241.121444</ele>
        <time>2026-07-27T09:17:56.000Z</time>
      </trkpt>
      <trkpt lat="44.49789" lon="6.45533">
        <ele>1241.205211</ele>
        <time>2026-07-27T09:17:57.000Z</time>
      </trkpt>
      <trkpt lat="44.49788" lon="6.45531">
        <ele>1241.419718</ele>
        <time>2026-07-27T09:17:58.000Z</time>
      </trkpt>
      <trkpt lat="44.49788" lon="6.45529">
        <ele>1241.69412</ele>
        <time>2026-07-27T09:17:59.000Z</time>
      </trkpt>
      <trkpt lat="44.49788" lon="6.45529">
        <ele>1241.69412</ele>
        <time>2026-07-27T09:17:59.000Z</time>
      </trkpt>
      <trkpt lat="44.49787" lon="6.45528">
        <ele>1241.931186</ele>
        <time>2026-07-27T09:18:00.000Z</time>
      </trkpt>
      <trkpt lat="44.49787" lon="6.45528">
        <ele>1241.931186</ele>
        <time>2026-07-27T09:18:00.000Z</time>
      </trkpt>
      <trkpt lat="44.49786" lon="6.45525">
        <ele>1242.308911</ele>
        <time>2026-07-27T09:18:01.000Z</time>
      </trkpt>
      <trkpt lat="44.49786" lon="6.45525">
        <ele>1242.308911</ele>
        <time>2026-07-27T09:18:01.000Z</time>
      </trkpt>
      <trkpt lat="44.49786" lon="6.45521">
        <ele>1242.697685</ele>
        <time>2026-07-27T09:18:02.000Z</time>
      </trkpt>
      <trkpt lat="44.49786" lon="6.45521">
        <ele>1242.697685</ele>
        <time>2026-07-27T09:18:02.000Z</time>
      </trkpt>
      <trkpt lat="44.49785" lon="6.45519">
        <ele>1243.058637</ele>
        <time>2026-07-27T09:18:04.000Z</time>
      </trkpt>
      <trkpt lat="44.49785" lon="6.45519">
        <ele>1243.058637</ele>
        <time>2026-07-27T09:18:04.000Z</time>
      </trkpt>
      <trkpt lat="44.49785" lon="6.45515">
        <ele>1243.482119</ele>
        <time>2026-07-27T09:18:04.000Z</time>
      </trkpt>
      <trkpt lat="44.49785" lon="6.45515">
        <ele>1243.482119</ele>
        <time>2026-07-27T09:18:04.000Z</time>
      </trkpt>
      <trkpt lat="44.49784" lon="6.45512">
        <ele>1243.910557</ele>
        <time>2026-07-27T09:18:05.000Z</time>
      </trkpt>
      <trkpt lat="44.49784" lon="6.45512">
        <ele>1243.910557</ele>
        <time>2026-07-27T09:18:05.000Z</time>
      </trkpt>
      <trkpt lat="44.49783" lon="6.45509">
        <ele>1244.241938</ele>
        <time>2026-07-27T09:18:06.000Z</time>
      </trkpt>
      <trkpt lat="44.49783" lon="6.45509">
        <ele>1244.241938</ele>
        <time>2026-07-27T09:18:06.000Z</time>
      </trkpt>
      <trkpt lat="44.49781" lon="6.45507">
        <ele>1244.582948</ele>
        <time>2026-07-27T09:18:07.000Z</time>
      </trkpt>
      <trkpt lat="44.49781" lon="6.45507">
        <ele>1244.582948</ele>
        <time>2026-07-27T09:18:07.000Z</time>
      </trkpt>
      <trkpt lat="44.49781" lon="6.45505">
        <ele>1244.860339</ele>
        <time>2026-07-27T09:18:08.000Z</time>
      </trkpt>
      <trkpt lat="44.49781" lon="6.45505">
        <ele>1244.860339</ele>
        <time>2026-07-27T09:18:08.000Z</time>
      </trkpt>
      <trkpt lat="44.49779" lon="6.45503">
        <ele>1245.190063</ele>
        <time>2026-07-27T09:18:09.000Z</time>
      </trkpt>
      <trkpt lat="44.49779" lon="6.45503">
        <ele>1245.190063</ele>
        <time>2026-07-27T09:18:09.000Z</time>
      </trkpt>
      <trkpt lat="44.49778" lon="6.45503">
        <ele>1245.380719</ele>
        <time>2026-07-27T09:18:10.000Z</time>
      </trkpt>
      <trkpt lat="44.49778" lon="6.45503">
        <ele>1245.380719</ele>
        <time>2026-07-27T09:18:10.000Z</time>
      </trkpt>
      <trkpt lat="44.49777" lon="6.45504">
        <ele>1245.598778</ele>
        <time>2026-07-27T09:18:11.000Z</time>
      </trkpt>
      <trkpt lat="44.49777" lon="6.45504">
        <ele>1245.598778</ele>
        <time>2026-07-27T09:18:11.000Z</time>
      </trkpt>
      <trkpt lat="44.49776" lon="6.45505">
        <ele>1245.793698</ele>
        <time>2026-07-27T09:18:12.000Z</time>
      </trkpt>
      <trkpt lat="44.49776" lon="6.45505">
        <ele>1245.793698</ele>
        <time>2026-07-27T09:18:12.000Z</time>
      </trkpt>
      <trkpt lat="44.49775" lon="6.45507">
        <ele>1246.115701</ele>
        <time>2026-07-27T09:18:13.000Z</time>
      </trkpt>
      <trkpt lat="44.49775" lon="6.45507">
        <ele>1246.115701</ele>
        <time>2026-07-27T09:18:13.000Z</time>
      </trkpt>
      <trkpt lat="44.49775" lon="6.4551">
        <ele>1246.462739</ele>
        <time>2026-07-27T09:18:14.000Z</time>
      </trkpt>
      <trkpt lat="44.49775" lon="6.4551">
        <ele>1246.462739</ele>
        <time>2026-07-27T09:18:14.000Z</time>
      </trkpt>
      <trkpt lat="44.49775" lon="6.45513">
        <ele>1246.79781</ele>
        <time>2026-07-27T09:18:15.000Z</time>
      </trkpt>
      <trkpt lat="44.49775" lon="6.45513">
        <ele>1246.79781</ele>
        <time>2026-07-27T09:18:15.000Z</time>
      </trkpt>
      <trkpt lat="44.49775" lon="6.45516">
        <ele>1247.233811</ele>
        <time>2026-07-27T09:18:16.000Z</time>
      </trkpt>
      <trkpt lat="44.49775" lon="6.45516">
        <ele>1247.233811</ele>
        <time>2026-07-27T09:18:16.000Z</time>
      </trkpt>
      <trkpt lat="44.49775" lon="6.4552">
        <ele>1247.693476</ele>
        <time>2026-07-27T09:18:17.000Z</time>
      </trkpt>
      <trkpt lat="44.49775" lon="6.4552">
        <ele>1247.693476</ele>
        <time>2026-07-27T09:18:17.000Z</time>
      </trkpt>
      <trkpt lat="44.49775" lon="6.45523">
        <ele>1248.067846</ele>
        <time>2026-07-27T09:18:19.000Z</time>
      </trkpt>
      <trkpt lat="44.49775" lon="6.45523">
        <ele>1248.067846</ele>
        <time>2026-07-27T09:18:19.000Z</time>
      </trkpt>
      <trkpt lat="44.49773" lon="6.45527">
        <ele>1248.500483</ele>
        <time>2026-07-27T09:18:19.000Z</time>
      </trkpt>
      <trkpt lat="44.49773" lon="6.45527">
        <ele>1248.500483</ele>
        <time>2026-07-27T09:18:19.000Z</time>
      </trkpt>
      <trkpt lat="44.49772" lon="6.45529">
        <ele>1248.96296</ele>
        <time>2026-07-27T09:18:20.000Z</time>
      </trkpt>
      <trkpt lat="44.49772" lon="6.45529">
        <ele>1248.96296</ele>
        <time>2026-07-27T09:18:20.000Z</time>
      </trkpt>
      <trkpt lat="44.4977" lon="6.45532">
        <ele>1249.37639</ele>
        <time>2026-07-27T09:18:21.000Z</time>
      </trkpt>
      <trkpt lat="44.4977" lon="6.45532">
        <ele>1249.37639</ele>
        <time>2026-07-27T09:18:21.000Z</time>
      </trkpt>
      <trkpt lat="44.49767" lon="6.45534">
        <ele>1249.888716</ele>
        <time>2026-07-27T09:18:22.000Z</time>
      </trkpt>
      <trkpt lat="44.49767" lon="6.45534">
        <ele>1249.888716</ele>
        <time>2026-07-27T09:18:22.000Z</time>
      </trkpt>
      <trkpt lat="44.49765" lon="6.45535">
        <ele>1250.254549</ele>
        <time>2026-07-27T09:18:23.000Z</time>
      </trkpt>
      <trkpt lat="44.49765" lon="6.45535">
        <ele>1250.254549</ele>
        <time>2026-07-27T09:18:23.000Z</time>
      </trkpt>
      <trkpt lat="44.49763" lon="6.45537">
        <ele>1250.6264</ele>
        <time>2026-07-27T09:18:24.000Z</time>
      </trkpt>
      <trkpt lat="44.49763" lon="6.45537">
        <ele>1250.6264</ele>
        <time>2026-07-27T09:18:24.000Z</time>
      </trkpt>
      <trkpt lat="44.49761" lon="6.45538">
        <ele>1250.96287</ele>
        <time>2026-07-27T09:18:25.000Z</time>
      </trkpt>
      <trkpt lat="44.49761" lon="6.45538">
        <ele>1250.96287</ele>
        <time>2026-07-27T09:18:25.000Z</time>
      </trkpt>
      <trkpt lat="44.4976" lon="6.45539">
        <ele>1251.286472</ele>
        <time>2026-07-27T09:18:27.000Z</time>
      </trkpt>
      <trkpt lat="44.4976" lon="6.45539">
        <ele>1251.286472</ele>
        <time>2026-07-27T09:18:27.000Z</time>
      </trkpt>
      <trkpt lat="44.49759" lon="6.45541">
        <ele>1251.54839</ele>
        <time>2026-07-27T09:18:27.000Z</time>
      </trkpt>
      <trkpt lat="44.49759" lon="6.45541">
        <ele>1251.54839</ele>
        <time>2026-07-27T09:18:27.000Z</time>
      </trkpt>
      <trkpt lat="44.49757" lon="6.45542">
        <ele>1251.83204</ele>
        <time>2026-07-27T09:18:29.000Z</time>
      </trkpt>
      <trkpt lat="44.49757" lon="6.45542">
        <ele>1251.83204</ele>
        <time>2026-07-27T09:18:29.000Z</time>
      </trkpt>
      <trkpt lat="44.49756" lon="6.45545">
        <ele>1252.285923</ele>
        <time>2026-07-27T09:18:29.000Z</time>
      </trkpt>
      <trkpt lat="44.49756" lon="6.45545">
        <ele>1252.285923</ele>
        <time>2026-07-27T09:18:29.000Z</time>
      </trkpt>
      <trkpt lat="44.49754" lon="6.45548">
        <ele>1252.686097</ele>
        <time>2026-07-27T09:18:30.000Z</time>
      </trkpt>
      <trkpt lat="44.49754" lon="6.45548">
        <ele>1252.686097</ele>
        <time>2026-07-27T09:18:30.000Z</time>
      </trkpt>
      <trkpt lat="44.49753" lon="6.4555">
        <ele>1253.027108</ele>
        <time>2026-07-27T09:18:31.000Z</time>
      </trkpt>
      <trkpt lat="44.49753" lon="6.4555">
        <ele>1253.027108</ele>
        <time>2026-07-27T09:18:31.000Z</time>
      </trkpt>
      <trkpt lat="44.49751" lon="6.45552">
        <ele>1253.448259</ele>
        <time>2026-07-27T09:18:33.000Z</time>
      </trkpt>
      <trkpt lat="44.49751" lon="6.45552">
        <ele>1253.448259</ele>
        <time>2026-07-27T09:18:33.000Z</time>
      </trkpt>
      <trkpt lat="44.49749" lon="6.45555">
        <ele>1253.839201</ele>
        <time>2026-07-27T09:18:33.000Z</time>
      </trkpt>
      <trkpt lat="44.49749" lon="6.45555">
        <ele>1253.839201</ele>
        <time>2026-07-27T09:18:33.000Z</time>
      </trkpt>
      <trkpt lat="44.49748" lon="6.45557">
        <ele>1254.239376</ele>
        <time>2026-07-27T09:18:35.000Z</time>
      </trkpt>
      <trkpt lat="44.49748" lon="6.45557">
        <ele>1254.239376</ele>
        <time>2026-07-27T09:18:35.000Z</time>
      </trkpt>
      <trkpt lat="44.49746" lon="6.4556">
        <ele>1254.615367</ele>
        <time>2026-07-27T09:18:35.000Z</time>
      </trkpt>
      <trkpt lat="44.49746" lon="6.4556">
        <ele>1254.615367</ele>
        <time>2026-07-27T09:18:35.000Z</time>
      </trkpt>
      <trkpt lat="44.49744" lon="6.45562">
        <ele>1255.036519</ele>
        <time>2026-07-27T09:18:36.000Z</time>
      </trkpt>
      <trkpt lat="44.49744" lon="6.45562">
        <ele>1255.036519</ele>
        <time>2026-07-27T09:18:36.000Z</time>
      </trkpt>
      <trkpt lat="44.49742" lon="6.45564">
        <ele>1255.497013</ele>
        <time>2026-07-27T09:18:37.000Z</time>
      </trkpt>
      <trkpt lat="44.49742" lon="6.45564">
        <ele>1255.497013</ele>
        <time>2026-07-27T09:18:37.000Z</time>
      </trkpt>
      <trkpt lat="44.4974" lon="6.45565">
        <ele>1255.857125</ele>
        <time>2026-07-27T09:18:39.000Z</time>
      </trkpt>
      <trkpt lat="44.4974" lon="6.45565">
        <ele>1255.857125</ele>
        <time>2026-07-27T09:18:39.000Z</time>
      </trkpt>
      <trkpt lat="44.49739" lon="6.45565">
        <ele>1256.115799</ele>
        <time>2026-07-27T09:18:39.000Z</time>
      </trkpt>
      <trkpt lat="44.49739" lon="6.45565">
        <ele>1256.115799</ele>
        <time>2026-07-27T09:18:39.000Z</time>
      </trkpt>
      <trkpt lat="44.49736" lon="6.45564">
        <ele>1256.510663</ele>
        <time>2026-07-27T09:18:40.000Z</time>
      </trkpt>
      <trkpt lat="44.49736" lon="6.45564">
        <ele>1256.510663</ele>
        <time>2026-07-27T09:18:40.000Z</time>
      </trkpt>
      <trkpt lat="44.49735" lon="6.45563">
        <ele>1256.860284</ele>
        <time>2026-07-27T09:18:41.000Z</time>
      </trkpt>
      <trkpt lat="44.49735" lon="6.45563">
        <ele>1256.860284</ele>
        <time>2026-07-27T09:18:41.000Z</time>
      </trkpt>
      <trkpt lat="44.49734" lon="6.45562">
        <ele>1257.084417</ele>
        <time>2026-07-27T09:18:42.000Z</time>
      </trkpt>
      <trkpt lat="44.49734" lon="6.45562">
        <ele>1257.084417</ele>
        <time>2026-07-27T09:18:42.000Z</time>
      </trkpt>
      <trkpt lat="44.49733" lon="6.4556">
        <ele>1257.276056</ele>
        <time>2026-07-27T09:18:43.000Z</time>
      </trkpt>
      <trkpt lat="44.49733" lon="6.45558">
        <ele>1257.527361</ele>
        <time>2026-07-27T09:18:44.000Z</time>
      </trkpt>
      <trkpt lat="44.49733" lon="6.45558">
        <ele>1257.527361</ele>
        <time>2026-07-27T09:18:44.000Z</time>
      </trkpt>
      <trkpt lat="44.49734" lon="6.45556">
        <ele>1257.764429</ele>
        <time>2026-07-27T09:18:45.000Z</time>
      </trkpt>
      <trkpt lat="44.49734" lon="6.45556">
        <ele>1257.764429</ele>
        <time>2026-07-27T09:18:45.000Z</time>
      </trkpt>
      <trkpt lat="44.49735" lon="6.45554">
        <ele>1258.081449</ele>
        <time>2026-07-27T09:18:46.000Z</time>
      </trkpt>
      <trkpt lat="44.49735" lon="6.45554">
        <ele>1258.081449</ele>
        <time>2026-07-27T09:18:46.000Z</time>
      </trkpt>
      <trkpt lat="44.49736" lon="6.45551">
        <ele>1258.402962</ele>
        <time>2026-07-27T09:18:47.000Z</time>
      </trkpt>
      <trkpt lat="44.49736" lon="6.45551">
        <ele>1258.402962</ele>
        <time>2026-07-27T09:18:47.000Z</time>
      </trkpt>
      <trkpt lat="44.49736" lon="6.45549">
        <ele>1258.677365</ele>
        <time>2026-07-27T09:18:48.000Z</time>
      </trkpt>
      <trkpt lat="44.49736" lon="6.45549">
        <ele>1258.677365</ele>
        <time>2026-07-27T09:18:48.000Z</time>
      </trkpt>
      <trkpt lat="44.49737" lon="6.45548">
        <ele>1258.873926</ele>
        <time>2026-07-27T09:18:49.000Z</time>
      </trkpt>
      <trkpt lat="44.49737" lon="6.45548">
        <ele>1258.873926</ele>
        <time>2026-07-27T09:18:49.000Z</time>
      </trkpt>
      <trkpt lat="44.49739" lon="6.45547">
        <ele>1259.197529</ele>
        <time>2026-07-27T09:18:50.000Z</time>
      </trkpt>
      <trkpt lat="44.49739" lon="6.45547">
        <ele>1259.197529</ele>
        <time>2026-07-27T09:18:50.000Z</time>
      </trkpt>
      <trkpt lat="44.4974" lon="6.45545">
        <ele>1259.506646</ele>
        <time>2026-07-27T09:18:51.000Z</time>
      </trkpt>
      <trkpt lat="44.4974" lon="6.45545">
        <ele>1259.506646</ele>
        <time>2026-07-27T09:18:51.000Z</time>
      </trkpt>
      <trkpt lat="44.49742" lon="6.45543">
        <ele>1259.891369</ele>
        <time>2026-07-27T09:18:52.000Z</time>
      </trkpt>
      <trkpt lat="44.49742" lon="6.45543">
        <ele>1259.891369</ele>
        <time>2026-07-27T09:18:52.000Z</time>
      </trkpt>
      <trkpt lat="44.49743" lon="6.45541">
        <ele>1260.213373</ele>
        <time>2026-07-27T09:18:53.000Z</time>
      </trkpt>
      <trkpt lat="44.49743" lon="6.45541">
        <ele>1260.213373</ele>
        <time>2026-07-27T09:18:53.000Z</time>
      </trkpt>
      <trkpt lat="44.49744" lon="6.45539">
        <ele>1260.564888</ele>
        <time>2026-07-27T09:18:54.000Z</time>
      </trkpt>
      <trkpt lat="44.49744" lon="6.45539">
        <ele>1260.564888</ele>
        <time>2026-07-27T09:18:54.000Z</time>
      </trkpt>
      <trkpt lat="44.49745" lon="6.45535">
        <ele>1261.004708</ele>
        <time>2026-07-27T09:18:55.000Z</time>
      </trkpt>
      <trkpt lat="44.49745" lon="6.45535">
        <ele>1261.004708</ele>
        <time>2026-07-27T09:18:55.000Z</time>
      </trkpt>
      <trkpt lat="44.49746" lon="6.45532">
        <ele>1261.405277</ele>
        <time>2026-07-27T09:18:56.000Z</time>
      </trkpt>
      <trkpt lat="44.49746" lon="6.45532">
        <ele>1261.405277</ele>
        <time>2026-07-27T09:18:56.000Z</time>
      </trkpt>
      <trkpt lat="44.49746" lon="6.45529">
        <ele>1261.744109</ele>
        <time>2026-07-27T09:18:57.000Z</time>
      </trkpt>
      <trkpt lat="44.49746" lon="6.45529">
        <ele>1261.744109</ele>
        <time>2026-07-27T09:18:57.000Z</time>
      </trkpt>
      <trkpt lat="44.49746" lon="6.45526">
        <ele>1262.115083</ele>
        <time>2026-07-27T09:18:59.000Z</time>
      </trkpt>
      <trkpt lat="44.49746" lon="6.45526">
        <ele>1262.115083</ele>
        <time>2026-07-27T09:18:59.000Z</time>
      </trkpt>
      <trkpt lat="44.49746" lon="6.45522">
        <ele>1262.536937</ele>
        <time>2026-07-27T09:18:59.000Z</time>
      </trkpt>
      <trkpt lat="44.49746" lon="6.45522">
        <ele>1262.536937</ele>
        <time>2026-07-27T09:18:59.000Z</time>
      </trkpt>
      <trkpt lat="44.49746" lon="6.45519">
        <ele>1262.907911</ele>
        <time>2026-07-27T09:19:00.000Z</time>
      </trkpt>
      <trkpt lat="44.49746" lon="6.45519">
        <ele>1262.907911</ele>
        <time>2026-07-27T09:19:00.000Z</time>
      </trkpt>
      <trkpt lat="44.49745" lon="6.45516">
        <ele>1263.296687</ele>
        <time>2026-07-27T09:19:01.000Z</time>
      </trkpt>
      <trkpt lat="44.49745" lon="6.45516">
        <ele>1263.296687</ele>
        <time>2026-07-27T09:19:01.000Z</time>
      </trkpt>
      <trkpt lat="44.49744" lon="6.45513">
        <ele>1263.691194</ele>
        <time>2026-07-27T09:19:02.000Z</time>
      </trkpt>
      <trkpt lat="44.49744" lon="6.4551">
        <ele>1264.114678</ele>
        <time>2026-07-27T09:19:03.000Z</time>
      </trkpt>
      <trkpt lat="44.49744" lon="6.4551">
        <ele>1264.114678</ele>
        <time>2026-07-27T09:19:03.000Z</time>
      </trkpt>
      <trkpt lat="44.49743" lon="6.45506">
        <ele>1264.520459</ele>
        <time>2026-07-27T09:19:04.000Z</time>
      </trkpt>
      <trkpt lat="44.49743" lon="6.45506">
        <ele>1264.520459</ele>
        <time>2026-07-27T09:19:04.000Z</time>
      </trkpt>
      <trkpt lat="44.49742" lon="6.45504">
        <ele>1264.848359</ele>
        <time>2026-07-27T09:19:05.000Z</time>
      </trkpt>
      <trkpt lat="44.49742" lon="6.45504">
        <ele>1264.848359</ele>
        <time>2026-07-27T09:19:05.000Z</time>
      </trkpt>
      <trkpt lat="44.49741" lon="6.45501">
        <ele>1265.226087</ele>
        <time>2026-07-27T09:19:06.000Z</time>
      </trkpt>
      <trkpt lat="44.49741" lon="6.45501">
        <ele>1265.226087</ele>
        <time>2026-07-27T09:19:06.000Z</time>
      </trkpt>
      <trkpt lat="44.49741" lon="6.45498">
        <ele>1265.532694</ele>
        <time>2026-07-27T09:19:07.000Z</time>
      </trkpt>
      <trkpt lat="44.49741" lon="6.45498">
        <ele>1265.532694</ele>
        <time>2026-07-27T09:19:07.000Z</time>
      </trkpt>
      <trkpt lat="44.49741" lon="6.45495">
        <ele>1265.92147</ele>
        <time>2026-07-27T09:19:08.000Z</time>
      </trkpt>
      <trkpt lat="44.49741" lon="6.45495">
        <ele>1265.92147</ele>
        <time>2026-07-27T09:19:08.000Z</time>
      </trkpt>
      <trkpt lat="44.4974" lon="6.45492">
        <ele>1266.338563</ele>
        <time>2026-07-27T09:19:09.000Z</time>
      </trkpt>
      <trkpt lat="44.49739" lon="6.45489">
        <ele>1266.704936</ele>
        <time>2026-07-27T09:19:10.000Z</time>
      </trkpt>
      <trkpt lat="44.49739" lon="6.45489">
        <ele>1266.704936</ele>
        <time>2026-07-27T09:19:10.000Z</time>
      </trkpt>
      <trkpt lat="44.49738" lon="6.45487">
        <ele>1267.021956</ele>
        <time>2026-07-27T09:19:11.000Z</time>
      </trkpt>
      <trkpt lat="44.49738" lon="6.45487">
        <ele>1267.021956</ele>
        <time>2026-07-27T09:19:11.000Z</time>
      </trkpt>
      <trkpt lat="44.49737" lon="6.45484">
        <ele>1267.431504</ele>
        <time>2026-07-27T09:19:12.000Z</time>
      </trkpt>
      <trkpt lat="44.49737" lon="6.45484">
        <ele>1267.431504</ele>
        <time>2026-07-27T09:19:12.000Z</time>
      </trkpt>
      <trkpt lat="44.49736" lon="6.45482">
        <ele>1267.735198</ele>
        <time>2026-07-27T09:19:13.000Z</time>
      </trkpt>
      <trkpt lat="44.49736" lon="6.45482">
        <ele>1267.735198</ele>
        <time>2026-07-27T09:19:13.000Z</time>
      </trkpt>
      <trkpt lat="44.49735" lon="6.45482">
        <ele>1267.858004</ele>
        <time>2026-07-27T09:19:14.000Z</time>
      </trkpt>
      <trkpt lat="44.49735" lon="6.45482">
        <ele>1267.858004</ele>
        <time>2026-07-27T09:19:14.000Z</time>
      </trkpt>
      <trkpt lat="44.49732" lon="6.45481">
        <ele>1268.380296</ele>
        <time>2026-07-27T09:19:15.000Z</time>
      </trkpt>
      <trkpt lat="44.49732" lon="6.45481">
        <ele>1268.380296</ele>
        <time>2026-07-27T09:19:15.000Z</time>
      </trkpt>
      <trkpt lat="44.4973" lon="6.45483">
        <ele>1268.811064</ele>
        <time>2026-07-27T09:19:17.000Z</time>
      </trkpt>
      <trkpt lat="44.4973" lon="6.45483">
        <ele>1268.811064</ele>
        <time>2026-07-27T09:19:17.000Z</time>
      </trkpt>
      <trkpt lat="44.49728" lon="6.45485">
        <ele>1269.142321</ele>
        <time>2026-07-27T09:19:17.000Z</time>
      </trkpt>
      <trkpt lat="44.49728" lon="6.45485">
        <ele>1269.142321</ele>
        <time>2026-07-27T09:19:17.000Z</time>
      </trkpt>
      <trkpt lat="44.49727" lon="6.45487">
        <ele>1269.535001</ele>
        <time>2026-07-27T09:19:18.000Z</time>
      </trkpt>
      <trkpt lat="44.49727" lon="6.45487">
        <ele>1269.535001</ele>
        <time>2026-07-27T09:19:18.000Z</time>
      </trkpt>
      <trkpt lat="44.49726" lon="6.45489">
        <ele>1269.80166</ele>
        <time>2026-07-27T09:19:19.000Z</time>
      </trkpt>
      <trkpt lat="44.49726" lon="6.45489">
        <ele>1269.80166</ele>
        <time>2026-07-27T09:19:19.000Z</time>
      </trkpt>
      <trkpt lat="44.49725" lon="6.45491">
        <ele>1270.201748</ele>
        <time>2026-07-27T09:19:20.000Z</time>
      </trkpt>
      <trkpt lat="44.49725" lon="6.45491">
        <ele>1270.201748</ele>
        <time>2026-07-27T09:19:20.000Z</time>
      </trkpt>
      <trkpt lat="44.49723" lon="6.45494">
        <ele>1270.599313</ele>
        <time>2026-07-27T09:19:21.000Z</time>
      </trkpt>
      <trkpt lat="44.49723" lon="6.45494">
        <ele>1270.599313</ele>
        <time>2026-07-27T09:19:21.000Z</time>
      </trkpt>
      <trkpt lat="44.49722" lon="6.45496">
        <ele>1270.980846</ele>
        <time>2026-07-27T09:19:22.000Z</time>
      </trkpt>
      <trkpt lat="44.49722" lon="6.45496">
        <ele>1270.980846</ele>
        <time>2026-07-27T09:19:22.000Z</time>
      </trkpt>
      <trkpt lat="44.49721" lon="6.45499">
        <ele>1271.380024</ele>
        <time>2026-07-27T09:19:23.000Z</time>
      </trkpt>
      <trkpt lat="44.49721" lon="6.45499">
        <ele>1271.380024</ele>
        <time>2026-07-27T09:19:23.000Z</time>
      </trkpt>
      <trkpt lat="44.4972" lon="6.45502">
        <ele>1271.803244</ele>
        <time>2026-07-27T09:19:25.000Z</time>
      </trkpt>
      <trkpt lat="44.4972" lon="6.45502">
        <ele>1271.803244</ele>
        <time>2026-07-27T09:19:25.000Z</time>
      </trkpt>
      <trkpt lat="44.49719" lon="6.45504">
        <ele>1272.16676</ele>
        <time>2026-07-27T09:19:25.000Z</time>
      </trkpt>
      <trkpt lat="44.49719" lon="6.45504">
        <ele>1272.16676</ele>
        <time>2026-07-27T09:19:25.000Z</time>
      </trkpt>
      <trkpt lat="44.49719" lon="6.45508">
        <ele>1272.584199</ele>
        <time>2026-07-27T09:19:27.000Z</time>
      </trkpt>
      <trkpt lat="44.49719" lon="6.45508">
        <ele>1272.584199</ele>
        <time>2026-07-27T09:19:27.000Z</time>
      </trkpt>
      <trkpt lat="44.49718" lon="6.4551">
        <ele>1272.913121</ele>
        <time>2026-07-27T09:19:27.000Z</time>
      </trkpt>
      <trkpt lat="44.49718" lon="6.4551">
        <ele>1272.913121</ele>
        <time>2026-07-27T09:19:27.000Z</time>
      </trkpt>
      <trkpt lat="44.49718" lon="6.45512">
        <ele>1273.229529</ele>
        <time>2026-07-27T09:19:28.000Z</time>
      </trkpt>
      <trkpt lat="44.49718" lon="6.45512">
        <ele>1273.229529</ele>
        <time>2026-07-27T09:19:28.000Z</time>
      </trkpt>
      <trkpt lat="44.49718" lon="6.45515">
        <ele>1273.601827</ele>
        <time>2026-07-27T09:19:29.000Z</time>
      </trkpt>
      <trkpt lat="44.49718" lon="6.45515">
        <ele>1273.601827</ele>
        <time>2026-07-27T09:19:29.000Z</time>
      </trkpt>
      <trkpt lat="44.49717" lon="6.45518">
        <ele>1273.981022</ele>
        <time>2026-07-27T09:19:31.000Z</time>
      </trkpt>
      <trkpt lat="44.49717" lon="6.45518">
        <ele>1273.981022</ele>
        <time>2026-07-27T09:19:31.000Z</time>
      </trkpt>
      <trkpt lat="44.49717" lon="6.45521">
        <ele>1274.335042</ele>
        <time>2026-07-27T09:19:31.000Z</time>
      </trkpt>
      <trkpt lat="44.49717" lon="6.45521">
        <ele>1274.335042</ele>
        <time>2026-07-27T09:19:31.000Z</time>
      </trkpt>
      <trkpt lat="44.49717" lon="6.45523">
        <ele>1274.635209</ele>
        <time>2026-07-27T09:19:33.000Z</time>
      </trkpt>
      <trkpt lat="44.49717" lon="6.45523">
        <ele>1274.635209</ele>
        <time>2026-07-27T09:19:33.000Z</time>
      </trkpt>
      <trkpt lat="44.49716" lon="6.45525">
        <ele>1274.855629</ele>
        <time>2026-07-27T09:19:33.000Z</time>
      </trkpt>
      <trkpt lat="44.49716" lon="6.45525">
        <ele>1274.855629</ele>
        <time>2026-07-27T09:19:33.000Z</time>
      </trkpt>
      <trkpt lat="44.49715" lon="6.45525">
        <ele>1274.952082</ele>
        <time>2026-07-27T09:19:34.000Z</time>
      </trkpt>
      <trkpt lat="44.49715" lon="6.45525">
        <ele>1275.03373</ele>
        <time>2026-07-27T09:19:35.000Z</time>
      </trkpt>
      <trkpt lat="44.49714" lon="6.45524">
        <ele>1275.222978</ele>
        <time>2026-07-27T09:19:36.000Z</time>
      </trkpt>
      <trkpt lat="44.49713" lon="6.45522">
        <ele>1275.521036</ele>
        <time>2026-07-27T09:19:37.000Z</time>
      </trkpt>
      <trkpt lat="44.49712" lon="6.4552">
        <ele>1275.940431</ele>
        <time>2026-07-27T09:19:38.000Z</time>
      </trkpt>
      <trkpt lat="44.49712" lon="6.4552">
        <ele>1275.940431</ele>
        <time>2026-07-27T09:19:38.000Z</time>
      </trkpt>
      <trkpt lat="44.4971" lon="6.45517">
        <ele>1276.369731</ele>
        <time>2026-07-27T09:19:39.000Z</time>
      </trkpt>
      <trkpt lat="44.4971" lon="6.45517">
        <ele>1276.369731</ele>
        <time>2026-07-27T09:19:39.000Z</time>
      </trkpt>
      <trkpt lat="44.49709" lon="6.45515">
        <ele>1276.735561</ele>
        <time>2026-07-27T09:19:40.000Z</time>
      </trkpt>
      <trkpt lat="44.49709" lon="6.45515">
        <ele>1276.735561</ele>
        <time>2026-07-27T09:19:40.000Z</time>
      </trkpt>
      <trkpt lat="44.49708" lon="6.45512">
        <ele>1277.11266</ele>
        <time>2026-07-27T09:19:41.000Z</time>
      </trkpt>
      <trkpt lat="44.49708" lon="6.45512">
        <ele>1277.11266</ele>
        <time>2026-07-27T09:19:41.000Z</time>
      </trkpt>
      <trkpt lat="44.49707" lon="6.4551">
        <ele>1277.468161</ele>
        <time>2026-07-27T09:19:42.000Z</time>
      </trkpt>
      <trkpt lat="44.49707" lon="6.4551">
        <ele>1277.468161</ele>
        <time>2026-07-27T09:19:42.000Z</time>
      </trkpt>
      <trkpt lat="44.49706" lon="6.45507">
        <ele>1277.855013</ele>
        <time>2026-07-27T09:19:43.000Z</time>
      </trkpt>
      <trkpt lat="44.49706" lon="6.45507">
        <ele>1277.855013</ele>
        <time>2026-07-27T09:19:43.000Z</time>
      </trkpt>
      <trkpt lat="44.49704" lon="6.45504">
        <ele>1278.288056</ele>
        <time>2026-07-27T09:19:45.000Z</time>
      </trkpt>
      <trkpt lat="44.49704" lon="6.45504">
        <ele>1278.288056</ele>
        <time>2026-07-27T09:19:45.000Z</time>
      </trkpt>
      <trkpt lat="44.49704" lon="6.45502">
        <ele>1278.675282</ele>
        <time>2026-07-27T09:19:45.000Z</time>
      </trkpt>
      <trkpt lat="44.49704" lon="6.45502">
        <ele>1278.675282</ele>
        <time>2026-07-27T09:19:45.000Z</time>
      </trkpt>
      <trkpt lat="44.49703" lon="6.45499">
        <ele>1279.074461</ele>
        <time>2026-07-27T09:19:46.000Z</time>
      </trkpt>
      <trkpt lat="44.49703" lon="6.45499">
        <ele>1279.074461</ele>
        <time>2026-07-27T09:19:46.000Z</time>
      </trkpt>
      <trkpt lat="44.49701" lon="6.45496">
        <ele>1279.505663</ele>
        <time>2026-07-27T09:19:47.000Z</time>
      </trkpt>
      <trkpt lat="44.49701" lon="6.45496">
        <ele>1279.505663</ele>
        <time>2026-07-27T09:19:47.000Z</time>
      </trkpt>
      <trkpt lat="44.497" lon="6.45494">
        <ele>1279.904842</ele>
        <time>2026-07-27T09:19:48.000Z</time>
      </trkpt>
      <trkpt lat="44.497" lon="6.45494">
        <ele>1279.904842</ele>
        <time>2026-07-27T09:19:48.000Z</time>
      </trkpt>
      <trkpt lat="44.49699" lon="6.45491">
        <ele>1280.268359</ele>
        <time>2026-07-27T09:19:50.000Z</time>
      </trkpt>
      <trkpt lat="44.49699" lon="6.45491">
        <ele>1280.268359</ele>
        <time>2026-07-27T09:19:50.000Z</time>
      </trkpt>
      <trkpt lat="44.49698" lon="6.45488">
        <ele>1280.6858</ele>
        <time>2026-07-27T09:19:50.000Z</time>
      </trkpt>
      <trkpt lat="44.49698" lon="6.45488">
        <ele>1280.6858</ele>
        <time>2026-07-27T09:19:50.000Z</time>
      </trkpt>
      <trkpt lat="44.49697" lon="6.45485">
        <ele>1281.072652</ele>
        <time>2026-07-27T09:19:51.000Z</time>
      </trkpt>
      <trkpt lat="44.49697" lon="6.45485">
        <ele>1281.072652</ele>
        <time>2026-07-27T09:19:51.000Z</time>
      </trkpt>
      <trkpt lat="44.49696" lon="6.45482">
        <ele>1281.575437</ele>
        <time>2026-07-27T09:19:52.000Z</time>
      </trkpt>
      <trkpt lat="44.49696" lon="6.45482">
        <ele>1281.575437</ele>
        <time>2026-07-27T09:19:52.000Z</time>
      </trkpt>
      <trkpt lat="44.49695" lon="6.45479">
        <ele>1281.950776</ele>
        <time>2026-07-27T09:19:53.000Z</time>
      </trkpt>
      <trkpt lat="44.49695" lon="6.45479">
        <ele>1281.950776</ele>
        <time>2026-07-27T09:19:53.000Z</time>
      </trkpt>
      <trkpt lat="44.49694" lon="6.45476">
        <ele>1282.406807</ele>
        <time>2026-07-27T09:19:54.000Z</time>
      </trkpt>
      <trkpt lat="44.49694" lon="6.45476">
        <ele>1282.406807</ele>
        <time>2026-07-27T09:19:54.000Z</time>
      </trkpt>
      <trkpt lat="44.49693" lon="6.45473">
        <ele>1282.867394</ele>
        <time>2026-07-27T09:19:55.000Z</time>
      </trkpt>
      <trkpt lat="44.49693" lon="6.45473">
        <ele>1282.867394</ele>
        <time>2026-07-27T09:19:55.000Z</time>
      </trkpt>
      <trkpt lat="44.49691" lon="6.45471">
        <ele>1283.296694</ele>
        <time>2026-07-27T09:19:56.000Z</time>
      </trkpt>
      <trkpt lat="44.49691" lon="6.45471">
        <ele>1283.296694</ele>
        <time>2026-07-27T09:19:56.000Z</time>
      </trkpt>
      <trkpt lat="44.49689" lon="6.45468">
        <ele>1283.82846</ele>
        <time>2026-07-27T09:19:57.000Z</time>
      </trkpt>
      <trkpt lat="44.49689" lon="6.45468">
        <ele>1283.82846</ele>
        <time>2026-07-27T09:19:57.000Z</time>
      </trkpt>
      <trkpt lat="44.49686" lon="6.45466">
        <ele>1284.315581</ele>
        <time>2026-07-27T09:19:58.000Z</time>
      </trkpt>
      <trkpt lat="44.49686" lon="6.45466">
        <ele>1284.315581</ele>
        <time>2026-07-27T09:19:58.000Z</time>
      </trkpt>
      <trkpt lat="44.49684" lon="6.45464">
        <ele>1284.85564</ele>
        <time>2026-07-27T09:19:59.000Z</time>
      </trkpt>
      <trkpt lat="44.49684" lon="6.45464">
        <ele>1284.85564</ele>
        <time>2026-07-27T09:19:59.000Z</time>
      </trkpt>
      <trkpt lat="44.49682" lon="6.45462">
        <ele>1285.241961</ele>
        <time>2026-07-27T09:20:00.000Z</time>
      </trkpt>
      <trkpt lat="44.49682" lon="6.45462">
        <ele>1285.241961</ele>
        <time>2026-07-27T09:20:00.000Z</time>
      </trkpt>
      <trkpt lat="44.49679" lon="6.45461">
        <ele>1285.769542</ele>
        <time>2026-07-27T09:20:01.000Z</time>
      </trkpt>
      <trkpt lat="44.49679" lon="6.45461">
        <ele>1285.769542</ele>
        <time>2026-07-27T09:20:01.000Z</time>
      </trkpt>
      <trkpt lat="44.49677" lon="6.4546">
        <ele>1286.206926</ele>
        <time>2026-07-27T09:20:02.000Z</time>
      </trkpt>
      <trkpt lat="44.49677" lon="6.4546">
        <ele>1286.206926</ele>
        <time>2026-07-27T09:20:02.000Z</time>
      </trkpt>
      <trkpt lat="44.49675" lon="6.45459">
        <ele>1286.567884</ele>
        <time>2026-07-27T09:20:03.000Z</time>
      </trkpt>
      <trkpt lat="44.49675" lon="6.45459">
        <ele>1286.567884</ele>
        <time>2026-07-27T09:20:03.000Z</time>
      </trkpt>
      <trkpt lat="44.49673" lon="6.45458">
        <ele>1286.921461</ele>
        <time>2026-07-27T09:20:04.000Z</time>
      </trkpt>
      <trkpt lat="44.49673" lon="6.45458">
        <ele>1286.921461</ele>
        <time>2026-07-27T09:20:04.000Z</time>
      </trkpt>
      <trkpt lat="44.49671" lon="6.45458">
        <ele>1287.263427</ele>
        <time>2026-07-27T09:20:05.000Z</time>
      </trkpt>
      <trkpt lat="44.49671" lon="6.45458">
        <ele>1287.263427</ele>
        <time>2026-07-27T09:20:05.000Z</time>
      </trkpt>
      <trkpt lat="44.49669" lon="6.45458">
        <ele>1287.606356</ele>
        <time>2026-07-27T09:20:06.000Z</time>
      </trkpt>
      <trkpt lat="44.49669" lon="6.45458">
        <ele>1287.606356</ele>
        <time>2026-07-27T09:20:06.000Z</time>
      </trkpt>
      <trkpt lat="44.49668" lon="6.45459">
        <ele>1287.84551</ele>
        <time>2026-07-27T09:20:07.000Z</time>
      </trkpt>
      <trkpt lat="44.49668" lon="6.45459">
        <ele>1287.84551</ele>
        <time>2026-07-27T09:20:07.000Z</time>
      </trkpt>
      <trkpt lat="44.49667" lon="6.45461">
        <ele>1288.075632</ele>
        <time>2026-07-27T09:20:08.000Z</time>
      </trkpt>
      <trkpt lat="44.49667" lon="6.45461">
        <ele>1288.075632</ele>
        <time>2026-07-27T09:20:08.000Z</time>
      </trkpt>
      <trkpt lat="44.49666" lon="6.45462">
        <ele>1288.348579</ele>
        <time>2026-07-27T09:20:09.000Z</time>
      </trkpt>
      <trkpt lat="44.49666" lon="6.45462">
        <ele>1288.348579</ele>
        <time>2026-07-27T09:20:09.000Z</time>
      </trkpt>
      <trkpt lat="44.49666" lon="6.45464">
        <ele>1288.66499</ele>
        <time>2026-07-27T09:20:10.000Z</time>
      </trkpt>
      <trkpt lat="44.49666" lon="6.45464">
        <ele>1288.66499</ele>
        <time>2026-07-27T09:20:10.000Z</time>
      </trkpt>
      <trkpt lat="44.49665" lon="6.45467">
        <ele>1289.019013</ele>
        <time>2026-07-27T09:20:11.000Z</time>
      </trkpt>
      <trkpt lat="44.49665" lon="6.45467">
        <ele>1289.019013</ele>
        <time>2026-07-27T09:20:11.000Z</time>
      </trkpt>
      <trkpt lat="44.49665" lon="6.45469">
        <ele>1289.327124</ele>
        <time>2026-07-27T09:20:12.000Z</time>
      </trkpt>
      <trkpt lat="44.49665" lon="6.45469">
        <ele>1289.327124</ele>
        <time>2026-07-27T09:20:12.000Z</time>
      </trkpt>
      <trkpt lat="44.49665" lon="6.45473">
        <ele>1289.766942</ele>
        <time>2026-07-27T09:20:13.000Z</time>
      </trkpt>
      <trkpt lat="44.49665" lon="6.45473">
        <ele>1289.766942</ele>
        <time>2026-07-27T09:20:13.000Z</time>
      </trkpt>
      <trkpt lat="44.49665" lon="6.45476">
        <ele>1290.196669</ele>
        <time>2026-07-27T09:20:14.000Z</time>
      </trkpt>
      <trkpt lat="44.49665" lon="6.45476">
        <ele>1290.196669</ele>
        <time>2026-07-27T09:20:14.000Z</time>
      </trkpt>
      <trkpt lat="44.49665" lon="6.4548">
        <ele>1290.645998</ele>
        <time>2026-07-27T09:20:15.000Z</time>
      </trkpt>
      <trkpt lat="44.49665" lon="6.4548">
        <ele>1290.645998</ele>
        <time>2026-07-27T09:20:15.000Z</time>
      </trkpt>
      <trkpt lat="44.49664" lon="6.45483">
        <ele>1291.063074</ele>
        <time>2026-07-27T09:20:16.000Z</time>
      </trkpt>
      <trkpt lat="44.49664" lon="6.45483">
        <ele>1291.063074</ele>
        <time>2026-07-27T09:20:16.000Z</time>
      </trkpt>
      <trkpt lat="44.49664" lon="6.45486">
        <ele>1291.448214</ele>
        <time>2026-07-27T09:20:17.000Z</time>
      </trkpt>
      <trkpt lat="44.49664" lon="6.45486">
        <ele>1291.448214</ele>
        <time>2026-07-27T09:20:17.000Z</time>
      </trkpt>
      <trkpt lat="44.49665" lon="6.45489">
        <ele>1291.915955</ele>
        <time>2026-07-27T09:20:18.000Z</time>
      </trkpt>
      <trkpt lat="44.49665" lon="6.45489">
        <ele>1291.915955</ele>
        <time>2026-07-27T09:20:18.000Z</time>
      </trkpt>
      <trkpt lat="44.49665" lon="6.45492">
        <ele>1292.301094</ele>
        <time>2026-07-27T09:20:19.000Z</time>
      </trkpt>
      <trkpt lat="44.49665" lon="6.45492">
        <ele>1292.301094</ele>
        <time>2026-07-27T09:20:19.000Z</time>
      </trkpt>
      <trkpt lat="44.49665" lon="6.45496">
        <ele>1292.781524</ele>
        <time>2026-07-27T09:20:20.000Z</time>
      </trkpt>
      <trkpt lat="44.49665" lon="6.45496">
        <ele>1292.781524</ele>
        <time>2026-07-27T09:20:20.000Z</time>
      </trkpt>
      <trkpt lat="44.49665" lon="6.45499">
        <ele>1293.208604</ele>
        <time>2026-07-27T09:20:21.000Z</time>
      </trkpt>
      <trkpt lat="44.49665" lon="6.45499">
        <ele>1293.208604</ele>
        <time>2026-07-27T09:20:21.000Z</time>
      </trkpt>
      <trkpt lat="44.49665" lon="6.45502">
        <ele>1293.584801</ele>
        <time>2026-07-27T09:20:23.000Z</time>
      </trkpt>
      <trkpt lat="44.49665" lon="6.45502">
        <ele>1293.584801</ele>
        <time>2026-07-27T09:20:23.000Z</time>
      </trkpt>
      <trkpt lat="44.49665" lon="6.45506">
        <ele>1294.03413</ele>
        <time>2026-07-27T09:20:23.000Z</time>
      </trkpt>
      <trkpt lat="44.49665" lon="6.45506">
        <ele>1294.03413</ele>
        <time>2026-07-27T09:20:23.000Z</time>
      </trkpt>
      <trkpt lat="44.49665" lon="6.4551">
        <ele>1294.552671</ele>
        <time>2026-07-27T09:20:24.000Z</time>
      </trkpt>
      <trkpt lat="44.49665" lon="6.4551">
        <ele>1294.552671</ele>
        <time>2026-07-27T09:20:24.000Z</time>
      </trkpt>
      <trkpt lat="44.49665" lon="6.45518">
        <ele>1295.566871</ele>
        <time>2026-07-27T09:20:26.000Z</time>
      </trkpt>
      <trkpt lat="44.49665" lon="6.45518">
        <ele>1295.566871</ele>
        <time>2026-07-27T09:20:26.000Z</time>
      </trkpt>
      <trkpt lat="44.49665" lon="6.45521">
        <ele>1296.029039</ele>
        <time>2026-07-27T09:20:27.000Z</time>
      </trkpt>
      <trkpt lat="44.49665" lon="6.45521">
        <ele>1296.029039</ele>
        <time>2026-07-27T09:20:27.000Z</time>
      </trkpt>
      <trkpt lat="44.49665" lon="6.45524">
        <ele>1296.408237</ele>
        <time>2026-07-27T09:20:28.000Z</time>
      </trkpt>
      <trkpt lat="44.49665" lon="6.45524">
        <ele>1296.408237</ele>
        <time>2026-07-27T09:20:28.000Z</time>
      </trkpt>
      <trkpt lat="44.49665" lon="6.45528">
        <ele>1296.835317</ele>
        <time>2026-07-27T09:20:29.000Z</time>
      </trkpt>
      <trkpt lat="44.49665" lon="6.45528">
        <ele>1296.835317</ele>
        <time>2026-07-27T09:20:29.000Z</time>
      </trkpt>
      <trkpt lat="44.49665" lon="6.45531">
        <ele>1297.262397</ele>
        <time>2026-07-27T09:20:30.000Z</time>
      </trkpt>
      <trkpt lat="44.49665" lon="6.45531">
        <ele>1297.262397</ele>
        <time>2026-07-27T09:20:30.000Z</time>
      </trkpt>
      <trkpt lat="44.49664" lon="6.45534">
        <ele>1297.637739</ele>
        <time>2026-07-27T09:20:31.000Z</time>
      </trkpt>
      <trkpt lat="44.49664" lon="6.45534">
        <ele>1297.637739</ele>
        <time>2026-07-27T09:20:31.000Z</time>
      </trkpt>
      <trkpt lat="44.49662" lon="6.45536">
        <ele>1298.13887</ele>
        <time>2026-07-27T09:20:33.000Z</time>
      </trkpt>
      <trkpt lat="44.49662" lon="6.45536">
        <ele>1298.13887</ele>
        <time>2026-07-27T09:20:33.000Z</time>
      </trkpt>
      <trkpt lat="44.49661" lon="6.45536">
        <ele>1298.351307</ele>
        <time>2026-07-27T09:20:34.000Z</time>
      </trkpt>
      <trkpt lat="44.49661" lon="6.45536">
        <ele>1298.351307</ele>
        <time>2026-07-27T09:20:34.000Z</time>
      </trkpt>
      <trkpt lat="44.49657" lon="6.45535">
        <ele>1299.022292</ele>
        <time>2026-07-27T09:20:36.000Z</time>
      </trkpt>
      <trkpt lat="44.49657" lon="6.45535">
        <ele>1299.022292</ele>
        <time>2026-07-27T09:20:36.000Z</time>
      </trkpt>
      <trkpt lat="44.49656" lon="6.45533">
        <ele>1299.402811</ele>
        <time>2026-07-27T09:20:36.000Z</time>
      </trkpt>
      <trkpt lat="44.49656" lon="6.45533">
        <ele>1299.402811</ele>
        <time>2026-07-27T09:20:36.000Z</time>
      </trkpt>
      <trkpt lat="44.49654" lon="6.45532">
        <ele>1299.79527</ele>
        <time>2026-07-27T09:20:37.000Z</time>
      </trkpt>
      <trkpt lat="44.49654" lon="6.45532">
        <ele>1299.79527</ele>
        <time>2026-07-27T09:20:37.000Z</time>
      </trkpt>
      <trkpt lat="44.49652" lon="6.45531">
        <ele>1300.170336</ele>
        <time>2026-07-27T09:20:38.000Z</time>
      </trkpt>
      <trkpt lat="44.49652" lon="6.45531">
        <ele>1300.170336</ele>
        <time>2026-07-27T09:20:38.000Z</time>
      </trkpt>
      <trkpt lat="44.49649" lon="6.45529">
        <ele>1300.71407</ele>
        <time>2026-07-27T09:20:39.000Z</time>
      </trkpt>
      <trkpt lat="44.49649" lon="6.45529">
        <ele>1300.71407</ele>
        <time>2026-07-27T09:20:39.000Z</time>
      </trkpt>
      <trkpt lat="44.49647" lon="6.45527">
        <ele>1301.134117</ele>
        <time>2026-07-27T09:20:40.000Z</time>
      </trkpt>
      <trkpt lat="44.49647" lon="6.45527">
        <ele>1301.134117</ele>
        <time>2026-07-27T09:20:40.000Z</time>
      </trkpt>
      <trkpt lat="44.49645" lon="6.45524">
        <ele>1301.62307</ele>
        <time>2026-07-27T09:20:41.000Z</time>
      </trkpt>
      <trkpt lat="44.49645" lon="6.45524">
        <ele>1301.62307</ele>
        <time>2026-07-27T09:20:41.000Z</time>
      </trkpt>
      <trkpt lat="44.49643" lon="6.45522">
        <ele>1301.904063</ele>
        <time>2026-07-27T09:20:43.000Z</time>
      </trkpt>
      <trkpt lat="44.49643" lon="6.45522">
        <ele>1301.904063</ele>
        <time>2026-07-27T09:20:43.000Z</time>
      </trkpt>
      <trkpt lat="44.4964" lon="6.45519">
        <ele>1302.23069</ele>
        <time>2026-07-27T09:20:43.000Z</time>
      </trkpt>
      <trkpt lat="44.4964" lon="6.45519">
        <ele>1302.23069</ele>
        <time>2026-07-27T09:20:43.000Z</time>
      </trkpt>
      <trkpt lat="44.49639" lon="6.45516">
        <ele>1302.492273</ele>
        <time>2026-07-27T09:20:44.000Z</time>
      </trkpt>
      <trkpt lat="44.49639" lon="6.45516">
        <ele>1302.492273</ele>
        <time>2026-07-27T09:20:44.000Z</time>
      </trkpt>
      <trkpt lat="44.49636" lon="6.45508">
        <ele>1303.131955</ele>
        <time>2026-07-27T09:20:47.000Z</time>
      </trkpt>
      <trkpt lat="44.49636" lon="6.45508">
        <ele>1303.131955</ele>
        <time>2026-07-27T09:20:47.000Z</time>
      </trkpt>
      <trkpt lat="44.49635" lon="6.45505">
        <ele>1303.414279</ele>
        <time>2026-07-27T09:20:47.000Z</time>
      </trkpt>
      <trkpt lat="44.49635" lon="6.45505">
        <ele>1303.414279</ele>
        <time>2026-07-27T09:20:47.000Z</time>
      </trkpt>
      <trkpt lat="44.49635" lon="6.45501">
        <ele>1303.706371</ele>
        <time>2026-07-27T09:20:48.000Z</time>
      </trkpt>
      <trkpt lat="44.49635" lon="6.45501">
        <ele>1303.706371</ele>
        <time>2026-07-27T09:20:48.000Z</time>
      </trkpt>
      <trkpt lat="44.49635" lon="6.45497">
        <ele>1304.007124</ele>
        <time>2026-07-27T09:20:49.000Z</time>
      </trkpt>
      <trkpt lat="44.49635" lon="6.45497">
        <ele>1304.007124</ele>
        <time>2026-07-27T09:20:49.000Z</time>
      </trkpt>
      <trkpt lat="44.49634" lon="6.45493">
        <ele>1304.316542</ele>
        <time>2026-07-27T09:20:51.000Z</time>
      </trkpt>
      <trkpt lat="44.49634" lon="6.45493">
        <ele>1304.316542</ele>
        <time>2026-07-27T09:20:51.000Z</time>
      </trkpt>
      <trkpt lat="44.49633" lon="6.45489">
        <ele>1304.605862</ele>
        <time>2026-07-27T09:20:51.000Z</time>
      </trkpt>
      <trkpt lat="44.49633" lon="6.45489">
        <ele>1304.605862</ele>
        <time>2026-07-27T09:20:51.000Z</time>
      </trkpt>
      <trkpt lat="44.49633" lon="6.45485">
        <ele>1304.874244</ele>
        <time>2026-07-27T09:20:52.000Z</time>
      </trkpt>
      <trkpt lat="44.49633" lon="6.45485">
        <ele>1304.874244</ele>
        <time>2026-07-27T09:20:52.000Z</time>
      </trkpt>
      <trkpt lat="44.49632" lon="6.45481">
        <ele>1305.167911</ele>
        <time>2026-07-27T09:20:53.000Z</time>
      </trkpt>
      <trkpt lat="44.49632" lon="6.45481">
        <ele>1305.167911</ele>
        <time>2026-07-27T09:20:53.000Z</time>
      </trkpt>
      <trkpt lat="44.49631" lon="6.45477">
        <ele>1305.505085</ele>
        <time>2026-07-27T09:20:54.000Z</time>
      </trkpt>
      <trkpt lat="44.49631" lon="6.45477">
        <ele>1305.505085</ele>
        <time>2026-07-27T09:20:54.000Z</time>
      </trkpt>
      <trkpt lat="44.49629" lon="6.45473">
        <ele>1305.809533</ele>
        <time>2026-07-27T09:20:55.000Z</time>
      </trkpt>
      <trkpt lat="44.49629" lon="6.45473">
        <ele>1305.809533</ele>
        <time>2026-07-27T09:20:55.000Z</time>
      </trkpt>
      <trkpt lat="44.49628" lon="6.4547">
        <ele>1306.088822</ele>
        <time>2026-07-27T09:20:56.000Z</time>
      </trkpt>
      <trkpt lat="44.49628" lon="6.4547">
        <ele>1306.088822</ele>
        <time>2026-07-27T09:20:56.000Z</time>
      </trkpt>
      <trkpt lat="44.49626" lon="6.45467">
        <ele>1306.376362</ele>
        <time>2026-07-27T09:20:57.000Z</time>
      </trkpt>
      <trkpt lat="44.49624" lon="6.45464">
        <ele>1306.708092</ele>
        <time>2026-07-27T09:20:58.000Z</time>
      </trkpt>
      <trkpt lat="44.49624" lon="6.45464">
        <ele>1306.708092</ele>
        <time>2026-07-27T09:20:58.000Z</time>
      </trkpt>
      <trkpt lat="44.49622" lon="6.45462">
        <ele>1306.997314</ele>
        <time>2026-07-27T09:20:59.000Z</time>
      </trkpt>
      <trkpt lat="44.49622" lon="6.45462">
        <ele>1306.997314</ele>
        <time>2026-07-27T09:20:59.000Z</time>
      </trkpt>
      <trkpt lat="44.49619" lon="6.4546">
        <ele>1307.340816</ele>
        <time>2026-07-27T09:21:00.000Z</time>
      </trkpt>
      <trkpt lat="44.49619" lon="6.4546">
        <ele>1307.340816</ele>
        <time>2026-07-27T09:21:00.000Z</time>
      </trkpt>
      <trkpt lat="44.49616" lon="6.45458">
        <ele>1307.669411</ele>
        <time>2026-07-27T09:21:01.000Z</time>
      </trkpt>
      <trkpt lat="44.49616" lon="6.45458">
        <ele>1307.669411</ele>
        <time>2026-07-27T09:21:01.000Z</time>
      </trkpt>
      <trkpt lat="44.49612" lon="6.45458">
        <ele>1307.988864</ele>
        <time>2026-07-27T09:21:03.000Z</time>
      </trkpt>
      <trkpt lat="44.49612" lon="6.45458">
        <ele>1307.988864</ele>
        <time>2026-07-27T09:21:03.000Z</time>
      </trkpt>
      <trkpt lat="44.49609" lon="6.45458">
        <ele>1308.296073</ele>
        <time>2026-07-27T09:21:04.000Z</time>
      </trkpt>
      <trkpt lat="44.49609" lon="6.45458">
        <ele>1308.296073</ele>
        <time>2026-07-27T09:21:04.000Z</time>
      </trkpt>
      <trkpt lat="44.49606" lon="6.45458">
        <ele>1308.689455</ele>
        <time>2026-07-27T09:21:05.000Z</time>
      </trkpt>
      <trkpt lat="44.49606" lon="6.45458">
        <ele>1308.689455</ele>
        <time>2026-07-27T09:21:05.000Z</time>
      </trkpt>
      <trkpt lat="44.49602" lon="6.4546">
        <ele>1309.066332</ele>
        <time>2026-07-27T09:21:05.000Z</time>
      </trkpt>
      <trkpt lat="44.49602" lon="6.4546">
        <ele>1309.066332</ele>
        <time>2026-07-27T09:21:05.000Z</time>
      </trkpt>
      <trkpt lat="44.49601" lon="6.45463">
        <ele>1309.322041</ele>
        <time>2026-07-27T09:21:06.000Z</time>
      </trkpt>
      <trkpt lat="44.49601" lon="6.45463">
        <ele>1309.322041</ele>
        <time>2026-07-27T09:21:06.000Z</time>
      </trkpt>
      <trkpt lat="44.49599" lon="6.45466">
        <ele>1309.626489</ele>
        <time>2026-07-27T09:21:08.000Z</time>
      </trkpt>
      <trkpt lat="44.49599" lon="6.45466">
        <ele>1309.626489</ele>
        <time>2026-07-27T09:21:08.000Z</time>
      </trkpt>
      <trkpt lat="44.49599" lon="6.4547">
        <ele>1309.928672</ele>
        <time>2026-07-27T09:21:08.000Z</time>
      </trkpt>
      <trkpt lat="44.49599" lon="6.4547">
        <ele>1309.928672</ele>
        <time>2026-07-27T09:21:08.000Z</time>
      </trkpt>
      <trkpt lat="44.49598" lon="6.45475">
        <ele>1310.230855</ele>
        <time>2026-07-27T09:21:10.000Z</time>
      </trkpt>
      <trkpt lat="44.49598" lon="6.45475">
        <ele>1310.230855</ele>
        <time>2026-07-27T09:21:10.000Z</time>
      </trkpt>
      <trkpt lat="44.49599" lon="6.45479">
        <ele>1310.533038</ele>
        <time>2026-07-27T09:21:11.000Z</time>
      </trkpt>
      <trkpt lat="44.49599" lon="6.45479">
        <ele>1310.533038</ele>
        <time>2026-07-27T09:21:11.000Z</time>
      </trkpt>
      <trkpt lat="44.49599" lon="6.45483">
        <ele>1310.861643</ele>
        <time>2026-07-27T09:21:11.000Z</time>
      </trkpt>
      <trkpt lat="44.49599" lon="6.45483">
        <ele>1310.861643</ele>
        <time>2026-07-27T09:21:11.000Z</time>
      </trkpt>
      <trkpt lat="44.49598" lon="6.45488">
        <ele>1311.221792</ele>
        <time>2026-07-27T09:21:12.000Z</time>
      </trkpt>
      <trkpt lat="44.49598" lon="6.45488">
        <ele>1311.221792</ele>
        <time>2026-07-27T09:21:12.000Z</time>
      </trkpt>
      <trkpt lat="44.49598" lon="6.45493">
        <ele>1311.594211</ele>
        <time>2026-07-27T09:21:13.000Z</time>
      </trkpt>
      <trkpt lat="44.49598" lon="6.45493">
        <ele>1311.594211</ele>
        <time>2026-07-27T09:21:13.000Z</time>
      </trkpt>
      <trkpt lat="44.49598" lon="6.45497">
        <ele>1311.890544</ele>
        <time>2026-07-27T09:21:15.000Z</time>
      </trkpt>
      <trkpt lat="44.49598" lon="6.45497">
        <ele>1311.890544</ele>
        <time>2026-07-27T09:21:15.000Z</time>
      </trkpt>
      <trkpt lat="44.49596" lon="6.455">
        <ele>1312.164086</ele>
        <time>2026-07-27T09:21:15.000Z</time>
      </trkpt>
      <trkpt lat="44.49596" lon="6.455">
        <ele>1312.164086</ele>
        <time>2026-07-27T09:21:15.000Z</time>
      </trkpt>
      <trkpt lat="44.49595" lon="6.45502">
        <ele>1312.35271</ele>
        <time>2026-07-27T09:21:17.000Z</time>
      </trkpt>
      <trkpt lat="44.49595" lon="6.45502">
        <ele>1312.35271</ele>
        <time>2026-07-27T09:21:17.000Z</time>
      </trkpt>
      <trkpt lat="44.49593" lon="6.45502">
        <ele>1312.512399</ele>
        <time>2026-07-27T09:21:17.000Z</time>
      </trkpt>
      <trkpt lat="44.49593" lon="6.45502">
        <ele>1312.512399</ele>
        <time>2026-07-27T09:21:17.000Z</time>
      </trkpt>
      <trkpt lat="44.49591" lon="6.45502">
        <ele>1312.678781</ele>
        <time>2026-07-27T09:21:18.000Z</time>
      </trkpt>
      <trkpt lat="44.49591" lon="6.45502">
        <ele>1312.678781</ele>
        <time>2026-07-27T09:21:18.000Z</time>
      </trkpt>
      <trkpt lat="44.4959" lon="6.45501">
        <ele>1312.879896</ele>
        <time>2026-07-27T09:21:19.000Z</time>
      </trkpt>
      <trkpt lat="44.4959" lon="6.45501">
        <ele>1312.879896</ele>
        <time>2026-07-27T09:21:19.000Z</time>
      </trkpt>
      <trkpt lat="44.49587" lon="6.455">
        <ele>1313.127236</ele>
        <time>2026-07-27T09:21:20.000Z</time>
      </trkpt>
      <trkpt lat="44.49587" lon="6.455">
        <ele>1313.127236</ele>
        <time>2026-07-27T09:21:20.000Z</time>
      </trkpt>
      <trkpt lat="44.49585" lon="6.45498">
        <ele>1313.424557</ele>
        <time>2026-07-27T09:21:21.000Z</time>
      </trkpt>
      <trkpt lat="44.49585" lon="6.45498">
        <ele>1313.424557</ele>
        <time>2026-07-27T09:21:21.000Z</time>
      </trkpt>
      <trkpt lat="44.49582" lon="6.45497">
        <ele>1313.681254</ele>
        <time>2026-07-27T09:21:23.000Z</time>
      </trkpt>
      <trkpt lat="44.49582" lon="6.45497">
        <ele>1313.681254</ele>
        <time>2026-07-27T09:21:23.000Z</time>
      </trkpt>
      <trkpt lat="44.4958" lon="6.45496">
        <ele>1313.963769</ele>
        <time>2026-07-27T09:21:23.000Z</time>
      </trkpt>
      <trkpt lat="44.4958" lon="6.45496">
        <ele>1313.963769</ele>
        <time>2026-07-27T09:21:23.000Z</time>
      </trkpt>
      <trkpt lat="44.49577" lon="6.45496">
        <ele>1314.271238</ele>
        <time>2026-07-27T09:21:24.000Z</time>
      </trkpt>
      <trkpt lat="44.49577" lon="6.45496">
        <ele>1314.271238</ele>
        <time>2026-07-27T09:21:24.000Z</time>
      </trkpt>
      <trkpt lat="44.49574" lon="6.45497">
        <ele>1314.517762</ele>
        <time>2026-07-27T09:21:25.000Z</time>
      </trkpt>
      <trkpt lat="44.49574" lon="6.45497">
        <ele>1314.517762</ele>
        <time>2026-07-27T09:21:25.000Z</time>
      </trkpt>
      <trkpt lat="44.49572" lon="6.45499">
        <ele>1314.802806</ele>
        <time>2026-07-27T09:21:26.000Z</time>
      </trkpt>
      <trkpt lat="44.49572" lon="6.45499">
        <ele>1314.802806</ele>
        <time>2026-07-27T09:21:26.000Z</time>
      </trkpt>
      <trkpt lat="44.49571" lon="6.45501">
        <ele>1315.025045</ele>
        <time>2026-07-27T09:21:28.000Z</time>
      </trkpt>
      <trkpt lat="44.49571" lon="6.45501">
        <ele>1315.025045</ele>
        <time>2026-07-27T09:21:28.000Z</time>
      </trkpt>
      <trkpt lat="44.49568" lon="6.45503">
        <ele>1315.306039</ele>
        <time>2026-07-27T09:21:28.000Z</time>
      </trkpt>
      <trkpt lat="44.49568" lon="6.45503">
        <ele>1315.306039</ele>
        <time>2026-07-27T09:21:28.000Z</time>
      </trkpt>
      <trkpt lat="44.49567" lon="6.45507">
        <ele>1315.604206</ele>
        <time>2026-07-27T09:21:29.000Z</time>
      </trkpt>
      <trkpt lat="44.49567" lon="6.45507">
        <ele>1315.604206</ele>
        <time>2026-07-27T09:21:29.000Z</time>
      </trkpt>
      <trkpt lat="44.49565" lon="6.4551">
        <ele>1315.888451</ele>
        <time>2026-07-27T09:21:30.000Z</time>
      </trkpt>
      <trkpt lat="44.49565" lon="6.4551">
        <ele>1315.888451</ele>
        <time>2026-07-27T09:21:30.000Z</time>
      </trkpt>
      <trkpt lat="44.49563" lon="6.45512">
        <ele>1316.192641</ele>
        <time>2026-07-27T09:21:31.000Z</time>
      </trkpt>
      <trkpt lat="44.49563" lon="6.45512">
        <ele>1316.192641</ele>
        <time>2026-07-27T09:21:31.000Z</time>
      </trkpt>
      <trkpt lat="44.4956" lon="6.45515">
        <ele>1316.532165</ele>
        <time>2026-07-27T09:21:32.000Z</time>
      </trkpt>
      <trkpt lat="44.4956" lon="6.45515">
        <ele>1316.532165</ele>
        <time>2026-07-27T09:21:32.000Z</time>
      </trkpt>
      <trkpt lat="44.49557" lon="6.45518">
        <ele>1316.905783</ele>
        <time>2026-07-27T09:21:34.000Z</time>
      </trkpt>
      <trkpt lat="44.49557" lon="6.45518">
        <ele>1316.905783</ele>
        <time>2026-07-27T09:21:34.000Z</time>
      </trkpt>
      <trkpt lat="44.49554" lon="6.4552">
        <ele>1317.203725</ele>
        <time>2026-07-27T09:21:35.000Z</time>
      </trkpt>
      <trkpt lat="44.49554" lon="6.4552">
        <ele>1317.203725</ele>
        <time>2026-07-27T09:21:35.000Z</time>
      </trkpt>
      <trkpt lat="44.49553" lon="6.45523">
        <ele>1317.465544</ele>
        <time>2026-07-27T09:21:36.000Z</time>
      </trkpt>
      <trkpt lat="44.49553" lon="6.45523">
        <ele>1317.465544</ele>
        <time>2026-07-27T09:21:36.000Z</time>
      </trkpt>
      <trkpt lat="44.4955" lon="6.45525">
        <ele>1317.772652</ele>
        <time>2026-07-27T09:21:36.000Z</time>
      </trkpt>
      <trkpt lat="44.4955" lon="6.45525">
        <ele>1317.772652</ele>
        <time>2026-07-27T09:21:36.000Z</time>
      </trkpt>
      <trkpt lat="44.49548" lon="6.45528">
        <ele>1318.12207</ele>
        <time>2026-07-27T09:21:37.000Z</time>
      </trkpt>
      <trkpt lat="44.49548" lon="6.45528">
        <ele>1318.12207</ele>
        <time>2026-07-27T09:21:37.000Z</time>
      </trkpt>
      <trkpt lat="44.49545" lon="6.45531">
        <ele>1318.429178</ele>
        <time>2026-07-27T09:21:38.000Z</time>
      </trkpt>
      <trkpt lat="44.49545" lon="6.45531">
        <ele>1318.429178</ele>
        <time>2026-07-27T09:21:38.000Z</time>
      </trkpt>
      <trkpt lat="44.49542" lon="6.45534">
        <ele>1318.825664</ele>
        <time>2026-07-27T09:21:39.000Z</time>
      </trkpt>
      <trkpt lat="44.49542" lon="6.45534">
        <ele>1318.825664</ele>
        <time>2026-07-27T09:21:39.000Z</time>
      </trkpt>
      <trkpt lat="44.4954" lon="6.45537">
        <ele>1319.147276</ele>
        <time>2026-07-27T09:21:41.000Z</time>
      </trkpt>
      <trkpt lat="44.4954" lon="6.45537">
        <ele>1319.147276</ele>
        <time>2026-07-27T09:21:41.000Z</time>
      </trkpt>
      <trkpt lat="44.49537" lon="6.4554">
        <ele>1319.504554</ele>
        <time>2026-07-27T09:21:41.000Z</time>
      </trkpt>
      <trkpt lat="44.49534" lon="6.45543">
        <ele>1319.861832</ele>
        <time>2026-07-27T09:21:42.000Z</time>
      </trkpt>
      <trkpt lat="44.49534" lon="6.45543">
        <ele>1319.861832</ele>
        <time>2026-07-27T09:21:42.000Z</time>
      </trkpt>
      <trkpt lat="44.49532" lon="6.45546">
        <ele>1320.136563</ele>
        <time>2026-07-27T09:21:43.000Z</time>
      </trkpt>
      <trkpt lat="44.4953" lon="6.45549">
        <ele>1320.461958</ele>
        <time>2026-07-27T09:21:45.000Z</time>
      </trkpt>
      <trkpt lat="44.4953" lon="6.45549">
        <ele>1320.461958</ele>
        <time>2026-07-27T09:21:45.000Z</time>
      </trkpt>
      <trkpt lat="44.49527" lon="6.45551">
        <ele>1320.789072</ele>
        <time>2026-07-27T09:21:46.000Z</time>
      </trkpt>
      <trkpt lat="44.49523" lon="6.45553">
        <ele>1321.147313</ele>
        <time>2026-07-27T09:21:47.000Z</time>
      </trkpt>
      <trkpt lat="44.49521" lon="6.45554">
        <ele>1321.412815</ele>
        <time>2026-07-27T09:21:47.000Z</time>
      </trkpt>
      <trkpt lat="44.49519" lon="6.45555">
        <ele>1321.600754</ele>
        <time>2026-07-27T09:21:48.000Z</time>
      </trkpt>
      <trkpt lat="44.49519" lon="6.45555">
        <ele>1321.600754</ele>
        <time>2026-07-27T09:21:48.000Z</time>
      </trkpt>
      <trkpt lat="44.49517" lon="6.45555">
        <ele>1321.720517</ele>
        <time>2026-07-27T09:21:49.000Z</time>
      </trkpt>
      <trkpt lat="44.49517" lon="6.45555">
        <ele>1321.720517</ele>
        <time>2026-07-27T09:21:50.000Z</time>
      </trkpt>
      <trkpt lat="44.49515" lon="6.45556">
        <ele>1321.936337</ele>
        <time>2026-07-27T09:21:52.000Z</time>
      </trkpt>
      <trkpt lat="44.49514" lon="6.45556">
        <ele>1322.017592</ele>
        <time>2026-07-27T09:21:53.000Z</time>
      </trkpt>
      <trkpt lat="44.49514" lon="6.45556">
        <ele>1322.017592</ele>
        <time>2026-07-27T09:21:53.000Z</time>
      </trkpt>
      <trkpt lat="44.49514" lon="6.45555">
        <ele>1322.12013</ele>
        <time>2026-07-27T09:21:54.000Z</time>
      </trkpt>
      <trkpt lat="44.49513" lon="6.45553">
        <ele>1322.210519</ele>
        <time>2026-07-27T09:21:54.000Z</time>
      </trkpt>
      <trkpt lat="44.49513" lon="6.45552">
        <ele>1322.299231</ele>
        <time>2026-07-27T09:21:55.000Z</time>
      </trkpt>
      <trkpt lat="44.49513" lon="6.4555">
        <ele>1322.445381</ele>
        <time>2026-07-27T09:21:56.000Z</time>
      </trkpt>
      <trkpt lat="44.49513" lon="6.4555">
        <ele>1322.445381</ele>
        <time>2026-07-27T09:21:56.000Z</time>
      </trkpt>
      <trkpt lat="44.49513" lon="6.45547">
        <ele>1322.625111</ele>
        <time>2026-07-27T09:21:57.000Z</time>
      </trkpt>
      <trkpt lat="44.49514" lon="6.45545">
        <ele>1322.806615</ele>
        <time>2026-07-27T09:21:58.000Z</time>
      </trkpt>
      <trkpt lat="44.49514" lon="6.45545">
        <ele>1322.806615</ele>
        <time>2026-07-27T09:21:58.000Z</time>
      </trkpt>
      <trkpt lat="44.49514" lon="6.45543">
        <ele>1322.936271</ele>
        <time>2026-07-27T09:22:00.000Z</time>
      </trkpt>
      <trkpt lat="44.49514" lon="6.45543">
        <ele>1322.936271</ele>
        <time>2026-07-27T09:22:00.000Z</time>
      </trkpt>
      <trkpt lat="44.49514" lon="6.45541">
        <ele>1323.071457</ele>
        <time>2026-07-27T09:22:00.000Z</time>
      </trkpt>
      <trkpt lat="44.49515" lon="6.45539">
        <ele>1323.255074</ele>
        <time>2026-07-27T09:22:01.000Z</time>
      </trkpt>
      <trkpt lat="44.49515" lon="6.45539">
        <ele>1323.255074</ele>
        <time>2026-07-27T09:22:01.000Z</time>
      </trkpt>
      <trkpt lat="44.49516" lon="6.45536">
        <ele>1323.444715</ele>
        <time>2026-07-27T09:22:02.000Z</time>
      </trkpt>
      <trkpt lat="44.49516" lon="6.45536">
        <ele>1323.444715</ele>
        <time>2026-07-27T09:22:02.000Z</time>
      </trkpt>
      <trkpt lat="44.49516" lon="6.45534">
        <ele>1323.632895</ele>
        <time>2026-07-27T09:22:03.000Z</time>
      </trkpt>
      <trkpt lat="44.49516" lon="6.45534">
        <ele>1323.632895</ele>
        <time>2026-07-27T09:22:03.000Z</time>
      </trkpt>
      <trkpt lat="44.49517" lon="6.45531">
        <ele>1323.787824</ele>
        <time>2026-07-27T09:22:05.000Z</time>
      </trkpt>
      <trkpt lat="44.49517" lon="6.45531">
        <ele>1323.787824</ele>
        <time>2026-07-27T09:22:05.000Z</time>
      </trkpt>
      <trkpt lat="44.49517" lon="6.45529">
        <ele>1323.976004</ele>
        <time>2026-07-27T09:22:05.000Z</time>
      </trkpt>
      <trkpt lat="44.49517" lon="6.45529">
        <ele>1323.976004</ele>
        <time>2026-07-27T09:22:05.000Z</time>
      </trkpt>
      <trkpt lat="44.49517" lon="6.45526">
        <ele>1324.182726</ele>
        <time>2026-07-27T09:22:06.000Z</time>
      </trkpt>
      <trkpt lat="44.49517" lon="6.45526">
        <ele>1324.182726</ele>
        <time>2026-07-27T09:22:06.000Z</time>
      </trkpt>
      <trkpt lat="44.49519" lon="6.45523">
        <ele>1324.399812</ele>
        <time>2026-07-27T09:22:07.000Z</time>
      </trkpt>
      <trkpt lat="44.49519" lon="6.45523">
        <ele>1324.399812</ele>
        <time>2026-07-27T09:22:07.000Z</time>
      </trkpt>
      <trkpt lat="44.49519" lon="6.45521">
        <ele>1324.567999</ele>
        <time>2026-07-27T09:22:09.000Z</time>
      </trkpt>
      <trkpt lat="44.49519" lon="6.45521">
        <ele>1324.567999</ele>
        <time>2026-07-27T09:22:09.000Z</time>
      </trkpt>
      <trkpt lat="44.4952" lon="6.45517">
        <ele>1324.828995</ele>
        <time>2026-07-27T09:22:10.000Z</time>
      </trkpt>
      <trkpt lat="44.4952" lon="6.45517">
        <ele>1324.828995</ele>
        <time>2026-07-27T09:22:10.000Z</time>
      </trkpt>
      <trkpt lat="44.49521" lon="6.45514">
        <ele>1325.081761</ele>
        <time>2026-07-27T09:22:10.000Z</time>
      </trkpt>
      <trkpt lat="44.49521" lon="6.45514">
        <ele>1325.081761</ele>
        <time>2026-07-27T09:22:10.000Z</time>
      </trkpt>
      <trkpt lat="44.49522" lon="6.45511">
        <ele>1325.271402</ele>
        <time>2026-07-27T09:22:11.000Z</time>
      </trkpt>
      <trkpt lat="44.49522" lon="6.45511">
        <ele>1325.271402</ele>
        <time>2026-07-27T09:22:11.000Z</time>
      </trkpt>
      <trkpt lat="44.49523" lon="6.45508">
        <ele>1325.512089</ele>
        <time>2026-07-27T09:22:12.000Z</time>
      </trkpt>
      <trkpt lat="44.49523" lon="6.45508">
        <ele>1325.512089</ele>
        <time>2026-07-27T09:22:12.000Z</time>
      </trkpt>
      <trkpt lat="44.49524" lon="6.45506">
        <ele>1325.689027</ele>
        <time>2026-07-27T09:22:13.000Z</time>
      </trkpt>
      <trkpt lat="44.49524" lon="6.45506">
        <ele>1325.689027</ele>
        <time>2026-07-27T09:22:13.000Z</time>
      </trkpt>
      <trkpt lat="44.49525" lon="6.45502">
        <ele>1325.954024</ele>
        <time>2026-07-27T09:22:15.000Z</time>
      </trkpt>
      <trkpt lat="44.49525" lon="6.45502">
        <ele>1325.954024</ele>
        <time>2026-07-27T09:22:15.000Z</time>
      </trkpt>
      <trkpt lat="44.49527" lon="6.45498">
        <ele>1326.250394</ele>
        <time>2026-07-27T09:22:15.000Z</time>
      </trkpt>
      <trkpt lat="44.49527" lon="6.45498">
        <ele>1326.250394</ele>
        <time>2026-07-27T09:22:15.000Z</time>
      </trkpt>
      <trkpt lat="44.49528" lon="6.45494">
        <ele>1326.577035</ele>
        <time>2026-07-27T09:22:17.000Z</time>
      </trkpt>
      <trkpt lat="44.49528" lon="6.45494">
        <ele>1326.577035</ele>
        <time>2026-07-27T09:22:17.000Z</time>
      </trkpt>
      <trkpt lat="44.4953" lon="6.4549">
        <ele>1326.943801</ele>
        <time>2026-07-27T09:22:17.000Z</time>
      </trkpt>
      <trkpt lat="44.4953" lon="6.4549">
        <ele>1326.943801</ele>
        <time>2026-07-27T09:22:17.000Z</time>
      </trkpt>
      <trkpt lat="44.49533" lon="6.45485">
        <ele>1327.338395</ele>
        <time>2026-07-27T09:22:18.000Z</time>
      </trkpt>
      <trkpt lat="44.49533" lon="6.45485">
        <ele>1327.338395</ele>
        <time>2026-07-27T09:22:18.000Z</time>
      </trkpt>
      <trkpt lat="44.49534" lon="6.45481">
        <ele>1327.65892</ele>
        <time>2026-07-27T09:22:20.000Z</time>
      </trkpt>
      <trkpt lat="44.49534" lon="6.45481">
        <ele>1327.65892</ele>
        <time>2026-07-27T09:22:20.000Z</time>
      </trkpt>
      <trkpt lat="44.49535" lon="6.45476">
        <ele>1327.986757</ele>
        <time>2026-07-27T09:22:20.000Z</time>
      </trkpt>
      <trkpt lat="44.49535" lon="6.45476">
        <ele>1327.986757</ele>
        <time>2026-07-27T09:22:20.000Z</time>
      </trkpt>
      <trkpt lat="44.49537" lon="6.45472">
        <ele>1328.338123</ele>
        <time>2026-07-27T09:22:22.000Z</time>
      </trkpt>
      <trkpt lat="44.49537" lon="6.45472">
        <ele>1328.338123</ele>
        <time>2026-07-27T09:22:22.000Z</time>
      </trkpt>
      <trkpt lat="44.49538" lon="6.45467">
        <ele>1328.677077</ele>
        <time>2026-07-27T09:22:23.000Z</time>
      </trkpt>
      <trkpt lat="44.49538" lon="6.45467">
        <ele>1328.677077</ele>
        <time>2026-07-27T09:22:23.000Z</time>
      </trkpt>
      <trkpt lat="44.4954" lon="6.45462">
        <ele>1329.017731</ele>
        <time>2026-07-27T09:22:23.000Z</time>
      </trkpt>
      <trkpt lat="44.4954" lon="6.45462">
        <ele>1329.017731</ele>
        <time>2026-07-27T09:22:23.000Z</time>
      </trkpt>
      <trkpt lat="44.49541" lon="6.45458">
        <ele>1329.348804</ele>
        <time>2026-07-27T09:22:25.000Z</time>
      </trkpt>
      <trkpt lat="44.49541" lon="6.45458">
        <ele>1329.348804</ele>
        <time>2026-07-27T09:22:25.000Z</time>
      </trkpt>
      <trkpt lat="44.49542" lon="6.45454">
        <ele>1329.657185</ele>
        <time>2026-07-27T09:22:26.000Z</time>
      </trkpt>
      <trkpt lat="44.49542" lon="6.45454">
        <ele>1329.657185</ele>
        <time>2026-07-27T09:22:26.000Z</time>
      </trkpt>
      <trkpt lat="44.49544" lon="6.45449">
        <ele>1330.000299</ele>
        <time>2026-07-27T09:22:26.000Z</time>
      </trkpt>
      <trkpt lat="44.49544" lon="6.45449">
        <ele>1330.000299</ele>
        <time>2026-07-27T09:22:26.000Z</time>
      </trkpt>
      <trkpt lat="44.49545" lon="6.45444">
        <ele>1330.370446</ele>
        <time>2026-07-27T09:22:27.000Z</time>
      </trkpt>
      <trkpt lat="44.49545" lon="6.45444">
        <ele>1330.370446</ele>
        <time>2026-07-27T09:22:27.000Z</time>
      </trkpt>
      <trkpt lat="44.49547" lon="6.4544">
        <ele>1330.70323</ele>
        <time>2026-07-27T09:22:29.000Z</time>
      </trkpt>
      <trkpt lat="44.49547" lon="6.4544">
        <ele>1330.70323</ele>
        <time>2026-07-27T09:22:29.000Z</time>
      </trkpt>
      <trkpt lat="44.49549" lon="6.45435">
        <ele>1331.089825</ele>
        <time>2026-07-27T09:22:29.000Z</time>
      </trkpt>
      <trkpt lat="44.49549" lon="6.45435">
        <ele>1331.089825</ele>
        <time>2026-07-27T09:22:29.000Z</time>
      </trkpt>
      <trkpt lat="44.4955" lon="6.4543">
        <ele>1331.452831</ele>
        <time>2026-07-27T09:22:30.000Z</time>
      </trkpt>
      <trkpt lat="44.4955" lon="6.4543">
        <ele>1331.452831</ele>
        <time>2026-07-27T09:22:30.000Z</time>
      </trkpt>
      <trkpt lat="44.49551" lon="6.45424">
        <ele>1331.8295</ele>
        <time>2026-07-27T09:22:31.000Z</time>
      </trkpt>
      <trkpt lat="44.49551" lon="6.45424">
        <ele>1331.8295</ele>
        <time>2026-07-27T09:22:31.000Z</time>
      </trkpt>
      <trkpt lat="44.49552" lon="6.4542">
        <ele>1332.170153</ele>
        <time>2026-07-27T09:22:33.000Z</time>
      </trkpt>
      <trkpt lat="44.49552" lon="6.4542">
        <ele>1332.170153</ele>
        <time>2026-07-27T09:22:33.000Z</time>
      </trkpt>
      <trkpt lat="44.49552" lon="6.45415">
        <ele>1332.466068</ele>
        <time>2026-07-27T09:22:33.000Z</time>
      </trkpt>
      <trkpt lat="44.49552" lon="6.45415">
        <ele>1332.466068</ele>
        <time>2026-07-27T09:22:33.000Z</time>
      </trkpt>
      <trkpt lat="44.49553" lon="6.4541">
        <ele>1332.816611</ele>
        <time>2026-07-27T09:22:34.000Z</time>
      </trkpt>
      <trkpt lat="44.49553" lon="6.4541">
        <ele>1332.816611</ele>
        <time>2026-07-27T09:22:34.000Z</time>
      </trkpt>
      <trkpt lat="44.49554" lon="6.45405">
        <ele>1333.173669</ele>
        <time>2026-07-27T09:22:36.000Z</time>
      </trkpt>
      <trkpt lat="44.49555" lon="6.45401">
        <ele>1333.510041</ele>
        <time>2026-07-27T09:22:36.000Z</time>
      </trkpt>
      <trkpt lat="44.49555" lon="6.45401">
        <ele>1333.510041</ele>
        <time>2026-07-27T09:22:36.000Z</time>
      </trkpt>
      <trkpt lat="44.49556" lon="6.45395">
        <ele>1333.893083</ele>
        <time>2026-07-27T09:22:37.000Z</time>
      </trkpt>
      <trkpt lat="44.49556" lon="6.45395">
        <ele>1333.893083</ele>
        <time>2026-07-27T09:22:37.000Z</time>
      </trkpt>
      <trkpt lat="44.49556" lon="6.4539">
        <ele>1334.235486</ele>
        <time>2026-07-27T09:22:38.000Z</time>
      </trkpt>
      <trkpt lat="44.49556" lon="6.4539">
        <ele>1334.235486</ele>
        <time>2026-07-27T09:22:38.000Z</time>
      </trkpt>
      <trkpt lat="44.49556" lon="6.45385">
        <ele>1334.56986</ele>
        <time>2026-07-27T09:22:39.000Z</time>
      </trkpt>
      <trkpt lat="44.49556" lon="6.45385">
        <ele>1334.56986</ele>
        <time>2026-07-27T09:22:39.000Z</time>
      </trkpt>
      <trkpt lat="44.49557" lon="6.4538">
        <ele>1334.913197</ele>
        <time>2026-07-27T09:22:41.000Z</time>
      </trkpt>
      <trkpt lat="44.49557" lon="6.4538">
        <ele>1334.913197</ele>
        <time>2026-07-27T09:22:41.000Z</time>
      </trkpt>
      <trkpt lat="44.49556" lon="6.45375">
        <ele>1335.249754</ele>
        <time>2026-07-27T09:22:42.000Z</time>
      </trkpt>
      <trkpt lat="44.49556" lon="6.45375">
        <ele>1335.249754</ele>
        <time>2026-07-27T09:22:42.000Z</time>
      </trkpt>
      <trkpt lat="44.49556" lon="6.45371">
        <ele>1335.571761</ele>
        <time>2026-07-27T09:22:42.000Z</time>
      </trkpt>
      <trkpt lat="44.49556" lon="6.45371">
        <ele>1335.571761</ele>
        <time>2026-07-27T09:22:42.000Z</time>
      </trkpt>
      <trkpt lat="44.49555" lon="6.45366">
        <ele>1335.905997</ele>
        <time>2026-07-27T09:22:43.000Z</time>
      </trkpt>
      <trkpt lat="44.49555" lon="6.45366">
        <ele>1335.905997</ele>
        <time>2026-07-27T09:22:43.000Z</time>
      </trkpt>
      <trkpt lat="44.49554" lon="6.45361">
        <ele>1336.25654</ele>
        <time>2026-07-27T09:22:45.000Z</time>
      </trkpt>
      <trkpt lat="44.49554" lon="6.45361">
        <ele>1336.25654</ele>
        <time>2026-07-27T09:22:45.000Z</time>
      </trkpt>
      <trkpt lat="44.49553" lon="6.45356">
        <ele>1336.616534</ele>
        <time>2026-07-27T09:22:45.000Z</time>
      </trkpt>
      <trkpt lat="44.49553" lon="6.45356">
        <ele>1336.616534</ele>
        <time>2026-07-27T09:22:45.000Z</time>
      </trkpt>
      <trkpt lat="44.49551" lon="6.45351">
        <ele>1336.973592</ele>
        <time>2026-07-27T09:22:47.000Z</time>
      </trkpt>
      <trkpt lat="44.49551" lon="6.45351">
        <ele>1336.973592</ele>
        <time>2026-07-27T09:22:47.000Z</time>
      </trkpt>
      <trkpt lat="44.4955" lon="6.45346">
        <ele>1337.332167</ele>
        <time>2026-07-27T09:22:47.000Z</time>
      </trkpt>
      <trkpt lat="44.4955" lon="6.45346">
        <ele>1337.332167</ele>
        <time>2026-07-27T09:22:47.000Z</time>
      </trkpt>
      <trkpt lat="44.49549" lon="6.45341">
        <ele>1337.760535</ele>
        <time>2026-07-27T09:22:48.000Z</time>
      </trkpt>
      <trkpt lat="44.49549" lon="6.45341">
        <ele>1337.760535</ele>
        <time>2026-07-27T09:22:48.000Z</time>
      </trkpt>
      <trkpt lat="44.49548" lon="6.45335">
        <ele>1338.233791</ele>
        <time>2026-07-27T09:22:50.000Z</time>
      </trkpt>
      <trkpt lat="44.49548" lon="6.45335">
        <ele>1338.233791</ele>
        <time>2026-07-27T09:22:50.000Z</time>
      </trkpt>
      <trkpt lat="44.49547" lon="6.45329">
        <ele>1338.73984</ele>
        <time>2026-07-27T09:22:50.000Z</time>
      </trkpt>
      <trkpt lat="44.49547" lon="6.45329">
        <ele>1338.73984</ele>
        <time>2026-07-27T09:22:50.000Z</time>
      </trkpt>
      <trkpt lat="44.49546" lon="6.45323">
        <ele>1339.205914</ele>
        <time>2026-07-27T09:22:52.000Z</time>
      </trkpt>
      <trkpt lat="44.49546" lon="6.45323">
        <ele>1339.205914</ele>
        <time>2026-07-27T09:22:52.000Z</time>
      </trkpt>
      <trkpt lat="44.49545" lon="6.45317">
        <ele>1339.694203</ele>
        <time>2026-07-27T09:22:52.000Z</time>
      </trkpt>
      <trkpt lat="44.49545" lon="6.45317">
        <ele>1339.694203</ele>
        <time>2026-07-27T09:22:52.000Z</time>
      </trkpt>
      <trkpt lat="44.49545" lon="6.45311">
        <ele>1340.123249</ele>
        <time>2026-07-27T09:22:53.000Z</time>
      </trkpt>
      <trkpt lat="44.49545" lon="6.45311">
        <ele>1340.123249</ele>
        <time>2026-07-27T09:22:53.000Z</time>
      </trkpt>
      <trkpt lat="44.49544" lon="6.45306">
        <ele>1340.575462</ele>
        <time>2026-07-27T09:22:54.000Z</time>
      </trkpt>
      <trkpt lat="44.49544" lon="6.45306">
        <ele>1340.575462</ele>
        <time>2026-07-27T09:22:54.000Z</time>
      </trkpt>
      <trkpt lat="44.49544" lon="6.453">
        <ele>1341.011279</ele>
        <time>2026-07-27T09:22:56.000Z</time>
      </trkpt>
      <trkpt lat="44.49544" lon="6.453">
        <ele>1341.011279</ele>
        <time>2026-07-27T09:22:56.000Z</time>
      </trkpt>
      <trkpt lat="44.49543" lon="6.45294">
        <ele>1341.446895</ele>
        <time>2026-07-27T09:22:56.000Z</time>
      </trkpt>
      <trkpt lat="44.49543" lon="6.45294">
        <ele>1341.446895</ele>
        <time>2026-07-27T09:22:56.000Z</time>
      </trkpt>
      <trkpt lat="44.49542" lon="6.45289">
        <ele>1341.882512</ele>
        <time>2026-07-27T09:22:58.000Z</time>
      </trkpt>
      <trkpt lat="44.49542" lon="6.45289">
        <ele>1341.882512</ele>
        <time>2026-07-27T09:22:58.000Z</time>
      </trkpt>
      <trkpt lat="44.49542" lon="6.45284">
        <ele>1342.308448</ele>
        <time>2026-07-27T09:22:59.000Z</time>
      </trkpt>
      <trkpt lat="44.49542" lon="6.45284">
        <ele>1342.308448</ele>
        <time>2026-07-27T09:22:59.000Z</time>
      </trkpt>
      <trkpt lat="44.49541" lon="6.45279">
        <ele>1342.683437</ele>
        <time>2026-07-27T09:22:59.000Z</time>
      </trkpt>
      <trkpt lat="44.49541" lon="6.45279">
        <ele>1342.683437</ele>
        <time>2026-07-27T09:22:59.000Z</time>
      </trkpt>
      <trkpt lat="44.4954" lon="6.45274">
        <ele>1343.027665</ele>
        <time>2026-07-27T09:23:00.000Z</time>
      </trkpt>
      <trkpt lat="44.4954" lon="6.45274">
        <ele>1343.027665</ele>
        <time>2026-07-27T09:23:00.000Z</time>
      </trkpt>
      <trkpt lat="44.4954" lon="6.4527">
        <ele>1343.348812</ele>
        <time>2026-07-27T09:23:01.000Z</time>
      </trkpt>
      <trkpt lat="44.4954" lon="6.4527">
        <ele>1343.348812</ele>
        <time>2026-07-27T09:23:01.000Z</time>
      </trkpt>
      <trkpt lat="44.4954" lon="6.45267">
        <ele>1343.635954</ele>
        <time>2026-07-27T09:23:03.000Z</time>
      </trkpt>
      <trkpt lat="44.4954" lon="6.45267">
        <ele>1343.635954</ele>
        <time>2026-07-27T09:23:03.000Z</time>
      </trkpt>
      <trkpt lat="44.49539" lon="6.45263">
        <ele>1343.910586</ele>
        <time>2026-07-27T09:23:04.000Z</time>
      </trkpt>
      <trkpt lat="44.49539" lon="6.45263">
        <ele>1343.910586</ele>
        <time>2026-07-27T09:23:04.000Z</time>
      </trkpt>
      <trkpt lat="44.49538" lon="6.45261">
        <ele>1344.157467</ele>
        <time>2026-07-27T09:23:05.000Z</time>
      </trkpt>
      <trkpt lat="44.49538" lon="6.45261">
        <ele>1344.157467</ele>
        <time>2026-07-27T09:23:05.000Z</time>
      </trkpt>
      <trkpt lat="44.49537" lon="6.45259">
        <ele>1344.304471</ele>
        <time>2026-07-27T09:23:05.000Z</time>
      </trkpt>
      <trkpt lat="44.49537" lon="6.45259">
        <ele>1344.304471</ele>
        <time>2026-07-27T09:23:05.000Z</time>
      </trkpt>
      <trkpt lat="44.49536" lon="6.45259">
        <ele>1344.392882</ele>
        <time>2026-07-27T09:23:07.000Z</time>
      </trkpt>
      <trkpt lat="44.49536" lon="6.45259">
        <ele>1344.392882</ele>
        <time>2026-07-27T09:23:07.000Z</time>
      </trkpt>
      <trkpt lat="44.49536" lon="6.4526">
        <ele>1344.432974</ele>
        <time>2026-07-27T09:23:07.000Z</time>
      </trkpt>
      <trkpt lat="44.49535" lon="6.45261">
        <ele>1344.602826</ele>
        <time>2026-07-27T09:23:09.000Z</time>
      </trkpt>
      <trkpt lat="44.49534" lon="6.45263">
        <ele>1344.764024</ele>
        <time>2026-07-27T09:23:09.000Z</time>
      </trkpt>
      <trkpt lat="44.49534" lon="6.45263">
        <ele>1344.764024</ele>
        <time>2026-07-27T09:23:09.000Z</time>
      </trkpt>
      <trkpt lat="44.49534" lon="6.45265">
        <ele>1344.965247</ele>
        <time>2026-07-27T09:23:10.000Z</time>
      </trkpt>
      <trkpt lat="44.49534" lon="6.45265">
        <ele>1344.965247</ele>
        <time>2026-07-27T09:23:10.000Z</time>
      </trkpt>
      <trkpt lat="44.49533" lon="6.45268">
        <ele>1345.202098</ele>
        <time>2026-07-27T09:23:11.000Z</time>
      </trkpt>
      <trkpt lat="44.49533" lon="6.45268">
        <ele>1345.202098</ele>
        <time>2026-07-27T09:23:11.000Z</time>
      </trkpt>
      <trkpt lat="44.49533" lon="6.45272">
        <ele>1345.477183</ele>
        <time>2026-07-27T09:23:12.000Z</time>
      </trkpt>
      <trkpt lat="44.49533" lon="6.45272">
        <ele>1345.477183</ele>
        <time>2026-07-27T09:23:12.000Z</time>
      </trkpt>
      <trkpt lat="44.49533" lon="6.45276">
        <ele>1345.787607</ele>
        <time>2026-07-27T09:23:13.000Z</time>
      </trkpt>
      <trkpt lat="44.49533" lon="6.45276">
        <ele>1345.787607</ele>
        <time>2026-07-27T09:23:13.000Z</time>
      </trkpt>
      <trkpt lat="44.49532" lon="6.45281">
        <ele>1346.223225</ele>
        <time>2026-07-27T09:23:14.000Z</time>
      </trkpt>
      <trkpt lat="44.49532" lon="6.45281">
        <ele>1346.223225</ele>
        <time>2026-07-27T09:23:14.000Z</time>
      </trkpt>
      <trkpt lat="44.49532" lon="6.45286">
        <ele>1346.581702</ele>
        <time>2026-07-27T09:23:15.000Z</time>
      </trkpt>
      <trkpt lat="44.49532" lon="6.45286">
        <ele>1346.581702</ele>
        <time>2026-07-27T09:23:15.000Z</time>
      </trkpt>
      <trkpt lat="44.49532" lon="6.45291">
        <ele>1346.961971</ele>
        <time>2026-07-27T09:23:16.000Z</time>
      </trkpt>
      <trkpt lat="44.49532" lon="6.45291">
        <ele>1346.961971</ele>
        <time>2026-07-27T09:23:16.000Z</time>
      </trkpt>
      <trkpt lat="44.49531" lon="6.45296">
        <ele>1347.360148</ele>
        <time>2026-07-27T09:23:17.000Z</time>
      </trkpt>
      <trkpt lat="44.49531" lon="6.45296">
        <ele>1347.360148</ele>
        <time>2026-07-27T09:23:17.000Z</time>
      </trkpt>
      <trkpt lat="44.49531" lon="6.45301">
        <ele>1347.758324</ele>
        <time>2026-07-27T09:23:18.000Z</time>
      </trkpt>
      <trkpt lat="44.49531" lon="6.45301">
        <ele>1347.758324</ele>
        <time>2026-07-27T09:23:18.000Z</time>
      </trkpt>
      <trkpt lat="44.49531" lon="6.45307">
        <ele>1348.2162</ele>
        <time>2026-07-27T09:23:19.000Z</time>
      </trkpt>
      <trkpt lat="44.49531" lon="6.45307">
        <ele>1348.2162</ele>
        <time>2026-07-27T09:23:19.000Z</time>
      </trkpt>
      <trkpt lat="44.4953" lon="6.45313">
        <ele>1348.652968</ele>
        <time>2026-07-27T09:23:21.000Z</time>
      </trkpt>
      <trkpt lat="44.4953" lon="6.45313">
        <ele>1348.652968</ele>
        <time>2026-07-27T09:23:21.000Z</time>
      </trkpt>
      <trkpt lat="44.4953" lon="6.45318">
        <ele>1349.066576</ele>
        <time>2026-07-27T09:23:22.000Z</time>
      </trkpt>
      <trkpt lat="44.4953" lon="6.45318">
        <ele>1349.066576</ele>
        <time>2026-07-27T09:23:22.000Z</time>
      </trkpt>
      <trkpt lat="44.4953" lon="6.45322">
        <ele>1349.423565</ele>
        <time>2026-07-27T09:23:22.000Z</time>
      </trkpt>
      <trkpt lat="44.4953" lon="6.45322">
        <ele>1349.423565</ele>
        <time>2026-07-27T09:23:22.000Z</time>
      </trkpt>
      <trkpt lat="44.4953" lon="6.45327">
        <ele>1349.796074</ele>
        <time>2026-07-27T09:23:24.000Z</time>
      </trkpt>
      <trkpt lat="44.4953" lon="6.45327">
        <ele>1349.796074</ele>
        <time>2026-07-27T09:23:24.000Z</time>
      </trkpt>
      <trkpt lat="44.4953" lon="6.45331">
        <ele>1350.094171</ele>
        <time>2026-07-27T09:23:25.000Z</time>
      </trkpt>
      <trkpt lat="44.4953" lon="6.45331">
        <ele>1350.094171</ele>
        <time>2026-07-27T09:23:25.000Z</time>
      </trkpt>
      <trkpt lat="44.4953" lon="6.45335">
        <ele>1350.389074</ele>
        <time>2026-07-27T09:23:25.000Z</time>
      </trkpt>
      <trkpt lat="44.4953" lon="6.45335">
        <ele>1350.389074</ele>
        <time>2026-07-27T09:23:25.000Z</time>
      </trkpt>
      <trkpt lat="44.4953" lon="6.45338">
        <ele>1350.633558</ele>
        <time>2026-07-27T09:23:26.000Z</time>
      </trkpt>
      <trkpt lat="44.4953" lon="6.45338">
        <ele>1350.633558</ele>
        <time>2026-07-27T09:23:26.000Z</time>
      </trkpt>
      <trkpt lat="44.4953" lon="6.45341">
        <ele>1350.858615</ele>
        <time>2026-07-27T09:23:28.000Z</time>
      </trkpt>
      <trkpt lat="44.4953" lon="6.45341">
        <ele>1350.858615</ele>
        <time>2026-07-27T09:23:28.000Z</time>
      </trkpt>
      <trkpt lat="44.4953" lon="6.45343">
        <ele>1351.065031</ele>
        <time>2026-07-27T09:23:29.000Z</time>
      </trkpt>
      <trkpt lat="44.4953" lon="6.45343">
        <ele>1351.065031</ele>
        <time>2026-07-27T09:23:29.000Z</time>
      </trkpt>
      <trkpt lat="44.4953" lon="6.45345">
        <ele>1351.220243</ele>
        <time>2026-07-27T09:23:29.000Z</time>
      </trkpt>
      <trkpt lat="44.4953" lon="6.45345">
        <ele>1351.220243</ele>
        <time>2026-07-27T09:23:29.000Z</time>
      </trkpt>
      <trkpt lat="44.4953" lon="6.45348">
        <ele>1351.398737</ele>
        <time>2026-07-27T09:23:31.000Z</time>
      </trkpt>
      <trkpt lat="44.4953" lon="6.4535">
        <ele>1351.584992</ele>
        <time>2026-07-27T09:23:32.000Z</time>
      </trkpt>
      <trkpt lat="44.4953" lon="6.4535">
        <ele>1351.584992</ele>
        <time>2026-07-27T09:23:32.000Z</time>
      </trkpt>
      <trkpt lat="44.4953" lon="6.45353">
        <ele>1351.779007</ele>
        <time>2026-07-27T09:23:33.000Z</time>
      </trkpt>
      <trkpt lat="44.49531" lon="6.45355">
        <ele>1351.985423</ele>
        <time>2026-07-27T09:23:34.000Z</time>
      </trkpt>
      <trkpt lat="44.49531" lon="6.45358">
        <ele>1352.179438</ele>
        <time>2026-07-27T09:23:35.000Z</time>
      </trkpt>
      <trkpt lat="44.49531" lon="6.45358">
        <ele>1352.179438</ele>
        <time>2026-07-27T09:23:35.000Z</time>
      </trkpt>
      <trkpt lat="44.4953" lon="6.4536">
        <ele>1352.385854</ele>
        <time>2026-07-27T09:23:36.000Z</time>
      </trkpt>
      <trkpt lat="44.4953" lon="6.45364">
        <ele>1352.668605</ele>
        <time>2026-07-27T09:23:37.000Z</time>
      </trkpt>
      <trkpt lat="44.49529" lon="6.45369">
        <ele>1353.052485</ele>
        <time>2026-07-27T09:23:38.000Z</time>
      </trkpt>
      <trkpt lat="44.49528" lon="6.45373">
        <ele>1353.382107</ele>
        <time>2026-07-27T09:23:39.000Z</time>
      </trkpt>
      <trkpt lat="44.49527" lon="6.45376">
        <ele>1353.655683</ele>
        <time>2026-07-27T09:23:40.000Z</time>
      </trkpt>
      <trkpt lat="44.49527" lon="6.45379">
        <ele>1353.933528</ele>
        <time>2026-07-27T09:23:40.000Z</time>
      </trkpt>
      <trkpt lat="44.49526" lon="6.45384">
        <ele>1354.285914</ele>
        <time>2026-07-27T09:23:42.000Z</time>
      </trkpt>
      <trkpt lat="44.49525" lon="6.45388">
        <ele>1354.618609</ele>
        <time>2026-07-27T09:23:42.000Z</time>
      </trkpt>
      <trkpt lat="44.49523" lon="6.45392">
        <ele>1355.004087</ele>
        <time>2026-07-27T09:23:44.000Z</time>
      </trkpt>
      <trkpt lat="44.49521" lon="6.45396">
        <ele>1355.383525</ele>
        <time>2026-07-27T09:23:45.000Z</time>
      </trkpt>
      <trkpt lat="44.49521" lon="6.45396">
        <ele>1355.383525</ele>
        <time>2026-07-27T09:23:45.000Z</time>
      </trkpt>
      <trkpt lat="44.49519" lon="6.45401">
        <ele>1355.81315</ele>
        <time>2026-07-27T09:23:46.000Z</time>
      </trkpt>
      <trkpt lat="44.49517" lon="6.45405">
        <ele>1356.218972</ele>
        <time>2026-07-27T09:23:47.000Z</time>
      </trkpt>
      <trkpt lat="44.49517" lon="6.45405">
        <ele>1356.218972</ele>
        <time>2026-07-27T09:23:47.000Z</time>
      </trkpt>
      <trkpt lat="44.49515" lon="6.4541">
        <ele>1356.644994</ele>
        <time>2026-07-27T09:23:48.000Z</time>
      </trkpt>
      <trkpt lat="44.49515" lon="6.4541">
        <ele>1356.644994</ele>
        <time>2026-07-27T09:23:48.000Z</time>
      </trkpt>
      <trkpt lat="44.49514" lon="6.45415">
        <ele>1357.054443</ele>
        <time>2026-07-27T09:23:48.000Z</time>
      </trkpt>
      <trkpt lat="44.49511" lon="6.4542">
        <ele>1357.547833</ele>
        <time>2026-07-27T09:23:50.000Z</time>
      </trkpt>
      <trkpt lat="44.49511" lon="6.4542">
        <ele>1357.547833</ele>
        <time>2026-07-27T09:23:50.000Z</time>
      </trkpt>
      <trkpt lat="44.49509" lon="6.45424">
        <ele>1358.013483</ele>
        <time>2026-07-27T09:23:51.000Z</time>
      </trkpt>
      <trkpt lat="44.49509" lon="6.45424">
        <ele>1358.013483</ele>
        <time>2026-07-27T09:23:51.000Z</time>
      </trkpt>
      <trkpt lat="44.49507" lon="6.45429">
        <ele>1358.482602</ele>
        <time>2026-07-27T09:23:52.000Z</time>
      </trkpt>
      <trkpt lat="44.49507" lon="6.45429">
        <ele>1358.482602</ele>
        <time>2026-07-27T09:23:52.000Z</time>
      </trkpt>
      <trkpt lat="44.49505" lon="6.45432">
        <ele>1358.845903</ele>
        <time>2026-07-27T09:23:53.000Z</time>
      </trkpt>
      <trkpt lat="44.49505" lon="6.45432">
        <ele>1358.845903</ele>
        <time>2026-07-27T09:23:53.000Z</time>
      </trkpt>
      <trkpt lat="44.49503" lon="6.45437">
        <ele>1359.333008</ele>
        <time>2026-07-27T09:23:54.000Z</time>
      </trkpt>
      <trkpt lat="44.49503" lon="6.45437">
        <ele>1359.333008</ele>
        <time>2026-07-27T09:23:54.000Z</time>
      </trkpt>
      <trkpt lat="44.49501" lon="6.4544">
        <ele>1359.661714</ele>
        <time>2026-07-27T09:23:55.000Z</time>
      </trkpt>
      <trkpt lat="44.49501" lon="6.4544">
        <ele>1359.661714</ele>
        <time>2026-07-27T09:23:55.000Z</time>
      </trkpt>
      <trkpt lat="44.49498" lon="6.45444">
        <ele>1360.110727</ele>
        <time>2026-07-27T09:23:56.000Z</time>
      </trkpt>
      <trkpt lat="44.49498" lon="6.45444">
        <ele>1360.110727</ele>
        <time>2026-07-27T09:23:56.000Z</time>
      </trkpt>
      <trkpt lat="44.49497" lon="6.45447">
        <ele>1360.453344</ele>
        <time>2026-07-27T09:23:57.000Z</time>
      </trkpt>
      <trkpt lat="44.49497" lon="6.45447">
        <ele>1360.453344</ele>
        <time>2026-07-27T09:23:57.000Z</time>
      </trkpt>
      <trkpt lat="44.49495" lon="6.4545">
        <ele>1360.761506</ele>
        <time>2026-07-27T09:23:58.000Z</time>
      </trkpt>
      <trkpt lat="44.49495" lon="6.4545">
        <ele>1360.761506</ele>
        <time>2026-07-27T09:23:58.000Z</time>
      </trkpt>
      <trkpt lat="44.49494" lon="6.45454">
        <ele>1361.083588</ele>
        <time>2026-07-27T09:23:59.000Z</time>
      </trkpt>
      <trkpt lat="44.49494" lon="6.45454">
        <ele>1361.083588</ele>
        <time>2026-07-27T09:23:59.000Z</time>
      </trkpt>
      <trkpt lat="44.49493" lon="6.45456">
        <ele>1361.344072</ele>
        <time>2026-07-27T09:23:59.000Z</time>
      </trkpt>
      <trkpt lat="44.49493" lon="6.45456">
        <ele>1361.344072</ele>
        <time>2026-07-27T09:23:59.000Z</time>
      </trkpt>
      <trkpt lat="44.4949" lon="6.45458">
        <ele>1361.632552</ele>
        <time>2026-07-27T09:24:01.000Z</time>
      </trkpt>
      <trkpt lat="44.4949" lon="6.45458">
        <ele>1361.632552</ele>
        <time>2026-07-27T09:24:01.000Z</time>
      </trkpt>
      <trkpt lat="44.49488" lon="6.45459">
        <ele>1361.880245</ele>
        <time>2026-07-27T09:24:01.000Z</time>
      </trkpt>
      <trkpt lat="44.49488" lon="6.45459">
        <ele>1361.880245</ele>
        <time>2026-07-27T09:24:01.000Z</time>
      </trkpt>
      <trkpt lat="44.49488" lon="6.45458">
        <ele>1361.941878</ele>
        <time>2026-07-27T09:24:03.000Z</time>
      </trkpt>
      <trkpt lat="44.49488" lon="6.45458">
        <ele>1361.941878</ele>
        <time>2026-07-27T09:24:03.000Z</time>
      </trkpt>
      <trkpt lat="44.49488" lon="6.45457">
        <ele>1362.038314</ele>
        <time>2026-07-27T09:24:03.000Z</time>
      </trkpt>
      <trkpt lat="44.49488" lon="6.45457">
        <ele>1362.038314</ele>
        <time>2026-07-27T09:24:03.000Z</time>
      </trkpt>
      <trkpt lat="44.49488" lon="6.45455">
        <ele>1362.253825</ele>
        <time>2026-07-27T09:24:05.000Z</time>
      </trkpt>
      <trkpt lat="44.49488" lon="6.45455">
        <ele>1362.253825</ele>
        <time>2026-07-27T09:24:05.000Z</time>
      </trkpt>
      <trkpt lat="44.49489" lon="6.45452">
        <ele>1362.486749</ele>
        <time>2026-07-27T09:24:05.000Z</time>
      </trkpt>
      <trkpt lat="44.49489" lon="6.45452">
        <ele>1362.486749</ele>
        <time>2026-07-27T09:24:05.000Z</time>
      </trkpt>
      <trkpt lat="44.4949" lon="6.4545">
        <ele>1362.754334</ele>
        <time>2026-07-27T09:24:06.000Z</time>
      </trkpt>
      <trkpt lat="44.4949" lon="6.4545">
        <ele>1362.754334</ele>
        <time>2026-07-27T09:24:06.000Z</time>
      </trkpt>
      <trkpt lat="44.49492" lon="6.45447">
        <ele>1363.055646</ele>
        <time>2026-07-27T09:24:07.000Z</time>
      </trkpt>
      <trkpt lat="44.49492" lon="6.45447">
        <ele>1363.055646</ele>
        <time>2026-07-27T09:24:07.000Z</time>
      </trkpt>
      <trkpt lat="44.49493" lon="6.45443">
        <ele>1363.406333</ele>
        <time>2026-07-27T09:24:08.000Z</time>
      </trkpt>
      <trkpt lat="44.49493" lon="6.45443">
        <ele>1363.406333</ele>
        <time>2026-07-27T09:24:08.000Z</time>
      </trkpt>
      <trkpt lat="44.49495" lon="6.45439">
        <ele>1363.764309</ele>
        <time>2026-07-27T09:24:09.000Z</time>
      </trkpt>
      <trkpt lat="44.49495" lon="6.45439">
        <ele>1363.764309</ele>
        <time>2026-07-27T09:24:09.000Z</time>
      </trkpt>
      <trkpt lat="44.49497" lon="6.45435">
        <ele>1364.157414</ele>
        <time>2026-07-27T09:24:11.000Z</time>
      </trkpt>
      <trkpt lat="44.49497" lon="6.45435">
        <ele>1364.157414</ele>
        <time>2026-07-27T09:24:11.000Z</time>
      </trkpt>
      <trkpt lat="44.49498" lon="6.45431">
        <ele>1364.560039</ele>
        <time>2026-07-27T09:24:12.000Z</time>
      </trkpt>
      <trkpt lat="44.49498" lon="6.45431">
        <ele>1364.560039</ele>
        <time>2026-07-27T09:24:12.000Z</time>
      </trkpt>
      <trkpt lat="44.495" lon="6.45426">
        <ele>1365.000833</ele>
        <time>2026-07-27T09:24:13.000Z</time>
      </trkpt>
      <trkpt lat="44.495" lon="6.45426">
        <ele>1365.000833</ele>
        <time>2026-07-27T09:24:13.000Z</time>
      </trkpt>
      <trkpt lat="44.49501" lon="6.45421">
        <ele>1365.420731</ele>
        <time>2026-07-27T09:24:14.000Z</time>
      </trkpt>
      <trkpt lat="44.49501" lon="6.45421">
        <ele>1365.420731</ele>
        <time>2026-07-27T09:24:14.000Z</time>
      </trkpt>
      <trkpt lat="44.49501" lon="6.45417">
        <ele>1365.824592</ele>
        <time>2026-07-27T09:24:15.000Z</time>
      </trkpt>
      <trkpt lat="44.49501" lon="6.45417">
        <ele>1365.824592</ele>
        <time>2026-07-27T09:24:15.000Z</time>
      </trkpt>
      <trkpt lat="44.49502" lon="6.45412">
        <ele>1366.239215</ele>
        <time>2026-07-27T09:24:16.000Z</time>
      </trkpt>
      <trkpt lat="44.49502" lon="6.45412">
        <ele>1366.239215</ele>
        <time>2026-07-27T09:24:16.000Z</time>
      </trkpt>
      <trkpt lat="44.49503" lon="6.45408">
        <ele>1366.610205</ele>
        <time>2026-07-27T09:24:17.000Z</time>
      </trkpt>
      <trkpt lat="44.49503" lon="6.45408">
        <ele>1366.610205</ele>
        <time>2026-07-27T09:24:17.000Z</time>
      </trkpt>
      <trkpt lat="44.49504" lon="6.45402">
        <ele>1367.115364</ele>
        <time>2026-07-27T09:24:18.000Z</time>
      </trkpt>
      <trkpt lat="44.49504" lon="6.45402">
        <ele>1367.115364</ele>
        <time>2026-07-27T09:24:18.000Z</time>
      </trkpt>
      <trkpt lat="44.49503" lon="6.45396">
        <ele>1367.613874</ele>
        <time>2026-07-27T09:24:18.000Z</time>
      </trkpt>
      <trkpt lat="44.49503" lon="6.45396">
        <ele>1367.613874</ele>
        <time>2026-07-27T09:24:18.000Z</time>
      </trkpt>
      <trkpt lat="44.49503" lon="6.45391">
        <ele>1368.058988</ele>
        <time>2026-07-27T09:24:20.000Z</time>
      </trkpt>
      <trkpt lat="44.49503" lon="6.45391">
        <ele>1368.058988</ele>
        <time>2026-07-27T09:24:20.000Z</time>
      </trkpt>
      <trkpt lat="44.49502" lon="6.45386">
        <ele>1368.49822</ele>
        <time>2026-07-27T09:24:20.000Z</time>
      </trkpt>
      <trkpt lat="44.49502" lon="6.45386">
        <ele>1368.49822</ele>
        <time>2026-07-27T09:24:20.000Z</time>
      </trkpt>
      <trkpt lat="44.49501" lon="6.45381">
        <ele>1368.922292</ele>
        <time>2026-07-27T09:24:21.000Z</time>
      </trkpt>
      <trkpt lat="44.49501" lon="6.45381">
        <ele>1368.922292</ele>
        <time>2026-07-27T09:24:21.000Z</time>
      </trkpt>
      <trkpt lat="44.495" lon="6.45376">
        <ele>1369.312384</ele>
        <time>2026-07-27T09:24:23.000Z</time>
      </trkpt>
      <trkpt lat="44.495" lon="6.45376">
        <ele>1369.312384</ele>
        <time>2026-07-27T09:24:23.000Z</time>
      </trkpt>
      <trkpt lat="44.49498" lon="6.45372">
        <ele>1369.737822</ele>
        <time>2026-07-27T09:24:24.000Z</time>
      </trkpt>
      <trkpt lat="44.49498" lon="6.45372">
        <ele>1369.737822</ele>
        <time>2026-07-27T09:24:24.000Z</time>
      </trkpt>
      <trkpt lat="44.49498" lon="6.45367">
        <ele>1370.136082</ele>
        <time>2026-07-27T09:24:24.000Z</time>
      </trkpt>
      <trkpt lat="44.49498" lon="6.45367">
        <ele>1370.136082</ele>
        <time>2026-07-27T09:24:24.000Z</time>
      </trkpt>
      <trkpt lat="44.49497" lon="6.45362">
        <ele>1370.592304</ele>
        <time>2026-07-27T09:24:25.000Z</time>
      </trkpt>
      <trkpt lat="44.49497" lon="6.45362">
        <ele>1370.592304</ele>
        <time>2026-07-27T09:24:25.000Z</time>
      </trkpt>
      <trkpt lat="44.49495" lon="6.45357">
        <ele>1371.020131</ele>
        <time>2026-07-27T09:24:26.000Z</time>
      </trkpt>
      <trkpt lat="44.49495" lon="6.45357">
        <ele>1371.020131</ele>
        <time>2026-07-27T09:24:26.000Z</time>
      </trkpt>
      <trkpt lat="44.49495" lon="6.45352">
        <ele>1371.434753</ele>
        <time>2026-07-27T09:24:28.000Z</time>
      </trkpt>
      <trkpt lat="44.49495" lon="6.45352">
        <ele>1371.434753</ele>
        <time>2026-07-27T09:24:28.000Z</time>
      </trkpt>
      <trkpt lat="44.49494" lon="6.45347">
        <ele>1371.855097</ele>
        <time>2026-07-27T09:24:28.000Z</time>
      </trkpt>
      <trkpt lat="44.49494" lon="6.45347">
        <ele>1371.855097</ele>
        <time>2026-07-27T09:24:28.000Z</time>
      </trkpt>
      <trkpt lat="44.49493" lon="6.45342">
        <ele>1372.346932</ele>
        <time>2026-07-27T09:24:29.000Z</time>
      </trkpt>
      <trkpt lat="44.49493" lon="6.45342">
        <ele>1372.346932</ele>
        <time>2026-07-27T09:24:29.000Z</time>
      </trkpt>
      <trkpt lat="44.49492" lon="6.45336">
        <ele>1372.816867</ele>
        <time>2026-07-27T09:24:30.000Z</time>
      </trkpt>
      <trkpt lat="44.49492" lon="6.45336">
        <ele>1372.816867</ele>
        <time>2026-07-27T09:24:30.000Z</time>
      </trkpt>
      <trkpt lat="44.49491" lon="6.4533">
        <ele>1373.373485</ele>
        <time>2026-07-27T09:24:32.000Z</time>
      </trkpt>
      <trkpt lat="44.49491" lon="6.4533">
        <ele>1373.373485</ele>
        <time>2026-07-27T09:24:32.000Z</time>
      </trkpt>
      <trkpt lat="44.4949" lon="6.45324">
        <ele>1373.919049</ele>
        <time>2026-07-27T09:24:32.000Z</time>
      </trkpt>
      <trkpt lat="44.4949" lon="6.45324">
        <ele>1373.919049</ele>
        <time>2026-07-27T09:24:32.000Z</time>
      </trkpt>
      <trkpt lat="44.49488" lon="6.45317">
        <ele>1374.451301</ele>
        <time>2026-07-27T09:24:33.000Z</time>
      </trkpt>
      <trkpt lat="44.49488" lon="6.45317">
        <ele>1374.451301</ele>
        <time>2026-07-27T09:24:33.000Z</time>
      </trkpt>
      <trkpt lat="44.49487" lon="6.45311">
        <ele>1374.980541</ele>
        <time>2026-07-27T09:24:35.000Z</time>
      </trkpt>
      <trkpt lat="44.49487" lon="6.45311">
        <ele>1374.980541</ele>
        <time>2026-07-27T09:24:35.000Z</time>
      </trkpt>
      <trkpt lat="44.49487" lon="6.45306">
        <ele>1375.436218</ele>
        <time>2026-07-27T09:24:36.000Z</time>
      </trkpt>
      <trkpt lat="44.49487" lon="6.45306">
        <ele>1375.436218</ele>
        <time>2026-07-27T09:24:36.000Z</time>
      </trkpt>
      <trkpt lat="44.49485" lon="6.453">
        <ele>1375.932906</ele>
        <time>2026-07-27T09:24:37.000Z</time>
      </trkpt>
      <trkpt lat="44.49485" lon="6.453">
        <ele>1375.932906</ele>
        <time>2026-07-27T09:24:37.000Z</time>
      </trkpt>
      <trkpt lat="44.49485" lon="6.45295">
        <ele>1376.388584</ele>
        <time>2026-07-27T09:24:38.000Z</time>
      </trkpt>
      <trkpt lat="44.49485" lon="6.45295">
        <ele>1376.388584</ele>
        <time>2026-07-27T09:24:38.000Z</time>
      </trkpt>
      <trkpt lat="44.49484" lon="6.4529">
        <ele>1376.792447</ele>
        <time>2026-07-27T09:24:39.000Z</time>
      </trkpt>
      <trkpt lat="44.49484" lon="6.4529">
        <ele>1376.792447</ele>
        <time>2026-07-27T09:24:39.000Z</time>
      </trkpt>
      <trkpt lat="44.49484" lon="6.45286">
        <ele>1377.128904</ele>
        <time>2026-07-27T09:24:40.000Z</time>
      </trkpt>
      <trkpt lat="44.49484" lon="6.45286">
        <ele>1377.128904</ele>
        <time>2026-07-27T09:24:40.000Z</time>
      </trkpt>
      <trkpt lat="44.49483" lon="6.45281">
        <ele>1377.551723</ele>
        <time>2026-07-27T09:24:41.000Z</time>
      </trkpt>
      <trkpt lat="44.49483" lon="6.45281">
        <ele>1377.551723</ele>
        <time>2026-07-27T09:24:41.000Z</time>
      </trkpt>
      <trkpt lat="44.49482" lon="6.45276">
        <ele>1377.991843</ele>
        <time>2026-07-27T09:24:41.000Z</time>
      </trkpt>
      <trkpt lat="44.49482" lon="6.45276">
        <ele>1377.991843</ele>
        <time>2026-07-27T09:24:41.000Z</time>
      </trkpt>
      <trkpt lat="44.49481" lon="6.45272">
        <ele>1378.446033</ele>
        <time>2026-07-27T09:24:42.000Z</time>
      </trkpt>
      <trkpt lat="44.49481" lon="6.45272">
        <ele>1378.446033</ele>
        <time>2026-07-27T09:24:42.000Z</time>
      </trkpt>
      <trkpt lat="44.4948" lon="6.45267">
        <ele>1378.955617</ele>
        <time>2026-07-27T09:24:44.000Z</time>
      </trkpt>
      <trkpt lat="44.4948" lon="6.45267">
        <ele>1378.955617</ele>
        <time>2026-07-27T09:24:44.000Z</time>
      </trkpt>
      <trkpt lat="44.49479" lon="6.45262">
        <ele>1379.488832</ele>
        <time>2026-07-27T09:24:44.000Z</time>
      </trkpt>
      <trkpt lat="44.49479" lon="6.45262">
        <ele>1379.488832</ele>
        <time>2026-07-27T09:24:44.000Z</time>
      </trkpt>
      <trkpt lat="44.49478" lon="6.45258">
        <ele>1379.979209</ele>
        <time>2026-07-27T09:24:45.000Z</time>
      </trkpt>
      <trkpt lat="44.49478" lon="6.45258">
        <ele>1379.979209</ele>
        <time>2026-07-27T09:24:45.000Z</time>
      </trkpt>
      <trkpt lat="44.49477" lon="6.45254">
        <ele>1380.408843</ele>
        <time>2026-07-27T09:24:47.000Z</time>
      </trkpt>
      <trkpt lat="44.49477" lon="6.45254">
        <ele>1380.408843</ele>
        <time>2026-07-27T09:24:47.000Z</time>
      </trkpt>
      <trkpt lat="44.49476" lon="6.45248">
        <ele>1381.005939</ele>
        <time>2026-07-27T09:24:47.000Z</time>
      </trkpt>
      <trkpt lat="44.49476" lon="6.45248">
        <ele>1381.005939</ele>
        <time>2026-07-27T09:24:47.000Z</time>
      </trkpt>
      <trkpt lat="44.49475" lon="6.45243">
        <ele>1381.534806</ele>
        <time>2026-07-27T09:24:49.000Z</time>
      </trkpt>
      <trkpt lat="44.49475" lon="6.45243">
        <ele>1381.534806</ele>
        <time>2026-07-27T09:24:49.000Z</time>
      </trkpt>
      <trkpt lat="44.49474" lon="6.45238">
        <ele>1382.033035</ele>
        <time>2026-07-27T09:24:50.000Z</time>
      </trkpt>
      <trkpt lat="44.49474" lon="6.45238">
        <ele>1382.033035</ele>
        <time>2026-07-27T09:24:50.000Z</time>
      </trkpt>
      <trkpt lat="44.49474" lon="6.45233">
        <ele>1382.538139</ele>
        <time>2026-07-27T09:24:51.000Z</time>
      </trkpt>
      <trkpt lat="44.49474" lon="6.45233">
        <ele>1382.538139</ele>
        <time>2026-07-27T09:24:51.000Z</time>
      </trkpt>
      <trkpt lat="44.49473" lon="6.45228">
        <ele>1383.065941</ele>
        <time>2026-07-27T09:24:51.000Z</time>
      </trkpt>
      <trkpt lat="44.49473" lon="6.45228">
        <ele>1383.065941</ele>
        <time>2026-07-27T09:24:51.000Z</time>
      </trkpt>
      <trkpt lat="44.49472" lon="6.45223">
        <ele>1383.593742</ele>
        <time>2026-07-27T09:24:53.000Z</time>
      </trkpt>
      <trkpt lat="44.49472" lon="6.45223">
        <ele>1383.593742</ele>
        <time>2026-07-27T09:24:53.000Z</time>
      </trkpt>
      <trkpt lat="44.49471" lon="6.45218">
        <ele>1384.079041</ele>
        <time>2026-07-27T09:24:54.000Z</time>
      </trkpt>
      <trkpt lat="44.49471" lon="6.45218">
        <ele>1384.079041</ele>
        <time>2026-07-27T09:24:54.000Z</time>
      </trkpt>
      <trkpt lat="44.49471" lon="6.45213">
        <ele>1384.567433</ele>
        <time>2026-07-27T09:24:55.000Z</time>
      </trkpt>
      <trkpt lat="44.49471" lon="6.45213">
        <ele>1384.567433</ele>
        <time>2026-07-27T09:24:55.000Z</time>
      </trkpt>
      <trkpt lat="44.4947" lon="6.45209">
        <ele>1385.052732</ele>
        <time>2026-07-27T09:24:56.000Z</time>
      </trkpt>
      <trkpt lat="44.4947" lon="6.45209">
        <ele>1385.052732</ele>
        <time>2026-07-27T09:24:56.000Z</time>
      </trkpt>
      <trkpt lat="44.49468" lon="6.45205">
        <ele>1385.530092</ele>
        <time>2026-07-27T09:24:56.000Z</time>
      </trkpt>
      <trkpt lat="44.49467" lon="6.452">
        <ele>1385.998845</ele>
        <time>2026-07-27T09:24:57.000Z</time>
      </trkpt>
      <trkpt lat="44.49467" lon="6.452">
        <ele>1385.998845</ele>
        <time>2026-07-27T09:24:57.000Z</time>
      </trkpt>
      <trkpt lat="44.49465" lon="6.45196">
        <ele>1386.536115</ele>
        <time>2026-07-27T09:24:59.000Z</time>
      </trkpt>
      <trkpt lat="44.49465" lon="6.45196">
        <ele>1386.536115</ele>
        <time>2026-07-27T09:24:59.000Z</time>
      </trkpt>
      <trkpt lat="44.49464" lon="6.4519">
        <ele>1387.107796</ele>
        <time>2026-07-27T09:24:59.000Z</time>
      </trkpt>
      <trkpt lat="44.49462" lon="6.45186">
        <ele>1387.645066</ele>
        <time>2026-07-27T09:25:00.000Z</time>
      </trkpt>
      <trkpt lat="44.49462" lon="6.45186">
        <ele>1387.645066</ele>
        <time>2026-07-27T09:25:00.000Z</time>
      </trkpt>
      <trkpt lat="44.49461" lon="6.45181">
        <ele>1388.147117</ele>
        <time>2026-07-27T09:25:02.000Z</time>
      </trkpt>
      <trkpt lat="44.49461" lon="6.45181">
        <ele>1388.147117</ele>
        <time>2026-07-27T09:25:02.000Z</time>
      </trkpt>
      <trkpt lat="44.49459" lon="6.45178">
        <ele>1388.583676</ele>
        <time>2026-07-27T09:25:02.000Z</time>
      </trkpt>
      <trkpt lat="44.49456" lon="6.45175">
        <ele>1389.050012</ele>
        <time>2026-07-27T09:25:04.000Z</time>
      </trkpt>
      <trkpt lat="44.49456" lon="6.45175">
        <ele>1389.050012</ele>
        <time>2026-07-27T09:25:04.000Z</time>
      </trkpt>
      <trkpt lat="44.49454" lon="6.45172">
        <ele>1389.488343</ele>
        <time>2026-07-27T09:25:05.000Z</time>
      </trkpt>
      <trkpt lat="44.49454" lon="6.45172">
        <ele>1389.488343</ele>
        <time>2026-07-27T09:25:05.000Z</time>
      </trkpt>
      <trkpt lat="44.49452" lon="6.45169">
        <ele>1389.940441</ele>
        <time>2026-07-27T09:25:06.000Z</time>
      </trkpt>
      <trkpt lat="44.49452" lon="6.45169">
        <ele>1389.940441</ele>
        <time>2026-07-27T09:25:06.000Z</time>
      </trkpt>
      <trkpt lat="44.4945" lon="6.45165">
        <ele>1390.436502</ele>
        <time>2026-07-27T09:25:07.000Z</time>
      </trkpt>
      <trkpt lat="44.4945" lon="6.45165">
        <ele>1390.436502</ele>
        <time>2026-07-27T09:25:07.000Z</time>
      </trkpt>
      <trkpt lat="44.49447" lon="6.45162">
        <ele>1390.926752</ele>
        <time>2026-07-27T09:25:08.000Z</time>
      </trkpt>
      <trkpt lat="44.49447" lon="6.45162">
        <ele>1390.926752</ele>
        <time>2026-07-27T09:25:08.000Z</time>
      </trkpt>
      <trkpt lat="44.49444" lon="6.45158">
        <ele>1391.447829</ele>
        <time>2026-07-27T09:25:08.000Z</time>
      </trkpt>
      <trkpt lat="44.49444" lon="6.45158">
        <ele>1391.447829</ele>
        <time>2026-07-27T09:25:08.000Z</time>
      </trkpt>
      <trkpt lat="44.49442" lon="6.45155">
        <ele>1391.929794</ele>
        <time>2026-07-27T09:25:09.000Z</time>
      </trkpt>
      <trkpt lat="44.49442" lon="6.45155">
        <ele>1391.929794</ele>
        <time>2026-07-27T09:25:09.000Z</time>
      </trkpt>
      <trkpt lat="44.49438" lon="6.45151">
        <ele>1392.591198</ele>
        <time>2026-07-27T09:25:10.000Z</time>
      </trkpt>
      <trkpt lat="44.49438" lon="6.45151">
        <ele>1392.591198</ele>
        <time>2026-07-27T09:25:10.000Z</time>
      </trkpt>
      <trkpt lat="44.49433" lon="6.45148">
        <ele>1393.323397</ele>
        <time>2026-07-27T09:25:12.000Z</time>
      </trkpt>
      <trkpt lat="44.49433" lon="6.45148">
        <ele>1393.323397</ele>
        <time>2026-07-27T09:25:12.000Z</time>
      </trkpt>
      <trkpt lat="44.49429" lon="6.45146">
        <ele>1393.958715</ele>
        <time>2026-07-27T09:25:13.000Z</time>
      </trkpt>
      <trkpt lat="44.49429" lon="6.45146">
        <ele>1393.958715</ele>
        <time>2026-07-27T09:25:13.000Z</time>
      </trkpt>
      <trkpt lat="44.49426" lon="6.45145">
        <ele>1394.460841</ele>
        <time>2026-07-27T09:25:13.000Z</time>
      </trkpt>
      <trkpt lat="44.49426" lon="6.45145">
        <ele>1394.460841</ele>
        <time>2026-07-27T09:25:13.000Z</time>
      </trkpt>
      <trkpt lat="44.49423" lon="6.45143">
        <ele>1394.908869</ele>
        <time>2026-07-27T09:25:15.000Z</time>
      </trkpt>
      <trkpt lat="44.49423" lon="6.45143">
        <ele>1394.908869</ele>
        <time>2026-07-27T09:25:15.000Z</time>
      </trkpt>
      <trkpt lat="44.49418" lon="6.45142">
        <ele>1395.518334</ele>
        <time>2026-07-27T09:25:16.000Z</time>
      </trkpt>
      <trkpt lat="44.49418" lon="6.45142">
        <ele>1395.518334</ele>
        <time>2026-07-27T09:25:16.000Z</time>
      </trkpt>
      <trkpt lat="44.49415" lon="6.45141">
        <ele>1396.016846</ele>
        <time>2026-07-27T09:25:17.000Z</time>
      </trkpt>
      <trkpt lat="44.49415" lon="6.45141">
        <ele>1396.016846</ele>
        <time>2026-07-27T09:25:17.000Z</time>
      </trkpt>
      <trkpt lat="44.49411" lon="6.45141">
        <ele>1396.559928</ele>
        <time>2026-07-27T09:25:18.000Z</time>
      </trkpt>
      <trkpt lat="44.49411" lon="6.45141">
        <ele>1396.559928</ele>
        <time>2026-07-27T09:25:18.000Z</time>
      </trkpt>
      <trkpt lat="44.49408" lon="6.4514">
        <ele>1397.042655</ele>
        <time>2026-07-27T09:25:19.000Z</time>
      </trkpt>
      <trkpt lat="44.49408" lon="6.4514">
        <ele>1397.042655</ele>
        <time>2026-07-27T09:25:19.000Z</time>
      </trkpt>
      <trkpt lat="44.49405" lon="6.4514">
        <ele>1397.483776</ele>
        <time>2026-07-27T09:25:20.000Z</time>
      </trkpt>
      <trkpt lat="44.49405" lon="6.4514">
        <ele>1397.483776</ele>
        <time>2026-07-27T09:25:20.000Z</time>
      </trkpt>
      <trkpt lat="44.49402" lon="6.4514">
        <ele>1397.90899</ele>
        <time>2026-07-27T09:25:21.000Z</time>
      </trkpt>
      <trkpt lat="44.49402" lon="6.4514">
        <ele>1397.90899</ele>
        <time>2026-07-27T09:25:21.000Z</time>
      </trkpt>
      <trkpt lat="44.49398" lon="6.4514">
        <ele>1398.405345</ele>
        <time>2026-07-27T09:25:22.000Z</time>
      </trkpt>
      <trkpt lat="44.49398" lon="6.4514">
        <ele>1398.405345</ele>
        <time>2026-07-27T09:25:22.000Z</time>
      </trkpt>
      <trkpt lat="44.49395" lon="6.4514">
        <ele>1398.83092</ele>
        <time>2026-07-27T09:25:23.000Z</time>
      </trkpt>
      <trkpt lat="44.49395" lon="6.4514">
        <ele>1398.83092</ele>
        <time>2026-07-27T09:25:23.000Z</time>
      </trkpt>
      <trkpt lat="44.49392" lon="6.45142">
        <ele>1399.325357</ele>
        <time>2026-07-27T09:25:24.000Z</time>
      </trkpt>
      <trkpt lat="44.49392" lon="6.45142">
        <ele>1399.325357</ele>
        <time>2026-07-27T09:25:24.000Z</time>
      </trkpt>
      <trkpt lat="44.49389" lon="6.45143">
        <ele>1399.778474</ele>
        <time>2026-07-27T09:25:24.000Z</time>
      </trkpt>
      <trkpt lat="44.49389" lon="6.45143">
        <ele>1399.778474</ele>
        <time>2026-07-27T09:25:24.000Z</time>
      </trkpt>
      <trkpt lat="44.49386" lon="6.45144">
        <ele>1400.116838</ele>
        <time>2026-07-27T09:25:25.000Z</time>
      </trkpt>
      <trkpt lat="44.49386" lon="6.45144">
        <ele>1400.116838</ele>
        <time>2026-07-27T09:25:25.000Z</time>
      </trkpt>
      <trkpt lat="44.49384" lon="6.45145">
        <ele>1400.518189</ele>
        <time>2026-07-27T09:25:26.000Z</time>
      </trkpt>
      <trkpt lat="44.49384" lon="6.45145">
        <ele>1400.518189</ele>
        <time>2026-07-27T09:25:26.000Z</time>
      </trkpt>
      <trkpt lat="44.49381" lon="6.45147">
        <ele>1400.980582</ele>
        <time>2026-07-27T09:25:28.000Z</time>
      </trkpt>
      <trkpt lat="44.49381" lon="6.45147">
        <ele>1400.980582</ele>
        <time>2026-07-27T09:25:28.000Z</time>
      </trkpt>
      <trkpt lat="44.49378" lon="6.45148">
        <ele>1401.376294</ele>
        <time>2026-07-27T09:25:29.000Z</time>
      </trkpt>
      <trkpt lat="44.49378" lon="6.45148">
        <ele>1401.376294</ele>
        <time>2026-07-27T09:25:29.000Z</time>
      </trkpt>
      <trkpt lat="44.49375" lon="6.45149">
        <ele>1401.78421</ele>
        <time>2026-07-27T09:25:29.000Z</time>
      </trkpt>
      <trkpt lat="44.49375" lon="6.45149">
        <ele>1401.78421</ele>
        <time>2026-07-27T09:25:29.000Z</time>
      </trkpt>
      <trkpt lat="44.49372" lon="6.4515">
        <ele>1402.232239</ele>
        <time>2026-07-27T09:25:30.000Z</time>
      </trkpt>
      <trkpt lat="44.49372" lon="6.4515">
        <ele>1402.232239</ele>
        <time>2026-07-27T09:25:30.000Z</time>
      </trkpt>
      <trkpt lat="44.49369" lon="6.45152">
        <ele>1402.643771</ele>
        <time>2026-07-27T09:25:32.000Z</time>
      </trkpt>
      <trkpt lat="44.49369" lon="6.45152">
        <ele>1402.643771</ele>
        <time>2026-07-27T09:25:32.000Z</time>
      </trkpt>
      <trkpt lat="44.49366" lon="6.45153">
        <ele>1403.151964</ele>
        <time>2026-07-27T09:25:33.000Z</time>
      </trkpt>
      <trkpt lat="44.49366" lon="6.45153">
        <ele>1403.151964</ele>
        <time>2026-07-27T09:25:33.000Z</time>
      </trkpt>
      <trkpt lat="44.49363" lon="6.45155">
        <ele>1403.54916</ele>
        <time>2026-07-27T09:25:34.000Z</time>
      </trkpt>
      <trkpt lat="44.49363" lon="6.45155">
        <ele>1403.54916</ele>
        <time>2026-07-27T09:25:34.000Z</time>
      </trkpt>
      <trkpt lat="44.4936" lon="6.45157">
        <ele>1403.907348</ele>
        <time>2026-07-27T09:25:35.000Z</time>
      </trkpt>
      <trkpt lat="44.4936" lon="6.45157">
        <ele>1403.907348</ele>
        <time>2026-07-27T09:25:35.000Z</time>
      </trkpt>
      <trkpt lat="44.49357" lon="6.4516">
        <ele>1404.277483</ele>
        <time>2026-07-27T09:25:36.000Z</time>
      </trkpt>
      <trkpt lat="44.49357" lon="6.4516">
        <ele>1404.277483</ele>
        <time>2026-07-27T09:25:36.000Z</time>
      </trkpt>
      <trkpt lat="44.49353" lon="6.45162">
        <ele>1404.69682</ele>
        <time>2026-07-27T09:25:37.000Z</time>
      </trkpt>
      <trkpt lat="44.49353" lon="6.45162">
        <ele>1404.69682</ele>
        <time>2026-07-27T09:25:37.000Z</time>
      </trkpt>
      <trkpt lat="44.4935" lon="6.45165">
        <ele>1405.033282</ele>
        <time>2026-07-27T09:25:38.000Z</time>
      </trkpt>
      <trkpt lat="44.4935" lon="6.45165">
        <ele>1405.033282</ele>
        <time>2026-07-27T09:25:38.000Z</time>
      </trkpt>
      <trkpt lat="44.49347" lon="6.45168">
        <ele>1405.361198</ele>
        <time>2026-07-27T09:25:38.000Z</time>
      </trkpt>
      <trkpt lat="44.49347" lon="6.45168">
        <ele>1405.361198</ele>
        <time>2026-07-27T09:25:38.000Z</time>
      </trkpt>
      <trkpt lat="44.49345" lon="6.4517">
        <ele>1405.582276</ele>
        <time>2026-07-27T09:25:39.000Z</time>
      </trkpt>
      <trkpt lat="44.49345" lon="6.4517">
        <ele>1405.582276</ele>
        <time>2026-07-27T09:25:39.000Z</time>
      </trkpt>
      <trkpt lat="44.49342" lon="6.45172">
        <ele>1405.873529</ele>
        <time>2026-07-27T09:25:41.000Z</time>
      </trkpt>
      <trkpt lat="44.49342" lon="6.45172">
        <ele>1405.873529</ele>
        <time>2026-07-27T09:25:41.000Z</time>
      </trkpt>
      <trkpt lat="44.4934" lon="6.45174">
        <ele>1406.181425</ele>
        <time>2026-07-27T09:25:42.000Z</time>
      </trkpt>
      <trkpt lat="44.4934" lon="6.45174">
        <ele>1406.181425</ele>
        <time>2026-07-27T09:25:42.000Z</time>
      </trkpt>
      <trkpt lat="44.49337" lon="6.45176">
        <ele>1406.479103</ele>
        <time>2026-07-27T09:25:42.000Z</time>
      </trkpt>
      <trkpt lat="44.49337" lon="6.45176">
        <ele>1406.479103</ele>
        <time>2026-07-27T09:25:42.000Z</time>
      </trkpt>
      <trkpt lat="44.49335" lon="6.45178">
        <ele>1406.747537</ele>
        <time>2026-07-27T09:25:43.000Z</time>
      </trkpt>
      <trkpt lat="44.49335" lon="6.45178">
        <ele>1406.747537</ele>
        <time>2026-07-27T09:25:43.000Z</time>
      </trkpt>
      <trkpt lat="44.49333" lon="6.45181">
        <ele>1406.9941</ele>
        <time>2026-07-27T09:25:45.000Z</time>
      </trkpt>
      <trkpt lat="44.49333" lon="6.45181">
        <ele>1406.9941</ele>
        <time>2026-07-27T09:25:45.000Z</time>
      </trkpt>
      <trkpt lat="44.49331" lon="6.45184">
        <ele>1407.301697</ele>
        <time>2026-07-27T09:25:46.000Z</time>
      </trkpt>
      <trkpt lat="44.49331" lon="6.45184">
        <ele>1407.301697</ele>
        <time>2026-07-27T09:25:46.000Z</time>
      </trkpt>
      <trkpt lat="44.49328" lon="6.45187">
        <ele>1407.633841</ele>
        <time>2026-07-27T09:25:47.000Z</time>
      </trkpt>
      <trkpt lat="44.49328" lon="6.45187">
        <ele>1407.633841</ele>
        <time>2026-07-27T09:25:47.000Z</time>
      </trkpt>
      <trkpt lat="44.49324" lon="6.4519">
        <ele>1408.054286</ele>
        <time>2026-07-27T09:25:47.000Z</time>
      </trkpt>
      <trkpt lat="44.49324" lon="6.4519">
        <ele>1408.054286</ele>
        <time>2026-07-27T09:25:47.000Z</time>
      </trkpt>
      <trkpt lat="44.49321" lon="6.45192">
        <ele>1408.350677</ele>
        <time>2026-07-27T09:25:49.000Z</time>
      </trkpt>
      <trkpt lat="44.49321" lon="6.45192">
        <ele>1408.350677</ele>
        <time>2026-07-27T09:25:49.000Z</time>
      </trkpt>
      <trkpt lat="44.49318" lon="6.45194">
        <ele>1408.67416</ele>
        <time>2026-07-27T09:25:49.000Z</time>
      </trkpt>
      <trkpt lat="44.49318" lon="6.45194">
        <ele>1408.67416</ele>
        <time>2026-07-27T09:25:49.000Z</time>
      </trkpt>
      <trkpt lat="44.49316" lon="6.45196">
        <ele>1408.962394</ele>
        <time>2026-07-27T09:25:50.000Z</time>
      </trkpt>
      <trkpt lat="44.49316" lon="6.45196">
        <ele>1408.962394</ele>
        <time>2026-07-27T09:25:50.000Z</time>
      </trkpt>
      <trkpt lat="44.49313" lon="6.45197">
        <ele>1409.201333</ele>
        <time>2026-07-27T09:25:51.000Z</time>
      </trkpt>
      <trkpt lat="44.49313" lon="6.45197">
        <ele>1409.201333</ele>
        <time>2026-07-27T09:25:51.000Z</time>
      </trkpt>
      <trkpt lat="44.4931" lon="6.452">
        <ele>1409.556856</ele>
        <time>2026-07-27T09:25:52.000Z</time>
      </trkpt>
      <trkpt lat="44.4931" lon="6.452">
        <ele>1409.556856</ele>
        <time>2026-07-27T09:25:52.000Z</time>
      </trkpt>
      <trkpt lat="44.49307" lon="6.45203">
        <ele>1409.947869</ele>
        <time>2026-07-27T09:25:53.000Z</time>
      </trkpt>
      <trkpt lat="44.49307" lon="6.45203">
        <ele>1409.947869</ele>
        <time>2026-07-27T09:25:53.000Z</time>
      </trkpt>
      <trkpt lat="44.49304" lon="6.45207">
        <ele>1410.319012</ele>
        <time>2026-07-27T09:25:54.000Z</time>
      </trkpt>
      <trkpt lat="44.49304" lon="6.45207">
        <ele>1410.319012</ele>
        <time>2026-07-27T09:25:54.000Z</time>
      </trkpt>
      <trkpt lat="44.49301" lon="6.4521">
        <ele>1410.673541</ele>
        <time>2026-07-27T09:25:55.000Z</time>
      </trkpt>
      <trkpt lat="44.49301" lon="6.4521">
        <ele>1410.673541</ele>
        <time>2026-07-27T09:25:55.000Z</time>
      </trkpt>
      <trkpt lat="44.49299" lon="6.45213">
        <ele>1410.993859</ele>
        <time>2026-07-27T09:25:56.000Z</time>
      </trkpt>
      <trkpt lat="44.49299" lon="6.45213">
        <ele>1410.993859</ele>
        <time>2026-07-27T09:25:56.000Z</time>
      </trkpt>
      <trkpt lat="44.49295" lon="6.45214">
        <ele>1411.307846</ele>
        <time>2026-07-27T09:25:57.000Z</time>
      </trkpt>
      <trkpt lat="44.49295" lon="6.45214">
        <ele>1411.307846</ele>
        <time>2026-07-27T09:25:57.000Z</time>
      </trkpt>
      <trkpt lat="44.49292" lon="6.45215">
        <ele>1411.601046</ele>
        <time>2026-07-27T09:25:58.000Z</time>
      </trkpt>
      <trkpt lat="44.49292" lon="6.45215">
        <ele>1411.601046</ele>
        <time>2026-07-27T09:25:58.000Z</time>
      </trkpt>
      <trkpt lat="44.49289" lon="6.45214">
        <ele>1411.9441</ele>
        <time>2026-07-27T09:25:59.000Z</time>
      </trkpt>
      <trkpt lat="44.49289" lon="6.45214">
        <ele>1411.9441</ele>
        <time>2026-07-27T09:25:59.000Z</time>
      </trkpt>
      <trkpt lat="44.49286" lon="6.45212">
        <ele>1412.261467</ele>
        <time>2026-07-27T09:26:00.000Z</time>
      </trkpt>
      <trkpt lat="44.49286" lon="6.45212">
        <ele>1412.261467</ele>
        <time>2026-07-27T09:26:00.000Z</time>
      </trkpt>
      <trkpt lat="44.49283" lon="6.4521">
        <ele>1412.599605</ele>
        <time>2026-07-27T09:26:02.000Z</time>
      </trkpt>
      <trkpt lat="44.4928" lon="6.45207">
        <ele>1412.95487</ele>
        <time>2026-07-27T09:26:03.000Z</time>
      </trkpt>
      <trkpt lat="44.4928" lon="6.45207">
        <ele>1412.95487</ele>
        <time>2026-07-27T09:26:03.000Z</time>
      </trkpt>
      <trkpt lat="44.49277" lon="6.45203">
        <ele>1413.34738</ele>
        <time>2026-07-27T09:26:04.000Z</time>
      </trkpt>
      <trkpt lat="44.49277" lon="6.45203">
        <ele>1413.34738</ele>
        <time>2026-07-27T09:26:04.000Z</time>
      </trkpt>
      <trkpt lat="44.49273" lon="6.45199">
        <ele>1413.784266</ele>
        <time>2026-07-27T09:26:05.000Z</time>
      </trkpt>
      <trkpt lat="44.49273" lon="6.45199">
        <ele>1413.784266</ele>
        <time>2026-07-27T09:26:05.000Z</time>
      </trkpt>
      <trkpt lat="44.49271" lon="6.45195">
        <ele>1414.132263</ele>
        <time>2026-07-27T09:26:05.000Z</time>
      </trkpt>
      <trkpt lat="44.49271" lon="6.45195">
        <ele>1414.132263</ele>
        <time>2026-07-27T09:26:05.000Z</time>
      </trkpt>
      <trkpt lat="44.49268" lon="6.45191">
        <ele>1414.521085</ele>
        <time>2026-07-27T09:26:07.000Z</time>
      </trkpt>
      <trkpt lat="44.49268" lon="6.45191">
        <ele>1414.521085</ele>
        <time>2026-07-27T09:26:07.000Z</time>
      </trkpt>
      <trkpt lat="44.49266" lon="6.45187">
        <ele>1414.840218</ele>
        <time>2026-07-27T09:26:07.000Z</time>
      </trkpt>
      <trkpt lat="44.49266" lon="6.45187">
        <ele>1414.840218</ele>
        <time>2026-07-27T09:26:07.000Z</time>
      </trkpt>
      <trkpt lat="44.49265" lon="6.45184">
        <ele>1415.148189</ele>
        <time>2026-07-27T09:26:08.000Z</time>
      </trkpt>
      <trkpt lat="44.49265" lon="6.45184">
        <ele>1415.148189</ele>
        <time>2026-07-27T09:26:08.000Z</time>
      </trkpt>
      <trkpt lat="44.49264" lon="6.4518">
        <ele>1415.411438</ele>
        <time>2026-07-27T09:26:10.000Z</time>
      </trkpt>
      <trkpt lat="44.49264" lon="6.4518">
        <ele>1415.411438</ele>
        <time>2026-07-27T09:26:10.000Z</time>
      </trkpt>
      <trkpt lat="44.49263" lon="6.45176">
        <ele>1415.677323</ele>
        <time>2026-07-27T09:26:10.000Z</time>
      </trkpt>
      <trkpt lat="44.49263" lon="6.45176">
        <ele>1415.677323</ele>
        <time>2026-07-27T09:26:10.000Z</time>
      </trkpt>
      <trkpt lat="44.49263" lon="6.45171">
        <ele>1416.0165</ele>
        <time>2026-07-27T09:26:11.000Z</time>
      </trkpt>
      <trkpt lat="44.49263" lon="6.45171">
        <ele>1416.0165</ele>
        <time>2026-07-27T09:26:11.000Z</time>
      </trkpt>
      <trkpt lat="44.49264" lon="6.45167">
        <ele>1416.307901</ele>
        <time>2026-07-27T09:26:12.000Z</time>
      </trkpt>
      <trkpt lat="44.49264" lon="6.45167">
        <ele>1416.307901</ele>
        <time>2026-07-27T09:26:12.000Z</time>
      </trkpt>
      <trkpt lat="44.49265" lon="6.45163">
        <ele>1416.584468</ele>
        <time>2026-07-27T09:26:13.000Z</time>
      </trkpt>
      <trkpt lat="44.49265" lon="6.45163">
        <ele>1416.584468</ele>
        <time>2026-07-27T09:26:13.000Z</time>
      </trkpt>
      <trkpt lat="44.49265" lon="6.4516">
        <ele>1416.82416</ele>
        <time>2026-07-27T09:26:14.000Z</time>
      </trkpt>
      <trkpt lat="44.49265" lon="6.4516">
        <ele>1416.82416</ele>
        <time>2026-07-27T09:26:14.000Z</time>
      </trkpt>
      <trkpt lat="44.49267" lon="6.45155">
        <ele>1417.197186</ele>
        <time>2026-07-27T09:26:15.000Z</time>
      </trkpt>
      <trkpt lat="44.49267" lon="6.45155">
        <ele>1417.197186</ele>
        <time>2026-07-27T09:26:15.000Z</time>
      </trkpt>
      <trkpt lat="44.49268" lon="6.45151">
        <ele>1417.501894</ele>
        <time>2026-07-27T09:26:16.000Z</time>
      </trkpt>
      <trkpt lat="44.49268" lon="6.45151">
        <ele>1417.501894</ele>
        <time>2026-07-27T09:26:16.000Z</time>
      </trkpt>
      <trkpt lat="44.4927" lon="6.45147">
        <ele>1417.787777</ele>
        <time>2026-07-27T09:26:17.000Z</time>
      </trkpt>
      <trkpt lat="44.4927" lon="6.45147">
        <ele>1417.787777</ele>
        <time>2026-07-27T09:26:17.000Z</time>
      </trkpt>
      <trkpt lat="44.49272" lon="6.45144">
        <ele>1418.090247</ele>
        <time>2026-07-27T09:26:18.000Z</time>
      </trkpt>
      <trkpt lat="44.49272" lon="6.45144">
        <ele>1418.090247</ele>
        <time>2026-07-27T09:26:18.000Z</time>
      </trkpt>
      <trkpt lat="44.49274" lon="6.4514">
        <ele>1418.426482</ele>
        <time>2026-07-27T09:26:19.000Z</time>
      </trkpt>
      <trkpt lat="44.49274" lon="6.4514">
        <ele>1418.426482</ele>
        <time>2026-07-27T09:26:19.000Z</time>
      </trkpt>
      <trkpt lat="44.49276" lon="6.45135">
        <ele>1418.780197</ele>
        <time>2026-07-27T09:26:20.000Z</time>
      </trkpt>
      <trkpt lat="44.49276" lon="6.45135">
        <ele>1418.780197</ele>
        <time>2026-07-27T09:26:20.000Z</time>
      </trkpt>
      <trkpt lat="44.49278" lon="6.45131">
        <ele>1419.163741</ele>
        <time>2026-07-27T09:26:21.000Z</time>
      </trkpt>
      <trkpt lat="44.49278" lon="6.45131">
        <ele>1419.163741</ele>
        <time>2026-07-27T09:26:21.000Z</time>
      </trkpt>
      <trkpt lat="44.49279" lon="6.45126">
        <ele>1419.547286</ele>
        <time>2026-07-27T09:26:22.000Z</time>
      </trkpt>
      <trkpt lat="44.49279" lon="6.45126">
        <ele>1419.547286</ele>
        <time>2026-07-27T09:26:22.000Z</time>
      </trkpt>
      <trkpt lat="44.49281" lon="6.45122">
        <ele>1419.864167</ele>
        <time>2026-07-27T09:26:23.000Z</time>
      </trkpt>
      <trkpt lat="44.49281" lon="6.45122">
        <ele>1419.864167</ele>
        <time>2026-07-27T09:26:23.000Z</time>
      </trkpt>
      <trkpt lat="44.49283" lon="6.45117">
        <ele>1420.228528</ele>
        <time>2026-07-27T09:26:24.000Z</time>
      </trkpt>
      <trkpt lat="44.49283" lon="6.45117">
        <ele>1420.228528</ele>
        <time>2026-07-27T09:26:24.000Z</time>
      </trkpt>
      <trkpt lat="44.49284" lon="6.45112">
        <ele>1420.600046</ele>
        <time>2026-07-27T09:26:25.000Z</time>
      </trkpt>
      <trkpt lat="44.49284" lon="6.45112">
        <ele>1420.600046</ele>
        <time>2026-07-27T09:26:25.000Z</time>
      </trkpt>
      <trkpt lat="44.49286" lon="6.45108">
        <ele>1420.878643</ele>
        <time>2026-07-27T09:26:26.000Z</time>
      </trkpt>
      <trkpt lat="44.49286" lon="6.45108">
        <ele>1420.878643</ele>
        <time>2026-07-27T09:26:26.000Z</time>
      </trkpt>
      <trkpt lat="44.49287" lon="6.45103">
        <ele>1420.999553</ele>
        <time>2026-07-27T09:26:28.000Z</time>
      </trkpt>
      <trkpt lat="44.49287" lon="6.45103">
        <ele>1420.999553</ele>
        <time>2026-07-27T09:26:28.000Z</time>
      </trkpt>
      <trkpt lat="44.49289" lon="6.45099">
        <ele>1421.125651</ele>
        <time>2026-07-27T09:26:28.000Z</time>
      </trkpt>
      <trkpt lat="44.4929" lon="6.45094">
        <ele>1421.248835</ele>
        <time>2026-07-27T09:26:29.000Z</time>
      </trkpt>
      <trkpt lat="44.4929" lon="6.45094">
        <ele>1421.248835</ele>
        <time>2026-07-27T09:26:29.000Z</time>
      </trkpt>
      <trkpt lat="44.49291" lon="6.45089">
        <ele>1421.390692</ele>
        <time>2026-07-27T09:26:30.000Z</time>
      </trkpt>
      <trkpt lat="44.49291" lon="6.45089">
        <ele>1421.390692</ele>
        <time>2026-07-27T09:26:30.000Z</time>
      </trkpt>
      <trkpt lat="44.49293" lon="6.45084">
        <ele>1421.533795</ele>
        <time>2026-07-27T09:26:31.000Z</time>
      </trkpt>
      <trkpt lat="44.49293" lon="6.45084">
        <ele>1421.533795</ele>
        <time>2026-07-27T09:26:31.000Z</time>
      </trkpt>
      <trkpt lat="44.49295" lon="6.45079">
        <ele>1421.663069</ele>
        <time>2026-07-27T09:26:32.000Z</time>
      </trkpt>
      <trkpt lat="44.49295" lon="6.45079">
        <ele>1421.663069</ele>
        <time>2026-07-27T09:26:32.000Z</time>
      </trkpt>
      <trkpt lat="44.49297" lon="6.45075">
        <ele>1421.792991</ele>
        <time>2026-07-27T09:26:33.000Z</time>
      </trkpt>
      <trkpt lat="44.49299" lon="6.45071">
        <ele>1421.908151</ele>
        <time>2026-07-27T09:26:35.000Z</time>
      </trkpt>
      <trkpt lat="44.49299" lon="6.45071">
        <ele>1421.908151</ele>
        <time>2026-07-27T09:26:35.000Z</time>
      </trkpt>
      <trkpt lat="44.493" lon="6.45067">
        <ele>1422.021271</ele>
        <time>2026-07-27T09:26:35.000Z</time>
      </trkpt>
      <trkpt lat="44.49302" lon="6.45064">
        <ele>1422.115892</ele>
        <time>2026-07-27T09:26:36.000Z</time>
      </trkpt>
      <trkpt lat="44.49304" lon="6.45061">
        <ele>1422.226991</ele>
        <time>2026-07-27T09:26:37.000Z</time>
      </trkpt>
      <trkpt lat="44.49304" lon="6.45061">
        <ele>1422.226991</ele>
        <time>2026-07-27T09:26:37.000Z</time>
      </trkpt>
      <trkpt lat="44.49306" lon="6.45057">
        <ele>1422.349068</ele>
        <time>2026-07-27T09:26:38.000Z</time>
      </trkpt>
      <trkpt lat="44.49309" lon="6.45053">
        <ele>1422.490019</ele>
        <time>2026-07-27T09:26:40.000Z</time>
      </trkpt>
      <trkpt lat="44.4931" lon="6.4505">
        <ele>1422.58256</ele>
        <time>2026-07-27T09:26:41.000Z</time>
      </trkpt>
      <trkpt lat="44.49312" lon="6.45047">
        <ele>1422.681403</ele>
        <time>2026-07-27T09:26:42.000Z</time>
      </trkpt>
      <trkpt lat="44.49313" lon="6.45044">
        <ele>1422.759627</ele>
        <time>2026-07-27T09:26:43.000Z</time>
      </trkpt>
      <trkpt lat="44.49314" lon="6.45041">
        <ele>1422.846593</ele>
        <time>2026-07-27T09:26:44.000Z</time>
      </trkpt>
      <trkpt lat="44.49315" lon="6.45038">
        <ele>1422.935685</ele>
        <time>2026-07-27T09:26:45.000Z</time>
      </trkpt>
      <trkpt lat="44.49315" lon="6.45035">
        <ele>1423.007817</ele>
        <time>2026-07-27T09:26:46.000Z</time>
      </trkpt>
      <trkpt lat="44.49316" lon="6.45032">
        <ele>1423.092364</ele>
        <time>2026-07-27T09:26:47.000Z</time>
      </trkpt>
      <trkpt lat="44.49317" lon="6.45029">
        <ele>1423.178017</ele>
        <time>2026-07-27T09:26:48.000Z</time>
      </trkpt>
      <trkpt lat="44.49318" lon="6.45026">
        <ele>1423.255351</ele>
        <time>2026-07-27T09:26:49.000Z</time>
      </trkpt>
      <trkpt lat="44.49318" lon="6.45023">
        <ele>1423.322536</ele>
        <time>2026-07-27T09:26:50.000Z</time>
      </trkpt>
      <trkpt lat="44.49319" lon="6.45021">
        <ele>1423.398652</ele>
        <time>2026-07-27T09:26:51.000Z</time>
      </trkpt>
      <trkpt lat="44.49319" lon="6.45021">
        <ele>1423.398652</ele>
        <time>2026-07-27T09:26:51.000Z</time>
      </trkpt>
      <trkpt lat="44.4932" lon="6.45019">
        <ele>1423.457204</ele>
        <time>2026-07-27T09:26:52.000Z</time>
      </trkpt>
      <trkpt lat="44.4932" lon="6.45017">
        <ele>1423.504827</ele>
        <time>2026-07-27T09:26:53.000Z</time>
      </trkpt>
      <trkpt lat="44.4932" lon="6.45015">
        <ele>1423.545242</ele>
        <time>2026-07-27T09:26:54.000Z</time>
      </trkpt>
      <trkpt lat="44.49321" lon="6.45013">
        <ele>1423.607499</ele>
        <time>2026-07-27T09:26:55.000Z</time>
      </trkpt>
      <trkpt lat="44.49321" lon="6.45006">
        <ele>1423.784885</ele>
        <time>2026-07-27T09:26:57.000Z</time>
      </trkpt>
      <trkpt lat="44.49321" lon="6.45004">
        <ele>1423.837353</ele>
        <time>2026-07-27T09:26:58.000Z</time>
      </trkpt>
      <trkpt lat="44.49322" lon="6.45001">
        <ele>1423.90139</ele>
        <time>2026-07-27T09:26:59.000Z</time>
      </trkpt>
      <trkpt lat="44.49322" lon="6.44995">
        <ele>1424.068105</ele>
        <time>2026-07-27T09:27:01.000Z</time>
      </trkpt>
      <trkpt lat="44.49322" lon="6.44995">
        <ele>1424.068105</ele>
        <time>2026-07-27T09:27:01.000Z</time>
      </trkpt>
      <trkpt lat="44.49322" lon="6.44992">
        <ele>1424.128729</ele>
        <time>2026-07-27T09:27:02.000Z</time>
      </trkpt>
      <trkpt lat="44.49321" lon="6.44989">
        <ele>1424.202749</ele>
        <time>2026-07-27T09:27:03.000Z</time>
      </trkpt>
      <trkpt lat="44.49321" lon="6.44983">
        <ele>1424.357484</ele>
        <time>2026-07-27T09:27:05.000Z</time>
      </trkpt>
      <trkpt lat="44.49321" lon="6.44982">
        <ele>1424.388672</ele>
        <time>2026-07-27T09:27:06.000Z</time>
      </trkpt>
      <trkpt lat="44.49321" lon="6.44982">
        <ele>1424.388672</ele>
        <time>2026-07-27T09:27:06.000Z</time>
      </trkpt>
      <trkpt lat="44.49323" lon="6.44981">
        <ele>1424.464681</ele>
        <time>2026-07-27T09:27:08.000Z</time>
      </trkpt>
      <trkpt lat="44.49323" lon="6.44981">
        <ele>1424.464681</ele>
        <time>2026-07-27T09:27:08.000Z</time>
      </trkpt>
      <trkpt lat="44.49323" lon="6.44978">
        <ele>1424.526937</ele>
        <time>2026-07-27T09:27:29.000Z</time>
      </trkpt>
      <trkpt lat="44.49323" lon="6.44978">
        <ele>1424.526937</ele>
        <time>2026-07-27T09:27:29.000Z</time>
      </trkpt>
      <trkpt lat="44.49324" lon="6.44977">
        <ele>1424.566618</ele>
        <time>2026-07-27T09:27:32.000Z</time>
      </trkpt>
      <trkpt lat="44.49321" lon="6.44972">
        <ele>1424.723019</ele>
        <time>2026-07-27T09:39:49.000Z</time>
      </trkpt>
      <trkpt lat="44.4932" lon="6.44973">
        <ele>1424.767349</ele>
        <time>2026-07-27T09:39:59.000Z</time>
      </trkpt>
      <trkpt lat="44.49319" lon="6.44974">
        <ele>1424.804585</ele>
        <time>2026-07-27T09:40:01.000Z</time>
      </trkpt>
      <trkpt lat="44.49319" lon="6.44974">
        <ele>1424.807111</ele>
        <time>2026-07-27T09:40:02.000Z</time>
      </trkpt>
      <trkpt lat="44.49319" lon="6.44974">
        <ele>1424.823175</ele>
        <time>2026-07-27T09:40:03.000Z</time>
      </trkpt>
      <trkpt lat="44.49318" lon="6.44975">
        <ele>1424.866544</ele>
        <time>2026-07-27T09:40:04.000Z</time>
      </trkpt>
      <trkpt lat="44.49316" lon="6.44981">
        <ele>1425.031965</ele>
        <time>2026-07-27T09:40:06.000Z</time>
      </trkpt>
      <trkpt lat="44.49314" lon="6.44985">
        <ele>1425.135104</ele>
        <time>2026-07-27T09:40:08.000Z</time>
      </trkpt>
      <trkpt lat="44.49313" lon="6.44988">
        <ele>1425.227645</ele>
        <time>2026-07-27T09:40:10.000Z</time>
      </trkpt>
      <trkpt lat="44.49311" lon="6.44989">
        <ele>1425.279842</ele>
        <time>2026-07-27T09:40:11.000Z</time>
      </trkpt>
      <trkpt lat="44.49311" lon="6.44989">
        <ele>1425.279842</ele>
        <time>2026-07-27T09:40:11.000Z</time>
      </trkpt>
      <trkpt lat="44.4931" lon="6.44992">
        <ele>1425.375645</ele>
        <time>2026-07-27T09:40:11.000Z</time>
      </trkpt>
      <trkpt lat="44.4931" lon="6.44992">
        <ele>1425.375645</ele>
        <time>2026-07-27T09:40:11.000Z</time>
      </trkpt>
      <trkpt lat="44.49308" lon="6.44994">
        <ele>1425.450713</ele>
        <time>2026-07-27T09:40:12.000Z</time>
      </trkpt>
      <trkpt lat="44.49307" lon="6.44995">
        <ele>1425.51187</ele>
        <time>2026-07-27T09:40:14.000Z</time>
      </trkpt>
      <trkpt lat="44.49305" lon="6.44996">
        <ele>1425.589087</ele>
        <time>2026-07-27T09:40:15.000Z</time>
      </trkpt>
      <trkpt lat="44.49305" lon="6.44996">
        <ele>1425.589087</ele>
        <time>2026-07-27T09:40:15.000Z</time>
      </trkpt>
      <trkpt lat="44.49303" lon="6.44997">
        <ele>1425.658653</ele>
        <time>2026-07-27T09:40:16.000Z</time>
      </trkpt>
      <trkpt lat="44.49303" lon="6.44997">
        <ele>1425.658653</ele>
        <time>2026-07-27T09:40:16.000Z</time>
      </trkpt>
      <trkpt lat="44.49301" lon="6.44998">
        <ele>1425.718806</ele>
        <time>2026-07-27T09:40:17.000Z</time>
      </trkpt>
      <trkpt lat="44.49299" lon="6.44999">
        <ele>1425.789057</ele>
        <time>2026-07-27T09:40:18.000Z</time>
      </trkpt>
      <trkpt lat="44.49299" lon="6.44999">
        <ele>1425.789057</ele>
        <time>2026-07-27T09:40:18.000Z</time>
      </trkpt>
      <trkpt lat="44.49297" lon="6.45">
        <ele>1425.889606</ele>
        <time>2026-07-27T09:40:19.000Z</time>
      </trkpt>
      <trkpt lat="44.49297" lon="6.45">
        <ele>1425.889606</ele>
        <time>2026-07-27T09:40:19.000Z</time>
      </trkpt>
      <trkpt lat="44.49294" lon="6.45002">
        <ele>1425.980528</ele>
        <time>2026-07-27T09:40:19.000Z</time>
      </trkpt>
      <trkpt lat="44.49294" lon="6.45002">
        <ele>1425.980528</ele>
        <time>2026-07-27T09:40:19.000Z</time>
      </trkpt>
      <trkpt lat="44.49292" lon="6.45004">
        <ele>1426.088664</ele>
        <time>2026-07-27T09:40:21.000Z</time>
      </trkpt>
      <trkpt lat="44.49292" lon="6.45004">
        <ele>1426.088664</ele>
        <time>2026-07-27T09:40:21.000Z</time>
      </trkpt>
      <trkpt lat="44.49289" lon="6.45005">
        <ele>1426.179586</ele>
        <time>2026-07-27T09:40:21.000Z</time>
      </trkpt>
      <trkpt lat="44.49289" lon="6.45005">
        <ele>1426.179586</ele>
        <time>2026-07-27T09:40:21.000Z</time>
      </trkpt>
      <trkpt lat="44.49287" lon="6.45007">
        <ele>1426.25338</ele>
        <time>2026-07-27T09:40:23.000Z</time>
      </trkpt>
      <trkpt lat="44.49287" lon="6.45007">
        <ele>1426.25338</ele>
        <time>2026-07-27T09:40:23.000Z</time>
      </trkpt>
      <trkpt lat="44.49285" lon="6.45008">
        <ele>1426.345453</ele>
        <time>2026-07-27T09:40:23.000Z</time>
      </trkpt>
      <trkpt lat="44.49285" lon="6.45008">
        <ele>1426.345453</ele>
        <time>2026-07-27T09:40:23.000Z</time>
      </trkpt>
      <trkpt lat="44.49283" lon="6.4501">
        <ele>1426.438731</ele>
        <time>2026-07-27T09:40:25.000Z</time>
      </trkpt>
      <trkpt lat="44.49283" lon="6.4501">
        <ele>1426.438731</ele>
        <time>2026-07-27T09:40:25.000Z</time>
      </trkpt>
      <trkpt lat="44.49281" lon="6.45012">
        <ele>1426.527686</ele>
        <time>2026-07-27T09:40:26.000Z</time>
      </trkpt>
      <trkpt lat="44.49281" lon="6.45012">
        <ele>1426.527686</ele>
        <time>2026-07-27T09:40:26.000Z</time>
      </trkpt>
      <trkpt lat="44.49278" lon="6.45014">
        <ele>1426.633557</ele>
        <time>2026-07-27T09:40:27.000Z</time>
      </trkpt>
      <trkpt lat="44.49278" lon="6.45014">
        <ele>1426.633557</ele>
        <time>2026-07-27T09:40:27.000Z</time>
      </trkpt>
      <trkpt lat="44.49275" lon="6.45015">
        <ele>1426.736401</ele>
        <time>2026-07-27T09:40:28.000Z</time>
      </trkpt>
      <trkpt lat="44.49275" lon="6.45015">
        <ele>1426.736401</ele>
        <time>2026-07-27T09:40:28.000Z</time>
      </trkpt>
      <trkpt lat="44.49273" lon="6.45016">
        <ele>1426.833632</ele>
        <time>2026-07-27T09:40:29.000Z</time>
      </trkpt>
      <trkpt lat="44.49273" lon="6.45016">
        <ele>1426.833632</ele>
        <time>2026-07-27T09:40:29.000Z</time>
      </trkpt>
      <trkpt lat="44.4927" lon="6.45017">
        <ele>1426.916975</ele>
        <time>2026-07-27T09:40:30.000Z</time>
      </trkpt>
      <trkpt lat="44.4927" lon="6.45017">
        <ele>1426.916975</ele>
        <time>2026-07-27T09:40:30.000Z</time>
      </trkpt>
      <trkpt lat="44.49268" lon="6.45017">
        <ele>1426.987226</ele>
        <time>2026-07-27T09:40:31.000Z</time>
      </trkpt>
      <trkpt lat="44.49268" lon="6.45017">
        <ele>1426.987226</ele>
        <time>2026-07-27T09:40:31.000Z</time>
      </trkpt>
      <trkpt lat="44.49268" lon="6.45017">
        <ele>1426.987226</ele>
        <time>2026-07-27T09:40:32.000Z</time>
      </trkpt>
      <trkpt lat="44.49266" lon="6.4502">
        <ele>1427.083029</ele>
        <time>2026-07-27T09:40:46.000Z</time>
      </trkpt>
      <trkpt lat="44.49266" lon="6.4502">
        <ele>1427.083029</ele>
        <time>2026-07-27T09:40:46.000Z</time>
      </trkpt>
      <trkpt lat="44.49263" lon="6.45019">
        <ele>1427.190724</ele>
        <time>2026-07-27T09:40:50.000Z</time>
      </trkpt>
      <trkpt lat="44.49263" lon="6.45019">
        <ele>1427.256695</ele>
        <time>2026-07-27T09:40:51.000Z</time>
      </trkpt>
      <trkpt lat="44.49262" lon="6.45019">
        <ele>1427.339633</ele>
        <time>2026-07-27T09:40:52.000Z</time>
      </trkpt>
      <trkpt lat="44.4926" lon="6.45019">
        <ele>1427.713037</ele>
        <time>2026-07-27T09:40:53.000Z</time>
      </trkpt>
      <trkpt lat="44.49258" lon="6.45019">
        <ele>1428.164153</ele>
        <time>2026-07-27T09:40:55.000Z</time>
      </trkpt>
      <trkpt lat="44.49256" lon="6.45019">
        <ele>1428.541693</ele>
        <time>2026-07-27T09:40:56.000Z</time>
      </trkpt>
      <trkpt lat="44.49256" lon="6.45019">
        <ele>1428.541693</ele>
        <time>2026-07-27T09:40:56.000Z</time>
      </trkpt>
      <trkpt lat="44.49253" lon="6.4502">
        <ele>1429.135635</ele>
        <time>2026-07-27T09:40:56.000Z</time>
      </trkpt>
      <trkpt lat="44.49253" lon="6.4502">
        <ele>1429.135635</ele>
        <time>2026-07-27T09:40:56.000Z</time>
      </trkpt>
      <trkpt lat="44.4925" lon="6.45021">
        <ele>1429.667509</ele>
        <time>2026-07-27T09:40:58.000Z</time>
      </trkpt>
      <trkpt lat="44.4925" lon="6.45021">
        <ele>1429.667509</ele>
        <time>2026-07-27T09:40:58.000Z</time>
      </trkpt>
      <trkpt lat="44.49248" lon="6.45021">
        <ele>1430.127149</ele>
        <time>2026-07-27T09:40:58.000Z</time>
      </trkpt>
      <trkpt lat="44.49248" lon="6.45021">
        <ele>1430.127149</ele>
        <time>2026-07-27T09:40:58.000Z</time>
      </trkpt>
      <trkpt lat="44.49246" lon="6.45022">
        <ele>1430.637961</ele>
        <time>2026-07-27T09:40:59.000Z</time>
      </trkpt>
      <trkpt lat="44.49246" lon="6.45022">
        <ele>1430.637961</ele>
        <time>2026-07-27T09:40:59.000Z</time>
      </trkpt>
      <trkpt lat="44.49243" lon="6.45022">
        <ele>1431.16599</ele>
        <time>2026-07-27T09:41:01.000Z</time>
      </trkpt>
      <trkpt lat="44.49243" lon="6.45022">
        <ele>1431.16599</ele>
        <time>2026-07-27T09:41:01.000Z</time>
      </trkpt>
      <trkpt lat="44.49241" lon="6.45022">
        <ele>1431.618609</ele>
        <time>2026-07-27T09:41:01.000Z</time>
      </trkpt>
      <trkpt lat="44.49241" lon="6.45022">
        <ele>1431.618609</ele>
        <time>2026-07-27T09:41:01.000Z</time>
      </trkpt>
      <trkpt lat="44.49238" lon="6.45023">
        <ele>1432.167719</ele>
        <time>2026-07-27T09:41:02.000Z</time>
      </trkpt>
      <trkpt lat="44.49238" lon="6.45023">
        <ele>1432.167719</ele>
        <time>2026-07-27T09:41:02.000Z</time>
      </trkpt>
      <trkpt lat="44.49234" lon="6.45025">
        <ele>1433.021459</ele>
        <time>2026-07-27T09:41:05.000Z</time>
      </trkpt>
      <trkpt lat="44.49234" lon="6.45025">
        <ele>1433.021459</ele>
        <time>2026-07-27T09:41:05.000Z</time>
      </trkpt>
      <trkpt lat="44.49231" lon="6.45026">
        <ele>1433.536057</ele>
        <time>2026-07-27T09:41:05.000Z</time>
      </trkpt>
      <trkpt lat="44.49231" lon="6.45026">
        <ele>1433.536057</ele>
        <time>2026-07-27T09:41:05.000Z</time>
      </trkpt>
      <trkpt lat="44.49229" lon="6.45027">
        <ele>1433.998853</ele>
        <time>2026-07-27T09:41:06.000Z</time>
      </trkpt>
      <trkpt lat="44.49229" lon="6.45027">
        <ele>1433.998853</ele>
        <time>2026-07-27T09:41:06.000Z</time>
      </trkpt>
      <trkpt lat="44.49226" lon="6.45027">
        <ele>1434.45574</ele>
        <time>2026-07-27T09:41:07.000Z</time>
      </trkpt>
      <trkpt lat="44.49226" lon="6.45027">
        <ele>1434.45574</ele>
        <time>2026-07-27T09:41:07.000Z</time>
      </trkpt>
      <trkpt lat="44.49224" lon="6.45028">
        <ele>1434.98597</ele>
        <time>2026-07-27T09:41:09.000Z</time>
      </trkpt>
      <trkpt lat="44.49224" lon="6.45028">
        <ele>1434.98597</ele>
        <time>2026-07-27T09:41:09.000Z</time>
      </trkpt>
      <trkpt lat="44.49222" lon="6.45028">
        <ele>1435.359374</ele>
        <time>2026-07-27T09:41:09.000Z</time>
      </trkpt>
      <trkpt lat="44.49222" lon="6.45028">
        <ele>1435.359374</ele>
        <time>2026-07-27T09:41:09.000Z</time>
      </trkpt>
      <trkpt lat="44.4922" lon="6.45028">
        <ele>1435.731477</ele>
        <time>2026-07-27T09:41:10.000Z</time>
      </trkpt>
      <trkpt lat="44.4922" lon="6.45028">
        <ele>1435.731477</ele>
        <time>2026-07-27T09:41:10.000Z</time>
      </trkpt>
      <trkpt lat="44.49218" lon="6.45028">
        <ele>1436.02574</ele>
        <time>2026-07-27T09:41:11.000Z</time>
      </trkpt>
      <trkpt lat="44.49218" lon="6.45028">
        <ele>1436.02574</ele>
        <time>2026-07-27T09:41:11.000Z</time>
      </trkpt>
      <trkpt lat="44.49217" lon="6.45029">
        <ele>1436.270225</ele>
        <time>2026-07-27T09:41:13.000Z</time>
      </trkpt>
      <trkpt lat="44.49215" lon="6.45029">
        <ele>1436.645445</ele>
        <time>2026-07-27T09:41:14.000Z</time>
      </trkpt>
      <trkpt lat="44.49215" lon="6.45029">
        <ele>1436.645445</ele>
        <time>2026-07-27T09:41:14.000Z</time>
      </trkpt>
      <trkpt lat="44.49213" lon="6.45029">
        <ele>1437.017548</ele>
        <time>2026-07-27T09:41:15.000Z</time>
      </trkpt>
      <trkpt lat="44.49213" lon="6.45029">
        <ele>1437.017548</ele>
        <time>2026-07-27T09:41:15.000Z</time>
      </trkpt>
      <trkpt lat="44.49212" lon="6.45029">
        <ele>1437.310819</ele>
        <time>2026-07-27T09:41:15.000Z</time>
      </trkpt>
      <trkpt lat="44.4921" lon="6.45029">
        <ele>1437.763439</ele>
        <time>2026-07-27T09:41:16.000Z</time>
      </trkpt>
      <trkpt lat="44.4921" lon="6.45029">
        <ele>1437.763439</ele>
        <time>2026-07-27T09:41:16.000Z</time>
      </trkpt>
      <trkpt lat="44.49208" lon="6.45028">
        <ele>1438.150873</ele>
        <time>2026-07-27T09:41:18.000Z</time>
      </trkpt>
      <trkpt lat="44.49208" lon="6.45028">
        <ele>1438.150873</ele>
        <time>2026-07-27T09:41:18.000Z</time>
      </trkpt>
      <trkpt lat="44.49206" lon="6.45028">
        <ele>1438.451981</ele>
        <time>2026-07-27T09:41:18.000Z</time>
      </trkpt>
      <trkpt lat="44.49206" lon="6.45028">
        <ele>1438.451981</ele>
        <time>2026-07-27T09:41:18.000Z</time>
      </trkpt>
      <trkpt lat="44.49205" lon="6.45027">
        <ele>1438.767234</ele>
        <time>2026-07-27T09:41:19.000Z</time>
      </trkpt>
      <trkpt lat="44.49203" lon="6.45027">
        <ele>1439.061497</ele>
        <time>2026-07-27T09:41:21.000Z</time>
      </trkpt>
      <trkpt lat="44.49197" lon="6.45027">
        <ele>1440.254092</ele>
        <time>2026-07-27T09:41:23.000Z</time>
      </trkpt>
      <trkpt lat="44.49197" lon="6.45027">
        <ele>1440.254092</ele>
        <time>2026-07-27T09:41:23.000Z</time>
      </trkpt>
      <trkpt lat="44.49197" lon="6.45027">
        <ele>1440.254092</ele>
        <time>2026-07-27T09:41:23.000Z</time>
      </trkpt>
      <trkpt lat="44.49192" lon="6.45028">
        <ele>1441.159331</ele>
        <time>2026-07-27T09:41:24.000Z</time>
      </trkpt>
      <trkpt lat="44.49192" lon="6.45028">
        <ele>1441.159331</ele>
        <time>2026-07-27T09:41:24.000Z</time>
      </trkpt>
      <trkpt lat="44.49191" lon="6.45029">
        <ele>1441.472756</ele>
        <time>2026-07-27T09:41:25.000Z</time>
      </trkpt>
      <trkpt lat="44.49189" lon="6.4503">
        <ele>1441.791401</ele>
        <time>2026-07-27T09:41:26.000Z</time>
      </trkpt>
      <trkpt lat="44.49188" lon="6.4503">
        <ele>1442.17506</ele>
        <time>2026-07-27T09:41:28.000Z</time>
      </trkpt>
      <trkpt lat="44.49186" lon="6.45031">
        <ele>1442.498517</ele>
        <time>2026-07-27T09:41:28.000Z</time>
      </trkpt>
      <trkpt lat="44.49184" lon="6.45032">
        <ele>1442.822897</ele>
        <time>2026-07-27T09:41:29.000Z</time>
      </trkpt>
      <trkpt lat="44.49183" lon="6.45033">
        <ele>1443.160183</ele>
        <time>2026-07-27T09:41:30.000Z</time>
      </trkpt>
      <trkpt lat="44.49181" lon="6.45034">
        <ele>1443.484563</ele>
        <time>2026-07-27T09:41:31.000Z</time>
      </trkpt>
      <trkpt lat="44.4918" lon="6.45035">
        <ele>1443.845724</ele>
        <time>2026-07-27T09:41:32.000Z</time>
      </trkpt>
      <trkpt lat="44.49178" lon="6.45036">
        <ele>1444.176327</ele>
        <time>2026-07-27T09:41:33.000Z</time>
      </trkpt>
      <trkpt lat="44.49177" lon="6.45037">
        <ele>1444.494972</ele>
        <time>2026-07-27T09:41:34.000Z</time>
      </trkpt>
      <trkpt lat="44.49176" lon="6.45038">
        <ele>1444.739458</ele>
        <time>2026-07-27T09:41:36.000Z</time>
      </trkpt>
      <trkpt lat="44.49174" lon="6.45038">
        <ele>1445.112862</ele>
        <time>2026-07-27T09:41:36.000Z</time>
      </trkpt>
      <trkpt lat="44.49172" lon="6.45039">
        <ele>1445.413971</ele>
        <time>2026-07-27T09:41:38.000Z</time>
      </trkpt>
      <trkpt lat="44.4917" lon="6.45039">
        <ele>1445.873611</ele>
        <time>2026-07-27T09:41:38.000Z</time>
      </trkpt>
      <trkpt lat="44.49168" lon="6.4504">
        <ele>1446.25727</ele>
        <time>2026-07-27T09:41:39.000Z</time>
      </trkpt>
      <trkpt lat="44.49168" lon="6.4504">
        <ele>1446.25727</ele>
        <time>2026-07-27T09:41:39.000Z</time>
      </trkpt>
      <trkpt lat="44.49166" lon="6.45041">
        <ele>1446.640929</ele>
        <time>2026-07-27T09:41:40.000Z</time>
      </trkpt>
      <trkpt lat="44.49166" lon="6.45041">
        <ele>1446.640929</ele>
        <time>2026-07-27T09:41:40.000Z</time>
      </trkpt>
      <trkpt lat="44.49166" lon="6.45041">
        <ele>1446.640929</ele>
        <time>2026-07-27T09:41:42.000Z</time>
      </trkpt>
      <trkpt lat="44.49162" lon="6.45043">
        <ele>1447.521527</ele>
        <time>2026-07-27T09:41:42.000Z</time>
      </trkpt>
      <trkpt lat="44.49162" lon="6.45043">
        <ele>1447.521527</ele>
        <time>2026-07-27T09:41:42.000Z</time>
      </trkpt>
      <trkpt lat="44.4916" lon="6.45044">
        <ele>1447.834953</ele>
        <time>2026-07-27T09:41:43.000Z</time>
      </trkpt>
      <trkpt lat="44.4916" lon="6.45044">
        <ele>1447.834953</ele>
        <time>2026-07-27T09:41:43.000Z</time>
      </trkpt>
      <trkpt lat="44.4916" lon="6.45044">
        <ele>1447.834953</ele>
        <time>2026-07-27T09:41:44.000Z</time>
      </trkpt>
      <trkpt lat="44.4916" lon="6.45044">
        <ele>1447.834953</ele>
        <time>2026-07-27T09:41:45.000Z</time>
      </trkpt>
      <trkpt lat="44.49157" lon="6.45044">
        <ele>1448.442923</ele>
        <time>2026-07-27T09:41:46.000Z</time>
      </trkpt>
      <trkpt lat="44.49157" lon="6.45044">
        <ele>1448.442923</ele>
        <time>2026-07-27T09:41:46.000Z</time>
      </trkpt>
      <trkpt lat="44.49157" lon="6.45044">
        <ele>1448.442923</ele>
        <time>2026-07-27T09:41:47.000Z</time>
      </trkpt>
      <trkpt lat="44.49157" lon="6.45044">
        <ele>1448.442923</ele>
        <time>2026-07-27T09:41:48.000Z</time>
      </trkpt>
      <trkpt lat="44.49157" lon="6.45044">
        <ele>1448.580337</ele>
        <time>2026-07-27T09:42:07.000Z</time>
      </trkpt>
      <trkpt lat="44.49155" lon="6.45046">
        <ele>1449.013199</ele>
        <time>2026-07-27T09:42:08.000Z</time>
      </trkpt>
      <trkpt lat="44.49154" lon="6.45046">
        <ele>1449.179074</ele>
        <time>2026-07-27T09:42:10.000Z</time>
      </trkpt>
      <trkpt lat="44.49153" lon="6.45047">
        <ele>1449.409587</ele>
        <time>2026-07-27T09:42:11.000Z</time>
      </trkpt>
      <trkpt lat="44.49152" lon="6.45048">
        <ele>1449.669091</ele>
        <time>2026-07-27T09:42:12.000Z</time>
      </trkpt>
      <trkpt lat="44.4915" lon="6.45049">
        <ele>1450.028928</ele>
        <time>2026-07-27T09:42:12.000Z</time>
      </trkpt>
      <trkpt lat="44.49149" lon="6.45051">
        <ele>1450.336294</ele>
        <time>2026-07-27T09:42:13.000Z</time>
      </trkpt>
      <trkpt lat="44.49149" lon="6.45051">
        <ele>1450.336294</ele>
        <time>2026-07-27T09:42:13.000Z</time>
      </trkpt>
      <trkpt lat="44.49149" lon="6.45053">
        <ele>1450.684659</ele>
        <time>2026-07-27T09:42:15.000Z</time>
      </trkpt>
      <trkpt lat="44.49149" lon="6.45053">
        <ele>1450.684659</ele>
        <time>2026-07-27T09:42:15.000Z</time>
      </trkpt>
      <trkpt lat="44.49147" lon="6.45056">
        <ele>1451.081637</ele>
        <time>2026-07-27T09:42:16.000Z</time>
      </trkpt>
      <trkpt lat="44.49147" lon="6.45056">
        <ele>1451.081637</ele>
        <time>2026-07-27T09:42:16.000Z</time>
      </trkpt>
      <trkpt lat="44.49146" lon="6.45058">
        <ele>1451.479055</ele>
        <time>2026-07-27T09:42:17.000Z</time>
      </trkpt>
      <trkpt lat="44.49146" lon="6.45058">
        <ele>1451.479055</ele>
        <time>2026-07-27T09:42:17.000Z</time>
      </trkpt>
      <trkpt lat="44.49146" lon="6.4506">
        <ele>1451.835537</ele>
        <time>2026-07-27T09:42:17.000Z</time>
      </trkpt>
      <trkpt lat="44.49144" lon="6.45063">
        <ele>1452.29311</ele>
        <time>2026-07-27T09:42:19.000Z</time>
      </trkpt>
      <trkpt lat="44.49144" lon="6.45063">
        <ele>1452.29311</ele>
        <time>2026-07-27T09:42:19.000Z</time>
      </trkpt>
      <trkpt lat="44.49143" lon="6.45066">
        <ele>1452.784471</ele>
        <time>2026-07-27T09:42:20.000Z</time>
      </trkpt>
      <trkpt lat="44.49143" lon="6.45066">
        <ele>1452.784471</ele>
        <time>2026-07-27T09:42:20.000Z</time>
      </trkpt>
      <trkpt lat="44.49142" lon="6.45069">
        <ele>1453.170242</ele>
        <time>2026-07-27T09:42:21.000Z</time>
      </trkpt>
      <trkpt lat="44.49142" lon="6.45069">
        <ele>1453.170242</ele>
        <time>2026-07-27T09:42:21.000Z</time>
      </trkpt>
      <trkpt lat="44.49141" lon="6.45071">
        <ele>1453.551964</ele>
        <time>2026-07-27T09:42:22.000Z</time>
      </trkpt>
      <trkpt lat="44.4914" lon="6.45075">
        <ele>1454.120793</ele>
        <time>2026-07-27T09:42:23.000Z</time>
      </trkpt>
      <trkpt lat="44.4914" lon="6.45075">
        <ele>1454.120793</ele>
        <time>2026-07-27T09:42:23.000Z</time>
      </trkpt>
      <trkpt lat="44.49139" lon="6.45078">
        <ele>1454.599956</ele>
        <time>2026-07-27T09:42:24.000Z</time>
      </trkpt>
      <trkpt lat="44.49139" lon="6.45078">
        <ele>1454.599956</ele>
        <time>2026-07-27T09:42:24.000Z</time>
      </trkpt>
      <trkpt lat="44.49137" lon="6.45082">
        <ele>1455.229518</ele>
        <time>2026-07-27T09:42:25.000Z</time>
      </trkpt>
      <trkpt lat="44.49135" lon="6.45086">
        <ele>1455.876002</ele>
        <time>2026-07-27T09:42:25.000Z</time>
      </trkpt>
      <trkpt lat="44.49135" lon="6.45086">
        <ele>1455.876002</ele>
        <time>2026-07-27T09:42:25.000Z</time>
      </trkpt>
      <trkpt lat="44.49133" lon="6.45089">
        <ele>1456.511128</ele>
        <time>2026-07-27T09:42:27.000Z</time>
      </trkpt>
      <trkpt lat="44.49133" lon="6.45089">
        <ele>1456.511128</ele>
        <time>2026-07-27T09:42:27.000Z</time>
      </trkpt>
      <trkpt lat="44.49132" lon="6.45093">
        <ele>1457.104016</ele>
        <time>2026-07-27T09:42:28.000Z</time>
      </trkpt>
      <trkpt lat="44.49132" lon="6.45093">
        <ele>1457.104016</ele>
        <time>2026-07-27T09:42:28.000Z</time>
      </trkpt>
      <trkpt lat="44.4913" lon="6.45097">
        <ele>1457.727889</ele>
        <time>2026-07-27T09:42:29.000Z</time>
      </trkpt>
      <trkpt lat="44.4913" lon="6.45097">
        <ele>1457.727889</ele>
        <time>2026-07-27T09:42:29.000Z</time>
      </trkpt>
      <trkpt lat="44.49128" lon="6.451">
        <ele>1458.340619</ele>
        <time>2026-07-27T09:42:29.000Z</time>
      </trkpt>
      <trkpt lat="44.49128" lon="6.451">
        <ele>1458.340619</ele>
        <time>2026-07-27T09:42:29.000Z</time>
      </trkpt>
      <trkpt lat="44.49126" lon="6.45104">
        <ele>1459.021751</ele>
        <time>2026-07-27T09:42:31.000Z</time>
      </trkpt>
      <trkpt lat="44.49126" lon="6.45104">
        <ele>1459.021751</ele>
        <time>2026-07-27T09:42:31.000Z</time>
      </trkpt>
      <trkpt lat="44.49124" lon="6.45108">
        <ele>1459.736888</ele>
        <time>2026-07-27T09:42:32.000Z</time>
      </trkpt>
      <trkpt lat="44.49124" lon="6.45108">
        <ele>1459.736888</ele>
        <time>2026-07-27T09:42:32.000Z</time>
      </trkpt>
      <trkpt lat="44.49122" lon="6.45113">
        <ele>1460.4969</ele>
        <time>2026-07-27T09:42:33.000Z</time>
      </trkpt>
      <trkpt lat="44.49122" lon="6.45113">
        <ele>1460.4969</ele>
        <time>2026-07-27T09:42:33.000Z</time>
      </trkpt>
      <trkpt lat="44.4912" lon="6.45117">
        <ele>1461.178032</ele>
        <time>2026-07-27T09:42:34.000Z</time>
      </trkpt>
      <trkpt lat="44.4912" lon="6.45117">
        <ele>1461.178032</ele>
        <time>2026-07-27T09:42:34.000Z</time>
      </trkpt>
      <trkpt lat="44.49118" lon="6.45121">
        <ele>1461.804803</ele>
        <time>2026-07-27T09:42:35.000Z</time>
      </trkpt>
      <trkpt lat="44.49118" lon="6.45121">
        <ele>1461.804803</ele>
        <time>2026-07-27T09:42:35.000Z</time>
      </trkpt>
      <trkpt lat="44.49117" lon="6.45125">
        <ele>1462.389932</ele>
        <time>2026-07-27T09:42:35.000Z</time>
      </trkpt>
      <trkpt lat="44.49117" lon="6.45125">
        <ele>1462.389932</ele>
        <time>2026-07-27T09:42:35.000Z</time>
      </trkpt>
      <trkpt lat="44.49115" lon="6.45129">
        <ele>1462.719582</ele>
        <time>2026-07-27T09:42:36.000Z</time>
      </trkpt>
      <trkpt lat="44.49115" lon="6.45129">
        <ele>1462.719582</ele>
        <time>2026-07-27T09:42:36.000Z</time>
      </trkpt>
      <trkpt lat="44.49113" lon="6.45133">
        <ele>1463.014905</ele>
        <time>2026-07-27T09:42:38.000Z</time>
      </trkpt>
      <trkpt lat="44.49113" lon="6.45133">
        <ele>1463.014905</ele>
        <time>2026-07-27T09:42:38.000Z</time>
      </trkpt>
      <trkpt lat="44.49112" lon="6.45138">
        <ele>1463.333254</ele>
        <time>2026-07-27T09:42:39.000Z</time>
      </trkpt>
      <trkpt lat="44.49112" lon="6.45138">
        <ele>1463.333254</ele>
        <time>2026-07-27T09:42:39.000Z</time>
      </trkpt>
      <trkpt lat="44.4911" lon="6.45143">
        <ele>1463.672828</ele>
        <time>2026-07-27T09:42:39.000Z</time>
      </trkpt>
      <trkpt lat="44.4911" lon="6.45143">
        <ele>1463.672828</ele>
        <time>2026-07-27T09:42:39.000Z</time>
      </trkpt>
      <trkpt lat="44.49108" lon="6.45148">
        <ele>1464.041591</ele>
        <time>2026-07-27T09:42:40.000Z</time>
      </trkpt>
      <trkpt lat="44.49108" lon="6.45148">
        <ele>1464.041591</ele>
        <time>2026-07-27T09:42:40.000Z</time>
      </trkpt>
      <trkpt lat="44.49107" lon="6.45152">
        <ele>1464.340414</ele>
        <time>2026-07-27T09:42:41.000Z</time>
      </trkpt>
      <trkpt lat="44.49106" lon="6.45157">
        <ele>1464.658764</ele>
        <time>2026-07-27T09:42:43.000Z</time>
      </trkpt>
      <trkpt lat="44.49106" lon="6.45157">
        <ele>1464.658764</ele>
        <time>2026-07-27T09:42:43.000Z</time>
      </trkpt>
      <trkpt lat="44.49104" lon="6.45161">
        <ele>1464.977517</ele>
        <time>2026-07-27T09:42:43.000Z</time>
      </trkpt>
      <trkpt lat="44.49102" lon="6.45164">
        <ele>1465.214917</ele>
        <time>2026-07-27T09:42:45.000Z</time>
      </trkpt>
      <trkpt lat="44.49101" lon="6.45167">
        <ele>1465.457996</ele>
        <time>2026-07-27T09:42:46.000Z</time>
      </trkpt>
      <trkpt lat="44.49101" lon="6.45167">
        <ele>1465.457996</ele>
        <time>2026-07-27T09:42:46.000Z</time>
      </trkpt>
      <trkpt lat="44.49098" lon="6.45169">
        <ele>1465.715608</ele>
        <time>2026-07-27T09:42:47.000Z</time>
      </trkpt>
      <trkpt lat="44.49096" lon="6.45171">
        <ele>1465.925299</ele>
        <time>2026-07-27T09:42:48.000Z</time>
      </trkpt>
      <trkpt lat="44.49094" lon="6.45172">
        <ele>1466.143641</ele>
        <time>2026-07-27T09:42:48.000Z</time>
      </trkpt>
      <trkpt lat="44.49091" lon="6.45173">
        <ele>1466.391585</ele>
        <time>2026-07-27T09:42:49.000Z</time>
      </trkpt>
      <trkpt lat="44.49089" lon="6.45173">
        <ele>1466.562773</ele>
        <time>2026-07-27T09:42:51.000Z</time>
      </trkpt>
      <trkpt lat="44.49088" lon="6.45172">
        <ele>1466.717944</ele>
        <time>2026-07-27T09:42:52.000Z</time>
      </trkpt>
      <trkpt lat="44.49087" lon="6.4517">
        <ele>1466.84721</ele>
        <time>2026-07-27T09:42:53.000Z</time>
      </trkpt>
      <trkpt lat="44.49086" lon="6.45168">
        <ele>1466.968045</ele>
        <time>2026-07-27T09:42:53.000Z</time>
      </trkpt>
      <trkpt lat="44.49086" lon="6.45168">
        <ele>1466.968045</ele>
        <time>2026-07-27T09:42:53.000Z</time>
      </trkpt>
      <trkpt lat="44.49086" lon="6.45167">
        <ele>1467.058786</ele>
        <time>2026-07-27T09:42:55.000Z</time>
      </trkpt>
      <trkpt lat="44.49086" lon="6.45165">
        <ele>1467.186971</ele>
        <time>2026-07-27T09:42:55.000Z</time>
      </trkpt>
      <trkpt lat="44.49087" lon="6.45163">
        <ele>1467.362586</ele>
        <time>2026-07-27T09:42:57.000Z</time>
      </trkpt>
      <trkpt lat="44.49087" lon="6.45163">
        <ele>1467.362586</ele>
        <time>2026-07-27T09:42:57.000Z</time>
      </trkpt>
      <trkpt lat="44.49088" lon="6.4516">
        <ele>1467.5407</ele>
        <time>2026-07-27T09:42:57.000Z</time>
      </trkpt>
      <trkpt lat="44.49088" lon="6.45158">
        <ele>1467.680011</ele>
        <time>2026-07-27T09:42:58.000Z</time>
      </trkpt>
      <trkpt lat="44.49088" lon="6.45158">
        <ele>1467.680011</ele>
        <time>2026-07-27T09:42:58.000Z</time>
      </trkpt>
      <trkpt lat="44.49089" lon="6.45155">
        <ele>1467.885284</ele>
        <time>2026-07-27T09:42:59.000Z</time>
      </trkpt>
      <trkpt lat="44.49089" lon="6.45155">
        <ele>1467.885284</ele>
        <time>2026-07-27T09:42:59.000Z</time>
      </trkpt>
      <trkpt lat="44.49089" lon="6.45152">
        <ele>1468.069409</ele>
        <time>2026-07-27T09:43:00.000Z</time>
      </trkpt>
      <trkpt lat="44.4909" lon="6.4515">
        <ele>1468.233621</ele>
        <time>2026-07-27T09:43:01.000Z</time>
      </trkpt>
      <trkpt lat="44.4909" lon="6.4515">
        <ele>1468.233621</ele>
        <time>2026-07-27T09:43:01.000Z</time>
      </trkpt>
      <trkpt lat="44.49091" lon="6.45147">
        <ele>1468.450948</ele>
        <time>2026-07-27T09:43:02.000Z</time>
      </trkpt>
      <trkpt lat="44.49091" lon="6.45147">
        <ele>1468.450948</ele>
        <time>2026-07-27T09:43:02.000Z</time>
      </trkpt>
      <trkpt lat="44.49091" lon="6.45143">
        <ele>1468.70348</ele>
        <time>2026-07-27T09:43:03.000Z</time>
      </trkpt>
      <trkpt lat="44.49091" lon="6.45143">
        <ele>1468.70348</ele>
        <time>2026-07-27T09:43:03.000Z</time>
      </trkpt>
      <trkpt lat="44.49092" lon="6.45139">
        <ele>1468.961232</ele>
        <time>2026-07-27T09:43:04.000Z</time>
      </trkpt>
      <trkpt lat="44.49092" lon="6.45139">
        <ele>1468.961232</ele>
        <time>2026-07-27T09:43:04.000Z</time>
      </trkpt>
      <trkpt lat="44.49093" lon="6.45135">
        <ele>1469.233665</ele>
        <time>2026-07-27T09:43:05.000Z</time>
      </trkpt>
      <trkpt lat="44.49093" lon="6.45135">
        <ele>1469.233665</ele>
        <time>2026-07-27T09:43:05.000Z</time>
      </trkpt>
      <trkpt lat="44.49093" lon="6.45131">
        <ele>1469.460474</ele>
        <time>2026-07-27T09:43:06.000Z</time>
      </trkpt>
      <trkpt lat="44.49093" lon="6.45131">
        <ele>1469.460474</ele>
        <time>2026-07-27T09:43:06.000Z</time>
      </trkpt>
      <trkpt lat="44.49094" lon="6.45127">
        <ele>1469.719352</ele>
        <time>2026-07-27T09:43:07.000Z</time>
      </trkpt>
      <trkpt lat="44.49094" lon="6.45127">
        <ele>1469.719352</ele>
        <time>2026-07-27T09:43:07.000Z</time>
      </trkpt>
      <trkpt lat="44.49094" lon="6.45122">
        <ele>1470.041526</ele>
        <time>2026-07-27T09:43:09.000Z</time>
      </trkpt>
      <trkpt lat="44.49094" lon="6.45122">
        <ele>1470.041526</ele>
        <time>2026-07-27T09:43:09.000Z</time>
      </trkpt>
      <trkpt lat="44.49095" lon="6.45118">
        <ele>1470.351263</ele>
        <time>2026-07-27T09:43:09.000Z</time>
      </trkpt>
      <trkpt lat="44.49095" lon="6.45118">
        <ele>1470.351263</ele>
        <time>2026-07-27T09:43:09.000Z</time>
      </trkpt>
      <trkpt lat="44.49095" lon="6.45113">
        <ele>1470.635551</ele>
        <time>2026-07-27T09:43:10.000Z</time>
      </trkpt>
      <trkpt lat="44.49095" lon="6.45113">
        <ele>1470.635551</ele>
        <time>2026-07-27T09:43:10.000Z</time>
      </trkpt>
      <trkpt lat="44.49095" lon="6.45109">
        <ele>1470.923968</ele>
        <time>2026-07-27T09:43:12.000Z</time>
      </trkpt>
      <trkpt lat="44.49095" lon="6.45109">
        <ele>1470.923968</ele>
        <time>2026-07-27T09:43:12.000Z</time>
      </trkpt>
      <trkpt lat="44.49095" lon="6.45104">
        <ele>1471.212385</ele>
        <time>2026-07-27T09:43:13.000Z</time>
      </trkpt>
      <trkpt lat="44.49095" lon="6.45104">
        <ele>1471.212385</ele>
        <time>2026-07-27T09:43:13.000Z</time>
      </trkpt>
      <trkpt lat="44.49096" lon="6.451">
        <ele>1471.48292</ele>
        <time>2026-07-27T09:43:13.000Z</time>
      </trkpt>
      <trkpt lat="44.49096" lon="6.451">
        <ele>1471.48292</ele>
        <time>2026-07-27T09:43:13.000Z</time>
      </trkpt>
      <trkpt lat="44.49096" lon="6.45095">
        <ele>1471.771337</ele>
        <time>2026-07-27T09:43:14.000Z</time>
      </trkpt>
      <trkpt lat="44.49096" lon="6.45095">
        <ele>1471.771337</ele>
        <time>2026-07-27T09:43:14.000Z</time>
      </trkpt>
      <trkpt lat="44.49096" lon="6.45092">
        <ele>1472.023869</ele>
        <time>2026-07-27T09:43:16.000Z</time>
      </trkpt>
      <trkpt lat="44.49096" lon="6.45092">
        <ele>1472.023869</ele>
        <time>2026-07-27T09:43:16.000Z</time>
      </trkpt>
      <trkpt lat="44.49096" lon="6.45088">
        <ele>1472.270058</ele>
        <time>2026-07-27T09:43:16.000Z</time>
      </trkpt>
      <trkpt lat="44.49096" lon="6.45088">
        <ele>1472.270058</ele>
        <time>2026-07-27T09:43:16.000Z</time>
      </trkpt>
      <trkpt lat="44.49095" lon="6.45086">
        <ele>1472.418622</ele>
        <time>2026-07-27T09:43:18.000Z</time>
      </trkpt>
      <trkpt lat="44.49095" lon="6.45086">
        <ele>1472.418622</ele>
        <time>2026-07-27T09:43:18.000Z</time>
      </trkpt>
      <trkpt lat="44.49094" lon="6.45084">
        <ele>1472.563075</ele>
        <time>2026-07-27T09:43:18.000Z</time>
      </trkpt>
      <trkpt lat="44.49094" lon="6.45084">
        <ele>1472.563075</ele>
        <time>2026-07-27T09:43:18.000Z</time>
      </trkpt>
      <trkpt lat="44.49093" lon="6.45084">
        <ele>1472.628841</ele>
        <time>2026-07-27T09:43:19.000Z</time>
      </trkpt>
      <trkpt lat="44.49091" lon="6.45085">
        <ele>1472.794996</ele>
        <time>2026-07-27T09:43:20.000Z</time>
      </trkpt>
      <trkpt lat="44.49091" lon="6.45085">
        <ele>1472.794996</ele>
        <time>2026-07-27T09:43:20.000Z</time>
      </trkpt>
      <trkpt lat="44.49089" lon="6.45087">
        <ele>1473.012382</ele>
        <time>2026-07-27T09:43:22.000Z</time>
      </trkpt>
      <trkpt lat="44.49089" lon="6.45087">
        <ele>1473.012382</ele>
        <time>2026-07-27T09:43:22.000Z</time>
      </trkpt>
      <trkpt lat="44.49088" lon="6.45091">
        <ele>1473.245839</ele>
        <time>2026-07-27T09:43:22.000Z</time>
      </trkpt>
      <trkpt lat="44.49088" lon="6.45091">
        <ele>1473.245839</ele>
        <time>2026-07-27T09:43:22.000Z</time>
      </trkpt>
      <trkpt lat="44.49087" lon="6.45094">
        <ele>1473.518602</ele>
        <time>2026-07-27T09:43:23.000Z</time>
      </trkpt>
      <trkpt lat="44.49087" lon="6.45094">
        <ele>1473.518602</ele>
        <time>2026-07-27T09:43:23.000Z</time>
      </trkpt>
      <trkpt lat="44.49085" lon="6.45099">
        <ele>1473.84086</ele>
        <time>2026-07-27T09:43:24.000Z</time>
      </trkpt>
      <trkpt lat="44.49085" lon="6.45099">
        <ele>1473.84086</ele>
        <time>2026-07-27T09:43:24.000Z</time>
      </trkpt>
      <trkpt lat="44.49083" lon="6.45103">
        <ele>1474.175159</ele>
        <time>2026-07-27T09:43:25.000Z</time>
      </trkpt>
      <trkpt lat="44.49083" lon="6.45103">
        <ele>1474.175159</ele>
        <time>2026-07-27T09:43:25.000Z</time>
      </trkpt>
      <trkpt lat="44.49081" lon="6.45107">
        <ele>1474.459137</ele>
        <time>2026-07-27T09:43:26.000Z</time>
      </trkpt>
      <trkpt lat="44.49081" lon="6.45107">
        <ele>1474.459137</ele>
        <time>2026-07-27T09:43:26.000Z</time>
      </trkpt>
      <trkpt lat="44.4908" lon="6.45111">
        <ele>1474.756558</ele>
        <time>2026-07-27T09:43:27.000Z</time>
      </trkpt>
      <trkpt lat="44.4908" lon="6.45111">
        <ele>1474.756558</ele>
        <time>2026-07-27T09:43:27.000Z</time>
      </trkpt>
      <trkpt lat="44.49077" lon="6.45115">
        <ele>1475.095918</ele>
        <time>2026-07-27T09:43:29.000Z</time>
      </trkpt>
      <trkpt lat="44.49077" lon="6.45115">
        <ele>1475.095918</ele>
        <time>2026-07-27T09:43:29.000Z</time>
      </trkpt>
      <trkpt lat="44.49075" lon="6.45119">
        <ele>1475.457199</ele>
        <time>2026-07-27T09:43:29.000Z</time>
      </trkpt>
      <trkpt lat="44.49075" lon="6.45119">
        <ele>1475.457199</ele>
        <time>2026-07-27T09:43:29.000Z</time>
      </trkpt>
      <trkpt lat="44.49073" lon="6.45122">
        <ele>1475.725091</ele>
        <time>2026-07-27T09:43:30.000Z</time>
      </trkpt>
      <trkpt lat="44.49073" lon="6.45122">
        <ele>1475.725091</ele>
        <time>2026-07-27T09:43:30.000Z</time>
      </trkpt>
      <trkpt lat="44.4907" lon="6.45125">
        <ele>1475.992067</ele>
        <time>2026-07-27T09:43:31.000Z</time>
      </trkpt>
      <trkpt lat="44.49068" lon="6.45127">
        <ele>1476.235242</ele>
        <time>2026-07-27T09:43:32.000Z</time>
      </trkpt>
      <trkpt lat="44.49068" lon="6.45127">
        <ele>1476.235242</ele>
        <time>2026-07-27T09:43:32.000Z</time>
      </trkpt>
      <trkpt lat="44.49066" lon="6.45128">
        <ele>1476.458053</ele>
        <time>2026-07-27T09:43:34.000Z</time>
      </trkpt>
      <trkpt lat="44.49066" lon="6.45128">
        <ele>1476.458053</ele>
        <time>2026-07-27T09:43:34.000Z</time>
      </trkpt>
      <trkpt lat="44.49063" lon="6.45129">
        <ele>1476.741256</ele>
        <time>2026-07-27T09:43:35.000Z</time>
      </trkpt>
      <trkpt lat="44.4906" lon="6.45129">
        <ele>1476.950372</ele>
        <time>2026-07-27T09:43:35.000Z</time>
      </trkpt>
      <trkpt lat="44.4906" lon="6.45129">
        <ele>1476.950372</ele>
        <time>2026-07-27T09:43:35.000Z</time>
      </trkpt>
      <trkpt lat="44.49058" lon="6.45128">
        <ele>1477.15174</ele>
        <time>2026-07-27T09:43:36.000Z</time>
      </trkpt>
      <trkpt lat="44.49058" lon="6.45128">
        <ele>1477.15174</ele>
        <time>2026-07-27T09:43:36.000Z</time>
      </trkpt>
      <trkpt lat="44.49056" lon="6.45127">
        <ele>1477.401088</ele>
        <time>2026-07-27T09:43:37.000Z</time>
      </trkpt>
      <trkpt lat="44.49052" lon="6.45125">
        <ele>1477.707693</ele>
        <time>2026-07-27T09:43:38.000Z</time>
      </trkpt>
      <trkpt lat="44.49052" lon="6.45125">
        <ele>1477.707693</ele>
        <time>2026-07-27T09:43:38.000Z</time>
      </trkpt>
      <trkpt lat="44.4905" lon="6.45123">
        <ele>1477.968228</ele>
        <time>2026-07-27T09:43:39.000Z</time>
      </trkpt>
      <trkpt lat="44.4905" lon="6.45123">
        <ele>1477.968228</ele>
        <time>2026-07-27T09:43:39.000Z</time>
      </trkpt>
      <trkpt lat="44.49048" lon="6.45122">
        <ele>1478.196143</ele>
        <time>2026-07-27T09:43:41.000Z</time>
      </trkpt>
      <trkpt lat="44.49048" lon="6.45122">
        <ele>1478.196143</ele>
        <time>2026-07-27T09:43:41.000Z</time>
      </trkpt>
      <trkpt lat="44.49045" lon="6.45119">
        <ele>1478.465679</ele>
        <time>2026-07-27T09:43:41.000Z</time>
      </trkpt>
      <trkpt lat="44.49045" lon="6.45119">
        <ele>1478.465679</ele>
        <time>2026-07-27T09:43:41.000Z</time>
      </trkpt>
      <trkpt lat="44.49043" lon="6.45117">
        <ele>1478.876348</ele>
        <time>2026-07-27T09:43:43.000Z</time>
      </trkpt>
      <trkpt lat="44.49043" lon="6.45117">
        <ele>1478.876348</ele>
        <time>2026-07-27T09:43:43.000Z</time>
      </trkpt>
      <trkpt lat="44.49041" lon="6.45114">
        <ele>1479.265937</ele>
        <time>2026-07-27T09:43:43.000Z</time>
      </trkpt>
      <trkpt lat="44.49041" lon="6.45114">
        <ele>1479.265937</ele>
        <time>2026-07-27T09:43:43.000Z</time>
      </trkpt>
      <trkpt lat="44.49039" lon="6.45111">
        <ele>1479.783207</ele>
        <time>2026-07-27T09:43:44.000Z</time>
      </trkpt>
      <trkpt lat="44.49039" lon="6.45111">
        <ele>1479.783207</ele>
        <time>2026-07-27T09:43:44.000Z</time>
      </trkpt>
      <trkpt lat="44.49036" lon="6.45109">
        <ele>1480.251094</ele>
        <time>2026-07-27T09:43:46.000Z</time>
      </trkpt>
      <trkpt lat="44.49036" lon="6.45109">
        <ele>1480.251094</ele>
        <time>2026-07-27T09:43:46.000Z</time>
      </trkpt>
      <trkpt lat="44.49034" lon="6.45105">
        <ele>1480.764399</ele>
        <time>2026-07-27T09:43:47.000Z</time>
      </trkpt>
      <trkpt lat="44.49034" lon="6.45105">
        <ele>1480.764399</ele>
        <time>2026-07-27T09:43:47.000Z</time>
      </trkpt>
      <trkpt lat="44.49032" lon="6.45102">
        <ele>1481.246875</ele>
        <time>2026-07-27T09:43:47.000Z</time>
      </trkpt>
      <trkpt lat="44.49032" lon="6.45102">
        <ele>1481.246875</ele>
        <time>2026-07-27T09:43:47.000Z</time>
      </trkpt>
      <trkpt lat="44.4903" lon="6.451">
        <ele>1481.729351</ele>
        <time>2026-07-27T09:43:48.000Z</time>
      </trkpt>
      <trkpt lat="44.4903" lon="6.451">
        <ele>1481.729351</ele>
        <time>2026-07-27T09:43:48.000Z</time>
      </trkpt>
      <trkpt lat="44.49027" lon="6.45097">
        <ele>1482.204459</ele>
        <time>2026-07-27T09:43:49.000Z</time>
      </trkpt>
      <trkpt lat="44.49027" lon="6.45097">
        <ele>1482.204459</ele>
        <time>2026-07-27T09:43:49.000Z</time>
      </trkpt>
      <trkpt lat="44.49025" lon="6.45094">
        <ele>1482.667676</ele>
        <time>2026-07-27T09:43:50.000Z</time>
      </trkpt>
      <trkpt lat="44.49025" lon="6.45094">
        <ele>1482.667676</ele>
        <time>2026-07-27T09:43:50.000Z</time>
      </trkpt>
      <trkpt lat="44.49023" lon="6.45091">
        <ele>1483.097632</ele>
        <time>2026-07-27T09:43:51.000Z</time>
      </trkpt>
      <trkpt lat="44.49023" lon="6.45091">
        <ele>1483.097632</ele>
        <time>2026-07-27T09:43:51.000Z</time>
      </trkpt>
      <trkpt lat="44.49022" lon="6.45088">
        <ele>1483.469669</ele>
        <time>2026-07-27T09:43:52.000Z</time>
      </trkpt>
      <trkpt lat="44.49022" lon="6.45088">
        <ele>1483.469669</ele>
        <time>2026-07-27T09:43:52.000Z</time>
      </trkpt>
      <trkpt lat="44.4902" lon="6.45085">
        <ele>1483.886431</ele>
        <time>2026-07-27T09:43:54.000Z</time>
      </trkpt>
      <trkpt lat="44.4902" lon="6.45085">
        <ele>1483.886431</ele>
        <time>2026-07-27T09:43:54.000Z</time>
      </trkpt>
      <trkpt lat="44.49019" lon="6.45082">
        <ele>1484.358254</ele>
        <time>2026-07-27T09:43:55.000Z</time>
      </trkpt>
      <trkpt lat="44.49019" lon="6.45082">
        <ele>1484.358254</ele>
        <time>2026-07-27T09:43:55.000Z</time>
      </trkpt>
      <trkpt lat="44.49016" lon="6.45078">
        <ele>1484.954976</ele>
        <time>2026-07-27T09:43:56.000Z</time>
      </trkpt>
      <trkpt lat="44.49016" lon="6.45078">
        <ele>1484.954976</ele>
        <time>2026-07-27T09:43:56.000Z</time>
      </trkpt>
      <trkpt lat="44.49014" lon="6.45074">
        <ele>1485.462202</ele>
        <time>2026-07-27T09:43:56.000Z</time>
      </trkpt>
      <trkpt lat="44.49014" lon="6.45074">
        <ele>1485.462202</ele>
        <time>2026-07-27T09:43:56.000Z</time>
      </trkpt>
      <trkpt lat="44.49011" lon="6.45071">
        <ele>1486.035759</ele>
        <time>2026-07-27T09:43:58.000Z</time>
      </trkpt>
      <trkpt lat="44.49011" lon="6.45071">
        <ele>1486.035759</ele>
        <time>2026-07-27T09:43:58.000Z</time>
      </trkpt>
      <trkpt lat="44.49009" lon="6.45067">
        <ele>1486.582788</ele>
        <time>2026-07-27T09:43:59.000Z</time>
      </trkpt>
      <trkpt lat="44.49009" lon="6.45067">
        <ele>1486.582788</ele>
        <time>2026-07-27T09:43:59.000Z</time>
      </trkpt>
      <trkpt lat="44.49006" lon="6.45064">
        <ele>1487.203595</ele>
        <time>2026-07-27T09:43:59.000Z</time>
      </trkpt>
      <trkpt lat="44.49006" lon="6.45064">
        <ele>1487.203595</ele>
        <time>2026-07-27T09:43:59.000Z</time>
      </trkpt>
      <trkpt lat="44.49003" lon="6.45061">
        <ele>1487.709003</ele>
        <time>2026-07-27T09:44:00.000Z</time>
      </trkpt>
      <trkpt lat="44.49003" lon="6.45061">
        <ele>1487.709003</ele>
        <time>2026-07-27T09:44:00.000Z</time>
      </trkpt>
      <trkpt lat="44.49001" lon="6.45058">
        <ele>1488.227213</ele>
        <time>2026-07-27T09:44:01.000Z</time>
      </trkpt>
      <trkpt lat="44.49001" lon="6.45058">
        <ele>1488.227213</ele>
        <time>2026-07-27T09:44:01.000Z</time>
      </trkpt>
      <trkpt lat="44.48998" lon="6.45056">
        <ele>1488.661484</ele>
        <time>2026-07-27T09:44:02.000Z</time>
      </trkpt>
      <trkpt lat="44.48998" lon="6.45056">
        <ele>1488.661484</ele>
        <time>2026-07-27T09:44:02.000Z</time>
      </trkpt>
      <trkpt lat="44.48996" lon="6.45053">
        <ele>1489.148558</ele>
        <time>2026-07-27T09:44:03.000Z</time>
      </trkpt>
      <trkpt lat="44.48996" lon="6.45053">
        <ele>1489.148558</ele>
        <time>2026-07-27T09:44:03.000Z</time>
      </trkpt>
      <trkpt lat="44.48993" lon="6.45052">
        <ele>1489.614857</ele>
        <time>2026-07-27T09:44:04.000Z</time>
      </trkpt>
      <trkpt lat="44.48993" lon="6.45052">
        <ele>1489.614857</ele>
        <time>2026-07-27T09:44:04.000Z</time>
      </trkpt>
      <trkpt lat="44.4899" lon="6.45049">
        <ele>1490.126214</ele>
        <time>2026-07-27T09:44:06.000Z</time>
      </trkpt>
      <trkpt lat="44.4899" lon="6.45049">
        <ele>1490.126214</ele>
        <time>2026-07-27T09:44:06.000Z</time>
      </trkpt>
      <trkpt lat="44.48987" lon="6.45046">
        <ele>1490.67854</ele>
        <time>2026-07-27T09:44:06.000Z</time>
      </trkpt>
      <trkpt lat="44.48987" lon="6.45046">
        <ele>1490.67854</ele>
        <time>2026-07-27T09:44:06.000Z</time>
      </trkpt>
      <trkpt lat="44.48985" lon="6.45044">
        <ele>1491.202351</ele>
        <time>2026-07-27T09:44:07.000Z</time>
      </trkpt>
      <trkpt lat="44.48985" lon="6.45044">
        <ele>1491.202351</ele>
        <time>2026-07-27T09:44:07.000Z</time>
      </trkpt>
      <trkpt lat="44.48982" lon="6.45042">
        <ele>1491.711301</ele>
        <time>2026-07-27T09:44:08.000Z</time>
      </trkpt>
      <trkpt lat="44.48982" lon="6.45042">
        <ele>1491.711301</ele>
        <time>2026-07-27T09:44:08.000Z</time>
      </trkpt>
      <trkpt lat="44.48979" lon="6.4504">
        <ele>1492.10694</ele>
        <time>2026-07-27T09:44:09.000Z</time>
      </trkpt>
      <trkpt lat="44.48979" lon="6.4504">
        <ele>1492.10694</ele>
        <time>2026-07-27T09:44:09.000Z</time>
      </trkpt>
      <trkpt lat="44.48975" lon="6.45039">
        <ele>1492.729053</ele>
        <time>2026-07-27T09:44:10.000Z</time>
      </trkpt>
      <trkpt lat="44.48975" lon="6.45039">
        <ele>1492.729053</ele>
        <time>2026-07-27T09:44:10.000Z</time>
      </trkpt>
      <trkpt lat="44.48973" lon="6.45037">
        <ele>1493.170814</ele>
        <time>2026-07-27T09:44:11.000Z</time>
      </trkpt>
      <trkpt lat="44.48973" lon="6.45037">
        <ele>1493.170814</ele>
        <time>2026-07-27T09:44:11.000Z</time>
      </trkpt>
      <trkpt lat="44.4897" lon="6.45037">
        <ele>1493.664563</ele>
        <time>2026-07-27T09:44:12.000Z</time>
      </trkpt>
      <trkpt lat="44.4897" lon="6.45037">
        <ele>1493.664563</ele>
        <time>2026-07-27T09:44:12.000Z</time>
      </trkpt>
      <trkpt lat="44.48967" lon="6.45036">
        <ele>1494.143049</ele>
        <time>2026-07-27T09:44:13.000Z</time>
      </trkpt>
      <trkpt lat="44.48967" lon="6.45036">
        <ele>1494.143049</ele>
        <time>2026-07-27T09:44:13.000Z</time>
      </trkpt>
      <trkpt lat="44.48964" lon="6.45035">
        <ele>1494.636798</ele>
        <time>2026-07-27T09:44:15.000Z</time>
      </trkpt>
      <trkpt lat="44.48964" lon="6.45035">
        <ele>1494.636798</ele>
        <time>2026-07-27T09:44:15.000Z</time>
      </trkpt>
      <trkpt lat="44.48961" lon="6.45034">
        <ele>1494.991275</ele>
        <time>2026-07-27T09:44:16.000Z</time>
      </trkpt>
      <trkpt lat="44.48961" lon="6.45034">
        <ele>1494.991275</ele>
        <time>2026-07-27T09:44:16.000Z</time>
      </trkpt>
      <trkpt lat="44.48957" lon="6.45033">
        <ele>1495.614015</ele>
        <time>2026-07-27T09:44:17.000Z</time>
      </trkpt>
      <trkpt lat="44.48957" lon="6.45033">
        <ele>1495.614015</ele>
        <time>2026-07-27T09:44:17.000Z</time>
      </trkpt>
      <trkpt lat="44.48955" lon="6.45032">
        <ele>1496.026933</ele>
        <time>2026-07-27T09:44:18.000Z</time>
      </trkpt>
      <trkpt lat="44.48955" lon="6.45032">
        <ele>1496.026933</ele>
        <time>2026-07-27T09:44:18.000Z</time>
      </trkpt>
      <trkpt lat="44.48951" lon="6.45032">
        <ele>1496.572806</ele>
        <time>2026-07-27T09:44:19.000Z</time>
      </trkpt>
      <trkpt lat="44.48951" lon="6.45032">
        <ele>1496.572806</ele>
        <time>2026-07-27T09:44:19.000Z</time>
      </trkpt>
      <trkpt lat="44.48948" lon="6.45033">
        <ele>1497.107269</ele>
        <time>2026-07-27T09:44:20.000Z</time>
      </trkpt>
      <trkpt lat="44.48948" lon="6.45033">
        <ele>1497.107269</ele>
        <time>2026-07-27T09:44:20.000Z</time>
      </trkpt>
      <trkpt lat="44.48945" lon="6.45034">
        <ele>1497.590902</ele>
        <time>2026-07-27T09:44:21.000Z</time>
      </trkpt>
      <trkpt lat="44.48945" lon="6.45034">
        <ele>1497.590902</ele>
        <time>2026-07-27T09:44:21.000Z</time>
      </trkpt>
      <trkpt lat="44.48941" lon="6.45035">
        <ele>1498.152867</ele>
        <time>2026-07-27T09:44:21.000Z</time>
      </trkpt>
      <trkpt lat="44.48941" lon="6.45035">
        <ele>1498.152867</ele>
        <time>2026-07-27T09:44:21.000Z</time>
      </trkpt>
      <trkpt lat="44.48938" lon="6.45036">
        <ele>1498.765657</ele>
        <time>2026-07-27T09:44:23.000Z</time>
      </trkpt>
      <trkpt lat="44.48938" lon="6.45036">
        <ele>1498.765657</ele>
        <time>2026-07-27T09:44:23.000Z</time>
      </trkpt>
      <trkpt lat="44.48934" lon="6.45038">
        <ele>1499.321577</ele>
        <time>2026-07-27T09:44:24.000Z</time>
      </trkpt>
      <trkpt lat="44.48934" lon="6.45038">
        <ele>1499.321577</ele>
        <time>2026-07-27T09:44:24.000Z</time>
      </trkpt>
      <trkpt lat="44.48931" lon="6.4504">
        <ele>1499.84926</ele>
        <time>2026-07-27T09:44:25.000Z</time>
      </trkpt>
      <trkpt lat="44.48931" lon="6.4504">
        <ele>1499.84926</ele>
        <time>2026-07-27T09:44:25.000Z</time>
      </trkpt>
      <trkpt lat="44.4893" lon="6.45042">
        <ele>1500.1799</ele>
        <time>2026-07-27T09:44:26.000Z</time>
      </trkpt>
      <trkpt lat="44.48928" lon="6.45044">
        <ele>1500.578794</ele>
        <time>2026-07-27T09:44:27.000Z</time>
      </trkpt>
      <trkpt lat="44.48928" lon="6.45044">
        <ele>1500.578794</ele>
        <time>2026-07-27T09:44:27.000Z</time>
      </trkpt>
      <trkpt lat="44.48925" lon="6.45049">
        <ele>1501.22214</ele>
        <time>2026-07-27T09:44:28.000Z</time>
      </trkpt>
      <trkpt lat="44.48925" lon="6.45049">
        <ele>1501.22214</ele>
        <time>2026-07-27T09:44:28.000Z</time>
      </trkpt>
      <trkpt lat="44.48924" lon="6.45054">
        <ele>1501.892058</ele>
        <time>2026-07-27T09:44:29.000Z</time>
      </trkpt>
      <trkpt lat="44.48924" lon="6.45054">
        <ele>1501.892058</ele>
        <time>2026-07-27T09:44:29.000Z</time>
      </trkpt>
      <trkpt lat="44.48922" lon="6.45059">
        <ele>1502.434637</ele>
        <time>2026-07-27T09:44:30.000Z</time>
      </trkpt>
      <trkpt lat="44.48922" lon="6.45059">
        <ele>1502.434637</ele>
        <time>2026-07-27T09:44:30.000Z</time>
      </trkpt>
      <trkpt lat="44.48921" lon="6.45063">
        <ele>1502.979588</ele>
        <time>2026-07-27T09:44:31.000Z</time>
      </trkpt>
      <trkpt lat="44.48921" lon="6.45063">
        <ele>1502.979588</ele>
        <time>2026-07-27T09:44:31.000Z</time>
      </trkpt>
      <trkpt lat="44.4892" lon="6.45068">
        <ele>1503.466955</ele>
        <time>2026-07-27T09:44:32.000Z</time>
      </trkpt>
      <trkpt lat="44.4892" lon="6.45068">
        <ele>1503.466955</ele>
        <time>2026-07-27T09:44:32.000Z</time>
      </trkpt>
      <trkpt lat="44.48919" lon="6.45072">
        <ele>1503.961384</ele>
        <time>2026-07-27T09:44:33.000Z</time>
      </trkpt>
      <trkpt lat="44.48919" lon="6.45072">
        <ele>1503.961384</ele>
        <time>2026-07-27T09:44:33.000Z</time>
      </trkpt>
      <trkpt lat="44.48917" lon="6.45076">
        <ele>1504.464174</ele>
        <time>2026-07-27T09:44:34.000Z</time>
      </trkpt>
      <trkpt lat="44.48917" lon="6.45076">
        <ele>1504.464174</ele>
        <time>2026-07-27T09:44:34.000Z</time>
      </trkpt>
      <trkpt lat="44.48916" lon="6.45081">
        <ele>1505.030076</ele>
        <time>2026-07-27T09:44:35.000Z</time>
      </trkpt>
      <trkpt lat="44.48916" lon="6.45081">
        <ele>1505.030076</ele>
        <time>2026-07-27T09:44:35.000Z</time>
      </trkpt>
      <trkpt lat="44.48915" lon="6.45085">
        <ele>1505.562638</ele>
        <time>2026-07-27T09:44:36.000Z</time>
      </trkpt>
      <trkpt lat="44.48915" lon="6.45085">
        <ele>1505.562638</ele>
        <time>2026-07-27T09:44:36.000Z</time>
      </trkpt>
      <trkpt lat="44.48913" lon="6.45089">
        <ele>1506.115278</ele>
        <time>2026-07-27T09:44:37.000Z</time>
      </trkpt>
      <trkpt lat="44.48913" lon="6.45089">
        <ele>1506.115278</ele>
        <time>2026-07-27T09:44:37.000Z</time>
      </trkpt>
      <trkpt lat="44.48912" lon="6.45095">
        <ele>1506.676877</ele>
        <time>2026-07-27T09:44:38.000Z</time>
      </trkpt>
      <trkpt lat="44.48912" lon="6.45095">
        <ele>1506.676877</ele>
        <time>2026-07-27T09:44:38.000Z</time>
      </trkpt>
      <trkpt lat="44.4891" lon="6.451">
        <ele>1507.064201</ele>
        <time>2026-07-27T09:44:39.000Z</time>
      </trkpt>
      <trkpt lat="44.4891" lon="6.451">
        <ele>1507.064201</ele>
        <time>2026-07-27T09:44:39.000Z</time>
      </trkpt>
      <trkpt lat="44.48909" lon="6.45105">
        <ele>1507.431279</ele>
        <time>2026-07-27T09:44:39.000Z</time>
      </trkpt>
      <trkpt lat="44.48909" lon="6.45105">
        <ele>1507.431279</ele>
        <time>2026-07-27T09:44:39.000Z</time>
      </trkpt>
      <trkpt lat="44.48909" lon="6.45109">
        <ele>1507.765927</ele>
        <time>2026-07-27T09:44:41.000Z</time>
      </trkpt>
      <trkpt lat="44.48909" lon="6.45109">
        <ele>1507.765927</ele>
        <time>2026-07-27T09:44:41.000Z</time>
      </trkpt>
      <trkpt lat="44.48908" lon="6.45114">
        <ele>1508.093713</ele>
        <time>2026-07-27T09:44:42.000Z</time>
      </trkpt>
      <trkpt lat="44.48908" lon="6.45114">
        <ele>1508.093713</ele>
        <time>2026-07-27T09:44:42.000Z</time>
      </trkpt>
      <trkpt lat="44.48907" lon="6.4512">
        <ele>1508.49555</ele>
        <time>2026-07-27T09:44:42.000Z</time>
      </trkpt>
      <trkpt lat="44.48907" lon="6.4512">
        <ele>1508.49555</ele>
        <time>2026-07-27T09:44:42.000Z</time>
      </trkpt>
      <trkpt lat="44.48906" lon="6.45124">
        <ele>1508.843948</ele>
        <time>2026-07-27T09:44:44.000Z</time>
      </trkpt>
      <trkpt lat="44.48906" lon="6.45124">
        <ele>1508.843948</ele>
        <time>2026-07-27T09:44:44.000Z</time>
      </trkpt>
      <trkpt lat="44.48906" lon="6.45129">
        <ele>1509.150444</ele>
        <time>2026-07-27T09:44:45.000Z</time>
      </trkpt>
      <trkpt lat="44.48906" lon="6.45129">
        <ele>1509.150444</ele>
        <time>2026-07-27T09:44:45.000Z</time>
      </trkpt>
      <trkpt lat="44.48905" lon="6.45133">
        <ele>1509.469075</ele>
        <time>2026-07-27T09:44:46.000Z</time>
      </trkpt>
      <trkpt lat="44.48905" lon="6.45133">
        <ele>1509.469075</ele>
        <time>2026-07-27T09:44:46.000Z</time>
      </trkpt>
      <trkpt lat="44.48904" lon="6.45138">
        <ele>1509.841937</ele>
        <time>2026-07-27T09:44:46.000Z</time>
      </trkpt>
      <trkpt lat="44.48904" lon="6.45138">
        <ele>1509.841937</ele>
        <time>2026-07-27T09:44:46.000Z</time>
      </trkpt>
      <trkpt lat="44.48904" lon="6.45143">
        <ele>1510.196583</ele>
        <time>2026-07-27T09:44:48.000Z</time>
      </trkpt>
      <trkpt lat="44.48904" lon="6.45143">
        <ele>1510.196583</ele>
        <time>2026-07-27T09:44:48.000Z</time>
      </trkpt>
      <trkpt lat="44.48903" lon="6.45147">
        <ele>1510.490203</ele>
        <time>2026-07-27T09:44:48.000Z</time>
      </trkpt>
      <trkpt lat="44.48903" lon="6.45147">
        <ele>1510.490203</ele>
        <time>2026-07-27T09:44:48.000Z</time>
      </trkpt>
      <trkpt lat="44.48902" lon="6.45151">
        <ele>1510.777475</ele>
        <time>2026-07-27T09:44:50.000Z</time>
      </trkpt>
      <trkpt lat="44.48902" lon="6.45151">
        <ele>1510.777475</ele>
        <time>2026-07-27T09:44:50.000Z</time>
      </trkpt>
      <trkpt lat="44.48901" lon="6.45155">
        <ele>1511.089211</ele>
        <time>2026-07-27T09:44:50.000Z</time>
      </trkpt>
      <trkpt lat="44.48901" lon="6.45155">
        <ele>1511.089211</ele>
        <time>2026-07-27T09:44:50.000Z</time>
      </trkpt>
      <trkpt lat="44.48899" lon="6.45159">
        <ele>1511.440721</ele>
        <time>2026-07-27T09:44:52.000Z</time>
      </trkpt>
      <trkpt lat="44.48899" lon="6.45159">
        <ele>1511.440721</ele>
        <time>2026-07-27T09:44:52.000Z</time>
      </trkpt>
      <trkpt lat="44.48898" lon="6.45163">
        <ele>1511.766395</ele>
        <time>2026-07-27T09:44:52.000Z</time>
      </trkpt>
      <trkpt lat="44.48898" lon="6.45163">
        <ele>1511.766395</ele>
        <time>2026-07-27T09:44:52.000Z</time>
      </trkpt>
      <trkpt lat="44.48896" lon="6.45168">
        <ele>1512.147147</ele>
        <time>2026-07-27T09:44:54.000Z</time>
      </trkpt>
      <trkpt lat="44.48896" lon="6.45168">
        <ele>1512.147147</ele>
        <time>2026-07-27T09:44:54.000Z</time>
      </trkpt>
      <trkpt lat="44.48894" lon="6.45172">
        <ele>1512.479125</ele>
        <time>2026-07-27T09:44:54.000Z</time>
      </trkpt>
      <trkpt lat="44.48894" lon="6.45172">
        <ele>1512.479125</ele>
        <time>2026-07-27T09:44:54.000Z</time>
      </trkpt>
      <trkpt lat="44.48893" lon="6.45177">
        <ele>1512.828742</ele>
        <time>2026-07-27T09:44:56.000Z</time>
      </trkpt>
      <trkpt lat="44.48893" lon="6.45177">
        <ele>1512.828742</ele>
        <time>2026-07-27T09:44:56.000Z</time>
      </trkpt>
      <trkpt lat="44.48891" lon="6.45182">
        <ele>1513.229006</ele>
        <time>2026-07-27T09:44:56.000Z</time>
      </trkpt>
      <trkpt lat="44.48891" lon="6.45182">
        <ele>1513.229006</ele>
        <time>2026-07-27T09:44:56.000Z</time>
      </trkpt>
      <trkpt lat="44.4889" lon="6.45186">
        <ele>1513.53861</ele>
        <time>2026-07-27T09:44:58.000Z</time>
      </trkpt>
      <trkpt lat="44.4889" lon="6.45186">
        <ele>1513.53861</ele>
        <time>2026-07-27T09:44:58.000Z</time>
      </trkpt>
      <trkpt lat="44.48889" lon="6.4519">
        <ele>1513.848214</ele>
        <time>2026-07-27T09:44:59.000Z</time>
      </trkpt>
      <trkpt lat="44.48889" lon="6.4519">
        <ele>1513.848214</ele>
        <time>2026-07-27T09:44:59.000Z</time>
      </trkpt>
      <trkpt lat="44.48888" lon="6.45195">
        <ele>1514.187768</ele>
        <time>2026-07-27T09:45:00.000Z</time>
      </trkpt>
      <trkpt lat="44.48888" lon="6.45195">
        <ele>1514.187768</ele>
        <time>2026-07-27T09:45:00.000Z</time>
      </trkpt>
      <trkpt lat="44.48887" lon="6.452">
        <ele>1514.57767</ele>
        <time>2026-07-27T09:45:01.000Z</time>
      </trkpt>
      <trkpt lat="44.48887" lon="6.452">
        <ele>1514.57767</ele>
        <time>2026-07-27T09:45:01.000Z</time>
      </trkpt>
      <trkpt lat="44.48885" lon="6.45204">
        <ele>1514.89745</ele>
        <time>2026-07-27T09:45:02.000Z</time>
      </trkpt>
      <trkpt lat="44.48885" lon="6.45204">
        <ele>1514.89745</ele>
        <time>2026-07-27T09:45:02.000Z</time>
      </trkpt>
      <trkpt lat="44.48884" lon="6.45209">
        <ele>1515.233663</ele>
        <time>2026-07-27T09:45:03.000Z</time>
      </trkpt>
      <trkpt lat="44.48883" lon="6.45214">
        <ele>1515.630591</ele>
        <time>2026-07-27T09:45:04.000Z</time>
      </trkpt>
      <trkpt lat="44.48883" lon="6.45214">
        <ele>1515.630591</ele>
        <time>2026-07-27T09:45:04.000Z</time>
      </trkpt>
      <trkpt lat="44.48882" lon="6.45219">
        <ele>1516.024376</ele>
        <time>2026-07-27T09:45:05.000Z</time>
      </trkpt>
      <trkpt lat="44.48882" lon="6.45219">
        <ele>1516.024376</ele>
        <time>2026-07-27T09:45:05.000Z</time>
      </trkpt>
      <trkpt lat="44.48881" lon="6.45223">
        <ele>1516.336113</ele>
        <time>2026-07-27T09:45:06.000Z</time>
      </trkpt>
      <trkpt lat="44.48879" lon="6.45227">
        <ele>1516.666426</ele>
        <time>2026-07-27T09:45:07.000Z</time>
      </trkpt>
      <trkpt lat="44.48879" lon="6.45227">
        <ele>1516.666426</ele>
        <time>2026-07-27T09:45:07.000Z</time>
      </trkpt>
      <trkpt lat="44.48878" lon="6.45232">
        <ele>1516.9921</ele>
        <time>2026-07-27T09:45:08.000Z</time>
      </trkpt>
      <trkpt lat="44.48876" lon="6.45235">
        <ele>1517.314322</ele>
        <time>2026-07-27T09:45:09.000Z</time>
      </trkpt>
      <trkpt lat="44.48874" lon="6.45239">
        <ele>1517.608992</ele>
        <time>2026-07-27T09:45:10.000Z</time>
      </trkpt>
      <trkpt lat="44.48873" lon="6.45242">
        <ele>1517.897581</ele>
        <time>2026-07-27T09:45:11.000Z</time>
      </trkpt>
      <trkpt lat="44.48873" lon="6.45242">
        <ele>1517.897581</ele>
        <time>2026-07-27T09:45:11.000Z</time>
      </trkpt>
      <trkpt lat="44.48871" lon="6.45247">
        <ele>1518.255081</ele>
        <time>2026-07-27T09:45:12.000Z</time>
      </trkpt>
      <trkpt lat="44.48869" lon="6.4525">
        <ele>1518.554871</ele>
        <time>2026-07-27T09:45:13.000Z</time>
      </trkpt>
      <trkpt lat="44.48866" lon="6.45254">
        <ele>1518.950771</ele>
        <time>2026-07-27T09:45:14.000Z</time>
      </trkpt>
      <trkpt lat="44.48866" lon="6.45254">
        <ele>1518.950771</ele>
        <time>2026-07-27T09:45:14.000Z</time>
      </trkpt>
      <trkpt lat="44.48863" lon="6.45258">
        <ele>1519.411877</ele>
        <time>2026-07-27T09:45:15.000Z</time>
      </trkpt>
      <trkpt lat="44.48861" lon="6.4526">
        <ele>1519.675584</ele>
        <time>2026-07-27T09:45:16.000Z</time>
      </trkpt>
      <trkpt lat="44.48858" lon="6.45262">
        <ele>1519.963334</ele>
        <time>2026-07-27T09:45:17.000Z</time>
      </trkpt>
      <trkpt lat="44.48855" lon="6.45262">
        <ele>1520.233165</ele>
        <time>2026-07-27T09:45:18.000Z</time>
      </trkpt>
      <trkpt lat="44.48855" lon="6.45262">
        <ele>1520.233165</ele>
        <time>2026-07-27T09:45:18.000Z</time>
      </trkpt>
      <trkpt lat="44.48852" lon="6.45262">
        <ele>1520.570026</ele>
        <time>2026-07-27T09:45:19.000Z</time>
      </trkpt>
      <trkpt lat="44.48849" lon="6.45262">
        <ele>1520.840874</ele>
        <time>2026-07-27T09:45:20.000Z</time>
      </trkpt>
      <trkpt lat="44.48849" lon="6.45262">
        <ele>1520.840874</ele>
        <time>2026-07-27T09:45:20.000Z</time>
      </trkpt>
      <trkpt lat="44.48846" lon="6.45261">
        <ele>1521.11584</ele>
        <time>2026-07-27T09:45:21.000Z</time>
      </trkpt>
      <trkpt lat="44.48846" lon="6.45261">
        <ele>1521.11584</ele>
        <time>2026-07-27T09:45:21.000Z</time>
      </trkpt>
      <trkpt lat="44.48844" lon="6.4526">
        <ele>1521.350627</ele>
        <time>2026-07-27T09:45:22.000Z</time>
      </trkpt>
      <trkpt lat="44.48844" lon="6.4526">
        <ele>1521.350627</ele>
        <time>2026-07-27T09:45:22.000Z</time>
      </trkpt>
      <trkpt lat="44.48842" lon="6.45259">
        <ele>1521.611694</ele>
        <time>2026-07-27T09:45:23.000Z</time>
      </trkpt>
      <trkpt lat="44.48842" lon="6.45259">
        <ele>1521.611694</ele>
        <time>2026-07-27T09:45:23.000Z</time>
      </trkpt>
      <trkpt lat="44.4884" lon="6.4526">
        <ele>1521.80047</ele>
        <time>2026-07-27T09:45:24.000Z</time>
      </trkpt>
      <trkpt lat="44.4884" lon="6.4526">
        <ele>1521.80047</ele>
        <time>2026-07-27T09:45:24.000Z</time>
      </trkpt>
      <trkpt lat="44.48837" lon="6.45261">
        <ele>1522.077157</ele>
        <time>2026-07-27T09:45:25.000Z</time>
      </trkpt>
      <trkpt lat="44.48837" lon="6.45261">
        <ele>1522.077157</ele>
        <time>2026-07-27T09:45:25.000Z</time>
      </trkpt>
      <trkpt lat="44.48835" lon="6.45262">
        <ele>1522.322861</ele>
        <time>2026-07-27T09:45:26.000Z</time>
      </trkpt>
      <trkpt lat="44.48835" lon="6.45262">
        <ele>1522.322861</ele>
        <time>2026-07-27T09:45:26.000Z</time>
      </trkpt>
      <trkpt lat="44.48832" lon="6.45264">
        <ele>1522.632279</ele>
        <time>2026-07-27T09:45:27.000Z</time>
      </trkpt>
      <trkpt lat="44.48832" lon="6.45264">
        <ele>1522.632279</ele>
        <time>2026-07-27T09:45:27.000Z</time>
      </trkpt>
      <trkpt lat="44.4883" lon="6.45266">
        <ele>1522.900028</ele>
        <time>2026-07-27T09:45:28.000Z</time>
      </trkpt>
      <trkpt lat="44.4883" lon="6.45266">
        <ele>1522.900028</ele>
        <time>2026-07-27T09:45:28.000Z</time>
      </trkpt>
      <trkpt lat="44.48827" lon="6.45268">
        <ele>1523.171982</ele>
        <time>2026-07-27T09:45:29.000Z</time>
      </trkpt>
      <trkpt lat="44.48827" lon="6.45268">
        <ele>1523.171982</ele>
        <time>2026-07-27T09:45:29.000Z</time>
      </trkpt>
      <trkpt lat="44.48825" lon="6.4527">
        <ele>1523.436486</ele>
        <time>2026-07-27T09:45:29.000Z</time>
      </trkpt>
      <trkpt lat="44.48825" lon="6.4527">
        <ele>1523.436486</ele>
        <time>2026-07-27T09:45:29.000Z</time>
      </trkpt>
      <trkpt lat="44.48823" lon="6.45271">
        <ele>1523.635189</ele>
        <time>2026-07-27T09:45:31.000Z</time>
      </trkpt>
      <trkpt lat="44.48823" lon="6.45271">
        <ele>1523.635189</ele>
        <time>2026-07-27T09:45:31.000Z</time>
      </trkpt>
      <trkpt lat="44.48821" lon="6.45272">
        <ele>1523.910156</ele>
        <time>2026-07-27T09:45:32.000Z</time>
      </trkpt>
      <trkpt lat="44.48821" lon="6.45272">
        <ele>1523.910156</ele>
        <time>2026-07-27T09:45:32.000Z</time>
      </trkpt>
      <trkpt lat="44.48818" lon="6.45273">
        <ele>1524.183574</ele>
        <time>2026-07-27T09:45:33.000Z</time>
      </trkpt>
      <trkpt lat="44.48818" lon="6.45273">
        <ele>1524.183574</ele>
        <time>2026-07-27T09:45:33.000Z</time>
      </trkpt>
      <trkpt lat="44.48815" lon="6.45273">
        <ele>1524.476143</ele>
        <time>2026-07-27T09:45:34.000Z</time>
      </trkpt>
      <trkpt lat="44.48815" lon="6.45273">
        <ele>1524.476143</ele>
        <time>2026-07-27T09:45:34.000Z</time>
      </trkpt>
      <trkpt lat="44.48812" lon="6.45273">
        <ele>1524.932754</ele>
        <time>2026-07-27T09:45:34.000Z</time>
      </trkpt>
      <trkpt lat="44.48812" lon="6.45273">
        <ele>1524.932754</ele>
        <time>2026-07-27T09:45:34.000Z</time>
      </trkpt>
      <trkpt lat="44.48809" lon="6.45273">
        <ele>1525.330481</ele>
        <time>2026-07-27T09:45:36.000Z</time>
      </trkpt>
      <trkpt lat="44.48809" lon="6.45273">
        <ele>1525.330481</ele>
        <time>2026-07-27T09:45:36.000Z</time>
      </trkpt>
      <trkpt lat="44.48806" lon="6.45273">
        <ele>1525.772245</ele>
        <time>2026-07-27T09:45:37.000Z</time>
      </trkpt>
      <trkpt lat="44.48806" lon="6.45273">
        <ele>1525.772245</ele>
        <time>2026-07-27T09:45:37.000Z</time>
      </trkpt>
      <trkpt lat="44.48803" lon="6.45273">
        <ele>1526.230665</ele>
        <time>2026-07-27T09:45:38.000Z</time>
      </trkpt>
      <trkpt lat="44.48803" lon="6.45273">
        <ele>1526.230665</ele>
        <time>2026-07-27T09:45:38.000Z</time>
      </trkpt>
      <trkpt lat="44.488" lon="6.45272">
        <ele>1526.674424</ele>
        <time>2026-07-27T09:45:39.000Z</time>
      </trkpt>
      <trkpt lat="44.488" lon="6.45272">
        <ele>1526.674424</ele>
        <time>2026-07-27T09:45:39.000Z</time>
      </trkpt>
      <trkpt lat="44.48797" lon="6.45272">
        <ele>1527.189816</ele>
        <time>2026-07-27T09:45:40.000Z</time>
      </trkpt>
      <trkpt lat="44.48797" lon="6.45272">
        <ele>1527.189816</ele>
        <time>2026-07-27T09:45:40.000Z</time>
      </trkpt>
      <trkpt lat="44.48793" lon="6.45272">
        <ele>1527.690923</ele>
        <time>2026-07-27T09:45:41.000Z</time>
      </trkpt>
      <trkpt lat="44.48793" lon="6.45272">
        <ele>1527.690923</ele>
        <time>2026-07-27T09:45:41.000Z</time>
      </trkpt>
      <trkpt lat="44.4879" lon="6.45272">
        <ele>1528.252067</ele>
        <time>2026-07-27T09:45:42.000Z</time>
      </trkpt>
      <trkpt lat="44.4879" lon="6.45272">
        <ele>1528.252067</ele>
        <time>2026-07-27T09:45:42.000Z</time>
      </trkpt>
      <trkpt lat="44.48785" lon="6.45272">
        <ele>1528.929765</ele>
        <time>2026-07-27T09:45:43.000Z</time>
      </trkpt>
      <trkpt lat="44.48785" lon="6.45272">
        <ele>1528.929765</ele>
        <time>2026-07-27T09:45:43.000Z</time>
      </trkpt>
      <trkpt lat="44.48782" lon="6.45272">
        <ele>1529.372029</ele>
        <time>2026-07-27T09:45:44.000Z</time>
      </trkpt>
      <trkpt lat="44.48782" lon="6.45272">
        <ele>1529.372029</ele>
        <time>2026-07-27T09:45:44.000Z</time>
      </trkpt>
      <trkpt lat="44.48779" lon="6.45271">
        <ele>1529.891261</ele>
        <time>2026-07-27T09:45:45.000Z</time>
      </trkpt>
      <trkpt lat="44.48779" lon="6.45271">
        <ele>1529.891261</ele>
        <time>2026-07-27T09:45:45.000Z</time>
      </trkpt>
      <trkpt lat="44.48775" lon="6.45271">
        <ele>1530.392038</ele>
        <time>2026-07-27T09:45:46.000Z</time>
      </trkpt>
      <trkpt lat="44.48775" lon="6.45271">
        <ele>1530.392038</ele>
        <time>2026-07-27T09:45:46.000Z</time>
      </trkpt>
      <trkpt lat="44.48772" lon="6.45271">
        <ele>1530.894465</ele>
        <time>2026-07-27T09:45:47.000Z</time>
      </trkpt>
      <trkpt lat="44.48772" lon="6.45271">
        <ele>1530.894465</ele>
        <time>2026-07-27T09:45:47.000Z</time>
      </trkpt>
      <trkpt lat="44.48768" lon="6.4527">
        <ele>1531.410285</ele>
        <time>2026-07-27T09:45:48.000Z</time>
      </trkpt>
      <trkpt lat="44.48768" lon="6.4527">
        <ele>1531.410285</ele>
        <time>2026-07-27T09:45:48.000Z</time>
      </trkpt>
      <trkpt lat="44.48766" lon="6.45271">
        <ele>1531.793724</ele>
        <time>2026-07-27T09:45:49.000Z</time>
      </trkpt>
      <trkpt lat="44.48766" lon="6.45271">
        <ele>1531.793724</ele>
        <time>2026-07-27T09:45:49.000Z</time>
      </trkpt>
      <trkpt lat="44.48762" lon="6.4527">
        <ele>1532.310079</ele>
        <time>2026-07-27T09:45:50.000Z</time>
      </trkpt>
      <trkpt lat="44.48762" lon="6.4527">
        <ele>1532.310079</ele>
        <time>2026-07-27T09:45:50.000Z</time>
      </trkpt>
      <trkpt lat="44.48759" lon="6.4527">
        <ele>1532.811186</ele>
        <time>2026-07-27T09:45:51.000Z</time>
      </trkpt>
      <trkpt lat="44.48759" lon="6.4527">
        <ele>1532.811186</ele>
        <time>2026-07-27T09:45:51.000Z</time>
      </trkpt>
      <trkpt lat="44.48755" lon="6.4527">
        <ele>1533.371149</ele>
        <time>2026-07-27T09:45:52.000Z</time>
      </trkpt>
      <trkpt lat="44.48755" lon="6.4527">
        <ele>1533.371149</ele>
        <time>2026-07-27T09:45:52.000Z</time>
      </trkpt>
      <trkpt lat="44.48752" lon="6.4527">
        <ele>1533.873575</ele>
        <time>2026-07-27T09:45:53.000Z</time>
      </trkpt>
      <trkpt lat="44.48752" lon="6.4527">
        <ele>1533.873575</ele>
        <time>2026-07-27T09:45:53.000Z</time>
      </trkpt>
      <trkpt lat="44.48748" lon="6.4527">
        <ele>1534.448254</ele>
        <time>2026-07-27T09:45:54.000Z</time>
      </trkpt>
      <trkpt lat="44.48748" lon="6.4527">
        <ele>1534.448254</ele>
        <time>2026-07-27T09:45:54.000Z</time>
      </trkpt>
      <trkpt lat="44.48745" lon="6.45269">
        <ele>1534.894492</ele>
        <time>2026-07-27T09:45:55.000Z</time>
      </trkpt>
      <trkpt lat="44.48745" lon="6.45269">
        <ele>1534.894492</ele>
        <time>2026-07-27T09:45:55.000Z</time>
      </trkpt>
      <trkpt lat="44.48742" lon="6.45269">
        <ele>1535.293328</ele>
        <time>2026-07-27T09:45:56.000Z</time>
      </trkpt>
      <trkpt lat="44.48742" lon="6.45269">
        <ele>1535.293328</ele>
        <time>2026-07-27T09:45:56.000Z</time>
      </trkpt>
      <trkpt lat="44.48739" lon="6.45268">
        <ele>1535.739566</ele>
        <time>2026-07-27T09:45:57.000Z</time>
      </trkpt>
      <trkpt lat="44.48739" lon="6.45268">
        <ele>1535.739566</ele>
        <time>2026-07-27T09:45:57.000Z</time>
      </trkpt>
      <trkpt lat="44.48736" lon="6.45268">
        <ele>1536.139369</ele>
        <time>2026-07-27T09:45:58.000Z</time>
      </trkpt>
      <trkpt lat="44.48736" lon="6.45268">
        <ele>1536.139369</ele>
        <time>2026-07-27T09:45:58.000Z</time>
      </trkpt>
      <trkpt lat="44.48734" lon="6.45267">
        <ele>1536.540412</ele>
        <time>2026-07-27T09:45:59.000Z</time>
      </trkpt>
      <trkpt lat="44.48734" lon="6.45267">
        <ele>1536.540412</ele>
        <time>2026-07-27T09:45:59.000Z</time>
      </trkpt>
      <trkpt lat="44.48731" lon="6.45267">
        <ele>1536.988255</ele>
        <time>2026-07-27T09:46:00.000Z</time>
      </trkpt>
      <trkpt lat="44.48731" lon="6.45267">
        <ele>1536.988255</ele>
        <time>2026-07-27T09:46:00.000Z</time>
      </trkpt>
      <trkpt lat="44.48728" lon="6.45266">
        <ele>1537.33099</ele>
        <time>2026-07-27T09:46:01.000Z</time>
      </trkpt>
      <trkpt lat="44.48728" lon="6.45266">
        <ele>1537.33099</ele>
        <time>2026-07-27T09:46:01.000Z</time>
      </trkpt>
      <trkpt lat="44.48726" lon="6.45266">
        <ele>1537.730793</ele>
        <time>2026-07-27T09:46:02.000Z</time>
      </trkpt>
      <trkpt lat="44.48726" lon="6.45266">
        <ele>1537.730793</ele>
        <time>2026-07-27T09:46:02.000Z</time>
      </trkpt>
      <trkpt lat="44.48722" lon="6.45265">
        <ele>1538.235411</ele>
        <time>2026-07-27T09:46:03.000Z</time>
      </trkpt>
      <trkpt lat="44.48722" lon="6.45265">
        <ele>1538.235411</ele>
        <time>2026-07-27T09:46:03.000Z</time>
      </trkpt>
      <trkpt lat="44.48719" lon="6.45265">
        <ele>1538.693831</ele>
        <time>2026-07-27T09:46:04.000Z</time>
      </trkpt>
      <trkpt lat="44.48719" lon="6.45265">
        <ele>1538.693831</ele>
        <time>2026-07-27T09:46:04.000Z</time>
      </trkpt>
      <trkpt lat="44.48716" lon="6.45265">
        <ele>1539.136719</ele>
        <time>2026-07-27T09:46:05.000Z</time>
      </trkpt>
      <trkpt lat="44.48716" lon="6.45265">
        <ele>1539.136719</ele>
        <time>2026-07-27T09:46:05.000Z</time>
      </trkpt>
      <trkpt lat="44.48713" lon="6.45265">
        <ele>1539.595139</ele>
        <time>2026-07-27T09:46:06.000Z</time>
      </trkpt>
      <trkpt lat="44.48713" lon="6.45265">
        <ele>1539.595139</ele>
        <time>2026-07-27T09:46:06.000Z</time>
      </trkpt>
      <trkpt lat="44.4871" lon="6.45266">
        <ele>1540.10281</ele>
        <time>2026-07-27T09:46:07.000Z</time>
      </trkpt>
      <trkpt lat="44.4871" lon="6.45266">
        <ele>1540.10281</ele>
        <time>2026-07-27T09:46:07.000Z</time>
      </trkpt>
      <trkpt lat="44.48706" lon="6.45267">
        <ele>1540.560387</ele>
        <time>2026-07-27T09:46:08.000Z</time>
      </trkpt>
      <trkpt lat="44.48706" lon="6.45267">
        <ele>1540.560387</ele>
        <time>2026-07-27T09:46:08.000Z</time>
      </trkpt>
      <trkpt lat="44.48703" lon="6.45267">
        <ele>1541.120054</ele>
        <time>2026-07-27T09:46:09.000Z</time>
      </trkpt>
      <trkpt lat="44.48703" lon="6.45267">
        <ele>1541.120054</ele>
        <time>2026-07-27T09:46:09.000Z</time>
      </trkpt>
      <trkpt lat="44.48698" lon="6.45267">
        <ele>1541.738614</ele>
        <time>2026-07-27T09:46:10.000Z</time>
      </trkpt>
      <trkpt lat="44.48698" lon="6.45267">
        <ele>1541.738614</ele>
        <time>2026-07-27T09:46:10.000Z</time>
      </trkpt>
      <trkpt lat="44.48695" lon="6.45267">
        <ele>1542.239721</ele>
        <time>2026-07-27T09:46:11.000Z</time>
      </trkpt>
      <trkpt lat="44.48695" lon="6.45267">
        <ele>1542.239721</ele>
        <time>2026-07-27T09:46:11.000Z</time>
      </trkpt>
      <trkpt lat="44.48692" lon="6.45267">
        <ele>1542.740498</ele>
        <time>2026-07-27T09:46:12.000Z</time>
      </trkpt>
      <trkpt lat="44.48692" lon="6.45267">
        <ele>1542.740498</ele>
        <time>2026-07-27T09:46:12.000Z</time>
      </trkpt>
      <trkpt lat="44.48689" lon="6.45267">
        <ele>1543.198074</ele>
        <time>2026-07-27T09:46:13.000Z</time>
      </trkpt>
      <trkpt lat="44.48689" lon="6.45267">
        <ele>1543.198074</ele>
        <time>2026-07-27T09:46:13.000Z</time>
      </trkpt>
      <trkpt lat="44.48686" lon="6.45266">
        <ele>1543.642951</ele>
        <time>2026-07-27T09:46:14.000Z</time>
      </trkpt>
      <trkpt lat="44.48686" lon="6.45266">
        <ele>1543.642951</ele>
        <time>2026-07-27T09:46:14.000Z</time>
      </trkpt>
      <trkpt lat="44.48682" lon="6.45266">
        <ele>1544.217245</ele>
        <time>2026-07-27T09:46:16.000Z</time>
      </trkpt>
      <trkpt lat="44.48682" lon="6.45266">
        <ele>1544.217245</ele>
        <time>2026-07-27T09:46:16.000Z</time>
      </trkpt>
      <trkpt lat="44.48679" lon="6.45266">
        <ele>1544.659134</ele>
        <time>2026-07-27T09:46:16.000Z</time>
      </trkpt>
      <trkpt lat="44.48679" lon="6.45266">
        <ele>1544.659134</ele>
        <time>2026-07-27T09:46:16.000Z</time>
      </trkpt>
      <trkpt lat="44.48675" lon="6.45266">
        <ele>1545.160241</ele>
        <time>2026-07-27T09:46:17.000Z</time>
      </trkpt>
      <trkpt lat="44.48675" lon="6.45266">
        <ele>1545.160241</ele>
        <time>2026-07-27T09:46:17.000Z</time>
      </trkpt>
      <trkpt lat="44.48672" lon="6.45266">
        <ele>1545.616852</ele>
        <time>2026-07-27T09:46:18.000Z</time>
      </trkpt>
      <trkpt lat="44.48672" lon="6.45266">
        <ele>1545.616852</ele>
        <time>2026-07-27T09:46:18.000Z</time>
      </trkpt>
      <trkpt lat="44.48669" lon="6.45265">
        <ele>1546.120267</ele>
        <time>2026-07-27T09:46:19.000Z</time>
      </trkpt>
      <trkpt lat="44.48669" lon="6.45265">
        <ele>1546.120267</ele>
        <time>2026-07-27T09:46:19.000Z</time>
      </trkpt>
      <trkpt lat="44.48665" lon="6.45265">
        <ele>1546.740964</ele>
        <time>2026-07-27T09:46:21.000Z</time>
      </trkpt>
      <trkpt lat="44.48665" lon="6.45265">
        <ele>1546.740964</ele>
        <time>2026-07-27T09:46:21.000Z</time>
      </trkpt>
      <trkpt lat="44.48661" lon="6.45264">
        <ele>1547.266954</ele>
        <time>2026-07-27T09:46:21.000Z</time>
      </trkpt>
      <trkpt lat="44.48661" lon="6.45264">
        <ele>1547.266954</ele>
        <time>2026-07-27T09:46:21.000Z</time>
      </trkpt>
      <trkpt lat="44.48657" lon="6.45263">
        <ele>1547.834454</ele>
        <time>2026-07-27T09:46:22.000Z</time>
      </trkpt>
      <trkpt lat="44.48657" lon="6.45263">
        <ele>1547.834454</ele>
        <time>2026-07-27T09:46:22.000Z</time>
      </trkpt>
      <trkpt lat="44.48654" lon="6.45262">
        <ele>1548.286223</ele>
        <time>2026-07-27T09:46:24.000Z</time>
      </trkpt>
      <trkpt lat="44.48654" lon="6.45262">
        <ele>1548.286223</ele>
        <time>2026-07-27T09:46:24.000Z</time>
      </trkpt>
      <trkpt lat="44.48651" lon="6.45261">
        <ele>1548.757113</ele>
        <time>2026-07-27T09:46:24.000Z</time>
      </trkpt>
      <trkpt lat="44.48651" lon="6.45261">
        <ele>1548.757113</ele>
        <time>2026-07-27T09:46:24.000Z</time>
      </trkpt>
      <trkpt lat="44.48648" lon="6.4526">
        <ele>1549.2068</ele>
        <time>2026-07-27T09:46:26.000Z</time>
      </trkpt>
      <trkpt lat="44.48648" lon="6.4526">
        <ele>1549.2068</ele>
        <time>2026-07-27T09:46:26.000Z</time>
      </trkpt>
      <trkpt lat="44.48646" lon="6.45259">
        <ele>1549.564658</ele>
        <time>2026-07-27T09:46:26.000Z</time>
      </trkpt>
      <trkpt lat="44.48646" lon="6.45259">
        <ele>1549.564658</ele>
        <time>2026-07-27T09:46:26.000Z</time>
      </trkpt>
      <trkpt lat="44.48643" lon="6.45258">
        <ele>1549.975892</ele>
        <time>2026-07-27T09:46:27.000Z</time>
      </trkpt>
      <trkpt lat="44.48643" lon="6.45258">
        <ele>1549.975892</ele>
        <time>2026-07-27T09:46:27.000Z</time>
      </trkpt>
      <trkpt lat="44.4864" lon="6.45256">
        <ele>1550.441496</ele>
        <time>2026-07-27T09:46:28.000Z</time>
      </trkpt>
      <trkpt lat="44.4864" lon="6.45256">
        <ele>1550.441496</ele>
        <time>2026-07-27T09:46:28.000Z</time>
      </trkpt>
      <trkpt lat="44.48637" lon="6.45255">
        <ele>1550.860496</ele>
        <time>2026-07-27T09:46:29.000Z</time>
      </trkpt>
      <trkpt lat="44.48637" lon="6.45255">
        <ele>1550.860496</ele>
        <time>2026-07-27T09:46:29.000Z</time>
      </trkpt>
      <trkpt lat="44.48635" lon="6.45254">
        <ele>1551.134141</ele>
        <time>2026-07-27T09:46:30.000Z</time>
      </trkpt>
      <trkpt lat="44.48635" lon="6.45254">
        <ele>1551.134141</ele>
        <time>2026-07-27T09:46:30.000Z</time>
      </trkpt>
      <trkpt lat="44.48633" lon="6.45252">
        <ele>1551.382864</ele>
        <time>2026-07-27T09:46:31.000Z</time>
      </trkpt>
      <trkpt lat="44.48633" lon="6.45252">
        <ele>1551.382864</ele>
        <time>2026-07-27T09:46:31.000Z</time>
      </trkpt>
      <trkpt lat="44.48631" lon="6.4525">
        <ele>1551.645051</ele>
        <time>2026-07-27T09:46:32.000Z</time>
      </trkpt>
      <trkpt lat="44.48631" lon="6.4525">
        <ele>1551.645051</ele>
        <time>2026-07-27T09:46:32.000Z</time>
      </trkpt>
      <trkpt lat="44.4863" lon="6.45249">
        <ele>1551.85304</ele>
        <time>2026-07-27T09:46:34.000Z</time>
      </trkpt>
      <trkpt lat="44.4863" lon="6.45249">
        <ele>1551.85304</ele>
        <time>2026-07-27T09:46:34.000Z</time>
      </trkpt>
      <trkpt lat="44.48629" lon="6.45247">
        <ele>1551.971758</ele>
        <time>2026-07-27T09:46:34.000Z</time>
      </trkpt>
      <trkpt lat="44.48629" lon="6.45245">
        <ele>1552.173189</ele>
        <time>2026-07-27T09:46:35.000Z</time>
      </trkpt>
      <trkpt lat="44.48629" lon="6.45245">
        <ele>1552.173189</ele>
        <time>2026-07-27T09:46:35.000Z</time>
      </trkpt>
      <trkpt lat="44.48629" lon="6.45243">
        <ele>1552.321602</ele>
        <time>2026-07-27T09:46:36.000Z</time>
      </trkpt>
      <trkpt lat="44.48629" lon="6.45243">
        <ele>1552.321602</ele>
        <time>2026-07-27T09:46:36.000Z</time>
      </trkpt>
      <trkpt lat="44.4863" lon="6.45241">
        <ele>1552.502102</ele>
        <time>2026-07-27T09:46:37.000Z</time>
      </trkpt>
      <trkpt lat="44.4863" lon="6.45241">
        <ele>1552.502102</ele>
        <time>2026-07-27T09:46:37.000Z</time>
      </trkpt>
      <trkpt lat="44.48631" lon="6.45239">
        <ele>1552.670438</ele>
        <time>2026-07-27T09:46:39.000Z</time>
      </trkpt>
      <trkpt lat="44.48631" lon="6.45239">
        <ele>1552.670438</ele>
        <time>2026-07-27T09:46:39.000Z</time>
      </trkpt>
      <trkpt lat="44.48632" lon="6.45237">
        <ele>1552.876158</ele>
        <time>2026-07-27T09:46:39.000Z</time>
      </trkpt>
      <trkpt lat="44.48632" lon="6.45237">
        <ele>1552.876158</ele>
        <time>2026-07-27T09:46:39.000Z</time>
      </trkpt>
      <trkpt lat="44.48633" lon="6.45235">
        <ele>1553.081246</ele>
        <time>2026-07-27T09:46:40.000Z</time>
      </trkpt>
      <trkpt lat="44.48633" lon="6.45235">
        <ele>1553.081246</ele>
        <time>2026-07-27T09:46:40.000Z</time>
      </trkpt>
      <trkpt lat="44.48634" lon="6.45232">
        <ele>1553.331663</ele>
        <time>2026-07-27T09:46:42.000Z</time>
      </trkpt>
      <trkpt lat="44.48634" lon="6.45232">
        <ele>1553.331663</ele>
        <time>2026-07-27T09:46:42.000Z</time>
      </trkpt>
      <trkpt lat="44.48635" lon="6.45229">
        <ele>1553.618398</ele>
        <time>2026-07-27T09:46:42.000Z</time>
      </trkpt>
      <trkpt lat="44.48635" lon="6.45229">
        <ele>1553.618398</ele>
        <time>2026-07-27T09:46:42.000Z</time>
      </trkpt>
      <trkpt lat="44.48636" lon="6.45226">
        <ele>1553.85865</ele>
        <time>2026-07-27T09:46:43.000Z</time>
      </trkpt>
      <trkpt lat="44.48636" lon="6.45226">
        <ele>1553.85865</ele>
        <time>2026-07-27T09:46:43.000Z</time>
      </trkpt>
      <trkpt lat="44.48636" lon="6.45222">
        <ele>1554.1676</ele>
        <time>2026-07-27T09:46:44.000Z</time>
      </trkpt>
      <trkpt lat="44.48636" lon="6.45222">
        <ele>1554.1676</ele>
        <time>2026-07-27T09:46:44.000Z</time>
      </trkpt>
      <trkpt lat="44.48637" lon="6.45218">
        <ele>1554.487049</ele>
        <time>2026-07-27T09:46:46.000Z</time>
      </trkpt>
      <trkpt lat="44.48637" lon="6.45218">
        <ele>1554.487049</ele>
        <time>2026-07-27T09:46:46.000Z</time>
      </trkpt>
      <trkpt lat="44.48638" lon="6.45215">
        <ele>1554.785662</ele>
        <time>2026-07-27T09:46:46.000Z</time>
      </trkpt>
      <trkpt lat="44.48638" lon="6.45215">
        <ele>1554.785662</ele>
        <time>2026-07-27T09:46:46.000Z</time>
      </trkpt>
      <trkpt lat="44.4864" lon="6.45212">
        <ele>1555.087078</ele>
        <time>2026-07-27T09:46:47.000Z</time>
      </trkpt>
      <trkpt lat="44.4864" lon="6.45212">
        <ele>1555.087078</ele>
        <time>2026-07-27T09:46:47.000Z</time>
      </trkpt>
      <trkpt lat="44.48642" lon="6.45209">
        <ele>1555.385624</ele>
        <time>2026-07-27T09:46:49.000Z</time>
      </trkpt>
      <trkpt lat="44.48642" lon="6.45209">
        <ele>1555.385624</ele>
        <time>2026-07-27T09:46:49.000Z</time>
      </trkpt>
      <trkpt lat="44.48644" lon="6.45207">
        <ele>1555.702015</ele>
        <time>2026-07-27T09:46:50.000Z</time>
      </trkpt>
      <trkpt lat="44.48644" lon="6.45207">
        <ele>1555.702015</ele>
        <time>2026-07-27T09:46:50.000Z</time>
      </trkpt>
      <trkpt lat="44.48645" lon="6.45205">
        <ele>1555.882685</ele>
        <time>2026-07-27T09:46:50.000Z</time>
      </trkpt>
      <trkpt lat="44.48645" lon="6.45205">
        <ele>1555.882685</ele>
        <time>2026-07-27T09:46:50.000Z</time>
      </trkpt>
      <trkpt lat="44.48647" lon="6.45203">
        <ele>1556.162599</ele>
        <time>2026-07-27T09:46:51.000Z</time>
      </trkpt>
      <trkpt lat="44.48647" lon="6.45203">
        <ele>1556.162599</ele>
        <time>2026-07-27T09:46:51.000Z</time>
      </trkpt>
      <trkpt lat="44.48649" lon="6.45202">
        <ele>1556.345881</ele>
        <time>2026-07-27T09:46:53.000Z</time>
      </trkpt>
      <trkpt lat="44.48649" lon="6.45202">
        <ele>1556.345881</ele>
        <time>2026-07-27T09:46:53.000Z</time>
      </trkpt>
      <trkpt lat="44.48649" lon="6.45202">
        <ele>1556.345881</ele>
        <time>2026-07-27T09:46:53.000Z</time>
      </trkpt>
      <trkpt lat="44.48649" lon="6.45202">
        <ele>1556.345881</ele>
        <time>2026-07-27T09:46:54.000Z</time>
      </trkpt>
      <trkpt lat="44.48649" lon="6.45202">
        <ele>1556.345881</ele>
        <time>2026-07-27T09:46:56.000Z</time>
      </trkpt>
      <trkpt lat="44.48649" lon="6.45202">
        <ele>1556.345881</ele>
        <time>2026-07-27T09:47:13.000Z</time>
      </trkpt>
      <trkpt lat="44.48655" lon="6.45199">
        <ele>1557.10349</ele>
        <time>2026-07-27T09:47:14.000Z</time>
      </trkpt>
      <trkpt lat="44.48659" lon="6.45201">
        <ele>1557.541303</ele>
        <time>2026-07-27T09:47:18.000Z</time>
      </trkpt>
      <trkpt lat="44.48659" lon="6.45201">
        <ele>1557.541303</ele>
        <time>2026-07-27T09:47:18.000Z</time>
      </trkpt>
      <trkpt lat="44.4866" lon="6.45201">
        <ele>1557.635025</ele>
        <time>2026-07-27T09:47:19.000Z</time>
      </trkpt>
      <trkpt lat="44.48661" lon="6.452">
        <ele>1557.76042</ele>
        <time>2026-07-27T09:47:20.000Z</time>
      </trkpt>
      <trkpt lat="44.48662" lon="6.452">
        <ele>1557.850088</ele>
        <time>2026-07-27T09:47:21.000Z</time>
      </trkpt>
      <trkpt lat="44.48662" lon="6.452">
        <ele>1557.850088</ele>
        <time>2026-07-27T09:47:21.000Z</time>
      </trkpt>
      <trkpt lat="44.48664" lon="6.452">
        <ele>1558.103999</ele>
        <time>2026-07-27T09:47:22.000Z</time>
      </trkpt>
      <trkpt lat="44.48666" lon="6.45199">
        <ele>1558.316003</ele>
        <time>2026-07-27T09:47:24.000Z</time>
      </trkpt>
      <trkpt lat="44.48668" lon="6.45199">
        <ele>1558.526245</ele>
        <time>2026-07-27T09:47:25.000Z</time>
      </trkpt>
      <trkpt lat="44.48668" lon="6.45199">
        <ele>1558.526245</ele>
        <time>2026-07-27T09:47:25.000Z</time>
      </trkpt>
      <trkpt lat="44.4867" lon="6.45199">
        <ele>1558.780156</ele>
        <time>2026-07-27T09:47:26.000Z</time>
      </trkpt>
      <trkpt lat="44.48673" lon="6.452">
        <ele>1559.11268</ele>
        <time>2026-07-27T09:47:27.000Z</time>
      </trkpt>
      <trkpt lat="44.48676" lon="6.452">
        <ele>1559.459154</ele>
        <time>2026-07-27T09:47:28.000Z</time>
      </trkpt>
      <trkpt lat="44.4868" lon="6.452">
        <ele>1559.83432</ele>
        <time>2026-07-27T09:47:29.000Z</time>
      </trkpt>
      <trkpt lat="44.48684" lon="6.452">
        <ele>1560.254805</ele>
        <time>2026-07-27T09:47:30.000Z</time>
      </trkpt>
      <trkpt lat="44.48684" lon="6.452">
        <ele>1560.254805</ele>
        <time>2026-07-27T09:47:30.000Z</time>
      </trkpt>
      <trkpt lat="44.48687" lon="6.452">
        <ele>1560.686294</ele>
        <time>2026-07-27T09:47:31.000Z</time>
      </trkpt>
      <trkpt lat="44.48691" lon="6.45199">
        <ele>1561.106778</ele>
        <time>2026-07-27T09:47:32.000Z</time>
      </trkpt>
      <trkpt lat="44.48694" lon="6.45199">
        <ele>1561.44014</ele>
        <time>2026-07-27T09:47:33.000Z</time>
      </trkpt>
      <trkpt lat="44.48698" lon="6.45198">
        <ele>1561.861287</ele>
        <time>2026-07-27T09:47:33.000Z</time>
      </trkpt>
      <trkpt lat="44.48698" lon="6.45198">
        <ele>1561.861287</ele>
        <time>2026-07-27T09:47:33.000Z</time>
      </trkpt>
      <trkpt lat="44.48703" lon="6.45197">
        <ele>1562.463399</ele>
        <time>2026-07-27T09:47:34.000Z</time>
      </trkpt>
      <trkpt lat="44.48708" lon="6.45197">
        <ele>1563.004596</ele>
        <time>2026-07-27T09:47:36.000Z</time>
      </trkpt>
      <trkpt lat="44.48712" lon="6.45197">
        <ele>1563.435582</ele>
        <time>2026-07-27T09:47:37.000Z</time>
      </trkpt>
      <trkpt lat="44.48712" lon="6.45197">
        <ele>1563.435582</ele>
        <time>2026-07-27T09:47:37.000Z</time>
      </trkpt>
      <trkpt lat="44.48716" lon="6.45196">
        <ele>1563.856729</ele>
        <time>2026-07-27T09:47:38.000Z</time>
      </trkpt>
      <trkpt lat="44.48719" lon="6.45195">
        <ele>1564.191111</ele>
        <time>2026-07-27T09:47:39.000Z</time>
      </trkpt>
      <trkpt lat="44.48723" lon="6.45195">
        <ele>1564.61071</ele>
        <time>2026-07-27T09:47:40.000Z</time>
      </trkpt>
      <trkpt lat="44.48723" lon="6.45195">
        <ele>1564.61071</ele>
        <time>2026-07-27T09:47:40.000Z</time>
      </trkpt>
      <trkpt lat="44.48726" lon="6.45195">
        <ele>1564.998912</ele>
        <time>2026-07-27T09:47:41.000Z</time>
      </trkpt>
      <trkpt lat="44.48729" lon="6.45194">
        <ele>1565.289666</ele>
        <time>2026-07-27T09:47:42.000Z</time>
      </trkpt>
      <trkpt lat="44.48729" lon="6.45194">
        <ele>1565.289666</ele>
        <time>2026-07-27T09:47:42.000Z</time>
      </trkpt>
      <trkpt lat="44.48732" lon="6.45194">
        <ele>1565.590181</ele>
        <time>2026-07-27T09:47:43.000Z</time>
      </trkpt>
      <trkpt lat="44.48732" lon="6.45194">
        <ele>1565.590181</ele>
        <time>2026-07-27T09:47:43.000Z</time>
      </trkpt>
      <trkpt lat="44.48734" lon="6.45192">
        <ele>1565.902725</ele>
        <time>2026-07-27T09:47:44.000Z</time>
      </trkpt>
      <trkpt lat="44.48734" lon="6.45192">
        <ele>1565.902725</ele>
        <time>2026-07-27T09:47:44.000Z</time>
      </trkpt>
      <trkpt lat="44.48737" lon="6.45191">
        <ele>1566.186049</ele>
        <time>2026-07-27T09:47:45.000Z</time>
      </trkpt>
      <trkpt lat="44.48739" lon="6.45188">
        <ele>1566.502438</ele>
        <time>2026-07-27T09:47:46.000Z</time>
      </trkpt>
      <trkpt lat="44.48739" lon="6.45188">
        <ele>1566.502438</ele>
        <time>2026-07-27T09:47:46.000Z</time>
      </trkpt>
      <trkpt lat="44.4874" lon="6.45186">
        <ele>1566.784413</ele>
        <time>2026-07-27T09:47:47.000Z</time>
      </trkpt>
      <trkpt lat="44.4874" lon="6.45186">
        <ele>1566.784413</ele>
        <time>2026-07-27T09:47:47.000Z</time>
      </trkpt>
      <trkpt lat="44.48742" lon="6.45182">
        <ele>1567.119418</ele>
        <time>2026-07-27T09:47:48.000Z</time>
      </trkpt>
      <trkpt lat="44.48742" lon="6.45182">
        <ele>1567.119418</ele>
        <time>2026-07-27T09:47:48.000Z</time>
      </trkpt>
      <trkpt lat="44.48743" lon="6.45178">
        <ele>1567.454422</ele>
        <time>2026-07-27T09:47:49.000Z</time>
      </trkpt>
      <trkpt lat="44.48743" lon="6.45178">
        <ele>1567.454422</ele>
        <time>2026-07-27T09:47:49.000Z</time>
      </trkpt>
      <trkpt lat="44.48744" lon="6.45175">
        <ele>1567.751242</ele>
        <time>2026-07-27T09:47:50.000Z</time>
      </trkpt>
      <trkpt lat="44.48744" lon="6.45175">
        <ele>1567.751242</ele>
        <time>2026-07-27T09:47:50.000Z</time>
      </trkpt>
      <trkpt lat="44.48745" lon="6.45171">
        <ele>1568.08137</ele>
        <time>2026-07-27T09:47:51.000Z</time>
      </trkpt>
      <trkpt lat="44.48745" lon="6.45171">
        <ele>1568.08137</ele>
        <time>2026-07-27T09:47:51.000Z</time>
      </trkpt>
      <trkpt lat="44.48746" lon="6.45167">
        <ele>1568.363197</ele>
        <time>2026-07-27T09:47:52.000Z</time>
      </trkpt>
      <trkpt lat="44.48746" lon="6.45167">
        <ele>1568.363197</ele>
        <time>2026-07-27T09:47:52.000Z</time>
      </trkpt>
      <trkpt lat="44.48746" lon="6.45163">
        <ele>1568.66233</ele>
        <time>2026-07-27T09:47:53.000Z</time>
      </trkpt>
      <trkpt lat="44.48746" lon="6.45163">
        <ele>1568.66233</ele>
        <time>2026-07-27T09:47:53.000Z</time>
      </trkpt>
      <trkpt lat="44.48746" lon="6.4516">
        <ele>1568.93359</ele>
        <time>2026-07-27T09:47:54.000Z</time>
      </trkpt>
      <trkpt lat="44.48746" lon="6.4516">
        <ele>1568.93359</ele>
        <time>2026-07-27T09:47:54.000Z</time>
      </trkpt>
      <trkpt lat="44.48745" lon="6.45157">
        <ele>1569.174589</ele>
        <time>2026-07-27T09:47:55.000Z</time>
      </trkpt>
      <trkpt lat="44.48745" lon="6.45157">
        <ele>1569.174589</ele>
        <time>2026-07-27T09:47:55.000Z</time>
      </trkpt>
      <trkpt lat="44.48744" lon="6.45154">
        <ele>1569.452228</ele>
        <time>2026-07-27T09:47:56.000Z</time>
      </trkpt>
      <trkpt lat="44.48744" lon="6.45154">
        <ele>1569.452228</ele>
        <time>2026-07-27T09:47:56.000Z</time>
      </trkpt>
      <trkpt lat="44.48743" lon="6.45151">
        <ele>1569.684742</ele>
        <time>2026-07-27T09:47:57.000Z</time>
      </trkpt>
      <trkpt lat="44.48743" lon="6.45151">
        <ele>1569.684742</ele>
        <time>2026-07-27T09:47:57.000Z</time>
      </trkpt>
      <trkpt lat="44.48743" lon="6.45148">
        <ele>1569.948219</ele>
        <time>2026-07-27T09:47:58.000Z</time>
      </trkpt>
      <trkpt lat="44.48743" lon="6.45148">
        <ele>1569.948219</ele>
        <time>2026-07-27T09:47:58.000Z</time>
      </trkpt>
      <trkpt lat="44.48743" lon="6.45144">
        <ele>1570.247353</ele>
        <time>2026-07-27T09:47:59.000Z</time>
      </trkpt>
      <trkpt lat="44.48743" lon="6.45144">
        <ele>1570.247353</ele>
        <time>2026-07-27T09:47:59.000Z</time>
      </trkpt>
      <trkpt lat="44.48743" lon="6.45141">
        <ele>1570.507126</ele>
        <time>2026-07-27T09:48:00.000Z</time>
      </trkpt>
      <trkpt lat="44.48743" lon="6.45141">
        <ele>1570.507126</ele>
        <time>2026-07-27T09:48:00.000Z</time>
      </trkpt>
      <trkpt lat="44.48744" lon="6.45138">
        <ele>1570.718526</ele>
        <time>2026-07-27T09:48:01.000Z</time>
      </trkpt>
      <trkpt lat="44.48744" lon="6.45138">
        <ele>1570.718526</ele>
        <time>2026-07-27T09:48:01.000Z</time>
      </trkpt>
      <trkpt lat="44.48745" lon="6.45136">
        <ele>1570.757612</ele>
        <time>2026-07-27T09:48:02.000Z</time>
      </trkpt>
      <trkpt lat="44.48745" lon="6.45136">
        <ele>1570.757612</ele>
        <time>2026-07-27T09:48:02.000Z</time>
      </trkpt>
      <trkpt lat="44.48746" lon="6.45133">
        <ele>1570.800136</ele>
        <time>2026-07-27T09:48:03.000Z</time>
      </trkpt>
      <trkpt lat="44.48746" lon="6.45133">
        <ele>1570.800136</ele>
        <time>2026-07-27T09:48:03.000Z</time>
      </trkpt>
      <trkpt lat="44.48747" lon="6.45131">
        <ele>1570.839222</ele>
        <time>2026-07-27T09:48:04.000Z</time>
      </trkpt>
      <trkpt lat="44.48747" lon="6.45131">
        <ele>1570.839222</ele>
        <time>2026-07-27T09:48:04.000Z</time>
      </trkpt>
      <trkpt lat="44.48748" lon="6.45128">
        <ele>1570.900389</ele>
        <time>2026-07-27T09:48:05.000Z</time>
      </trkpt>
      <trkpt lat="44.48748" lon="6.45128">
        <ele>1570.900389</ele>
        <time>2026-07-27T09:48:05.000Z</time>
      </trkpt>
      <trkpt lat="44.4875" lon="6.45126">
        <ele>1570.960419</ele>
        <time>2026-07-27T09:48:06.000Z</time>
      </trkpt>
      <trkpt lat="44.4875" lon="6.45126">
        <ele>1570.960419</ele>
        <time>2026-07-27T09:48:06.000Z</time>
      </trkpt>
      <trkpt lat="44.48752" lon="6.45123">
        <ele>1571.015098</ele>
        <time>2026-07-27T09:48:07.000Z</time>
      </trkpt>
      <trkpt lat="44.48752" lon="6.45123">
        <ele>1571.015098</ele>
        <time>2026-07-27T09:48:07.000Z</time>
      </trkpt>
      <trkpt lat="44.48753" lon="6.45121">
        <ele>1571.056463</ele>
        <time>2026-07-27T09:48:08.000Z</time>
      </trkpt>
      <trkpt lat="44.48753" lon="6.45121">
        <ele>1571.056463</ele>
        <time>2026-07-27T09:48:08.000Z</time>
      </trkpt>
      <trkpt lat="44.48753" lon="6.45121">
        <ele>1571.056463</ele>
        <time>2026-07-27T09:48:09.000Z</time>
      </trkpt>
      <trkpt lat="44.48753" lon="6.45121">
        <ele>1571.056463</ele>
        <time>2026-07-27T09:48:10.000Z</time>
      </trkpt>
      <trkpt lat="44.4876" lon="6.45112">
        <ele>1571.258729</ele>
        <time>2026-07-27T10:30:26.000Z</time>
      </trkpt>
      <trkpt lat="44.48759" lon="6.4511">
        <ele>1571.297461</ele>
        <time>2026-07-27T10:30:29.000Z</time>
      </trkpt>
      <trkpt lat="44.48758" lon="6.4511">
        <ele>1571.316895</ele>
        <time>2026-07-27T10:30:31.000Z</time>
      </trkpt>
      <trkpt lat="44.48757" lon="6.45111">
        <ele>1571.346876</ele>
        <time>2026-07-27T10:30:33.000Z</time>
      </trkpt>
      <trkpt lat="44.48754" lon="6.45113">
        <ele>1571.419639</ele>
        <time>2026-07-27T10:30:53.000Z</time>
      </trkpt>
      <trkpt lat="44.48754" lon="6.45112">
        <ele>1571.421222</ele>
        <time>2026-07-27T10:31:04.000Z</time>
      </trkpt>
      <trkpt lat="44.48754" lon="6.45113">
        <ele>1571.422805</ele>
        <time>2026-07-27T10:31:06.000Z</time>
      </trkpt>
      <trkpt lat="44.48754" lon="6.45112">
        <ele>1571.424388</ele>
        <time>2026-07-27T10:31:33.000Z</time>
      </trkpt>
      <trkpt lat="44.48753" lon="6.45112">
        <ele>1571.440629</ele>
        <time>2026-07-27T10:31:35.000Z</time>
      </trkpt>
      <trkpt lat="44.48753" lon="6.45112">
        <ele>1571.44696</ele>
        <time>2026-07-27T10:31:36.000Z</time>
      </trkpt>
      <trkpt lat="44.48752" lon="6.4511">
        <ele>1571.476605</ele>
        <time>2026-07-27T10:31:38.000Z</time>
      </trkpt>
      <trkpt lat="44.48746" lon="6.45104">
        <ele>1571.641041</ele>
        <time>2026-07-27T10:31:40.000Z</time>
      </trkpt>
      <trkpt lat="44.48746" lon="6.45104">
        <ele>1571.641041</ele>
        <time>2026-07-27T10:31:40.000Z</time>
      </trkpt>
      <trkpt lat="44.48745" lon="6.45104">
        <ele>1571.667845</ele>
        <time>2026-07-27T10:31:41.000Z</time>
      </trkpt>
      <trkpt lat="44.48744" lon="6.45103">
        <ele>1571.690605</ele>
        <time>2026-07-27T10:31:43.000Z</time>
      </trkpt>
      <trkpt lat="44.48744" lon="6.45103">
        <ele>1571.690605</ele>
        <time>2026-07-27T10:31:43.000Z</time>
      </trkpt>
      <trkpt lat="44.48743" lon="6.45101">
        <ele>1571.71778</ele>
        <time>2026-07-27T10:31:43.000Z</time>
      </trkpt>
      <trkpt lat="44.48743" lon="6.451">
        <ele>1571.746151</ele>
        <time>2026-07-27T10:31:45.000Z</time>
      </trkpt>
      <trkpt lat="44.48742" lon="6.45098">
        <ele>1571.774486</ele>
        <time>2026-07-27T10:31:45.000Z</time>
      </trkpt>
      <trkpt lat="44.48742" lon="6.45096">
        <ele>1571.816586</ele>
        <time>2026-07-27T10:31:46.000Z</time>
      </trkpt>
      <trkpt lat="44.48741" lon="6.45094">
        <ele>1571.849552</ele>
        <time>2026-07-27T10:31:48.000Z</time>
      </trkpt>
      <trkpt lat="44.4874" lon="6.45093">
        <ele>1571.885226</ele>
        <time>2026-07-27T10:31:48.000Z</time>
      </trkpt>
      <trkpt lat="44.4874" lon="6.45093">
        <ele>1571.885226</ele>
        <time>2026-07-27T10:31:48.000Z</time>
      </trkpt>
      <trkpt lat="44.48738" lon="6.45093">
        <ele>1571.918544</ele>
        <time>2026-07-27T10:31:50.000Z</time>
      </trkpt>
      <trkpt lat="44.48737" lon="6.45093">
        <ele>1571.944733</ele>
        <time>2026-07-27T10:31:50.000Z</time>
      </trkpt>
      <trkpt lat="44.48735" lon="6.45093">
        <ele>1571.989108</ele>
        <time>2026-07-27T10:31:52.000Z</time>
      </trkpt>
      <trkpt lat="44.48733" lon="6.45094">
        <ele>1572.039957</ele>
        <time>2026-07-27T10:31:52.000Z</time>
      </trkpt>
      <trkpt lat="44.48731" lon="6.45095">
        <ele>1572.087626</ele>
        <time>2026-07-27T10:31:53.000Z</time>
      </trkpt>
      <trkpt lat="44.48731" lon="6.45095">
        <ele>1572.087626</ele>
        <time>2026-07-27T10:31:53.000Z</time>
      </trkpt>
      <trkpt lat="44.48729" lon="6.45096">
        <ele>1572.139451</ele>
        <time>2026-07-27T10:31:54.000Z</time>
      </trkpt>
      <trkpt lat="44.48727" lon="6.45097">
        <ele>1572.182663</ele>
        <time>2026-07-27T10:31:55.000Z</time>
      </trkpt>
      <trkpt lat="44.48725" lon="6.45097">
        <ele>1572.227739</ele>
        <time>2026-07-27T10:31:56.000Z</time>
      </trkpt>
      <trkpt lat="44.48722" lon="6.45098">
        <ele>1572.286202</ele>
        <time>2026-07-27T10:31:57.000Z</time>
      </trkpt>
      <trkpt lat="44.48722" lon="6.45098">
        <ele>1572.286202</ele>
        <time>2026-07-27T10:31:57.000Z</time>
      </trkpt>
      <trkpt lat="44.48719" lon="6.45099">
        <ele>1572.346629</ele>
        <time>2026-07-27T10:31:58.000Z</time>
      </trkpt>
      <trkpt lat="44.48716" lon="6.45099">
        <ele>1572.413866</ele>
        <time>2026-07-27T10:31:59.000Z</time>
      </trkpt>
      <trkpt lat="44.48714" lon="6.45099">
        <ele>1572.47396</ele>
        <time>2026-07-27T10:32:00.000Z</time>
      </trkpt>
      <trkpt lat="44.48711" lon="6.451">
        <ele>1572.525211</ele>
        <time>2026-07-27T10:32:01.000Z</time>
      </trkpt>
      <trkpt lat="44.48706" lon="6.45101">
        <ele>1572.652312</ele>
        <time>2026-07-27T10:32:03.000Z</time>
      </trkpt>
      <trkpt lat="44.48703" lon="6.45101">
        <ele>1572.703564</ele>
        <time>2026-07-27T10:32:04.000Z</time>
      </trkpt>
      <trkpt lat="44.48702" lon="6.45101">
        <ele>1572.74575</ele>
        <time>2026-07-27T10:32:05.000Z</time>
      </trkpt>
      <trkpt lat="44.48697" lon="6.45101">
        <ele>1572.839152</ele>
        <time>2026-07-27T10:32:07.000Z</time>
      </trkpt>
      <trkpt lat="44.48697" lon="6.45101">
        <ele>1572.839152</ele>
        <time>2026-07-27T10:32:07.000Z</time>
      </trkpt>
      <trkpt lat="44.48696" lon="6.45101">
        <ele>1572.865824</ele>
        <time>2026-07-27T10:32:08.000Z</time>
      </trkpt>
      <trkpt lat="44.48695" lon="6.45101">
        <ele>1572.891038</ele>
        <time>2026-07-27T10:32:09.000Z</time>
      </trkpt>
      <trkpt lat="44.48693" lon="6.45101">
        <ele>1572.933461</ele>
        <time>2026-07-27T10:32:10.000Z</time>
      </trkpt>
      <trkpt lat="44.48689" lon="6.45102">
        <ele>1573.021053</ele>
        <time>2026-07-27T10:32:12.000Z</time>
      </trkpt>
      <trkpt lat="44.48689" lon="6.45104">
        <ele>1573.056989</ele>
        <time>2026-07-27T10:32:12.000Z</time>
      </trkpt>
      <trkpt lat="44.48689" lon="6.45106">
        <ele>1573.088346</ele>
        <time>2026-07-27T10:32:14.000Z</time>
      </trkpt>
      <trkpt lat="44.48688" lon="6.45108">
        <ele>1573.116681</ele>
        <time>2026-07-27T10:32:15.000Z</time>
      </trkpt>
      <trkpt lat="44.48686" lon="6.45111">
        <ele>1573.193175</ele>
        <time>2026-07-27T10:32:17.000Z</time>
      </trkpt>
      <trkpt lat="44.48685" lon="6.45112">
        <ele>1573.215351</ele>
        <time>2026-07-27T10:32:18.000Z</time>
      </trkpt>
      <trkpt lat="44.48685" lon="6.45112">
        <ele>1573.215351</ele>
        <time>2026-07-27T10:32:19.000Z</time>
      </trkpt>
      <trkpt lat="44.48684" lon="6.45116">
        <ele>1573.278064</ele>
        <time>2026-07-27T10:32:20.000Z</time>
      </trkpt>
      <trkpt lat="44.48684" lon="6.45116">
        <ele>1573.288966</ele>
        <time>2026-07-27T10:32:24.000Z</time>
      </trkpt>
      <trkpt lat="44.48684" lon="6.45116">
        <ele>1573.292132</ele>
        <time>2026-07-27T10:32:26.000Z</time>
      </trkpt>
      <trkpt lat="44.48682" lon="6.4512">
        <ele>1573.366885</ele>
        <time>2026-07-27T10:32:38.000Z</time>
      </trkpt>
      <trkpt lat="44.48682" lon="6.4512">
        <ele>1573.366885</ele>
        <time>2026-07-27T10:32:38.000Z</time>
      </trkpt>
      <trkpt lat="44.48682" lon="6.4512">
        <ele>1573.376308</ele>
        <time>2026-07-27T10:32:40.000Z</time>
      </trkpt>
      <trkpt lat="44.48681" lon="6.45125">
        <ele>1573.464741</ele>
        <time>2026-07-27T10:32:42.000Z</time>
      </trkpt>
      <trkpt lat="44.4868" lon="6.45128">
        <ele>1573.517807</ele>
        <time>2026-07-27T10:32:45.000Z</time>
      </trkpt>
      <trkpt lat="44.48679" lon="6.45129">
        <ele>1573.536012</ele>
        <time>2026-07-27T10:32:46.000Z</time>
      </trkpt>
      <trkpt lat="44.48678" lon="6.4513">
        <ele>1573.566209</ele>
        <time>2026-07-27T10:32:47.000Z</time>
      </trkpt>
      <trkpt lat="44.48678" lon="6.4513">
        <ele>1573.566209</ele>
        <time>2026-07-27T10:32:47.000Z</time>
      </trkpt>
      <trkpt lat="44.48677" lon="6.45131">
        <ele>1573.590745</ele>
        <time>2026-07-27T10:32:48.000Z</time>
      </trkpt>
      <trkpt lat="44.48675" lon="6.45133">
        <ele>1573.645424</ele>
        <time>2026-07-27T10:32:49.000Z</time>
      </trkpt>
      <trkpt lat="44.48673" lon="6.45135">
        <ele>1573.700868</ele>
        <time>2026-07-27T10:32:50.000Z</time>
      </trkpt>
      <trkpt lat="44.48671" lon="6.45137">
        <ele>1573.756569</ele>
        <time>2026-07-27T10:32:51.000Z</time>
      </trkpt>
      <trkpt lat="44.48671" lon="6.45137">
        <ele>1573.756569</ele>
        <time>2026-07-27T10:32:51.000Z</time>
      </trkpt>
      <trkpt lat="44.4867" lon="6.45139">
        <ele>1573.795301</ele>
        <time>2026-07-27T10:32:52.000Z</time>
      </trkpt>
      <trkpt lat="44.48668" lon="6.45143">
        <ele>1573.866183</ele>
        <time>2026-07-27T10:32:53.000Z</time>
      </trkpt>
      <trkpt lat="44.48666" lon="6.45147">
        <ele>1573.949992</ele>
        <time>2026-07-27T10:32:54.000Z</time>
      </trkpt>
      <trkpt lat="44.48666" lon="6.45147">
        <ele>1573.949992</ele>
        <time>2026-07-27T10:32:54.000Z</time>
      </trkpt>
      <trkpt lat="44.48665" lon="6.45149">
        <ele>1573.993822</ele>
        <time>2026-07-27T10:32:55.000Z</time>
      </trkpt>
      <trkpt lat="44.48663" lon="6.45155">
        <ele>1574.096104</ele>
        <time>2026-07-27T10:32:56.000Z</time>
      </trkpt>
      <trkpt lat="44.48663" lon="6.45155">
        <ele>1574.096104</ele>
        <time>2026-07-27T10:32:56.000Z</time>
      </trkpt>
      <trkpt lat="44.48661" lon="6.45158">
        <ele>1574.156668</ele>
        <time>2026-07-27T10:32:57.000Z</time>
      </trkpt>
      <trkpt lat="44.48661" lon="6.45158">
        <ele>1574.156668</ele>
        <time>2026-07-27T10:32:57.000Z</time>
      </trkpt>
      <trkpt lat="44.48658" lon="6.45165">
        <ele>1574.292024</ele>
        <time>2026-07-27T10:32:57.000Z</time>
      </trkpt>
      <trkpt lat="44.48658" lon="6.45165">
        <ele>1574.292024</ele>
        <time>2026-07-27T10:32:57.000Z</time>
      </trkpt>
      <trkpt lat="44.48655" lon="6.45169">
        <ele>1574.381514</ele>
        <time>2026-07-27T10:32:59.000Z</time>
      </trkpt>
      <trkpt lat="44.48652" lon="6.45174">
        <ele>1574.474409</ele>
        <time>2026-07-27T10:33:00.000Z</time>
      </trkpt>
      <trkpt lat="44.48652" lon="6.45174">
        <ele>1574.474409</ele>
        <time>2026-07-27T10:33:00.000Z</time>
      </trkpt>
      <trkpt lat="44.48651" lon="6.45178">
        <ele>1574.549775</ele>
        <time>2026-07-27T10:33:01.000Z</time>
      </trkpt>
      <trkpt lat="44.48651" lon="6.45178">
        <ele>1574.549775</ele>
        <time>2026-07-27T10:33:01.000Z</time>
      </trkpt>
      <trkpt lat="44.48648" lon="6.45181">
        <ele>1574.621569</ele>
        <time>2026-07-27T10:33:02.000Z</time>
      </trkpt>
      <trkpt lat="44.48648" lon="6.45181">
        <ele>1574.621569</ele>
        <time>2026-07-27T10:33:02.000Z</time>
      </trkpt>
      <trkpt lat="44.48648" lon="6.45181">
        <ele>1574.621569</ele>
        <time>2026-07-27T10:33:03.000Z</time>
      </trkpt>
      <trkpt lat="44.48639" lon="6.45197">
        <ele>1573.569294</ele>
        <time>2026-07-27T10:33:03.000Z</time>
      </trkpt>
      <trkpt lat="44.48639" lon="6.45197">
        <ele>1573.569294</ele>
        <time>2026-07-27T10:33:03.000Z</time>
      </trkpt>
      <trkpt lat="44.48639" lon="6.45197">
        <ele>1573.569294</ele>
        <time>2026-07-27T10:33:05.000Z</time>
      </trkpt>
      <trkpt lat="44.48639" lon="6.45197">
        <ele>1573.569294</ele>
        <time>2026-07-27T10:33:06.000Z</time>
      </trkpt>
      <trkpt lat="44.48639" lon="6.45197">
        <ele>1573.569294</ele>
        <time>2026-07-27T10:33:15.000Z</time>
      </trkpt>
      <trkpt lat="44.48639" lon="6.45197">
        <ele>1573.569294</ele>
        <time>2026-07-27T10:33:15.000Z</time>
      </trkpt>
      <trkpt lat="44.48632" lon="6.45206">
        <ele>1572.667509</ele>
        <time>2026-07-27T10:33:16.000Z</time>
      </trkpt>
      <trkpt lat="44.48632" lon="6.45206">
        <ele>1572.667509</ele>
        <time>2026-07-27T10:33:16.000Z</time>
      </trkpt>
      <trkpt lat="44.48632" lon="6.4521">
        <ele>1572.356393</ele>
        <time>2026-07-27T10:33:17.000Z</time>
      </trkpt>
      <trkpt lat="44.48632" lon="6.4521">
        <ele>1572.356393</ele>
        <time>2026-07-27T10:33:17.000Z</time>
      </trkpt>
      <trkpt lat="44.48632" lon="6.4521">
        <ele>1572.356393</ele>
        <time>2026-07-27T10:33:18.000Z</time>
      </trkpt>
      <trkpt lat="44.48631" lon="6.45212">
        <ele>1572.136192</ele>
        <time>2026-07-27T10:33:20.000Z</time>
      </trkpt>
      <trkpt lat="44.48631" lon="6.45212">
        <ele>1572.136192</ele>
        <time>2026-07-27T10:33:20.000Z</time>
      </trkpt>
      <trkpt lat="44.48631" lon="6.45214">
        <ele>1572.044783</ele>
        <time>2026-07-27T10:33:21.000Z</time>
      </trkpt>
      <trkpt lat="44.48631" lon="6.45214">
        <ele>1572.044783</ele>
        <time>2026-07-27T10:33:21.000Z</time>
      </trkpt>
      <trkpt lat="44.48631" lon="6.45214">
        <ele>1572.044783</ele>
        <time>2026-07-27T10:33:22.000Z</time>
      </trkpt>
      <trkpt lat="44.48629" lon="6.45217">
        <ele>1571.76815</ele>
        <time>2026-07-27T10:33:23.000Z</time>
      </trkpt>
      <trkpt lat="44.48629" lon="6.45217">
        <ele>1571.76815</ele>
        <time>2026-07-27T10:33:23.000Z</time>
      </trkpt>
      <trkpt lat="44.48629" lon="6.45218">
        <ele>1571.664459</ele>
        <time>2026-07-27T10:33:24.000Z</time>
      </trkpt>
      <trkpt lat="44.48629" lon="6.45218">
        <ele>1571.664459</ele>
        <time>2026-07-27T10:33:24.000Z</time>
      </trkpt>
      <trkpt lat="44.48628" lon="6.45219">
        <ele>1571.572572</ele>
        <time>2026-07-27T10:33:25.000Z</time>
      </trkpt>
      <trkpt lat="44.48628" lon="6.45219">
        <ele>1571.572572</ele>
        <time>2026-07-27T10:33:25.000Z</time>
      </trkpt>
      <trkpt lat="44.48627" lon="6.45221">
        <ele>1571.417036</ele>
        <time>2026-07-27T10:33:26.000Z</time>
      </trkpt>
      <trkpt lat="44.48627" lon="6.45221">
        <ele>1571.417036</ele>
        <time>2026-07-27T10:33:26.000Z</time>
      </trkpt>
      <trkpt lat="44.48625" lon="6.45222">
        <ele>1571.242708</ele>
        <time>2026-07-27T10:33:27.000Z</time>
      </trkpt>
      <trkpt lat="44.48625" lon="6.45222">
        <ele>1571.242708</ele>
        <time>2026-07-27T10:33:27.000Z</time>
      </trkpt>
      <trkpt lat="44.48624" lon="6.45223">
        <ele>1571.100112</ele>
        <time>2026-07-27T10:33:27.000Z</time>
      </trkpt>
      <trkpt lat="44.48624" lon="6.45223">
        <ele>1571.100112</ele>
        <time>2026-07-27T10:33:27.000Z</time>
      </trkpt>
      <trkpt lat="44.48623" lon="6.45224">
        <ele>1570.93635</ele>
        <time>2026-07-27T10:33:28.000Z</time>
      </trkpt>
      <trkpt lat="44.48623" lon="6.45224">
        <ele>1570.93635</ele>
        <time>2026-07-27T10:33:28.000Z</time>
      </trkpt>
      <trkpt lat="44.48621" lon="6.45226">
        <ele>1570.75401</ele>
        <time>2026-07-27T10:33:30.000Z</time>
      </trkpt>
      <trkpt lat="44.48621" lon="6.45226">
        <ele>1570.75401</ele>
        <time>2026-07-27T10:33:30.000Z</time>
      </trkpt>
      <trkpt lat="44.4862" lon="6.45228">
        <ele>1570.57167</ele>
        <time>2026-07-27T10:33:31.000Z</time>
      </trkpt>
      <trkpt lat="44.4862" lon="6.45228">
        <ele>1570.57167</ele>
        <time>2026-07-27T10:33:31.000Z</time>
      </trkpt>
      <trkpt lat="44.48618" lon="6.45229">
        <ele>1570.432968</ele>
        <time>2026-07-27T10:33:32.000Z</time>
      </trkpt>
      <trkpt lat="44.48618" lon="6.45229">
        <ele>1570.432968</ele>
        <time>2026-07-27T10:33:32.000Z</time>
      </trkpt>
      <trkpt lat="44.48616" lon="6.45231">
        <ele>1570.211128</ele>
        <time>2026-07-27T10:33:33.000Z</time>
      </trkpt>
      <trkpt lat="44.48616" lon="6.45231">
        <ele>1570.211128</ele>
        <time>2026-07-27T10:33:33.000Z</time>
      </trkpt>
      <trkpt lat="44.48615" lon="6.45233">
        <ele>1570.001111</ele>
        <time>2026-07-27T10:33:34.000Z</time>
      </trkpt>
      <trkpt lat="44.48615" lon="6.45233">
        <ele>1570.001111</ele>
        <time>2026-07-27T10:33:34.000Z</time>
      </trkpt>
      <trkpt lat="44.48613" lon="6.45235">
        <ele>1569.727802</ele>
        <time>2026-07-27T10:33:35.000Z</time>
      </trkpt>
      <trkpt lat="44.48613" lon="6.45235">
        <ele>1569.727802</ele>
        <time>2026-07-27T10:33:35.000Z</time>
      </trkpt>
      <trkpt lat="44.48611" lon="6.45236">
        <ele>1569.576771</ele>
        <time>2026-07-27T10:33:36.000Z</time>
      </trkpt>
      <trkpt lat="44.48611" lon="6.45236">
        <ele>1569.576771</ele>
        <time>2026-07-27T10:33:36.000Z</time>
      </trkpt>
      <trkpt lat="44.4861" lon="6.45239">
        <ele>1569.299918</ele>
        <time>2026-07-27T10:33:37.000Z</time>
      </trkpt>
      <trkpt lat="44.4861" lon="6.45239">
        <ele>1569.299918</ele>
        <time>2026-07-27T10:33:37.000Z</time>
      </trkpt>
      <trkpt lat="44.48609" lon="6.45242">
        <ele>1569.120979</ele>
        <time>2026-07-27T10:33:37.000Z</time>
      </trkpt>
      <trkpt lat="44.48609" lon="6.45242">
        <ele>1569.120979</ele>
        <time>2026-07-27T10:33:37.000Z</time>
      </trkpt>
      <trkpt lat="44.48607" lon="6.45245">
        <ele>1568.792578</ele>
        <time>2026-07-27T10:33:39.000Z</time>
      </trkpt>
      <trkpt lat="44.48607" lon="6.45245">
        <ele>1568.792578</ele>
        <time>2026-07-27T10:33:39.000Z</time>
      </trkpt>
      <trkpt lat="44.48605" lon="6.45249">
        <ele>1568.505258</ele>
        <time>2026-07-27T10:33:40.000Z</time>
      </trkpt>
      <trkpt lat="44.48605" lon="6.45249">
        <ele>1568.505258</ele>
        <time>2026-07-27T10:33:40.000Z</time>
      </trkpt>
      <trkpt lat="44.48603" lon="6.45252">
        <ele>1568.21754</ele>
        <time>2026-07-27T10:33:41.000Z</time>
      </trkpt>
      <trkpt lat="44.48603" lon="6.45252">
        <ele>1568.21754</ele>
        <time>2026-07-27T10:33:41.000Z</time>
      </trkpt>
      <trkpt lat="44.48601" lon="6.45257">
        <ele>1567.851646</ele>
        <time>2026-07-27T10:33:42.000Z</time>
      </trkpt>
      <trkpt lat="44.48601" lon="6.45257">
        <ele>1567.851646</ele>
        <time>2026-07-27T10:33:42.000Z</time>
      </trkpt>
      <trkpt lat="44.48599" lon="6.45262">
        <ele>1567.454577</ele>
        <time>2026-07-27T10:33:43.000Z</time>
      </trkpt>
      <trkpt lat="44.48599" lon="6.45262">
        <ele>1567.454577</ele>
        <time>2026-07-27T10:33:43.000Z</time>
      </trkpt>
      <trkpt lat="44.48599" lon="6.45267">
        <ele>1567.096154</ele>
        <time>2026-07-27T10:33:44.000Z</time>
      </trkpt>
      <trkpt lat="44.48599" lon="6.45267">
        <ele>1567.096154</ele>
        <time>2026-07-27T10:33:44.000Z</time>
      </trkpt>
      <trkpt lat="44.48598" lon="6.45272">
        <ele>1566.742516</ele>
        <time>2026-07-27T10:33:45.000Z</time>
      </trkpt>
      <trkpt lat="44.48598" lon="6.45272">
        <ele>1566.742516</ele>
        <time>2026-07-27T10:33:45.000Z</time>
      </trkpt>
      <trkpt lat="44.48598" lon="6.45277">
        <ele>1566.376745</ele>
        <time>2026-07-27T10:33:46.000Z</time>
      </trkpt>
      <trkpt lat="44.48598" lon="6.45277">
        <ele>1566.376745</ele>
        <time>2026-07-27T10:33:46.000Z</time>
      </trkpt>
      <trkpt lat="44.48599" lon="6.45284">
        <ele>1565.914729</ele>
        <time>2026-07-27T10:33:47.000Z</time>
      </trkpt>
      <trkpt lat="44.48599" lon="6.45284">
        <ele>1565.914729</ele>
        <time>2026-07-27T10:33:47.000Z</time>
      </trkpt>
      <trkpt lat="44.48599" lon="6.45288">
        <ele>1565.631775</ele>
        <time>2026-07-27T10:33:48.000Z</time>
      </trkpt>
      <trkpt lat="44.48599" lon="6.45288">
        <ele>1565.631775</ele>
        <time>2026-07-27T10:33:48.000Z</time>
      </trkpt>
      <trkpt lat="44.48599" lon="6.45293">
        <ele>1565.259102</ele>
        <time>2026-07-27T10:33:49.000Z</time>
      </trkpt>
      <trkpt lat="44.48599" lon="6.45293">
        <ele>1565.259102</ele>
        <time>2026-07-27T10:33:49.000Z</time>
      </trkpt>
      <trkpt lat="44.48598" lon="6.45299">
        <ele>1564.856959</ele>
        <time>2026-07-27T10:33:50.000Z</time>
      </trkpt>
      <trkpt lat="44.48598" lon="6.45299">
        <ele>1564.856959</ele>
        <time>2026-07-27T10:33:50.000Z</time>
      </trkpt>
      <trkpt lat="44.48599" lon="6.45303">
        <ele>1564.57137</ele>
        <time>2026-07-27T10:33:51.000Z</time>
      </trkpt>
      <trkpt lat="44.48599" lon="6.45303">
        <ele>1564.57137</ele>
        <time>2026-07-27T10:33:51.000Z</time>
      </trkpt>
      <trkpt lat="44.48599" lon="6.45305">
        <ele>1564.421366</ele>
        <time>2026-07-27T10:33:52.000Z</time>
      </trkpt>
      <trkpt lat="44.48599" lon="6.45305">
        <ele>1564.421366</ele>
        <time>2026-07-27T10:33:52.000Z</time>
      </trkpt>
      <trkpt lat="44.48598" lon="6.45312">
        <ele>1563.944628</ele>
        <time>2026-07-27T10:33:53.000Z</time>
      </trkpt>
      <trkpt lat="44.48598" lon="6.45312">
        <ele>1563.944628</ele>
        <time>2026-07-27T10:33:53.000Z</time>
      </trkpt>
      <trkpt lat="44.48597" lon="6.45317">
        <ele>1563.590539</ele>
        <time>2026-07-27T10:33:54.000Z</time>
      </trkpt>
      <trkpt lat="44.48597" lon="6.45317">
        <ele>1563.590539</ele>
        <time>2026-07-27T10:33:54.000Z</time>
      </trkpt>
      <trkpt lat="44.48596" lon="6.45322">
        <ele>1563.222837</ele>
        <time>2026-07-27T10:33:55.000Z</time>
      </trkpt>
      <trkpt lat="44.48596" lon="6.45322">
        <ele>1563.222837</ele>
        <time>2026-07-27T10:33:55.000Z</time>
      </trkpt>
      <trkpt lat="44.48595" lon="6.45327">
        <ele>1562.88629</ele>
        <time>2026-07-27T10:33:56.000Z</time>
      </trkpt>
      <trkpt lat="44.48595" lon="6.45327">
        <ele>1562.88629</ele>
        <time>2026-07-27T10:33:56.000Z</time>
      </trkpt>
      <trkpt lat="44.48593" lon="6.45331">
        <ele>1562.563769</ele>
        <time>2026-07-27T10:33:57.000Z</time>
      </trkpt>
      <trkpt lat="44.48593" lon="6.45331">
        <ele>1562.563769</ele>
        <time>2026-07-27T10:33:57.000Z</time>
      </trkpt>
      <trkpt lat="44.4859" lon="6.45334">
        <ele>1562.194869</ele>
        <time>2026-07-27T10:33:58.000Z</time>
      </trkpt>
      <trkpt lat="44.4859" lon="6.45334">
        <ele>1562.194869</ele>
        <time>2026-07-27T10:33:58.000Z</time>
      </trkpt>
      <trkpt lat="44.48588" lon="6.45337">
        <ele>1561.895606</ele>
        <time>2026-07-27T10:33:59.000Z</time>
      </trkpt>
      <trkpt lat="44.48588" lon="6.45337">
        <ele>1561.895606</ele>
        <time>2026-07-27T10:33:59.000Z</time>
      </trkpt>
      <trkpt lat="44.48587" lon="6.4534">
        <ele>1561.644228</ele>
        <time>2026-07-27T10:34:00.000Z</time>
      </trkpt>
      <trkpt lat="44.48587" lon="6.4534">
        <ele>1561.644228</ele>
        <time>2026-07-27T10:34:00.000Z</time>
      </trkpt>
      <trkpt lat="44.48585" lon="6.45345">
        <ele>1561.291045</ele>
        <time>2026-07-27T10:34:01.000Z</time>
      </trkpt>
      <trkpt lat="44.48585" lon="6.45345">
        <ele>1561.291045</ele>
        <time>2026-07-27T10:34:01.000Z</time>
      </trkpt>
      <trkpt lat="44.48583" lon="6.45347">
        <ele>1561.029315</ele>
        <time>2026-07-27T10:34:02.000Z</time>
      </trkpt>
      <trkpt lat="44.48583" lon="6.45347">
        <ele>1561.029315</ele>
        <time>2026-07-27T10:34:02.000Z</time>
      </trkpt>
      <trkpt lat="44.48581" lon="6.4535">
        <ele>1560.759954</ele>
        <time>2026-07-27T10:34:03.000Z</time>
      </trkpt>
      <trkpt lat="44.48581" lon="6.4535">
        <ele>1560.759954</ele>
        <time>2026-07-27T10:34:03.000Z</time>
      </trkpt>
      <trkpt lat="44.48578" lon="6.45352">
        <ele>1560.435571</ele>
        <time>2026-07-27T10:34:04.000Z</time>
      </trkpt>
      <trkpt lat="44.48578" lon="6.45352">
        <ele>1560.435571</ele>
        <time>2026-07-27T10:34:04.000Z</time>
      </trkpt>
      <trkpt lat="44.48576" lon="6.45353">
        <ele>1560.195671</ele>
        <time>2026-07-27T10:34:05.000Z</time>
      </trkpt>
      <trkpt lat="44.48576" lon="6.45353">
        <ele>1560.195671</ele>
        <time>2026-07-27T10:34:05.000Z</time>
      </trkpt>
      <trkpt lat="44.48574" lon="6.45354">
        <ele>1560.00376</ele>
        <time>2026-07-27T10:34:06.000Z</time>
      </trkpt>
      <trkpt lat="44.48571" lon="6.45355">
        <ele>1559.727594</ele>
        <time>2026-07-27T10:34:07.000Z</time>
      </trkpt>
      <trkpt lat="44.48571" lon="6.45355">
        <ele>1559.727594</ele>
        <time>2026-07-27T10:34:07.000Z</time>
      </trkpt>
      <trkpt lat="44.48569" lon="6.45357">
        <ele>1559.516648</ele>
        <time>2026-07-27T10:34:08.000Z</time>
      </trkpt>
      <trkpt lat="44.48569" lon="6.45357">
        <ele>1559.516648</ele>
        <time>2026-07-27T10:34:08.000Z</time>
      </trkpt>
      <trkpt lat="44.48567" lon="6.45358">
        <ele>1559.268262</ele>
        <time>2026-07-27T10:34:09.000Z</time>
      </trkpt>
      <trkpt lat="44.48564" lon="6.4536">
        <ele>1558.966151</ele>
        <time>2026-07-27T10:34:10.000Z</time>
      </trkpt>
      <trkpt lat="44.48564" lon="6.4536">
        <ele>1558.966151</ele>
        <time>2026-07-27T10:34:10.000Z</time>
      </trkpt>
      <trkpt lat="44.48562" lon="6.45362">
        <ele>1558.679253</ele>
        <time>2026-07-27T10:34:11.000Z</time>
      </trkpt>
      <trkpt lat="44.48559" lon="6.45365">
        <ele>1558.405943</ele>
        <time>2026-07-27T10:34:12.000Z</time>
      </trkpt>
      <trkpt lat="44.48559" lon="6.45365">
        <ele>1558.405943</ele>
        <time>2026-07-27T10:34:12.000Z</time>
      </trkpt>
      <trkpt lat="44.48557" lon="6.45366">
        <ele>1558.129777</ele>
        <time>2026-07-27T10:34:13.000Z</time>
      </trkpt>
      <trkpt lat="44.48557" lon="6.45366">
        <ele>1558.129777</ele>
        <time>2026-07-27T10:34:13.000Z</time>
      </trkpt>
      <trkpt lat="44.48554" lon="6.45368">
        <ele>1557.874954</ele>
        <time>2026-07-27T10:34:14.000Z</time>
      </trkpt>
      <trkpt lat="44.48553" lon="6.45369">
        <ele>1557.700626</ele>
        <time>2026-07-27T10:34:15.000Z</time>
      </trkpt>
      <trkpt lat="44.48553" lon="6.45369">
        <ele>1557.700626</ele>
        <time>2026-07-27T10:34:15.000Z</time>
      </trkpt>
      <trkpt lat="44.4855" lon="6.45371">
        <ele>1557.449096</ele>
        <time>2026-07-27T10:34:16.000Z</time>
      </trkpt>
      <trkpt lat="44.48548" lon="6.45373">
        <ele>1557.226206</ele>
        <time>2026-07-27T10:34:17.000Z</time>
      </trkpt>
      <trkpt lat="44.48548" lon="6.45373">
        <ele>1557.226206</ele>
        <time>2026-07-27T10:34:17.000Z</time>
      </trkpt>
      <trkpt lat="44.48547" lon="6.45374">
        <ele>1557.118078</ele>
        <time>2026-07-27T10:34:18.000Z</time>
      </trkpt>
      <trkpt lat="44.48547" lon="6.45374">
        <ele>1557.118078</ele>
        <time>2026-07-27T10:34:18.000Z</time>
      </trkpt>
      <trkpt lat="44.48545" lon="6.45376">
        <ele>1556.964437</ele>
        <time>2026-07-27T10:34:19.000Z</time>
      </trkpt>
      <trkpt lat="44.48545" lon="6.45376">
        <ele>1556.964437</ele>
        <time>2026-07-27T10:34:20.000Z</time>
      </trkpt>
      <trkpt lat="44.48541" lon="6.4538">
        <ele>1556.57764</ele>
        <time>2026-07-27T10:34:21.000Z</time>
      </trkpt>
      <trkpt lat="44.48541" lon="6.4538">
        <ele>1556.57764</ele>
        <time>2026-07-27T10:34:21.000Z</time>
      </trkpt>
      <trkpt lat="44.48539" lon="6.45381">
        <ele>1556.4879</ele>
        <time>2026-07-27T10:34:21.000Z</time>
      </trkpt>
      <trkpt lat="44.48539" lon="6.45381">
        <ele>1556.4879</ele>
        <time>2026-07-27T10:34:21.000Z</time>
      </trkpt>
      <trkpt lat="44.48536" lon="6.45383">
        <ele>1556.213374</ele>
        <time>2026-07-27T10:34:24.000Z</time>
      </trkpt>
      <trkpt lat="44.48536" lon="6.45383">
        <ele>1556.213374</ele>
        <time>2026-07-27T10:34:24.000Z</time>
      </trkpt>
      <trkpt lat="44.48536" lon="6.45383">
        <ele>1556.213374</ele>
        <time>2026-07-27T10:34:25.000Z</time>
      </trkpt>
      <trkpt lat="44.48533" lon="6.45384">
        <ele>1555.994891</ele>
        <time>2026-07-27T10:34:26.000Z</time>
      </trkpt>
      <trkpt lat="44.48533" lon="6.45384">
        <ele>1555.994891</ele>
        <time>2026-07-27T10:34:26.000Z</time>
      </trkpt>
      <trkpt lat="44.48532" lon="6.45384">
        <ele>1555.936543</ele>
        <time>2026-07-27T10:34:27.000Z</time>
      </trkpt>
      <trkpt lat="44.48532" lon="6.45384">
        <ele>1555.936543</ele>
        <time>2026-07-27T10:34:27.000Z</time>
      </trkpt>
      <trkpt lat="44.48529" lon="6.45385">
        <ele>1555.743933</ele>
        <time>2026-07-27T10:34:29.000Z</time>
      </trkpt>
      <trkpt lat="44.48529" lon="6.45385">
        <ele>1555.743933</ele>
        <time>2026-07-27T10:34:29.000Z</time>
      </trkpt>
      <trkpt lat="44.48529" lon="6.45385">
        <ele>1555.743933</ele>
        <time>2026-07-27T10:34:30.000Z</time>
      </trkpt>
      <trkpt lat="44.48528" lon="6.45385">
        <ele>1555.610065</ele>
        <time>2026-07-27T10:34:31.000Z</time>
      </trkpt>
      <trkpt lat="44.48528" lon="6.45385">
        <ele>1555.610065</ele>
        <time>2026-07-27T10:34:32.000Z</time>
      </trkpt>
      <trkpt lat="44.48525" lon="6.45386">
        <ele>1555.421374</ele>
        <time>2026-07-27T10:34:33.000Z</time>
      </trkpt>
      <trkpt lat="44.48525" lon="6.45386">
        <ele>1555.421374</ele>
        <time>2026-07-27T10:34:33.000Z</time>
      </trkpt>
      <trkpt lat="44.48522" lon="6.45388">
        <ele>1555.20621</ele>
        <time>2026-07-27T10:34:35.000Z</time>
      </trkpt>
      <trkpt lat="44.48522" lon="6.45388">
        <ele>1555.20621</ele>
        <time>2026-07-27T10:34:35.000Z</time>
      </trkpt>
      <trkpt lat="44.48522" lon="6.45388">
        <ele>1555.20621</ele>
        <time>2026-07-27T10:34:36.000Z</time>
      </trkpt>
      <trkpt lat="44.48521" lon="6.45391">
        <ele>1555.022065</ele>
        <time>2026-07-27T10:34:37.000Z</time>
      </trkpt>
      <trkpt lat="44.4852" lon="6.45392">
        <ele>1554.960004</ele>
        <time>2026-07-27T10:34:38.000Z</time>
      </trkpt>
      <trkpt lat="44.4852" lon="6.45392">
        <ele>1554.960004</ele>
        <time>2026-07-27T10:34:38.000Z</time>
      </trkpt>
      <trkpt lat="44.48519" lon="6.45393">
        <ele>1554.858981</ele>
        <time>2026-07-27T10:34:39.000Z</time>
      </trkpt>
      <trkpt lat="44.48519" lon="6.45393">
        <ele>1554.858981</ele>
        <time>2026-07-27T10:34:39.000Z</time>
      </trkpt>
      <trkpt lat="44.48518" lon="6.45395">
        <ele>1554.716535</ele>
        <time>2026-07-27T10:34:40.000Z</time>
      </trkpt>
      <trkpt lat="44.48518" lon="6.45395">
        <ele>1554.716535</ele>
        <time>2026-07-27T10:34:40.000Z</time>
      </trkpt>
      <trkpt lat="44.48516" lon="6.45397">
        <ele>1554.559897</ele>
        <time>2026-07-27T10:34:41.000Z</time>
      </trkpt>
      <trkpt lat="44.48516" lon="6.45397">
        <ele>1554.559897</ele>
        <time>2026-07-27T10:34:41.000Z</time>
      </trkpt>
      <trkpt lat="44.48515" lon="6.45399">
        <ele>1554.424652</ele>
        <time>2026-07-27T10:34:42.000Z</time>
      </trkpt>
      <trkpt lat="44.48515" lon="6.45399">
        <ele>1554.424652</ele>
        <time>2026-07-27T10:34:42.000Z</time>
      </trkpt>
      <trkpt lat="44.48515" lon="6.45402">
        <ele>1554.27888</ele>
        <time>2026-07-27T10:34:43.000Z</time>
      </trkpt>
      <trkpt lat="44.48515" lon="6.45402">
        <ele>1554.27888</ele>
        <time>2026-07-27T10:34:43.000Z</time>
      </trkpt>
      <trkpt lat="44.48516" lon="6.45404">
        <ele>1554.155046</ele>
        <time>2026-07-27T10:34:44.000Z</time>
      </trkpt>
      <trkpt lat="44.48516" lon="6.45404">
        <ele>1554.155046</ele>
        <time>2026-07-27T10:34:44.000Z</time>
      </trkpt>
      <trkpt lat="44.48517" lon="6.45405">
        <ele>1554.053672</ele>
        <time>2026-07-27T10:34:45.000Z</time>
      </trkpt>
      <trkpt lat="44.48517" lon="6.45405">
        <ele>1554.053672</ele>
        <time>2026-07-27T10:34:45.000Z</time>
      </trkpt>
      <trkpt lat="44.48517" lon="6.45405">
        <ele>1554.053672</ele>
        <time>2026-07-27T10:34:46.000Z</time>
      </trkpt>
      <trkpt lat="44.48517" lon="6.45405">
        <ele>1554.053672</ele>
        <time>2026-07-27T10:34:47.000Z</time>
      </trkpt>
      <trkpt lat="44.48517" lon="6.45405">
        <ele>1554.053672</ele>
        <time>2026-07-27T10:34:48.000Z</time>
      </trkpt>
      <trkpt lat="44.48518" lon="6.45411">
        <ele>1553.740448</ele>
        <time>2026-07-27T10:34:51.000Z</time>
      </trkpt>
      <trkpt lat="44.48518" lon="6.45411">
        <ele>1553.740448</ele>
        <time>2026-07-27T10:34:51.000Z</time>
      </trkpt>
      <trkpt lat="44.48518" lon="6.45411">
        <ele>1553.740448</ele>
        <time>2026-07-27T10:34:53.000Z</time>
      </trkpt>
      <trkpt lat="44.48518" lon="6.45411">
        <ele>1553.740448</ele>
        <time>2026-07-27T10:34:53.000Z</time>
      </trkpt>
      <trkpt lat="44.48518" lon="6.45411">
        <ele>1553.740448</ele>
        <time>2026-07-27T10:35:11.000Z</time>
      </trkpt>
      <trkpt lat="44.48519" lon="6.45413">
        <ele>1553.669284</ele>
        <time>2026-07-27T10:35:13.000Z</time>
      </trkpt>
      <trkpt lat="44.48519" lon="6.45413">
        <ele>1553.669284</ele>
        <time>2026-07-27T10:35:13.000Z</time>
      </trkpt>
      <trkpt lat="44.48521" lon="6.45416">
        <ele>1553.449493</ele>
        <time>2026-07-27T10:35:15.000Z</time>
      </trkpt>
      <trkpt lat="44.48523" lon="6.45418">
        <ele>1553.258791</ele>
        <time>2026-07-27T10:35:15.000Z</time>
      </trkpt>
      <trkpt lat="44.48523" lon="6.45418">
        <ele>1553.258791</ele>
        <time>2026-07-27T10:35:15.000Z</time>
      </trkpt>
      <trkpt lat="44.48523" lon="6.45418">
        <ele>1553.228632</ele>
        <time>2026-07-27T10:35:17.000Z</time>
      </trkpt>
      <trkpt lat="44.48524" lon="6.45419">
        <ele>1553.19087</ele>
        <time>2026-07-27T10:35:17.000Z</time>
      </trkpt>
      <trkpt lat="44.48524" lon="6.45419">
        <ele>1553.19087</ele>
        <time>2026-07-27T10:35:17.000Z</time>
      </trkpt>
      <trkpt lat="44.48526" lon="6.45419">
        <ele>1553.056155</ele>
        <time>2026-07-27T10:35:18.000Z</time>
      </trkpt>
      <trkpt lat="44.48528" lon="6.4542">
        <ele>1552.909325</ele>
        <time>2026-07-27T10:35:20.000Z</time>
      </trkpt>
      <trkpt lat="44.48528" lon="6.4542">
        <ele>1552.909325</ele>
        <time>2026-07-27T10:35:20.000Z</time>
      </trkpt>
      <trkpt lat="44.48529" lon="6.45421">
        <ele>1552.769548</ele>
        <time>2026-07-27T10:35:20.000Z</time>
      </trkpt>
      <trkpt lat="44.48531" lon="6.45419">
        <ele>1552.634303</ele>
        <time>2026-07-27T10:35:22.000Z</time>
      </trkpt>
      <trkpt lat="44.48531" lon="6.45419">
        <ele>1552.634303</ele>
        <time>2026-07-27T10:35:22.000Z</time>
      </trkpt>
      <trkpt lat="44.48542" lon="6.45419">
        <ele>1551.831032</ele>
        <time>2026-07-27T10:35:23.000Z</time>
      </trkpt>
      <trkpt lat="44.48543" lon="6.45419">
        <ele>1551.746335</ele>
        <time>2026-07-27T10:35:24.000Z</time>
      </trkpt>
      <trkpt lat="44.48543" lon="6.45419">
        <ele>1551.746335</ele>
        <time>2026-07-27T10:35:24.000Z</time>
      </trkpt>
      <trkpt lat="44.48546" lon="6.4542">
        <ele>1551.559798</ele>
        <time>2026-07-27T10:35:25.000Z</time>
      </trkpt>
      <trkpt lat="44.48549" lon="6.4542">
        <ele>1551.309084</ele>
        <time>2026-07-27T10:35:26.000Z</time>
      </trkpt>
      <trkpt lat="44.48549" lon="6.4542">
        <ele>1551.309084</ele>
        <time>2026-07-27T10:35:26.000Z</time>
      </trkpt>
      <trkpt lat="44.4855" lon="6.45419">
        <ele>1551.193721</ele>
        <time>2026-07-27T10:35:27.000Z</time>
      </trkpt>
      <trkpt lat="44.48562" lon="6.45417">
        <ele>1550.379485</ele>
        <time>2026-07-27T10:35:28.000Z</time>
      </trkpt>
      <trkpt lat="44.48562" lon="6.45417">
        <ele>1550.379485</ele>
        <time>2026-07-27T10:35:28.000Z</time>
      </trkpt>
      <trkpt lat="44.48569" lon="6.45416">
        <ele>1549.868622</ele>
        <time>2026-07-27T10:35:29.000Z</time>
      </trkpt>
      <trkpt lat="44.48576" lon="6.45414">
        <ele>1549.34879</ele>
        <time>2026-07-27T10:35:30.000Z</time>
      </trkpt>
      <trkpt lat="44.48583" lon="6.45414">
        <ele>1548.916629</ele>
        <time>2026-07-27T10:35:31.000Z</time>
      </trkpt>
      <trkpt lat="44.48583" lon="6.45414">
        <ele>1548.916629</ele>
        <time>2026-07-27T10:35:31.000Z</time>
      </trkpt>
      <trkpt lat="44.48587" lon="6.45413">
        <ele>1548.571244</ele>
        <time>2026-07-27T10:35:32.000Z</time>
      </trkpt>
      <trkpt lat="44.48592" lon="6.45413">
        <ele>1548.217671</ele>
        <time>2026-07-27T10:35:33.000Z</time>
      </trkpt>
      <trkpt lat="44.48592" lon="6.45413">
        <ele>1548.217671</ele>
        <time>2026-07-27T10:35:33.000Z</time>
      </trkpt>
      <trkpt lat="44.48597" lon="6.45412">
        <ele>1547.891085</ele>
        <time>2026-07-27T10:35:34.000Z</time>
      </trkpt>
      <trkpt lat="44.48602" lon="6.4541">
        <ele>1547.510127</ele>
        <time>2026-07-27T10:35:35.000Z</time>
      </trkpt>
      <trkpt lat="44.48602" lon="6.4541">
        <ele>1547.510127</ele>
        <time>2026-07-27T10:35:35.000Z</time>
      </trkpt>
      <trkpt lat="44.48608" lon="6.45409">
        <ele>1547.128144</ele>
        <time>2026-07-27T10:35:36.000Z</time>
      </trkpt>
      <trkpt lat="44.48608" lon="6.45409">
        <ele>1547.128144</ele>
        <time>2026-07-27T10:35:36.000Z</time>
      </trkpt>
      <trkpt lat="44.48613" lon="6.45407">
        <ele>1546.737066</ele>
        <time>2026-07-27T10:35:37.000Z</time>
      </trkpt>
      <trkpt lat="44.48613" lon="6.45407">
        <ele>1546.737066</ele>
        <time>2026-07-27T10:35:37.000Z</time>
      </trkpt>
      <trkpt lat="44.48618" lon="6.45405">
        <ele>1546.382584</ele>
        <time>2026-07-27T10:35:38.000Z</time>
      </trkpt>
      <trkpt lat="44.48624" lon="6.45403">
        <ele>1545.941196</ele>
        <time>2026-07-27T10:35:39.000Z</time>
      </trkpt>
      <trkpt lat="44.48624" lon="6.45403">
        <ele>1545.941196</ele>
        <time>2026-07-27T10:35:39.000Z</time>
      </trkpt>
      <trkpt lat="44.4863" lon="6.45401">
        <ele>1545.517848</ele>
        <time>2026-07-27T10:35:40.000Z</time>
      </trkpt>
      <trkpt lat="44.4863" lon="6.45401">
        <ele>1545.517848</ele>
        <time>2026-07-27T10:35:40.000Z</time>
      </trkpt>
      <trkpt lat="44.48635" lon="6.45399">
        <ele>1545.132408</ele>
        <time>2026-07-27T10:35:41.000Z</time>
      </trkpt>
      <trkpt lat="44.48635" lon="6.45399">
        <ele>1545.132408</ele>
        <time>2026-07-27T10:35:41.000Z</time>
      </trkpt>
      <trkpt lat="44.48639" lon="6.45397">
        <ele>1544.840778</ele>
        <time>2026-07-27T10:35:42.000Z</time>
      </trkpt>
      <trkpt lat="44.48639" lon="6.45397">
        <ele>1544.840778</ele>
        <time>2026-07-27T10:35:42.000Z</time>
      </trkpt>
      <trkpt lat="44.48643" lon="6.45394">
        <ele>1544.412977</ele>
        <time>2026-07-27T10:35:43.000Z</time>
      </trkpt>
      <trkpt lat="44.48643" lon="6.45394">
        <ele>1544.412977</ele>
        <time>2026-07-27T10:35:43.000Z</time>
      </trkpt>
      <trkpt lat="44.48645" lon="6.45391">
        <ele>1544.044158</ele>
        <time>2026-07-27T10:35:43.000Z</time>
      </trkpt>
      <trkpt lat="44.48645" lon="6.45391">
        <ele>1544.044158</ele>
        <time>2026-07-27T10:35:43.000Z</time>
      </trkpt>
      <trkpt lat="44.48648" lon="6.4539">
        <ele>1543.737824</ele>
        <time>2026-07-27T10:35:44.000Z</time>
      </trkpt>
      <trkpt lat="44.48648" lon="6.4539">
        <ele>1543.737824</ele>
        <time>2026-07-27T10:35:44.000Z</time>
      </trkpt>
      <trkpt lat="44.4865" lon="6.45388">
        <ele>1543.352398</ele>
        <time>2026-07-27T10:35:45.000Z</time>
      </trkpt>
      <trkpt lat="44.4865" lon="6.45388">
        <ele>1543.352398</ele>
        <time>2026-07-27T10:35:45.000Z</time>
      </trkpt>
      <trkpt lat="44.48654" lon="6.45385">
        <ele>1542.860176</ele>
        <time>2026-07-27T10:35:46.000Z</time>
      </trkpt>
      <trkpt lat="44.48654" lon="6.45385">
        <ele>1542.860176</ele>
        <time>2026-07-27T10:35:46.000Z</time>
      </trkpt>
      <trkpt lat="44.48657" lon="6.45383">
        <ele>1542.42453</ele>
        <time>2026-07-27T10:35:47.000Z</time>
      </trkpt>
      <trkpt lat="44.48657" lon="6.45383">
        <ele>1542.42453</ele>
        <time>2026-07-27T10:35:47.000Z</time>
      </trkpt>
      <trkpt lat="44.4866" lon="6.4538">
        <ele>1542.034706</ele>
        <time>2026-07-27T10:35:48.000Z</time>
      </trkpt>
      <trkpt lat="44.4866" lon="6.4538">
        <ele>1542.034706</ele>
        <time>2026-07-27T10:35:48.000Z</time>
      </trkpt>
      <trkpt lat="44.48663" lon="6.45378">
        <ele>1541.600989</ele>
        <time>2026-07-27T10:35:49.000Z</time>
      </trkpt>
      <trkpt lat="44.48663" lon="6.45378">
        <ele>1541.600989</ele>
        <time>2026-07-27T10:35:49.000Z</time>
      </trkpt>
      <trkpt lat="44.48665" lon="6.45376">
        <ele>1541.239025</ele>
        <time>2026-07-27T10:35:50.000Z</time>
      </trkpt>
      <trkpt lat="44.48665" lon="6.45376">
        <ele>1541.239025</ele>
        <time>2026-07-27T10:35:50.000Z</time>
      </trkpt>
      <trkpt lat="44.48668" lon="6.45377">
        <ele>1540.851974</ele>
        <time>2026-07-27T10:35:51.000Z</time>
      </trkpt>
      <trkpt lat="44.48668" lon="6.45377">
        <ele>1540.851974</ele>
        <time>2026-07-27T10:35:51.000Z</time>
      </trkpt>
      <trkpt lat="44.48669" lon="6.45376">
        <ele>1540.70464</ele>
        <time>2026-07-27T10:35:52.000Z</time>
      </trkpt>
      <trkpt lat="44.48671" lon="6.45377">
        <ele>1540.464373</ele>
        <time>2026-07-27T10:35:54.000Z</time>
      </trkpt>
      <trkpt lat="44.48671" lon="6.45377">
        <ele>1540.464373</ele>
        <time>2026-07-27T10:35:54.000Z</time>
      </trkpt>
      <trkpt lat="44.48672" lon="6.45379">
        <ele>1540.290385</ele>
        <time>2026-07-27T10:35:55.000Z</time>
      </trkpt>
      <trkpt lat="44.48672" lon="6.45379">
        <ele>1540.290385</ele>
        <time>2026-07-27T10:35:55.000Z</time>
      </trkpt>
      <trkpt lat="44.48673" lon="6.45382">
        <ele>1539.98207</ele>
        <time>2026-07-27T10:35:56.000Z</time>
      </trkpt>
      <trkpt lat="44.48673" lon="6.45382">
        <ele>1539.98207</ele>
        <time>2026-07-27T10:35:56.000Z</time>
      </trkpt>
      <trkpt lat="44.48674" lon="6.45386">
        <ele>1539.595658</ele>
        <time>2026-07-27T10:35:57.000Z</time>
      </trkpt>
      <trkpt lat="44.48674" lon="6.45386">
        <ele>1539.595658</ele>
        <time>2026-07-27T10:35:57.000Z</time>
      </trkpt>
      <trkpt lat="44.48675" lon="6.45391">
        <ele>1539.139349</ele>
        <time>2026-07-27T10:35:58.000Z</time>
      </trkpt>
      <trkpt lat="44.48675" lon="6.45391">
        <ele>1539.139349</ele>
        <time>2026-07-27T10:35:58.000Z</time>
      </trkpt>
      <trkpt lat="44.48676" lon="6.45396">
        <ele>1538.622114</ele>
        <time>2026-07-27T10:35:59.000Z</time>
      </trkpt>
      <trkpt lat="44.48676" lon="6.45396">
        <ele>1538.622114</ele>
        <time>2026-07-27T10:35:59.000Z</time>
      </trkpt>
      <trkpt lat="44.48677" lon="6.454">
        <ele>1538.232045</ele>
        <time>2026-07-27T10:36:00.000Z</time>
      </trkpt>
      <trkpt lat="44.48677" lon="6.454">
        <ele>1538.232045</ele>
        <time>2026-07-27T10:36:00.000Z</time>
      </trkpt>
      <trkpt lat="44.48678" lon="6.45405">
        <ele>1537.819067</ele>
        <time>2026-07-27T10:36:01.000Z</time>
      </trkpt>
      <trkpt lat="44.48678" lon="6.45405">
        <ele>1537.819067</ele>
        <time>2026-07-27T10:36:01.000Z</time>
      </trkpt>
      <trkpt lat="44.48677" lon="6.45405">
        <ele>1537.715697</ele>
        <time>2026-07-27T10:36:02.000Z</time>
      </trkpt>
      <trkpt lat="44.48678" lon="6.45428">
        <ele>1535.72738</ele>
        <time>2026-07-27T10:36:03.000Z</time>
      </trkpt>
      <trkpt lat="44.48678" lon="6.45428">
        <ele>1535.72738</ele>
        <time>2026-07-27T10:36:03.000Z</time>
      </trkpt>
      <trkpt lat="44.48677" lon="6.45435">
        <ele>1535.034464</ele>
        <time>2026-07-27T10:36:04.000Z</time>
      </trkpt>
      <trkpt lat="44.48677" lon="6.45435">
        <ele>1535.034464</ele>
        <time>2026-07-27T10:36:04.000Z</time>
      </trkpt>
      <trkpt lat="44.48674" lon="6.45442">
        <ele>1534.323888</ele>
        <time>2026-07-27T10:36:05.000Z</time>
      </trkpt>
      <trkpt lat="44.48674" lon="6.45442">
        <ele>1534.323888</ele>
        <time>2026-07-27T10:36:05.000Z</time>
      </trkpt>
      <trkpt lat="44.48671" lon="6.45449">
        <ele>1533.554995</ele>
        <time>2026-07-27T10:36:06.000Z</time>
      </trkpt>
      <trkpt lat="44.48671" lon="6.45449">
        <ele>1533.554995</ele>
        <time>2026-07-27T10:36:06.000Z</time>
      </trkpt>
      <trkpt lat="44.48668" lon="6.45453">
        <ele>1533.004312</ele>
        <time>2026-07-27T10:36:07.000Z</time>
      </trkpt>
      <trkpt lat="44.48668" lon="6.45453">
        <ele>1533.004312</ele>
        <time>2026-07-27T10:36:07.000Z</time>
      </trkpt>
      <trkpt lat="44.48661" lon="6.45461">
        <ele>1531.94203</ele>
        <time>2026-07-27T10:36:08.000Z</time>
      </trkpt>
      <trkpt lat="44.48661" lon="6.45461">
        <ele>1531.94203</ele>
        <time>2026-07-27T10:36:08.000Z</time>
      </trkpt>
      <trkpt lat="44.48656" lon="6.45466">
        <ele>1531.205901</ele>
        <time>2026-07-27T10:36:09.000Z</time>
      </trkpt>
      <trkpt lat="44.48656" lon="6.45466">
        <ele>1531.205901</ele>
        <time>2026-07-27T10:36:09.000Z</time>
      </trkpt>
      <trkpt lat="44.48652" lon="6.45469">
        <ele>1530.543899</ele>
        <time>2026-07-27T10:36:10.000Z</time>
      </trkpt>
      <trkpt lat="44.48652" lon="6.45469">
        <ele>1530.543899</ele>
        <time>2026-07-27T10:36:10.000Z</time>
      </trkpt>
      <trkpt lat="44.48648" lon="6.45472">
        <ele>1530.051678</ele>
        <time>2026-07-27T10:36:11.000Z</time>
      </trkpt>
      <trkpt lat="44.48648" lon="6.45472">
        <ele>1530.051678</ele>
        <time>2026-07-27T10:36:11.000Z</time>
      </trkpt>
      <trkpt lat="44.48644" lon="6.45475">
        <ele>1529.425694</ele>
        <time>2026-07-27T10:36:12.000Z</time>
      </trkpt>
      <trkpt lat="44.48644" lon="6.45475">
        <ele>1529.425694</ele>
        <time>2026-07-27T10:36:12.000Z</time>
      </trkpt>
      <trkpt lat="44.4864" lon="6.45477">
        <ele>1528.946451</ele>
        <time>2026-07-27T10:36:13.000Z</time>
      </trkpt>
      <trkpt lat="44.4864" lon="6.45477">
        <ele>1528.946451</ele>
        <time>2026-07-27T10:36:13.000Z</time>
      </trkpt>
      <trkpt lat="44.48637" lon="6.4548">
        <ele>1528.460098</ele>
        <time>2026-07-27T10:36:14.000Z</time>
      </trkpt>
      <trkpt lat="44.48637" lon="6.4548">
        <ele>1528.460098</ele>
        <time>2026-07-27T10:36:14.000Z</time>
      </trkpt>
      <trkpt lat="44.48633" lon="6.45482">
        <ele>1528.003219</ele>
        <time>2026-07-27T10:36:15.000Z</time>
      </trkpt>
      <trkpt lat="44.48633" lon="6.45482">
        <ele>1528.003219</ele>
        <time>2026-07-27T10:36:15.000Z</time>
      </trkpt>
      <trkpt lat="44.4863" lon="6.45484">
        <ele>1527.57725</ele>
        <time>2026-07-27T10:36:16.000Z</time>
      </trkpt>
      <trkpt lat="44.4863" lon="6.45484">
        <ele>1527.57725</ele>
        <time>2026-07-27T10:36:16.000Z</time>
      </trkpt>
      <trkpt lat="44.48626" lon="6.45486">
        <ele>1527.007685</ele>
        <time>2026-07-27T10:36:16.000Z</time>
      </trkpt>
      <trkpt lat="44.48626" lon="6.45486">
        <ele>1527.007685</ele>
        <time>2026-07-27T10:36:16.000Z</time>
      </trkpt>
      <trkpt lat="44.48623" lon="6.45489">
        <ele>1526.528442</ele>
        <time>2026-07-27T10:36:18.000Z</time>
      </trkpt>
      <trkpt lat="44.48623" lon="6.45489">
        <ele>1526.528442</ele>
        <time>2026-07-27T10:36:18.000Z</time>
      </trkpt>
      <trkpt lat="44.48618" lon="6.45491">
        <ele>1525.947914</ele>
        <time>2026-07-27T10:36:19.000Z</time>
      </trkpt>
      <trkpt lat="44.48618" lon="6.45491">
        <ele>1525.947914</ele>
        <time>2026-07-27T10:36:19.000Z</time>
      </trkpt>
      <trkpt lat="44.48614" lon="6.45494">
        <ele>1525.367386</ele>
        <time>2026-07-27T10:36:20.000Z</time>
      </trkpt>
      <trkpt lat="44.48614" lon="6.45494">
        <ele>1525.367386</ele>
        <time>2026-07-27T10:36:20.000Z</time>
      </trkpt>
      <trkpt lat="44.4861" lon="6.45497">
        <ele>1524.730289</ele>
        <time>2026-07-27T10:36:21.000Z</time>
      </trkpt>
      <trkpt lat="44.4861" lon="6.45497">
        <ele>1524.730289</ele>
        <time>2026-07-27T10:36:21.000Z</time>
      </trkpt>
      <trkpt lat="44.48607" lon="6.455">
        <ele>1524.299125</ele>
        <time>2026-07-27T10:36:21.000Z</time>
      </trkpt>
      <trkpt lat="44.48607" lon="6.455">
        <ele>1524.299125</ele>
        <time>2026-07-27T10:36:21.000Z</time>
      </trkpt>
      <trkpt lat="44.48603" lon="6.45502">
        <ele>1523.865407</ele>
        <time>2026-07-27T10:36:23.000Z</time>
      </trkpt>
      <trkpt lat="44.48603" lon="6.45502">
        <ele>1523.865407</ele>
        <time>2026-07-27T10:36:23.000Z</time>
      </trkpt>
      <trkpt lat="44.486" lon="6.45504">
        <ele>1523.352216</ele>
        <time>2026-07-27T10:36:24.000Z</time>
      </trkpt>
      <trkpt lat="44.486" lon="6.45504">
        <ele>1523.352216</ele>
        <time>2026-07-27T10:36:24.000Z</time>
      </trkpt>
      <trkpt lat="44.48596" lon="6.45506">
        <ele>1522.884784</ele>
        <time>2026-07-27T10:36:25.000Z</time>
      </trkpt>
      <trkpt lat="44.48596" lon="6.45506">
        <ele>1522.884784</ele>
        <time>2026-07-27T10:36:25.000Z</time>
      </trkpt>
      <trkpt lat="44.48594" lon="6.45508">
        <ele>1522.499356</ele>
        <time>2026-07-27T10:36:26.000Z</time>
      </trkpt>
      <trkpt lat="44.48594" lon="6.45508">
        <ele>1522.499356</ele>
        <time>2026-07-27T10:36:26.000Z</time>
      </trkpt>
      <trkpt lat="44.48591" lon="6.45512">
        <ele>1521.968178</ele>
        <time>2026-07-27T10:36:27.000Z</time>
      </trkpt>
      <trkpt lat="44.48591" lon="6.45512">
        <ele>1521.968178</ele>
        <time>2026-07-27T10:36:27.000Z</time>
      </trkpt>
      <trkpt lat="44.48587" lon="6.45515">
        <ele>1521.31764</ele>
        <time>2026-07-27T10:36:28.000Z</time>
      </trkpt>
      <trkpt lat="44.48587" lon="6.45515">
        <ele>1521.31764</ele>
        <time>2026-07-27T10:36:28.000Z</time>
      </trkpt>
      <trkpt lat="44.48584" lon="6.45517">
        <ele>1520.856097</ele>
        <time>2026-07-27T10:36:29.000Z</time>
      </trkpt>
      <trkpt lat="44.48584" lon="6.45517">
        <ele>1520.856097</ele>
        <time>2026-07-27T10:36:29.000Z</time>
      </trkpt>
      <trkpt lat="44.48582" lon="6.4552">
        <ele>1520.414973</ele>
        <time>2026-07-27T10:36:30.000Z</time>
      </trkpt>
      <trkpt lat="44.48582" lon="6.4552">
        <ele>1520.414973</ele>
        <time>2026-07-27T10:36:30.000Z</time>
      </trkpt>
      <trkpt lat="44.48579" lon="6.45523">
        <ele>1519.772098</ele>
        <time>2026-07-27T10:36:31.000Z</time>
      </trkpt>
      <trkpt lat="44.48579" lon="6.45523">
        <ele>1519.772098</ele>
        <time>2026-07-27T10:36:31.000Z</time>
      </trkpt>
      <trkpt lat="44.48576" lon="6.45526">
        <ele>1519.314936</ele>
        <time>2026-07-27T10:36:32.000Z</time>
      </trkpt>
      <trkpt lat="44.48576" lon="6.45526">
        <ele>1519.314936</ele>
        <time>2026-07-27T10:36:32.000Z</time>
      </trkpt>
      <trkpt lat="44.48573" lon="6.45531">
        <ele>1518.57956</ele>
        <time>2026-07-27T10:36:33.000Z</time>
      </trkpt>
      <trkpt lat="44.48573" lon="6.45531">
        <ele>1518.57956</ele>
        <time>2026-07-27T10:36:33.000Z</time>
      </trkpt>
      <trkpt lat="44.48571" lon="6.45535">
        <ele>1518.061228</ele>
        <time>2026-07-27T10:36:34.000Z</time>
      </trkpt>
      <trkpt lat="44.48571" lon="6.45535">
        <ele>1518.061228</ele>
        <time>2026-07-27T10:36:34.000Z</time>
      </trkpt>
      <trkpt lat="44.48571" lon="6.45535">
        <ele>1518.061228</ele>
        <time>2026-07-27T10:36:35.000Z</time>
      </trkpt>
      <trkpt lat="44.48567" lon="6.45542">
        <ele>1517.006095</ele>
        <time>2026-07-27T10:36:36.000Z</time>
      </trkpt>
      <trkpt lat="44.48567" lon="6.45542">
        <ele>1517.006095</ele>
        <time>2026-07-27T10:36:36.000Z</time>
      </trkpt>
      <trkpt lat="44.48566" lon="6.45545">
        <ele>1516.675048</ele>
        <time>2026-07-27T10:36:37.000Z</time>
      </trkpt>
      <trkpt lat="44.48566" lon="6.45545">
        <ele>1516.675048</ele>
        <time>2026-07-27T10:36:37.000Z</time>
      </trkpt>
      <trkpt lat="44.4857" lon="6.45546">
        <ele>1516.193606</ele>
        <time>2026-07-27T10:36:38.000Z</time>
      </trkpt>
      <trkpt lat="44.4857" lon="6.45546">
        <ele>1516.193606</ele>
        <time>2026-07-27T10:36:38.000Z</time>
      </trkpt>
      <trkpt lat="44.48571" lon="6.45546">
        <ele>1516.024022</ele>
        <time>2026-07-27T10:36:39.000Z</time>
      </trkpt>
      <trkpt lat="44.48571" lon="6.45546">
        <ele>1516.024022</ele>
        <time>2026-07-27T10:36:39.000Z</time>
      </trkpt>
      <trkpt lat="44.48572" lon="6.45546">
        <ele>1515.773987</ele>
        <time>2026-07-27T10:36:40.000Z</time>
      </trkpt>
      <trkpt lat="44.48572" lon="6.45546">
        <ele>1515.773987</ele>
        <time>2026-07-27T10:36:40.000Z</time>
      </trkpt>
      <trkpt lat="44.48573" lon="6.45546">
        <ele>1515.604758</ele>
        <time>2026-07-27T10:36:41.000Z</time>
      </trkpt>
      <trkpt lat="44.48573" lon="6.45546">
        <ele>1515.604758</ele>
        <time>2026-07-27T10:36:41.000Z</time>
      </trkpt>
      <trkpt lat="44.48575" lon="6.45546">
        <ele>1515.371655</ele>
        <time>2026-07-27T10:36:42.000Z</time>
      </trkpt>
      <trkpt lat="44.48575" lon="6.45546">
        <ele>1515.371655</ele>
        <time>2026-07-27T10:36:42.000Z</time>
      </trkpt>
      <trkpt lat="44.48576" lon="6.45546">
        <ele>1515.12526</ele>
        <time>2026-07-27T10:36:43.000Z</time>
      </trkpt>
      <trkpt lat="44.48576" lon="6.45546">
        <ele>1515.12526</ele>
        <time>2026-07-27T10:36:43.000Z</time>
      </trkpt>
      <trkpt lat="44.48578" lon="6.45545">
        <ele>1514.82563</ele>
        <time>2026-07-27T10:36:44.000Z</time>
      </trkpt>
      <trkpt lat="44.48578" lon="6.45545">
        <ele>1514.82563</ele>
        <time>2026-07-27T10:36:44.000Z</time>
      </trkpt>
      <trkpt lat="44.48582" lon="6.45545">
        <ele>1514.240919</ele>
        <time>2026-07-27T10:36:45.000Z</time>
      </trkpt>
      <trkpt lat="44.48582" lon="6.45545">
        <ele>1514.240919</ele>
        <time>2026-07-27T10:36:45.000Z</time>
      </trkpt>
      <trkpt lat="44.48584" lon="6.45546">
        <ele>1513.935712</ele>
        <time>2026-07-27T10:36:46.000Z</time>
      </trkpt>
      <trkpt lat="44.48584" lon="6.45546">
        <ele>1513.935712</ele>
        <time>2026-07-27T10:36:46.000Z</time>
      </trkpt>
      <trkpt lat="44.48586" lon="6.45548">
        <ele>1513.658468</ele>
        <time>2026-07-27T10:36:47.000Z</time>
      </trkpt>
      <trkpt lat="44.48586" lon="6.45548">
        <ele>1513.658468</ele>
        <time>2026-07-27T10:36:47.000Z</time>
      </trkpt>
      <trkpt lat="44.48587" lon="6.45549">
        <ele>1513.379956</ele>
        <time>2026-07-27T10:36:48.000Z</time>
      </trkpt>
      <trkpt lat="44.48587" lon="6.45549">
        <ele>1513.379956</ele>
        <time>2026-07-27T10:36:48.000Z</time>
      </trkpt>
      <trkpt lat="44.48587" lon="6.45553">
        <ele>1513.036596</ele>
        <time>2026-07-27T10:36:49.000Z</time>
      </trkpt>
      <trkpt lat="44.48587" lon="6.45553">
        <ele>1513.036596</ele>
        <time>2026-07-27T10:36:49.000Z</time>
      </trkpt>
      <trkpt lat="44.48587" lon="6.45556">
        <ele>1512.606067</ele>
        <time>2026-07-27T10:36:50.000Z</time>
      </trkpt>
      <trkpt lat="44.48587" lon="6.45556">
        <ele>1512.606067</ele>
        <time>2026-07-27T10:36:50.000Z</time>
      </trkpt>
      <trkpt lat="44.48586" lon="6.4556">
        <ele>1512.159976</ele>
        <time>2026-07-27T10:36:51.000Z</time>
      </trkpt>
      <trkpt lat="44.48586" lon="6.4556">
        <ele>1512.159976</ele>
        <time>2026-07-27T10:36:51.000Z</time>
      </trkpt>
      <trkpt lat="44.48584" lon="6.45564">
        <ele>1511.750227</ele>
        <time>2026-07-27T10:36:52.000Z</time>
      </trkpt>
      <trkpt lat="44.48584" lon="6.45564">
        <ele>1511.750227</ele>
        <time>2026-07-27T10:36:52.000Z</time>
      </trkpt>
      <trkpt lat="44.48583" lon="6.45567">
        <ele>1511.275353</ele>
        <time>2026-07-27T10:36:53.000Z</time>
      </trkpt>
      <trkpt lat="44.48583" lon="6.45567">
        <ele>1511.275353</ele>
        <time>2026-07-27T10:36:53.000Z</time>
      </trkpt>
      <trkpt lat="44.48581" lon="6.45571">
        <ele>1510.779374</ele>
        <time>2026-07-27T10:36:54.000Z</time>
      </trkpt>
      <trkpt lat="44.48581" lon="6.45571">
        <ele>1510.779374</ele>
        <time>2026-07-27T10:36:54.000Z</time>
      </trkpt>
      <trkpt lat="44.48579" lon="6.45576">
        <ele>1510.117157</ele>
        <time>2026-07-27T10:36:55.000Z</time>
      </trkpt>
      <trkpt lat="44.48579" lon="6.45576">
        <ele>1510.117157</ele>
        <time>2026-07-27T10:36:55.000Z</time>
      </trkpt>
      <trkpt lat="44.48578" lon="6.45581">
        <ele>1509.633075</ele>
        <time>2026-07-27T10:36:56.000Z</time>
      </trkpt>
      <trkpt lat="44.48578" lon="6.45581">
        <ele>1509.633075</ele>
        <time>2026-07-27T10:36:56.000Z</time>
      </trkpt>
      <trkpt lat="44.4858" lon="6.45582">
        <ele>1509.336314</ele>
        <time>2026-07-27T10:36:57.000Z</time>
      </trkpt>
      <trkpt lat="44.4858" lon="6.45582">
        <ele>1509.336314</ele>
        <time>2026-07-27T10:36:57.000Z</time>
      </trkpt>
      <trkpt lat="44.48576" lon="6.45585">
        <ele>1508.665356</ele>
        <time>2026-07-27T10:36:58.000Z</time>
      </trkpt>
      <trkpt lat="44.48576" lon="6.45585">
        <ele>1508.665356</ele>
        <time>2026-07-27T10:36:58.000Z</time>
      </trkpt>
      <trkpt lat="44.48576" lon="6.45589">
        <ele>1508.232906</ele>
        <time>2026-07-27T10:36:59.000Z</time>
      </trkpt>
      <trkpt lat="44.48576" lon="6.45589">
        <ele>1508.232906</ele>
        <time>2026-07-27T10:36:59.000Z</time>
      </trkpt>
      <trkpt lat="44.48578" lon="6.45593">
        <ele>1507.705475</ele>
        <time>2026-07-27T10:37:00.000Z</time>
      </trkpt>
      <trkpt lat="44.48578" lon="6.45593">
        <ele>1507.705475</ele>
        <time>2026-07-27T10:37:00.000Z</time>
      </trkpt>
      <trkpt lat="44.48581" lon="6.45594">
        <ele>1507.242769</ele>
        <time>2026-07-27T10:37:01.000Z</time>
      </trkpt>
      <trkpt lat="44.48581" lon="6.45594">
        <ele>1507.242769</ele>
        <time>2026-07-27T10:37:01.000Z</time>
      </trkpt>
      <trkpt lat="44.48584" lon="6.45594">
        <ele>1506.761327</ele>
        <time>2026-07-27T10:37:01.000Z</time>
      </trkpt>
      <trkpt lat="44.48584" lon="6.45594">
        <ele>1506.761327</ele>
        <time>2026-07-27T10:37:01.000Z</time>
      </trkpt>
      <trkpt lat="44.48589" lon="6.45594">
        <ele>1506.068246</ele>
        <time>2026-07-27T10:37:03.000Z</time>
      </trkpt>
      <trkpt lat="44.48589" lon="6.45594">
        <ele>1506.068246</ele>
        <time>2026-07-27T10:37:03.000Z</time>
      </trkpt>
      <trkpt lat="44.48593" lon="6.45596">
        <ele>1505.410918</ele>
        <time>2026-07-27T10:37:04.000Z</time>
      </trkpt>
      <trkpt lat="44.48593" lon="6.45596">
        <ele>1505.410918</ele>
        <time>2026-07-27T10:37:04.000Z</time>
      </trkpt>
      <trkpt lat="44.48596" lon="6.45598">
        <ele>1504.855146</ele>
        <time>2026-07-27T10:37:05.000Z</time>
      </trkpt>
      <trkpt lat="44.48596" lon="6.45598">
        <ele>1504.855146</ele>
        <time>2026-07-27T10:37:05.000Z</time>
      </trkpt>
      <trkpt lat="44.48599" lon="6.45602">
        <ele>1504.281857</ele>
        <time>2026-07-27T10:37:06.000Z</time>
      </trkpt>
      <trkpt lat="44.48599" lon="6.45602">
        <ele>1504.281857</ele>
        <time>2026-07-27T10:37:06.000Z</time>
      </trkpt>
      <trkpt lat="44.486" lon="6.45605">
        <ele>1503.814773</ele>
        <time>2026-07-27T10:37:07.000Z</time>
      </trkpt>
      <trkpt lat="44.486" lon="6.45605">
        <ele>1503.814773</ele>
        <time>2026-07-27T10:37:07.000Z</time>
      </trkpt>
      <trkpt lat="44.486" lon="6.45609">
        <ele>1503.441604</ele>
        <time>2026-07-27T10:37:08.000Z</time>
      </trkpt>
      <trkpt lat="44.486" lon="6.45609">
        <ele>1503.441604</ele>
        <time>2026-07-27T10:37:08.000Z</time>
      </trkpt>
      <trkpt lat="44.48599" lon="6.45611">
        <ele>1503.101728</ele>
        <time>2026-07-27T10:37:09.000Z</time>
      </trkpt>
      <trkpt lat="44.48599" lon="6.45611">
        <ele>1503.101728</ele>
        <time>2026-07-27T10:37:09.000Z</time>
      </trkpt>
      <trkpt lat="44.48598" lon="6.45613">
        <ele>1502.85785</ele>
        <time>2026-07-27T10:37:10.000Z</time>
      </trkpt>
      <trkpt lat="44.48597" lon="6.45615">
        <ele>1502.580679</ele>
        <time>2026-07-27T10:37:11.000Z</time>
      </trkpt>
      <trkpt lat="44.48595" lon="6.45617">
        <ele>1502.265052</ele>
        <time>2026-07-27T10:37:12.000Z</time>
      </trkpt>
      <trkpt lat="44.48595" lon="6.45617">
        <ele>1502.265052</ele>
        <time>2026-07-27T10:37:12.000Z</time>
      </trkpt>
      <trkpt lat="44.48593" lon="6.45619">
        <ele>1501.848652</ele>
        <time>2026-07-27T10:37:13.000Z</time>
      </trkpt>
      <trkpt lat="44.48593" lon="6.45619">
        <ele>1501.848652</ele>
        <time>2026-07-27T10:37:13.000Z</time>
      </trkpt>
      <trkpt lat="44.48591" lon="6.45621">
        <ele>1501.489585</ele>
        <time>2026-07-27T10:37:14.000Z</time>
      </trkpt>
      <trkpt lat="44.48591" lon="6.45621">
        <ele>1501.489585</ele>
        <time>2026-07-27T10:37:14.000Z</time>
      </trkpt>
      <trkpt lat="44.48588" lon="6.45624">
        <ele>1500.909614</ele>
        <time>2026-07-27T10:37:14.000Z</time>
      </trkpt>
      <trkpt lat="44.48588" lon="6.45624">
        <ele>1500.909614</ele>
        <time>2026-07-27T10:37:14.000Z</time>
      </trkpt>
      <trkpt lat="44.48585" lon="6.45627">
        <ele>1500.300215</ele>
        <time>2026-07-27T10:37:16.000Z</time>
      </trkpt>
      <trkpt lat="44.48585" lon="6.45627">
        <ele>1500.300215</ele>
        <time>2026-07-27T10:37:16.000Z</time>
      </trkpt>
      <trkpt lat="44.48582" lon="6.4563">
        <ele>1499.726823</ele>
        <time>2026-07-27T10:37:17.000Z</time>
      </trkpt>
      <trkpt lat="44.48582" lon="6.4563">
        <ele>1499.726823</ele>
        <time>2026-07-27T10:37:17.000Z</time>
      </trkpt>
      <trkpt lat="44.48579" lon="6.45633">
        <ele>1499.168436</ele>
        <time>2026-07-27T10:37:18.000Z</time>
      </trkpt>
      <trkpt lat="44.48579" lon="6.45633">
        <ele>1499.168436</ele>
        <time>2026-07-27T10:37:18.000Z</time>
      </trkpt>
      <trkpt lat="44.48577" lon="6.45637">
        <ele>1498.595982</ele>
        <time>2026-07-27T10:37:19.000Z</time>
      </trkpt>
      <trkpt lat="44.48577" lon="6.45637">
        <ele>1498.595982</ele>
        <time>2026-07-27T10:37:19.000Z</time>
      </trkpt>
      <trkpt lat="44.48574" lon="6.45637">
        <ele>1498.134449</ele>
        <time>2026-07-27T10:37:20.000Z</time>
      </trkpt>
      <trkpt lat="44.48574" lon="6.45637">
        <ele>1498.134449</ele>
        <time>2026-07-27T10:37:20.000Z</time>
      </trkpt>
      <trkpt lat="44.48563" lon="6.45645">
        <ele>1496.229096</ele>
        <time>2026-07-27T10:37:21.000Z</time>
      </trkpt>
      <trkpt lat="44.48563" lon="6.45645">
        <ele>1496.229096</ele>
        <time>2026-07-27T10:37:21.000Z</time>
      </trkpt>
      <trkpt lat="44.48558" lon="6.45648">
        <ele>1495.48836</ele>
        <time>2026-07-27T10:37:22.000Z</time>
      </trkpt>
      <trkpt lat="44.48558" lon="6.45648">
        <ele>1495.48836</ele>
        <time>2026-07-27T10:37:22.000Z</time>
      </trkpt>
      <trkpt lat="44.48554" lon="6.45653">
        <ele>1494.626245</ele>
        <time>2026-07-27T10:37:23.000Z</time>
      </trkpt>
      <trkpt lat="44.48554" lon="6.45653">
        <ele>1494.626245</ele>
        <time>2026-07-27T10:37:23.000Z</time>
      </trkpt>
      <trkpt lat="44.48551" lon="6.45658">
        <ele>1494.253547</ele>
        <time>2026-07-27T10:37:24.000Z</time>
      </trkpt>
      <trkpt lat="44.48551" lon="6.45658">
        <ele>1494.253547</ele>
        <time>2026-07-27T10:37:24.000Z</time>
      </trkpt>
      <trkpt lat="44.48547" lon="6.45665">
        <ele>1493.773813</ele>
        <time>2026-07-27T10:37:25.000Z</time>
      </trkpt>
      <trkpt lat="44.48547" lon="6.45665">
        <ele>1493.773813</ele>
        <time>2026-07-27T10:37:25.000Z</time>
      </trkpt>
      <trkpt lat="44.48544" lon="6.4567">
        <ele>1493.456892</ele>
        <time>2026-07-27T10:37:26.000Z</time>
      </trkpt>
      <trkpt lat="44.48544" lon="6.4567">
        <ele>1493.456892</ele>
        <time>2026-07-27T10:37:26.000Z</time>
      </trkpt>
      <trkpt lat="44.4854" lon="6.45679">
        <ele>1492.940918</ele>
        <time>2026-07-27T10:37:27.000Z</time>
      </trkpt>
      <trkpt lat="44.4854" lon="6.45679">
        <ele>1492.940918</ele>
        <time>2026-07-27T10:37:27.000Z</time>
      </trkpt>
      <trkpt lat="44.48537" lon="6.45686">
        <ele>1492.520513</ele>
        <time>2026-07-27T10:37:28.000Z</time>
      </trkpt>
      <trkpt lat="44.48537" lon="6.45686">
        <ele>1492.520513</ele>
        <time>2026-07-27T10:37:28.000Z</time>
      </trkpt>
      <trkpt lat="44.48535" lon="6.45693">
        <ele>1492.16072</ele>
        <time>2026-07-27T10:37:29.000Z</time>
      </trkpt>
      <trkpt lat="44.48535" lon="6.45693">
        <ele>1492.16072</ele>
        <time>2026-07-27T10:37:29.000Z</time>
      </trkpt>
      <trkpt lat="44.48534" lon="6.45698">
        <ele>1491.900137</ele>
        <time>2026-07-27T10:37:30.000Z</time>
      </trkpt>
      <trkpt lat="44.48534" lon="6.45698">
        <ele>1491.900137</ele>
        <time>2026-07-27T10:37:30.000Z</time>
      </trkpt>
      <trkpt lat="44.48536" lon="6.45704">
        <ele>1491.576472</ele>
        <time>2026-07-27T10:37:31.000Z</time>
      </trkpt>
      <trkpt lat="44.48536" lon="6.45704">
        <ele>1491.576472</ele>
        <time>2026-07-27T10:37:31.000Z</time>
      </trkpt>
      <trkpt lat="44.48538" lon="6.45707">
        <ele>1491.355472</ele>
        <time>2026-07-27T10:37:32.000Z</time>
      </trkpt>
      <trkpt lat="44.48538" lon="6.45707">
        <ele>1491.355472</ele>
        <time>2026-07-27T10:37:32.000Z</time>
      </trkpt>
      <trkpt lat="44.48541" lon="6.45708">
        <ele>1491.132966</ele>
        <time>2026-07-27T10:37:33.000Z</time>
      </trkpt>
      <trkpt lat="44.48541" lon="6.45708">
        <ele>1491.132966</ele>
        <time>2026-07-27T10:37:33.000Z</time>
      </trkpt>
      <trkpt lat="44.48539" lon="6.45706">
        <ele>1490.923835</ele>
        <time>2026-07-27T10:37:34.000Z</time>
      </trkpt>
      <trkpt lat="44.48539" lon="6.45706">
        <ele>1490.923835</ele>
        <time>2026-07-27T10:37:34.000Z</time>
      </trkpt>
      <trkpt lat="44.48539" lon="6.45706">
        <ele>1490.895414</ele>
        <time>2026-07-27T10:37:34.000Z</time>
      </trkpt>
      <trkpt lat="44.4854" lon="6.45707">
        <ele>1490.800898</ele>
        <time>2026-07-27T10:37:35.000Z</time>
      </trkpt>
      <trkpt lat="44.4854" lon="6.45707">
        <ele>1490.800898</ele>
        <time>2026-07-27T10:37:35.000Z</time>
      </trkpt>
      <trkpt lat="44.48542" lon="6.45709">
        <ele>1490.656089</ele>
        <time>2026-07-27T10:37:37.000Z</time>
      </trkpt>
      <trkpt lat="44.48542" lon="6.45709">
        <ele>1490.656089</ele>
        <time>2026-07-27T10:37:37.000Z</time>
      </trkpt>
      <trkpt lat="44.48544" lon="6.4571">
        <ele>1490.454723</ele>
        <time>2026-07-27T10:37:38.000Z</time>
      </trkpt>
      <trkpt lat="44.48544" lon="6.4571">
        <ele>1490.454723</ele>
        <time>2026-07-27T10:37:38.000Z</time>
      </trkpt>
      <trkpt lat="44.48547" lon="6.45711">
        <ele>1490.287692</ele>
        <time>2026-07-27T10:37:39.000Z</time>
      </trkpt>
      <trkpt lat="44.48547" lon="6.45711">
        <ele>1490.287692</ele>
        <time>2026-07-27T10:37:39.000Z</time>
      </trkpt>
      <trkpt lat="44.48549" lon="6.45712">
        <ele>1490.125579</ele>
        <time>2026-07-27T10:37:40.000Z</time>
      </trkpt>
      <trkpt lat="44.48549" lon="6.45712">
        <ele>1490.125579</ele>
        <time>2026-07-27T10:37:40.000Z</time>
      </trkpt>
      <trkpt lat="44.48551" lon="6.45711">
        <ele>1489.962776</ele>
        <time>2026-07-27T10:37:41.000Z</time>
      </trkpt>
      <trkpt lat="44.48554" lon="6.45712">
        <ele>1489.745872</ele>
        <time>2026-07-27T10:37:42.000Z</time>
      </trkpt>
      <trkpt lat="44.48554" lon="6.45712">
        <ele>1489.745872</ele>
        <time>2026-07-27T10:37:42.000Z</time>
      </trkpt>
      <trkpt lat="44.48558" lon="6.45712">
        <ele>1489.501005</ele>
        <time>2026-07-27T10:37:43.000Z</time>
      </trkpt>
      <trkpt lat="44.48558" lon="6.45712">
        <ele>1489.501005</ele>
        <time>2026-07-27T10:37:43.000Z</time>
      </trkpt>
      <trkpt lat="44.48561" lon="6.45712">
        <ele>1489.262713</ele>
        <time>2026-07-27T10:37:44.000Z</time>
      </trkpt>
      <trkpt lat="44.48561" lon="6.45712">
        <ele>1489.262713</ele>
        <time>2026-07-27T10:37:44.000Z</time>
      </trkpt>
      <trkpt lat="44.48564" lon="6.45713">
        <ele>1489.072802</ele>
        <time>2026-07-27T10:37:45.000Z</time>
      </trkpt>
      <trkpt lat="44.48564" lon="6.45713">
        <ele>1489.072802</ele>
        <time>2026-07-27T10:37:45.000Z</time>
      </trkpt>
      <trkpt lat="44.48569" lon="6.45713">
        <ele>1488.701946</ele>
        <time>2026-07-27T10:37:46.000Z</time>
      </trkpt>
      <trkpt lat="44.48569" lon="6.45713">
        <ele>1488.701946</ele>
        <time>2026-07-27T10:37:46.000Z</time>
      </trkpt>
      <trkpt lat="44.48573" lon="6.45712">
        <ele>1488.436098</ele>
        <time>2026-07-27T10:37:47.000Z</time>
      </trkpt>
      <trkpt lat="44.48576" lon="6.45712">
        <ele>1488.190469</ele>
        <time>2026-07-27T10:37:48.000Z</time>
      </trkpt>
      <trkpt lat="44.48576" lon="6.45712">
        <ele>1488.190469</ele>
        <time>2026-07-27T10:37:48.000Z</time>
      </trkpt>
      <trkpt lat="44.48579" lon="6.45712">
        <ele>1487.979679</ele>
        <time>2026-07-27T10:37:49.000Z</time>
      </trkpt>
      <trkpt lat="44.48579" lon="6.45712">
        <ele>1487.979679</ele>
        <time>2026-07-27T10:37:49.000Z</time>
      </trkpt>
      <trkpt lat="44.48593" lon="6.4571">
        <ele>1487.018854</ele>
        <time>2026-07-27T10:37:50.000Z</time>
      </trkpt>
      <trkpt lat="44.48593" lon="6.4571">
        <ele>1487.018854</ele>
        <time>2026-07-27T10:37:50.000Z</time>
      </trkpt>
      <trkpt lat="44.48599" lon="6.45709">
        <ele>1486.589817</ele>
        <time>2026-07-27T10:37:51.000Z</time>
      </trkpt>
      <trkpt lat="44.48599" lon="6.45709">
        <ele>1486.589817</ele>
        <time>2026-07-27T10:37:51.000Z</time>
      </trkpt>
      <trkpt lat="44.48607" lon="6.4571">
        <ele>1486.076767</ele>
        <time>2026-07-27T10:37:52.000Z</time>
      </trkpt>
      <trkpt lat="44.48607" lon="6.4571">
        <ele>1486.076767</ele>
        <time>2026-07-27T10:37:52.000Z</time>
      </trkpt>
      <trkpt lat="44.48613" lon="6.45711">
        <ele>1485.621862</ele>
        <time>2026-07-27T10:37:53.000Z</time>
      </trkpt>
      <trkpt lat="44.48613" lon="6.45711">
        <ele>1485.621862</ele>
        <time>2026-07-27T10:37:53.000Z</time>
      </trkpt>
      <trkpt lat="44.48619" lon="6.45711">
        <ele>1485.194919</ele>
        <time>2026-07-27T10:37:54.000Z</time>
      </trkpt>
      <trkpt lat="44.48619" lon="6.45711">
        <ele>1485.194919</ele>
        <time>2026-07-27T10:37:54.000Z</time>
      </trkpt>
      <trkpt lat="44.48626" lon="6.45711">
        <ele>1484.740013</ele>
        <time>2026-07-27T10:37:55.000Z</time>
      </trkpt>
      <trkpt lat="44.48626" lon="6.45711">
        <ele>1484.740013</ele>
        <time>2026-07-27T10:37:55.000Z</time>
      </trkpt>
      <trkpt lat="44.48632" lon="6.45712">
        <ele>1484.264134</ele>
        <time>2026-07-27T10:37:56.000Z</time>
      </trkpt>
      <trkpt lat="44.48632" lon="6.45712">
        <ele>1484.264134</ele>
        <time>2026-07-27T10:37:56.000Z</time>
      </trkpt>
      <trkpt lat="44.48639" lon="6.45712">
        <ele>1483.807262</ele>
        <time>2026-07-27T10:37:57.000Z</time>
      </trkpt>
      <trkpt lat="44.48639" lon="6.45712">
        <ele>1483.807262</ele>
        <time>2026-07-27T10:37:57.000Z</time>
      </trkpt>
      <trkpt lat="44.48646" lon="6.45714">
        <ele>1483.291888</ele>
        <time>2026-07-27T10:37:58.000Z</time>
      </trkpt>
      <trkpt lat="44.48646" lon="6.45714">
        <ele>1483.291888</ele>
        <time>2026-07-27T10:37:58.000Z</time>
      </trkpt>
      <trkpt lat="44.48653" lon="6.45716">
        <ele>1482.82848</ele>
        <time>2026-07-27T10:37:59.000Z</time>
      </trkpt>
      <trkpt lat="44.48653" lon="6.45716">
        <ele>1482.82848</ele>
        <time>2026-07-27T10:37:59.000Z</time>
      </trkpt>
      <trkpt lat="44.48659" lon="6.4572">
        <ele>1482.348966</ele>
        <time>2026-07-27T10:38:00.000Z</time>
      </trkpt>
      <trkpt lat="44.48659" lon="6.4572">
        <ele>1482.348966</ele>
        <time>2026-07-27T10:38:00.000Z</time>
      </trkpt>
      <trkpt lat="44.48665" lon="6.45725">
        <ele>1481.841822</ele>
        <time>2026-07-27T10:38:01.000Z</time>
      </trkpt>
      <trkpt lat="44.48665" lon="6.45725">
        <ele>1481.841822</ele>
        <time>2026-07-27T10:38:01.000Z</time>
      </trkpt>
      <trkpt lat="44.48669" lon="6.45732">
        <ele>1480.736987</ele>
        <time>2026-07-27T10:38:02.000Z</time>
      </trkpt>
      <trkpt lat="44.48669" lon="6.45732">
        <ele>1480.736987</ele>
        <time>2026-07-27T10:38:02.000Z</time>
      </trkpt>
      <trkpt lat="44.48673" lon="6.4574">
        <ele>1479.634501</ele>
        <time>2026-07-27T10:38:03.000Z</time>
      </trkpt>
      <trkpt lat="44.48673" lon="6.4574">
        <ele>1479.634501</ele>
        <time>2026-07-27T10:38:03.000Z</time>
      </trkpt>
      <trkpt lat="44.48676" lon="6.45747">
        <ele>1478.541722</ele>
        <time>2026-07-27T10:38:04.000Z</time>
      </trkpt>
      <trkpt lat="44.48676" lon="6.45747">
        <ele>1478.541722</ele>
        <time>2026-07-27T10:38:04.000Z</time>
      </trkpt>
      <trkpt lat="44.4868" lon="6.45754">
        <ele>1477.552584</ele>
        <time>2026-07-27T10:38:05.000Z</time>
      </trkpt>
      <trkpt lat="44.4868" lon="6.45754">
        <ele>1477.552584</ele>
        <time>2026-07-27T10:38:05.000Z</time>
      </trkpt>
      <trkpt lat="44.48685" lon="6.45759">
        <ele>1476.590542</ele>
        <time>2026-07-27T10:38:06.000Z</time>
      </trkpt>
      <trkpt lat="44.48685" lon="6.45759">
        <ele>1476.590542</ele>
        <time>2026-07-27T10:38:06.000Z</time>
      </trkpt>
      <trkpt lat="44.48689" lon="6.45762">
        <ele>1475.782932</ele>
        <time>2026-07-27T10:38:07.000Z</time>
      </trkpt>
      <trkpt lat="44.48689" lon="6.45762">
        <ele>1475.782932</ele>
        <time>2026-07-27T10:38:07.000Z</time>
      </trkpt>
      <trkpt lat="44.48694" lon="6.45765">
        <ele>1474.894918</ele>
        <time>2026-07-27T10:38:08.000Z</time>
      </trkpt>
      <trkpt lat="44.48694" lon="6.45765">
        <ele>1474.894918</ele>
        <time>2026-07-27T10:38:08.000Z</time>
      </trkpt>
      <trkpt lat="44.48699" lon="6.45767">
        <ele>1473.967485</ele>
        <time>2026-07-27T10:38:08.000Z</time>
      </trkpt>
      <trkpt lat="44.48699" lon="6.45767">
        <ele>1473.967485</ele>
        <time>2026-07-27T10:38:08.000Z</time>
      </trkpt>
      <trkpt lat="44.48704" lon="6.45769">
        <ele>1473.110734</ele>
        <time>2026-07-27T10:38:10.000Z</time>
      </trkpt>
      <trkpt lat="44.48704" lon="6.45769">
        <ele>1473.110734</ele>
        <time>2026-07-27T10:38:10.000Z</time>
      </trkpt>
      <trkpt lat="44.48709" lon="6.45772">
        <ele>1472.293431</ele>
        <time>2026-07-27T10:38:11.000Z</time>
      </trkpt>
      <trkpt lat="44.48709" lon="6.45772">
        <ele>1472.293431</ele>
        <time>2026-07-27T10:38:11.000Z</time>
      </trkpt>
      <trkpt lat="44.48714" lon="6.45774">
        <ele>1471.417176</ele>
        <time>2026-07-27T10:38:12.000Z</time>
      </trkpt>
      <trkpt lat="44.48714" lon="6.45774">
        <ele>1471.417176</ele>
        <time>2026-07-27T10:38:12.000Z</time>
      </trkpt>
      <trkpt lat="44.48718" lon="6.45776">
        <ele>1470.595654</ele>
        <time>2026-07-27T10:38:13.000Z</time>
      </trkpt>
      <trkpt lat="44.48718" lon="6.45776">
        <ele>1470.595654</ele>
        <time>2026-07-27T10:38:13.000Z</time>
      </trkpt>
      <trkpt lat="44.48722" lon="6.45779">
        <ele>1469.901637</ele>
        <time>2026-07-27T10:38:14.000Z</time>
      </trkpt>
      <trkpt lat="44.48722" lon="6.45779">
        <ele>1469.901637</ele>
        <time>2026-07-27T10:38:14.000Z</time>
      </trkpt>
      <trkpt lat="44.48726" lon="6.45781">
        <ele>1469.229834</ele>
        <time>2026-07-27T10:38:15.000Z</time>
      </trkpt>
      <trkpt lat="44.48726" lon="6.45781">
        <ele>1469.229834</ele>
        <time>2026-07-27T10:38:15.000Z</time>
      </trkpt>
      <trkpt lat="44.4873" lon="6.45783">
        <ele>1468.470032</ele>
        <time>2026-07-27T10:38:16.000Z</time>
      </trkpt>
      <trkpt lat="44.4873" lon="6.45783">
        <ele>1468.470032</ele>
        <time>2026-07-27T10:38:16.000Z</time>
      </trkpt>
      <trkpt lat="44.48734" lon="6.45786">
        <ele>1467.760631</ele>
        <time>2026-07-27T10:38:17.000Z</time>
      </trkpt>
      <trkpt lat="44.48734" lon="6.45786">
        <ele>1467.760631</ele>
        <time>2026-07-27T10:38:17.000Z</time>
      </trkpt>
      <trkpt lat="44.48738" lon="6.45789">
        <ele>1467.051231</ele>
        <time>2026-07-27T10:38:18.000Z</time>
      </trkpt>
      <trkpt lat="44.48738" lon="6.45789">
        <ele>1467.051231</ele>
        <time>2026-07-27T10:38:18.000Z</time>
      </trkpt>
      <trkpt lat="44.48741" lon="6.45792">
        <ele>1466.348857</ele>
        <time>2026-07-27T10:38:19.000Z</time>
      </trkpt>
      <trkpt lat="44.48741" lon="6.45792">
        <ele>1466.348857</ele>
        <time>2026-07-27T10:38:19.000Z</time>
      </trkpt>
      <trkpt lat="44.48745" lon="6.45795">
        <ele>1465.567454</ele>
        <time>2026-07-27T10:38:20.000Z</time>
      </trkpt>
      <trkpt lat="44.48745" lon="6.45795">
        <ele>1465.567454</ele>
        <time>2026-07-27T10:38:20.000Z</time>
      </trkpt>
      <trkpt lat="44.48749" lon="6.45798">
        <ele>1464.820904</ele>
        <time>2026-07-27T10:38:21.000Z</time>
      </trkpt>
      <trkpt lat="44.48749" lon="6.45798">
        <ele>1464.820904</ele>
        <time>2026-07-27T10:38:21.000Z</time>
      </trkpt>
      <trkpt lat="44.48753" lon="6.45801">
        <ele>1464.175989</ele>
        <time>2026-07-27T10:38:22.000Z</time>
      </trkpt>
      <trkpt lat="44.48753" lon="6.45801">
        <ele>1464.175989</ele>
        <time>2026-07-27T10:38:22.000Z</time>
      </trkpt>
      <trkpt lat="44.48755" lon="6.45803">
        <ele>1463.691353</ele>
        <time>2026-07-27T10:38:23.000Z</time>
      </trkpt>
      <trkpt lat="44.48755" lon="6.45803">
        <ele>1463.691353</ele>
        <time>2026-07-27T10:38:23.000Z</time>
      </trkpt>
      <trkpt lat="44.48755" lon="6.45803">
        <ele>1463.691353</ele>
        <time>2026-07-27T10:38:24.000Z</time>
      </trkpt>
      <trkpt lat="44.48757" lon="6.45808">
        <ele>1463.014303</ele>
        <time>2026-07-27T10:38:25.000Z</time>
      </trkpt>
      <trkpt lat="44.48757" lon="6.45808">
        <ele>1463.014303</ele>
        <time>2026-07-27T10:38:25.000Z</time>
      </trkpt>
      <trkpt lat="44.48756" lon="6.45809">
        <ele>1462.827702</ele>
        <time>2026-07-27T10:38:26.000Z</time>
      </trkpt>
      <trkpt lat="44.48755" lon="6.45811">
        <ele>1462.513838</ele>
        <time>2026-07-27T10:38:27.000Z</time>
      </trkpt>
      <trkpt lat="44.48755" lon="6.45811">
        <ele>1462.447232</ele>
        <time>2026-07-27T10:38:28.000Z</time>
      </trkpt>
      <trkpt lat="44.48753" lon="6.45812">
        <ele>1462.109289</ele>
        <time>2026-07-27T10:38:29.000Z</time>
      </trkpt>
      <trkpt lat="44.48749" lon="6.45816">
        <ele>1461.236191</ele>
        <time>2026-07-27T10:38:30.000Z</time>
      </trkpt>
      <trkpt lat="44.48746" lon="6.45819">
        <ele>1460.546796</ele>
        <time>2026-07-27T10:38:31.000Z</time>
      </trkpt>
      <trkpt lat="44.48746" lon="6.45819">
        <ele>1460.546796</ele>
        <time>2026-07-27T10:38:31.000Z</time>
      </trkpt>
      <trkpt lat="44.48746" lon="6.45819">
        <ele>1460.546796</ele>
        <time>2026-07-27T10:38:32.000Z</time>
      </trkpt>
      <trkpt lat="44.48742" lon="6.45823">
        <ele>1459.755494</ele>
        <time>2026-07-27T10:38:52.000Z</time>
      </trkpt>
      <trkpt lat="44.48742" lon="6.45823">
        <ele>1459.755494</ele>
        <time>2026-07-27T10:38:52.000Z</time>
      </trkpt>
      <trkpt lat="44.48742" lon="6.45827">
        <ele>1459.263914</ele>
        <time>2026-07-27T10:38:55.000Z</time>
      </trkpt>
      <trkpt lat="44.4874" lon="6.45831">
        <ele>1458.754666</ele>
        <time>2026-07-27T10:38:56.000Z</time>
      </trkpt>
      <trkpt lat="44.48739" lon="6.45838">
        <ele>1457.945578</ele>
        <time>2026-07-27T10:38:57.000Z</time>
      </trkpt>
      <trkpt lat="44.48738" lon="6.45845">
        <ele>1457.111402</ele>
        <time>2026-07-27T10:38:57.000Z</time>
      </trkpt>
      <trkpt lat="44.48738" lon="6.45845">
        <ele>1457.111402</ele>
        <time>2026-07-27T10:38:57.000Z</time>
      </trkpt>
      <trkpt lat="44.48736" lon="6.45851">
        <ele>1456.265883</ele>
        <time>2026-07-27T10:38:59.000Z</time>
      </trkpt>
      <trkpt lat="44.48736" lon="6.45851">
        <ele>1456.265883</ele>
        <time>2026-07-27T10:38:59.000Z</time>
      </trkpt>
      <trkpt lat="44.48735" lon="6.45857">
        <ele>1455.577496</ele>
        <time>2026-07-27T10:39:00.000Z</time>
      </trkpt>
      <trkpt lat="44.48735" lon="6.45857">
        <ele>1455.577496</ele>
        <time>2026-07-27T10:39:00.000Z</time>
      </trkpt>
      <trkpt lat="44.48731" lon="6.45863">
        <ele>1454.610094</ele>
        <time>2026-07-27T10:39:01.000Z</time>
      </trkpt>
      <trkpt lat="44.48731" lon="6.45863">
        <ele>1454.610094</ele>
        <time>2026-07-27T10:39:01.000Z</time>
      </trkpt>
      <trkpt lat="44.48727" lon="6.45869">
        <ele>1453.717474</ele>
        <time>2026-07-27T10:39:02.000Z</time>
      </trkpt>
      <trkpt lat="44.48727" lon="6.45869">
        <ele>1453.717474</ele>
        <time>2026-07-27T10:39:02.000Z</time>
      </trkpt>
      <trkpt lat="44.48723" lon="6.45874">
        <ele>1452.792194</ele>
        <time>2026-07-27T10:39:03.000Z</time>
      </trkpt>
      <trkpt lat="44.48723" lon="6.45874">
        <ele>1452.792194</ele>
        <time>2026-07-27T10:39:03.000Z</time>
      </trkpt>
      <trkpt lat="44.48719" lon="6.45877">
        <ele>1451.959964</ele>
        <time>2026-07-27T10:39:04.000Z</time>
      </trkpt>
      <trkpt lat="44.48719" lon="6.45877">
        <ele>1451.959964</ele>
        <time>2026-07-27T10:39:04.000Z</time>
      </trkpt>
      <trkpt lat="44.48714" lon="6.45881">
        <ele>1451.212249</ele>
        <time>2026-07-27T10:39:05.000Z</time>
      </trkpt>
      <trkpt lat="44.48714" lon="6.45881">
        <ele>1451.212249</ele>
        <time>2026-07-27T10:39:05.000Z</time>
      </trkpt>
      <trkpt lat="44.48707" lon="6.45885">
        <ele>1450.281897</ele>
        <time>2026-07-27T10:39:06.000Z</time>
      </trkpt>
      <trkpt lat="44.48707" lon="6.45885">
        <ele>1450.281897</ele>
        <time>2026-07-27T10:39:06.000Z</time>
      </trkpt>
      <trkpt lat="44.487" lon="6.45887">
        <ele>1449.410416</ele>
        <time>2026-07-27T10:39:07.000Z</time>
      </trkpt>
      <trkpt lat="44.487" lon="6.45887">
        <ele>1449.410416</ele>
        <time>2026-07-27T10:39:07.000Z</time>
      </trkpt>
      <trkpt lat="44.48698" lon="6.45891">
        <ele>1448.962702</ele>
        <time>2026-07-27T10:39:08.000Z</time>
      </trkpt>
      <trkpt lat="44.48698" lon="6.45891">
        <ele>1448.962702</ele>
        <time>2026-07-27T10:39:08.000Z</time>
      </trkpt>
      <trkpt lat="44.48684" lon="6.45901">
        <ele>1446.928172</ele>
        <time>2026-07-27T10:39:09.000Z</time>
      </trkpt>
      <trkpt lat="44.48684" lon="6.45901">
        <ele>1446.928172</ele>
        <time>2026-07-27T10:39:09.000Z</time>
      </trkpt>
      <trkpt lat="44.48677" lon="6.45909">
        <ele>1445.894399</ele>
        <time>2026-07-27T10:39:10.000Z</time>
      </trkpt>
      <trkpt lat="44.48677" lon="6.45909">
        <ele>1445.894399</ele>
        <time>2026-07-27T10:39:10.000Z</time>
      </trkpt>
      <trkpt lat="44.48674" lon="6.45916">
        <ele>1445.103618</ele>
        <time>2026-07-27T10:39:11.000Z</time>
      </trkpt>
      <trkpt lat="44.48674" lon="6.45916">
        <ele>1445.103618</ele>
        <time>2026-07-27T10:39:11.000Z</time>
      </trkpt>
      <trkpt lat="44.48673" lon="6.45922">
        <ele>1444.574609</ele>
        <time>2026-07-27T10:39:12.000Z</time>
      </trkpt>
      <trkpt lat="44.48673" lon="6.45922">
        <ele>1444.574609</ele>
        <time>2026-07-27T10:39:12.000Z</time>
      </trkpt>
      <trkpt lat="44.48669" lon="6.45932">
        <ele>1443.619691</ele>
        <time>2026-07-27T10:39:13.000Z</time>
      </trkpt>
      <trkpt lat="44.48669" lon="6.45932">
        <ele>1443.619691</ele>
        <time>2026-07-27T10:39:13.000Z</time>
      </trkpt>
      <trkpt lat="44.48668" lon="6.45939">
        <ele>1442.95816</ele>
        <time>2026-07-27T10:39:14.000Z</time>
      </trkpt>
      <trkpt lat="44.48668" lon="6.45939">
        <ele>1442.95816</ele>
        <time>2026-07-27T10:39:14.000Z</time>
      </trkpt>
      <trkpt lat="44.48666" lon="6.45945">
        <ele>1442.338288</ele>
        <time>2026-07-27T10:39:15.000Z</time>
      </trkpt>
      <trkpt lat="44.48666" lon="6.45945">
        <ele>1442.338288</ele>
        <time>2026-07-27T10:39:15.000Z</time>
      </trkpt>
      <trkpt lat="44.48665" lon="6.45951">
        <ele>1441.738107</ele>
        <time>2026-07-27T10:39:16.000Z</time>
      </trkpt>
      <trkpt lat="44.48665" lon="6.45951">
        <ele>1441.738107</ele>
        <time>2026-07-27T10:39:16.000Z</time>
      </trkpt>
      <trkpt lat="44.48664" lon="6.45958">
        <ele>1441.145504</ele>
        <time>2026-07-27T10:39:17.000Z</time>
      </trkpt>
      <trkpt lat="44.48664" lon="6.45958">
        <ele>1441.145504</ele>
        <time>2026-07-27T10:39:17.000Z</time>
      </trkpt>
      <trkpt lat="44.48664" lon="6.45964">
        <ele>1440.56831</ele>
        <time>2026-07-27T10:39:18.000Z</time>
      </trkpt>
      <trkpt lat="44.48664" lon="6.45964">
        <ele>1440.56831</ele>
        <time>2026-07-27T10:39:18.000Z</time>
      </trkpt>
      <trkpt lat="44.48665" lon="6.45971">
        <ele>1439.931394</ele>
        <time>2026-07-27T10:39:19.000Z</time>
      </trkpt>
      <trkpt lat="44.48665" lon="6.45971">
        <ele>1439.931394</ele>
        <time>2026-07-27T10:39:19.000Z</time>
      </trkpt>
      <trkpt lat="44.48666" lon="6.45979">
        <ele>1439.248883</ele>
        <time>2026-07-27T10:39:20.000Z</time>
      </trkpt>
      <trkpt lat="44.48666" lon="6.45979">
        <ele>1439.248883</ele>
        <time>2026-07-27T10:39:20.000Z</time>
      </trkpt>
      <trkpt lat="44.48668" lon="6.45985">
        <ele>1438.669202</ele>
        <time>2026-07-27T10:39:21.000Z</time>
      </trkpt>
      <trkpt lat="44.48668" lon="6.45985">
        <ele>1438.669202</ele>
        <time>2026-07-27T10:39:21.000Z</time>
      </trkpt>
      <trkpt lat="44.48669" lon="6.4599">
        <ele>1438.131791</ele>
        <time>2026-07-27T10:39:22.000Z</time>
      </trkpt>
      <trkpt lat="44.48669" lon="6.4599">
        <ele>1438.131791</ele>
        <time>2026-07-27T10:39:22.000Z</time>
      </trkpt>
      <trkpt lat="44.48671" lon="6.45993">
        <ele>1437.753986</ele>
        <time>2026-07-27T10:39:23.000Z</time>
      </trkpt>
      <trkpt lat="44.48671" lon="6.45993">
        <ele>1437.753986</ele>
        <time>2026-07-27T10:39:23.000Z</time>
      </trkpt>
      <trkpt lat="44.48674" lon="6.45995">
        <ele>1437.327904</ele>
        <time>2026-07-27T10:39:23.000Z</time>
      </trkpt>
      <trkpt lat="44.48674" lon="6.45995">
        <ele>1437.327904</ele>
        <time>2026-07-27T10:39:23.000Z</time>
      </trkpt>
      <trkpt lat="44.48678" lon="6.45996">
        <ele>1436.843991</ele>
        <time>2026-07-27T10:39:25.000Z</time>
      </trkpt>
      <trkpt lat="44.48678" lon="6.45996">
        <ele>1436.843991</ele>
        <time>2026-07-27T10:39:25.000Z</time>
      </trkpt>
      <trkpt lat="44.48682" lon="6.45997">
        <ele>1436.395111</ele>
        <time>2026-07-27T10:39:26.000Z</time>
      </trkpt>
      <trkpt lat="44.48682" lon="6.45997">
        <ele>1436.395111</ele>
        <time>2026-07-27T10:39:26.000Z</time>
      </trkpt>
      <trkpt lat="44.48685" lon="6.46">
        <ele>1435.944718</ele>
        <time>2026-07-27T10:39:27.000Z</time>
      </trkpt>
      <trkpt lat="44.48685" lon="6.46">
        <ele>1435.944718</ele>
        <time>2026-07-27T10:39:27.000Z</time>
      </trkpt>
      <trkpt lat="44.48689" lon="6.46004">
        <ele>1435.31027</ele>
        <time>2026-07-27T10:39:28.000Z</time>
      </trkpt>
      <trkpt lat="44.48689" lon="6.46004">
        <ele>1435.31027</ele>
        <time>2026-07-27T10:39:28.000Z</time>
      </trkpt>
      <trkpt lat="44.48693" lon="6.46008">
        <ele>1434.63347</ele>
        <time>2026-07-27T10:39:29.000Z</time>
      </trkpt>
      <trkpt lat="44.48693" lon="6.46008">
        <ele>1434.63347</ele>
        <time>2026-07-27T10:39:29.000Z</time>
      </trkpt>
      <trkpt lat="44.48697" lon="6.46012">
        <ele>1434.022682</ele>
        <time>2026-07-27T10:39:30.000Z</time>
      </trkpt>
      <trkpt lat="44.48697" lon="6.46012">
        <ele>1434.022682</ele>
        <time>2026-07-27T10:39:30.000Z</time>
      </trkpt>
      <trkpt lat="44.48701" lon="6.46014">
        <ele>1433.494048</ele>
        <time>2026-07-27T10:39:31.000Z</time>
      </trkpt>
      <trkpt lat="44.48701" lon="6.46014">
        <ele>1433.494048</ele>
        <time>2026-07-27T10:39:31.000Z</time>
      </trkpt>
      <trkpt lat="44.48705" lon="6.46017">
        <ele>1432.922867</ele>
        <time>2026-07-27T10:39:32.000Z</time>
      </trkpt>
      <trkpt lat="44.48705" lon="6.46017">
        <ele>1432.922867</ele>
        <time>2026-07-27T10:39:32.000Z</time>
      </trkpt>
      <trkpt lat="44.4871" lon="6.46019">
        <ele>1432.310783</ele>
        <time>2026-07-27T10:39:33.000Z</time>
      </trkpt>
      <trkpt lat="44.4871" lon="6.46019">
        <ele>1432.310783</ele>
        <time>2026-07-27T10:39:33.000Z</time>
      </trkpt>
      <trkpt lat="44.48714" lon="6.4602">
        <ele>1431.728281</ele>
        <time>2026-07-27T10:39:34.000Z</time>
      </trkpt>
      <trkpt lat="44.48714" lon="6.4602">
        <ele>1431.728281</ele>
        <time>2026-07-27T10:39:34.000Z</time>
      </trkpt>
      <trkpt lat="44.4872" lon="6.46022">
        <ele>1431.031302</ele>
        <time>2026-07-27T10:39:35.000Z</time>
      </trkpt>
      <trkpt lat="44.4872" lon="6.46022">
        <ele>1431.031302</ele>
        <time>2026-07-27T10:39:35.000Z</time>
      </trkpt>
      <trkpt lat="44.48726" lon="6.46025">
        <ele>1430.177551</ele>
        <time>2026-07-27T10:39:36.000Z</time>
      </trkpt>
      <trkpt lat="44.48726" lon="6.46025">
        <ele>1430.177551</ele>
        <time>2026-07-27T10:39:36.000Z</time>
      </trkpt>
      <trkpt lat="44.48733" lon="6.46028">
        <ele>1429.279188</ele>
        <time>2026-07-27T10:39:37.000Z</time>
      </trkpt>
      <trkpt lat="44.48733" lon="6.46028">
        <ele>1429.279188</ele>
        <time>2026-07-27T10:39:37.000Z</time>
      </trkpt>
      <trkpt lat="44.4874" lon="6.4603">
        <ele>1428.22985</ele>
        <time>2026-07-27T10:39:38.000Z</time>
      </trkpt>
      <trkpt lat="44.4874" lon="6.4603">
        <ele>1428.22985</ele>
        <time>2026-07-27T10:39:38.000Z</time>
      </trkpt>
      <trkpt lat="44.48747" lon="6.46031">
        <ele>1427.190964</ele>
        <time>2026-07-27T10:39:39.000Z</time>
      </trkpt>
      <trkpt lat="44.48747" lon="6.46031">
        <ele>1427.190964</ele>
        <time>2026-07-27T10:39:39.000Z</time>
      </trkpt>
      <trkpt lat="44.48753" lon="6.46032">
        <ele>1426.281397</ele>
        <time>2026-07-27T10:39:40.000Z</time>
      </trkpt>
      <trkpt lat="44.48753" lon="6.46032">
        <ele>1426.281397</ele>
        <time>2026-07-27T10:39:40.000Z</time>
      </trkpt>
      <trkpt lat="44.48759" lon="6.46033">
        <ele>1425.376271</ele>
        <time>2026-07-27T10:39:41.000Z</time>
      </trkpt>
      <trkpt lat="44.48759" lon="6.46033">
        <ele>1425.376271</ele>
        <time>2026-07-27T10:39:41.000Z</time>
      </trkpt>
      <trkpt lat="44.48765" lon="6.46034">
        <ele>1424.51814</ele>
        <time>2026-07-27T10:39:42.000Z</time>
      </trkpt>
      <trkpt lat="44.48765" lon="6.46034">
        <ele>1424.51814</ele>
        <time>2026-07-27T10:39:42.000Z</time>
      </trkpt>
      <trkpt lat="44.48771" lon="6.46034">
        <ele>1423.671828</ele>
        <time>2026-07-27T10:39:43.000Z</time>
      </trkpt>
      <trkpt lat="44.48771" lon="6.46034">
        <ele>1423.671828</ele>
        <time>2026-07-27T10:39:43.000Z</time>
      </trkpt>
      <trkpt lat="44.48777" lon="6.46036">
        <ele>1422.640782</ele>
        <time>2026-07-27T10:39:44.000Z</time>
      </trkpt>
      <trkpt lat="44.48777" lon="6.46036">
        <ele>1422.640782</ele>
        <time>2026-07-27T10:39:44.000Z</time>
      </trkpt>
      <trkpt lat="44.48785" lon="6.46037">
        <ele>1421.501137</ele>
        <time>2026-07-27T10:39:45.000Z</time>
      </trkpt>
      <trkpt lat="44.48785" lon="6.46037">
        <ele>1421.501137</ele>
        <time>2026-07-27T10:39:45.000Z</time>
      </trkpt>
      <trkpt lat="44.48793" lon="6.46038">
        <ele>1420.373686</ele>
        <time>2026-07-27T10:39:46.000Z</time>
      </trkpt>
      <trkpt lat="44.48793" lon="6.46038">
        <ele>1420.373686</ele>
        <time>2026-07-27T10:39:46.000Z</time>
      </trkpt>
      <trkpt lat="44.488" lon="6.46038">
        <ele>1419.290342</ele>
        <time>2026-07-27T10:39:47.000Z</time>
      </trkpt>
      <trkpt lat="44.488" lon="6.46038">
        <ele>1419.290342</ele>
        <time>2026-07-27T10:39:47.000Z</time>
      </trkpt>
      <trkpt lat="44.48806" lon="6.46037">
        <ele>1418.318133</ele>
        <time>2026-07-27T10:39:48.000Z</time>
      </trkpt>
      <trkpt lat="44.48806" lon="6.46037">
        <ele>1418.318133</ele>
        <time>2026-07-27T10:39:48.000Z</time>
      </trkpt>
      <trkpt lat="44.48813" lon="6.46035">
        <ele>1417.384103</ele>
        <time>2026-07-27T10:39:49.000Z</time>
      </trkpt>
      <trkpt lat="44.48813" lon="6.46035">
        <ele>1417.384103</ele>
        <time>2026-07-27T10:39:49.000Z</time>
      </trkpt>
      <trkpt lat="44.48819" lon="6.4603">
        <ele>1416.32274</ele>
        <time>2026-07-27T10:39:50.000Z</time>
      </trkpt>
      <trkpt lat="44.48819" lon="6.4603">
        <ele>1416.32274</ele>
        <time>2026-07-27T10:39:50.000Z</time>
      </trkpt>
      <trkpt lat="44.48826" lon="6.46026">
        <ele>1415.270059</ele>
        <time>2026-07-27T10:39:51.000Z</time>
      </trkpt>
      <trkpt lat="44.48826" lon="6.46026">
        <ele>1415.270059</ele>
        <time>2026-07-27T10:39:51.000Z</time>
      </trkpt>
      <trkpt lat="44.48833" lon="6.46021">
        <ele>1414.078529</ele>
        <time>2026-07-27T10:39:52.000Z</time>
      </trkpt>
      <trkpt lat="44.48833" lon="6.46021">
        <ele>1414.078529</ele>
        <time>2026-07-27T10:39:52.000Z</time>
      </trkpt>
      <trkpt lat="44.48841" lon="6.46017">
        <ele>1412.807985</ele>
        <time>2026-07-27T10:39:53.000Z</time>
      </trkpt>
      <trkpt lat="44.48841" lon="6.46017">
        <ele>1412.807985</ele>
        <time>2026-07-27T10:39:53.000Z</time>
      </trkpt>
      <trkpt lat="44.48849" lon="6.46014">
        <ele>1411.574309</ele>
        <time>2026-07-27T10:39:54.000Z</time>
      </trkpt>
      <trkpt lat="44.48849" lon="6.46014">
        <ele>1411.574309</ele>
        <time>2026-07-27T10:39:54.000Z</time>
      </trkpt>
      <trkpt lat="44.48857" lon="6.46011">
        <ele>1410.340634</ele>
        <time>2026-07-27T10:39:55.000Z</time>
      </trkpt>
      <trkpt lat="44.48857" lon="6.46011">
        <ele>1410.340634</ele>
        <time>2026-07-27T10:39:55.000Z</time>
      </trkpt>
      <trkpt lat="44.48864" lon="6.46009">
        <ele>1409.17739</ele>
        <time>2026-07-27T10:39:56.000Z</time>
      </trkpt>
      <trkpt lat="44.48864" lon="6.46009">
        <ele>1409.17739</ele>
        <time>2026-07-27T10:39:56.000Z</time>
      </trkpt>
      <trkpt lat="44.48871" lon="6.46007">
        <ele>1408.250758</ele>
        <time>2026-07-27T10:39:57.000Z</time>
      </trkpt>
      <trkpt lat="44.48871" lon="6.46007">
        <ele>1408.250758</ele>
        <time>2026-07-27T10:39:57.000Z</time>
      </trkpt>
      <trkpt lat="44.48876" lon="6.46006">
        <ele>1407.456253</ele>
        <time>2026-07-27T10:39:58.000Z</time>
      </trkpt>
      <trkpt lat="44.48876" lon="6.46006">
        <ele>1407.456253</ele>
        <time>2026-07-27T10:39:58.000Z</time>
      </trkpt>
      <trkpt lat="44.4888" lon="6.46005">
        <ele>1406.774036</ele>
        <time>2026-07-27T10:39:59.000Z</time>
      </trkpt>
      <trkpt lat="44.4888" lon="6.46005">
        <ele>1406.774036</ele>
        <time>2026-07-27T10:39:59.000Z</time>
      </trkpt>
      <trkpt lat="44.48885" lon="6.46006">
        <ele>1406.149782</ele>
        <time>2026-07-27T10:40:00.000Z</time>
      </trkpt>
      <trkpt lat="44.48885" lon="6.46006">
        <ele>1406.149782</ele>
        <time>2026-07-27T10:40:00.000Z</time>
      </trkpt>
      <trkpt lat="44.48889" lon="6.46007">
        <ele>1405.504374</ele>
        <time>2026-07-27T10:40:01.000Z</time>
      </trkpt>
      <trkpt lat="44.48889" lon="6.46007">
        <ele>1405.504374</ele>
        <time>2026-07-27T10:40:01.000Z</time>
      </trkpt>
      <trkpt lat="44.48893" lon="6.46009">
        <ele>1404.849926</ele>
        <time>2026-07-27T10:40:02.000Z</time>
      </trkpt>
      <trkpt lat="44.48893" lon="6.46009">
        <ele>1404.849926</ele>
        <time>2026-07-27T10:40:02.000Z</time>
      </trkpt>
      <trkpt lat="44.48896" lon="6.46011">
        <ele>1404.357306</ele>
        <time>2026-07-27T10:40:03.000Z</time>
      </trkpt>
      <trkpt lat="44.48896" lon="6.46011">
        <ele>1404.357306</ele>
        <time>2026-07-27T10:40:03.000Z</time>
      </trkpt>
      <trkpt lat="44.489" lon="6.46014">
        <ele>1403.77952</ele>
        <time>2026-07-27T10:40:04.000Z</time>
      </trkpt>
      <trkpt lat="44.489" lon="6.46014">
        <ele>1403.77952</ele>
        <time>2026-07-27T10:40:04.000Z</time>
      </trkpt>
      <trkpt lat="44.48901" lon="6.46016">
        <ele>1403.479724</ele>
        <time>2026-07-27T10:40:05.000Z</time>
      </trkpt>
      <trkpt lat="44.48901" lon="6.46019">
        <ele>1403.167258</ele>
        <time>2026-07-27T10:40:06.000Z</time>
      </trkpt>
      <trkpt lat="44.48901" lon="6.46023">
        <ele>1402.701791</ele>
        <time>2026-07-27T10:40:07.000Z</time>
      </trkpt>
      <trkpt lat="44.48901" lon="6.46028">
        <ele>1401.937979</ele>
        <time>2026-07-27T10:40:08.000Z</time>
      </trkpt>
      <trkpt lat="44.48901" lon="6.46028">
        <ele>1401.937979</ele>
        <time>2026-07-27T10:40:08.000Z</time>
      </trkpt>
      <trkpt lat="44.48901" lon="6.46032">
        <ele>1401.317868</ele>
        <time>2026-07-27T10:40:09.000Z</time>
      </trkpt>
      <trkpt lat="44.48901" lon="6.46032">
        <ele>1401.317868</ele>
        <time>2026-07-27T10:40:09.000Z</time>
      </trkpt>
      <trkpt lat="44.48901" lon="6.46036">
        <ele>1400.666585</ele>
        <time>2026-07-27T10:40:10.000Z</time>
      </trkpt>
      <trkpt lat="44.48901" lon="6.46036">
        <ele>1400.666585</ele>
        <time>2026-07-27T10:40:10.000Z</time>
      </trkpt>
      <trkpt lat="44.48902" lon="6.46039">
        <ele>1400.199631</ele>
        <time>2026-07-27T10:40:11.000Z</time>
      </trkpt>
      <trkpt lat="44.48902" lon="6.46039">
        <ele>1400.199631</ele>
        <time>2026-07-27T10:40:11.000Z</time>
      </trkpt>
      <trkpt lat="44.48902" lon="6.46039">
        <ele>1400.199631</ele>
        <time>2026-07-27T10:40:12.000Z</time>
      </trkpt>
      <trkpt lat="44.48902" lon="6.46039">
        <ele>1400.199631</ele>
        <time>2026-07-27T10:40:13.000Z</time>
      </trkpt>
      <trkpt lat="44.48906" lon="6.46041">
        <ele>1399.210462</ele>
        <time>2026-07-27T10:40:19.000Z</time>
      </trkpt>
      <trkpt lat="44.48906" lon="6.46041">
        <ele>1399.122215</ele>
        <time>2026-07-27T10:40:21.000Z</time>
      </trkpt>
      <trkpt lat="44.48906" lon="6.46041">
        <ele>1399.032576</ele>
        <time>2026-07-27T10:40:21.000Z</time>
      </trkpt>
      <trkpt lat="44.4891" lon="6.46044">
        <ele>1398.078042</ele>
        <time>2026-07-27T10:40:23.000Z</time>
      </trkpt>
      <trkpt lat="44.48917" lon="6.46049">
        <ele>1396.403029</ele>
        <time>2026-07-27T10:40:23.000Z</time>
      </trkpt>
      <trkpt lat="44.48917" lon="6.46049">
        <ele>1396.403029</ele>
        <time>2026-07-27T10:40:23.000Z</time>
      </trkpt>
      <trkpt lat="44.4892" lon="6.4605">
        <ele>1395.543675</ele>
        <time>2026-07-27T10:40:24.000Z</time>
      </trkpt>
      <trkpt lat="44.4892" lon="6.4605">
        <ele>1395.543675</ele>
        <time>2026-07-27T10:40:24.000Z</time>
      </trkpt>
      <trkpt lat="44.48925" lon="6.46052">
        <ele>1394.511414</ele>
        <time>2026-07-27T10:40:26.000Z</time>
      </trkpt>
      <trkpt lat="44.48925" lon="6.46052">
        <ele>1394.511414</ele>
        <time>2026-07-27T10:40:26.000Z</time>
      </trkpt>
      <trkpt lat="44.48927" lon="6.46055">
        <ele>1393.715034</ele>
        <time>2026-07-27T10:40:29.000Z</time>
      </trkpt>
      <trkpt lat="44.48927" lon="6.46055">
        <ele>1393.715034</ele>
        <time>2026-07-27T10:40:29.000Z</time>
      </trkpt>
      <trkpt lat="44.48929" lon="6.46059">
        <ele>1393.071806</ele>
        <time>2026-07-27T10:40:29.000Z</time>
      </trkpt>
      <trkpt lat="44.48929" lon="6.46059">
        <ele>1393.071806</ele>
        <time>2026-07-27T10:40:29.000Z</time>
      </trkpt>
      <trkpt lat="44.48931" lon="6.46062">
        <ele>1392.392069</ele>
        <time>2026-07-27T10:40:30.000Z</time>
      </trkpt>
      <trkpt lat="44.48931" lon="6.46062">
        <ele>1392.392069</ele>
        <time>2026-07-27T10:40:30.000Z</time>
      </trkpt>
      <trkpt lat="44.48933" lon="6.46065">
        <ele>1391.712332</ele>
        <time>2026-07-27T10:40:31.000Z</time>
      </trkpt>
      <trkpt lat="44.48933" lon="6.46065">
        <ele>1391.712332</ele>
        <time>2026-07-27T10:40:31.000Z</time>
      </trkpt>
      <trkpt lat="44.48934" lon="6.4607">
        <ele>1390.985642</ele>
        <time>2026-07-27T10:40:33.000Z</time>
      </trkpt>
      <trkpt lat="44.48934" lon="6.4607">
        <ele>1390.985642</ele>
        <time>2026-07-27T10:40:33.000Z</time>
      </trkpt>
      <trkpt lat="44.48935" lon="6.46074">
        <ele>1390.303162</ele>
        <time>2026-07-27T10:40:33.000Z</time>
      </trkpt>
      <trkpt lat="44.48935" lon="6.46074">
        <ele>1390.303162</ele>
        <time>2026-07-27T10:40:33.000Z</time>
      </trkpt>
      <trkpt lat="44.48934" lon="6.4608">
        <ele>1389.370414</ele>
        <time>2026-07-27T10:40:34.000Z</time>
      </trkpt>
      <trkpt lat="44.48934" lon="6.4608">
        <ele>1389.370414</ele>
        <time>2026-07-27T10:40:34.000Z</time>
      </trkpt>
      <trkpt lat="44.48935" lon="6.46086">
        <ele>1388.444617</ele>
        <time>2026-07-27T10:40:35.000Z</time>
      </trkpt>
      <trkpt lat="44.48935" lon="6.46086">
        <ele>1388.444617</ele>
        <time>2026-07-27T10:40:35.000Z</time>
      </trkpt>
      <trkpt lat="44.48937" lon="6.46091">
        <ele>1387.55302</ele>
        <time>2026-07-27T10:40:36.000Z</time>
      </trkpt>
      <trkpt lat="44.48937" lon="6.46091">
        <ele>1387.55302</ele>
        <time>2026-07-27T10:40:36.000Z</time>
      </trkpt>
      <trkpt lat="44.48938" lon="6.46096">
        <ele>1386.685015</ele>
        <time>2026-07-27T10:40:37.000Z</time>
      </trkpt>
      <trkpt lat="44.48938" lon="6.46096">
        <ele>1386.685015</ele>
        <time>2026-07-27T10:40:37.000Z</time>
      </trkpt>
      <trkpt lat="44.48938" lon="6.46102">
        <ele>1385.693498</ele>
        <time>2026-07-27T10:40:38.000Z</time>
      </trkpt>
      <trkpt lat="44.48938" lon="6.46102">
        <ele>1385.693498</ele>
        <time>2026-07-27T10:40:38.000Z</time>
      </trkpt>
      <trkpt lat="44.48938" lon="6.4611">
        <ele>1384.481643</ele>
        <time>2026-07-27T10:40:39.000Z</time>
      </trkpt>
      <trkpt lat="44.48938" lon="6.4611">
        <ele>1384.481643</ele>
        <time>2026-07-27T10:40:39.000Z</time>
      </trkpt>
      <trkpt lat="44.48938" lon="6.46119">
        <ele>1383.06519</ele>
        <time>2026-07-27T10:40:40.000Z</time>
      </trkpt>
      <trkpt lat="44.48938" lon="6.46119">
        <ele>1383.06519</ele>
        <time>2026-07-27T10:40:40.000Z</time>
      </trkpt>
      <trkpt lat="44.48936" lon="6.46138">
        <ele>1380.119208</ele>
        <time>2026-07-27T10:40:42.000Z</time>
      </trkpt>
      <trkpt lat="44.48936" lon="6.46138">
        <ele>1380.119208</ele>
        <time>2026-07-27T10:40:42.000Z</time>
      </trkpt>
      <trkpt lat="44.48935" lon="6.46147">
        <ele>1378.572507</ele>
        <time>2026-07-27T10:40:43.000Z</time>
      </trkpt>
      <trkpt lat="44.48935" lon="6.46147">
        <ele>1378.572507</ele>
        <time>2026-07-27T10:40:43.000Z</time>
      </trkpt>
      <trkpt lat="44.48933" lon="6.46163">
        <ele>1376.019717</ele>
        <time>2026-07-27T10:40:45.000Z</time>
      </trkpt>
      <trkpt lat="44.48933" lon="6.46163">
        <ele>1376.019717</ele>
        <time>2026-07-27T10:40:45.000Z</time>
      </trkpt>
      <trkpt lat="44.48933" lon="6.46169">
        <ele>1375.047334</ele>
        <time>2026-07-27T10:40:45.000Z</time>
      </trkpt>
      <trkpt lat="44.48933" lon="6.46169">
        <ele>1375.047334</ele>
        <time>2026-07-27T10:40:45.000Z</time>
      </trkpt>
      <trkpt lat="44.48938" lon="6.46176">
        <ele>1373.561004</ele>
        <time>2026-07-27T10:40:48.000Z</time>
      </trkpt>
      <trkpt lat="44.48938" lon="6.46176">
        <ele>1373.561004</ele>
        <time>2026-07-27T10:40:48.000Z</time>
      </trkpt>
      <trkpt lat="44.48938" lon="6.46176">
        <ele>1373.561004</ele>
        <time>2026-07-27T10:40:49.000Z</time>
      </trkpt>
      <trkpt lat="44.48944" lon="6.46178">
        <ele>1372.191885</ele>
        <time>2026-07-27T10:40:51.000Z</time>
      </trkpt>
      <trkpt lat="44.48944" lon="6.46178">
        <ele>1372.191885</ele>
        <time>2026-07-27T10:40:51.000Z</time>
      </trkpt>
      <trkpt lat="44.48949" lon="6.46179">
        <ele>1371.017438</ele>
        <time>2026-07-27T10:40:54.000Z</time>
      </trkpt>
      <trkpt lat="44.48951" lon="6.46179">
        <ele>1370.74125</ele>
        <time>2026-07-27T10:40:54.000Z</time>
      </trkpt>
      <trkpt lat="44.48953" lon="6.4618">
        <ele>1370.162274</ele>
        <time>2026-07-27T10:40:55.000Z</time>
      </trkpt>
      <trkpt lat="44.48955" lon="6.4618">
        <ele>1369.718521</ele>
        <time>2026-07-27T10:40:56.000Z</time>
      </trkpt>
      <trkpt lat="44.48957" lon="6.46181">
        <ele>1369.237443</ele>
        <time>2026-07-27T10:40:57.000Z</time>
      </trkpt>
      <trkpt lat="44.48959" lon="6.46183">
        <ele>1368.771004</ele>
        <time>2026-07-27T10:40:58.000Z</time>
      </trkpt>
      <trkpt lat="44.48962" lon="6.46183">
        <ele>1368.019422</ele>
        <time>2026-07-27T10:41:00.000Z</time>
      </trkpt>
      <trkpt lat="44.48965" lon="6.46183">
        <ele>1367.505938</ele>
        <time>2026-07-27T10:41:00.000Z</time>
      </trkpt>
      <trkpt lat="44.48967" lon="6.46183">
        <ele>1367.086471</ele>
        <time>2026-07-27T10:41:01.000Z</time>
      </trkpt>
      <trkpt lat="44.48969" lon="6.46183">
        <ele>1366.662598</ele>
        <time>2026-07-27T10:41:02.000Z</time>
      </trkpt>
      <trkpt lat="44.4897" lon="6.46182">
        <ele>1366.289125</ele>
        <time>2026-07-27T10:41:03.000Z</time>
      </trkpt>
      <trkpt lat="44.48972" lon="6.46181">
        <ele>1365.923725</ele>
        <time>2026-07-27T10:41:05.000Z</time>
      </trkpt>
      <trkpt lat="44.48974" lon="6.4618">
        <ele>1365.481268</ele>
        <time>2026-07-27T10:41:05.000Z</time>
      </trkpt>
      <trkpt lat="44.48975" lon="6.4618">
        <ele>1365.127201</ele>
        <time>2026-07-27T10:41:06.000Z</time>
      </trkpt>
      <trkpt lat="44.48975" lon="6.4618">
        <ele>1365.127201</ele>
        <time>2026-07-27T10:41:06.000Z</time>
      </trkpt>
      <trkpt lat="44.48978" lon="6.46178">
        <ele>1364.486461</ele>
        <time>2026-07-27T10:41:07.000Z</time>
      </trkpt>
      <trkpt lat="44.48978" lon="6.46178">
        <ele>1364.486461</ele>
        <time>2026-07-27T10:41:07.000Z</time>
      </trkpt>
      <trkpt lat="44.4898" lon="6.46177">
        <ele>1363.866177</ele>
        <time>2026-07-27T10:41:08.000Z</time>
      </trkpt>
      <trkpt lat="44.4898" lon="6.46177">
        <ele>1363.866177</ele>
        <time>2026-07-27T10:41:08.000Z</time>
      </trkpt>
      <trkpt lat="44.48983" lon="6.46173">
        <ele>1363.128745</ele>
        <time>2026-07-27T10:41:09.000Z</time>
      </trkpt>
      <trkpt lat="44.48983" lon="6.46173">
        <ele>1363.128745</ele>
        <time>2026-07-27T10:41:09.000Z</time>
      </trkpt>
      <trkpt lat="44.48985" lon="6.46169">
        <ele>1362.469401</ele>
        <time>2026-07-27T10:41:10.000Z</time>
      </trkpt>
      <trkpt lat="44.48985" lon="6.46169">
        <ele>1362.469401</ele>
        <time>2026-07-27T10:41:10.000Z</time>
      </trkpt>
      <trkpt lat="44.48986" lon="6.46165">
        <ele>1361.93272</ele>
        <time>2026-07-27T10:41:11.000Z</time>
      </trkpt>
      <trkpt lat="44.48986" lon="6.46165">
        <ele>1361.93272</ele>
        <time>2026-07-27T10:41:11.000Z</time>
      </trkpt>
      <trkpt lat="44.48988" lon="6.4616">
        <ele>1361.36224</ele>
        <time>2026-07-27T10:41:12.000Z</time>
      </trkpt>
      <trkpt lat="44.48988" lon="6.4616">
        <ele>1361.36224</ele>
        <time>2026-07-27T10:41:12.000Z</time>
      </trkpt>
      <trkpt lat="44.48989" lon="6.46156">
        <ele>1360.77314</ele>
        <time>2026-07-27T10:41:13.000Z</time>
      </trkpt>
      <trkpt lat="44.48989" lon="6.46156">
        <ele>1360.77314</ele>
        <time>2026-07-27T10:41:13.000Z</time>
      </trkpt>
      <trkpt lat="44.48992" lon="6.46151">
        <ele>1360.088269</ele>
        <time>2026-07-27T10:41:14.000Z</time>
      </trkpt>
      <trkpt lat="44.48992" lon="6.46151">
        <ele>1360.088269</ele>
        <time>2026-07-27T10:41:14.000Z</time>
      </trkpt>
      <trkpt lat="44.48996" lon="6.46147">
        <ele>1359.312387</ele>
        <time>2026-07-27T10:41:15.000Z</time>
      </trkpt>
      <trkpt lat="44.48996" lon="6.46147">
        <ele>1359.312387</ele>
        <time>2026-07-27T10:41:15.000Z</time>
      </trkpt>
      <trkpt lat="44.48999" lon="6.46143">
        <ele>1358.529455</ele>
        <time>2026-07-27T10:41:16.000Z</time>
      </trkpt>
      <trkpt lat="44.48999" lon="6.46143">
        <ele>1358.529455</ele>
        <time>2026-07-27T10:41:16.000Z</time>
      </trkpt>
      <trkpt lat="44.49004" lon="6.46138">
        <ele>1357.644694</ele>
        <time>2026-07-27T10:41:17.000Z</time>
      </trkpt>
      <trkpt lat="44.49004" lon="6.46138">
        <ele>1357.644694</ele>
        <time>2026-07-27T10:41:17.000Z</time>
      </trkpt>
      <trkpt lat="44.49007" lon="6.46134">
        <ele>1356.865055</ele>
        <time>2026-07-27T10:41:18.000Z</time>
      </trkpt>
      <trkpt lat="44.49007" lon="6.46134">
        <ele>1356.865055</ele>
        <time>2026-07-27T10:41:18.000Z</time>
      </trkpt>
      <trkpt lat="44.4901" lon="6.46128">
        <ele>1356.096993</ele>
        <time>2026-07-27T10:41:19.000Z</time>
      </trkpt>
      <trkpt lat="44.4901" lon="6.46128">
        <ele>1356.096993</ele>
        <time>2026-07-27T10:41:19.000Z</time>
      </trkpt>
      <trkpt lat="44.49012" lon="6.46122">
        <ele>1355.313889</ele>
        <time>2026-07-27T10:41:20.000Z</time>
      </trkpt>
      <trkpt lat="44.49012" lon="6.46122">
        <ele>1355.313889</ele>
        <time>2026-07-27T10:41:20.000Z</time>
      </trkpt>
      <trkpt lat="44.49015" lon="6.46118">
        <ele>1354.637892</ele>
        <time>2026-07-27T10:41:21.000Z</time>
      </trkpt>
      <trkpt lat="44.49015" lon="6.46118">
        <ele>1354.637892</ele>
        <time>2026-07-27T10:41:21.000Z</time>
      </trkpt>
      <trkpt lat="44.49017" lon="6.46117">
        <ele>1354.241113</ele>
        <time>2026-07-27T10:41:22.000Z</time>
      </trkpt>
      <trkpt lat="44.49017" lon="6.46117">
        <ele>1354.241113</ele>
        <time>2026-07-27T10:41:22.000Z</time>
      </trkpt>
      <trkpt lat="44.49019" lon="6.46118">
        <ele>1353.85975</ele>
        <time>2026-07-27T10:41:23.000Z</time>
      </trkpt>
      <trkpt lat="44.49019" lon="6.46118">
        <ele>1353.85975</ele>
        <time>2026-07-27T10:41:23.000Z</time>
      </trkpt>
      <trkpt lat="44.4902" lon="6.4612">
        <ele>1353.612738</ele>
        <time>2026-07-27T10:41:24.000Z</time>
      </trkpt>
      <trkpt lat="44.4902" lon="6.4612">
        <ele>1353.612738</ele>
        <time>2026-07-27T10:41:24.000Z</time>
      </trkpt>
      <trkpt lat="44.49022" lon="6.46122">
        <ele>1353.282658</ele>
        <time>2026-07-27T10:41:25.000Z</time>
      </trkpt>
      <trkpt lat="44.49022" lon="6.46122">
        <ele>1353.282658</ele>
        <time>2026-07-27T10:41:25.000Z</time>
      </trkpt>
      <trkpt lat="44.49024" lon="6.46121">
        <ele>1352.826697</ele>
        <time>2026-07-27T10:41:26.000Z</time>
      </trkpt>
      <trkpt lat="44.49024" lon="6.46121">
        <ele>1352.826697</ele>
        <time>2026-07-27T10:41:26.000Z</time>
      </trkpt>
      <trkpt lat="44.49026" lon="6.4612">
        <ele>1352.555505</ele>
        <time>2026-07-27T10:41:27.000Z</time>
      </trkpt>
      <trkpt lat="44.49026" lon="6.4612">
        <ele>1352.555505</ele>
        <time>2026-07-27T10:41:27.000Z</time>
      </trkpt>
      <trkpt lat="44.49028" lon="6.46118">
        <ele>1352.062243</ele>
        <time>2026-07-27T10:41:28.000Z</time>
      </trkpt>
      <trkpt lat="44.49028" lon="6.46118">
        <ele>1352.062243</ele>
        <time>2026-07-27T10:41:28.000Z</time>
      </trkpt>
      <trkpt lat="44.49032" lon="6.46116">
        <ele>1351.455623</ele>
        <time>2026-07-27T10:41:29.000Z</time>
      </trkpt>
      <trkpt lat="44.49032" lon="6.46116">
        <ele>1351.455623</ele>
        <time>2026-07-27T10:41:29.000Z</time>
      </trkpt>
      <trkpt lat="44.49035" lon="6.46116">
        <ele>1351.002498</ele>
        <time>2026-07-27T10:41:30.000Z</time>
      </trkpt>
      <trkpt lat="44.49035" lon="6.46116">
        <ele>1351.002498</ele>
        <time>2026-07-27T10:41:30.000Z</time>
      </trkpt>
      <trkpt lat="44.49037" lon="6.46118">
        <ele>1350.528306</ele>
        <time>2026-07-27T10:41:31.000Z</time>
      </trkpt>
      <trkpt lat="44.49037" lon="6.46118">
        <ele>1350.528306</ele>
        <time>2026-07-27T10:41:31.000Z</time>
      </trkpt>
      <trkpt lat="44.49039" lon="6.46119">
        <ele>1350.18311</ele>
        <time>2026-07-27T10:41:32.000Z</time>
      </trkpt>
      <trkpt lat="44.49039" lon="6.46119">
        <ele>1350.18311</ele>
        <time>2026-07-27T10:41:32.000Z</time>
      </trkpt>
      <trkpt lat="44.4904" lon="6.46121">
        <ele>1349.918679</ele>
        <time>2026-07-27T10:41:34.000Z</time>
      </trkpt>
      <trkpt lat="44.4904" lon="6.46123">
        <ele>1349.725993</ele>
        <time>2026-07-27T10:41:34.000Z</time>
      </trkpt>
      <trkpt lat="44.49041" lon="6.46124">
        <ele>1349.471088</ele>
        <time>2026-07-27T10:41:35.000Z</time>
      </trkpt>
      <trkpt lat="44.49043" lon="6.46124">
        <ele>1349.20469</ele>
        <time>2026-07-27T10:41:36.000Z</time>
      </trkpt>
      <trkpt lat="44.49046" lon="6.46122">
        <ele>1348.615311</ele>
        <time>2026-07-27T10:41:37.000Z</time>
      </trkpt>
      <trkpt lat="44.49049" lon="6.46119">
        <ele>1348.000273</ele>
        <time>2026-07-27T10:41:38.000Z</time>
      </trkpt>
      <trkpt lat="44.49052" lon="6.46116">
        <ele>1347.437755</ele>
        <time>2026-07-27T10:41:39.000Z</time>
      </trkpt>
      <trkpt lat="44.49055" lon="6.46113">
        <ele>1346.762556</ele>
        <time>2026-07-27T10:41:40.000Z</time>
      </trkpt>
      <trkpt lat="44.49055" lon="6.46113">
        <ele>1346.762556</ele>
        <time>2026-07-27T10:41:40.000Z</time>
      </trkpt>
      <trkpt lat="44.49059" lon="6.46109">
        <ele>1346.026514</ele>
        <time>2026-07-27T10:41:41.000Z</time>
      </trkpt>
      <trkpt lat="44.49059" lon="6.46109">
        <ele>1346.026514</ele>
        <time>2026-07-27T10:41:41.000Z</time>
      </trkpt>
      <trkpt lat="44.49063" lon="6.46106">
        <ele>1345.296673</ele>
        <time>2026-07-27T10:41:42.000Z</time>
      </trkpt>
      <trkpt lat="44.49063" lon="6.46106">
        <ele>1345.296673</ele>
        <time>2026-07-27T10:41:42.000Z</time>
      </trkpt>
      <trkpt lat="44.49067" lon="6.46102">
        <ele>1344.442123</ele>
        <time>2026-07-27T10:41:43.000Z</time>
      </trkpt>
      <trkpt lat="44.49067" lon="6.46102">
        <ele>1344.442123</ele>
        <time>2026-07-27T10:41:43.000Z</time>
      </trkpt>
      <trkpt lat="44.49072" lon="6.46098">
        <ele>1343.592964</ele>
        <time>2026-07-27T10:41:44.000Z</time>
      </trkpt>
      <trkpt lat="44.49072" lon="6.46098">
        <ele>1343.592964</ele>
        <time>2026-07-27T10:41:44.000Z</time>
      </trkpt>
      <trkpt lat="44.49072" lon="6.46097">
        <ele>1343.497314</ele>
        <time>2026-07-27T10:41:45.000Z</time>
      </trkpt>
      <trkpt lat="44.49073" lon="6.46096">
        <ele>1343.229993</ele>
        <time>2026-07-27T10:41:46.000Z</time>
      </trkpt>
      <trkpt lat="44.4908" lon="6.46077">
        <ele>1340.725989</ele>
        <time>2026-07-27T10:41:47.000Z</time>
      </trkpt>
      <trkpt lat="44.4908" lon="6.46077">
        <ele>1340.725989</ele>
        <time>2026-07-27T10:41:47.000Z</time>
      </trkpt>
      <trkpt lat="44.4908" lon="6.46075">
        <ele>1340.493045</ele>
        <time>2026-07-27T10:41:48.000Z</time>
      </trkpt>
      <trkpt lat="44.49081" lon="6.46064">
        <ele>1339.256973</ele>
        <time>2026-07-27T10:41:49.000Z</time>
      </trkpt>
      <trkpt lat="44.49081" lon="6.46064">
        <ele>1339.256973</ele>
        <time>2026-07-27T10:41:49.000Z</time>
      </trkpt>
      <trkpt lat="44.49081" lon="6.46059">
        <ele>1338.613057</ele>
        <time>2026-07-27T10:41:50.000Z</time>
      </trkpt>
      <trkpt lat="44.49081" lon="6.46059">
        <ele>1338.613057</ele>
        <time>2026-07-27T10:41:50.000Z</time>
      </trkpt>
      <trkpt lat="44.49082" lon="6.46059">
        <ele>1338.474379</ele>
        <time>2026-07-27T10:41:51.000Z</time>
      </trkpt>
      <trkpt lat="44.49083" lon="6.46055">
        <ele>1337.9924</ele>
        <time>2026-07-27T10:41:52.000Z</time>
      </trkpt>
      <trkpt lat="44.49083" lon="6.46055">
        <ele>1337.9924</ele>
        <time>2026-07-27T10:41:52.000Z</time>
      </trkpt>
      <trkpt lat="44.49088" lon="6.46036">
        <ele>1335.559462</ele>
        <time>2026-07-27T10:41:53.000Z</time>
      </trkpt>
      <trkpt lat="44.49088" lon="6.46036">
        <ele>1335.559462</ele>
        <time>2026-07-27T10:41:53.000Z</time>
      </trkpt>
      <trkpt lat="44.49091" lon="6.46024">
        <ele>1334.078457</ele>
        <time>2026-07-27T10:41:54.000Z</time>
      </trkpt>
      <trkpt lat="44.49093" lon="6.46016">
        <ele>1333.426298</ele>
        <time>2026-07-27T10:41:55.000Z</time>
      </trkpt>
      <trkpt lat="44.49093" lon="6.46009">
        <ele>1333.147624</ele>
        <time>2026-07-27T10:41:56.000Z</time>
      </trkpt>
      <trkpt lat="44.49094" lon="6.46004">
        <ele>1332.922114</ele>
        <time>2026-07-27T10:41:57.000Z</time>
      </trkpt>
      <trkpt lat="44.49094" lon="6.46004">
        <ele>1332.922114</ele>
        <time>2026-07-27T10:41:57.000Z</time>
      </trkpt>
      <trkpt lat="44.49095" lon="6.45998">
        <ele>1332.663353</ele>
        <time>2026-07-27T10:41:58.000Z</time>
      </trkpt>
      <trkpt lat="44.49096" lon="6.45992">
        <ele>1332.413982</ele>
        <time>2026-07-27T10:41:59.000Z</time>
      </trkpt>
      <trkpt lat="44.49096" lon="6.45986">
        <ele>1332.159387</ele>
        <time>2026-07-27T10:42:00.000Z</time>
      </trkpt>
      <trkpt lat="44.49097" lon="6.45981">
        <ele>1331.92143</ele>
        <time>2026-07-27T10:42:02.000Z</time>
      </trkpt>
      <trkpt lat="44.49097" lon="6.45974">
        <ele>1331.657992</ele>
        <time>2026-07-27T10:42:03.000Z</time>
      </trkpt>
      <trkpt lat="44.49098" lon="6.45968">
        <ele>1331.38672</ele>
        <time>2026-07-27T10:42:03.000Z</time>
      </trkpt>
      <trkpt lat="44.49099" lon="6.45961">
        <ele>1331.094557</ele>
        <time>2026-07-27T10:42:04.000Z</time>
      </trkpt>
      <trkpt lat="44.49099" lon="6.45961">
        <ele>1331.094557</ele>
        <time>2026-07-27T10:42:04.000Z</time>
      </trkpt>
      <trkpt lat="44.49099" lon="6.45954">
        <ele>1330.768134</ele>
        <time>2026-07-27T10:42:05.000Z</time>
      </trkpt>
      <trkpt lat="44.491" lon="6.45947">
        <ele>1330.460129</ele>
        <time>2026-07-27T10:42:07.000Z</time>
      </trkpt>
      <trkpt lat="44.491" lon="6.45947">
        <ele>1330.460129</ele>
        <time>2026-07-27T10:42:07.000Z</time>
      </trkpt>
      <trkpt lat="44.49102" lon="6.45939">
        <ele>1330.110721</ele>
        <time>2026-07-27T10:42:08.000Z</time>
      </trkpt>
      <trkpt lat="44.49105" lon="6.45932">
        <ele>1329.795514</ele>
        <time>2026-07-27T10:42:09.000Z</time>
      </trkpt>
      <trkpt lat="44.49105" lon="6.45932">
        <ele>1329.795514</ele>
        <time>2026-07-27T10:42:09.000Z</time>
      </trkpt>
      <trkpt lat="44.49109" lon="6.45925">
        <ele>1329.419232</ele>
        <time>2026-07-27T10:42:10.000Z</time>
      </trkpt>
      <trkpt lat="44.49109" lon="6.45925">
        <ele>1329.419232</ele>
        <time>2026-07-27T10:42:10.000Z</time>
      </trkpt>
      <trkpt lat="44.49113" lon="6.45919">
        <ele>1329.050577</ele>
        <time>2026-07-27T10:42:11.000Z</time>
      </trkpt>
      <trkpt lat="44.49113" lon="6.45919">
        <ele>1329.050577</ele>
        <time>2026-07-27T10:42:11.000Z</time>
      </trkpt>
      <trkpt lat="44.49117" lon="6.45913">
        <ele>1328.72293</ele>
        <time>2026-07-27T10:42:12.000Z</time>
      </trkpt>
      <trkpt lat="44.49117" lon="6.45913">
        <ele>1328.72293</ele>
        <time>2026-07-27T10:42:12.000Z</time>
      </trkpt>
      <trkpt lat="44.49121" lon="6.45909">
        <ele>1328.406192</ele>
        <time>2026-07-27T10:42:13.000Z</time>
      </trkpt>
      <trkpt lat="44.49121" lon="6.45909">
        <ele>1328.406192</ele>
        <time>2026-07-27T10:42:13.000Z</time>
      </trkpt>
      <trkpt lat="44.49125" lon="6.45905">
        <ele>1328.117972</ele>
        <time>2026-07-27T10:42:14.000Z</time>
      </trkpt>
      <trkpt lat="44.49125" lon="6.45905">
        <ele>1328.117972</ele>
        <time>2026-07-27T10:42:14.000Z</time>
      </trkpt>
      <trkpt lat="44.49129" lon="6.45902">
        <ele>1327.860855</ele>
        <time>2026-07-27T10:42:15.000Z</time>
      </trkpt>
      <trkpt lat="44.49129" lon="6.45902">
        <ele>1327.860855</ele>
        <time>2026-07-27T10:42:15.000Z</time>
      </trkpt>
      <trkpt lat="44.49132" lon="6.459">
        <ele>1327.627418</ele>
        <time>2026-07-27T10:42:16.000Z</time>
      </trkpt>
      <trkpt lat="44.49132" lon="6.459">
        <ele>1327.627418</ele>
        <time>2026-07-27T10:42:16.000Z</time>
      </trkpt>
      <trkpt lat="44.49136" lon="6.45897">
        <ele>1327.386389</ele>
        <time>2026-07-27T10:42:17.000Z</time>
      </trkpt>
      <trkpt lat="44.49136" lon="6.45897">
        <ele>1327.386389</ele>
        <time>2026-07-27T10:42:17.000Z</time>
      </trkpt>
      <trkpt lat="44.49139" lon="6.45892">
        <ele>1327.093495</ele>
        <time>2026-07-27T10:42:18.000Z</time>
      </trkpt>
      <trkpt lat="44.49139" lon="6.45892">
        <ele>1327.093495</ele>
        <time>2026-07-27T10:42:18.000Z</time>
      </trkpt>
      <trkpt lat="44.49143" lon="6.45888">
        <ele>1326.828298</ele>
        <time>2026-07-27T10:42:19.000Z</time>
      </trkpt>
      <trkpt lat="44.49143" lon="6.45888">
        <ele>1326.828298</ele>
        <time>2026-07-27T10:42:19.000Z</time>
      </trkpt>
      <trkpt lat="44.49146" lon="6.45884">
        <ele>1326.582255</ele>
        <time>2026-07-27T10:42:20.000Z</time>
      </trkpt>
      <trkpt lat="44.49146" lon="6.45884">
        <ele>1326.582255</ele>
        <time>2026-07-27T10:42:20.000Z</time>
      </trkpt>
      <trkpt lat="44.49148" lon="6.45881">
        <ele>1326.392265</ele>
        <time>2026-07-27T10:42:20.000Z</time>
      </trkpt>
      <trkpt lat="44.49148" lon="6.45881">
        <ele>1326.392265</ele>
        <time>2026-07-27T10:42:20.000Z</time>
      </trkpt>
      <trkpt lat="44.49151" lon="6.45879">
        <ele>1326.175707</ele>
        <time>2026-07-27T10:42:22.000Z</time>
      </trkpt>
      <trkpt lat="44.49151" lon="6.45879">
        <ele>1326.175707</ele>
        <time>2026-07-27T10:42:22.000Z</time>
      </trkpt>
      <trkpt lat="44.49154" lon="6.45876">
        <ele>1325.969223</ele>
        <time>2026-07-27T10:42:23.000Z</time>
      </trkpt>
      <trkpt lat="44.49154" lon="6.45876">
        <ele>1325.969223</ele>
        <time>2026-07-27T10:42:23.000Z</time>
      </trkpt>
      <trkpt lat="44.49159" lon="6.45875">
        <ele>1325.68541</ele>
        <time>2026-07-27T10:42:24.000Z</time>
      </trkpt>
      <trkpt lat="44.49159" lon="6.45875">
        <ele>1325.68541</ele>
        <time>2026-07-27T10:42:24.000Z</time>
      </trkpt>
      <trkpt lat="44.49164" lon="6.45872">
        <ele>1325.356931</ele>
        <time>2026-07-27T10:42:25.000Z</time>
      </trkpt>
      <trkpt lat="44.49164" lon="6.45872">
        <ele>1325.356931</ele>
        <time>2026-07-27T10:42:25.000Z</time>
      </trkpt>
      <trkpt lat="44.49164" lon="6.45873">
        <ele>1325.325083</ele>
        <time>2026-07-27T10:42:26.000Z</time>
      </trkpt>
      <trkpt lat="44.4917" lon="6.45875">
        <ele>1324.947406</ele>
        <time>2026-07-27T10:42:27.000Z</time>
      </trkpt>
      <trkpt lat="44.4917" lon="6.45875">
        <ele>1324.947406</ele>
        <time>2026-07-27T10:42:27.000Z</time>
      </trkpt>
      <trkpt lat="44.49176" lon="6.45871">
        <ele>1324.560714</ele>
        <time>2026-07-27T10:42:28.000Z</time>
      </trkpt>
      <trkpt lat="44.49176" lon="6.45871">
        <ele>1324.560714</ele>
        <time>2026-07-27T10:42:28.000Z</time>
      </trkpt>
      <trkpt lat="44.49183" lon="6.45871">
        <ele>1324.150583</ele>
        <time>2026-07-27T10:42:29.000Z</time>
      </trkpt>
      <trkpt lat="44.49183" lon="6.45871">
        <ele>1324.150583</ele>
        <time>2026-07-27T10:42:29.000Z</time>
      </trkpt>
      <trkpt lat="44.49188" lon="6.45869">
        <ele>1323.848382</ele>
        <time>2026-07-27T10:42:30.000Z</time>
      </trkpt>
      <trkpt lat="44.49188" lon="6.45869">
        <ele>1323.848382</ele>
        <time>2026-07-27T10:42:30.000Z</time>
      </trkpt>
      <trkpt lat="44.49192" lon="6.45869">
        <ele>1323.556083</ele>
        <time>2026-07-27T10:42:31.000Z</time>
      </trkpt>
      <trkpt lat="44.49192" lon="6.45869">
        <ele>1323.556083</ele>
        <time>2026-07-27T10:42:31.000Z</time>
      </trkpt>
      <trkpt lat="44.49196" lon="6.45868">
        <ele>1323.345984</ele>
        <time>2026-07-27T10:42:32.000Z</time>
      </trkpt>
      <trkpt lat="44.49196" lon="6.45868">
        <ele>1323.345984</ele>
        <time>2026-07-27T10:42:32.000Z</time>
      </trkpt>
      <trkpt lat="44.49198" lon="6.45868">
        <ele>1323.232756</ele>
        <time>2026-07-27T10:42:33.000Z</time>
      </trkpt>
      <trkpt lat="44.49198" lon="6.45868">
        <ele>1323.232756</ele>
        <time>2026-07-27T10:42:33.000Z</time>
      </trkpt>
      <trkpt lat="44.492" lon="6.45868">
        <ele>1323.095812</ele>
        <time>2026-07-27T10:42:34.000Z</time>
      </trkpt>
      <trkpt lat="44.492" lon="6.45868">
        <ele>1323.095812</ele>
        <time>2026-07-27T10:42:34.000Z</time>
      </trkpt>
      <trkpt lat="44.49203" lon="6.45868">
        <ele>1322.917482</ele>
        <time>2026-07-27T10:42:35.000Z</time>
      </trkpt>
      <trkpt lat="44.49203" lon="6.45868">
        <ele>1322.917482</ele>
        <time>2026-07-27T10:42:35.000Z</time>
      </trkpt>
      <trkpt lat="44.49207" lon="6.45868">
        <ele>1322.27588</ele>
        <time>2026-07-27T10:42:35.000Z</time>
      </trkpt>
      <trkpt lat="44.49207" lon="6.45868">
        <ele>1322.27588</ele>
        <time>2026-07-27T10:42:35.000Z</time>
      </trkpt>
      <trkpt lat="44.49212" lon="6.45868">
        <ele>1321.621613</ele>
        <time>2026-07-27T10:42:37.000Z</time>
      </trkpt>
      <trkpt lat="44.49212" lon="6.45868">
        <ele>1321.621613</ele>
        <time>2026-07-27T10:42:37.000Z</time>
      </trkpt>
      <trkpt lat="44.49216" lon="6.45868">
        <ele>1320.905188</ele>
        <time>2026-07-27T10:42:38.000Z</time>
      </trkpt>
      <trkpt lat="44.49216" lon="6.45868">
        <ele>1320.905188</ele>
        <time>2026-07-27T10:42:38.000Z</time>
      </trkpt>
      <trkpt lat="44.49221" lon="6.45868">
        <ele>1320.189538</ele>
        <time>2026-07-27T10:42:39.000Z</time>
      </trkpt>
      <trkpt lat="44.49221" lon="6.45868">
        <ele>1320.189538</ele>
        <time>2026-07-27T10:42:39.000Z</time>
      </trkpt>
      <trkpt lat="44.49226" lon="6.45869">
        <ele>1319.361332</ele>
        <time>2026-07-27T10:42:40.000Z</time>
      </trkpt>
      <trkpt lat="44.49226" lon="6.45869">
        <ele>1319.361332</ele>
        <time>2026-07-27T10:42:40.000Z</time>
      </trkpt>
      <trkpt lat="44.49226" lon="6.45869">
        <ele>1319.361332</ele>
        <time>2026-07-27T10:42:41.000Z</time>
      </trkpt>
      <trkpt lat="44.49233" lon="6.45869">
        <ele>1318.287857</ele>
        <time>2026-07-27T10:42:42.000Z</time>
      </trkpt>
      <trkpt lat="44.49233" lon="6.45869">
        <ele>1318.287857</ele>
        <time>2026-07-27T10:42:42.000Z</time>
      </trkpt>
      <trkpt lat="44.49235" lon="6.45868">
        <ele>1317.921695</ele>
        <time>2026-07-27T10:42:43.000Z</time>
      </trkpt>
      <trkpt lat="44.49235" lon="6.45868">
        <ele>1317.921695</ele>
        <time>2026-07-27T10:42:43.000Z</time>
      </trkpt>
      <trkpt lat="44.49238" lon="6.45869">
        <ele>1317.505048</ele>
        <time>2026-07-27T10:42:44.000Z</time>
      </trkpt>
      <trkpt lat="44.49238" lon="6.45869">
        <ele>1317.505048</ele>
        <time>2026-07-27T10:42:44.000Z</time>
      </trkpt>
      <trkpt lat="44.49242" lon="6.45869">
        <ele>1316.913859</ele>
        <time>2026-07-27T10:42:45.000Z</time>
      </trkpt>
      <trkpt lat="44.49242" lon="6.45869">
        <ele>1316.913859</ele>
        <time>2026-07-27T10:42:45.000Z</time>
      </trkpt>
      <trkpt lat="44.49246" lon="6.45869">
        <ele>1316.198122</ele>
        <time>2026-07-27T10:42:46.000Z</time>
      </trkpt>
      <trkpt lat="44.49246" lon="6.45869">
        <ele>1316.198122</ele>
        <time>2026-07-27T10:42:46.000Z</time>
      </trkpt>
      <trkpt lat="44.49251" lon="6.4587">
        <ele>1315.418265</ele>
        <time>2026-07-27T10:42:47.000Z</time>
      </trkpt>
      <trkpt lat="44.49251" lon="6.4587">
        <ele>1315.418265</ele>
        <time>2026-07-27T10:42:47.000Z</time>
      </trkpt>
      <trkpt lat="44.4926" lon="6.4587">
        <ele>1314.110671</ele>
        <time>2026-07-27T10:42:48.000Z</time>
      </trkpt>
      <trkpt lat="44.4926" lon="6.4587">
        <ele>1314.110671</ele>
        <time>2026-07-27T10:42:48.000Z</time>
      </trkpt>
      <trkpt lat="44.49266" lon="6.4587">
        <ele>1313.052694</ele>
        <time>2026-07-27T10:42:49.000Z</time>
      </trkpt>
      <trkpt lat="44.49266" lon="6.4587">
        <ele>1313.052694</ele>
        <time>2026-07-27T10:42:49.000Z</time>
      </trkpt>
      <trkpt lat="44.49273" lon="6.4587">
        <ele>1312.040475</ele>
        <time>2026-07-27T10:42:50.000Z</time>
      </trkpt>
      <trkpt lat="44.49273" lon="6.4587">
        <ele>1312.040475</ele>
        <time>2026-07-27T10:42:50.000Z</time>
      </trkpt>
      <trkpt lat="44.49279" lon="6.4587">
        <ele>1311.153066</ele>
        <time>2026-07-27T10:42:51.000Z</time>
      </trkpt>
      <trkpt lat="44.49279" lon="6.4587">
        <ele>1311.153066</ele>
        <time>2026-07-27T10:42:51.000Z</time>
      </trkpt>
      <trkpt lat="44.49284" lon="6.45869">
        <ele>1310.25011</ele>
        <time>2026-07-27T10:42:52.000Z</time>
      </trkpt>
      <trkpt lat="44.49284" lon="6.45869">
        <ele>1310.25011</ele>
        <time>2026-07-27T10:42:52.000Z</time>
      </trkpt>
      <trkpt lat="44.4929" lon="6.45869">
        <ele>1309.357719</ele>
        <time>2026-07-27T10:42:53.000Z</time>
      </trkpt>
      <trkpt lat="44.4929" lon="6.45869">
        <ele>1309.357719</ele>
        <time>2026-07-27T10:42:53.000Z</time>
      </trkpt>
      <trkpt lat="44.49296" lon="6.45868">
        <ele>1308.466501</ele>
        <time>2026-07-27T10:42:54.000Z</time>
      </trkpt>
      <trkpt lat="44.49296" lon="6.45868">
        <ele>1308.466501</ele>
        <time>2026-07-27T10:42:54.000Z</time>
      </trkpt>
      <trkpt lat="44.49302" lon="6.45867">
        <ele>1307.576321</ele>
        <time>2026-07-27T10:42:55.000Z</time>
      </trkpt>
      <trkpt lat="44.49302" lon="6.45867">
        <ele>1307.576321</ele>
        <time>2026-07-27T10:42:55.000Z</time>
      </trkpt>
      <trkpt lat="44.49307" lon="6.45866">
        <ele>1306.730293</ele>
        <time>2026-07-27T10:42:56.000Z</time>
      </trkpt>
      <trkpt lat="44.49307" lon="6.45866">
        <ele>1306.730293</ele>
        <time>2026-07-27T10:42:56.000Z</time>
      </trkpt>
      <trkpt lat="44.49313" lon="6.45865">
        <ele>1305.840113</ele>
        <time>2026-07-27T10:42:57.000Z</time>
      </trkpt>
      <trkpt lat="44.49313" lon="6.45865">
        <ele>1305.840113</ele>
        <time>2026-07-27T10:42:57.000Z</time>
      </trkpt>
      <trkpt lat="44.49319" lon="6.45864">
        <ele>1304.820136</ele>
        <time>2026-07-27T10:42:58.000Z</time>
      </trkpt>
      <trkpt lat="44.49319" lon="6.45864">
        <ele>1304.820136</ele>
        <time>2026-07-27T10:42:58.000Z</time>
      </trkpt>
      <trkpt lat="44.49326" lon="6.45863">
        <ele>1303.75087</ele>
        <time>2026-07-27T10:42:59.000Z</time>
      </trkpt>
      <trkpt lat="44.49326" lon="6.45863">
        <ele>1303.75087</ele>
        <time>2026-07-27T10:42:59.000Z</time>
      </trkpt>
      <trkpt lat="44.49331" lon="6.45861">
        <ele>1302.896513</ele>
        <time>2026-07-27T10:43:00.000Z</time>
      </trkpt>
      <trkpt lat="44.49331" lon="6.45861">
        <ele>1302.896513</ele>
        <time>2026-07-27T10:43:00.000Z</time>
      </trkpt>
      <trkpt lat="44.49337" lon="6.4586">
        <ele>1302.061274</ele>
        <time>2026-07-27T10:43:01.000Z</time>
      </trkpt>
      <trkpt lat="44.49337" lon="6.4586">
        <ele>1302.061274</ele>
        <time>2026-07-27T10:43:01.000Z</time>
      </trkpt>
      <trkpt lat="44.4934" lon="6.45861">
        <ele>1301.461706</ele>
        <time>2026-07-27T10:43:02.000Z</time>
      </trkpt>
      <trkpt lat="44.4934" lon="6.45861">
        <ele>1301.461706</ele>
        <time>2026-07-27T10:43:02.000Z</time>
      </trkpt>
      <trkpt lat="44.49345" lon="6.45861">
        <ele>1300.805934</ele>
        <time>2026-07-27T10:43:03.000Z</time>
      </trkpt>
      <trkpt lat="44.49345" lon="6.45861">
        <ele>1300.805934</ele>
        <time>2026-07-27T10:43:03.000Z</time>
      </trkpt>
      <trkpt lat="44.49349" lon="6.4586">
        <ele>1300.08994</ele>
        <time>2026-07-27T10:43:04.000Z</time>
      </trkpt>
      <trkpt lat="44.49349" lon="6.4586">
        <ele>1300.08994</ele>
        <time>2026-07-27T10:43:04.000Z</time>
      </trkpt>
      <trkpt lat="44.49354" lon="6.4586">
        <ele>1299.307009</ele>
        <time>2026-07-27T10:43:05.000Z</time>
      </trkpt>
      <trkpt lat="44.49354" lon="6.4586">
        <ele>1299.307009</ele>
        <time>2026-07-27T10:43:05.000Z</time>
      </trkpt>
      <trkpt lat="44.49359" lon="6.45859">
        <ele>1298.602619</ele>
        <time>2026-07-27T10:43:06.000Z</time>
      </trkpt>
      <trkpt lat="44.49359" lon="6.45859">
        <ele>1298.602619</ele>
        <time>2026-07-27T10:43:06.000Z</time>
      </trkpt>
      <trkpt lat="44.49364" lon="6.45857">
        <ele>1297.739085</ele>
        <time>2026-07-27T10:43:07.000Z</time>
      </trkpt>
      <trkpt lat="44.49364" lon="6.45857">
        <ele>1297.739085</ele>
        <time>2026-07-27T10:43:07.000Z</time>
      </trkpt>
      <trkpt lat="44.49369" lon="6.45855">
        <ele>1296.931573</ele>
        <time>2026-07-27T10:43:08.000Z</time>
      </trkpt>
      <trkpt lat="44.49369" lon="6.45855">
        <ele>1296.931573</ele>
        <time>2026-07-27T10:43:08.000Z</time>
      </trkpt>
      <trkpt lat="44.49369" lon="6.45855">
        <ele>1296.860996</ele>
        <time>2026-07-27T10:43:09.000Z</time>
      </trkpt>
      <trkpt lat="44.49373" lon="6.45854">
        <ele>1296.257335</ele>
        <time>2026-07-27T10:43:10.000Z</time>
      </trkpt>
      <trkpt lat="44.49377" lon="6.45853">
        <ele>1295.597911</ele>
        <time>2026-07-27T10:43:11.000Z</time>
      </trkpt>
      <trkpt lat="44.49383" lon="6.45843">
        <ele>1293.802931</ele>
        <time>2026-07-27T10:43:12.000Z</time>
      </trkpt>
      <trkpt lat="44.49383" lon="6.45843">
        <ele>1293.802931</ele>
        <time>2026-07-27T10:43:12.000Z</time>
      </trkpt>
      <trkpt lat="44.49387" lon="6.45837">
        <ele>1292.370001</ele>
        <time>2026-07-27T10:43:13.000Z</time>
      </trkpt>
      <trkpt lat="44.49387" lon="6.45837">
        <ele>1292.370001</ele>
        <time>2026-07-27T10:43:13.000Z</time>
      </trkpt>
      <trkpt lat="44.4939" lon="6.45833">
        <ele>1291.477106</ele>
        <time>2026-07-27T10:43:14.000Z</time>
      </trkpt>
      <trkpt lat="44.4939" lon="6.45833">
        <ele>1291.477106</ele>
        <time>2026-07-27T10:43:14.000Z</time>
      </trkpt>
      <trkpt lat="44.49395" lon="6.45828">
        <ele>1289.96952</ele>
        <time>2026-07-27T10:43:15.000Z</time>
      </trkpt>
      <trkpt lat="44.49395" lon="6.45828">
        <ele>1289.96952</ele>
        <time>2026-07-27T10:43:15.000Z</time>
      </trkpt>
      <trkpt lat="44.49398" lon="6.45828">
        <ele>1289.175901</ele>
        <time>2026-07-27T10:43:16.000Z</time>
      </trkpt>
      <trkpt lat="44.49398" lon="6.45828">
        <ele>1289.175901</ele>
        <time>2026-07-27T10:43:16.000Z</time>
      </trkpt>
      <trkpt lat="44.49399" lon="6.45829">
        <ele>1288.877816</ele>
        <time>2026-07-27T10:43:17.000Z</time>
      </trkpt>
      <trkpt lat="44.49401" lon="6.45831">
        <ele>1288.466998</ele>
        <time>2026-07-27T10:43:18.000Z</time>
      </trkpt>
      <trkpt lat="44.49401" lon="6.45834">
        <ele>1287.877974</ele>
        <time>2026-07-27T10:43:19.000Z</time>
      </trkpt>
      <trkpt lat="44.49402" lon="6.45838">
        <ele>1287.211869</ele>
        <time>2026-07-27T10:43:19.000Z</time>
      </trkpt>
      <trkpt lat="44.49402" lon="6.45842">
        <ele>1286.511316</ele>
        <time>2026-07-27T10:43:20.000Z</time>
      </trkpt>
      <trkpt lat="44.49401" lon="6.45848">
        <ele>1285.443732</ele>
        <time>2026-07-27T10:43:21.000Z</time>
      </trkpt>
      <trkpt lat="44.49401" lon="6.45848">
        <ele>1285.443732</ele>
        <time>2026-07-27T10:43:21.000Z</time>
      </trkpt>
      <trkpt lat="44.494" lon="6.45853">
        <ele>1284.689192</ele>
        <time>2026-07-27T10:43:23.000Z</time>
      </trkpt>
      <trkpt lat="44.494" lon="6.45853">
        <ele>1284.689192</ele>
        <time>2026-07-27T10:43:23.000Z</time>
      </trkpt>
      <trkpt lat="44.49399" lon="6.45859">
        <ele>1283.659748</ele>
        <time>2026-07-27T10:43:24.000Z</time>
      </trkpt>
      <trkpt lat="44.49399" lon="6.45859">
        <ele>1283.659748</ele>
        <time>2026-07-27T10:43:24.000Z</time>
      </trkpt>
      <trkpt lat="44.49397" lon="6.45866">
        <ele>1282.318404</ele>
        <time>2026-07-27T10:43:25.000Z</time>
      </trkpt>
      <trkpt lat="44.49397" lon="6.45866">
        <ele>1282.318404</ele>
        <time>2026-07-27T10:43:25.000Z</time>
      </trkpt>
      <trkpt lat="44.49395" lon="6.45873">
        <ele>1281.056012</ele>
        <time>2026-07-27T10:43:26.000Z</time>
      </trkpt>
      <trkpt lat="44.49395" lon="6.45873">
        <ele>1281.056012</ele>
        <time>2026-07-27T10:43:26.000Z</time>
      </trkpt>
      <trkpt lat="44.49396" lon="6.4588">
        <ele>1279.963644</ele>
        <time>2026-07-27T10:43:26.000Z</time>
      </trkpt>
      <trkpt lat="44.49396" lon="6.4588">
        <ele>1279.963644</ele>
        <time>2026-07-27T10:43:26.000Z</time>
      </trkpt>
      <trkpt lat="44.49398" lon="6.45886">
        <ele>1278.91476</ele>
        <time>2026-07-27T10:43:28.000Z</time>
      </trkpt>
      <trkpt lat="44.49398" lon="6.45886">
        <ele>1278.91476</ele>
        <time>2026-07-27T10:43:28.000Z</time>
      </trkpt>
      <trkpt lat="44.49399" lon="6.45891">
        <ele>1277.951787</ele>
        <time>2026-07-27T10:43:29.000Z</time>
      </trkpt>
      <trkpt lat="44.49399" lon="6.45891">
        <ele>1277.951787</ele>
        <time>2026-07-27T10:43:29.000Z</time>
      </trkpt>
      <trkpt lat="44.494" lon="6.45895">
        <ele>1277.192682</ele>
        <time>2026-07-27T10:43:30.000Z</time>
      </trkpt>
      <trkpt lat="44.49402" lon="6.45898">
        <ele>1276.691951</ele>
        <time>2026-07-27T10:43:31.000Z</time>
      </trkpt>
      <trkpt lat="44.49403" lon="6.45899">
        <ele>1276.305017</ele>
        <time>2026-07-27T10:43:32.000Z</time>
      </trkpt>
      <trkpt lat="44.49405" lon="6.459">
        <ele>1275.752971</ele>
        <time>2026-07-27T10:43:33.000Z</time>
      </trkpt>
      <trkpt lat="44.49407" lon="6.45899">
        <ele>1275.28577</ele>
        <time>2026-07-27T10:43:34.000Z</time>
      </trkpt>
      <trkpt lat="44.4941" lon="6.45898">
        <ele>1274.724793</ele>
        <time>2026-07-27T10:43:35.000Z</time>
      </trkpt>
      <trkpt lat="44.49411" lon="6.45897">
        <ele>1274.337859</ele>
        <time>2026-07-27T10:43:36.000Z</time>
      </trkpt>
      <trkpt lat="44.49412" lon="6.45892">
        <ele>1273.445462</ele>
        <time>2026-07-27T10:43:37.000Z</time>
      </trkpt>
      <trkpt lat="44.49414" lon="6.45888">
        <ele>1272.709184</ele>
        <time>2026-07-27T10:43:38.000Z</time>
      </trkpt>
      <trkpt lat="44.49416" lon="6.45884">
        <ele>1271.951597</ele>
        <time>2026-07-27T10:43:39.000Z</time>
      </trkpt>
      <trkpt lat="44.49418" lon="6.45882">
        <ele>1271.398095</ele>
        <time>2026-07-27T10:43:40.000Z</time>
      </trkpt>
      <trkpt lat="44.49419" lon="6.45879">
        <ele>1270.755912</ele>
        <time>2026-07-27T10:43:41.000Z</time>
      </trkpt>
      <trkpt lat="44.49422" lon="6.45877">
        <ele>1270.067619</ele>
        <time>2026-07-27T10:43:42.000Z</time>
      </trkpt>
      <trkpt lat="44.49424" lon="6.45875">
        <ele>1269.567586</ele>
        <time>2026-07-27T10:43:42.000Z</time>
      </trkpt>
      <trkpt lat="44.49425" lon="6.45876">
        <ele>1269.1993</ele>
        <time>2026-07-27T10:43:44.000Z</time>
      </trkpt>
      <trkpt lat="44.49425" lon="6.45876">
        <ele>1269.149448</ele>
        <time>2026-07-27T10:43:45.000Z</time>
      </trkpt>
      <trkpt lat="44.49426" lon="6.45877">
        <ele>1268.987104</ele>
        <time>2026-07-27T10:43:46.000Z</time>
      </trkpt>
      <trkpt lat="44.49426" lon="6.45878">
        <ele>1268.82476</ele>
        <time>2026-07-27T10:43:47.000Z</time>
      </trkpt>
      <trkpt lat="44.49427" lon="6.45879">
        <ele>1268.567166</ele>
        <time>2026-07-27T10:43:47.000Z</time>
      </trkpt>
      <trkpt lat="44.49429" lon="6.45878">
        <ele>1268.018885</ele>
        <time>2026-07-27T10:43:49.000Z</time>
      </trkpt>
      <trkpt lat="44.49432" lon="6.45878">
        <ele>1267.389683</ele>
        <time>2026-07-27T10:43:50.000Z</time>
      </trkpt>
      <trkpt lat="44.49435" lon="6.45877">
        <ele>1266.652195</ele>
        <time>2026-07-27T10:43:51.000Z</time>
      </trkpt>
      <trkpt lat="44.49438" lon="6.45876">
        <ele>1265.805547</ele>
        <time>2026-07-27T10:43:52.000Z</time>
      </trkpt>
      <trkpt lat="44.49441" lon="6.45873">
        <ele>1265.016835</ele>
        <time>2026-07-27T10:43:53.000Z</time>
      </trkpt>
      <trkpt lat="44.49444" lon="6.45871">
        <ele>1264.234463</ele>
        <time>2026-07-27T10:43:54.000Z</time>
      </trkpt>
      <trkpt lat="44.49444" lon="6.45871">
        <ele>1264.234463</ele>
        <time>2026-07-27T10:43:54.000Z</time>
      </trkpt>
      <trkpt lat="44.49446" lon="6.45868">
        <ele>1263.580142</ele>
        <time>2026-07-27T10:43:55.000Z</time>
      </trkpt>
      <trkpt lat="44.49446" lon="6.45868">
        <ele>1263.580142</ele>
        <time>2026-07-27T10:43:55.000Z</time>
      </trkpt>
      <trkpt lat="44.49448" lon="6.45865">
        <ele>1262.93796</ele>
        <time>2026-07-27T10:43:56.000Z</time>
      </trkpt>
      <trkpt lat="44.49448" lon="6.45865">
        <ele>1262.93796</ele>
        <time>2026-07-27T10:43:56.000Z</time>
      </trkpt>
      <trkpt lat="44.49448" lon="6.45865">
        <ele>1262.93796</ele>
        <time>2026-07-27T10:43:57.000Z</time>
      </trkpt>
      <trkpt lat="44.49452" lon="6.45864">
        <ele>1261.841399</ele>
        <time>2026-07-27T10:43:58.000Z</time>
      </trkpt>
      <trkpt lat="44.49452" lon="6.45864">
        <ele>1261.841399</ele>
        <time>2026-07-27T10:43:58.000Z</time>
      </trkpt>
      <trkpt lat="44.49452" lon="6.45864">
        <ele>1261.692357</ele>
        <time>2026-07-27T10:43:59.000Z</time>
      </trkpt>
      <trkpt lat="44.49452" lon="6.45864">
        <ele>1261.692357</ele>
        <time>2026-07-27T10:43:59.000Z</time>
      </trkpt>
      <trkpt lat="44.49452" lon="6.45867">
        <ele>1261.266605</ele>
        <time>2026-07-27T10:44:00.000Z</time>
      </trkpt>
      <trkpt lat="44.49452" lon="6.45867">
        <ele>1261.266605</ele>
        <time>2026-07-27T10:44:00.000Z</time>
      </trkpt>
      <trkpt lat="44.49452" lon="6.4587">
        <ele>1260.792084</ele>
        <time>2026-07-27T10:44:01.000Z</time>
      </trkpt>
      <trkpt lat="44.49452" lon="6.4587">
        <ele>1260.792084</ele>
        <time>2026-07-27T10:44:01.000Z</time>
      </trkpt>
      <trkpt lat="44.49452" lon="6.45872">
        <ele>1260.34342</ele>
        <time>2026-07-27T10:44:01.000Z</time>
      </trkpt>
      <trkpt lat="44.49452" lon="6.45872">
        <ele>1260.34342</ele>
        <time>2026-07-27T10:44:01.000Z</time>
      </trkpt>
      <trkpt lat="44.49451" lon="6.45876">
        <ele>1259.77132</ele>
        <time>2026-07-27T10:44:03.000Z</time>
      </trkpt>
      <trkpt lat="44.49451" lon="6.45876">
        <ele>1259.77132</ele>
        <time>2026-07-27T10:44:03.000Z</time>
      </trkpt>
      <trkpt lat="44.4945" lon="6.45879">
        <ele>1259.170567</ele>
        <time>2026-07-27T10:44:04.000Z</time>
      </trkpt>
      <trkpt lat="44.4945" lon="6.45879">
        <ele>1259.170567</ele>
        <time>2026-07-27T10:44:04.000Z</time>
      </trkpt>
      <trkpt lat="44.49449" lon="6.45882">
        <ele>1258.535015</ele>
        <time>2026-07-27T10:44:05.000Z</time>
      </trkpt>
      <trkpt lat="44.49449" lon="6.45882">
        <ele>1258.535015</ele>
        <time>2026-07-27T10:44:05.000Z</time>
      </trkpt>
      <trkpt lat="44.49447" lon="6.45886">
        <ele>1257.743798</ele>
        <time>2026-07-27T10:44:06.000Z</time>
      </trkpt>
      <trkpt lat="44.49447" lon="6.45886">
        <ele>1257.743798</ele>
        <time>2026-07-27T10:44:06.000Z</time>
      </trkpt>
      <trkpt lat="44.49446" lon="6.45889">
        <ele>1257.310856</ele>
        <time>2026-07-27T10:44:07.000Z</time>
      </trkpt>
      <trkpt lat="44.49446" lon="6.45889">
        <ele>1257.310856</ele>
        <time>2026-07-27T10:44:07.000Z</time>
      </trkpt>
      <trkpt lat="44.49445" lon="6.45891">
        <ele>1256.850705</ele>
        <time>2026-07-27T10:44:08.000Z</time>
      </trkpt>
      <trkpt lat="44.49445" lon="6.45891">
        <ele>1256.850705</ele>
        <time>2026-07-27T10:44:08.000Z</time>
      </trkpt>
      <trkpt lat="44.49444" lon="6.45893">
        <ele>1256.455097</ele>
        <time>2026-07-27T10:44:09.000Z</time>
      </trkpt>
      <trkpt lat="44.49444" lon="6.45893">
        <ele>1256.455097</ele>
        <time>2026-07-27T10:44:09.000Z</time>
      </trkpt>
      <trkpt lat="44.49445" lon="6.45895">
        <ele>1256.173365</ele>
        <time>2026-07-27T10:44:10.000Z</time>
      </trkpt>
      <trkpt lat="44.49445" lon="6.45895">
        <ele>1256.04852</ele>
        <time>2026-07-27T10:44:11.000Z</time>
      </trkpt>
      <trkpt lat="44.49446" lon="6.45895">
        <ele>1255.790122</ele>
        <time>2026-07-27T10:44:12.000Z</time>
      </trkpt>
      <trkpt lat="44.49448" lon="6.45894">
        <ele>1255.421836</ele>
        <time>2026-07-27T10:44:13.000Z</time>
      </trkpt>
      <trkpt lat="44.49449" lon="6.45893">
        <ele>1255.096628</ele>
        <time>2026-07-27T10:44:14.000Z</time>
      </trkpt>
      <trkpt lat="44.4945" lon="6.45892">
        <ele>1254.702272</ele>
        <time>2026-07-27T10:44:15.000Z</time>
      </trkpt>
      <trkpt lat="44.49453" lon="6.45889">
        <ele>1253.970426</ele>
        <time>2026-07-27T10:44:16.000Z</time>
      </trkpt>
      <trkpt lat="44.49453" lon="6.45889">
        <ele>1253.970426</ele>
        <time>2026-07-27T10:44:16.000Z</time>
      </trkpt>
      <trkpt lat="44.49455" lon="6.45886">
        <ele>1253.291256</ele>
        <time>2026-07-27T10:44:17.000Z</time>
      </trkpt>
      <trkpt lat="44.49455" lon="6.45886">
        <ele>1253.291256</ele>
        <time>2026-07-27T10:44:17.000Z</time>
      </trkpt>
      <trkpt lat="44.49456" lon="6.45882">
        <ele>1252.630069</ele>
        <time>2026-07-27T10:44:18.000Z</time>
      </trkpt>
      <trkpt lat="44.49456" lon="6.45882">
        <ele>1252.630069</ele>
        <time>2026-07-27T10:44:18.000Z</time>
      </trkpt>
      <trkpt lat="44.49461" lon="6.45882">
        <ele>1251.819272</ele>
        <time>2026-07-27T10:44:19.000Z</time>
      </trkpt>
      <trkpt lat="44.49461" lon="6.45882">
        <ele>1251.819272</ele>
        <time>2026-07-27T10:44:19.000Z</time>
      </trkpt>
      <trkpt lat="44.49464" lon="6.45879">
        <ele>1251.069577</ele>
        <time>2026-07-27T10:44:20.000Z</time>
      </trkpt>
      <trkpt lat="44.49464" lon="6.45879">
        <ele>1251.069577</ele>
        <time>2026-07-27T10:44:20.000Z</time>
      </trkpt>
      <trkpt lat="44.49471" lon="6.45871">
        <ele>1249.287371</ele>
        <time>2026-07-27T10:44:21.000Z</time>
      </trkpt>
      <trkpt lat="44.49471" lon="6.45871">
        <ele>1249.287371</ele>
        <time>2026-07-27T10:44:21.000Z</time>
      </trkpt>
      <trkpt lat="44.49476" lon="6.45867">
        <ele>1248.317081</ele>
        <time>2026-07-27T10:44:22.000Z</time>
      </trkpt>
      <trkpt lat="44.49476" lon="6.45867">
        <ele>1248.317081</ele>
        <time>2026-07-27T10:44:22.000Z</time>
      </trkpt>
      <trkpt lat="44.4948" lon="6.45864">
        <ele>1247.409201</ele>
        <time>2026-07-27T10:44:23.000Z</time>
      </trkpt>
      <trkpt lat="44.4948" lon="6.45864">
        <ele>1247.409201</ele>
        <time>2026-07-27T10:44:23.000Z</time>
      </trkpt>
      <trkpt lat="44.49484" lon="6.45864">
        <ele>1246.669103</ele>
        <time>2026-07-27T10:44:24.000Z</time>
      </trkpt>
      <trkpt lat="44.49484" lon="6.45864">
        <ele>1246.669103</ele>
        <time>2026-07-27T10:44:24.000Z</time>
      </trkpt>
      <trkpt lat="44.49487" lon="6.45862">
        <ele>1245.993819</ele>
        <time>2026-07-27T10:44:25.000Z</time>
      </trkpt>
      <trkpt lat="44.49487" lon="6.45862">
        <ele>1245.993819</ele>
        <time>2026-07-27T10:44:25.000Z</time>
      </trkpt>
      <trkpt lat="44.4949" lon="6.45862">
        <ele>1245.386718</ele>
        <time>2026-07-27T10:44:25.000Z</time>
      </trkpt>
      <trkpt lat="44.4949" lon="6.45862">
        <ele>1245.386718</ele>
        <time>2026-07-27T10:44:25.000Z</time>
      </trkpt>
      <trkpt lat="44.49494" lon="6.45861">
        <ele>1244.652766</ele>
        <time>2026-07-27T10:44:26.000Z</time>
      </trkpt>
      <trkpt lat="44.49494" lon="6.45861">
        <ele>1244.652766</ele>
        <time>2026-07-27T10:44:26.000Z</time>
      </trkpt>
      <trkpt lat="44.49498" lon="6.45862">
        <ele>1243.834439</ele>
        <time>2026-07-27T10:44:28.000Z</time>
      </trkpt>
      <trkpt lat="44.49498" lon="6.45862">
        <ele>1243.834439</ele>
        <time>2026-07-27T10:44:28.000Z</time>
      </trkpt>
      <trkpt lat="44.49501" lon="6.45863">
        <ele>1243.252561</ele>
        <time>2026-07-27T10:44:29.000Z</time>
      </trkpt>
      <trkpt lat="44.49501" lon="6.45863">
        <ele>1243.252561</ele>
        <time>2026-07-27T10:44:29.000Z</time>
      </trkpt>
      <trkpt lat="44.49504" lon="6.45861">
        <ele>1242.687982</ele>
        <time>2026-07-27T10:44:30.000Z</time>
      </trkpt>
      <trkpt lat="44.49504" lon="6.45861">
        <ele>1242.687982</ele>
        <time>2026-07-27T10:44:30.000Z</time>
      </trkpt>
      <trkpt lat="44.49507" lon="6.45858">
        <ele>1241.906819</ele>
        <time>2026-07-27T10:44:31.000Z</time>
      </trkpt>
      <trkpt lat="44.49507" lon="6.45858">
        <ele>1241.906819</ele>
        <time>2026-07-27T10:44:31.000Z</time>
      </trkpt>
      <trkpt lat="44.49511" lon="6.45855">
        <ele>1241.03647</ele>
        <time>2026-07-27T10:44:32.000Z</time>
      </trkpt>
      <trkpt lat="44.49511" lon="6.45855">
        <ele>1241.03647</ele>
        <time>2026-07-27T10:44:32.000Z</time>
      </trkpt>
      <trkpt lat="44.49515" lon="6.45851">
        <ele>1240.115791</ele>
        <time>2026-07-27T10:44:33.000Z</time>
      </trkpt>
      <trkpt lat="44.49515" lon="6.45851">
        <ele>1240.115791</ele>
        <time>2026-07-27T10:44:33.000Z</time>
      </trkpt>
      <trkpt lat="44.49519" lon="6.45846">
        <ele>1239.094973</ele>
        <time>2026-07-27T10:44:34.000Z</time>
      </trkpt>
      <trkpt lat="44.49519" lon="6.45846">
        <ele>1239.094973</ele>
        <time>2026-07-27T10:44:34.000Z</time>
      </trkpt>
      <trkpt lat="44.49521" lon="6.45841">
        <ele>1238.289107</ele>
        <time>2026-07-27T10:44:35.000Z</time>
      </trkpt>
      <trkpt lat="44.49521" lon="6.45841">
        <ele>1238.289107</ele>
        <time>2026-07-27T10:44:35.000Z</time>
      </trkpt>
      <trkpt lat="44.49521" lon="6.45841">
        <ele>1238.289107</ele>
        <time>2026-07-27T10:44:36.000Z</time>
      </trkpt>
      <trkpt lat="44.49524" lon="6.45833">
        <ele>1237.079805</ele>
        <time>2026-07-27T10:44:37.000Z</time>
      </trkpt>
      <trkpt lat="44.49524" lon="6.45833">
        <ele>1237.079805</ele>
        <time>2026-07-27T10:44:37.000Z</time>
      </trkpt>
      <trkpt lat="44.49526" lon="6.45834">
        <ele>1236.711546</ele>
        <time>2026-07-27T10:44:38.000Z</time>
      </trkpt>
      <trkpt lat="44.49526" lon="6.45834">
        <ele>1236.711546</ele>
        <time>2026-07-27T10:44:38.000Z</time>
      </trkpt>
      <trkpt lat="44.49527" lon="6.45836">
        <ele>1236.45253</ele>
        <time>2026-07-27T10:44:39.000Z</time>
      </trkpt>
      <trkpt lat="44.49527" lon="6.45838">
        <ele>1236.136543</ele>
        <time>2026-07-27T10:44:39.000Z</time>
      </trkpt>
      <trkpt lat="44.49526" lon="6.45841">
        <ele>1235.644676</ele>
        <time>2026-07-27T10:44:41.000Z</time>
      </trkpt>
      <trkpt lat="44.49526" lon="6.45841">
        <ele>1235.644676</ele>
        <time>2026-07-27T10:44:41.000Z</time>
      </trkpt>
      <trkpt lat="44.49525" lon="6.45846">
        <ele>1234.991148</ele>
        <time>2026-07-27T10:44:42.000Z</time>
      </trkpt>
      <trkpt lat="44.49525" lon="6.45846">
        <ele>1234.991148</ele>
        <time>2026-07-27T10:44:42.000Z</time>
      </trkpt>
      <trkpt lat="44.49523" lon="6.45849">
        <ele>1234.439978</ele>
        <time>2026-07-27T10:44:43.000Z</time>
      </trkpt>
      <trkpt lat="44.49523" lon="6.45849">
        <ele>1234.439978</ele>
        <time>2026-07-27T10:44:43.000Z</time>
      </trkpt>
      <trkpt lat="44.49523" lon="6.45849">
        <ele>1234.439978</ele>
        <time>2026-07-27T10:44:44.000Z</time>
      </trkpt>
      <trkpt lat="44.49523" lon="6.45849">
        <ele>1234.439978</ele>
        <time>2026-07-27T10:44:45.000Z</time>
      </trkpt>
      <trkpt lat="44.49522" lon="6.45852">
        <ele>1233.987067</ele>
        <time>2026-07-27T10:44:59.000Z</time>
      </trkpt>
      <trkpt lat="44.49522" lon="6.45852">
        <ele>1233.987067</ele>
        <time>2026-07-27T10:46:02.000Z</time>
      </trkpt>
      <trkpt lat="44.49522" lon="6.45852">
        <ele>1233.987067</ele>
        <time>2026-07-27T10:46:17.000Z</time>
      </trkpt>
      <trkpt lat="44.49522" lon="6.45852">
        <ele>1233.987067</ele>
        <time>2026-07-27T10:46:19.000Z</time>
      </trkpt>
      <trkpt lat="44.49522" lon="6.45852">
        <ele>1233.987067</ele>
        <time>2026-07-27T10:46:24.000Z</time>
      </trkpt>
      <trkpt lat="44.49522" lon="6.45852">
        <ele>1233.987067</ele>
        <time>2026-07-27T10:46:36.000Z</time>
      </trkpt>
      <trkpt lat="44.49517" lon="6.45865">
        <ele>1231.882031</ele>
        <time>2026-07-27T10:46:57.000Z</time>
      </trkpt>
      <trkpt lat="44.49513" lon="6.45868">
        <ele>1230.967833</ele>
        <time>2026-07-27T10:48:06.000Z</time>
      </trkpt>
      <trkpt lat="44.4951" lon="6.4587">
        <ele>1230.473306</ele>
        <time>2026-07-27T10:48:07.000Z</time>
      </trkpt>
      <trkpt lat="44.49507" lon="6.45872">
        <ele>1229.837058</ele>
        <time>2026-07-27T10:48:07.000Z</time>
      </trkpt>
      <trkpt lat="44.49505" lon="6.45873">
        <ele>1229.278558</ele>
        <time>2026-07-27T10:48:09.000Z</time>
      </trkpt>
      <trkpt lat="44.49504" lon="6.45874">
        <ele>1229.109856</ele>
        <time>2026-07-27T10:48:10.000Z</time>
      </trkpt>
      <trkpt lat="44.49501" lon="6.45879">
        <ele>1228.315429</ele>
        <time>2026-07-27T10:48:11.000Z</time>
      </trkpt>
      <trkpt lat="44.49501" lon="6.45879">
        <ele>1228.315429</ele>
        <time>2026-07-27T10:48:11.000Z</time>
      </trkpt>
      <trkpt lat="44.495" lon="6.45881">
        <ele>1227.888248</ele>
        <time>2026-07-27T10:48:12.000Z</time>
      </trkpt>
      <trkpt lat="44.495" lon="6.45886">
        <ele>1227.292486</ele>
        <time>2026-07-27T10:48:13.000Z</time>
      </trkpt>
      <trkpt lat="44.49499" lon="6.45889">
        <ele>1226.771322</ele>
        <time>2026-07-27T10:48:14.000Z</time>
      </trkpt>
      <trkpt lat="44.49498" lon="6.45892">
        <ele>1226.368735</ele>
        <time>2026-07-27T10:48:15.000Z</time>
      </trkpt>
      <trkpt lat="44.49498" lon="6.45892">
        <ele>1226.368735</ele>
        <time>2026-07-27T10:48:15.000Z</time>
      </trkpt>
      <trkpt lat="44.49497" lon="6.45895">
        <ele>1225.884167</ele>
        <time>2026-07-27T10:48:16.000Z</time>
      </trkpt>
      <trkpt lat="44.49497" lon="6.45897">
        <ele>1225.578101</ele>
        <time>2026-07-27T10:48:17.000Z</time>
      </trkpt>
      <trkpt lat="44.49495" lon="6.459">
        <ele>1225.043328</ele>
        <time>2026-07-27T10:48:18.000Z</time>
      </trkpt>
      <trkpt lat="44.49494" lon="6.459">
        <ele>1224.877721</ele>
        <time>2026-07-27T10:48:19.000Z</time>
      </trkpt>
      <trkpt lat="44.49493" lon="6.45902">
        <ele>1224.695745</ele>
        <time>2026-07-27T10:48:20.000Z</time>
      </trkpt>
      <trkpt lat="44.49493" lon="6.45902">
        <ele>1224.695745</ele>
        <time>2026-07-27T10:48:20.000Z</time>
      </trkpt>
      <trkpt lat="44.49487" lon="6.45913">
        <ele>1222.658321</ele>
        <time>2026-07-27T10:49:47.000Z</time>
      </trkpt>
      <trkpt lat="44.49487" lon="6.45913">
        <ele>1222.658321</ele>
        <time>2026-07-27T10:49:47.000Z</time>
      </trkpt>
      <trkpt lat="44.49487" lon="6.45913">
        <ele>1222.658321</ele>
        <time>2026-07-27T10:49:48.000Z</time>
      </trkpt>
      <trkpt lat="44.49487" lon="6.45918">
        <ele>1222.076179</ele>
        <time>2026-07-27T10:49:49.000Z</time>
      </trkpt>
      <trkpt lat="44.49486" lon="6.4592">
        <ele>1221.668555</ele>
        <time>2026-07-27T10:49:50.000Z</time>
      </trkpt>
      <trkpt lat="44.49484" lon="6.45923">
        <ele>1221.25044</ele>
        <time>2026-07-27T10:49:51.000Z</time>
      </trkpt>
      <trkpt lat="44.49483" lon="6.45926">
        <ele>1220.753752</ele>
        <time>2026-07-27T10:49:52.000Z</time>
      </trkpt>
      <trkpt lat="44.49483" lon="6.45926">
        <ele>1220.753752</ele>
        <time>2026-07-27T10:49:52.000Z</time>
      </trkpt>
      <trkpt lat="44.49482" lon="6.45929">
        <ele>1220.240838</ele>
        <time>2026-07-27T10:49:52.000Z</time>
      </trkpt>
      <trkpt lat="44.49481" lon="6.4593">
        <ele>1220.051573</ele>
        <time>2026-07-27T10:49:54.000Z</time>
      </trkpt>
      <trkpt lat="44.49479" lon="6.45934">
        <ele>1219.243706</ele>
        <time>2026-07-27T10:49:55.000Z</time>
      </trkpt>
      <trkpt lat="44.49479" lon="6.45934">
        <ele>1219.243706</ele>
        <time>2026-07-27T10:49:55.000Z</time>
      </trkpt>
      <trkpt lat="44.49478" lon="6.45943">
        <ele>1218.186332</ele>
        <time>2026-07-27T10:49:56.000Z</time>
      </trkpt>
      <trkpt lat="44.49478" lon="6.45943">
        <ele>1218.186332</ele>
        <time>2026-07-27T10:49:56.000Z</time>
      </trkpt>
      <trkpt lat="44.49477" lon="6.45948">
        <ele>1217.620855</ele>
        <time>2026-07-27T10:49:57.000Z</time>
      </trkpt>
      <trkpt lat="44.49477" lon="6.45948">
        <ele>1217.620855</ele>
        <time>2026-07-27T10:49:57.000Z</time>
      </trkpt>
      <trkpt lat="44.49475" lon="6.45953">
        <ele>1216.991312</ele>
        <time>2026-07-27T10:49:58.000Z</time>
      </trkpt>
      <trkpt lat="44.49473" lon="6.45958">
        <ele>1216.361769</ele>
        <time>2026-07-27T10:49:59.000Z</time>
      </trkpt>
      <trkpt lat="44.49473" lon="6.45958">
        <ele>1216.361769</ele>
        <time>2026-07-27T10:49:59.000Z</time>
      </trkpt>
      <trkpt lat="44.49471" lon="6.45964">
        <ele>1215.645593</ele>
        <time>2026-07-27T10:50:00.000Z</time>
      </trkpt>
      <trkpt lat="44.49471" lon="6.45964">
        <ele>1215.645593</ele>
        <time>2026-07-27T10:50:00.000Z</time>
      </trkpt>
      <trkpt lat="44.49469" lon="6.4597">
        <ele>1215.005213</ele>
        <time>2026-07-27T10:50:01.000Z</time>
      </trkpt>
      <trkpt lat="44.49469" lon="6.4597">
        <ele>1215.005213</ele>
        <time>2026-07-27T10:50:01.000Z</time>
      </trkpt>
      <trkpt lat="44.49466" lon="6.45976">
        <ele>1214.252292</ele>
        <time>2026-07-27T10:50:02.000Z</time>
      </trkpt>
      <trkpt lat="44.49466" lon="6.45976">
        <ele>1214.252292</ele>
        <time>2026-07-27T10:50:02.000Z</time>
      </trkpt>
      <trkpt lat="44.49464" lon="6.4598">
        <ele>1213.669675</ele>
        <time>2026-07-27T10:50:03.000Z</time>
      </trkpt>
      <trkpt lat="44.49464" lon="6.4598">
        <ele>1213.669675</ele>
        <time>2026-07-27T10:50:03.000Z</time>
      </trkpt>
      <trkpt lat="44.49464" lon="6.45986">
        <ele>1213.117787</ele>
        <time>2026-07-27T10:50:04.000Z</time>
      </trkpt>
      <trkpt lat="44.49464" lon="6.45986">
        <ele>1213.117787</ele>
        <time>2026-07-27T10:50:04.000Z</time>
      </trkpt>
      <trkpt lat="44.49465" lon="6.45989">
        <ele>1212.727718</ele>
        <time>2026-07-27T10:50:05.000Z</time>
      </trkpt>
      <trkpt lat="44.49465" lon="6.45989">
        <ele>1212.727718</ele>
        <time>2026-07-27T10:50:05.000Z</time>
      </trkpt>
      <trkpt lat="44.49466" lon="6.45991">
        <ele>1212.491279</ele>
        <time>2026-07-27T10:50:06.000Z</time>
      </trkpt>
      <trkpt lat="44.49466" lon="6.45991">
        <ele>1212.491279</ele>
        <time>2026-07-27T10:50:06.000Z</time>
      </trkpt>
      <trkpt lat="44.49468" lon="6.45994">
        <ele>1212.078161</ele>
        <time>2026-07-27T10:50:07.000Z</time>
      </trkpt>
      <trkpt lat="44.49468" lon="6.45994">
        <ele>1212.078161</ele>
        <time>2026-07-27T10:50:07.000Z</time>
      </trkpt>
      <trkpt lat="44.4947" lon="6.45996">
        <ele>1211.704659</ele>
        <time>2026-07-27T10:50:08.000Z</time>
      </trkpt>
      <trkpt lat="44.4947" lon="6.45996">
        <ele>1211.704659</ele>
        <time>2026-07-27T10:50:08.000Z</time>
      </trkpt>
      <trkpt lat="44.49472" lon="6.45999">
        <ele>1211.255351</ele>
        <time>2026-07-27T10:50:08.000Z</time>
      </trkpt>
      <trkpt lat="44.49472" lon="6.45999">
        <ele>1211.255351</ele>
        <time>2026-07-27T10:50:08.000Z</time>
      </trkpt>
      <trkpt lat="44.49476" lon="6.46001">
        <ele>1210.670897</ele>
        <time>2026-07-27T10:50:10.000Z</time>
      </trkpt>
      <trkpt lat="44.49476" lon="6.46001">
        <ele>1210.670897</ele>
        <time>2026-07-27T10:50:10.000Z</time>
      </trkpt>
      <trkpt lat="44.49479" lon="6.46002">
        <ele>1210.164019</ele>
        <time>2026-07-27T10:50:11.000Z</time>
      </trkpt>
      <trkpt lat="44.49479" lon="6.46002">
        <ele>1210.164019</ele>
        <time>2026-07-27T10:50:11.000Z</time>
      </trkpt>
      <trkpt lat="44.49484" lon="6.46001">
        <ele>1209.477542</ele>
        <time>2026-07-27T10:50:12.000Z</time>
      </trkpt>
      <trkpt lat="44.49484" lon="6.46001">
        <ele>1209.477542</ele>
        <time>2026-07-27T10:50:12.000Z</time>
      </trkpt>
      <trkpt lat="44.49488" lon="6.46001">
        <ele>1208.791066</ele>
        <time>2026-07-27T10:50:13.000Z</time>
      </trkpt>
      <trkpt lat="44.49488" lon="6.46001">
        <ele>1208.791066</ele>
        <time>2026-07-27T10:50:13.000Z</time>
      </trkpt>
      <trkpt lat="44.49492" lon="6.46002">
        <ele>1208.155347</ele>
        <time>2026-07-27T10:50:14.000Z</time>
      </trkpt>
      <trkpt lat="44.49492" lon="6.46002">
        <ele>1208.155347</ele>
        <time>2026-07-27T10:50:14.000Z</time>
      </trkpt>
      <trkpt lat="44.49495" lon="6.46005">
        <ele>1207.640572</ele>
        <time>2026-07-27T10:50:14.000Z</time>
      </trkpt>
      <trkpt lat="44.49495" lon="6.46005">
        <ele>1207.640572</ele>
        <time>2026-07-27T10:50:14.000Z</time>
      </trkpt>
      <trkpt lat="44.49499" lon="6.46008">
        <ele>1207.006709</ele>
        <time>2026-07-27T10:50:15.000Z</time>
      </trkpt>
      <trkpt lat="44.49499" lon="6.46008">
        <ele>1207.006709</ele>
        <time>2026-07-27T10:50:15.000Z</time>
      </trkpt>
      <trkpt lat="44.49502" lon="6.46011">
        <ele>1206.390727</ele>
        <time>2026-07-27T10:50:16.000Z</time>
      </trkpt>
      <trkpt lat="44.49502" lon="6.46011">
        <ele>1206.390727</ele>
        <time>2026-07-27T10:50:16.000Z</time>
      </trkpt>
      <trkpt lat="44.49506" lon="6.46013">
        <ele>1205.81949</ele>
        <time>2026-07-27T10:50:18.000Z</time>
      </trkpt>
      <trkpt lat="44.49506" lon="6.46013">
        <ele>1205.81949</ele>
        <time>2026-07-27T10:50:18.000Z</time>
      </trkpt>
      <trkpt lat="44.49509" lon="6.46014">
        <ele>1205.343704</ele>
        <time>2026-07-27T10:50:19.000Z</time>
      </trkpt>
      <trkpt lat="44.49509" lon="6.46014">
        <ele>1205.343704</ele>
        <time>2026-07-27T10:50:19.000Z</time>
      </trkpt>
      <trkpt lat="44.49513" lon="6.46015">
        <ele>1204.711539</ele>
        <time>2026-07-27T10:50:19.000Z</time>
      </trkpt>
      <trkpt lat="44.49513" lon="6.46015">
        <ele>1204.711539</ele>
        <time>2026-07-27T10:50:19.000Z</time>
      </trkpt>
      <trkpt lat="44.49517" lon="6.46015">
        <ele>1204.146047</ele>
        <time>2026-07-27T10:50:20.000Z</time>
      </trkpt>
      <trkpt lat="44.49517" lon="6.46015">
        <ele>1204.146047</ele>
        <time>2026-07-27T10:50:20.000Z</time>
      </trkpt>
      <trkpt lat="44.49522" lon="6.46016">
        <ele>1203.416294</ele>
        <time>2026-07-27T10:50:21.000Z</time>
      </trkpt>
      <trkpt lat="44.49522" lon="6.46016">
        <ele>1203.416294</ele>
        <time>2026-07-27T10:50:21.000Z</time>
      </trkpt>
      <trkpt lat="44.49527" lon="6.46015">
        <ele>1202.609415</ele>
        <time>2026-07-27T10:50:23.000Z</time>
      </trkpt>
      <trkpt lat="44.49527" lon="6.46015">
        <ele>1202.609415</ele>
        <time>2026-07-27T10:50:23.000Z</time>
      </trkpt>
      <trkpt lat="44.49531" lon="6.46014">
        <ele>1202.034148</ele>
        <time>2026-07-27T10:50:24.000Z</time>
      </trkpt>
      <trkpt lat="44.49531" lon="6.46014">
        <ele>1202.034148</ele>
        <time>2026-07-27T10:50:24.000Z</time>
      </trkpt>
      <trkpt lat="44.49534" lon="6.46011">
        <ele>1201.467763</ele>
        <time>2026-07-27T10:50:25.000Z</time>
      </trkpt>
      <trkpt lat="44.49534" lon="6.46011">
        <ele>1201.467763</ele>
        <time>2026-07-27T10:50:25.000Z</time>
      </trkpt>
      <trkpt lat="44.49538" lon="6.46008">
        <ele>1200.834205</ele>
        <time>2026-07-27T10:50:26.000Z</time>
      </trkpt>
      <trkpt lat="44.49538" lon="6.46008">
        <ele>1200.834205</ele>
        <time>2026-07-27T10:50:26.000Z</time>
      </trkpt>
      <trkpt lat="44.49541" lon="6.46004">
        <ele>1200.218201</ele>
        <time>2026-07-27T10:50:27.000Z</time>
      </trkpt>
      <trkpt lat="44.49541" lon="6.46004">
        <ele>1200.218201</ele>
        <time>2026-07-27T10:50:27.000Z</time>
      </trkpt>
      <trkpt lat="44.49544" lon="6.46">
        <ele>1199.571238</ele>
        <time>2026-07-27T10:50:28.000Z</time>
      </trkpt>
      <trkpt lat="44.49544" lon="6.46">
        <ele>1199.571238</ele>
        <time>2026-07-27T10:50:28.000Z</time>
      </trkpt>
      <trkpt lat="44.49548" lon="6.45998">
        <ele>1198.896414</ele>
        <time>2026-07-27T10:50:29.000Z</time>
      </trkpt>
      <trkpt lat="44.49548" lon="6.45998">
        <ele>1198.896414</ele>
        <time>2026-07-27T10:50:29.000Z</time>
      </trkpt>
      <trkpt lat="44.49553" lon="6.45997">
        <ele>1198.262558</ele>
        <time>2026-07-27T10:50:30.000Z</time>
      </trkpt>
      <trkpt lat="44.49553" lon="6.45997">
        <ele>1198.262558</ele>
        <time>2026-07-27T10:50:30.000Z</time>
      </trkpt>
      <trkpt lat="44.49557" lon="6.45997">
        <ele>1197.637291</ele>
        <time>2026-07-27T10:50:31.000Z</time>
      </trkpt>
      <trkpt lat="44.49557" lon="6.45997">
        <ele>1197.637291</ele>
        <time>2026-07-27T10:50:31.000Z</time>
      </trkpt>
      <trkpt lat="44.49561" lon="6.45998">
        <ele>1197.065559</ele>
        <time>2026-07-27T10:50:32.000Z</time>
      </trkpt>
      <trkpt lat="44.49561" lon="6.45998">
        <ele>1197.065559</ele>
        <time>2026-07-27T10:50:32.000Z</time>
      </trkpt>
      <trkpt lat="44.49565" lon="6.45996">
        <ele>1196.33891</ele>
        <time>2026-07-27T10:50:33.000Z</time>
      </trkpt>
      <trkpt lat="44.49565" lon="6.45996">
        <ele>1196.33891</ele>
        <time>2026-07-27T10:50:33.000Z</time>
      </trkpt>
      <trkpt lat="44.49569" lon="6.45992">
        <ele>1195.650529</ele>
        <time>2026-07-27T10:50:34.000Z</time>
      </trkpt>
      <trkpt lat="44.49569" lon="6.45992">
        <ele>1195.650529</ele>
        <time>2026-07-27T10:50:34.000Z</time>
      </trkpt>
      <trkpt lat="44.49572" lon="6.45987">
        <ele>1194.94744</ele>
        <time>2026-07-27T10:50:35.000Z</time>
      </trkpt>
      <trkpt lat="44.49572" lon="6.45987">
        <ele>1194.94744</ele>
        <time>2026-07-27T10:50:35.000Z</time>
      </trkpt>
      <trkpt lat="44.49576" lon="6.45981">
        <ele>1194.062794</ele>
        <time>2026-07-27T10:50:36.000Z</time>
      </trkpt>
      <trkpt lat="44.49576" lon="6.45981">
        <ele>1194.062794</ele>
        <time>2026-07-27T10:50:36.000Z</time>
      </trkpt>
      <trkpt lat="44.49578" lon="6.45976">
        <ele>1193.480187</ele>
        <time>2026-07-27T10:50:37.000Z</time>
      </trkpt>
      <trkpt lat="44.49578" lon="6.45976">
        <ele>1193.480187</ele>
        <time>2026-07-27T10:50:37.000Z</time>
      </trkpt>
      <trkpt lat="44.49579" lon="6.45974">
        <ele>1193.236592</ele>
        <time>2026-07-27T10:50:38.000Z</time>
      </trkpt>
      <trkpt lat="44.49579" lon="6.45974">
        <ele>1193.236592</ele>
        <time>2026-07-27T10:50:38.000Z</time>
      </trkpt>
      <trkpt lat="44.49583" lon="6.45971">
        <ele>1192.603035</ele>
        <time>2026-07-27T10:50:39.000Z</time>
      </trkpt>
      <trkpt lat="44.49586" lon="6.45961">
        <ele>1191.594556</ele>
        <time>2026-07-27T10:50:40.000Z</time>
      </trkpt>
      <trkpt lat="44.49586" lon="6.45961">
        <ele>1191.594556</ele>
        <time>2026-07-27T10:50:40.000Z</time>
      </trkpt>
      <trkpt lat="44.49587" lon="6.45955">
        <ele>1191.488627</ele>
        <time>2026-07-27T10:50:41.000Z</time>
      </trkpt>
      <trkpt lat="44.49588" lon="6.4595">
        <ele>1191.405178</ele>
        <time>2026-07-27T10:50:42.000Z</time>
      </trkpt>
      <trkpt lat="44.49588" lon="6.4595">
        <ele>1191.405178</ele>
        <time>2026-07-27T10:50:42.000Z</time>
      </trkpt>
      <trkpt lat="44.4959" lon="6.45945">
        <ele>1191.315563</ele>
        <time>2026-07-27T10:50:43.000Z</time>
      </trkpt>
      <trkpt lat="44.49591" lon="6.45941">
        <ele>1191.241064</ele>
        <time>2026-07-27T10:50:44.000Z</time>
      </trkpt>
      <trkpt lat="44.49591" lon="6.45941">
        <ele>1191.241064</ele>
        <time>2026-07-27T10:50:44.000Z</time>
      </trkpt>
      <trkpt lat="44.49593" lon="6.45937">
        <ele>1191.166114</ele>
        <time>2026-07-27T10:50:45.000Z</time>
      </trkpt>
      <trkpt lat="44.49595" lon="6.45933">
        <ele>1191.083945</ele>
        <time>2026-07-27T10:50:46.000Z</time>
      </trkpt>
      <trkpt lat="44.49595" lon="6.45933">
        <ele>1191.083945</ele>
        <time>2026-07-27T10:50:46.000Z</time>
      </trkpt>
      <trkpt lat="44.49598" lon="6.4593">
        <ele>1191.006213</ele>
        <time>2026-07-27T10:50:47.000Z</time>
      </trkpt>
      <trkpt lat="44.49599" lon="6.45926">
        <ele>1190.940186</ele>
        <time>2026-07-27T10:50:48.000Z</time>
      </trkpt>
      <trkpt lat="44.49601" lon="6.45922">
        <ele>1190.852426</ele>
        <time>2026-07-27T10:50:49.000Z</time>
      </trkpt>
      <trkpt lat="44.49601" lon="6.45922">
        <ele>1190.852426</ele>
        <time>2026-07-27T10:50:49.000Z</time>
      </trkpt>
      <trkpt lat="44.49603" lon="6.45917">
        <ele>1190.768781</ele>
        <time>2026-07-27T10:50:50.000Z</time>
      </trkpt>
      <trkpt lat="44.49605" lon="6.45913">
        <ele>1190.685318</ele>
        <time>2026-07-27T10:50:51.000Z</time>
      </trkpt>
      <trkpt lat="44.49608" lon="6.45909">
        <ele>1190.59103</ele>
        <time>2026-07-27T10:50:52.000Z</time>
      </trkpt>
      <trkpt lat="44.49611" lon="6.45907">
        <ele>1190.513313</ele>
        <time>2026-07-27T10:50:53.000Z</time>
      </trkpt>
      <trkpt lat="44.49615" lon="6.45905">
        <ele>1190.414193</ele>
        <time>2026-07-27T10:50:54.000Z</time>
      </trkpt>
      <trkpt lat="44.49618" lon="6.45903">
        <ele>1190.346104</ele>
        <time>2026-07-27T10:50:55.000Z</time>
      </trkpt>
      <trkpt lat="44.49618" lon="6.45903">
        <ele>1190.346104</ele>
        <time>2026-07-27T10:50:55.000Z</time>
      </trkpt>
      <trkpt lat="44.4962" lon="6.45902">
        <ele>1190.290214</ele>
        <time>2026-07-27T10:50:55.000Z</time>
      </trkpt>
      <trkpt lat="44.4962" lon="6.45902">
        <ele>1190.290214</ele>
        <time>2026-07-27T10:50:57.000Z</time>
      </trkpt>
      <trkpt lat="44.4962" lon="6.45902">
        <ele>1190.290214</ele>
        <time>2026-07-27T10:50:58.000Z</time>
      </trkpt>
      <trkpt lat="44.49622" lon="6.45895">
        <ele>1190.162972</ele>
        <time>2026-07-27T10:50:58.000Z</time>
      </trkpt>
      <trkpt lat="44.49622" lon="6.45895">
        <ele>1190.162972</ele>
        <time>2026-07-27T10:50:58.000Z</time>
      </trkpt>
      <trkpt lat="44.49622" lon="6.45895">
        <ele>1190.162972</ele>
        <time>2026-07-27T10:51:00.000Z</time>
      </trkpt>
      <trkpt lat="44.49622" lon="6.45891">
        <ele>1190.091169</ele>
        <time>2026-07-27T10:51:01.000Z</time>
      </trkpt>
      <trkpt lat="44.4962" lon="6.45893">
        <ele>1190.041254</ele>
        <time>2026-07-27T10:51:03.000Z</time>
      </trkpt>
      <trkpt lat="44.4962" lon="6.45892">
        <ele>1190.025009</ele>
        <time>2026-07-27T10:51:04.000Z</time>
      </trkpt>
      <trkpt lat="44.4962" lon="6.45892">
        <ele>1190.025009</ele>
        <time>2026-07-27T10:51:04.000Z</time>
      </trkpt>
      <trkpt lat="44.49623" lon="6.4589">
        <ele>1189.967238</ele>
        <time>2026-07-27T10:51:05.000Z</time>
      </trkpt>
      <trkpt lat="44.49623" lon="6.4589">
        <ele>1189.967238</ele>
        <time>2026-07-27T10:51:06.000Z</time>
      </trkpt>
      <trkpt lat="44.49628" lon="6.45881">
        <ele>1189.76928</ele>
        <time>2026-07-27T10:51:06.000Z</time>
      </trkpt>
      <trkpt lat="44.4963" lon="6.4588">
        <ele>1189.732666</ele>
        <time>2026-07-27T10:51:08.000Z</time>
      </trkpt>
      <trkpt lat="44.4963" lon="6.4588">
        <ele>1189.732666</ele>
        <time>2026-07-27T10:51:08.000Z</time>
      </trkpt>
      <trkpt lat="44.4963" lon="6.45878">
        <ele>1189.70224</ele>
        <time>2026-07-27T10:51:09.000Z</time>
      </trkpt>
      <trkpt lat="44.49631" lon="6.45876">
        <ele>1189.670353</ele>
        <time>2026-07-27T10:51:10.000Z</time>
      </trkpt>
      <trkpt lat="44.49631" lon="6.45876">
        <ele>1189.670353</ele>
        <time>2026-07-27T10:51:10.000Z</time>
      </trkpt>
      <trkpt lat="44.49632" lon="6.45875">
        <ele>1189.63033</ele>
        <time>2026-07-27T10:51:11.000Z</time>
      </trkpt>
      <trkpt lat="44.49633" lon="6.45872">
        <ele>1189.578402</ele>
        <time>2026-07-27T10:51:12.000Z</time>
      </trkpt>
      <trkpt lat="44.49635" lon="6.45869">
        <ele>1189.526724</ele>
        <time>2026-07-27T10:51:13.000Z</time>
      </trkpt>
      <trkpt lat="44.49635" lon="6.45869">
        <ele>1189.526724</ele>
        <time>2026-07-27T10:51:13.000Z</time>
      </trkpt>
      <trkpt lat="44.49636" lon="6.45866">
        <ele>1189.470478</ele>
        <time>2026-07-27T10:51:14.000Z</time>
      </trkpt>
      <trkpt lat="44.49637" lon="6.45863">
        <ele>1189.412773</ele>
        <time>2026-07-27T10:51:15.000Z</time>
      </trkpt>
      <trkpt lat="44.49637" lon="6.45863">
        <ele>1189.412773</ele>
        <time>2026-07-27T10:51:15.000Z</time>
      </trkpt>
      <trkpt lat="44.49637" lon="6.45859">
        <ele>1189.356795</ele>
        <time>2026-07-27T10:51:16.000Z</time>
      </trkpt>
      <trkpt lat="44.49638" lon="6.45856">
        <ele>1189.299499</ele>
        <time>2026-07-27T10:51:17.000Z</time>
      </trkpt>
      <trkpt lat="44.4964" lon="6.45853">
        <ele>1189.244703</ele>
        <time>2026-07-27T10:51:17.000Z</time>
      </trkpt>
      <trkpt lat="44.49641" lon="6.4585">
        <ele>1189.17976</ele>
        <time>2026-07-27T10:51:19.000Z</time>
      </trkpt>
      <trkpt lat="44.49642" lon="6.45846">
        <ele>1189.115397</ele>
        <time>2026-07-27T10:51:19.000Z</time>
      </trkpt>
      <trkpt lat="44.49643" lon="6.45844">
        <ele>1189.070413</ele>
        <time>2026-07-27T10:51:21.000Z</time>
      </trkpt>
      <trkpt lat="44.49644" lon="6.45842">
        <ele>1189.038672</ele>
        <time>2026-07-27T10:51:22.000Z</time>
      </trkpt>
      <trkpt lat="44.49645" lon="6.4584">
        <ele>1188.999998</ele>
        <time>2026-07-27T10:51:23.000Z</time>
      </trkpt>
      <trkpt lat="44.49645" lon="6.45838">
        <ele>1188.965259</ele>
        <time>2026-07-27T10:51:24.000Z</time>
      </trkpt>
      <trkpt lat="44.49646" lon="6.45837">
        <ele>1188.927544</ele>
        <time>2026-07-27T10:51:25.000Z</time>
      </trkpt>
      <trkpt lat="44.49648" lon="6.45834">
        <ele>1188.871423</ele>
        <time>2026-07-27T10:51:26.000Z</time>
      </trkpt>
      <trkpt lat="44.49648" lon="6.45834">
        <ele>1188.871423</ele>
        <time>2026-07-27T10:51:26.000Z</time>
      </trkpt>
      <trkpt lat="44.49651" lon="6.45832">
        <ele>1188.806125</ele>
        <time>2026-07-27T10:51:27.000Z</time>
      </trkpt>
      <trkpt lat="44.49653" lon="6.4583">
        <ele>1188.747881</ele>
        <time>2026-07-27T10:51:28.000Z</time>
      </trkpt>
      <trkpt lat="44.49655" lon="6.45827">
        <ele>1188.681601</ele>
        <time>2026-07-27T10:51:29.000Z</time>
      </trkpt>
      <trkpt lat="44.49657" lon="6.45824">
        <ele>1188.621134</ele>
        <time>2026-07-27T10:51:30.000Z</time>
      </trkpt>
      <trkpt lat="44.49659" lon="6.45822">
        <ele>1188.566033</ele>
        <time>2026-07-27T10:51:31.000Z</time>
      </trkpt>
      <trkpt lat="44.49659" lon="6.45822">
        <ele>1188.566033</ele>
        <time>2026-07-27T10:51:31.000Z</time>
      </trkpt>
      <trkpt lat="44.4966" lon="6.45821">
        <ele>1188.521066</ele>
        <time>2026-07-27T10:51:32.000Z</time>
      </trkpt>
      <trkpt lat="44.49662" lon="6.45819">
        <ele>1188.479105</ele>
        <time>2026-07-27T10:51:33.000Z</time>
      </trkpt>
      <trkpt lat="44.49663" lon="6.45817">
        <ele>1188.432385</ele>
        <time>2026-07-27T10:51:33.000Z</time>
      </trkpt>
      <trkpt lat="44.49665" lon="6.45815">
        <ele>1188.378274</ele>
        <time>2026-07-27T10:51:35.000Z</time>
      </trkpt>
      <trkpt lat="44.49667" lon="6.45813">
        <ele>1188.322153</ele>
        <time>2026-07-27T10:51:35.000Z</time>
      </trkpt>
      <trkpt lat="44.49667" lon="6.45813">
        <ele>1188.322153</ele>
        <time>2026-07-27T10:51:35.000Z</time>
      </trkpt>
      <trkpt lat="44.49669" lon="6.45811">
        <ele>1188.257813</ele>
        <time>2026-07-27T10:51:37.000Z</time>
      </trkpt>
      <trkpt lat="44.49672" lon="6.45809">
        <ele>1188.196174</ele>
        <time>2026-07-27T10:51:37.000Z</time>
      </trkpt>
      <trkpt lat="44.49674" lon="6.45808">
        <ele>1188.133835</ele>
        <time>2026-07-27T10:51:39.000Z</time>
      </trkpt>
      <trkpt lat="44.49674" lon="6.45808">
        <ele>1188.133835</ele>
        <time>2026-07-27T10:51:39.000Z</time>
      </trkpt>
      <trkpt lat="44.49677" lon="6.45806">
        <ele>1188.07673</ele>
        <time>2026-07-27T10:51:40.000Z</time>
      </trkpt>
      <trkpt lat="44.49679" lon="6.45805">
        <ele>1188.010588</ele>
        <time>2026-07-27T10:51:41.000Z</time>
      </trkpt>
      <trkpt lat="44.49682" lon="6.45804">
        <ele>1187.956619</ele>
        <time>2026-07-27T10:51:42.000Z</time>
      </trkpt>
      <trkpt lat="44.49682" lon="6.45804">
        <ele>1187.956619</ele>
        <time>2026-07-27T10:51:42.000Z</time>
      </trkpt>
      <trkpt lat="44.49685" lon="6.45803">
        <ele>1187.885107</ele>
        <time>2026-07-27T10:51:43.000Z</time>
      </trkpt>
      <trkpt lat="44.49687" lon="6.45801">
        <ele>1187.827337</ele>
        <time>2026-07-27T10:51:44.000Z</time>
      </trkpt>
      <trkpt lat="44.4969" lon="6.45799">
        <ele>1187.758535</ele>
        <time>2026-07-27T10:51:45.000Z</time>
      </trkpt>
      <trkpt lat="44.49693" lon="6.45797">
        <ele>1187.663616</ele>
        <time>2026-07-27T10:51:46.000Z</time>
      </trkpt>
      <trkpt lat="44.49697" lon="6.45795">
        <ele>1187.579003</ele>
        <time>2026-07-27T10:51:47.000Z</time>
      </trkpt>
      <trkpt lat="44.497" lon="6.45793">
        <ele>1187.473544</ele>
        <time>2026-07-27T10:51:48.000Z</time>
      </trkpt>
      <trkpt lat="44.49703" lon="6.45791">
        <ele>1187.322251</ele>
        <time>2026-07-27T10:51:49.000Z</time>
      </trkpt>
      <trkpt lat="44.49706" lon="6.45789">
        <ele>1187.164095</ele>
        <time>2026-07-27T10:51:50.000Z</time>
      </trkpt>
      <trkpt lat="44.49709" lon="6.45788">
        <ele>1187.012803</ele>
        <time>2026-07-27T10:51:51.000Z</time>
      </trkpt>
      <trkpt lat="44.49711" lon="6.45786">
        <ele>1186.91591</ele>
        <time>2026-07-27T10:51:52.000Z</time>
      </trkpt>
      <trkpt lat="44.49713" lon="6.45786">
        <ele>1186.804212</ele>
        <time>2026-07-27T10:51:53.000Z</time>
      </trkpt>
      <trkpt lat="44.49715" lon="6.45785">
        <ele>1186.693275</ele>
        <time>2026-07-27T10:51:53.000Z</time>
      </trkpt>
      <trkpt lat="44.49718" lon="6.45784">
        <ele>1186.559768</ele>
        <time>2026-07-27T10:51:55.000Z</time>
      </trkpt>
      <trkpt lat="44.49718" lon="6.45784">
        <ele>1186.559768</ele>
        <time>2026-07-27T10:51:55.000Z</time>
      </trkpt>
      <trkpt lat="44.49721" lon="6.45783">
        <ele>1186.428136</ele>
        <time>2026-07-27T10:51:56.000Z</time>
      </trkpt>
      <trkpt lat="44.49723" lon="6.45782">
        <ele>1186.315581</ele>
        <time>2026-07-27T10:51:57.000Z</time>
      </trkpt>
      <trkpt lat="44.49723" lon="6.45782">
        <ele>1186.315581</ele>
        <time>2026-07-27T10:51:57.000Z</time>
      </trkpt>
      <trkpt lat="44.49725" lon="6.45781">
        <ele>1186.208452</ele>
        <time>2026-07-27T10:51:58.000Z</time>
      </trkpt>
      <trkpt lat="44.49727" lon="6.45781">
        <ele>1186.150313</ele>
        <time>2026-07-27T10:51:59.000Z</time>
      </trkpt>
      <trkpt lat="44.49727" lon="6.45781">
        <ele>1186.150313</ele>
        <time>2026-07-27T10:51:59.000Z</time>
      </trkpt>
      <trkpt lat="44.49729" lon="6.45779">
        <ele>1186.01342</ele>
        <time>2026-07-27T10:52:00.000Z</time>
      </trkpt>
      <trkpt lat="44.49731" lon="6.45777">
        <ele>1185.903415</ele>
        <time>2026-07-27T10:52:01.000Z</time>
      </trkpt>
      <trkpt lat="44.49731" lon="6.45777">
        <ele>1185.903415</ele>
        <time>2026-07-27T10:52:01.000Z</time>
      </trkpt>
      <trkpt lat="44.49733" lon="6.45775">
        <ele>1185.774059</ele>
        <time>2026-07-27T10:52:02.000Z</time>
      </trkpt>
      <trkpt lat="44.49733" lon="6.45775">
        <ele>1185.774059</ele>
        <time>2026-07-27T10:52:02.000Z</time>
      </trkpt>
      <trkpt lat="44.49736" lon="6.45772">
        <ele>1185.600241</ele>
        <time>2026-07-27T10:52:03.000Z</time>
      </trkpt>
      <trkpt lat="44.49736" lon="6.45772">
        <ele>1185.600241</ele>
        <time>2026-07-27T10:52:03.000Z</time>
      </trkpt>
      <trkpt lat="44.4974" lon="6.4577">
        <ele>1185.419276</ele>
        <time>2026-07-27T10:52:04.000Z</time>
      </trkpt>
      <trkpt lat="44.4974" lon="6.4577">
        <ele>1185.419276</ele>
        <time>2026-07-27T10:52:04.000Z</time>
      </trkpt>
      <trkpt lat="44.49744" lon="6.45766">
        <ele>1185.20628</ele>
        <time>2026-07-27T10:52:05.000Z</time>
      </trkpt>
      <trkpt lat="44.49744" lon="6.45766">
        <ele>1185.20628</ele>
        <time>2026-07-27T10:52:05.000Z</time>
      </trkpt>
      <trkpt lat="44.49748" lon="6.45763">
        <ele>1184.979341</ele>
        <time>2026-07-27T10:52:06.000Z</time>
      </trkpt>
      <trkpt lat="44.49748" lon="6.45763">
        <ele>1184.979341</ele>
        <time>2026-07-27T10:52:06.000Z</time>
      </trkpt>
      <trkpt lat="44.49753" lon="6.45761">
        <ele>1184.732389</ele>
        <time>2026-07-27T10:52:07.000Z</time>
      </trkpt>
      <trkpt lat="44.49753" lon="6.45761">
        <ele>1184.732389</ele>
        <time>2026-07-27T10:52:07.000Z</time>
      </trkpt>
      <trkpt lat="44.49758" lon="6.45758">
        <ele>1184.478607</ele>
        <time>2026-07-27T10:52:08.000Z</time>
      </trkpt>
      <trkpt lat="44.49758" lon="6.45758">
        <ele>1184.478607</ele>
        <time>2026-07-27T10:52:08.000Z</time>
      </trkpt>
      <trkpt lat="44.49763" lon="6.45754">
        <ele>1184.205261</ele>
        <time>2026-07-27T10:52:09.000Z</time>
      </trkpt>
      <trkpt lat="44.49763" lon="6.45754">
        <ele>1184.205261</ele>
        <time>2026-07-27T10:52:09.000Z</time>
      </trkpt>
      <trkpt lat="44.49768" lon="6.45751">
        <ele>1183.930533</ele>
        <time>2026-07-27T10:52:10.000Z</time>
      </trkpt>
      <trkpt lat="44.49768" lon="6.45751">
        <ele>1183.930533</ele>
        <time>2026-07-27T10:52:10.000Z</time>
      </trkpt>
      <trkpt lat="44.49773" lon="6.45748">
        <ele>1183.671461</ele>
        <time>2026-07-27T10:52:11.000Z</time>
      </trkpt>
      <trkpt lat="44.49773" lon="6.45748">
        <ele>1183.671461</ele>
        <time>2026-07-27T10:52:11.000Z</time>
      </trkpt>
      <trkpt lat="44.49779" lon="6.45743">
        <ele>1183.377646</ele>
        <time>2026-07-27T10:52:12.000Z</time>
      </trkpt>
      <trkpt lat="44.49779" lon="6.45743">
        <ele>1183.377646</ele>
        <time>2026-07-27T10:52:12.000Z</time>
      </trkpt>
      <trkpt lat="44.49785" lon="6.4574">
        <ele>1183.078667</ele>
        <time>2026-07-27T10:52:13.000Z</time>
      </trkpt>
      <trkpt lat="44.49785" lon="6.4574">
        <ele>1183.078667</ele>
        <time>2026-07-27T10:52:13.000Z</time>
      </trkpt>
      <trkpt lat="44.4979" lon="6.45736">
        <ele>1182.798077</ele>
        <time>2026-07-27T10:52:14.000Z</time>
      </trkpt>
      <trkpt lat="44.4979" lon="6.45736">
        <ele>1182.798077</ele>
        <time>2026-07-27T10:52:14.000Z</time>
      </trkpt>
      <trkpt lat="44.49795" lon="6.45732">
        <ele>1182.523349</ele>
        <time>2026-07-27T10:52:15.000Z</time>
      </trkpt>
      <trkpt lat="44.49795" lon="6.45732">
        <ele>1182.523349</ele>
        <time>2026-07-27T10:52:15.000Z</time>
      </trkpt>
      <trkpt lat="44.49801" lon="6.45729">
        <ele>1182.231952</ele>
        <time>2026-07-27T10:52:16.000Z</time>
      </trkpt>
      <trkpt lat="44.49801" lon="6.45729">
        <ele>1182.231952</ele>
        <time>2026-07-27T10:52:16.000Z</time>
      </trkpt>
      <trkpt lat="44.49807" lon="6.45725">
        <ele>1181.931503</ele>
        <time>2026-07-27T10:52:17.000Z</time>
      </trkpt>
      <trkpt lat="44.49807" lon="6.45725">
        <ele>1181.931503</ele>
        <time>2026-07-27T10:52:17.000Z</time>
      </trkpt>
      <trkpt lat="44.49812" lon="6.45722">
        <ele>1181.636827</ele>
        <time>2026-07-27T10:52:18.000Z</time>
      </trkpt>
      <trkpt lat="44.49812" lon="6.45722">
        <ele>1181.636827</ele>
        <time>2026-07-27T10:52:18.000Z</time>
      </trkpt>
      <trkpt lat="44.4982" lon="6.45718">
        <ele>1181.263603</ele>
        <time>2026-07-27T10:52:19.000Z</time>
      </trkpt>
      <trkpt lat="44.4982" lon="6.45718">
        <ele>1181.263603</ele>
        <time>2026-07-27T10:52:19.000Z</time>
      </trkpt>
      <trkpt lat="44.49826" lon="6.45713">
        <ele>1180.92338</ele>
        <time>2026-07-27T10:52:20.000Z</time>
      </trkpt>
      <trkpt lat="44.49826" lon="6.45713">
        <ele>1180.92338</ele>
        <time>2026-07-27T10:52:20.000Z</time>
      </trkpt>
      <trkpt lat="44.49833" lon="6.45708">
        <ele>1180.579663</ele>
        <time>2026-07-27T10:52:21.000Z</time>
      </trkpt>
      <trkpt lat="44.49833" lon="6.45708">
        <ele>1180.579663</ele>
        <time>2026-07-27T10:52:21.000Z</time>
      </trkpt>
      <trkpt lat="44.49838" lon="6.45702">
        <ele>1180.24386</ele>
        <time>2026-07-27T10:52:22.000Z</time>
      </trkpt>
      <trkpt lat="44.49838" lon="6.45702">
        <ele>1180.24386</ele>
        <time>2026-07-27T10:52:22.000Z</time>
      </trkpt>
      <trkpt lat="44.49843" lon="6.45697">
        <ele>1179.947995</ele>
        <time>2026-07-27T10:52:23.000Z</time>
      </trkpt>
      <trkpt lat="44.49843" lon="6.45697">
        <ele>1179.947995</ele>
        <time>2026-07-27T10:52:23.000Z</time>
      </trkpt>
      <trkpt lat="44.49846" lon="6.45693">
        <ele>1179.744796</ele>
        <time>2026-07-27T10:52:23.000Z</time>
      </trkpt>
      <trkpt lat="44.49846" lon="6.45693">
        <ele>1179.744796</ele>
        <time>2026-07-27T10:52:23.000Z</time>
      </trkpt>
      <trkpt lat="44.49848" lon="6.45689">
        <ele>1179.588776</ele>
        <time>2026-07-27T10:52:25.000Z</time>
      </trkpt>
      <trkpt lat="44.49848" lon="6.45689">
        <ele>1179.588776</ele>
        <time>2026-07-27T10:52:25.000Z</time>
      </trkpt>
      <trkpt lat="44.49849" lon="6.45686">
        <ele>1179.492191</ele>
        <time>2026-07-27T10:52:25.000Z</time>
      </trkpt>
      <trkpt lat="44.49849" lon="6.45686">
        <ele>1179.492191</ele>
        <time>2026-07-27T10:52:25.000Z</time>
      </trkpt>
      <trkpt lat="44.4985" lon="6.45683">
        <ele>1179.358594</ele>
        <time>2026-07-27T10:52:27.000Z</time>
      </trkpt>
      <trkpt lat="44.4985" lon="6.45683">
        <ele>1179.358594</ele>
        <time>2026-07-27T10:52:27.000Z</time>
      </trkpt>
      <trkpt lat="44.49851" lon="6.4568">
        <ele>1179.259838</ele>
        <time>2026-07-27T10:52:27.000Z</time>
      </trkpt>
      <trkpt lat="44.49851" lon="6.4568">
        <ele>1179.259838</ele>
        <time>2026-07-27T10:52:27.000Z</time>
      </trkpt>
      <trkpt lat="44.49853" lon="6.45678">
        <ele>1179.155061</ele>
        <time>2026-07-27T10:52:28.000Z</time>
      </trkpt>
      <trkpt lat="44.49853" lon="6.45678">
        <ele>1179.155061</ele>
        <time>2026-07-27T10:52:28.000Z</time>
      </trkpt>
      <trkpt lat="44.49854" lon="6.45676">
        <ele>1179.060434</ele>
        <time>2026-07-27T10:52:30.000Z</time>
      </trkpt>
      <trkpt lat="44.49854" lon="6.45676">
        <ele>1179.060434</ele>
        <time>2026-07-27T10:52:30.000Z</time>
      </trkpt>
      <trkpt lat="44.49855" lon="6.45675">
        <ele>1178.946947</ele>
        <time>2026-07-27T10:52:30.000Z</time>
      </trkpt>
      <trkpt lat="44.49855" lon="6.45675">
        <ele>1178.946947</ele>
        <time>2026-07-27T10:52:30.000Z</time>
      </trkpt>
      <trkpt lat="44.49857" lon="6.45673">
        <ele>1178.684386</ele>
        <time>2026-07-27T10:52:31.000Z</time>
      </trkpt>
      <trkpt lat="44.49857" lon="6.45673">
        <ele>1178.684386</ele>
        <time>2026-07-27T10:52:31.000Z</time>
      </trkpt>
      <trkpt lat="44.4986" lon="6.45671">
        <ele>1178.425217</ele>
        <time>2026-07-27T10:52:33.000Z</time>
      </trkpt>
      <trkpt lat="44.4986" lon="6.45671">
        <ele>1178.425217</ele>
        <time>2026-07-27T10:52:33.000Z</time>
      </trkpt>
      <trkpt lat="44.49862" lon="6.45669">
        <ele>1178.098716</ele>
        <time>2026-07-27T10:52:33.000Z</time>
      </trkpt>
      <trkpt lat="44.49862" lon="6.45669">
        <ele>1178.098716</ele>
        <time>2026-07-27T10:52:33.000Z</time>
      </trkpt>
      <trkpt lat="44.49863" lon="6.45668">
        <ele>1177.968036</ele>
        <time>2026-07-27T10:52:34.000Z</time>
      </trkpt>
      <trkpt lat="44.49863" lon="6.45668">
        <ele>1177.968036</ele>
        <time>2026-07-27T10:52:34.000Z</time>
      </trkpt>
      <trkpt lat="44.49865" lon="6.45665">
        <ele>1177.693267</ele>
        <time>2026-07-27T10:52:35.000Z</time>
      </trkpt>
      <trkpt lat="44.49865" lon="6.45665">
        <ele>1177.693267</ele>
        <time>2026-07-27T10:52:35.000Z</time>
      </trkpt>
      <trkpt lat="44.49867" lon="6.45665">
        <ele>1177.573442</ele>
        <time>2026-07-27T10:52:37.000Z</time>
      </trkpt>
      <trkpt lat="44.49867" lon="6.45665">
        <ele>1177.573442</ele>
        <time>2026-07-27T10:52:37.000Z</time>
      </trkpt>
      <trkpt lat="44.49874" lon="6.45658">
        <ele>1176.686053</ele>
        <time>2026-07-27T10:52:38.000Z</time>
      </trkpt>
      <trkpt lat="44.49874" lon="6.45658">
        <ele>1176.686053</ele>
        <time>2026-07-27T10:52:38.000Z</time>
      </trkpt>
      <trkpt lat="44.49878" lon="6.45655">
        <ele>1176.258148</ele>
        <time>2026-07-27T10:52:39.000Z</time>
      </trkpt>
      <trkpt lat="44.49878" lon="6.45655">
        <ele>1176.258148</ele>
        <time>2026-07-27T10:52:39.000Z</time>
      </trkpt>
      <trkpt lat="44.49881" lon="6.45653">
        <ele>1175.950376</ele>
        <time>2026-07-27T10:52:40.000Z</time>
      </trkpt>
      <trkpt lat="44.49881" lon="6.45653">
        <ele>1175.950376</ele>
        <time>2026-07-27T10:52:40.000Z</time>
      </trkpt>
      <trkpt lat="44.49884" lon="6.45651">
        <ele>1175.54823</ele>
        <time>2026-07-27T10:52:41.000Z</time>
      </trkpt>
      <trkpt lat="44.49884" lon="6.45651">
        <ele>1175.54823</ele>
        <time>2026-07-27T10:52:41.000Z</time>
      </trkpt>
      <trkpt lat="44.49888" lon="6.4565">
        <ele>1175.218953</ele>
        <time>2026-07-27T10:52:42.000Z</time>
      </trkpt>
      <trkpt lat="44.49888" lon="6.4565">
        <ele>1175.218953</ele>
        <time>2026-07-27T10:52:42.000Z</time>
      </trkpt>
      <trkpt lat="44.4989" lon="6.45646">
        <ele>1174.869364</ele>
        <time>2026-07-27T10:52:42.000Z</time>
      </trkpt>
      <trkpt lat="44.4989" lon="6.45646">
        <ele>1174.869364</ele>
        <time>2026-07-27T10:52:42.000Z</time>
      </trkpt>
      <trkpt lat="44.49893" lon="6.45644">
        <ele>1174.546835</ele>
        <time>2026-07-27T10:52:44.000Z</time>
      </trkpt>
      <trkpt lat="44.49893" lon="6.45644">
        <ele>1174.546835</ele>
        <time>2026-07-27T10:52:44.000Z</time>
      </trkpt>
      <trkpt lat="44.49896" lon="6.45641">
        <ele>1174.203433</ele>
        <time>2026-07-27T10:52:45.000Z</time>
      </trkpt>
      <trkpt lat="44.49896" lon="6.45641">
        <ele>1174.203433</ele>
        <time>2026-07-27T10:52:45.000Z</time>
      </trkpt>
      <trkpt lat="44.49899" lon="6.45638">
        <ele>1173.855561</ele>
        <time>2026-07-27T10:52:46.000Z</time>
      </trkpt>
      <trkpt lat="44.49899" lon="6.45638">
        <ele>1173.855561</ele>
        <time>2026-07-27T10:52:46.000Z</time>
      </trkpt>
      <trkpt lat="44.49901" lon="6.45635">
        <ele>1173.511948</ele>
        <time>2026-07-27T10:52:47.000Z</time>
      </trkpt>
      <trkpt lat="44.49901" lon="6.45635">
        <ele>1173.511948</ele>
        <time>2026-07-27T10:52:47.000Z</time>
      </trkpt>
      <trkpt lat="44.49903" lon="6.4563">
        <ele>1173.124106</ele>
        <time>2026-07-27T10:52:48.000Z</time>
      </trkpt>
      <trkpt lat="44.49903" lon="6.4563">
        <ele>1173.124106</ele>
        <time>2026-07-27T10:52:48.000Z</time>
      </trkpt>
      <trkpt lat="44.49906" lon="6.45626">
        <ele>1172.722114</ele>
        <time>2026-07-27T10:52:49.000Z</time>
      </trkpt>
      <trkpt lat="44.49906" lon="6.45626">
        <ele>1172.722114</ele>
        <time>2026-07-27T10:52:49.000Z</time>
      </trkpt>
      <trkpt lat="44.4991" lon="6.45621">
        <ele>1172.177474</ele>
        <time>2026-07-27T10:52:50.000Z</time>
      </trkpt>
      <trkpt lat="44.4991" lon="6.45621">
        <ele>1172.177474</ele>
        <time>2026-07-27T10:52:50.000Z</time>
      </trkpt>
      <trkpt lat="44.49913" lon="6.45618">
        <ele>1171.788446</ele>
        <time>2026-07-27T10:52:51.000Z</time>
      </trkpt>
      <trkpt lat="44.49913" lon="6.45618">
        <ele>1171.788446</ele>
        <time>2026-07-27T10:52:51.000Z</time>
      </trkpt>
      <trkpt lat="44.49916" lon="6.45613">
        <ele>1171.342575</ele>
        <time>2026-07-27T10:52:52.000Z</time>
      </trkpt>
      <trkpt lat="44.49916" lon="6.45613">
        <ele>1171.342575</ele>
        <time>2026-07-27T10:52:52.000Z</time>
      </trkpt>
      <trkpt lat="44.49919" lon="6.45606">
        <ele>1170.722715</ele>
        <time>2026-07-27T10:52:53.000Z</time>
      </trkpt>
      <trkpt lat="44.49919" lon="6.45606">
        <ele>1170.722715</ele>
        <time>2026-07-27T10:52:53.000Z</time>
      </trkpt>
      <trkpt lat="44.49922" lon="6.456">
        <ele>1170.207425</ele>
        <time>2026-07-27T10:52:54.000Z</time>
      </trkpt>
      <trkpt lat="44.49925" lon="6.45595">
        <ele>1169.769497</ele>
        <time>2026-07-27T10:52:55.000Z</time>
      </trkpt>
      <trkpt lat="44.49925" lon="6.45595">
        <ele>1169.769497</ele>
        <time>2026-07-27T10:52:55.000Z</time>
      </trkpt>
      <trkpt lat="44.49929" lon="6.45592">
        <ele>1169.340971</ele>
        <time>2026-07-27T10:52:55.000Z</time>
      </trkpt>
      <trkpt lat="44.49929" lon="6.45592">
        <ele>1169.340971</ele>
        <time>2026-07-27T10:52:55.000Z</time>
      </trkpt>
      <trkpt lat="44.49931" lon="6.4559">
        <ele>1169.048715</ele>
        <time>2026-07-27T10:52:56.000Z</time>
      </trkpt>
      <trkpt lat="44.49931" lon="6.4559">
        <ele>1169.048715</ele>
        <time>2026-07-27T10:52:56.000Z</time>
      </trkpt>
      <trkpt lat="44.49933" lon="6.45587">
        <ele>1168.793638</ele>
        <time>2026-07-27T10:52:57.000Z</time>
      </trkpt>
      <trkpt lat="44.49933" lon="6.45587">
        <ele>1168.793638</ele>
        <time>2026-07-27T10:52:57.000Z</time>
      </trkpt>
      <trkpt lat="44.49933" lon="6.45587">
        <ele>1168.793638</ele>
        <time>2026-07-27T10:52:59.000Z</time>
      </trkpt>
      <trkpt lat="44.49936" lon="6.45584">
        <ele>1168.400589</ele>
        <time>2026-07-27T10:53:00.000Z</time>
      </trkpt>
      <trkpt lat="44.49936" lon="6.45584">
        <ele>1168.400589</ele>
        <time>2026-07-27T10:53:00.000Z</time>
      </trkpt>
      <trkpt lat="44.49936" lon="6.45584">
        <ele>1168.400589</ele>
        <time>2026-07-27T10:53:01.000Z</time>
      </trkpt>
      <trkpt lat="44.49936" lon="6.45584">
        <ele>1168.400589</ele>
        <time>2026-07-27T10:53:02.000Z</time>
      </trkpt>
      <trkpt lat="44.49936" lon="6.45584">
        <ele>1168.400589</ele>
        <time>2026-07-27T10:53:03.000Z</time>
      </trkpt>
      <trkpt lat="44.49939" lon="6.45582">
        <ele>1168.130813</ele>
        <time>2026-07-27T10:53:04.000Z</time>
      </trkpt>
      <trkpt lat="44.49939" lon="6.45582">
        <ele>1168.130813</ele>
        <time>2026-07-27T10:53:04.000Z</time>
      </trkpt>
      <trkpt lat="44.49939" lon="6.45582">
        <ele>1168.130813</ele>
        <time>2026-07-27T10:53:05.000Z</time>
      </trkpt>
      <trkpt lat="44.49939" lon="6.45582">
        <ele>1168.130813</ele>
        <time>2026-07-27T10:53:06.000Z</time>
      </trkpt>
      <trkpt lat="44.49939" lon="6.45582">
        <ele>1168.130813</ele>
        <time>2026-07-27T10:53:07.000Z</time>
      </trkpt>
      <trkpt lat="44.49939" lon="6.45582">
        <ele>1168.130813</ele>
        <time>2026-07-27T10:53:08.000Z</time>
      </trkpt>
      <trkpt lat="44.49939" lon="6.45582">
        <ele>1168.123703</ele>
        <time>2026-07-27T10:53:09.000Z</time>
      </trkpt>
      <trkpt lat="44.49939" lon="6.45582">
        <ele>1168.116594</ele>
        <time>2026-07-27T10:53:10.000Z</time>
      </trkpt>
      <trkpt lat="44.49939" lon="6.45582">
        <ele>1168.116594</ele>
        <time>2026-07-27T10:53:10.000Z</time>
      </trkpt>
      <trkpt lat="44.49939" lon="6.45582">
        <ele>1168.073936</ele>
        <time>2026-07-27T10:53:12.000Z</time>
      </trkpt>
      <trkpt lat="44.49939" lon="6.45582">
        <ele>1168.073936</ele>
        <time>2026-07-27T10:53:12.000Z</time>
      </trkpt>
      <trkpt lat="44.49939" lon="6.45581">
        <ele>1168.004475</ele>
        <time>2026-07-27T10:53:12.000Z</time>
      </trkpt>
      <trkpt lat="44.4994" lon="6.4558">
        <ele>1167.861071</ele>
        <time>2026-07-27T10:53:14.000Z</time>
      </trkpt>
      <trkpt lat="44.4994" lon="6.4558">
        <ele>1167.861071</ele>
        <time>2026-07-27T10:53:14.000Z</time>
      </trkpt>
      <trkpt lat="44.49948" lon="6.45569">
        <ele>1166.777355</ele>
        <time>2026-07-27T10:53:15.000Z</time>
      </trkpt>
      <trkpt lat="44.49948" lon="6.45569">
        <ele>1166.777355</ele>
        <time>2026-07-27T10:53:15.000Z</time>
      </trkpt>
      <trkpt lat="44.4995" lon="6.45564">
        <ele>1166.400891</ele>
        <time>2026-07-27T10:53:16.000Z</time>
      </trkpt>
      <trkpt lat="44.4995" lon="6.45564">
        <ele>1166.400891</ele>
        <time>2026-07-27T10:53:16.000Z</time>
      </trkpt>
      <trkpt lat="44.49951" lon="6.45561">
        <ele>1166.132809</ele>
        <time>2026-07-27T10:53:16.000Z</time>
      </trkpt>
      <trkpt lat="44.49951" lon="6.45561">
        <ele>1166.132809</ele>
        <time>2026-07-27T10:53:16.000Z</time>
      </trkpt>
      <trkpt lat="44.49952" lon="6.45557">
        <ele>1165.847816</ele>
        <time>2026-07-27T10:53:18.000Z</time>
      </trkpt>
      <trkpt lat="44.49952" lon="6.45557">
        <ele>1165.847816</ele>
        <time>2026-07-27T10:53:18.000Z</time>
      </trkpt>
      <trkpt lat="44.49954" lon="6.45554">
        <ele>1165.529418</ele>
        <time>2026-07-27T10:53:18.000Z</time>
      </trkpt>
      <trkpt lat="44.49954" lon="6.45554">
        <ele>1165.529418</ele>
        <time>2026-07-27T10:53:18.000Z</time>
      </trkpt>
      <trkpt lat="44.49955" lon="6.4555">
        <ele>1165.259716</ele>
        <time>2026-07-27T10:53:20.000Z</time>
      </trkpt>
      <trkpt lat="44.49955" lon="6.4555">
        <ele>1165.259716</ele>
        <time>2026-07-27T10:53:20.000Z</time>
      </trkpt>
      <trkpt lat="44.49956" lon="6.45546">
        <ele>1164.973795</ele>
        <time>2026-07-27T10:53:20.000Z</time>
      </trkpt>
      <trkpt lat="44.49956" lon="6.45546">
        <ele>1164.973795</ele>
        <time>2026-07-27T10:53:20.000Z</time>
      </trkpt>
      <trkpt lat="44.49957" lon="6.45543">
        <ele>1164.735431</ele>
        <time>2026-07-27T10:53:21.000Z</time>
      </trkpt>
      <trkpt lat="44.49957" lon="6.45543">
        <ele>1164.735431</ele>
        <time>2026-07-27T10:53:21.000Z</time>
      </trkpt>
      <trkpt lat="44.49958" lon="6.45541">
        <ele>1164.553502</ele>
        <time>2026-07-27T10:53:22.000Z</time>
      </trkpt>
      <trkpt lat="44.49958" lon="6.45541">
        <ele>1164.553502</ele>
        <time>2026-07-27T10:53:22.000Z</time>
      </trkpt>
      <trkpt lat="44.49959" lon="6.45539">
        <ele>1164.365631</ele>
        <time>2026-07-27T10:53:24.000Z</time>
      </trkpt>
      <trkpt lat="44.49959" lon="6.45539">
        <ele>1164.365631</ele>
        <time>2026-07-27T10:53:24.000Z</time>
      </trkpt>
      <trkpt lat="44.49961" lon="6.45538">
        <ele>1164.196896</ele>
        <time>2026-07-27T10:53:24.000Z</time>
      </trkpt>
      <trkpt lat="44.49961" lon="6.45538">
        <ele>1164.196896</ele>
        <time>2026-07-27T10:53:24.000Z</time>
      </trkpt>
      <trkpt lat="44.49962" lon="6.45538">
        <ele>1164.044697</ele>
        <time>2026-07-27T10:53:26.000Z</time>
      </trkpt>
      <trkpt lat="44.49962" lon="6.45538">
        <ele>1164.044697</ele>
        <time>2026-07-27T10:53:26.000Z</time>
      </trkpt>
      <trkpt lat="44.49964" lon="6.45538">
        <ele>1163.853185</ele>
        <time>2026-07-27T10:53:27.000Z</time>
      </trkpt>
      <trkpt lat="44.49964" lon="6.45538">
        <ele>1163.853185</ele>
        <time>2026-07-27T10:53:27.000Z</time>
      </trkpt>
      <trkpt lat="44.49965" lon="6.45538">
        <ele>1163.794795</ele>
        <time>2026-07-27T10:53:28.000Z</time>
      </trkpt>
      <trkpt lat="44.49965" lon="6.45538">
        <ele>1163.713794</ele>
        <time>2026-07-27T10:53:29.000Z</time>
      </trkpt>
      <trkpt lat="44.49966" lon="6.45539">
        <ele>1163.638402</ele>
        <time>2026-07-27T10:53:30.000Z</time>
      </trkpt>
      <trkpt lat="44.49966" lon="6.45541">
        <ele>1163.54126</ele>
        <time>2026-07-27T10:53:31.000Z</time>
      </trkpt>
      <trkpt lat="44.49968" lon="6.45541">
        <ele>1163.371936</ele>
        <time>2026-07-27T10:53:31.000Z</time>
      </trkpt>
      <trkpt lat="44.49968" lon="6.45541">
        <ele>1163.371936</ele>
        <time>2026-07-27T10:53:31.000Z</time>
      </trkpt>
      <trkpt lat="44.49969" lon="6.45542">
        <ele>1163.248415</ele>
        <time>2026-07-27T10:53:32.000Z</time>
      </trkpt>
      <trkpt lat="44.49969" lon="6.45542">
        <ele>1163.248415</ele>
        <time>2026-07-27T10:53:32.000Z</time>
      </trkpt>
      <trkpt lat="44.49969" lon="6.45542">
        <ele>1163.203197</ele>
        <time>2026-07-27T10:53:34.000Z</time>
      </trkpt>
      <trkpt lat="44.4997" lon="6.45543">
        <ele>1163.127805</ele>
        <time>2026-07-27T10:53:35.000Z</time>
      </trkpt>
      <trkpt lat="44.49971" lon="6.45545">
        <ele>1162.899233</ele>
        <time>2026-07-27T10:53:36.000Z</time>
      </trkpt>
      <trkpt lat="44.49971" lon="6.45545">
        <ele>1162.899233</ele>
        <time>2026-07-27T10:53:36.000Z</time>
      </trkpt>
      <trkpt lat="44.49973" lon="6.45547">
        <ele>1162.666605</ele>
        <time>2026-07-27T10:53:37.000Z</time>
      </trkpt>
      <trkpt lat="44.49973" lon="6.45547">
        <ele>1162.666605</ele>
        <time>2026-07-27T10:53:37.000Z</time>
      </trkpt>
      <trkpt lat="44.49975" lon="6.4555">
        <ele>1162.411919</ele>
        <time>2026-07-27T10:53:38.000Z</time>
      </trkpt>
      <trkpt lat="44.49975" lon="6.4555">
        <ele>1162.411919</ele>
        <time>2026-07-27T10:53:38.000Z</time>
      </trkpt>
      <trkpt lat="44.49976" lon="6.45553">
        <ele>1162.154883</ele>
        <time>2026-07-27T10:53:39.000Z</time>
      </trkpt>
      <trkpt lat="44.49976" lon="6.45553">
        <ele>1162.154883</ele>
        <time>2026-07-27T10:53:39.000Z</time>
      </trkpt>
      <trkpt lat="44.49976" lon="6.45558">
        <ele>1161.842061</ele>
        <time>2026-07-27T10:53:40.000Z</time>
      </trkpt>
      <trkpt lat="44.49976" lon="6.45558">
        <ele>1161.842061</ele>
        <time>2026-07-27T10:53:40.000Z</time>
      </trkpt>
      <trkpt lat="44.49976" lon="6.45561">
        <ele>1161.561934</ele>
        <time>2026-07-27T10:53:41.000Z</time>
      </trkpt>
      <trkpt lat="44.49976" lon="6.45561">
        <ele>1161.561934</ele>
        <time>2026-07-27T10:53:41.000Z</time>
      </trkpt>
      <trkpt lat="44.49975" lon="6.45565">
        <ele>1161.337959</ele>
        <time>2026-07-27T10:53:42.000Z</time>
      </trkpt>
      <trkpt lat="44.49975" lon="6.45565">
        <ele>1161.337959</ele>
        <time>2026-07-27T10:53:42.000Z</time>
      </trkpt>
      <trkpt lat="44.49975" lon="6.45568">
        <ele>1161.124671</ele>
        <time>2026-07-27T10:53:43.000Z</time>
      </trkpt>
      <trkpt lat="44.49975" lon="6.45568">
        <ele>1161.124671</ele>
        <time>2026-07-27T10:53:43.000Z</time>
      </trkpt>
      <trkpt lat="44.49975" lon="6.4557">
        <ele>1160.999528</ele>
        <time>2026-07-27T10:53:44.000Z</time>
      </trkpt>
      <trkpt lat="44.49975" lon="6.4557">
        <ele>1160.999528</ele>
        <time>2026-07-27T10:53:44.000Z</time>
      </trkpt>
      <trkpt lat="44.49975" lon="6.45572">
        <ele>1160.890559</ele>
        <time>2026-07-27T10:53:45.000Z</time>
      </trkpt>
      <trkpt lat="44.49975" lon="6.45572">
        <ele>1160.890559</ele>
        <time>2026-07-27T10:53:45.000Z</time>
      </trkpt>
      <trkpt lat="44.49975" lon="6.45572">
        <ele>1160.890559</ele>
        <time>2026-07-27T10:53:46.000Z</time>
      </trkpt>
      <trkpt lat="44.49976" lon="6.45578">
        <ele>1160.58455</ele>
        <time>2026-07-27T10:53:47.000Z</time>
      </trkpt>
      <trkpt lat="44.49976" lon="6.45578">
        <ele>1160.58455</ele>
        <time>2026-07-27T10:53:47.000Z</time>
      </trkpt>
      <trkpt lat="44.49976" lon="6.45581">
        <ele>1160.449191</ele>
        <time>2026-07-27T10:53:48.000Z</time>
      </trkpt>
      <trkpt lat="44.49976" lon="6.45581">
        <ele>1160.449191</ele>
        <time>2026-07-27T10:53:48.000Z</time>
      </trkpt>
      <trkpt lat="44.49976" lon="6.45584">
        <ele>1160.266535</ele>
        <time>2026-07-27T10:53:49.000Z</time>
      </trkpt>
      <trkpt lat="44.49976" lon="6.45584">
        <ele>1160.266535</ele>
        <time>2026-07-27T10:53:49.000Z</time>
      </trkpt>
      <trkpt lat="44.49975" lon="6.45588">
        <ele>1160.088831</ele>
        <time>2026-07-27T10:53:50.000Z</time>
      </trkpt>
      <trkpt lat="44.49975" lon="6.45588">
        <ele>1160.088831</ele>
        <time>2026-07-27T10:53:50.000Z</time>
      </trkpt>
      <trkpt lat="44.49974" lon="6.45591">
        <ele>1159.93295</ele>
        <time>2026-07-27T10:53:51.000Z</time>
      </trkpt>
      <trkpt lat="44.49974" lon="6.45591">
        <ele>1159.93295</ele>
        <time>2026-07-27T10:53:51.000Z</time>
      </trkpt>
      <trkpt lat="44.49973" lon="6.45594">
        <ele>1159.749276</ele>
        <time>2026-07-27T10:53:52.000Z</time>
      </trkpt>
      <trkpt lat="44.49973" lon="6.45594">
        <ele>1159.749276</ele>
        <time>2026-07-27T10:53:52.000Z</time>
      </trkpt>
      <trkpt lat="44.49972" lon="6.45596">
        <ele>1159.607319</ele>
        <time>2026-07-27T10:53:53.000Z</time>
      </trkpt>
      <trkpt lat="44.49972" lon="6.45596">
        <ele>1159.607319</ele>
        <time>2026-07-27T10:53:53.000Z</time>
      </trkpt>
      <trkpt lat="44.49972" lon="6.45596">
        <ele>1159.607319</ele>
        <time>2026-07-27T10:53:54.000Z</time>
      </trkpt>
      <trkpt lat="44.49973" lon="6.45601">
        <ele>1159.374999</ele>
        <time>2026-07-27T10:53:55.000Z</time>
      </trkpt>
      <trkpt lat="44.49973" lon="6.45601">
        <ele>1159.374999</ele>
        <time>2026-07-27T10:53:55.000Z</time>
      </trkpt>
      <trkpt lat="44.49973" lon="6.45601">
        <ele>1159.374999</ele>
        <time>2026-07-27T10:53:56.000Z</time>
      </trkpt>
      <trkpt lat="44.49973" lon="6.45601">
        <ele>1159.374999</ele>
        <time>2026-07-27T10:53:57.000Z</time>
      </trkpt>
      <trkpt lat="44.49974" lon="6.45603">
        <ele>1159.258602</ele>
        <time>2026-07-27T10:59:51.000Z</time>
      </trkpt>
      <trkpt lat="44.49976" lon="6.45599">
        <ele>1158.994614</ele>
        <time>2026-07-27T10:59:54.000Z</time>
      </trkpt>
      <trkpt lat="44.49977" lon="6.45597">
        <ele>1158.884003</ele>
        <time>2026-07-27T10:59:55.000Z</time>
      </trkpt>
      <trkpt lat="44.49978" lon="6.45594">
        <ele>1158.732932</ele>
        <time>2026-07-27T10:59:55.000Z</time>
      </trkpt>
      <trkpt lat="44.49979" lon="6.45592">
        <ele>1158.625722</ele>
        <time>2026-07-27T10:59:57.000Z</time>
      </trkpt>
      <trkpt lat="44.4998" lon="6.45589">
        <ele>1158.46045</ele>
        <time>2026-07-27T10:59:59.000Z</time>
      </trkpt>
      <trkpt lat="44.4998" lon="6.45589">
        <ele>1158.46045</ele>
        <time>2026-07-27T10:59:59.000Z</time>
      </trkpt>
      <trkpt lat="44.4998" lon="6.45587">
        <ele>1158.356317</ele>
        <time>2026-07-27T11:00:00.000Z</time>
      </trkpt>
      <trkpt lat="44.4998" lon="6.45587">
        <ele>1158.356317</ele>
        <time>2026-07-27T11:00:00.000Z</time>
      </trkpt>
      <trkpt lat="44.49981" lon="6.45585">
        <ele>1158.235547</ele>
        <time>2026-07-27T11:00:01.000Z</time>
      </trkpt>
      <trkpt lat="44.49982" lon="6.45583">
        <ele>1158.112027</ele>
        <time>2026-07-27T11:00:02.000Z</time>
      </trkpt>
      <trkpt lat="44.49984" lon="6.45579">
        <ele>1157.854446</ele>
        <time>2026-07-27T11:00:03.000Z</time>
      </trkpt>
      <trkpt lat="44.49985" lon="6.45578">
        <ele>1157.764581</ele>
        <time>2026-07-27T11:00:04.000Z</time>
      </trkpt>
      <trkpt lat="44.49986" lon="6.45576">
        <ele>1157.658256</ele>
        <time>2026-07-27T11:00:06.000Z</time>
      </trkpt>
      <trkpt lat="44.49987" lon="6.45574">
        <ele>1157.51276</ele>
        <time>2026-07-27T11:00:06.000Z</time>
      </trkpt>
      <trkpt lat="44.49989" lon="6.45572">
        <ele>1157.373983</ele>
        <time>2026-07-27T11:00:07.000Z</time>
      </trkpt>
      <trkpt lat="44.4999" lon="6.4557">
        <ele>1157.246754</ele>
        <time>2026-07-27T11:00:09.000Z</time>
      </trkpt>
      <trkpt lat="44.49993" lon="6.45569">
        <ele>1157.044414</ele>
        <time>2026-07-27T11:00:10.000Z</time>
      </trkpt>
      <trkpt lat="44.49995" lon="6.45567">
        <ele>1156.888629</ele>
        <time>2026-07-27T11:00:11.000Z</time>
      </trkpt>
      <trkpt lat="44.49995" lon="6.45567">
        <ele>1156.888629</ele>
        <time>2026-07-27T11:00:11.000Z</time>
      </trkpt>
      <trkpt lat="44.49997" lon="6.45566">
        <ele>1156.744144</ele>
        <time>2026-07-27T11:00:12.000Z</time>
      </trkpt>
      <trkpt lat="44.49999" lon="6.45565">
        <ele>1156.565848</ele>
        <time>2026-07-27T11:00:13.000Z</time>
      </trkpt>
      <trkpt lat="44.50002" lon="6.45562">
        <ele>1156.344251</ele>
        <time>2026-07-27T11:00:14.000Z</time>
      </trkpt>
      <trkpt lat="44.50003" lon="6.45562">
        <ele>1156.210328</ele>
        <time>2026-07-27T11:00:15.000Z</time>
      </trkpt>
      <trkpt lat="44.50005" lon="6.4556">
        <ele>1156.054543</ele>
        <time>2026-07-27T11:00:16.000Z</time>
      </trkpt>
      <trkpt lat="44.50008" lon="6.45559">
        <ele>1155.825626</ele>
        <time>2026-07-27T11:00:17.000Z</time>
      </trkpt>
      <trkpt lat="44.50011" lon="6.45557">
        <ele>1155.642875</ele>
        <time>2026-07-27T11:00:17.000Z</time>
      </trkpt>
      <trkpt lat="44.50011" lon="6.45557">
        <ele>1155.642875</ele>
        <time>2026-07-27T11:00:17.000Z</time>
      </trkpt>
      <trkpt lat="44.50014" lon="6.45554">
        <ele>1155.380928</ele>
        <time>2026-07-27T11:00:19.000Z</time>
      </trkpt>
      <trkpt lat="44.50016" lon="6.45552">
        <ele>1155.150699</ele>
        <time>2026-07-27T11:00:20.000Z</time>
      </trkpt>
      <trkpt lat="44.5002" lon="6.45548">
        <ele>1154.877117</ele>
        <time>2026-07-27T11:00:21.000Z</time>
      </trkpt>
      <trkpt lat="44.50023" lon="6.45545">
        <ele>1154.620992</ele>
        <time>2026-07-27T11:00:22.000Z</time>
      </trkpt>
      <trkpt lat="44.50023" lon="6.45545">
        <ele>1154.620992</ele>
        <time>2026-07-27T11:00:22.000Z</time>
      </trkpt>
      <trkpt lat="44.50025" lon="6.45542">
        <ele>1154.365906</ele>
        <time>2026-07-27T11:00:22.000Z</time>
      </trkpt>
      <trkpt lat="44.50028" lon="6.45539">
        <ele>1154.097889</ele>
        <time>2026-07-27T11:00:23.000Z</time>
      </trkpt>
      <trkpt lat="44.50031" lon="6.45535">
        <ele>1153.811735</ele>
        <time>2026-07-27T11:00:24.000Z</time>
      </trkpt>
      <trkpt lat="44.50031" lon="6.45535">
        <ele>1153.811735</ele>
        <time>2026-07-27T11:00:24.000Z</time>
      </trkpt>
      <trkpt lat="44.50034" lon="6.45531">
        <ele>1153.534182</ele>
        <time>2026-07-27T11:00:25.000Z</time>
      </trkpt>
      <trkpt lat="44.50037" lon="6.45528">
        <ele>1153.248029</ele>
        <time>2026-07-27T11:00:27.000Z</time>
      </trkpt>
      <trkpt lat="44.5004" lon="6.45524">
        <ele>1152.96719</ele>
        <time>2026-07-27T11:00:28.000Z</time>
      </trkpt>
      <trkpt lat="44.5004" lon="6.45524">
        <ele>1152.96719</ele>
        <time>2026-07-27T11:00:28.000Z</time>
      </trkpt>
      <trkpt lat="44.50043" lon="6.45521">
        <ele>1152.715427</ele>
        <time>2026-07-27T11:00:29.000Z</time>
      </trkpt>
      <trkpt lat="44.50047" lon="6.45516">
        <ele>1152.390207</ele>
        <time>2026-07-27T11:00:30.000Z</time>
      </trkpt>
      <trkpt lat="44.5005" lon="6.45513">
        <ele>1152.107278</ele>
        <time>2026-07-27T11:00:31.000Z</time>
      </trkpt>
      <trkpt lat="44.5005" lon="6.45513">
        <ele>1152.107278</ele>
        <time>2026-07-27T11:00:31.000Z</time>
      </trkpt>
      <trkpt lat="44.50052" lon="6.45509">
        <ele>1151.875968</ele>
        <time>2026-07-27T11:00:32.000Z</time>
      </trkpt>
      <trkpt lat="44.50054" lon="6.45507">
        <ele>1151.658549</ele>
        <time>2026-07-27T11:00:32.000Z</time>
      </trkpt>
      <trkpt lat="44.50054" lon="6.45507">
        <ele>1151.658549</ele>
        <time>2026-07-27T11:00:32.000Z</time>
      </trkpt>
      <trkpt lat="44.50057" lon="6.45504">
        <ele>1151.415774</ele>
        <time>2026-07-27T11:00:34.000Z</time>
      </trkpt>
      <trkpt lat="44.50061" lon="6.45504">
        <ele>1151.167934</ele>
        <time>2026-07-27T11:00:35.000Z</time>
      </trkpt>
      <trkpt lat="44.50065" lon="6.45504">
        <ele>1150.897846</ele>
        <time>2026-07-27T11:00:36.000Z</time>
      </trkpt>
      <trkpt lat="44.50065" lon="6.45504">
        <ele>1150.897846</ele>
        <time>2026-07-27T11:00:36.000Z</time>
      </trkpt>
      <trkpt lat="44.50068" lon="6.45506">
        <ele>1150.640584</ele>
        <time>2026-07-27T11:00:37.000Z</time>
      </trkpt>
      <trkpt lat="44.50073" lon="6.45508">
        <ele>1150.30863</ele>
        <time>2026-07-27T11:00:38.000Z</time>
      </trkpt>
      <trkpt lat="44.50073" lon="6.45508">
        <ele>1150.30863</ele>
        <time>2026-07-27T11:00:38.000Z</time>
      </trkpt>
      <trkpt lat="44.50077" lon="6.45508">
        <ele>1150.01325</ele>
        <time>2026-07-27T11:00:39.000Z</time>
      </trkpt>
      <trkpt lat="44.50077" lon="6.45508">
        <ele>1150.01325</ele>
        <time>2026-07-27T11:00:39.000Z</time>
      </trkpt>
      <trkpt lat="44.50081" lon="6.45507">
        <ele>1149.711974</ele>
        <time>2026-07-27T11:00:40.000Z</time>
      </trkpt>
      <trkpt lat="44.50086" lon="6.45507">
        <ele>1149.339448</ele>
        <time>2026-07-27T11:00:41.000Z</time>
      </trkpt>
      <trkpt lat="44.50086" lon="6.45507">
        <ele>1149.339448</ele>
        <time>2026-07-27T11:00:41.000Z</time>
      </trkpt>
      <trkpt lat="44.50092" lon="6.45506">
        <ele>1148.958275</ele>
        <time>2026-07-27T11:00:42.000Z</time>
      </trkpt>
      <trkpt lat="44.50092" lon="6.45506">
        <ele>1148.958275</ele>
        <time>2026-07-27T11:00:42.000Z</time>
      </trkpt>
      <trkpt lat="44.50097" lon="6.45505">
        <ele>1148.554509</ele>
        <time>2026-07-27T11:00:43.000Z</time>
      </trkpt>
      <trkpt lat="44.50097" lon="6.45505">
        <ele>1148.554509</ele>
        <time>2026-07-27T11:00:43.000Z</time>
      </trkpt>
      <trkpt lat="44.50102" lon="6.45503">
        <ele>1148.108536</ele>
        <time>2026-07-27T11:00:44.000Z</time>
      </trkpt>
      <trkpt lat="44.50102" lon="6.45503">
        <ele>1148.108536</ele>
        <time>2026-07-27T11:00:44.000Z</time>
      </trkpt>
      <trkpt lat="44.50107" lon="6.45499">
        <ele>1147.627275</ele>
        <time>2026-07-27T11:00:45.000Z</time>
      </trkpt>
      <trkpt lat="44.50107" lon="6.45499">
        <ele>1147.627275</ele>
        <time>2026-07-27T11:00:45.000Z</time>
      </trkpt>
      <trkpt lat="44.50111" lon="6.45494">
        <ele>1147.09866</ele>
        <time>2026-07-27T11:00:46.000Z</time>
      </trkpt>
      <trkpt lat="44.50111" lon="6.45494">
        <ele>1147.09866</ele>
        <time>2026-07-27T11:00:46.000Z</time>
      </trkpt>
      <trkpt lat="44.50116" lon="6.45488">
        <ele>1146.584994</ele>
        <time>2026-07-27T11:00:47.000Z</time>
      </trkpt>
      <trkpt lat="44.50116" lon="6.45488">
        <ele>1146.584994</ele>
        <time>2026-07-27T11:00:47.000Z</time>
      </trkpt>
      <trkpt lat="44.50119" lon="6.45484">
        <ele>1146.159099</ele>
        <time>2026-07-27T11:00:48.000Z</time>
      </trkpt>
      <trkpt lat="44.50119" lon="6.45484">
        <ele>1146.159099</ele>
        <time>2026-07-27T11:00:48.000Z</time>
      </trkpt>
      <trkpt lat="44.50123" lon="6.45481">
        <ele>1145.782459</ele>
        <time>2026-07-27T11:00:49.000Z</time>
      </trkpt>
      <trkpt lat="44.50123" lon="6.45481">
        <ele>1145.782459</ele>
        <time>2026-07-27T11:00:49.000Z</time>
      </trkpt>
      <trkpt lat="44.50126" lon="6.45478">
        <ele>1145.444923</ele>
        <time>2026-07-27T11:00:50.000Z</time>
      </trkpt>
      <trkpt lat="44.50126" lon="6.45478">
        <ele>1145.444923</ele>
        <time>2026-07-27T11:00:50.000Z</time>
      </trkpt>
      <trkpt lat="44.50129" lon="6.45477">
        <ele>1145.128888</ele>
        <time>2026-07-27T11:00:51.000Z</time>
      </trkpt>
      <trkpt lat="44.50129" lon="6.45477">
        <ele>1145.128888</ele>
        <time>2026-07-27T11:00:51.000Z</time>
      </trkpt>
      <trkpt lat="44.50132" lon="6.45477">
        <ele>1144.849382</ele>
        <time>2026-07-27T11:00:52.000Z</time>
      </trkpt>
      <trkpt lat="44.50132" lon="6.45477">
        <ele>1144.849382</ele>
        <time>2026-07-27T11:00:52.000Z</time>
      </trkpt>
      <trkpt lat="44.50136" lon="6.45478">
        <ele>1144.534855</ele>
        <time>2026-07-27T11:00:53.000Z</time>
      </trkpt>
      <trkpt lat="44.50136" lon="6.45478">
        <ele>1144.534855</ele>
        <time>2026-07-27T11:00:53.000Z</time>
      </trkpt>
      <trkpt lat="44.5014" lon="6.45481">
        <ele>1144.147904</ele>
        <time>2026-07-27T11:00:54.000Z</time>
      </trkpt>
      <trkpt lat="44.5014" lon="6.45481">
        <ele>1144.147904</ele>
        <time>2026-07-27T11:00:54.000Z</time>
      </trkpt>
      <trkpt lat="44.50145" lon="6.45485">
        <ele>1143.606136</ele>
        <time>2026-07-27T11:00:55.000Z</time>
      </trkpt>
      <trkpt lat="44.50145" lon="6.45485">
        <ele>1143.606136</ele>
        <time>2026-07-27T11:00:55.000Z</time>
      </trkpt>
      <trkpt lat="44.50151" lon="6.4549">
        <ele>1142.969217</ele>
        <time>2026-07-27T11:00:56.000Z</time>
      </trkpt>
      <trkpt lat="44.50151" lon="6.4549">
        <ele>1142.969217</ele>
        <time>2026-07-27T11:00:56.000Z</time>
      </trkpt>
      <trkpt lat="44.50157" lon="6.45495">
        <ele>1142.32903</ele>
        <time>2026-07-27T11:00:57.000Z</time>
      </trkpt>
      <trkpt lat="44.50157" lon="6.45495">
        <ele>1142.32903</ele>
        <time>2026-07-27T11:00:57.000Z</time>
      </trkpt>
      <trkpt lat="44.50163" lon="6.455">
        <ele>1141.722964</ele>
        <time>2026-07-27T11:00:58.000Z</time>
      </trkpt>
      <trkpt lat="44.50163" lon="6.455">
        <ele>1141.722964</ele>
        <time>2026-07-27T11:00:58.000Z</time>
      </trkpt>
      <trkpt lat="44.50169" lon="6.45505">
        <ele>1141.079461</ele>
        <time>2026-07-27T11:00:59.000Z</time>
      </trkpt>
      <trkpt lat="44.50169" lon="6.45505">
        <ele>1141.079461</ele>
        <time>2026-07-27T11:00:59.000Z</time>
      </trkpt>
      <trkpt lat="44.50174" lon="6.45509">
        <ele>1140.545778</ele>
        <time>2026-07-27T11:01:00.000Z</time>
      </trkpt>
      <trkpt lat="44.50174" lon="6.45509">
        <ele>1140.545778</ele>
        <time>2026-07-27T11:01:00.000Z</time>
      </trkpt>
      <trkpt lat="44.5018" lon="6.45512">
        <ele>1140.006803</ele>
        <time>2026-07-27T11:01:01.000Z</time>
      </trkpt>
      <trkpt lat="44.5018" lon="6.45512">
        <ele>1140.006803</ele>
        <time>2026-07-27T11:01:01.000Z</time>
      </trkpt>
      <trkpt lat="44.50184" lon="6.45516">
        <ele>1139.535041</ele>
        <time>2026-07-27T11:01:02.000Z</time>
      </trkpt>
      <trkpt lat="44.50184" lon="6.45516">
        <ele>1139.535041</ele>
        <time>2026-07-27T11:01:02.000Z</time>
      </trkpt>
      <trkpt lat="44.5019" lon="6.4552">
        <ele>1138.919609</ele>
        <time>2026-07-27T11:01:03.000Z</time>
      </trkpt>
      <trkpt lat="44.5019" lon="6.4552">
        <ele>1138.919609</ele>
        <time>2026-07-27T11:01:03.000Z</time>
      </trkpt>
      <trkpt lat="44.50197" lon="6.45524">
        <ele>1138.252388</ele>
        <time>2026-07-27T11:01:04.000Z</time>
      </trkpt>
      <trkpt lat="44.50197" lon="6.45524">
        <ele>1138.252388</ele>
        <time>2026-07-27T11:01:04.000Z</time>
      </trkpt>
      <trkpt lat="44.50205" lon="6.45529">
        <ele>1137.525605</ele>
        <time>2026-07-27T11:01:05.000Z</time>
      </trkpt>
      <trkpt lat="44.50205" lon="6.45529">
        <ele>1137.525605</ele>
        <time>2026-07-27T11:01:05.000Z</time>
      </trkpt>
      <trkpt lat="44.50212" lon="6.45534">
        <ele>1136.760486</ele>
        <time>2026-07-27T11:01:06.000Z</time>
      </trkpt>
      <trkpt lat="44.50212" lon="6.45534">
        <ele>1136.760486</ele>
        <time>2026-07-27T11:01:06.000Z</time>
      </trkpt>
      <trkpt lat="44.50219" lon="6.45539">
        <ele>1136.104176</ele>
        <time>2026-07-27T11:01:07.000Z</time>
      </trkpt>
      <trkpt lat="44.50219" lon="6.45539">
        <ele>1136.104176</ele>
        <time>2026-07-27T11:01:07.000Z</time>
      </trkpt>
      <trkpt lat="44.50225" lon="6.45544">
        <ele>1135.432769</ele>
        <time>2026-07-27T11:01:08.000Z</time>
      </trkpt>
      <trkpt lat="44.50225" lon="6.45544">
        <ele>1135.432769</ele>
        <time>2026-07-27T11:01:08.000Z</time>
      </trkpt>
      <trkpt lat="44.50231" lon="6.45549">
        <ele>1134.802244</ele>
        <time>2026-07-27T11:01:09.000Z</time>
      </trkpt>
      <trkpt lat="44.50231" lon="6.45549">
        <ele>1134.802244</ele>
        <time>2026-07-27T11:01:09.000Z</time>
      </trkpt>
      <trkpt lat="44.50238" lon="6.45553">
        <ele>1134.148806</ele>
        <time>2026-07-27T11:01:10.000Z</time>
      </trkpt>
      <trkpt lat="44.50238" lon="6.45553">
        <ele>1134.148806</ele>
        <time>2026-07-27T11:01:10.000Z</time>
      </trkpt>
      <trkpt lat="44.50243" lon="6.45557">
        <ele>1133.595355</ele>
        <time>2026-07-27T11:01:11.000Z</time>
      </trkpt>
      <trkpt lat="44.50243" lon="6.45557">
        <ele>1133.595355</ele>
        <time>2026-07-27T11:01:11.000Z</time>
      </trkpt>
      <trkpt lat="44.5025" lon="6.45559">
        <ele>1133.01679</ele>
        <time>2026-07-27T11:01:12.000Z</time>
      </trkpt>
      <trkpt lat="44.5025" lon="6.45559">
        <ele>1133.01679</ele>
        <time>2026-07-27T11:01:12.000Z</time>
      </trkpt>
      <trkpt lat="44.50255" lon="6.45562">
        <ele>1132.47649</ele>
        <time>2026-07-27T11:01:13.000Z</time>
      </trkpt>
      <trkpt lat="44.50255" lon="6.45562">
        <ele>1132.47649</ele>
        <time>2026-07-27T11:01:13.000Z</time>
      </trkpt>
      <trkpt lat="44.50261" lon="6.45564">
        <ele>1131.859787</ele>
        <time>2026-07-27T11:01:14.000Z</time>
      </trkpt>
      <trkpt lat="44.50261" lon="6.45564">
        <ele>1131.859787</ele>
        <time>2026-07-27T11:01:14.000Z</time>
      </trkpt>
      <trkpt lat="44.50265" lon="6.45566">
        <ele>1131.22263</ele>
        <time>2026-07-27T11:01:15.000Z</time>
      </trkpt>
      <trkpt lat="44.50265" lon="6.45566">
        <ele>1131.22263</ele>
        <time>2026-07-27T11:01:15.000Z</time>
      </trkpt>
      <trkpt lat="44.50269" lon="6.45568">
        <ele>1130.701938</ele>
        <time>2026-07-27T11:01:16.000Z</time>
      </trkpt>
      <trkpt lat="44.50269" lon="6.45568">
        <ele>1130.701938</ele>
        <time>2026-07-27T11:01:16.000Z</time>
      </trkpt>
      <trkpt lat="44.50272" lon="6.45569">
        <ele>1130.281894</ele>
        <time>2026-07-27T11:01:16.000Z</time>
      </trkpt>
      <trkpt lat="44.50272" lon="6.45569">
        <ele>1130.281894</ele>
        <time>2026-07-27T11:01:16.000Z</time>
      </trkpt>
      <trkpt lat="44.50274" lon="6.45569">
        <ele>1130.083679</ele>
        <time>2026-07-27T11:01:17.000Z</time>
      </trkpt>
      <trkpt lat="44.50274" lon="6.45568">
        <ele>1129.917585</ele>
        <time>2026-07-27T11:01:19.000Z</time>
      </trkpt>
      <trkpt lat="44.50274" lon="6.45566">
        <ele>1129.769315</ele>
        <time>2026-07-27T11:01:20.000Z</time>
      </trkpt>
      <trkpt lat="44.50274" lon="6.45566">
        <ele>1129.714185</ele>
        <time>2026-07-27T11:01:21.000Z</time>
      </trkpt>
      <trkpt lat="44.50274" lon="6.45565">
        <ele>1129.575053</ele>
        <time>2026-07-27T11:01:22.000Z</time>
      </trkpt>
      <trkpt lat="44.5027" lon="6.4556">
        <ele>1128.9487</ele>
        <time>2026-07-27T11:01:23.000Z</time>
      </trkpt>
      <trkpt lat="44.50268" lon="6.45555">
        <ele>1128.405588</ele>
        <time>2026-07-27T11:01:24.000Z</time>
      </trkpt>
      <trkpt lat="44.50266" lon="6.45551">
        <ele>1127.929871</ele>
        <time>2026-07-27T11:01:25.000Z</time>
      </trkpt>
      <trkpt lat="44.50266" lon="6.45551">
        <ele>1127.929871</ele>
        <time>2026-07-27T11:01:25.000Z</time>
      </trkpt>
      <trkpt lat="44.50262" lon="6.45547">
        <ele>1127.329228</ele>
        <time>2026-07-27T11:01:26.000Z</time>
      </trkpt>
      <trkpt lat="44.50262" lon="6.45547">
        <ele>1127.329228</ele>
        <time>2026-07-27T11:01:26.000Z</time>
      </trkpt>
      <trkpt lat="44.5026" lon="6.45543">
        <ele>1126.881739</ele>
        <time>2026-07-27T11:01:27.000Z</time>
      </trkpt>
      <trkpt lat="44.5026" lon="6.45543">
        <ele>1126.881739</ele>
        <time>2026-07-27T11:01:27.000Z</time>
      </trkpt>
      <trkpt lat="44.50257" lon="6.4554">
        <ele>1126.382008</ele>
        <time>2026-07-27T11:01:28.000Z</time>
      </trkpt>
      <trkpt lat="44.50257" lon="6.4554">
        <ele>1126.382008</ele>
        <time>2026-07-27T11:01:28.000Z</time>
      </trkpt>
      <trkpt lat="44.50254" lon="6.45536">
        <ele>1125.867093</ele>
        <time>2026-07-27T11:01:29.000Z</time>
      </trkpt>
      <trkpt lat="44.50254" lon="6.45536">
        <ele>1125.867093</ele>
        <time>2026-07-27T11:01:29.000Z</time>
      </trkpt>
      <trkpt lat="44.50252" lon="6.45533">
        <ele>1125.493592</ele>
        <time>2026-07-27T11:01:30.000Z</time>
      </trkpt>
      <trkpt lat="44.5025" lon="6.4553">
        <ele>1125.068549</ele>
        <time>2026-07-27T11:01:31.000Z</time>
      </trkpt>
      <trkpt lat="44.50248" lon="6.45526">
        <ele>1124.706715</ele>
        <time>2026-07-27T11:01:32.000Z</time>
      </trkpt>
      <trkpt lat="44.50248" lon="6.45526">
        <ele>1124.706715</ele>
        <time>2026-07-27T11:01:32.000Z</time>
      </trkpt>
      <trkpt lat="44.50247" lon="6.45523">
        <ele>1124.3441</ele>
        <time>2026-07-27T11:01:33.000Z</time>
      </trkpt>
      <trkpt lat="44.50248" lon="6.4552">
        <ele>1124.030146</ele>
        <time>2026-07-27T11:01:34.000Z</time>
      </trkpt>
      <trkpt lat="44.50248" lon="6.4552">
        <ele>1124.030146</ele>
        <time>2026-07-27T11:01:34.000Z</time>
      </trkpt>
      <trkpt lat="44.50248" lon="6.45519">
        <ele>1123.983853</ele>
        <time>2026-07-27T11:01:35.000Z</time>
      </trkpt>
      <trkpt lat="44.50249" lon="6.45519">
        <ele>1123.840755</ele>
        <time>2026-07-27T11:01:36.000Z</time>
      </trkpt>
      <trkpt lat="44.50249" lon="6.45519">
        <ele>1123.840755</ele>
        <time>2026-07-27T11:01:36.000Z</time>
      </trkpt>
      <trkpt lat="44.50252" lon="6.4552">
        <ele>1123.442492</ele>
        <time>2026-07-27T11:01:37.000Z</time>
      </trkpt>
      <trkpt lat="44.50252" lon="6.4552">
        <ele>1123.442492</ele>
        <time>2026-07-27T11:01:37.000Z</time>
      </trkpt>
      <trkpt lat="44.50255" lon="6.45522">
        <ele>1123.032369</ele>
        <time>2026-07-27T11:01:38.000Z</time>
      </trkpt>
      <trkpt lat="44.50258" lon="6.45524">
        <ele>1122.596796</ele>
        <time>2026-07-27T11:01:39.000Z</time>
      </trkpt>
      <trkpt lat="44.50258" lon="6.45524">
        <ele>1122.596796</ele>
        <time>2026-07-27T11:01:39.000Z</time>
      </trkpt>
      <trkpt lat="44.50261" lon="6.45525">
        <ele>1122.139304</ele>
        <time>2026-07-27T11:01:40.000Z</time>
      </trkpt>
      <trkpt lat="44.50261" lon="6.45525">
        <ele>1122.139304</ele>
        <time>2026-07-27T11:01:40.000Z</time>
      </trkpt>
      <trkpt lat="44.50264" lon="6.45526">
        <ele>1121.776778</ele>
        <time>2026-07-27T11:01:41.000Z</time>
      </trkpt>
      <trkpt lat="44.50264" lon="6.45526">
        <ele>1121.776778</ele>
        <time>2026-07-27T11:01:41.000Z</time>
      </trkpt>
      <trkpt lat="44.50269" lon="6.45528">
        <ele>1121.167615</ele>
        <time>2026-07-27T11:01:42.000Z</time>
      </trkpt>
      <trkpt lat="44.50269" lon="6.45528">
        <ele>1121.167615</ele>
        <time>2026-07-27T11:01:42.000Z</time>
      </trkpt>
      <trkpt lat="44.50273" lon="6.45529">
        <ele>1120.60926</ele>
        <time>2026-07-27T11:01:43.000Z</time>
      </trkpt>
      <trkpt lat="44.50273" lon="6.45529">
        <ele>1120.60926</ele>
        <time>2026-07-27T11:01:43.000Z</time>
      </trkpt>
      <trkpt lat="44.50278" lon="6.45531">
        <ele>1119.949285</ele>
        <time>2026-07-27T11:01:44.000Z</time>
      </trkpt>
      <trkpt lat="44.50278" lon="6.45531">
        <ele>1119.949285</ele>
        <time>2026-07-27T11:01:44.000Z</time>
      </trkpt>
      <trkpt lat="44.50282" lon="6.45533">
        <ele>1119.376381</ele>
        <time>2026-07-27T11:01:45.000Z</time>
      </trkpt>
      <trkpt lat="44.50282" lon="6.45533">
        <ele>1119.376381</ele>
        <time>2026-07-27T11:01:45.000Z</time>
      </trkpt>
      <trkpt lat="44.50286" lon="6.45536">
        <ele>1118.776577</ele>
        <time>2026-07-27T11:01:46.000Z</time>
      </trkpt>
      <trkpt lat="44.50286" lon="6.45536">
        <ele>1118.776577</ele>
        <time>2026-07-27T11:01:46.000Z</time>
      </trkpt>
      <trkpt lat="44.50289" lon="6.45537">
        <ele>1118.341004</ele>
        <time>2026-07-27T11:01:47.000Z</time>
      </trkpt>
      <trkpt lat="44.50289" lon="6.45537">
        <ele>1118.341004</ele>
        <time>2026-07-27T11:01:47.000Z</time>
      </trkpt>
      <trkpt lat="44.50293" lon="6.4554">
        <ele>1117.838251</ele>
        <time>2026-07-27T11:01:48.000Z</time>
      </trkpt>
      <trkpt lat="44.50293" lon="6.4554">
        <ele>1117.838251</ele>
        <time>2026-07-27T11:01:48.000Z</time>
      </trkpt>
      <trkpt lat="44.50296" lon="6.45543">
        <ele>1117.331</ele>
        <time>2026-07-27T11:01:49.000Z</time>
      </trkpt>
      <trkpt lat="44.50296" lon="6.45543">
        <ele>1117.331</ele>
        <time>2026-07-27T11:01:49.000Z</time>
      </trkpt>
      <trkpt lat="44.50299" lon="6.45545">
        <ele>1116.925609</ele>
        <time>2026-07-27T11:01:50.000Z</time>
      </trkpt>
      <trkpt lat="44.50299" lon="6.45545">
        <ele>1116.925609</ele>
        <time>2026-07-27T11:01:50.000Z</time>
      </trkpt>
      <trkpt lat="44.50301" lon="6.45547">
        <ele>1116.58367</ele>
        <time>2026-07-27T11:01:51.000Z</time>
      </trkpt>
      <trkpt lat="44.50301" lon="6.45547">
        <ele>1116.58367</ele>
        <time>2026-07-27T11:01:51.000Z</time>
      </trkpt>
      <trkpt lat="44.50304" lon="6.45548">
        <ele>1116.21507</ele>
        <time>2026-07-27T11:01:52.000Z</time>
      </trkpt>
      <trkpt lat="44.50304" lon="6.45548">
        <ele>1116.21507</ele>
        <time>2026-07-27T11:01:52.000Z</time>
      </trkpt>
      <trkpt lat="44.50306" lon="6.4555">
        <ele>1115.893146</ele>
        <time>2026-07-27T11:01:53.000Z</time>
      </trkpt>
      <trkpt lat="44.50306" lon="6.4555">
        <ele>1115.893146</ele>
        <time>2026-07-27T11:01:53.000Z</time>
      </trkpt>
      <trkpt lat="44.50309" lon="6.45551">
        <ele>1115.473102</ele>
        <time>2026-07-27T11:01:54.000Z</time>
      </trkpt>
      <trkpt lat="44.50309" lon="6.45551">
        <ele>1115.473102</ele>
        <time>2026-07-27T11:01:54.000Z</time>
      </trkpt>
      <trkpt lat="44.50312" lon="6.45552">
        <ele>1115.102508</ele>
        <time>2026-07-27T11:01:55.000Z</time>
      </trkpt>
      <trkpt lat="44.50312" lon="6.45552">
        <ele>1115.102508</ele>
        <time>2026-07-27T11:01:55.000Z</time>
      </trkpt>
      <trkpt lat="44.50315" lon="6.45555">
        <ele>1114.613172</ele>
        <time>2026-07-27T11:01:56.000Z</time>
      </trkpt>
      <trkpt lat="44.50315" lon="6.45555">
        <ele>1114.613172</ele>
        <time>2026-07-27T11:01:56.000Z</time>
      </trkpt>
      <trkpt lat="44.50318" lon="6.45558">
        <ele>1114.14424</ele>
        <time>2026-07-27T11:01:57.000Z</time>
      </trkpt>
      <trkpt lat="44.50318" lon="6.45558">
        <ele>1114.14424</ele>
        <time>2026-07-27T11:01:57.000Z</time>
      </trkpt>
      <trkpt lat="44.50321" lon="6.4556">
        <ele>1113.658132</ele>
        <time>2026-07-27T11:01:58.000Z</time>
      </trkpt>
      <trkpt lat="44.50321" lon="6.4556">
        <ele>1113.658132</ele>
        <time>2026-07-27T11:01:58.000Z</time>
      </trkpt>
      <trkpt lat="44.50324" lon="6.45562">
        <ele>1113.281117</ele>
        <time>2026-07-27T11:01:59.000Z</time>
      </trkpt>
      <trkpt lat="44.50324" lon="6.45562">
        <ele>1113.281117</ele>
        <time>2026-07-27T11:01:59.000Z</time>
      </trkpt>
      <trkpt lat="44.50326" lon="6.45562">
        <ele>1112.97349</ele>
        <time>2026-07-27T11:02:00.000Z</time>
      </trkpt>
      <trkpt lat="44.50326" lon="6.45562">
        <ele>1112.97349</ele>
        <time>2026-07-27T11:02:00.000Z</time>
      </trkpt>
      <trkpt lat="44.50328" lon="6.45564">
        <ele>1112.753741</ele>
        <time>2026-07-27T11:02:01.000Z</time>
      </trkpt>
      <trkpt lat="44.50328" lon="6.45564">
        <ele>1112.753741</ele>
        <time>2026-07-27T11:02:01.000Z</time>
      </trkpt>
      <trkpt lat="44.5033" lon="6.45564">
        <ele>1112.506917</ele>
        <time>2026-07-27T11:02:02.000Z</time>
      </trkpt>
      <trkpt lat="44.5033" lon="6.45564">
        <ele>1112.506917</ele>
        <time>2026-07-27T11:02:02.000Z</time>
      </trkpt>
      <trkpt lat="44.50332" lon="6.45562">
        <ele>1112.177621</ele>
        <time>2026-07-27T11:02:03.000Z</time>
      </trkpt>
      <trkpt lat="44.50332" lon="6.45562">
        <ele>1112.177621</ele>
        <time>2026-07-27T11:02:03.000Z</time>
      </trkpt>
      <trkpt lat="44.50333" lon="6.4556">
        <ele>1111.882167</ele>
        <time>2026-07-27T11:02:04.000Z</time>
      </trkpt>
      <trkpt lat="44.50333" lon="6.4556">
        <ele>1111.882167</ele>
        <time>2026-07-27T11:02:04.000Z</time>
      </trkpt>
      <trkpt lat="44.50335" lon="6.45557">
        <ele>1111.537516</ele>
        <time>2026-07-27T11:02:05.000Z</time>
      </trkpt>
      <trkpt lat="44.50335" lon="6.45557">
        <ele>1111.537516</ele>
        <time>2026-07-27T11:02:05.000Z</time>
      </trkpt>
      <trkpt lat="44.50338" lon="6.45554">
        <ele>1111.066404</ele>
        <time>2026-07-27T11:02:06.000Z</time>
      </trkpt>
      <trkpt lat="44.50338" lon="6.45554">
        <ele>1111.066404</ele>
        <time>2026-07-27T11:02:06.000Z</time>
      </trkpt>
      <trkpt lat="44.5034" lon="6.45551">
        <ele>1110.652246</ele>
        <time>2026-07-27T11:02:07.000Z</time>
      </trkpt>
      <trkpt lat="44.5034" lon="6.45551">
        <ele>1110.652246</ele>
        <time>2026-07-27T11:02:07.000Z</time>
      </trkpt>
      <trkpt lat="44.50343" lon="6.45547">
        <ele>1110.203136</ele>
        <time>2026-07-27T11:02:08.000Z</time>
      </trkpt>
      <trkpt lat="44.50343" lon="6.45547">
        <ele>1110.203136</ele>
        <time>2026-07-27T11:02:08.000Z</time>
      </trkpt>
      <trkpt lat="44.50346" lon="6.45544">
        <ele>1109.686456</ele>
        <time>2026-07-27T11:02:09.000Z</time>
      </trkpt>
      <trkpt lat="44.50346" lon="6.45544">
        <ele>1109.686456</ele>
        <time>2026-07-27T11:02:09.000Z</time>
      </trkpt>
      <trkpt lat="44.50349" lon="6.45541">
        <ele>1109.17458</ele>
        <time>2026-07-27T11:02:10.000Z</time>
      </trkpt>
      <trkpt lat="44.50349" lon="6.45541">
        <ele>1109.17458</ele>
        <time>2026-07-27T11:02:10.000Z</time>
      </trkpt>
      <trkpt lat="44.50353" lon="6.45538">
        <ele>1108.766944</ele>
        <time>2026-07-27T11:02:11.000Z</time>
      </trkpt>
      <trkpt lat="44.50353" lon="6.45538">
        <ele>1108.766944</ele>
        <time>2026-07-27T11:02:11.000Z</time>
      </trkpt>
      <trkpt lat="44.50355" lon="6.45534">
        <ele>1108.51892</ele>
        <time>2026-07-27T11:02:12.000Z</time>
      </trkpt>
      <trkpt lat="44.50355" lon="6.45534">
        <ele>1108.51892</ele>
        <time>2026-07-27T11:02:12.000Z</time>
      </trkpt>
      <trkpt lat="44.50357" lon="6.45532">
        <ele>1108.348393</ele>
        <time>2026-07-27T11:02:13.000Z</time>
      </trkpt>
      <trkpt lat="44.50357" lon="6.45532">
        <ele>1108.348393</ele>
        <time>2026-07-27T11:02:13.000Z</time>
      </trkpt>
      <trkpt lat="44.50357" lon="6.45532">
        <ele>1108.348393</ele>
        <time>2026-07-27T11:02:14.000Z</time>
      </trkpt>
      <trkpt lat="44.5036" lon="6.45527">
        <ele>1107.995766</ele>
        <time>2026-07-27T11:02:15.000Z</time>
      </trkpt>
      <trkpt lat="44.5036" lon="6.45527">
        <ele>1107.995766</ele>
        <time>2026-07-27T11:02:15.000Z</time>
      </trkpt>
      <trkpt lat="44.5036" lon="6.45526">
        <ele>1107.949021</ele>
        <time>2026-07-27T11:02:16.000Z</time>
      </trkpt>
      <trkpt lat="44.50363" lon="6.45523">
        <ele>1107.682355</ele>
        <time>2026-07-27T11:02:18.000Z</time>
      </trkpt>
      <trkpt lat="44.50363" lon="6.45523">
        <ele>1107.682355</ele>
        <time>2026-07-27T11:02:18.000Z</time>
      </trkpt>
      <trkpt lat="44.50363" lon="6.45523">
        <ele>1107.682355</ele>
        <time>2026-07-27T11:02:19.000Z</time>
      </trkpt>
      <trkpt lat="44.50366" lon="6.45521">
        <ele>1107.42997</ele>
        <time>2026-07-27T11:02:20.000Z</time>
      </trkpt>
      <trkpt lat="44.50366" lon="6.45521">
        <ele>1107.42997</ele>
        <time>2026-07-27T11:02:20.000Z</time>
      </trkpt>
      <trkpt lat="44.50366" lon="6.45521">
        <ele>1107.42997</ele>
        <time>2026-07-27T11:02:22.000Z</time>
      </trkpt>
      <trkpt lat="44.50366" lon="6.45521">
        <ele>1107.42997</ele>
        <time>2026-07-27T11:02:24.000Z</time>
      </trkpt>
      <trkpt lat="44.50366" lon="6.45521">
        <ele>1107.42997</ele>
        <time>2026-07-27T11:02:24.000Z</time>
      </trkpt>
      <trkpt lat="44.50366" lon="6.45521">
        <ele>1107.42997</ele>
        <time>2026-07-27T11:02:41.000Z</time>
      </trkpt>
      <trkpt lat="44.50367" lon="6.4552">
        <ele>1107.370219</ele>
        <time>2026-07-27T11:02:41.000Z</time>
      </trkpt>
      <trkpt lat="44.5037" lon="6.45519">
        <ele>1107.119817</ele>
        <time>2026-07-27T11:02:43.000Z</time>
      </trkpt>
      <trkpt lat="44.50372" lon="6.45518">
        <ele>1106.924754</ele>
        <time>2026-07-27T11:02:44.000Z</time>
      </trkpt>
      <trkpt lat="44.50372" lon="6.45518">
        <ele>1106.924754</ele>
        <time>2026-07-27T11:02:44.000Z</time>
      </trkpt>
      <trkpt lat="44.50375" lon="6.45515">
        <ele>1106.663438</ele>
        <time>2026-07-27T11:02:45.000Z</time>
      </trkpt>
      <trkpt lat="44.50379" lon="6.45511">
        <ele>1106.313073</ele>
        <time>2026-07-27T11:02:46.000Z</time>
      </trkpt>
      <trkpt lat="44.50383" lon="6.45506">
        <ele>1105.956797</ele>
        <time>2026-07-27T11:02:47.000Z</time>
      </trkpt>
      <trkpt lat="44.50383" lon="6.45506">
        <ele>1105.956797</ele>
        <time>2026-07-27T11:02:47.000Z</time>
      </trkpt>
      <trkpt lat="44.50385" lon="6.45503">
        <ele>1105.737607</ele>
        <time>2026-07-27T11:02:48.000Z</time>
      </trkpt>
      <trkpt lat="44.50388" lon="6.455">
        <ele>1105.459378</ele>
        <time>2026-07-27T11:02:49.000Z</time>
      </trkpt>
      <trkpt lat="44.50389" lon="6.455">
        <ele>1105.405892</ele>
        <time>2026-07-27T11:02:50.000Z</time>
      </trkpt>
      <trkpt lat="44.5039" lon="6.45498">
        <ele>1105.258183</ele>
        <time>2026-07-27T11:02:51.000Z</time>
      </trkpt>
      <trkpt lat="44.50393" lon="6.45493">
        <ele>1104.916831</ele>
        <time>2026-07-27T11:02:52.000Z</time>
      </trkpt>
      <trkpt lat="44.50393" lon="6.45493">
        <ele>1104.916831</ele>
        <time>2026-07-27T11:02:52.000Z</time>
      </trkpt>
      <trkpt lat="44.50403" lon="6.45486">
        <ele>1104.135049</ele>
        <time>2026-07-27T11:02:53.000Z</time>
      </trkpt>
      <trkpt lat="44.50406" lon="6.45484">
        <ele>1103.871097</ele>
        <time>2026-07-27T11:02:54.000Z</time>
      </trkpt>
      <trkpt lat="44.50406" lon="6.45484">
        <ele>1103.871097</ele>
        <time>2026-07-27T11:02:54.000Z</time>
      </trkpt>
      <trkpt lat="44.50418" lon="6.45475">
        <ele>1102.866189</ele>
        <time>2026-07-27T11:02:55.000Z</time>
      </trkpt>
      <trkpt lat="44.50427" lon="6.45471">
        <ele>1102.214534</ele>
        <time>2026-07-27T11:02:56.000Z</time>
      </trkpt>
      <trkpt lat="44.50427" lon="6.45471">
        <ele>1102.214534</ele>
        <time>2026-07-27T11:02:56.000Z</time>
      </trkpt>
      <trkpt lat="44.50433" lon="6.45468">
        <ele>1101.698112</ele>
        <time>2026-07-27T11:02:57.000Z</time>
      </trkpt>
      <trkpt lat="44.50433" lon="6.45468">
        <ele>1101.698112</ele>
        <time>2026-07-27T11:02:57.000Z</time>
      </trkpt>
      <trkpt lat="44.50435" lon="6.45467">
        <ele>1101.54614</ele>
        <time>2026-07-27T11:02:58.000Z</time>
      </trkpt>
      <trkpt lat="44.50435" lon="6.45467">
        <ele>1101.54614</ele>
        <time>2026-07-27T11:02:58.000Z</time>
      </trkpt>
      <trkpt lat="44.50443" lon="6.45463">
        <ele>1100.920091</ele>
        <time>2026-07-27T11:02:59.000Z</time>
      </trkpt>
      <trkpt lat="44.50443" lon="6.45463">
        <ele>1100.920091</ele>
        <time>2026-07-27T11:02:59.000Z</time>
      </trkpt>
      <trkpt lat="44.50454" lon="6.45458">
        <ele>1100.09919</ele>
        <time>2026-07-27T11:03:00.000Z</time>
      </trkpt>
      <trkpt lat="44.50454" lon="6.45458">
        <ele>1100.09919</ele>
        <time>2026-07-27T11:03:00.000Z</time>
      </trkpt>
      <trkpt lat="44.50462" lon="6.45453">
        <ele>1099.467377</ele>
        <time>2026-07-27T11:03:01.000Z</time>
      </trkpt>
      <trkpt lat="44.50462" lon="6.45453">
        <ele>1099.467377</ele>
        <time>2026-07-27T11:03:01.000Z</time>
      </trkpt>
      <trkpt lat="44.50468" lon="6.45449">
        <ele>1098.970803</ele>
        <time>2026-07-27T11:03:02.000Z</time>
      </trkpt>
      <trkpt lat="44.50468" lon="6.45449">
        <ele>1098.970803</ele>
        <time>2026-07-27T11:03:02.000Z</time>
      </trkpt>
      <trkpt lat="44.50474" lon="6.45444">
        <ele>1098.465204</ele>
        <time>2026-07-27T11:03:03.000Z</time>
      </trkpt>
      <trkpt lat="44.50474" lon="6.45444">
        <ele>1098.465204</ele>
        <time>2026-07-27T11:03:03.000Z</time>
      </trkpt>
      <trkpt lat="44.50479" lon="6.45437">
        <ele>1097.968716</ele>
        <time>2026-07-27T11:03:04.000Z</time>
      </trkpt>
      <trkpt lat="44.50479" lon="6.45437">
        <ele>1097.968716</ele>
        <time>2026-07-27T11:03:04.000Z</time>
      </trkpt>
      <trkpt lat="44.50483" lon="6.45431">
        <ele>1097.526853</ele>
        <time>2026-07-27T11:03:05.000Z</time>
      </trkpt>
      <trkpt lat="44.50483" lon="6.45431">
        <ele>1097.526853</ele>
        <time>2026-07-27T11:03:05.000Z</time>
      </trkpt>
      <trkpt lat="44.50488" lon="6.45424">
        <ele>1097.034632</ele>
        <time>2026-07-27T11:03:06.000Z</time>
      </trkpt>
      <trkpt lat="44.50488" lon="6.45424">
        <ele>1097.034632</ele>
        <time>2026-07-27T11:03:06.000Z</time>
      </trkpt>
      <trkpt lat="44.50493" lon="6.45417">
        <ele>1096.486524</ele>
        <time>2026-07-27T11:03:07.000Z</time>
      </trkpt>
      <trkpt lat="44.50493" lon="6.45417">
        <ele>1096.486524</ele>
        <time>2026-07-27T11:03:07.000Z</time>
      </trkpt>
      <trkpt lat="44.50498" lon="6.4541">
        <ele>1095.947292</ele>
        <time>2026-07-27T11:03:08.000Z</time>
      </trkpt>
      <trkpt lat="44.50498" lon="6.4541">
        <ele>1095.947292</ele>
        <time>2026-07-27T11:03:08.000Z</time>
      </trkpt>
      <trkpt lat="44.50504" lon="6.45402">
        <ele>1095.398875</ele>
        <time>2026-07-27T11:03:09.000Z</time>
      </trkpt>
      <trkpt lat="44.50504" lon="6.45402">
        <ele>1095.398875</ele>
        <time>2026-07-27T11:03:09.000Z</time>
      </trkpt>
      <trkpt lat="44.50508" lon="6.45394">
        <ele>1094.890887</ele>
        <time>2026-07-27T11:03:10.000Z</time>
      </trkpt>
      <trkpt lat="44.50508" lon="6.45394">
        <ele>1094.890887</ele>
        <time>2026-07-27T11:03:10.000Z</time>
      </trkpt>
      <trkpt lat="44.50513" lon="6.45387">
        <ele>1094.348479</ele>
        <time>2026-07-27T11:03:11.000Z</time>
      </trkpt>
      <trkpt lat="44.50513" lon="6.45387">
        <ele>1094.348479</ele>
        <time>2026-07-27T11:03:11.000Z</time>
      </trkpt>
      <trkpt lat="44.50518" lon="6.45378">
        <ele>1093.791195</ele>
        <time>2026-07-27T11:03:12.000Z</time>
      </trkpt>
      <trkpt lat="44.50518" lon="6.45378">
        <ele>1093.791195</ele>
        <time>2026-07-27T11:03:12.000Z</time>
      </trkpt>
      <trkpt lat="44.50523" lon="6.45369">
        <ele>1093.187209</ele>
        <time>2026-07-27T11:03:13.000Z</time>
      </trkpt>
      <trkpt lat="44.50523" lon="6.45369">
        <ele>1093.187209</ele>
        <time>2026-07-27T11:03:13.000Z</time>
      </trkpt>
      <trkpt lat="44.50529" lon="6.45361">
        <ele>1092.63023</ele>
        <time>2026-07-27T11:03:14.000Z</time>
      </trkpt>
      <trkpt lat="44.50529" lon="6.45361">
        <ele>1092.63023</ele>
        <time>2026-07-27T11:03:14.000Z</time>
      </trkpt>
      <trkpt lat="44.50534" lon="6.45353">
        <ele>1092.057072</ele>
        <time>2026-07-27T11:03:15.000Z</time>
      </trkpt>
      <trkpt lat="44.50534" lon="6.45353">
        <ele>1092.057072</ele>
        <time>2026-07-27T11:03:15.000Z</time>
      </trkpt>
      <trkpt lat="44.50539" lon="6.45346">
        <ele>1091.567826</ele>
        <time>2026-07-27T11:03:16.000Z</time>
      </trkpt>
      <trkpt lat="44.50539" lon="6.45346">
        <ele>1091.567826</ele>
        <time>2026-07-27T11:03:16.000Z</time>
      </trkpt>
      <trkpt lat="44.50543" lon="6.45341">
        <ele>1091.181891</ele>
        <time>2026-07-27T11:03:17.000Z</time>
      </trkpt>
      <trkpt lat="44.50543" lon="6.45341">
        <ele>1091.181891</ele>
        <time>2026-07-27T11:03:17.000Z</time>
      </trkpt>
      <trkpt lat="44.50546" lon="6.45339">
        <ele>1090.948912</ele>
        <time>2026-07-27T11:03:17.000Z</time>
      </trkpt>
      <trkpt lat="44.50546" lon="6.45339">
        <ele>1090.948912</ele>
        <time>2026-07-27T11:03:17.000Z</time>
      </trkpt>
      <trkpt lat="44.50548" lon="6.45337">
        <ele>1090.739793</ele>
        <time>2026-07-27T11:03:18.000Z</time>
      </trkpt>
      <trkpt lat="44.50548" lon="6.45337">
        <ele>1090.739793</ele>
        <time>2026-07-27T11:03:18.000Z</time>
      </trkpt>
      <trkpt lat="44.5055" lon="6.45336">
        <ele>1090.587564</ele>
        <time>2026-07-27T11:03:19.000Z</time>
      </trkpt>
      <trkpt lat="44.5055" lon="6.45336">
        <ele>1090.587564</ele>
        <time>2026-07-27T11:03:19.000Z</time>
      </trkpt>
      <trkpt lat="44.50552" lon="6.45334">
        <ele>1090.451855</ele>
        <time>2026-07-27T11:03:21.000Z</time>
      </trkpt>
      <trkpt lat="44.50552" lon="6.45334">
        <ele>1090.451855</ele>
        <time>2026-07-27T11:03:21.000Z</time>
      </trkpt>
      <trkpt lat="44.50552" lon="6.45334">
        <ele>1090.451855</ele>
        <time>2026-07-27T11:03:22.000Z</time>
      </trkpt>
      <trkpt lat="44.50552" lon="6.45334">
        <ele>1090.451855</ele>
        <time>2026-07-27T11:03:23.000Z</time>
      </trkpt>
      <trkpt lat="44.50555" lon="6.4533">
        <ele>1090.148507</ele>
        <time>2026-07-27T11:03:48.000Z</time>
      </trkpt>
      <trkpt lat="44.50555" lon="6.4533">
        <ele>1090.143372</ele>
        <time>2026-07-27T11:03:54.000Z</time>
      </trkpt>
      <trkpt lat="44.50555" lon="6.4533">
        <ele>1090.138236</ele>
        <time>2026-07-27T11:04:12.000Z</time>
      </trkpt>
      <trkpt lat="44.50555" lon="6.4533">
        <ele>1090.133101</ele>
        <time>2026-07-27T11:04:26.000Z</time>
      </trkpt>
      <trkpt lat="44.50555" lon="6.4533">
        <ele>1090.12283</ele>
        <time>2026-07-27T11:04:29.000Z</time>
      </trkpt>
      <trkpt lat="44.50552" lon="6.45332">
        <ele>1089.87922</ele>
        <time>2026-07-27T11:04:29.000Z</time>
      </trkpt>
      <trkpt lat="44.50546" lon="6.45336">
        <ele>1089.431159</ele>
        <time>2026-07-27T11:04:31.000Z</time>
      </trkpt>
      <trkpt lat="44.50543" lon="6.45339">
        <ele>1089.165639</ele>
        <time>2026-07-27T11:04:31.000Z</time>
      </trkpt>
      <trkpt lat="44.50541" lon="6.45342">
        <ele>1088.924988</ele>
        <time>2026-07-27T11:04:32.000Z</time>
      </trkpt>
      <trkpt lat="44.50538" lon="6.45346">
        <ele>1088.677608</ele>
        <time>2026-07-27T11:04:33.000Z</time>
      </trkpt>
      <trkpt lat="44.50538" lon="6.45346">
        <ele>1088.677608</ele>
        <time>2026-07-27T11:04:33.000Z</time>
      </trkpt>
      <trkpt lat="44.50536" lon="6.4535">
        <ele>1088.430929</ele>
        <time>2026-07-27T11:04:34.000Z</time>
      </trkpt>
      <trkpt lat="44.50534" lon="6.45353">
        <ele>1088.195175</ele>
        <time>2026-07-27T11:04:36.000Z</time>
      </trkpt>
      <trkpt lat="44.50531" lon="6.45357">
        <ele>1087.904802</ele>
        <time>2026-07-27T11:04:37.000Z</time>
      </trkpt>
      <trkpt lat="44.50529" lon="6.45361">
        <ele>1087.664151</ele>
        <time>2026-07-27T11:04:37.000Z</time>
      </trkpt>
      <trkpt lat="44.50529" lon="6.45361">
        <ele>1087.664151</ele>
        <time>2026-07-27T11:04:37.000Z</time>
      </trkpt>
      <trkpt lat="44.50526" lon="6.45365">
        <ele>1087.36607</ele>
        <time>2026-07-27T11:04:38.000Z</time>
      </trkpt>
      <trkpt lat="44.50524" lon="6.45368">
        <ele>1087.129118</ele>
        <time>2026-07-27T11:04:39.000Z</time>
      </trkpt>
      <trkpt lat="44.50522" lon="6.45372">
        <ele>1086.886572</ele>
        <time>2026-07-27T11:04:40.000Z</time>
      </trkpt>
      <trkpt lat="44.50521" lon="6.45376">
        <ele>1086.676879</ele>
        <time>2026-07-27T11:04:41.000Z</time>
      </trkpt>
      <trkpt lat="44.50519" lon="6.45379">
        <ele>1086.462768</ele>
        <time>2026-07-27T11:04:42.000Z</time>
      </trkpt>
      <trkpt lat="44.50518" lon="6.45382">
        <ele>1086.270391</ele>
        <time>2026-07-27T11:04:43.000Z</time>
      </trkpt>
      <trkpt lat="44.50517" lon="6.45385">
        <ele>1086.111352</ele>
        <time>2026-07-27T11:04:44.000Z</time>
      </trkpt>
      <trkpt lat="44.50515" lon="6.45388">
        <ele>1085.885471</ele>
        <time>2026-07-27T11:04:45.000Z</time>
      </trkpt>
      <trkpt lat="44.50512" lon="6.45392">
        <ele>1085.652164</ele>
        <time>2026-07-27T11:04:46.000Z</time>
      </trkpt>
      <trkpt lat="44.5051" lon="6.45394">
        <ele>1085.459946</ele>
        <time>2026-07-27T11:04:47.000Z</time>
      </trkpt>
      <trkpt lat="44.50508" lon="6.45395">
        <ele>1085.267728</ele>
        <time>2026-07-27T11:04:48.000Z</time>
      </trkpt>
      <trkpt lat="44.50505" lon="6.45397">
        <ele>1085.082853</ele>
        <time>2026-07-27T11:04:49.000Z</time>
      </trkpt>
      <trkpt lat="44.50503" lon="6.45399">
        <ele>1084.896803</ele>
        <time>2026-07-27T11:04:50.000Z</time>
      </trkpt>
      <trkpt lat="44.50503" lon="6.45399">
        <ele>1084.896803</ele>
        <time>2026-07-27T11:04:50.000Z</time>
      </trkpt>
      <trkpt lat="44.50502" lon="6.454">
        <ele>1084.758215</ele>
        <time>2026-07-27T11:04:51.000Z</time>
      </trkpt>
      <trkpt lat="44.50499" lon="6.45402">
        <ele>1084.568552</ele>
        <time>2026-07-27T11:04:52.000Z</time>
      </trkpt>
      <trkpt lat="44.50499" lon="6.45402">
        <ele>1084.568552</ele>
        <time>2026-07-27T11:04:54.000Z</time>
      </trkpt>
      <trkpt lat="44.50497" lon="6.45405">
        <ele>1084.358646</ele>
        <time>2026-07-27T11:04:54.000Z</time>
      </trkpt>
      <trkpt lat="44.50497" lon="6.45405">
        <ele>1084.358646</ele>
        <time>2026-07-27T11:04:55.000Z</time>
      </trkpt>
      <trkpt lat="44.50496" lon="6.45405">
        <ele>1084.218409</ele>
        <time>2026-07-27T11:05:14.000Z</time>
      </trkpt>
      <trkpt lat="44.50499" lon="6.45403">
        <ele>1083.957697</ele>
        <time>2026-07-27T11:05:17.000Z</time>
      </trkpt>
      <trkpt lat="44.50502" lon="6.45401">
        <ele>1083.744161</ele>
        <time>2026-07-27T11:05:18.000Z</time>
      </trkpt>
      <trkpt lat="44.50502" lon="6.45401">
        <ele>1083.744161</ele>
        <time>2026-07-27T11:05:18.000Z</time>
      </trkpt>
      <trkpt lat="44.50505" lon="6.45398">
        <ele>1083.431604</ele>
        <time>2026-07-27T11:05:19.000Z</time>
      </trkpt>
      <trkpt lat="44.50509" lon="6.45393">
        <ele>1083.09845</ele>
        <time>2026-07-27T11:05:20.000Z</time>
      </trkpt>
      <trkpt lat="44.50508" lon="6.45395">
        <ele>1083.025742</ele>
        <time>2026-07-27T11:05:21.000Z</time>
      </trkpt>
      <trkpt lat="44.50514" lon="6.45388">
        <ele>1082.674934</ele>
        <time>2026-07-27T11:05:22.000Z</time>
      </trkpt>
      <trkpt lat="44.5052" lon="6.45373">
        <ele>1082.301033</ele>
        <time>2026-07-27T11:05:23.000Z</time>
      </trkpt>
      <trkpt lat="44.50524" lon="6.45365">
        <ele>1082.076808</ele>
        <time>2026-07-27T11:05:24.000Z</time>
      </trkpt>
      <trkpt lat="44.50524" lon="6.45365">
        <ele>1082.076808</ele>
        <time>2026-07-27T11:05:24.000Z</time>
      </trkpt>
      <trkpt lat="44.50529" lon="6.45358">
        <ele>1081.852013</ele>
        <time>2026-07-27T11:05:25.000Z</time>
      </trkpt>
      <trkpt lat="44.50534" lon="6.45351">
        <ele>1081.647051</ele>
        <time>2026-07-27T11:05:26.000Z</time>
      </trkpt>
      <trkpt lat="44.50538" lon="6.45346">
        <ele>1081.465022</ele>
        <time>2026-07-27T11:05:27.000Z</time>
      </trkpt>
      <trkpt lat="44.50541" lon="6.45341">
        <ele>1081.314767</ele>
        <time>2026-07-27T11:05:28.000Z</time>
      </trkpt>
      <trkpt lat="44.50544" lon="6.45338">
        <ele>1081.21694</ele>
        <time>2026-07-27T11:05:29.000Z</time>
      </trkpt>
      <trkpt lat="44.50547" lon="6.45335">
        <ele>1081.110461</ele>
        <time>2026-07-27T11:05:29.000Z</time>
      </trkpt>
      <trkpt lat="44.50549" lon="6.45335">
        <ele>1081.038525</ele>
        <time>2026-07-27T11:05:31.000Z</time>
      </trkpt>
      <trkpt lat="44.50549" lon="6.45335">
        <ele>1081.038525</ele>
        <time>2026-07-27T11:05:31.000Z</time>
      </trkpt>
      <trkpt lat="44.5055" lon="6.45336">
        <ele>1081.003631</ele>
        <time>2026-07-27T11:05:32.000Z</time>
      </trkpt>
      <trkpt lat="44.50549" lon="6.45338">
        <ele>1080.961757</ele>
        <time>2026-07-27T11:05:33.000Z</time>
      </trkpt>
      <trkpt lat="44.50549" lon="6.4534">
        <ele>1080.908253</ele>
        <time>2026-07-27T11:05:34.000Z</time>
      </trkpt>
      <trkpt lat="44.50549" lon="6.4534">
        <ele>1080.908253</ele>
        <time>2026-07-27T11:05:34.000Z</time>
      </trkpt>
      <trkpt lat="44.50547" lon="6.45343">
        <ele>1080.833648</ele>
        <time>2026-07-27T11:05:35.000Z</time>
      </trkpt>
      <trkpt lat="44.50546" lon="6.45347">
        <ele>1080.725333</ele>
        <time>2026-07-27T11:05:36.000Z</time>
      </trkpt>
      <trkpt lat="44.50546" lon="6.45347">
        <ele>1080.725333</ele>
        <time>2026-07-27T11:05:36.000Z</time>
      </trkpt>
      <trkpt lat="44.50543" lon="6.45353">
        <ele>1080.581807</ele>
        <time>2026-07-27T11:05:37.000Z</time>
      </trkpt>
      <trkpt lat="44.50539" lon="6.45357">
        <ele>1080.428333</ele>
        <time>2026-07-27T11:05:38.000Z</time>
      </trkpt>
      <trkpt lat="44.50536" lon="6.45363">
        <ele>1080.270886</ele>
        <time>2026-07-27T11:05:39.000Z</time>
      </trkpt>
      <trkpt lat="44.50536" lon="6.45363">
        <ele>1080.270886</ele>
        <time>2026-07-27T11:05:39.000Z</time>
      </trkpt>
      <trkpt lat="44.50534" lon="6.45368">
        <ele>1080.132762</ele>
        <time>2026-07-27T11:05:40.000Z</time>
      </trkpt>
      <trkpt lat="44.50532" lon="6.45374">
        <ele>1079.984923</ele>
        <time>2026-07-27T11:05:41.000Z</time>
      </trkpt>
      <trkpt lat="44.5053" lon="6.4538">
        <ele>1079.851747</ele>
        <time>2026-07-27T11:05:42.000Z</time>
      </trkpt>
      <trkpt lat="44.5053" lon="6.4538">
        <ele>1079.851747</ele>
        <time>2026-07-27T11:05:42.000Z</time>
      </trkpt>
      <trkpt lat="44.50528" lon="6.45385">
        <ele>1079.723952</ele>
        <time>2026-07-27T11:05:43.000Z</time>
      </trkpt>
      <trkpt lat="44.50527" lon="6.4539">
        <ele>1079.601426</ele>
        <time>2026-07-27T11:05:44.000Z</time>
      </trkpt>
      <trkpt lat="44.50527" lon="6.4539">
        <ele>1079.601426</ele>
        <time>2026-07-27T11:05:44.000Z</time>
      </trkpt>
      <trkpt lat="44.50525" lon="6.45394">
        <ele>1079.485279</ele>
        <time>2026-07-27T11:05:45.000Z</time>
      </trkpt>
      <trkpt lat="44.50525" lon="6.45394">
        <ele>1079.485279</ele>
        <time>2026-07-27T11:05:45.000Z</time>
      </trkpt>
      <trkpt lat="44.50525" lon="6.45397">
        <ele>1079.413123</ele>
        <time>2026-07-27T11:05:46.000Z</time>
      </trkpt>
      <trkpt lat="44.50526" lon="6.45401">
        <ele>1079.33222</ele>
        <time>2026-07-27T11:05:47.000Z</time>
      </trkpt>
      <trkpt lat="44.50526" lon="6.45401">
        <ele>1079.33222</ele>
        <time>2026-07-27T11:05:47.000Z</time>
      </trkpt>
      <trkpt lat="44.50528" lon="6.45403">
        <ele>1079.249541</ele>
        <time>2026-07-27T11:05:48.000Z</time>
      </trkpt>
      <trkpt lat="44.50528" lon="6.45403">
        <ele>1079.249541</ele>
        <time>2026-07-27T11:05:48.000Z</time>
      </trkpt>
      <trkpt lat="44.50531" lon="6.45404">
        <ele>1079.162574</ele>
        <time>2026-07-27T11:05:49.000Z</time>
      </trkpt>
      <trkpt lat="44.50531" lon="6.45404">
        <ele>1079.162574</ele>
        <time>2026-07-27T11:05:49.000Z</time>
      </trkpt>
      <trkpt lat="44.50535" lon="6.45404">
        <ele>1079.044234</ele>
        <time>2026-07-27T11:05:50.000Z</time>
      </trkpt>
      <trkpt lat="44.50535" lon="6.45404">
        <ele>1079.044234</ele>
        <time>2026-07-27T11:05:50.000Z</time>
      </trkpt>
      <trkpt lat="44.50539" lon="6.45404">
        <ele>1078.90055</ele>
        <time>2026-07-27T11:05:51.000Z</time>
      </trkpt>
      <trkpt lat="44.50539" lon="6.45404">
        <ele>1078.90055</ele>
        <time>2026-07-27T11:05:51.000Z</time>
      </trkpt>
      <trkpt lat="44.50545" lon="6.45403">
        <ele>1078.733699</ele>
        <time>2026-07-27T11:05:52.000Z</time>
      </trkpt>
      <trkpt lat="44.50545" lon="6.45403">
        <ele>1078.733699</ele>
        <time>2026-07-27T11:05:52.000Z</time>
      </trkpt>
      <trkpt lat="44.5055" lon="6.45401">
        <ele>1078.574914</ele>
        <time>2026-07-27T11:05:53.000Z</time>
      </trkpt>
      <trkpt lat="44.5055" lon="6.45401">
        <ele>1078.574914</ele>
        <time>2026-07-27T11:05:53.000Z</time>
      </trkpt>
      <trkpt lat="44.50555" lon="6.454">
        <ele>1078.394701</ele>
        <time>2026-07-27T11:05:54.000Z</time>
      </trkpt>
      <trkpt lat="44.50555" lon="6.454">
        <ele>1078.394701</ele>
        <time>2026-07-27T11:05:54.000Z</time>
      </trkpt>
      <trkpt lat="44.50562" lon="6.45398">
        <ele>1078.19961</ele>
        <time>2026-07-27T11:05:55.000Z</time>
      </trkpt>
      <trkpt lat="44.50562" lon="6.45398">
        <ele>1078.19961</ele>
        <time>2026-07-27T11:05:55.000Z</time>
      </trkpt>
      <trkpt lat="44.50568" lon="6.45396">
        <ele>1077.990841</ele>
        <time>2026-07-27T11:05:56.000Z</time>
      </trkpt>
      <trkpt lat="44.50568" lon="6.45396">
        <ele>1077.990841</ele>
        <time>2026-07-27T11:05:56.000Z</time>
      </trkpt>
      <trkpt lat="44.50575" lon="6.45393">
        <ele>1077.75394</ele>
        <time>2026-07-27T11:05:57.000Z</time>
      </trkpt>
      <trkpt lat="44.50575" lon="6.45393">
        <ele>1077.75394</ele>
        <time>2026-07-27T11:05:57.000Z</time>
      </trkpt>
      <trkpt lat="44.50583" lon="6.45389">
        <ele>1077.50682</ele>
        <time>2026-07-27T11:05:58.000Z</time>
      </trkpt>
      <trkpt lat="44.50583" lon="6.45389">
        <ele>1077.50682</ele>
        <time>2026-07-27T11:05:58.000Z</time>
      </trkpt>
      <trkpt lat="44.50591" lon="6.45385">
        <ele>1077.242317</ele>
        <time>2026-07-27T11:05:59.000Z</time>
      </trkpt>
      <trkpt lat="44.50591" lon="6.45385">
        <ele>1077.242317</ele>
        <time>2026-07-27T11:05:59.000Z</time>
      </trkpt>
      <trkpt lat="44.50598" lon="6.4538">
        <ele>1077.024318</ele>
        <time>2026-07-27T11:06:00.000Z</time>
      </trkpt>
      <trkpt lat="44.50598" lon="6.4538">
        <ele>1077.024318</ele>
        <time>2026-07-27T11:06:00.000Z</time>
      </trkpt>
      <trkpt lat="44.50605" lon="6.45373">
        <ele>1076.801496</ele>
        <time>2026-07-27T11:06:01.000Z</time>
      </trkpt>
      <trkpt lat="44.50605" lon="6.45373">
        <ele>1076.801496</ele>
        <time>2026-07-27T11:06:01.000Z</time>
      </trkpt>
      <trkpt lat="44.50611" lon="6.45363">
        <ele>1076.558876</ele>
        <time>2026-07-27T11:06:02.000Z</time>
      </trkpt>
      <trkpt lat="44.50611" lon="6.45363">
        <ele>1076.558876</ele>
        <time>2026-07-27T11:06:02.000Z</time>
      </trkpt>
      <trkpt lat="44.50615" lon="6.45356">
        <ele>1076.385254</ele>
        <time>2026-07-27T11:06:03.000Z</time>
      </trkpt>
      <trkpt lat="44.50615" lon="6.45356">
        <ele>1076.385254</ele>
        <time>2026-07-27T11:06:03.000Z</time>
      </trkpt>
      <trkpt lat="44.50623" lon="6.45341">
        <ele>1076.028234</ele>
        <time>2026-07-27T11:06:04.000Z</time>
      </trkpt>
      <trkpt lat="44.50623" lon="6.45341">
        <ele>1076.028234</ele>
        <time>2026-07-27T11:06:04.000Z</time>
      </trkpt>
      <trkpt lat="44.5063" lon="6.45332">
        <ele>1075.777439</ele>
        <time>2026-07-27T11:06:05.000Z</time>
      </trkpt>
      <trkpt lat="44.5063" lon="6.45332">
        <ele>1075.777439</ele>
        <time>2026-07-27T11:06:05.000Z</time>
      </trkpt>
      <trkpt lat="44.50638" lon="6.45326">
        <ele>1075.533256</ele>
        <time>2026-07-27T11:06:06.000Z</time>
      </trkpt>
      <trkpt lat="44.50638" lon="6.45326">
        <ele>1075.533256</ele>
        <time>2026-07-27T11:06:06.000Z</time>
      </trkpt>
      <trkpt lat="44.50646" lon="6.45323">
        <ele>1075.301604</ele>
        <time>2026-07-27T11:06:07.000Z</time>
      </trkpt>
      <trkpt lat="44.50646" lon="6.45323">
        <ele>1075.301604</ele>
        <time>2026-07-27T11:06:07.000Z</time>
      </trkpt>
      <trkpt lat="44.50655" lon="6.45323">
        <ele>1075.056758</ele>
        <time>2026-07-27T11:06:08.000Z</time>
      </trkpt>
      <trkpt lat="44.50655" lon="6.45323">
        <ele>1075.056758</ele>
        <time>2026-07-27T11:06:08.000Z</time>
      </trkpt>
      <trkpt lat="44.50664" lon="6.45325">
        <ele>1074.820414</ele>
        <time>2026-07-27T11:06:09.000Z</time>
      </trkpt>
      <trkpt lat="44.50664" lon="6.45325">
        <ele>1074.820414</ele>
        <time>2026-07-27T11:06:09.000Z</time>
      </trkpt>
      <trkpt lat="44.50673" lon="6.45328">
        <ele>1074.578942</ele>
        <time>2026-07-27T11:06:10.000Z</time>
      </trkpt>
      <trkpt lat="44.50673" lon="6.45328">
        <ele>1074.578942</ele>
        <time>2026-07-27T11:06:10.000Z</time>
      </trkpt>
      <trkpt lat="44.50681" lon="6.45331">
        <ele>1074.350012</ele>
        <time>2026-07-27T11:06:11.000Z</time>
      </trkpt>
      <trkpt lat="44.50681" lon="6.45331">
        <ele>1074.350012</ele>
        <time>2026-07-27T11:06:11.000Z</time>
      </trkpt>
      <trkpt lat="44.50689" lon="6.45332">
        <ele>1074.154177</ele>
        <time>2026-07-27T11:06:12.000Z</time>
      </trkpt>
      <trkpt lat="44.50689" lon="6.45332">
        <ele>1074.154177</ele>
        <time>2026-07-27T11:06:12.000Z</time>
      </trkpt>
      <trkpt lat="44.50696" lon="6.45333">
        <ele>1073.962104</ele>
        <time>2026-07-27T11:06:13.000Z</time>
      </trkpt>
      <trkpt lat="44.50696" lon="6.45333">
        <ele>1073.962104</ele>
        <time>2026-07-27T11:06:13.000Z</time>
      </trkpt>
      <trkpt lat="44.50701" lon="6.45333">
        <ele>1073.821004</ele>
        <time>2026-07-27T11:06:14.000Z</time>
      </trkpt>
      <trkpt lat="44.50701" lon="6.45333">
        <ele>1073.821004</ele>
        <time>2026-07-27T11:06:14.000Z</time>
      </trkpt>
      <trkpt lat="44.50705" lon="6.45334">
        <ele>1073.708973</ele>
        <time>2026-07-27T11:06:15.000Z</time>
      </trkpt>
      <trkpt lat="44.50705" lon="6.45334">
        <ele>1073.708973</ele>
        <time>2026-07-27T11:06:15.000Z</time>
      </trkpt>
      <trkpt lat="44.50709" lon="6.45335">
        <ele>1073.611574</ele>
        <time>2026-07-27T11:06:16.000Z</time>
      </trkpt>
      <trkpt lat="44.50709" lon="6.45335">
        <ele>1073.611574</ele>
        <time>2026-07-27T11:06:16.000Z</time>
      </trkpt>
      <trkpt lat="44.50712" lon="6.45336">
        <ele>1073.52743</ele>
        <time>2026-07-27T11:06:17.000Z</time>
      </trkpt>
      <trkpt lat="44.50715" lon="6.45338">
        <ele>1073.436616</ele>
        <time>2026-07-27T11:06:18.000Z</time>
      </trkpt>
      <trkpt lat="44.50715" lon="6.45338">
        <ele>1073.436616</ele>
        <time>2026-07-27T11:06:18.000Z</time>
      </trkpt>
      <trkpt lat="44.50718" lon="6.4534">
        <ele>1073.364341</ele>
        <time>2026-07-27T11:06:19.000Z</time>
      </trkpt>
      <trkpt lat="44.50718" lon="6.4534">
        <ele>1073.364341</ele>
        <time>2026-07-27T11:06:19.000Z</time>
      </trkpt>
      <trkpt lat="44.5072" lon="6.4534">
        <ele>1073.29159</ele>
        <time>2026-07-27T11:06:20.000Z</time>
      </trkpt>
      <trkpt lat="44.5072" lon="6.4534">
        <ele>1073.29159</ele>
        <time>2026-07-27T11:06:20.000Z</time>
      </trkpt>
      <trkpt lat="44.50722" lon="6.45341">
        <ele>1073.239309</ele>
        <time>2026-07-27T11:06:21.000Z</time>
      </trkpt>
      <trkpt lat="44.50722" lon="6.45341">
        <ele>1073.239309</ele>
        <time>2026-07-27T11:06:21.000Z</time>
      </trkpt>
      <trkpt lat="44.50725" lon="6.45341">
        <ele>1073.156027</ele>
        <time>2026-07-27T11:06:22.000Z</time>
      </trkpt>
      <trkpt lat="44.50725" lon="6.45341">
        <ele>1073.156027</ele>
        <time>2026-07-27T11:06:22.000Z</time>
      </trkpt>
      <trkpt lat="44.50728" lon="6.45342">
        <ele>1073.074757</ele>
        <time>2026-07-27T11:06:23.000Z</time>
      </trkpt>
      <trkpt lat="44.50728" lon="6.45342">
        <ele>1073.074757</ele>
        <time>2026-07-27T11:06:23.000Z</time>
      </trkpt>
      <trkpt lat="44.50731" lon="6.45343">
        <ele>1072.999931</ele>
        <time>2026-07-27T11:06:24.000Z</time>
      </trkpt>
      <trkpt lat="44.50731" lon="6.45343">
        <ele>1072.999931</ele>
        <time>2026-07-27T11:06:24.000Z</time>
      </trkpt>
      <trkpt lat="44.50734" lon="6.45344">
        <ele>1072.925611</ele>
        <time>2026-07-27T11:06:25.000Z</time>
      </trkpt>
      <trkpt lat="44.50734" lon="6.45344">
        <ele>1072.925611</ele>
        <time>2026-07-27T11:06:25.000Z</time>
      </trkpt>
      <trkpt lat="44.50736" lon="6.45345">
        <ele>1072.873331</ele>
        <time>2026-07-27T11:06:26.000Z</time>
      </trkpt>
      <trkpt lat="44.50736" lon="6.45345">
        <ele>1072.873331</ele>
        <time>2026-07-27T11:06:26.000Z</time>
      </trkpt>
      <trkpt lat="44.50736" lon="6.45345">
        <ele>1072.873331</ele>
        <time>2026-07-27T11:06:27.000Z</time>
      </trkpt>
      <trkpt lat="44.50739" lon="6.45346">
        <ele>1072.781877</ele>
        <time>2026-07-27T11:06:28.000Z</time>
      </trkpt>
      <trkpt lat="44.50739" lon="6.45346">
        <ele>1072.781877</ele>
        <time>2026-07-27T11:06:28.000Z</time>
      </trkpt>
      <trkpt lat="44.5074" lon="6.45346">
        <ele>1072.759273</ele>
        <time>2026-07-27T11:06:29.000Z</time>
      </trkpt>
      <trkpt lat="44.5074" lon="6.45346">
        <ele>1072.759273</ele>
        <time>2026-07-27T11:06:29.000Z</time>
      </trkpt>
      <trkpt lat="44.5074" lon="6.45346">
        <ele>1072.740644</ele>
        <time>2026-07-27T11:06:30.000Z</time>
      </trkpt>
      <trkpt lat="44.5074" lon="6.45346">
        <ele>1072.740644</ele>
        <time>2026-07-27T11:06:30.000Z</time>
      </trkpt>
      <trkpt lat="44.50742" lon="6.45347">
        <ele>1072.688813</ele>
        <time>2026-07-27T11:06:31.000Z</time>
      </trkpt>
      <trkpt lat="44.50742" lon="6.45347">
        <ele>1072.688813</ele>
        <time>2026-07-27T11:06:31.000Z</time>
      </trkpt>
      <trkpt lat="44.50744" lon="6.45348">
        <ele>1072.651664</ele>
        <time>2026-07-27T11:06:32.000Z</time>
      </trkpt>
      <trkpt lat="44.50744" lon="6.45348">
        <ele>1072.651664</ele>
        <time>2026-07-27T11:06:32.000Z</time>
      </trkpt>
      <trkpt lat="44.50745" lon="6.45348">
        <ele>1072.599383</ele>
        <time>2026-07-27T11:06:33.000Z</time>
      </trkpt>
      <trkpt lat="44.50745" lon="6.45348">
        <ele>1072.599383</ele>
        <time>2026-07-27T11:06:33.000Z</time>
      </trkpt>
      <trkpt lat="44.50747" lon="6.45349">
        <ele>1072.557311</ele>
        <time>2026-07-27T11:06:34.000Z</time>
      </trkpt>
      <trkpt lat="44.50747" lon="6.45349">
        <ele>1072.557311</ele>
        <time>2026-07-27T11:06:34.000Z</time>
      </trkpt>
      <trkpt lat="44.50749" lon="6.4535">
        <ele>1072.504516</ele>
        <time>2026-07-27T11:06:35.000Z</time>
      </trkpt>
      <trkpt lat="44.50749" lon="6.4535">
        <ele>1072.504516</ele>
        <time>2026-07-27T11:06:35.000Z</time>
      </trkpt>
      <trkpt lat="44.50751" lon="6.4535">
        <ele>1072.453809</ele>
        <time>2026-07-27T11:06:36.000Z</time>
      </trkpt>
      <trkpt lat="44.50751" lon="6.4535">
        <ele>1072.453809</ele>
        <time>2026-07-27T11:06:36.000Z</time>
      </trkpt>
      <trkpt lat="44.50753" lon="6.4535">
        <ele>1072.498667</ele>
        <time>2026-07-27T11:06:37.000Z</time>
      </trkpt>
      <trkpt lat="44.50753" lon="6.4535">
        <ele>1072.498667</ele>
        <time>2026-07-27T11:06:37.000Z</time>
      </trkpt>
      <trkpt lat="44.50754" lon="6.4535">
        <ele>1072.594076</ele>
        <time>2026-07-27T11:06:38.000Z</time>
      </trkpt>
      <trkpt lat="44.50754" lon="6.4535">
        <ele>1072.594076</ele>
        <time>2026-07-27T11:06:38.000Z</time>
      </trkpt>
      <trkpt lat="44.50757" lon="6.45349">
        <ele>1072.750581</ele>
        <time>2026-07-27T11:06:39.000Z</time>
      </trkpt>
      <trkpt lat="44.50757" lon="6.45349">
        <ele>1072.750581</ele>
        <time>2026-07-27T11:06:39.000Z</time>
      </trkpt>
      <trkpt lat="44.50759" lon="6.45349">
        <ele>1072.863749</ele>
        <time>2026-07-27T11:06:40.000Z</time>
      </trkpt>
      <trkpt lat="44.50759" lon="6.45349">
        <ele>1072.863749</ele>
        <time>2026-07-27T11:06:40.000Z</time>
      </trkpt>
      <trkpt lat="44.50761" lon="6.4535">
        <ele>1073.000947</ele>
        <time>2026-07-27T11:06:41.000Z</time>
      </trkpt>
      <trkpt lat="44.50761" lon="6.4535">
        <ele>1073.000947</ele>
        <time>2026-07-27T11:06:41.000Z</time>
      </trkpt>
      <trkpt lat="44.50763" lon="6.45349">
        <ele>1073.138146</ele>
        <time>2026-07-27T11:06:42.000Z</time>
      </trkpt>
      <trkpt lat="44.50763" lon="6.45349">
        <ele>1073.138146</ele>
        <time>2026-07-27T11:06:42.000Z</time>
      </trkpt>
      <trkpt lat="44.50765" lon="6.45349">
        <ele>1073.251076</ele>
        <time>2026-07-27T11:06:43.000Z</time>
      </trkpt>
      <trkpt lat="44.50765" lon="6.45349">
        <ele>1073.251076</ele>
        <time>2026-07-27T11:06:43.000Z</time>
      </trkpt>
      <trkpt lat="44.50768" lon="6.4535">
        <ele>1073.388732</ele>
        <time>2026-07-27T11:06:44.000Z</time>
      </trkpt>
      <trkpt lat="44.50768" lon="6.4535">
        <ele>1073.388732</ele>
        <time>2026-07-27T11:06:44.000Z</time>
      </trkpt>
      <trkpt lat="44.50769" lon="6.4535">
        <ele>1073.478226</ele>
        <time>2026-07-27T11:06:45.000Z</time>
      </trkpt>
      <trkpt lat="44.50769" lon="6.4535">
        <ele>1073.478226</ele>
        <time>2026-07-27T11:06:45.000Z</time>
      </trkpt>
      <trkpt lat="44.50771" lon="6.4535">
        <ele>1073.600661</ele>
        <time>2026-07-27T11:06:46.000Z</time>
      </trkpt>
      <trkpt lat="44.50771" lon="6.4535">
        <ele>1073.600661</ele>
        <time>2026-07-27T11:06:46.000Z</time>
      </trkpt>
      <trkpt lat="44.50773" lon="6.45351">
        <ele>1073.69135</ele>
        <time>2026-07-27T11:06:46.000Z</time>
      </trkpt>
      <trkpt lat="44.50773" lon="6.45351">
        <ele>1073.69135</ele>
        <time>2026-07-27T11:06:46.000Z</time>
      </trkpt>
      <trkpt lat="44.50774" lon="6.45351">
        <ele>1073.804914</ele>
        <time>2026-07-27T11:06:48.000Z</time>
      </trkpt>
      <trkpt lat="44.50774" lon="6.45351">
        <ele>1073.804914</ele>
        <time>2026-07-27T11:06:48.000Z</time>
      </trkpt>
      <trkpt lat="44.50776" lon="6.45352">
        <ele>1073.897561</ele>
        <time>2026-07-27T11:06:49.000Z</time>
      </trkpt>
      <trkpt lat="44.50776" lon="6.45352">
        <ele>1073.897561</ele>
        <time>2026-07-27T11:06:49.000Z</time>
      </trkpt>
      <trkpt lat="44.50777" lon="6.45352">
        <ele>1073.971915</ele>
        <time>2026-07-27T11:06:50.000Z</time>
      </trkpt>
      <trkpt lat="44.50777" lon="6.45352">
        <ele>1073.971915</ele>
        <time>2026-07-27T11:06:50.000Z</time>
      </trkpt>
      <trkpt lat="44.50781" lon="6.45352">
        <ele>1074.173903</ele>
        <time>2026-07-27T11:06:51.000Z</time>
      </trkpt>
      <trkpt lat="44.50781" lon="6.45352">
        <ele>1074.173903</ele>
        <time>2026-07-27T11:06:51.000Z</time>
      </trkpt>
      <trkpt lat="44.50784" lon="6.45352">
        <ele>1074.352139</ele>
        <time>2026-07-27T11:06:54.000Z</time>
      </trkpt>
      <trkpt lat="44.50784" lon="6.45352">
        <ele>1074.352139</ele>
        <time>2026-07-27T11:06:54.000Z</time>
      </trkpt>
      <trkpt lat="44.50785" lon="6.45353">
        <ele>1074.423539</ele>
        <time>2026-07-27T11:06:55.000Z</time>
      </trkpt>
      <trkpt lat="44.50786" lon="6.45353">
        <ele>1074.512732</ele>
        <time>2026-07-27T11:06:56.000Z</time>
      </trkpt>
      <trkpt lat="44.50789" lon="6.45353">
        <ele>1074.699949</ele>
        <time>2026-07-27T11:06:57.000Z</time>
      </trkpt>
      <trkpt lat="44.50789" lon="6.45353">
        <ele>1074.699949</ele>
        <time>2026-07-27T11:06:57.000Z</time>
      </trkpt>
      <trkpt lat="44.50791" lon="6.45355">
        <ele>1074.82204</ele>
        <time>2026-07-27T11:06:58.000Z</time>
      </trkpt>
      <trkpt lat="44.50793" lon="6.45356">
        <ele>1074.94581</ele>
        <time>2026-07-27T11:06:59.000Z</time>
      </trkpt>
      <trkpt lat="44.50796" lon="6.45357">
        <ele>1075.105941</ele>
        <time>2026-07-27T11:07:00.000Z</time>
      </trkpt>
      <trkpt lat="44.50796" lon="6.45357">
        <ele>1075.105941</ele>
        <time>2026-07-27T11:07:00.000Z</time>
      </trkpt>
      <trkpt lat="44.50798" lon="6.45358">
        <ele>1075.233542</ele>
        <time>2026-07-27T11:07:01.000Z</time>
      </trkpt>
      <trkpt lat="44.508" lon="6.45359">
        <ele>1075.352658</ele>
        <time>2026-07-27T11:07:02.000Z</time>
      </trkpt>
      <trkpt lat="44.50802" lon="6.4536">
        <ele>1075.478226</ele>
        <time>2026-07-27T11:07:02.000Z</time>
      </trkpt>
      <trkpt lat="44.50802" lon="6.4536">
        <ele>1075.478226</ele>
        <time>2026-07-27T11:07:02.000Z</time>
      </trkpt>
      <trkpt lat="44.50803" lon="6.45361">
        <ele>1075.605709</ele>
        <time>2026-07-27T11:07:04.000Z</time>
      </trkpt>
      <trkpt lat="44.50805" lon="6.45363">
        <ele>1075.746819</ele>
        <time>2026-07-27T11:07:04.000Z</time>
      </trkpt>
      <trkpt lat="44.50807" lon="6.45366">
        <ele>1075.890512</ele>
        <time>2026-07-27T11:07:06.000Z</time>
      </trkpt>
      <trkpt lat="44.50807" lon="6.45366">
        <ele>1075.890512</ele>
        <time>2026-07-27T11:07:06.000Z</time>
      </trkpt>
      <trkpt lat="44.50809" lon="6.45368">
        <ele>1076.034205</ele>
        <time>2026-07-27T11:07:07.000Z</time>
      </trkpt>
      <trkpt lat="44.50811" lon="6.45369">
        <ele>1076.143632</ele>
        <time>2026-07-27T11:07:08.000Z</time>
      </trkpt>
      <trkpt lat="44.50811" lon="6.45369">
        <ele>1076.143632</ele>
        <time>2026-07-27T11:07:08.000Z</time>
      </trkpt>
      <trkpt lat="44.50812" lon="6.45371">
        <ele>1076.279729</ele>
        <time>2026-07-27T11:07:09.000Z</time>
      </trkpt>
      <trkpt lat="44.50813" lon="6.45373">
        <ele>1076.366572</ele>
        <time>2026-07-27T11:07:10.000Z</time>
      </trkpt>
      <trkpt lat="44.50813" lon="6.45373">
        <ele>1076.366572</ele>
        <time>2026-07-27T11:07:10.000Z</time>
      </trkpt>
      <trkpt lat="44.50814" lon="6.45375">
        <ele>1076.467889</ele>
        <time>2026-07-27T11:07:11.000Z</time>
      </trkpt>
      <trkpt lat="44.50815" lon="6.45377">
        <ele>1076.577721</ele>
        <time>2026-07-27T11:07:12.000Z</time>
      </trkpt>
      <trkpt lat="44.50815" lon="6.45377">
        <ele>1076.577721</ele>
        <time>2026-07-27T11:07:12.000Z</time>
      </trkpt>
      <trkpt lat="44.50817" lon="6.4538">
        <ele>1076.726806</ele>
        <time>2026-07-27T11:07:13.000Z</time>
      </trkpt>
      <trkpt lat="44.50817" lon="6.4538">
        <ele>1076.726806</ele>
        <time>2026-07-27T11:07:13.000Z</time>
      </trkpt>
      <trkpt lat="44.50819" lon="6.45382">
        <ele>1076.887551</ele>
        <time>2026-07-27T11:07:14.000Z</time>
      </trkpt>
      <trkpt lat="44.50822" lon="6.45384">
        <ele>1077.070935</ele>
        <time>2026-07-27T11:07:15.000Z</time>
      </trkpt>
      <trkpt lat="44.50822" lon="6.45384">
        <ele>1077.070935</ele>
        <time>2026-07-27T11:07:15.000Z</time>
      </trkpt>
      <trkpt lat="44.50825" lon="6.45386">
        <ele>1077.272016</ele>
        <time>2026-07-27T11:07:16.000Z</time>
      </trkpt>
      <trkpt lat="44.50825" lon="6.45386">
        <ele>1077.272016</ele>
        <time>2026-07-27T11:07:16.000Z</time>
      </trkpt>
      <trkpt lat="44.50827" lon="6.45388">
        <ele>1077.447808</ele>
        <time>2026-07-27T11:07:17.000Z</time>
      </trkpt>
      <trkpt lat="44.50831" lon="6.45389">
        <ele>1077.647094</ele>
        <time>2026-07-27T11:07:18.000Z</time>
      </trkpt>
      <trkpt lat="44.50831" lon="6.45389">
        <ele>1077.647094</ele>
        <time>2026-07-27T11:07:18.000Z</time>
      </trkpt>
      <trkpt lat="44.50833" lon="6.4539">
        <ele>1077.783211</ele>
        <time>2026-07-27T11:07:18.000Z</time>
      </trkpt>
      <trkpt lat="44.50833" lon="6.4539">
        <ele>1077.783211</ele>
        <time>2026-07-27T11:07:18.000Z</time>
      </trkpt>
      <trkpt lat="44.50835" lon="6.45392">
        <ele>1077.954191</ele>
        <time>2026-07-27T11:07:20.000Z</time>
      </trkpt>
      <trkpt lat="44.50837" lon="6.45393">
        <ele>1078.079759</ele>
        <time>2026-07-27T11:07:21.000Z</time>
      </trkpt>
      <trkpt lat="44.50841" lon="6.45395">
        <ele>1078.29976</ele>
        <time>2026-07-27T11:07:22.000Z</time>
      </trkpt>
      <trkpt lat="44.50841" lon="6.45395">
        <ele>1078.29976</ele>
        <time>2026-07-27T11:07:22.000Z</time>
      </trkpt>
      <trkpt lat="44.50843" lon="6.45397">
        <ele>1078.451647</ele>
        <time>2026-07-27T11:07:23.000Z</time>
      </trkpt>
      <trkpt lat="44.50845" lon="6.45399">
        <ele>1078.625787</ele>
        <time>2026-07-27T11:07:24.000Z</time>
      </trkpt>
      <trkpt lat="44.50845" lon="6.45399">
        <ele>1078.625787</ele>
        <time>2026-07-27T11:07:24.000Z</time>
      </trkpt>
      <trkpt lat="44.50848" lon="6.45402">
        <ele>1078.801259</ele>
        <time>2026-07-27T11:07:25.000Z</time>
      </trkpt>
      <trkpt lat="44.5085" lon="6.45403">
        <ele>1078.955683</ele>
        <time>2026-07-27T11:07:26.000Z</time>
      </trkpt>
      <trkpt lat="44.5085" lon="6.45403">
        <ele>1078.955683</ele>
        <time>2026-07-27T11:07:26.000Z</time>
      </trkpt>
      <trkpt lat="44.50853" lon="6.45405">
        <ele>1079.135111</ele>
        <time>2026-07-27T11:07:27.000Z</time>
      </trkpt>
      <trkpt lat="44.50855" lon="6.45407">
        <ele>1079.320587</ele>
        <time>2026-07-27T11:07:28.000Z</time>
      </trkpt>
      <trkpt lat="44.50858" lon="6.45409">
        <ele>1079.484538</ele>
        <time>2026-07-27T11:07:29.000Z</time>
      </trkpt>
      <trkpt lat="44.50858" lon="6.45409">
        <ele>1079.484538</ele>
        <time>2026-07-27T11:07:29.000Z</time>
      </trkpt>
      <trkpt lat="44.5086" lon="6.45411">
        <ele>1079.649903</ele>
        <time>2026-07-27T11:07:30.000Z</time>
      </trkpt>
      <trkpt lat="44.50863" lon="6.45413">
        <ele>1079.822748</ele>
        <time>2026-07-27T11:07:31.000Z</time>
      </trkpt>
      <trkpt lat="44.50863" lon="6.45413">
        <ele>1079.822748</ele>
        <time>2026-07-27T11:07:31.000Z</time>
      </trkpt>
      <trkpt lat="44.50865" lon="6.45417">
        <ele>1080.032723</ele>
        <time>2026-07-27T11:07:32.000Z</time>
      </trkpt>
      <trkpt lat="44.50866" lon="6.45419">
        <ele>1080.136383</ele>
        <time>2026-07-27T11:07:33.000Z</time>
      </trkpt>
      <trkpt lat="44.50866" lon="6.45419">
        <ele>1080.136383</ele>
        <time>2026-07-27T11:07:33.000Z</time>
      </trkpt>
      <trkpt lat="44.50868" lon="6.45422">
        <ele>1080.316031</ele>
        <time>2026-07-27T11:07:34.000Z</time>
      </trkpt>
      <trkpt lat="44.50868" lon="6.45422">
        <ele>1080.316031</ele>
        <time>2026-07-27T11:07:34.000Z</time>
      </trkpt>
      <trkpt lat="44.50869" lon="6.45425">
        <ele>1080.484353</ele>
        <time>2026-07-27T11:07:35.000Z</time>
      </trkpt>
      <trkpt lat="44.50869" lon="6.45425">
        <ele>1080.484353</ele>
        <time>2026-07-27T11:07:35.000Z</time>
      </trkpt>
      <trkpt lat="44.50871" lon="6.45429">
        <ele>1080.67204</ele>
        <time>2026-07-27T11:07:36.000Z</time>
      </trkpt>
      <trkpt lat="44.50871" lon="6.45429">
        <ele>1080.67204</ele>
        <time>2026-07-27T11:07:36.000Z</time>
      </trkpt>
      <trkpt lat="44.50872" lon="6.45434">
        <ele>1080.865539</ele>
        <time>2026-07-27T11:07:37.000Z</time>
      </trkpt>
      <trkpt lat="44.50872" lon="6.45434">
        <ele>1080.865539</ele>
        <time>2026-07-27T11:07:37.000Z</time>
      </trkpt>
      <trkpt lat="44.50874" lon="6.45436">
        <ele>1081.011002</ele>
        <time>2026-07-27T11:07:38.000Z</time>
      </trkpt>
      <trkpt lat="44.50874" lon="6.45436">
        <ele>1081.011002</ele>
        <time>2026-07-27T11:07:38.000Z</time>
      </trkpt>
      <trkpt lat="44.50876" lon="6.45439">
        <ele>1081.197575</ele>
        <time>2026-07-27T11:07:39.000Z</time>
      </trkpt>
      <trkpt lat="44.50876" lon="6.45439">
        <ele>1081.197575</ele>
        <time>2026-07-27T11:07:39.000Z</time>
      </trkpt>
      <trkpt lat="44.50878" lon="6.45442">
        <ele>1081.360564</ele>
        <time>2026-07-27T11:07:40.000Z</time>
      </trkpt>
      <trkpt lat="44.50878" lon="6.45442">
        <ele>1081.360564</ele>
        <time>2026-07-27T11:07:40.000Z</time>
      </trkpt>
      <trkpt lat="44.50881" lon="6.45443">
        <ele>1081.555342</ele>
        <time>2026-07-27T11:07:41.000Z</time>
      </trkpt>
      <trkpt lat="44.50881" lon="6.45443">
        <ele>1081.555342</ele>
        <time>2026-07-27T11:07:41.000Z</time>
      </trkpt>
      <trkpt lat="44.50885" lon="6.45444">
        <ele>1081.782983</ele>
        <time>2026-07-27T11:07:42.000Z</time>
      </trkpt>
      <trkpt lat="44.50885" lon="6.45444">
        <ele>1081.782983</ele>
        <time>2026-07-27T11:07:42.000Z</time>
      </trkpt>
      <trkpt lat="44.50889" lon="6.45444">
        <ele>1082.032478</ele>
        <time>2026-07-27T11:07:43.000Z</time>
      </trkpt>
      <trkpt lat="44.50889" lon="6.45444">
        <ele>1082.032478</ele>
        <time>2026-07-27T11:07:43.000Z</time>
      </trkpt>
      <trkpt lat="44.50893" lon="6.45443">
        <ele>1082.282835</ele>
        <time>2026-07-27T11:07:44.000Z</time>
      </trkpt>
      <trkpt lat="44.50893" lon="6.45443">
        <ele>1082.282835</ele>
        <time>2026-07-27T11:07:44.000Z</time>
      </trkpt>
      <trkpt lat="44.50899" lon="6.45445">
        <ele>1082.607754</ele>
        <time>2026-07-27T11:07:45.000Z</time>
      </trkpt>
      <trkpt lat="44.50899" lon="6.45445">
        <ele>1082.607754</ele>
        <time>2026-07-27T11:07:45.000Z</time>
      </trkpt>
      <trkpt lat="44.50904" lon="6.45447">
        <ele>1082.912364</ele>
        <time>2026-07-27T11:07:46.000Z</time>
      </trkpt>
      <trkpt lat="44.50904" lon="6.45447">
        <ele>1082.912364</ele>
        <time>2026-07-27T11:07:46.000Z</time>
      </trkpt>
      <trkpt lat="44.50908" lon="6.4545">
        <ele>1083.196851</ele>
        <time>2026-07-27T11:07:47.000Z</time>
      </trkpt>
      <trkpt lat="44.50908" lon="6.4545">
        <ele>1083.196851</ele>
        <time>2026-07-27T11:07:47.000Z</time>
      </trkpt>
      <trkpt lat="44.50912" lon="6.45452">
        <ele>1083.480161</ele>
        <time>2026-07-27T11:07:48.000Z</time>
      </trkpt>
      <trkpt lat="44.50912" lon="6.45452">
        <ele>1083.480161</ele>
        <time>2026-07-27T11:07:48.000Z</time>
      </trkpt>
      <trkpt lat="44.50916" lon="6.45452">
        <ele>1083.753587</ele>
        <time>2026-07-27T11:07:49.000Z</time>
      </trkpt>
      <trkpt lat="44.50916" lon="6.45452">
        <ele>1083.753587</ele>
        <time>2026-07-27T11:07:49.000Z</time>
      </trkpt>
      <trkpt lat="44.5092" lon="6.45452">
        <ele>1084.000271</ele>
        <time>2026-07-27T11:07:50.000Z</time>
      </trkpt>
      <trkpt lat="44.5092" lon="6.45452">
        <ele>1084.000271</ele>
        <time>2026-07-27T11:07:50.000Z</time>
      </trkpt>
      <trkpt lat="44.50924" lon="6.4545">
        <ele>1084.2302</ele>
        <time>2026-07-27T11:07:51.000Z</time>
      </trkpt>
      <trkpt lat="44.50924" lon="6.4545">
        <ele>1084.2302</ele>
        <time>2026-07-27T11:07:51.000Z</time>
      </trkpt>
      <trkpt lat="44.50928" lon="6.45448">
        <ele>1084.521066</ele>
        <time>2026-07-27T11:07:52.000Z</time>
      </trkpt>
      <trkpt lat="44.50928" lon="6.45448">
        <ele>1084.521066</ele>
        <time>2026-07-27T11:07:52.000Z</time>
      </trkpt>
      <trkpt lat="44.50931" lon="6.45447">
        <ele>1084.728524</ele>
        <time>2026-07-27T11:07:53.000Z</time>
      </trkpt>
      <trkpt lat="44.50931" lon="6.45447">
        <ele>1084.728524</ele>
        <time>2026-07-27T11:07:53.000Z</time>
      </trkpt>
      <trkpt lat="44.50934" lon="6.45445">
        <ele>1084.966371</ele>
        <time>2026-07-27T11:07:54.000Z</time>
      </trkpt>
      <trkpt lat="44.50934" lon="6.45445">
        <ele>1084.966371</ele>
        <time>2026-07-27T11:07:54.000Z</time>
      </trkpt>
      <trkpt lat="44.50939" lon="6.45445">
        <ele>1085.288949</ele>
        <time>2026-07-27T11:07:55.000Z</time>
      </trkpt>
      <trkpt lat="44.50944" lon="6.45446">
        <ele>1085.593609</ele>
        <time>2026-07-27T11:07:56.000Z</time>
      </trkpt>
      <trkpt lat="44.50944" lon="6.45446">
        <ele>1085.593609</ele>
        <time>2026-07-27T11:07:56.000Z</time>
      </trkpt>
      <trkpt lat="44.50948" lon="6.45448">
        <ele>1085.881255</ele>
        <time>2026-07-27T11:07:57.000Z</time>
      </trkpt>
      <trkpt lat="44.50952" lon="6.45452">
        <ele>1086.183951</ele>
        <time>2026-07-27T11:07:58.000Z</time>
      </trkpt>
      <trkpt lat="44.50952" lon="6.45452">
        <ele>1086.183951</ele>
        <time>2026-07-27T11:07:58.000Z</time>
      </trkpt>
      <trkpt lat="44.50956" lon="6.45456">
        <ele>1086.51147</ele>
        <time>2026-07-27T11:07:59.000Z</time>
      </trkpt>
      <trkpt lat="44.50956" lon="6.45456">
        <ele>1086.51147</ele>
        <time>2026-07-27T11:07:59.000Z</time>
      </trkpt>
      <trkpt lat="44.5096" lon="6.45459">
        <ele>1086.786137</ele>
        <time>2026-07-27T11:08:00.000Z</time>
      </trkpt>
      <trkpt lat="44.5096" lon="6.45459">
        <ele>1086.786137</ele>
        <time>2026-07-27T11:08:00.000Z</time>
      </trkpt>
      <trkpt lat="44.50963" lon="6.45463">
        <ele>1087.059605</ele>
        <time>2026-07-27T11:08:01.000Z</time>
      </trkpt>
      <trkpt lat="44.50963" lon="6.45463">
        <ele>1087.059605</ele>
        <time>2026-07-27T11:08:01.000Z</time>
      </trkpt>
      <trkpt lat="44.50966" lon="6.45468">
        <ele>1087.367885</ele>
        <time>2026-07-27T11:08:02.000Z</time>
      </trkpt>
      <trkpt lat="44.50966" lon="6.45468">
        <ele>1087.367885</ele>
        <time>2026-07-27T11:08:02.000Z</time>
      </trkpt>
      <trkpt lat="44.50968" lon="6.45473">
        <ele>1087.641604</ele>
        <time>2026-07-27T11:08:03.000Z</time>
      </trkpt>
      <trkpt lat="44.50968" lon="6.45473">
        <ele>1087.641604</ele>
        <time>2026-07-27T11:08:03.000Z</time>
      </trkpt>
      <trkpt lat="44.50971" lon="6.45479">
        <ele>1087.933762</ele>
        <time>2026-07-27T11:08:04.000Z</time>
      </trkpt>
      <trkpt lat="44.50971" lon="6.45479">
        <ele>1087.933762</ele>
        <time>2026-07-27T11:08:04.000Z</time>
      </trkpt>
      <trkpt lat="44.50974" lon="6.45484">
        <ele>1088.229671</ele>
        <time>2026-07-27T11:08:05.000Z</time>
      </trkpt>
      <trkpt lat="44.50974" lon="6.45484">
        <ele>1088.229671</ele>
        <time>2026-07-27T11:08:05.000Z</time>
      </trkpt>
      <trkpt lat="44.50976" lon="6.45488">
        <ele>1088.493237</ele>
        <time>2026-07-27T11:08:06.000Z</time>
      </trkpt>
      <trkpt lat="44.50976" lon="6.45488">
        <ele>1088.493237</ele>
        <time>2026-07-27T11:08:06.000Z</time>
      </trkpt>
      <trkpt lat="44.5098" lon="6.45494">
        <ele>1088.831577</ele>
        <time>2026-07-27T11:08:07.000Z</time>
      </trkpt>
      <trkpt lat="44.5098" lon="6.45494">
        <ele>1088.831577</ele>
        <time>2026-07-27T11:08:07.000Z</time>
      </trkpt>
      <trkpt lat="44.50983" lon="6.45497">
        <ele>1089.110663</ele>
        <time>2026-07-27T11:08:07.000Z</time>
      </trkpt>
      <trkpt lat="44.50983" lon="6.45497">
        <ele>1089.110663</ele>
        <time>2026-07-27T11:08:07.000Z</time>
      </trkpt>
      <trkpt lat="44.50987" lon="6.45496">
        <ele>1089.311486</ele>
        <time>2026-07-27T11:08:09.000Z</time>
      </trkpt>
      <trkpt lat="44.50987" lon="6.45496">
        <ele>1089.311486</ele>
        <time>2026-07-27T11:08:09.000Z</time>
      </trkpt>
      <trkpt lat="44.5099" lon="6.45494">
        <ele>1089.536607</ele>
        <time>2026-07-27T11:08:10.000Z</time>
      </trkpt>
      <trkpt lat="44.5099" lon="6.45494">
        <ele>1089.536607</ele>
        <time>2026-07-27T11:08:10.000Z</time>
      </trkpt>
      <trkpt lat="44.50993" lon="6.45489">
        <ele>1089.814677</ele>
        <time>2026-07-27T11:08:11.000Z</time>
      </trkpt>
      <trkpt lat="44.50993" lon="6.45489">
        <ele>1089.814677</ele>
        <time>2026-07-27T11:08:11.000Z</time>
      </trkpt>
      <trkpt lat="44.50996" lon="6.45485">
        <ele>1090.106974</ele>
        <time>2026-07-27T11:08:12.000Z</time>
      </trkpt>
      <trkpt lat="44.50996" lon="6.45485">
        <ele>1090.106974</ele>
        <time>2026-07-27T11:08:12.000Z</time>
      </trkpt>
      <trkpt lat="44.51" lon="6.45481">
        <ele>1090.413489</ele>
        <time>2026-07-27T11:08:13.000Z</time>
      </trkpt>
      <trkpt lat="44.51" lon="6.45481">
        <ele>1090.413489</ele>
        <time>2026-07-27T11:08:13.000Z</time>
      </trkpt>
      <trkpt lat="44.51003" lon="6.45476">
        <ele>1090.732534</ele>
        <time>2026-07-27T11:08:14.000Z</time>
      </trkpt>
      <trkpt lat="44.51006" lon="6.4547">
        <ele>1091.073415</ele>
        <time>2026-07-27T11:08:15.000Z</time>
      </trkpt>
      <trkpt lat="44.51009" lon="6.45463">
        <ele>1091.448579</ele>
        <time>2026-07-27T11:08:15.000Z</time>
      </trkpt>
      <trkpt lat="44.51012" lon="6.45457">
        <ele>1091.766008</ele>
        <time>2026-07-27T11:08:17.000Z</time>
      </trkpt>
      <trkpt lat="44.51012" lon="6.45457">
        <ele>1091.766008</ele>
        <time>2026-07-27T11:08:17.000Z</time>
      </trkpt>
      <trkpt lat="44.51014" lon="6.45451">
        <ele>1092.08899</ele>
        <time>2026-07-27T11:08:17.000Z</time>
      </trkpt>
      <trkpt lat="44.51017" lon="6.45446">
        <ele>1092.3869</ele>
        <time>2026-07-27T11:08:19.000Z</time>
      </trkpt>
      <trkpt lat="44.51017" lon="6.45446">
        <ele>1092.3869</ele>
        <time>2026-07-27T11:08:19.000Z</time>
      </trkpt>
      <trkpt lat="44.51021" lon="6.45442">
        <ele>1092.693415</ele>
        <time>2026-07-27T11:08:20.000Z</time>
      </trkpt>
      <trkpt lat="44.51025" lon="6.45439">
        <ele>1092.977014</ele>
        <time>2026-07-27T11:08:20.000Z</time>
      </trkpt>
      <trkpt lat="44.51025" lon="6.45439">
        <ele>1092.977014</ele>
        <time>2026-07-27T11:08:20.000Z</time>
      </trkpt>
      <trkpt lat="44.5103" lon="6.45437">
        <ele>1093.292054</ele>
        <time>2026-07-27T11:08:22.000Z</time>
      </trkpt>
      <trkpt lat="44.51034" lon="6.45435">
        <ele>1093.581278</ele>
        <time>2026-07-27T11:08:22.000Z</time>
      </trkpt>
      <trkpt lat="44.51034" lon="6.45435">
        <ele>1093.581278</ele>
        <time>2026-07-27T11:08:22.000Z</time>
      </trkpt>
      <trkpt lat="44.51038" lon="6.45432">
        <ele>1093.877442</ele>
        <time>2026-07-27T11:08:24.000Z</time>
      </trkpt>
      <trkpt lat="44.51038" lon="6.45432">
        <ele>1093.877442</ele>
        <time>2026-07-27T11:08:24.000Z</time>
      </trkpt>
      <trkpt lat="44.51039" lon="6.45432">
        <ele>1093.926204</ele>
        <time>2026-07-27T11:08:25.000Z</time>
      </trkpt>
      <trkpt lat="44.51042" lon="6.4543">
        <ele>1094.171785</ele>
        <time>2026-07-27T11:08:25.000Z</time>
      </trkpt>
      <trkpt lat="44.51042" lon="6.4543">
        <ele>1094.171785</ele>
        <time>2026-07-27T11:08:25.000Z</time>
      </trkpt>
      <trkpt lat="44.51049" lon="6.45423">
        <ele>1094.702667</ele>
        <time>2026-07-27T11:08:27.000Z</time>
      </trkpt>
      <trkpt lat="44.51052" lon="6.45419">
        <ele>1094.802864</ele>
        <time>2026-07-27T11:08:27.000Z</time>
      </trkpt>
      <trkpt lat="44.51057" lon="6.45413">
        <ele>1094.956959</ele>
        <time>2026-07-27T11:08:28.000Z</time>
      </trkpt>
      <trkpt lat="44.51061" lon="6.45408">
        <ele>1095.074834</ele>
        <time>2026-07-27T11:08:30.000Z</time>
      </trkpt>
      <trkpt lat="44.51061" lon="6.45408">
        <ele>1095.074834</ele>
        <time>2026-07-27T11:08:30.000Z</time>
      </trkpt>
      <trkpt lat="44.51065" lon="6.45404">
        <ele>1095.182938</ele>
        <time>2026-07-27T11:08:31.000Z</time>
      </trkpt>
      <trkpt lat="44.51069" lon="6.45399">
        <ele>1095.30279</ele>
        <time>2026-07-27T11:08:32.000Z</time>
      </trkpt>
      <trkpt lat="44.51074" lon="6.45395">
        <ele>1095.413293</ele>
        <time>2026-07-27T11:08:33.000Z</time>
      </trkpt>
      <trkpt lat="44.51074" lon="6.45395">
        <ele>1095.413293</ele>
        <time>2026-07-27T11:08:33.000Z</time>
      </trkpt>
      <trkpt lat="44.51078" lon="6.45392">
        <ele>1095.531216</ele>
        <time>2026-07-27T11:08:34.000Z</time>
      </trkpt>
      <trkpt lat="44.51084" lon="6.45389">
        <ele>1095.654572</ele>
        <time>2026-07-27T11:08:35.000Z</time>
      </trkpt>
      <trkpt lat="44.51088" lon="6.45388">
        <ele>1095.756037</ele>
        <time>2026-07-27T11:08:36.000Z</time>
      </trkpt>
      <trkpt lat="44.51088" lon="6.45388">
        <ele>1095.756037</ele>
        <time>2026-07-27T11:08:36.000Z</time>
      </trkpt>
      <trkpt lat="44.51093" lon="6.45386">
        <ele>1095.860004</ele>
        <time>2026-07-27T11:08:37.000Z</time>
      </trkpt>
      <trkpt lat="44.51098" lon="6.45385">
        <ele>1095.972507</ele>
        <time>2026-07-27T11:08:38.000Z</time>
      </trkpt>
      <trkpt lat="44.51102" lon="6.45384">
        <ele>1096.072711</ele>
        <time>2026-07-27T11:08:39.000Z</time>
      </trkpt>
      <trkpt lat="44.51107" lon="6.45383">
        <ele>1096.165914</ele>
        <time>2026-07-27T11:08:40.000Z</time>
      </trkpt>
      <trkpt lat="44.51112" lon="6.45383">
        <ele>1096.284414</ele>
        <time>2026-07-27T11:08:40.000Z</time>
      </trkpt>
      <trkpt lat="44.51117" lon="6.45382">
        <ele>1096.400941</ele>
        <time>2026-07-27T11:08:42.000Z</time>
      </trkpt>
      <trkpt lat="44.51123" lon="6.45382">
        <ele>1096.51944</ele>
        <time>2026-07-27T11:08:43.000Z</time>
      </trkpt>
      <trkpt lat="44.51124" lon="6.45382">
        <ele>1096.552383</ele>
        <time>2026-07-27T11:08:43.000Z</time>
      </trkpt>
      <trkpt lat="44.51124" lon="6.45382">
        <ele>1096.552383</ele>
        <time>2026-07-27T11:08:43.000Z</time>
      </trkpt>
      <trkpt lat="44.5113" lon="6.45385">
        <ele>1096.675556</ele>
        <time>2026-07-27T11:08:45.000Z</time>
      </trkpt>
      <trkpt lat="44.51134" lon="6.45389">
        <ele>1096.793474</ele>
        <time>2026-07-27T11:08:46.000Z</time>
      </trkpt>
      <trkpt lat="44.51134" lon="6.45389">
        <ele>1096.793474</ele>
        <time>2026-07-27T11:08:46.000Z</time>
      </trkpt>
      <trkpt lat="44.51139" lon="6.45392">
        <ele>1096.914041</ele>
        <time>2026-07-27T11:08:47.000Z</time>
      </trkpt>
      <trkpt lat="44.51139" lon="6.45392">
        <ele>1096.914041</ele>
        <time>2026-07-27T11:08:47.000Z</time>
      </trkpt>
      <trkpt lat="44.51143" lon="6.45394">
        <ele>1097.01085</ele>
        <time>2026-07-27T11:08:47.000Z</time>
      </trkpt>
      <trkpt lat="44.51143" lon="6.45394">
        <ele>1097.01085</ele>
        <time>2026-07-27T11:08:47.000Z</time>
      </trkpt>
      <trkpt lat="44.51148" lon="6.45396">
        <ele>1097.125778</ele>
        <time>2026-07-27T11:08:49.000Z</time>
      </trkpt>
      <trkpt lat="44.51148" lon="6.45396">
        <ele>1097.125778</ele>
        <time>2026-07-27T11:08:49.000Z</time>
      </trkpt>
      <trkpt lat="44.51153" lon="6.45393">
        <ele>1097.249796</ele>
        <time>2026-07-27T11:08:49.000Z</time>
      </trkpt>
      <trkpt lat="44.51153" lon="6.45393">
        <ele>1097.249796</ele>
        <time>2026-07-27T11:08:49.000Z</time>
      </trkpt>
      <trkpt lat="44.51158" lon="6.4539">
        <ele>1097.363148</ele>
        <time>2026-07-27T11:08:51.000Z</time>
      </trkpt>
      <trkpt lat="44.51158" lon="6.4539">
        <ele>1097.363148</ele>
        <time>2026-07-27T11:08:51.000Z</time>
      </trkpt>
      <trkpt lat="44.51162" lon="6.45387">
        <ele>1097.466545</ele>
        <time>2026-07-27T11:08:51.000Z</time>
      </trkpt>
      <trkpt lat="44.51162" lon="6.45387">
        <ele>1097.466545</ele>
        <time>2026-07-27T11:08:51.000Z</time>
      </trkpt>
      <trkpt lat="44.5117" lon="6.45387">
        <ele>1097.626752</ele>
        <time>2026-07-27T11:08:53.000Z</time>
      </trkpt>
      <trkpt lat="44.5117" lon="6.45387">
        <ele>1097.626752</ele>
        <time>2026-07-27T11:08:53.000Z</time>
      </trkpt>
      <trkpt lat="44.51176" lon="6.45386">
        <ele>1097.771258</ele>
        <time>2026-07-27T11:08:54.000Z</time>
      </trkpt>
      <trkpt lat="44.51176" lon="6.45386">
        <ele>1097.771258</ele>
        <time>2026-07-27T11:08:54.000Z</time>
      </trkpt>
      <trkpt lat="44.51182" lon="6.45385">
        <ele>1097.905081</ele>
        <time>2026-07-27T11:08:55.000Z</time>
      </trkpt>
      <trkpt lat="44.51182" lon="6.45385">
        <ele>1097.905081</ele>
        <time>2026-07-27T11:08:55.000Z</time>
      </trkpt>
      <trkpt lat="44.51188" lon="6.45385">
        <ele>1098.03012</ele>
        <time>2026-07-27T11:08:56.000Z</time>
      </trkpt>
      <trkpt lat="44.51194" lon="6.45386">
        <ele>1098.155511</ele>
        <time>2026-07-27T11:08:57.000Z</time>
      </trkpt>
      <trkpt lat="44.51194" lon="6.45386">
        <ele>1098.155511</ele>
        <time>2026-07-27T11:08:57.000Z</time>
      </trkpt>
      <trkpt lat="44.512" lon="6.45386">
        <ele>1098.289325</ele>
        <time>2026-07-27T11:08:58.000Z</time>
      </trkpt>
      <trkpt lat="44.51205" lon="6.45387">
        <ele>1098.399287</ele>
        <time>2026-07-27T11:08:59.000Z</time>
      </trkpt>
      <trkpt lat="44.5121" lon="6.45388">
        <ele>1098.516599</ele>
        <time>2026-07-27T11:09:00.000Z</time>
      </trkpt>
      <trkpt lat="44.5121" lon="6.45388">
        <ele>1098.516599</ele>
        <time>2026-07-27T11:09:00.000Z</time>
      </trkpt>
      <trkpt lat="44.51215" lon="6.45389">
        <ele>1098.638729</ele>
        <time>2026-07-27T11:09:01.000Z</time>
      </trkpt>
      <trkpt lat="44.51215" lon="6.45389">
        <ele>1098.638729</ele>
        <time>2026-07-27T11:09:01.000Z</time>
      </trkpt>
      <trkpt lat="44.51219" lon="6.45393">
        <ele>1098.82437</ele>
        <time>2026-07-27T11:09:02.000Z</time>
      </trkpt>
      <trkpt lat="44.51219" lon="6.45393">
        <ele>1098.82437</ele>
        <time>2026-07-27T11:09:02.000Z</time>
      </trkpt>
      <trkpt lat="44.51223" lon="6.45397">
        <ele>1099.051082</ele>
        <time>2026-07-27T11:09:03.000Z</time>
      </trkpt>
      <trkpt lat="44.51223" lon="6.45397">
        <ele>1099.051082</ele>
        <time>2026-07-27T11:09:03.000Z</time>
      </trkpt>
      <trkpt lat="44.51226" lon="6.45402">
        <ele>1099.285031</ele>
        <time>2026-07-27T11:09:04.000Z</time>
      </trkpt>
      <trkpt lat="44.51226" lon="6.45402">
        <ele>1099.285031</ele>
        <time>2026-07-27T11:09:04.000Z</time>
      </trkpt>
      <trkpt lat="44.5123" lon="6.45406">
        <ele>1099.517716</ele>
        <time>2026-07-27T11:09:05.000Z</time>
      </trkpt>
      <trkpt lat="44.5123" lon="6.45406">
        <ele>1099.517716</ele>
        <time>2026-07-27T11:09:05.000Z</time>
      </trkpt>
      <trkpt lat="44.51233" lon="6.45409">
        <ele>1099.71093</ele>
        <time>2026-07-27T11:09:06.000Z</time>
      </trkpt>
      <trkpt lat="44.51233" lon="6.45409">
        <ele>1099.71093</ele>
        <time>2026-07-27T11:09:06.000Z</time>
      </trkpt>
      <trkpt lat="44.51237" lon="6.45409">
        <ele>1099.917008</ele>
        <time>2026-07-27T11:09:07.000Z</time>
      </trkpt>
      <trkpt lat="44.51237" lon="6.45409">
        <ele>1099.917008</ele>
        <time>2026-07-27T11:09:07.000Z</time>
      </trkpt>
      <trkpt lat="44.51242" lon="6.45409">
        <ele>1100.142421</ele>
        <time>2026-07-27T11:09:08.000Z</time>
      </trkpt>
      <trkpt lat="44.51242" lon="6.45409">
        <ele>1100.142421</ele>
        <time>2026-07-27T11:09:08.000Z</time>
      </trkpt>
      <trkpt lat="44.51247" lon="6.45409">
        <ele>1100.422085</ele>
        <time>2026-07-27T11:09:09.000Z</time>
      </trkpt>
      <trkpt lat="44.51247" lon="6.45409">
        <ele>1100.422085</ele>
        <time>2026-07-27T11:09:09.000Z</time>
      </trkpt>
      <trkpt lat="44.51253" lon="6.45408">
        <ele>1100.682644</ele>
        <time>2026-07-27T11:09:10.000Z</time>
      </trkpt>
      <trkpt lat="44.51253" lon="6.45408">
        <ele>1100.682644</ele>
        <time>2026-07-27T11:09:10.000Z</time>
      </trkpt>
      <trkpt lat="44.51258" lon="6.45408">
        <ele>1100.927882</ele>
        <time>2026-07-27T11:09:11.000Z</time>
      </trkpt>
      <trkpt lat="44.51258" lon="6.45408">
        <ele>1100.927882</ele>
        <time>2026-07-27T11:09:11.000Z</time>
      </trkpt>
      <trkpt lat="44.51262" lon="6.45408">
        <ele>1101.153321</ele>
        <time>2026-07-27T11:09:12.000Z</time>
      </trkpt>
      <trkpt lat="44.51262" lon="6.45408">
        <ele>1101.153321</ele>
        <time>2026-07-27T11:09:12.000Z</time>
      </trkpt>
      <trkpt lat="44.51268" lon="6.45408">
        <ele>1101.413059</ele>
        <time>2026-07-27T11:09:13.000Z</time>
      </trkpt>
      <trkpt lat="44.51268" lon="6.45408">
        <ele>1101.413059</ele>
        <time>2026-07-27T11:09:13.000Z</time>
      </trkpt>
      <trkpt lat="44.51273" lon="6.45409">
        <ele>1101.658694</ele>
        <time>2026-07-27T11:09:14.000Z</time>
      </trkpt>
      <trkpt lat="44.51273" lon="6.45409">
        <ele>1101.658694</ele>
        <time>2026-07-27T11:09:14.000Z</time>
      </trkpt>
      <trkpt lat="44.51278" lon="6.45409">
        <ele>1101.919254</ele>
        <time>2026-07-27T11:09:15.000Z</time>
      </trkpt>
      <trkpt lat="44.51278" lon="6.45409">
        <ele>1101.919254</ele>
        <time>2026-07-27T11:09:15.000Z</time>
      </trkpt>
      <trkpt lat="44.51284" lon="6.4541">
        <ele>1102.199638</ele>
        <time>2026-07-27T11:09:16.000Z</time>
      </trkpt>
      <trkpt lat="44.51284" lon="6.4541">
        <ele>1102.199638</ele>
        <time>2026-07-27T11:09:16.000Z</time>
      </trkpt>
      <trkpt lat="44.5129" lon="6.45411">
        <ele>1102.505078</ele>
        <time>2026-07-27T11:09:17.000Z</time>
      </trkpt>
      <trkpt lat="44.5129" lon="6.45411">
        <ele>1102.505078</ele>
        <time>2026-07-27T11:09:17.000Z</time>
      </trkpt>
      <trkpt lat="44.51296" lon="6.45412">
        <ele>1102.787523</ele>
        <time>2026-07-27T11:09:18.000Z</time>
      </trkpt>
      <trkpt lat="44.51296" lon="6.45412">
        <ele>1102.787523</ele>
        <time>2026-07-27T11:09:18.000Z</time>
      </trkpt>
      <trkpt lat="44.51301" lon="6.45413">
        <ele>1103.069015</ele>
        <time>2026-07-27T11:09:19.000Z</time>
      </trkpt>
      <trkpt lat="44.51301" lon="6.45413">
        <ele>1103.069015</ele>
        <time>2026-07-27T11:09:19.000Z</time>
      </trkpt>
      <trkpt lat="44.51308" lon="6.45414">
        <ele>1103.408935</ele>
        <time>2026-07-27T11:09:20.000Z</time>
      </trkpt>
      <trkpt lat="44.51308" lon="6.45414">
        <ele>1103.408935</ele>
        <time>2026-07-27T11:09:20.000Z</time>
      </trkpt>
      <trkpt lat="44.51315" lon="6.45415">
        <ele>1103.723795</ele>
        <time>2026-07-27T11:09:21.000Z</time>
      </trkpt>
      <trkpt lat="44.51315" lon="6.45415">
        <ele>1103.723795</ele>
        <time>2026-07-27T11:09:21.000Z</time>
      </trkpt>
      <trkpt lat="44.51321" lon="6.45414">
        <ele>1104.024361</ele>
        <time>2026-07-27T11:09:22.000Z</time>
      </trkpt>
      <trkpt lat="44.51321" lon="6.45414">
        <ele>1104.024361</ele>
        <time>2026-07-27T11:09:22.000Z</time>
      </trkpt>
      <trkpt lat="44.51326" lon="6.45412">
        <ele>1104.299916</ele>
        <time>2026-07-27T11:09:23.000Z</time>
      </trkpt>
      <trkpt lat="44.51326" lon="6.45412">
        <ele>1104.299916</ele>
        <time>2026-07-27T11:09:23.000Z</time>
      </trkpt>
      <trkpt lat="44.51331" lon="6.4541">
        <ele>1104.570769</ele>
        <time>2026-07-27T11:09:24.000Z</time>
      </trkpt>
      <trkpt lat="44.51331" lon="6.4541">
        <ele>1104.570769</ele>
        <time>2026-07-27T11:09:24.000Z</time>
      </trkpt>
      <trkpt lat="44.51336" lon="6.45407">
        <ele>1104.832085</ele>
        <time>2026-07-27T11:09:25.000Z</time>
      </trkpt>
      <trkpt lat="44.51336" lon="6.45407">
        <ele>1104.832085</ele>
        <time>2026-07-27T11:09:25.000Z</time>
      </trkpt>
      <trkpt lat="44.51342" lon="6.45404">
        <ele>1105.126904</ele>
        <time>2026-07-27T11:09:26.000Z</time>
      </trkpt>
      <trkpt lat="44.51342" lon="6.45404">
        <ele>1105.126904</ele>
        <time>2026-07-27T11:09:26.000Z</time>
      </trkpt>
      <trkpt lat="44.51347" lon="6.45403">
        <ele>1105.398891</ele>
        <time>2026-07-27T11:09:27.000Z</time>
      </trkpt>
      <trkpt lat="44.51347" lon="6.45403">
        <ele>1105.398891</ele>
        <time>2026-07-27T11:09:27.000Z</time>
      </trkpt>
      <trkpt lat="44.51354" lon="6.45401">
        <ele>1105.705091</ele>
        <time>2026-07-27T11:09:28.000Z</time>
      </trkpt>
      <trkpt lat="44.51354" lon="6.45401">
        <ele>1105.705091</ele>
        <time>2026-07-27T11:09:28.000Z</time>
      </trkpt>
      <trkpt lat="44.5136" lon="6.45399">
        <ele>1106.007984</ele>
        <time>2026-07-27T11:09:29.000Z</time>
      </trkpt>
      <trkpt lat="44.51366" lon="6.45398">
        <ele>1106.324392</ele>
        <time>2026-07-27T11:09:30.000Z</time>
      </trkpt>
      <trkpt lat="44.51366" lon="6.45398">
        <ele>1106.324392</ele>
        <time>2026-07-27T11:09:30.000Z</time>
      </trkpt>
      <trkpt lat="44.51373" lon="6.45397">
        <ele>1106.645658</ele>
        <time>2026-07-27T11:09:31.000Z</time>
      </trkpt>
      <trkpt lat="44.51379" lon="6.45396">
        <ele>1106.966486</ele>
        <time>2026-07-27T11:09:32.000Z</time>
      </trkpt>
      <trkpt lat="44.51386" lon="6.45395">
        <ele>1107.285692</ele>
        <time>2026-07-27T11:09:33.000Z</time>
      </trkpt>
      <trkpt lat="44.51386" lon="6.45395">
        <ele>1107.285692</ele>
        <time>2026-07-27T11:09:33.000Z</time>
      </trkpt>
      <trkpt lat="44.51392" lon="6.45395">
        <ele>1107.413132</ele>
        <time>2026-07-27T11:09:34.000Z</time>
      </trkpt>
      <trkpt lat="44.51398" lon="6.45394">
        <ele>1107.258816</ele>
        <time>2026-07-27T11:09:35.000Z</time>
      </trkpt>
      <trkpt lat="44.51404" lon="6.45394">
        <ele>1107.104835</ele>
        <time>2026-07-27T11:09:36.000Z</time>
      </trkpt>
      <trkpt lat="44.51404" lon="6.45394">
        <ele>1107.104835</ele>
        <time>2026-07-27T11:09:36.000Z</time>
      </trkpt>
      <trkpt lat="44.5141" lon="6.45394">
        <ele>1106.96089</ele>
        <time>2026-07-27T11:09:37.000Z</time>
      </trkpt>
      <trkpt lat="44.51415" lon="6.45393">
        <ele>1106.824036</ele>
        <time>2026-07-27T11:09:38.000Z</time>
      </trkpt>
      <trkpt lat="44.51415" lon="6.45393">
        <ele>1106.824036</ele>
        <time>2026-07-27T11:09:38.000Z</time>
      </trkpt>
      <trkpt lat="44.51421" lon="6.45392">
        <ele>1106.689851</ele>
        <time>2026-07-27T11:09:39.000Z</time>
      </trkpt>
      <trkpt lat="44.51421" lon="6.45392">
        <ele>1106.689851</ele>
        <time>2026-07-27T11:09:39.000Z</time>
      </trkpt>
      <trkpt lat="44.51426" lon="6.45392">
        <ele>1106.545827</ele>
        <time>2026-07-27T11:09:40.000Z</time>
      </trkpt>
      <trkpt lat="44.51432" lon="6.45392">
        <ele>1106.401983</ele>
        <time>2026-07-27T11:09:41.000Z</time>
      </trkpt>
      <trkpt lat="44.51432" lon="6.45392">
        <ele>1106.401983</ele>
        <time>2026-07-27T11:09:41.000Z</time>
      </trkpt>
      <trkpt lat="44.51437" lon="6.45393">
        <ele>1106.265129</ele>
        <time>2026-07-27T11:09:42.000Z</time>
      </trkpt>
      <trkpt lat="44.51437" lon="6.45393">
        <ele>1106.265129</ele>
        <time>2026-07-27T11:09:42.000Z</time>
      </trkpt>
      <trkpt lat="44.51443" lon="6.45394">
        <ele>1106.120376</ele>
        <time>2026-07-27T11:09:43.000Z</time>
      </trkpt>
      <trkpt lat="44.5145" lon="6.45395">
        <ele>1105.954928</ele>
        <time>2026-07-27T11:09:44.000Z</time>
      </trkpt>
      <trkpt lat="44.51456" lon="6.45396">
        <ele>1105.788387</ele>
        <time>2026-07-27T11:09:45.000Z</time>
      </trkpt>
      <trkpt lat="44.51463" lon="6.45398">
        <ele>1105.614078</ele>
        <time>2026-07-27T11:09:46.000Z</time>
      </trkpt>
      <trkpt lat="44.5147" lon="6.454">
        <ele>1105.4351</ele>
        <time>2026-07-27T11:09:47.000Z</time>
      </trkpt>
      <trkpt lat="44.5147" lon="6.454">
        <ele>1105.4351</ele>
        <time>2026-07-27T11:09:47.000Z</time>
      </trkpt>
      <trkpt lat="44.51477" lon="6.45403">
        <ele>1105.255256</ele>
        <time>2026-07-27T11:09:48.000Z</time>
      </trkpt>
      <trkpt lat="44.51484" lon="6.45405">
        <ele>1105.06967</ele>
        <time>2026-07-27T11:09:49.000Z</time>
      </trkpt>
      <trkpt lat="44.51484" lon="6.45405">
        <ele>1105.06967</ele>
        <time>2026-07-27T11:09:49.000Z</time>
      </trkpt>
      <trkpt lat="44.51491" lon="6.45408">
        <ele>1104.889825</ele>
        <time>2026-07-27T11:09:50.000Z</time>
      </trkpt>
      <trkpt lat="44.51491" lon="6.45408">
        <ele>1104.889825</ele>
        <time>2026-07-27T11:09:50.000Z</time>
      </trkpt>
      <trkpt lat="44.51498" lon="6.45409">
        <ele>1104.70557</ele>
        <time>2026-07-27T11:09:51.000Z</time>
      </trkpt>
      <trkpt lat="44.51498" lon="6.45409">
        <ele>1104.70557</ele>
        <time>2026-07-27T11:09:51.000Z</time>
      </trkpt>
      <trkpt lat="44.51505" lon="6.4541">
        <ele>1104.520472</ele>
        <time>2026-07-27T11:09:52.000Z</time>
      </trkpt>
      <trkpt lat="44.51505" lon="6.4541">
        <ele>1104.520472</ele>
        <time>2026-07-27T11:09:52.000Z</time>
      </trkpt>
      <trkpt lat="44.51512" lon="6.4541">
        <ele>1104.348831</ele>
        <time>2026-07-27T11:09:53.000Z</time>
      </trkpt>
      <trkpt lat="44.51512" lon="6.4541">
        <ele>1104.348831</ele>
        <time>2026-07-27T11:09:53.000Z</time>
      </trkpt>
      <trkpt lat="44.51519" lon="6.45408">
        <ele>1104.160404</ele>
        <time>2026-07-27T11:09:54.000Z</time>
      </trkpt>
      <trkpt lat="44.51519" lon="6.45408">
        <ele>1104.160404</ele>
        <time>2026-07-27T11:09:54.000Z</time>
      </trkpt>
      <trkpt lat="44.51527" lon="6.45404">
        <ele>1103.957967</ele>
        <time>2026-07-27T11:09:55.000Z</time>
      </trkpt>
      <trkpt lat="44.51527" lon="6.45404">
        <ele>1103.957967</ele>
        <time>2026-07-27T11:09:55.000Z</time>
      </trkpt>
      <trkpt lat="44.51535" lon="6.454">
        <ele>1103.732305</ele>
        <time>2026-07-27T11:09:56.000Z</time>
      </trkpt>
      <trkpt lat="44.51535" lon="6.454">
        <ele>1103.732305</ele>
        <time>2026-07-27T11:09:56.000Z</time>
      </trkpt>
      <trkpt lat="44.51545" lon="6.45396">
        <ele>1103.488695</ele>
        <time>2026-07-27T11:09:57.000Z</time>
      </trkpt>
      <trkpt lat="44.51545" lon="6.45396">
        <ele>1103.488695</ele>
        <time>2026-07-27T11:09:57.000Z</time>
      </trkpt>
      <trkpt lat="44.51553" lon="6.45393">
        <ele>1103.262604</ele>
        <time>2026-07-27T11:09:58.000Z</time>
      </trkpt>
      <trkpt lat="44.51553" lon="6.45393">
        <ele>1103.262604</ele>
        <time>2026-07-27T11:09:58.000Z</time>
      </trkpt>
      <trkpt lat="44.51563" lon="6.45391">
        <ele>1103.026775</ele>
        <time>2026-07-27T11:09:59.000Z</time>
      </trkpt>
      <trkpt lat="44.51563" lon="6.45391">
        <ele>1103.026775</ele>
        <time>2026-07-27T11:09:59.000Z</time>
      </trkpt>
      <trkpt lat="44.51571" lon="6.45389">
        <ele>1102.815552</ele>
        <time>2026-07-27T11:10:00.000Z</time>
      </trkpt>
      <trkpt lat="44.51571" lon="6.45389">
        <ele>1102.815552</ele>
        <time>2026-07-27T11:10:00.000Z</time>
      </trkpt>
      <trkpt lat="44.51578" lon="6.45389">
        <ele>1102.609577</ele>
        <time>2026-07-27T11:10:01.000Z</time>
      </trkpt>
      <trkpt lat="44.51578" lon="6.45389">
        <ele>1102.609577</ele>
        <time>2026-07-27T11:10:01.000Z</time>
      </trkpt>
      <trkpt lat="44.51585" lon="6.45389">
        <ele>1102.433898</ele>
        <time>2026-07-27T11:10:02.000Z</time>
      </trkpt>
      <trkpt lat="44.51585" lon="6.45389">
        <ele>1102.433898</ele>
        <time>2026-07-27T11:10:02.000Z</time>
      </trkpt>
      <trkpt lat="44.51591" lon="6.45392">
        <ele>1102.25855</ele>
        <time>2026-07-27T11:10:03.000Z</time>
      </trkpt>
      <trkpt lat="44.51591" lon="6.45392">
        <ele>1102.25855</ele>
        <time>2026-07-27T11:10:03.000Z</time>
      </trkpt>
      <trkpt lat="44.51595" lon="6.45396">
        <ele>1102.105862</ele>
        <time>2026-07-27T11:10:04.000Z</time>
      </trkpt>
      <trkpt lat="44.51595" lon="6.45396">
        <ele>1102.105862</ele>
        <time>2026-07-27T11:10:04.000Z</time>
      </trkpt>
      <trkpt lat="44.51599" lon="6.45402">
        <ele>1101.955487</ele>
        <time>2026-07-27T11:10:05.000Z</time>
      </trkpt>
      <trkpt lat="44.51599" lon="6.45402">
        <ele>1101.955487</ele>
        <time>2026-07-27T11:10:05.000Z</time>
      </trkpt>
      <trkpt lat="44.51603" lon="6.45409">
        <ele>1101.79543</ele>
        <time>2026-07-27T11:10:06.000Z</time>
      </trkpt>
      <trkpt lat="44.51603" lon="6.45409">
        <ele>1101.79543</ele>
        <time>2026-07-27T11:10:06.000Z</time>
      </trkpt>
      <trkpt lat="44.51605" lon="6.45415">
        <ele>1101.660127</ele>
        <time>2026-07-27T11:10:07.000Z</time>
      </trkpt>
      <trkpt lat="44.51605" lon="6.45415">
        <ele>1101.660127</ele>
        <time>2026-07-27T11:10:07.000Z</time>
      </trkpt>
      <trkpt lat="44.51608" lon="6.45421">
        <ele>1101.511028</ele>
        <time>2026-07-27T11:10:08.000Z</time>
      </trkpt>
      <trkpt lat="44.51612" lon="6.45427">
        <ele>1101.370753</ele>
        <time>2026-07-27T11:10:09.000Z</time>
      </trkpt>
      <trkpt lat="44.51615" lon="6.45431">
        <ele>1101.244405</ele>
        <time>2026-07-27T11:10:10.000Z</time>
      </trkpt>
      <trkpt lat="44.51615" lon="6.45431">
        <ele>1101.244405</ele>
        <time>2026-07-27T11:10:10.000Z</time>
      </trkpt>
      <trkpt lat="44.5162" lon="6.45436">
        <ele>1101.083511</ele>
        <time>2026-07-27T11:10:11.000Z</time>
      </trkpt>
      <trkpt lat="44.51624" lon="6.45442">
        <ele>1100.920143</ele>
        <time>2026-07-27T11:10:12.000Z</time>
      </trkpt>
      <trkpt lat="44.51629" lon="6.45447">
        <ele>1100.759249</ele>
        <time>2026-07-27T11:10:13.000Z</time>
      </trkpt>
      <trkpt lat="44.51634" lon="6.45452">
        <ele>1100.599571</ele>
        <time>2026-07-27T11:10:14.000Z</time>
      </trkpt>
      <trkpt lat="44.51638" lon="6.45457">
        <ele>1100.441277</ele>
        <time>2026-07-27T11:10:15.000Z</time>
      </trkpt>
      <trkpt lat="44.51644" lon="6.45461">
        <ele>1100.27623</ele>
        <time>2026-07-27T11:10:16.000Z</time>
      </trkpt>
      <trkpt lat="44.51648" lon="6.45465">
        <ele>1100.136218</ele>
        <time>2026-07-27T11:10:17.000Z</time>
      </trkpt>
      <trkpt lat="44.51653" lon="6.45467">
        <ele>1100.002182</ele>
        <time>2026-07-27T11:10:18.000Z</time>
      </trkpt>
      <trkpt lat="44.51658" lon="6.45471">
        <ele>1099.851155</ele>
        <time>2026-07-27T11:10:19.000Z</time>
      </trkpt>
      <trkpt lat="44.51663" lon="6.45474">
        <ele>1099.702541</ele>
        <time>2026-07-27T11:10:20.000Z</time>
      </trkpt>
      <trkpt lat="44.51669" lon="6.45478">
        <ele>1099.534375</ele>
        <time>2026-07-27T11:10:21.000Z</time>
      </trkpt>
      <trkpt lat="44.51669" lon="6.45478">
        <ele>1099.534375</ele>
        <time>2026-07-27T11:10:21.000Z</time>
      </trkpt>
      <trkpt lat="44.51674" lon="6.4548">
        <ele>1099.390914</ele>
        <time>2026-07-27T11:10:22.000Z</time>
      </trkpt>
      <trkpt lat="44.51674" lon="6.4548">
        <ele>1099.390914</ele>
        <time>2026-07-27T11:10:22.000Z</time>
      </trkpt>
      <trkpt lat="44.51679" lon="6.45482">
        <ele>1099.24929</ele>
        <time>2026-07-27T11:10:23.000Z</time>
      </trkpt>
      <trkpt lat="44.51679" lon="6.45482">
        <ele>1099.24929</ele>
        <time>2026-07-27T11:10:23.000Z</time>
      </trkpt>
      <trkpt lat="44.51685" lon="6.45484">
        <ele>1099.079986</ele>
        <time>2026-07-27T11:10:24.000Z</time>
      </trkpt>
      <trkpt lat="44.5169" lon="6.45485">
        <ele>1098.924965</ele>
        <time>2026-07-27T11:10:25.000Z</time>
      </trkpt>
      <trkpt lat="44.51696" lon="6.45486">
        <ele>1098.75875</ele>
        <time>2026-07-27T11:10:26.000Z</time>
      </trkpt>
      <trkpt lat="44.51703" lon="6.45487">
        <ele>1098.572022</ele>
        <time>2026-07-27T11:10:27.000Z</time>
      </trkpt>
      <trkpt lat="44.51711" lon="6.45487">
        <ele>1098.377436</ele>
        <time>2026-07-27T11:10:28.000Z</time>
      </trkpt>
      <trkpt lat="44.51718" lon="6.45487">
        <ele>1098.180109</ele>
        <time>2026-07-27T11:10:29.000Z</time>
      </trkpt>
      <trkpt lat="44.51725" lon="6.45487">
        <ele>1097.846745</ele>
        <time>2026-07-27T11:10:30.000Z</time>
      </trkpt>
      <trkpt lat="44.51733" lon="6.45488">
        <ele>1097.333648</ele>
        <time>2026-07-27T11:10:31.000Z</time>
      </trkpt>
      <trkpt lat="44.51733" lon="6.45488">
        <ele>1097.333648</ele>
        <time>2026-07-27T11:10:31.000Z</time>
      </trkpt>
      <trkpt lat="44.5174" lon="6.45488">
        <ele>1096.866922</ele>
        <time>2026-07-27T11:10:32.000Z</time>
      </trkpt>
      <trkpt lat="44.51747" lon="6.45489">
        <ele>1096.380316</ele>
        <time>2026-07-27T11:10:33.000Z</time>
      </trkpt>
      <trkpt lat="44.51754" lon="6.4549">
        <ele>1095.860278</ele>
        <time>2026-07-27T11:10:34.000Z</time>
      </trkpt>
      <trkpt lat="44.51754" lon="6.4549">
        <ele>1095.860278</ele>
        <time>2026-07-27T11:10:34.000Z</time>
      </trkpt>
      <trkpt lat="44.51762" lon="6.4549">
        <ele>1095.374505</ele>
        <time>2026-07-27T11:10:36.000Z</time>
      </trkpt>
      <trkpt lat="44.51762" lon="6.4549">
        <ele>1095.374505</ele>
        <time>2026-07-27T11:10:36.000Z</time>
      </trkpt>
      <trkpt lat="44.5177" lon="6.4549">
        <ele>1094.834247</ele>
        <time>2026-07-27T11:10:36.000Z</time>
      </trkpt>
      <trkpt lat="44.5177" lon="6.4549">
        <ele>1094.834247</ele>
        <time>2026-07-27T11:10:36.000Z</time>
      </trkpt>
      <trkpt lat="44.51777" lon="6.45492">
        <ele>1094.335773</ele>
        <time>2026-07-27T11:10:38.000Z</time>
      </trkpt>
      <trkpt lat="44.51777" lon="6.45492">
        <ele>1094.335773</ele>
        <time>2026-07-27T11:10:38.000Z</time>
      </trkpt>
      <trkpt lat="44.51783" lon="6.45494">
        <ele>1093.883507</ele>
        <time>2026-07-27T11:10:38.000Z</time>
      </trkpt>
      <trkpt lat="44.51783" lon="6.45494">
        <ele>1093.883507</ele>
        <time>2026-07-27T11:10:38.000Z</time>
      </trkpt>
      <trkpt lat="44.5179" lon="6.45497">
        <ele>1093.450488</ele>
        <time>2026-07-27T11:10:40.000Z</time>
      </trkpt>
      <trkpt lat="44.5179" lon="6.45497">
        <ele>1093.450488</ele>
        <time>2026-07-27T11:10:40.000Z</time>
      </trkpt>
      <trkpt lat="44.51795" lon="6.455">
        <ele>1093.039749</ele>
        <time>2026-07-27T11:10:40.000Z</time>
      </trkpt>
      <trkpt lat="44.51795" lon="6.455">
        <ele>1093.039749</ele>
        <time>2026-07-27T11:10:40.000Z</time>
      </trkpt>
      <trkpt lat="44.51801" lon="6.45503">
        <ele>1092.655934</ele>
        <time>2026-07-27T11:10:41.000Z</time>
      </trkpt>
      <trkpt lat="44.51801" lon="6.45503">
        <ele>1092.655934</ele>
        <time>2026-07-27T11:10:41.000Z</time>
      </trkpt>
      <trkpt lat="44.51805" lon="6.45505">
        <ele>1092.353461</ele>
        <time>2026-07-27T11:10:42.000Z</time>
      </trkpt>
      <trkpt lat="44.51805" lon="6.45505">
        <ele>1092.353461</ele>
        <time>2026-07-27T11:10:42.000Z</time>
      </trkpt>
      <trkpt lat="44.51809" lon="6.45507">
        <ele>1092.052639</ele>
        <time>2026-07-27T11:10:43.000Z</time>
      </trkpt>
      <trkpt lat="44.51809" lon="6.45507">
        <ele>1092.052639</ele>
        <time>2026-07-27T11:10:43.000Z</time>
      </trkpt>
      <trkpt lat="44.51812" lon="6.45509">
        <ele>1091.829784</ele>
        <time>2026-07-27T11:10:44.000Z</time>
      </trkpt>
      <trkpt lat="44.51812" lon="6.45509">
        <ele>1091.829784</ele>
        <time>2026-07-27T11:10:44.000Z</time>
      </trkpt>
      <trkpt lat="44.51815" lon="6.4551">
        <ele>1091.584603</ele>
        <time>2026-07-27T11:10:45.000Z</time>
      </trkpt>
      <trkpt lat="44.51815" lon="6.4551">
        <ele>1091.584603</ele>
        <time>2026-07-27T11:10:45.000Z</time>
      </trkpt>
      <trkpt lat="44.51818" lon="6.45512">
        <ele>1091.384932</ele>
        <time>2026-07-27T11:10:46.000Z</time>
      </trkpt>
      <trkpt lat="44.51818" lon="6.45512">
        <ele>1091.384932</ele>
        <time>2026-07-27T11:10:46.000Z</time>
      </trkpt>
      <trkpt lat="44.51822" lon="6.45514">
        <ele>1091.109379</ele>
        <time>2026-07-27T11:10:47.000Z</time>
      </trkpt>
      <trkpt lat="44.51822" lon="6.45514">
        <ele>1091.109379</ele>
        <time>2026-07-27T11:10:47.000Z</time>
      </trkpt>
      <trkpt lat="44.51825" lon="6.45516">
        <ele>1090.91163</ele>
        <time>2026-07-27T11:10:48.000Z</time>
      </trkpt>
      <trkpt lat="44.51825" lon="6.45516">
        <ele>1090.91163</ele>
        <time>2026-07-27T11:10:48.000Z</time>
      </trkpt>
      <trkpt lat="44.51829" lon="6.45518">
        <ele>1090.607442</ele>
        <time>2026-07-27T11:10:49.000Z</time>
      </trkpt>
      <trkpt lat="44.51829" lon="6.45518">
        <ele>1090.607442</ele>
        <time>2026-07-27T11:10:49.000Z</time>
      </trkpt>
      <trkpt lat="44.51834" lon="6.45521">
        <ele>1090.253993</ele>
        <time>2026-07-27T11:10:50.000Z</time>
      </trkpt>
      <trkpt lat="44.51834" lon="6.45521">
        <ele>1090.253993</ele>
        <time>2026-07-27T11:10:50.000Z</time>
      </trkpt>
      <trkpt lat="44.51839" lon="6.45523">
        <ele>1089.852485</ele>
        <time>2026-07-27T11:10:51.000Z</time>
      </trkpt>
      <trkpt lat="44.51839" lon="6.45523">
        <ele>1089.852485</ele>
        <time>2026-07-27T11:10:51.000Z</time>
      </trkpt>
      <trkpt lat="44.51845" lon="6.45525">
        <ele>1089.448358</ele>
        <time>2026-07-27T11:10:52.000Z</time>
      </trkpt>
      <trkpt lat="44.51845" lon="6.45525">
        <ele>1089.448358</ele>
        <time>2026-07-27T11:10:52.000Z</time>
      </trkpt>
      <trkpt lat="44.51851" lon="6.45528">
        <ele>1089.018234</ele>
        <time>2026-07-27T11:10:53.000Z</time>
      </trkpt>
      <trkpt lat="44.51851" lon="6.45528">
        <ele>1089.018234</ele>
        <time>2026-07-27T11:10:53.000Z</time>
      </trkpt>
      <trkpt lat="44.51857" lon="6.45531">
        <ele>1088.585216</ele>
        <time>2026-07-27T11:10:54.000Z</time>
      </trkpt>
      <trkpt lat="44.51857" lon="6.45531">
        <ele>1088.585216</ele>
        <time>2026-07-27T11:10:54.000Z</time>
      </trkpt>
      <trkpt lat="44.51864" lon="6.45534">
        <ele>1088.101316</ele>
        <time>2026-07-27T11:10:55.000Z</time>
      </trkpt>
      <trkpt lat="44.51864" lon="6.45534">
        <ele>1088.101316</ele>
        <time>2026-07-27T11:10:55.000Z</time>
      </trkpt>
      <trkpt lat="44.5187" lon="6.45537">
        <ele>1087.669769</ele>
        <time>2026-07-27T11:10:56.000Z</time>
      </trkpt>
      <trkpt lat="44.5187" lon="6.45537">
        <ele>1087.669769</ele>
        <time>2026-07-27T11:10:56.000Z</time>
      </trkpt>
      <trkpt lat="44.51877" lon="6.45539">
        <ele>1087.185165</ele>
        <time>2026-07-27T11:10:57.000Z</time>
      </trkpt>
      <trkpt lat="44.51877" lon="6.45539">
        <ele>1087.185165</ele>
        <time>2026-07-27T11:10:57.000Z</time>
      </trkpt>
      <trkpt lat="44.51884" lon="6.45542">
        <ele>1086.731699</ele>
        <time>2026-07-27T11:10:58.000Z</time>
      </trkpt>
      <trkpt lat="44.51884" lon="6.45542">
        <ele>1086.731699</ele>
        <time>2026-07-27T11:10:58.000Z</time>
      </trkpt>
      <trkpt lat="44.51892" lon="6.45544">
        <ele>1086.153351</ele>
        <time>2026-07-27T11:10:59.000Z</time>
      </trkpt>
      <trkpt lat="44.51892" lon="6.45544">
        <ele>1086.153351</ele>
        <time>2026-07-27T11:10:59.000Z</time>
      </trkpt>
      <trkpt lat="44.519" lon="6.45546">
        <ele>1085.389373</ele>
        <time>2026-07-27T11:11:00.000Z</time>
      </trkpt>
      <trkpt lat="44.519" lon="6.45546">
        <ele>1085.389373</ele>
        <time>2026-07-27T11:11:00.000Z</time>
      </trkpt>
      <trkpt lat="44.51907" lon="6.45548">
        <ele>1084.555653</ele>
        <time>2026-07-27T11:11:01.000Z</time>
      </trkpt>
      <trkpt lat="44.51907" lon="6.45548">
        <ele>1084.555653</ele>
        <time>2026-07-27T11:11:01.000Z</time>
      </trkpt>
      <trkpt lat="44.51913" lon="6.45549">
        <ele>1083.781837</ele>
        <time>2026-07-27T11:11:02.000Z</time>
      </trkpt>
      <trkpt lat="44.51913" lon="6.45549">
        <ele>1083.781837</ele>
        <time>2026-07-27T11:11:02.000Z</time>
      </trkpt>
      <trkpt lat="44.51918" lon="6.45549">
        <ele>1083.199697</ele>
        <time>2026-07-27T11:11:03.000Z</time>
      </trkpt>
      <trkpt lat="44.51918" lon="6.45549">
        <ele>1083.199697</ele>
        <time>2026-07-27T11:11:03.000Z</time>
      </trkpt>
      <trkpt lat="44.51923" lon="6.45548">
        <ele>1082.554654</ele>
        <time>2026-07-27T11:11:04.000Z</time>
      </trkpt>
      <trkpt lat="44.51923" lon="6.45548">
        <ele>1082.554654</ele>
        <time>2026-07-27T11:11:04.000Z</time>
      </trkpt>
      <trkpt lat="44.51929" lon="6.45547">
        <ele>1081.871163</ele>
        <time>2026-07-27T11:11:05.000Z</time>
      </trkpt>
      <trkpt lat="44.51929" lon="6.45547">
        <ele>1081.871163</ele>
        <time>2026-07-27T11:11:05.000Z</time>
      </trkpt>
      <trkpt lat="44.51934" lon="6.45545">
        <ele>1081.219176</ele>
        <time>2026-07-27T11:11:06.000Z</time>
      </trkpt>
      <trkpt lat="44.51934" lon="6.45545">
        <ele>1081.219176</ele>
        <time>2026-07-27T11:11:06.000Z</time>
      </trkpt>
      <trkpt lat="44.51941" lon="6.45543">
        <ele>1080.47501</ele>
        <time>2026-07-27T11:11:07.000Z</time>
      </trkpt>
      <trkpt lat="44.51941" lon="6.45543">
        <ele>1080.47501</ele>
        <time>2026-07-27T11:11:07.000Z</time>
      </trkpt>
      <trkpt lat="44.51946" lon="6.45542">
        <ele>1079.782696</ele>
        <time>2026-07-27T11:11:08.000Z</time>
      </trkpt>
      <trkpt lat="44.51946" lon="6.45542">
        <ele>1079.782696</ele>
        <time>2026-07-27T11:11:08.000Z</time>
      </trkpt>
      <trkpt lat="44.51952" lon="6.45542">
        <ele>1079.105372</ele>
        <time>2026-07-27T11:11:09.000Z</time>
      </trkpt>
      <trkpt lat="44.51952" lon="6.45542">
        <ele>1079.105372</ele>
        <time>2026-07-27T11:11:09.000Z</time>
      </trkpt>
      <trkpt lat="44.51959" lon="6.45543">
        <ele>1078.322845</ele>
        <time>2026-07-27T11:11:10.000Z</time>
      </trkpt>
      <trkpt lat="44.51959" lon="6.45543">
        <ele>1078.322845</ele>
        <time>2026-07-27T11:11:10.000Z</time>
      </trkpt>
      <trkpt lat="44.51965" lon="6.45546">
        <ele>1077.540076</ele>
        <time>2026-07-27T11:11:11.000Z</time>
      </trkpt>
      <trkpt lat="44.51965" lon="6.45546">
        <ele>1077.540076</ele>
        <time>2026-07-27T11:11:11.000Z</time>
      </trkpt>
      <trkpt lat="44.51971" lon="6.45549">
        <ele>1076.80275</ele>
        <time>2026-07-27T11:11:12.000Z</time>
      </trkpt>
      <trkpt lat="44.51971" lon="6.45549">
        <ele>1076.80275</ele>
        <time>2026-07-27T11:11:12.000Z</time>
      </trkpt>
      <trkpt lat="44.51976" lon="6.45553">
        <ele>1076.083733</ele>
        <time>2026-07-27T11:11:13.000Z</time>
      </trkpt>
      <trkpt lat="44.51976" lon="6.45553">
        <ele>1076.083733</ele>
        <time>2026-07-27T11:11:13.000Z</time>
      </trkpt>
      <trkpt lat="44.51981" lon="6.45558">
        <ele>1075.349308</ele>
        <time>2026-07-27T11:11:14.000Z</time>
      </trkpt>
      <trkpt lat="44.51981" lon="6.45558">
        <ele>1075.349308</ele>
        <time>2026-07-27T11:11:14.000Z</time>
      </trkpt>
      <trkpt lat="44.51986" lon="6.45562">
        <ele>1074.701857</ele>
        <time>2026-07-27T11:11:15.000Z</time>
      </trkpt>
      <trkpt lat="44.51986" lon="6.45562">
        <ele>1074.701857</ele>
        <time>2026-07-27T11:11:15.000Z</time>
      </trkpt>
      <trkpt lat="44.5199" lon="6.45566">
        <ele>1074.059747</ele>
        <time>2026-07-27T11:11:16.000Z</time>
      </trkpt>
      <trkpt lat="44.5199" lon="6.45566">
        <ele>1074.059747</ele>
        <time>2026-07-27T11:11:16.000Z</time>
      </trkpt>
      <trkpt lat="44.51994" lon="6.4557">
        <ele>1073.518029</ele>
        <time>2026-07-27T11:11:17.000Z</time>
      </trkpt>
      <trkpt lat="44.51994" lon="6.4557">
        <ele>1073.518029</ele>
        <time>2026-07-27T11:11:17.000Z</time>
      </trkpt>
      <trkpt lat="44.51997" lon="6.45575">
        <ele>1072.938016</ele>
        <time>2026-07-27T11:11:18.000Z</time>
      </trkpt>
      <trkpt lat="44.51997" lon="6.45575">
        <ele>1072.938016</ele>
        <time>2026-07-27T11:11:18.000Z</time>
      </trkpt>
      <trkpt lat="44.52001" lon="6.45579">
        <ele>1072.394165</ele>
        <time>2026-07-27T11:11:20.000Z</time>
      </trkpt>
      <trkpt lat="44.52001" lon="6.45579">
        <ele>1072.394165</ele>
        <time>2026-07-27T11:11:20.000Z</time>
      </trkpt>
      <trkpt lat="44.52004" lon="6.45583">
        <ele>1071.887998</ele>
        <time>2026-07-27T11:11:20.000Z</time>
      </trkpt>
      <trkpt lat="44.52004" lon="6.45583">
        <ele>1071.887998</ele>
        <time>2026-07-27T11:11:20.000Z</time>
      </trkpt>
      <trkpt lat="44.52007" lon="6.45586">
        <ele>1071.435089</ele>
        <time>2026-07-27T11:11:21.000Z</time>
      </trkpt>
      <trkpt lat="44.52007" lon="6.45586">
        <ele>1071.435089</ele>
        <time>2026-07-27T11:11:21.000Z</time>
      </trkpt>
      <trkpt lat="44.5201" lon="6.45589">
        <ele>1071.031103</ele>
        <time>2026-07-27T11:11:22.000Z</time>
      </trkpt>
      <trkpt lat="44.5201" lon="6.45589">
        <ele>1071.031103</ele>
        <time>2026-07-27T11:11:22.000Z</time>
      </trkpt>
      <trkpt lat="44.52012" lon="6.45591">
        <ele>1070.70039</ele>
        <time>2026-07-27T11:11:23.000Z</time>
      </trkpt>
      <trkpt lat="44.52012" lon="6.45591">
        <ele>1070.70039</ele>
        <time>2026-07-27T11:11:23.000Z</time>
      </trkpt>
      <trkpt lat="44.52014" lon="6.45593">
        <ele>1070.405817</ele>
        <time>2026-07-27T11:11:24.000Z</time>
      </trkpt>
      <trkpt lat="44.52014" lon="6.45593">
        <ele>1070.405817</ele>
        <time>2026-07-27T11:11:24.000Z</time>
      </trkpt>
      <trkpt lat="44.52016" lon="6.45595">
        <ele>1070.079858</ele>
        <time>2026-07-27T11:11:25.000Z</time>
      </trkpt>
      <trkpt lat="44.52016" lon="6.45595">
        <ele>1070.079858</ele>
        <time>2026-07-27T11:11:25.000Z</time>
      </trkpt>
      <trkpt lat="44.5202" lon="6.45598">
        <ele>1069.622614</ele>
        <time>2026-07-27T11:11:27.000Z</time>
      </trkpt>
      <trkpt lat="44.5202" lon="6.45598">
        <ele>1069.622614</ele>
        <time>2026-07-27T11:11:27.000Z</time>
      </trkpt>
      <trkpt lat="44.52021" lon="6.45599">
        <ele>1069.451738</ele>
        <time>2026-07-27T11:11:27.000Z</time>
      </trkpt>
      <trkpt lat="44.52021" lon="6.45602">
        <ele>1069.223052</ele>
        <time>2026-07-27T11:11:29.000Z</time>
      </trkpt>
      <trkpt lat="44.52021" lon="6.45604">
        <ele>1069.057533</ele>
        <time>2026-07-27T11:11:30.000Z</time>
      </trkpt>
      <trkpt lat="44.52025" lon="6.45609">
        <ele>1068.450335</ele>
        <time>2026-07-27T11:11:32.000Z</time>
      </trkpt>
      <trkpt lat="44.52025" lon="6.45609">
        <ele>1068.450335</ele>
        <time>2026-07-27T11:11:32.000Z</time>
      </trkpt>
      <trkpt lat="44.52027" lon="6.45618">
        <ele>1067.643528</ele>
        <time>2026-07-27T11:11:34.000Z</time>
      </trkpt>
      <trkpt lat="44.52027" lon="6.45618">
        <ele>1067.643528</ele>
        <time>2026-07-27T11:11:34.000Z</time>
      </trkpt>
      <trkpt lat="44.52029" lon="6.45624">
        <ele>1067.103474</ele>
        <time>2026-07-27T11:11:34.000Z</time>
      </trkpt>
      <trkpt lat="44.52029" lon="6.45624">
        <ele>1067.103474</ele>
        <time>2026-07-27T11:11:34.000Z</time>
      </trkpt>
      <trkpt lat="44.52032" lon="6.4563">
        <ele>1066.496439</ele>
        <time>2026-07-27T11:11:35.000Z</time>
      </trkpt>
      <trkpt lat="44.52032" lon="6.4563">
        <ele>1066.496439</ele>
        <time>2026-07-27T11:11:35.000Z</time>
      </trkpt>
      <trkpt lat="44.52034" lon="6.45636">
        <ele>1065.971164</ele>
        <time>2026-07-27T11:11:36.000Z</time>
      </trkpt>
      <trkpt lat="44.52034" lon="6.45636">
        <ele>1065.971164</ele>
        <time>2026-07-27T11:11:36.000Z</time>
      </trkpt>
      <trkpt lat="44.52035" lon="6.45641">
        <ele>1065.48819</ele>
        <time>2026-07-27T11:11:37.000Z</time>
      </trkpt>
      <trkpt lat="44.52035" lon="6.45641">
        <ele>1065.48819</ele>
        <time>2026-07-27T11:11:37.000Z</time>
      </trkpt>
      <trkpt lat="44.52037" lon="6.45649">
        <ele>1064.806059</ele>
        <time>2026-07-27T11:11:38.000Z</time>
      </trkpt>
      <trkpt lat="44.52037" lon="6.45649">
        <ele>1064.806059</ele>
        <time>2026-07-27T11:11:38.000Z</time>
      </trkpt>
      <trkpt lat="44.52038" lon="6.45654">
        <ele>1064.361061</ele>
        <time>2026-07-27T11:11:39.000Z</time>
      </trkpt>
      <trkpt lat="44.52038" lon="6.45654">
        <ele>1064.361061</ele>
        <time>2026-07-27T11:11:39.000Z</time>
      </trkpt>
      <trkpt lat="44.52039" lon="6.4566">
        <ele>1063.914421</ele>
        <time>2026-07-27T11:11:40.000Z</time>
      </trkpt>
      <trkpt lat="44.52039" lon="6.4566">
        <ele>1063.914421</ele>
        <time>2026-07-27T11:11:40.000Z</time>
      </trkpt>
      <trkpt lat="44.5204" lon="6.45666">
        <ele>1063.402457</ele>
        <time>2026-07-27T11:11:41.000Z</time>
      </trkpt>
      <trkpt lat="44.5204" lon="6.45666">
        <ele>1063.402457</ele>
        <time>2026-07-27T11:11:41.000Z</time>
      </trkpt>
      <trkpt lat="44.52042" lon="6.45674">
        <ele>1062.772112</ele>
        <time>2026-07-27T11:11:42.000Z</time>
      </trkpt>
      <trkpt lat="44.52042" lon="6.45674">
        <ele>1062.772112</ele>
        <time>2026-07-27T11:11:42.000Z</time>
      </trkpt>
      <trkpt lat="44.52044" lon="6.45681">
        <ele>1062.216706</ele>
        <time>2026-07-27T11:11:43.000Z</time>
      </trkpt>
      <trkpt lat="44.52044" lon="6.45681">
        <ele>1062.216706</ele>
        <time>2026-07-27T11:11:43.000Z</time>
      </trkpt>
      <trkpt lat="44.52047" lon="6.45688">
        <ele>1061.621631</ele>
        <time>2026-07-27T11:11:44.000Z</time>
      </trkpt>
      <trkpt lat="44.52047" lon="6.45688">
        <ele>1061.621631</ele>
        <time>2026-07-27T11:11:44.000Z</time>
      </trkpt>
      <trkpt lat="44.52046" lon="6.45686">
        <ele>1061.467631</ele>
        <time>2026-07-27T11:11:45.000Z</time>
      </trkpt>
      <trkpt lat="44.52059" lon="6.45715">
        <ele>1058.864934</ele>
        <time>2026-07-27T11:11:46.000Z</time>
      </trkpt>
      <trkpt lat="44.52059" lon="6.45715">
        <ele>1058.864934</ele>
        <time>2026-07-27T11:11:46.000Z</time>
      </trkpt>
      <trkpt lat="44.52062" lon="6.4572">
        <ele>1058.402691</ele>
        <time>2026-07-27T11:11:47.000Z</time>
      </trkpt>
      <trkpt lat="44.52062" lon="6.4572">
        <ele>1058.402691</ele>
        <time>2026-07-27T11:11:47.000Z</time>
      </trkpt>
      <trkpt lat="44.52071" lon="6.45738">
        <ele>1056.683958</ele>
        <time>2026-07-27T11:11:48.000Z</time>
      </trkpt>
      <trkpt lat="44.52071" lon="6.45738">
        <ele>1056.683958</ele>
        <time>2026-07-27T11:11:48.000Z</time>
      </trkpt>
      <trkpt lat="44.52078" lon="6.45746">
        <ele>1055.798396</ele>
        <time>2026-07-27T11:11:49.000Z</time>
      </trkpt>
      <trkpt lat="44.52078" lon="6.45746">
        <ele>1055.798396</ele>
        <time>2026-07-27T11:11:49.000Z</time>
      </trkpt>
      <trkpt lat="44.52082" lon="6.45752">
        <ele>1055.157432</ele>
        <time>2026-07-27T11:11:50.000Z</time>
      </trkpt>
      <trkpt lat="44.52082" lon="6.45752">
        <ele>1055.157432</ele>
        <time>2026-07-27T11:11:50.000Z</time>
      </trkpt>
      <trkpt lat="44.52089" lon="6.45758">
        <ele>1054.319542</ele>
        <time>2026-07-27T11:11:51.000Z</time>
      </trkpt>
      <trkpt lat="44.52089" lon="6.45758">
        <ele>1054.319542</ele>
        <time>2026-07-27T11:11:51.000Z</time>
      </trkpt>
      <trkpt lat="44.52094" lon="6.45764">
        <ele>1053.564203</ele>
        <time>2026-07-27T11:11:52.000Z</time>
      </trkpt>
      <trkpt lat="44.52094" lon="6.45764">
        <ele>1053.564203</ele>
        <time>2026-07-27T11:11:52.000Z</time>
      </trkpt>
      <trkpt lat="44.521" lon="6.4577">
        <ele>1052.813007</ele>
        <time>2026-07-27T11:11:53.000Z</time>
      </trkpt>
      <trkpt lat="44.521" lon="6.4577">
        <ele>1052.813007</ele>
        <time>2026-07-27T11:11:53.000Z</time>
      </trkpt>
      <trkpt lat="44.52107" lon="6.45776">
        <ele>1051.975195</ele>
        <time>2026-07-27T11:11:54.000Z</time>
      </trkpt>
      <trkpt lat="44.52107" lon="6.45776">
        <ele>1051.975195</ele>
        <time>2026-07-27T11:11:54.000Z</time>
      </trkpt>
      <trkpt lat="44.52113" lon="6.45782">
        <ele>1051.206234</ele>
        <time>2026-07-27T11:11:55.000Z</time>
      </trkpt>
      <trkpt lat="44.52113" lon="6.45782">
        <ele>1051.206234</ele>
        <time>2026-07-27T11:11:55.000Z</time>
      </trkpt>
      <trkpt lat="44.52119" lon="6.45787">
        <ele>1050.405148</ele>
        <time>2026-07-27T11:11:56.000Z</time>
      </trkpt>
      <trkpt lat="44.52119" lon="6.45787">
        <ele>1050.405148</ele>
        <time>2026-07-27T11:11:56.000Z</time>
      </trkpt>
      <trkpt lat="44.52126" lon="6.45792">
        <ele>1049.583877</ele>
        <time>2026-07-27T11:11:57.000Z</time>
      </trkpt>
      <trkpt lat="44.52126" lon="6.45792">
        <ele>1049.583877</ele>
        <time>2026-07-27T11:11:57.000Z</time>
      </trkpt>
      <trkpt lat="44.52132" lon="6.45796">
        <ele>1048.825003</ele>
        <time>2026-07-27T11:11:58.000Z</time>
      </trkpt>
      <trkpt lat="44.52132" lon="6.45796">
        <ele>1048.825003</ele>
        <time>2026-07-27T11:11:58.000Z</time>
      </trkpt>
      <trkpt lat="44.52138" lon="6.458">
        <ele>1048.203385</ele>
        <time>2026-07-27T11:11:59.000Z</time>
      </trkpt>
      <trkpt lat="44.52138" lon="6.458">
        <ele>1048.203385</ele>
        <time>2026-07-27T11:11:59.000Z</time>
      </trkpt>
      <trkpt lat="44.52143" lon="6.45802">
        <ele>1047.645139</ele>
        <time>2026-07-27T11:12:00.000Z</time>
      </trkpt>
      <trkpt lat="44.52143" lon="6.45802">
        <ele>1047.645139</ele>
        <time>2026-07-27T11:12:00.000Z</time>
      </trkpt>
      <trkpt lat="44.52147" lon="6.45805">
        <ele>1047.152029</ele>
        <time>2026-07-27T11:12:01.000Z</time>
      </trkpt>
      <trkpt lat="44.52147" lon="6.45805">
        <ele>1047.152029</ele>
        <time>2026-07-27T11:12:01.000Z</time>
      </trkpt>
      <trkpt lat="44.52151" lon="6.45807">
        <ele>1046.718933</ele>
        <time>2026-07-27T11:12:02.000Z</time>
      </trkpt>
      <trkpt lat="44.52151" lon="6.45807">
        <ele>1046.718933</ele>
        <time>2026-07-27T11:12:02.000Z</time>
      </trkpt>
      <trkpt lat="44.52154" lon="6.45808">
        <ele>1046.342904</ele>
        <time>2026-07-27T11:12:03.000Z</time>
      </trkpt>
      <trkpt lat="44.52154" lon="6.45808">
        <ele>1046.342904</ele>
        <time>2026-07-27T11:12:03.000Z</time>
      </trkpt>
      <trkpt lat="44.52158" lon="6.45807">
        <ele>1045.972908</ele>
        <time>2026-07-27T11:12:04.000Z</time>
      </trkpt>
      <trkpt lat="44.52158" lon="6.45807">
        <ele>1045.972908</ele>
        <time>2026-07-27T11:12:04.000Z</time>
      </trkpt>
      <trkpt lat="44.5216" lon="6.45804">
        <ele>1045.616843</ele>
        <time>2026-07-27T11:12:05.000Z</time>
      </trkpt>
      <trkpt lat="44.5216" lon="6.45804">
        <ele>1045.616843</ele>
        <time>2026-07-27T11:12:05.000Z</time>
      </trkpt>
      <trkpt lat="44.52163" lon="6.458">
        <ele>1045.295376</ele>
        <time>2026-07-27T11:12:06.000Z</time>
      </trkpt>
      <trkpt lat="44.52163" lon="6.458">
        <ele>1045.295376</ele>
        <time>2026-07-27T11:12:06.000Z</time>
      </trkpt>
      <trkpt lat="44.52165" lon="6.45794">
        <ele>1044.927765</ele>
        <time>2026-07-27T11:12:07.000Z</time>
      </trkpt>
      <trkpt lat="44.52165" lon="6.45794">
        <ele>1044.927765</ele>
        <time>2026-07-27T11:12:07.000Z</time>
      </trkpt>
      <trkpt lat="44.52167" lon="6.45788">
        <ele>1044.571486</ele>
        <time>2026-07-27T11:12:08.000Z</time>
      </trkpt>
      <trkpt lat="44.52167" lon="6.45788">
        <ele>1044.571486</ele>
        <time>2026-07-27T11:12:08.000Z</time>
      </trkpt>
      <trkpt lat="44.52168" lon="6.45782">
        <ele>1044.241447</ele>
        <time>2026-07-27T11:12:09.000Z</time>
      </trkpt>
      <trkpt lat="44.52168" lon="6.45782">
        <ele>1044.241447</ele>
        <time>2026-07-27T11:12:09.000Z</time>
      </trkpt>
      <trkpt lat="44.52169" lon="6.45775">
        <ele>1043.857153</ele>
        <time>2026-07-27T11:12:10.000Z</time>
      </trkpt>
      <trkpt lat="44.52169" lon="6.45775">
        <ele>1043.857153</ele>
        <time>2026-07-27T11:12:10.000Z</time>
      </trkpt>
      <trkpt lat="44.52171" lon="6.45767">
        <ele>1043.447308</ele>
        <time>2026-07-27T11:12:11.000Z</time>
      </trkpt>
      <trkpt lat="44.52171" lon="6.45767">
        <ele>1043.447308</ele>
        <time>2026-07-27T11:12:11.000Z</time>
      </trkpt>
      <trkpt lat="44.52173" lon="6.45761">
        <ele>1043.074979</ele>
        <time>2026-07-27T11:12:12.000Z</time>
      </trkpt>
      <trkpt lat="44.52173" lon="6.45761">
        <ele>1043.074979</ele>
        <time>2026-07-27T11:12:12.000Z</time>
      </trkpt>
      <trkpt lat="44.52175" lon="6.45754">
        <ele>1042.688441</ele>
        <time>2026-07-27T11:12:13.000Z</time>
      </trkpt>
      <trkpt lat="44.52175" lon="6.45754">
        <ele>1042.688441</ele>
        <time>2026-07-27T11:12:13.000Z</time>
      </trkpt>
      <trkpt lat="44.52177" lon="6.45748">
        <ele>1042.301864</ele>
        <time>2026-07-27T11:12:14.000Z</time>
      </trkpt>
      <trkpt lat="44.52177" lon="6.45748">
        <ele>1042.301864</ele>
        <time>2026-07-27T11:12:14.000Z</time>
      </trkpt>
      <trkpt lat="44.52179" lon="6.45741">
        <ele>1041.917571</ele>
        <time>2026-07-27T11:12:15.000Z</time>
      </trkpt>
      <trkpt lat="44.52179" lon="6.45741">
        <ele>1041.917571</ele>
        <time>2026-07-27T11:12:15.000Z</time>
      </trkpt>
      <trkpt lat="44.5218" lon="6.45735">
        <ele>1041.578851</ele>
        <time>2026-07-27T11:12:16.000Z</time>
      </trkpt>
      <trkpt lat="44.5218" lon="6.45735">
        <ele>1041.578851</ele>
        <time>2026-07-27T11:12:16.000Z</time>
      </trkpt>
      <trkpt lat="44.52182" lon="6.45729">
        <ele>1041.214439</ele>
        <time>2026-07-27T11:12:17.000Z</time>
      </trkpt>
      <trkpt lat="44.52182" lon="6.45729">
        <ele>1041.214439</ele>
        <time>2026-07-27T11:12:17.000Z</time>
      </trkpt>
      <trkpt lat="44.52184" lon="6.45723">
        <ele>1040.869552</ele>
        <time>2026-07-27T11:12:18.000Z</time>
      </trkpt>
      <trkpt lat="44.52184" lon="6.45723">
        <ele>1040.869552</ele>
        <time>2026-07-27T11:12:18.000Z</time>
      </trkpt>
      <trkpt lat="44.52185" lon="6.45716">
        <ele>1040.511856</ele>
        <time>2026-07-27T11:12:19.000Z</time>
      </trkpt>
      <trkpt lat="44.52185" lon="6.45716">
        <ele>1040.511856</ele>
        <time>2026-07-27T11:12:19.000Z</time>
      </trkpt>
      <trkpt lat="44.52186" lon="6.45708">
        <ele>1040.087759</ele>
        <time>2026-07-27T11:12:20.000Z</time>
      </trkpt>
      <trkpt lat="44.52186" lon="6.45708">
        <ele>1040.087759</ele>
        <time>2026-07-27T11:12:20.000Z</time>
      </trkpt>
      <trkpt lat="44.52186" lon="6.45702">
        <ele>1039.729579</ele>
        <time>2026-07-27T11:12:21.000Z</time>
      </trkpt>
      <trkpt lat="44.52186" lon="6.45702">
        <ele>1039.729579</ele>
        <time>2026-07-27T11:12:21.000Z</time>
      </trkpt>
      <trkpt lat="44.52187" lon="6.45696">
        <ele>1039.429756</ele>
        <time>2026-07-27T11:12:22.000Z</time>
      </trkpt>
      <trkpt lat="44.52187" lon="6.45696">
        <ele>1039.429756</ele>
        <time>2026-07-27T11:12:22.000Z</time>
      </trkpt>
      <trkpt lat="44.52188" lon="6.45692">
        <ele>1039.201361</ele>
        <time>2026-07-27T11:12:23.000Z</time>
      </trkpt>
      <trkpt lat="44.52188" lon="6.45692">
        <ele>1039.201361</ele>
        <time>2026-07-27T11:12:23.000Z</time>
      </trkpt>
      <trkpt lat="44.52189" lon="6.45687">
        <ele>1038.930385</ele>
        <time>2026-07-27T11:12:24.000Z</time>
      </trkpt>
      <trkpt lat="44.52189" lon="6.45687">
        <ele>1038.930385</ele>
        <time>2026-07-27T11:12:24.000Z</time>
      </trkpt>
      <trkpt lat="44.5219" lon="6.45682">
        <ele>1038.64847</ele>
        <time>2026-07-27T11:12:25.000Z</time>
      </trkpt>
      <trkpt lat="44.5219" lon="6.45682">
        <ele>1038.64847</ele>
        <time>2026-07-27T11:12:25.000Z</time>
      </trkpt>
      <trkpt lat="44.5219" lon="6.45677">
        <ele>1038.359864</ele>
        <time>2026-07-27T11:12:27.000Z</time>
      </trkpt>
      <trkpt lat="44.5219" lon="6.45677">
        <ele>1038.359864</ele>
        <time>2026-07-27T11:12:27.000Z</time>
      </trkpt>
      <trkpt lat="44.52191" lon="6.4567">
        <ele>1038.008467</ele>
        <time>2026-07-27T11:12:27.000Z</time>
      </trkpt>
      <trkpt lat="44.52191" lon="6.4567">
        <ele>1038.008467</ele>
        <time>2026-07-27T11:12:27.000Z</time>
      </trkpt>
      <trkpt lat="44.52192" lon="6.45662">
        <ele>1037.58437</ele>
        <time>2026-07-27T11:12:29.000Z</time>
      </trkpt>
      <trkpt lat="44.52192" lon="6.45662">
        <ele>1037.58437</ele>
        <time>2026-07-27T11:12:29.000Z</time>
      </trkpt>
      <trkpt lat="44.52193" lon="6.45653">
        <ele>1037.080881</ele>
        <time>2026-07-27T11:12:29.000Z</time>
      </trkpt>
      <trkpt lat="44.52193" lon="6.45653">
        <ele>1037.080881</ele>
        <time>2026-07-27T11:12:29.000Z</time>
      </trkpt>
      <trkpt lat="44.52195" lon="6.45643">
        <ele>1036.546909</ele>
        <time>2026-07-27T11:12:30.000Z</time>
      </trkpt>
      <trkpt lat="44.52195" lon="6.45643">
        <ele>1036.546909</ele>
        <time>2026-07-27T11:12:30.000Z</time>
      </trkpt>
      <trkpt lat="44.52197" lon="6.45633">
        <ele>1036.000732</ele>
        <time>2026-07-27T11:12:31.000Z</time>
      </trkpt>
      <trkpt lat="44.52197" lon="6.45633">
        <ele>1036.000732</ele>
        <time>2026-07-27T11:12:31.000Z</time>
      </trkpt>
      <trkpt lat="44.52199" lon="6.45622">
        <ele>1035.395158</ele>
        <time>2026-07-27T11:12:32.000Z</time>
      </trkpt>
      <trkpt lat="44.52199" lon="6.45622">
        <ele>1035.395158</ele>
        <time>2026-07-27T11:12:32.000Z</time>
      </trkpt>
      <trkpt lat="44.52201" lon="6.45611">
        <ele>1034.781841</ele>
        <time>2026-07-27T11:12:34.000Z</time>
      </trkpt>
      <trkpt lat="44.52201" lon="6.45611">
        <ele>1034.781841</ele>
        <time>2026-07-27T11:12:34.000Z</time>
      </trkpt>
      <trkpt lat="44.52202" lon="6.456">
        <ele>1034.159033</ele>
        <time>2026-07-27T11:12:35.000Z</time>
      </trkpt>
      <trkpt lat="44.52202" lon="6.456">
        <ele>1034.159033</ele>
        <time>2026-07-27T11:12:35.000Z</time>
      </trkpt>
      <trkpt lat="44.52203" lon="6.45588">
        <ele>1033.524048</ele>
        <time>2026-07-27T11:12:36.000Z</time>
      </trkpt>
      <trkpt lat="44.52203" lon="6.45588">
        <ele>1033.524048</ele>
        <time>2026-07-27T11:12:36.000Z</time>
      </trkpt>
      <trkpt lat="44.52204" lon="6.45576">
        <ele>1032.90387</ele>
        <time>2026-07-27T11:12:37.000Z</time>
      </trkpt>
      <trkpt lat="44.52204" lon="6.45576">
        <ele>1032.90387</ele>
        <time>2026-07-27T11:12:37.000Z</time>
      </trkpt>
      <trkpt lat="44.52205" lon="6.45565">
        <ele>1032.274537</ele>
        <time>2026-07-27T11:12:38.000Z</time>
      </trkpt>
      <trkpt lat="44.52205" lon="6.45565">
        <ele>1032.274537</ele>
        <time>2026-07-27T11:12:38.000Z</time>
      </trkpt>
      <trkpt lat="44.52205" lon="6.45553">
        <ele>1031.678286</ele>
        <time>2026-07-27T11:12:39.000Z</time>
      </trkpt>
      <trkpt lat="44.52205" lon="6.45553">
        <ele>1031.678286</ele>
        <time>2026-07-27T11:12:39.000Z</time>
      </trkpt>
      <trkpt lat="44.52205" lon="6.45542">
        <ele>1031.120845</ele>
        <time>2026-07-27T11:12:40.000Z</time>
      </trkpt>
      <trkpt lat="44.52205" lon="6.45542">
        <ele>1031.120845</ele>
        <time>2026-07-27T11:12:40.000Z</time>
      </trkpt>
      <trkpt lat="44.52205" lon="6.4553">
        <ele>1030.529307</ele>
        <time>2026-07-27T11:12:41.000Z</time>
      </trkpt>
      <trkpt lat="44.52205" lon="6.4553">
        <ele>1030.529307</ele>
        <time>2026-07-27T11:12:41.000Z</time>
      </trkpt>
      <trkpt lat="44.52206" lon="6.45516">
        <ele>1029.83282</ele>
        <time>2026-07-27T11:12:42.000Z</time>
      </trkpt>
      <trkpt lat="44.52206" lon="6.45516">
        <ele>1029.83282</ele>
        <time>2026-07-27T11:12:42.000Z</time>
      </trkpt>
      <trkpt lat="44.52206" lon="6.45504">
        <ele>1029.240911</ele>
        <time>2026-07-27T11:12:42.000Z</time>
      </trkpt>
      <trkpt lat="44.52206" lon="6.45504">
        <ele>1029.240911</ele>
        <time>2026-07-27T11:12:42.000Z</time>
      </trkpt>
      <trkpt lat="44.52206" lon="6.45492">
        <ele>1028.668874</ele>
        <time>2026-07-27T11:12:43.000Z</time>
      </trkpt>
      <trkpt lat="44.52206" lon="6.45492">
        <ele>1028.668874</ele>
        <time>2026-07-27T11:12:43.000Z</time>
      </trkpt>
      <trkpt lat="44.52205" lon="6.45482">
        <ele>1028.131291</ele>
        <time>2026-07-27T11:12:44.000Z</time>
      </trkpt>
      <trkpt lat="44.52205" lon="6.45482">
        <ele>1028.131291</ele>
        <time>2026-07-27T11:12:44.000Z</time>
      </trkpt>
      <trkpt lat="44.52206" lon="6.4547">
        <ele>1027.558956</ele>
        <time>2026-07-27T11:12:45.000Z</time>
      </trkpt>
      <trkpt lat="44.52206" lon="6.4547">
        <ele>1027.558956</ele>
        <time>2026-07-27T11:12:45.000Z</time>
      </trkpt>
      <trkpt lat="44.52206" lon="6.45455">
        <ele>1026.798118</ele>
        <time>2026-07-27T11:12:47.000Z</time>
      </trkpt>
      <trkpt lat="44.52206" lon="6.45455">
        <ele>1026.798118</ele>
        <time>2026-07-27T11:12:47.000Z</time>
      </trkpt>
      <trkpt lat="44.52206" lon="6.45443">
        <ele>1026.236405</ele>
        <time>2026-07-27T11:12:47.000Z</time>
      </trkpt>
      <trkpt lat="44.52206" lon="6.45443">
        <ele>1026.236405</ele>
        <time>2026-07-27T11:12:47.000Z</time>
      </trkpt>
      <trkpt lat="44.52206" lon="6.4543">
        <ele>1025.574943</ele>
        <time>2026-07-27T11:12:48.000Z</time>
      </trkpt>
      <trkpt lat="44.52206" lon="6.4543">
        <ele>1025.574943</ele>
        <time>2026-07-27T11:12:48.000Z</time>
      </trkpt>
      <trkpt lat="44.52206" lon="6.45418">
        <ele>1024.983404</ele>
        <time>2026-07-27T11:12:50.000Z</time>
      </trkpt>
      <trkpt lat="44.52206" lon="6.45418">
        <ele>1024.983404</ele>
        <time>2026-07-27T11:12:50.000Z</time>
      </trkpt>
      <trkpt lat="44.52205" lon="6.45406">
        <ele>1024.384292</ele>
        <time>2026-07-27T11:12:50.000Z</time>
      </trkpt>
      <trkpt lat="44.52205" lon="6.45406">
        <ele>1024.384292</ele>
        <time>2026-07-27T11:12:50.000Z</time>
      </trkpt>
      <trkpt lat="44.52204" lon="6.45395">
        <ele>1023.811465</ele>
        <time>2026-07-27T11:12:51.000Z</time>
      </trkpt>
      <trkpt lat="44.52204" lon="6.45395">
        <ele>1023.811465</ele>
        <time>2026-07-27T11:12:51.000Z</time>
      </trkpt>
      <trkpt lat="44.52202" lon="6.45384">
        <ele>1023.272971</ele>
        <time>2026-07-27T11:12:52.000Z</time>
      </trkpt>
      <trkpt lat="44.52202" lon="6.45384">
        <ele>1023.272971</ele>
        <time>2026-07-27T11:12:52.000Z</time>
      </trkpt>
      <trkpt lat="44.52198" lon="6.45375">
        <ele>1022.757861</ele>
        <time>2026-07-27T11:12:53.000Z</time>
      </trkpt>
      <trkpt lat="44.52198" lon="6.45375">
        <ele>1022.757861</ele>
        <time>2026-07-27T11:12:53.000Z</time>
      </trkpt>
      <trkpt lat="44.52195" lon="6.45367">
        <ele>1022.290619</ele>
        <time>2026-07-27T11:12:54.000Z</time>
      </trkpt>
      <trkpt lat="44.52195" lon="6.45367">
        <ele>1022.290619</ele>
        <time>2026-07-27T11:12:54.000Z</time>
      </trkpt>
      <trkpt lat="44.52192" lon="6.45359">
        <ele>1021.868528</ele>
        <time>2026-07-27T11:12:55.000Z</time>
      </trkpt>
      <trkpt lat="44.52192" lon="6.45359">
        <ele>1021.868528</ele>
        <time>2026-07-27T11:12:55.000Z</time>
      </trkpt>
      <trkpt lat="44.5219" lon="6.45352">
        <ele>1021.471798</ele>
        <time>2026-07-27T11:12:56.000Z</time>
      </trkpt>
      <trkpt lat="44.5219" lon="6.45352">
        <ele>1021.471798</ele>
        <time>2026-07-27T11:12:56.000Z</time>
      </trkpt>
      <trkpt lat="44.52187" lon="6.45346">
        <ele>1021.093548</ele>
        <time>2026-07-27T11:12:57.000Z</time>
      </trkpt>
      <trkpt lat="44.52187" lon="6.45346">
        <ele>1021.093548</ele>
        <time>2026-07-27T11:12:57.000Z</time>
      </trkpt>
      <trkpt lat="44.52185" lon="6.4534">
        <ele>1020.758162</ele>
        <time>2026-07-27T11:12:58.000Z</time>
      </trkpt>
      <trkpt lat="44.52185" lon="6.4534">
        <ele>1020.758162</ele>
        <time>2026-07-27T11:12:58.000Z</time>
      </trkpt>
      <trkpt lat="44.52183" lon="6.45336">
        <ele>1020.527447</ele>
        <time>2026-07-27T11:12:59.000Z</time>
      </trkpt>
      <trkpt lat="44.52183" lon="6.45336">
        <ele>1020.527447</ele>
        <time>2026-07-27T11:12:59.000Z</time>
      </trkpt>
      <trkpt lat="44.52181" lon="6.45332">
        <ele>1020.300582</ele>
        <time>2026-07-27T11:13:00.000Z</time>
      </trkpt>
      <trkpt lat="44.52181" lon="6.45332">
        <ele>1020.300582</ele>
        <time>2026-07-27T11:13:00.000Z</time>
      </trkpt>
      <trkpt lat="44.5218" lon="6.4533">
        <ele>1020.158755</ele>
        <time>2026-07-27T11:13:01.000Z</time>
      </trkpt>
      <trkpt lat="44.5218" lon="6.4533">
        <ele>1020.158755</ele>
        <time>2026-07-27T11:13:01.000Z</time>
      </trkpt>
      <trkpt lat="44.5218" lon="6.4533">
        <ele>1020.158755</ele>
        <time>2026-07-27T11:13:02.000Z</time>
      </trkpt>
      <trkpt lat="44.5218" lon="6.4533">
        <ele>1020.158755</ele>
        <time>2026-07-27T11:13:03.000Z</time>
      </trkpt>
      <trkpt lat="44.5218" lon="6.4533">
        <ele>1020.158755</ele>
        <time>2026-07-27T11:13:38.000Z</time>
      </trkpt>
      <trkpt lat="44.52179" lon="6.45312">
        <ele>1019.490974</ele>
        <time>2026-07-27T11:13:38.000Z</time>
      </trkpt>
      <trkpt lat="44.52179" lon="6.45312">
        <ele>1019.488467</ele>
        <time>2026-07-27T11:13:40.000Z</time>
      </trkpt>
      <trkpt lat="44.52179" lon="6.45312">
        <ele>1019.488467</ele>
        <time>2026-07-27T11:13:40.000Z</time>
      </trkpt>
      <trkpt lat="44.52179" lon="6.45318">
        <ele>1019.453202</ele>
        <time>2026-07-27T11:13:40.000Z</time>
      </trkpt>
      <trkpt lat="44.52179" lon="6.45321">
        <ele>1019.43315</ele>
        <time>2026-07-27T11:13:42.000Z</time>
      </trkpt>
      <trkpt lat="44.52179" lon="6.45324">
        <ele>1019.416027</ele>
        <time>2026-07-27T11:13:43.000Z</time>
      </trkpt>
      <trkpt lat="44.52183" lon="6.45323">
        <ele>1019.381546</ele>
        <time>2026-07-27T11:13:43.000Z</time>
      </trkpt>
      <trkpt lat="44.52183" lon="6.45323">
        <ele>1019.381546</ele>
        <time>2026-07-27T11:13:43.000Z</time>
      </trkpt>
      <trkpt lat="44.52184" lon="6.45322">
        <ele>1019.372308</ele>
        <time>2026-07-27T11:13:45.000Z</time>
      </trkpt>
      <trkpt lat="44.52194" lon="6.45315">
        <ele>1019.272258</ele>
        <time>2026-07-27T11:13:45.000Z</time>
      </trkpt>
      <trkpt lat="44.522" lon="6.45312">
        <ele>1019.21897</ele>
        <time>2026-07-27T11:13:46.000Z</time>
      </trkpt>
      <trkpt lat="44.52206" lon="6.4531">
        <ele>1019.165824</ele>
        <time>2026-07-27T11:13:47.000Z</time>
      </trkpt>
      <trkpt lat="44.52212" lon="6.45308">
        <ele>1019.108058</ele>
        <time>2026-07-27T11:13:48.000Z</time>
      </trkpt>
      <trkpt lat="44.52218" lon="6.45306">
        <ele>1019.055414</ele>
        <time>2026-07-27T11:13:50.000Z</time>
      </trkpt>
      <trkpt lat="44.52223" lon="6.45303">
        <ele>1019.010002</ele>
        <time>2026-07-27T11:13:51.000Z</time>
      </trkpt>
      <trkpt lat="44.52229" lon="6.453">
        <ele>1018.956496</ele>
        <time>2026-07-27T11:13:52.000Z</time>
      </trkpt>
      <trkpt lat="44.52235" lon="6.45297">
        <ele>1018.898435</ele>
        <time>2026-07-27T11:13:52.000Z</time>
      </trkpt>
      <trkpt lat="44.52241" lon="6.45294">
        <ele>1018.839326</ele>
        <time>2026-07-27T11:13:53.000Z</time>
      </trkpt>
      <trkpt lat="44.52248" lon="6.45291">
        <ele>1018.778783</ele>
        <time>2026-07-27T11:13:55.000Z</time>
      </trkpt>
      <trkpt lat="44.52253" lon="6.45287">
        <ele>1018.724098</ele>
        <time>2026-07-27T11:13:56.000Z</time>
      </trkpt>
      <trkpt lat="44.5226" lon="6.45284">
        <ele>1018.658718</ele>
        <time>2026-07-27T11:13:57.000Z</time>
      </trkpt>
      <trkpt lat="44.52267" lon="6.45279">
        <ele>1018.591304</ele>
        <time>2026-07-27T11:13:58.000Z</time>
      </trkpt>
      <trkpt lat="44.52267" lon="6.45279">
        <ele>1018.591304</ele>
        <time>2026-07-27T11:13:58.000Z</time>
      </trkpt>
      <trkpt lat="44.52274" lon="6.45275">
        <ele>1018.528922</ele>
        <time>2026-07-27T11:13:59.000Z</time>
      </trkpt>
      <trkpt lat="44.5228" lon="6.45271">
        <ele>1018.470262</ele>
        <time>2026-07-27T11:14:00.000Z</time>
      </trkpt>
      <trkpt lat="44.52285" lon="6.45267">
        <ele>1018.414796</ele>
        <time>2026-07-27T11:14:01.000Z</time>
      </trkpt>
      <trkpt lat="44.52292" lon="6.45264">
        <ele>1018.356634</ele>
        <time>2026-07-27T11:14:02.000Z</time>
      </trkpt>
      <trkpt lat="44.52292" lon="6.45264">
        <ele>1018.356634</ele>
        <time>2026-07-27T11:14:02.000Z</time>
      </trkpt>
      <trkpt lat="44.52298" lon="6.4526">
        <ele>1018.298945</ele>
        <time>2026-07-27T11:14:03.000Z</time>
      </trkpt>
      <trkpt lat="44.52304" lon="6.45257">
        <ele>1018.241708</ele>
        <time>2026-07-27T11:14:04.000Z</time>
      </trkpt>
      <trkpt lat="44.5231" lon="6.45254">
        <ele>1018.182305</ele>
        <time>2026-07-27T11:14:05.000Z</time>
      </trkpt>
      <trkpt lat="44.5231" lon="6.45254">
        <ele>1018.182305</ele>
        <time>2026-07-27T11:14:05.000Z</time>
      </trkpt>
      <trkpt lat="44.52316" lon="6.45253">
        <ele>1018.127389</ele>
        <time>2026-07-27T11:14:06.000Z</time>
      </trkpt>
      <trkpt lat="44.52316" lon="6.45253">
        <ele>1018.127389</ele>
        <time>2026-07-27T11:14:06.000Z</time>
      </trkpt>
      <trkpt lat="44.52322" lon="6.45252">
        <ele>1018.073687</ele>
        <time>2026-07-27T11:14:07.000Z</time>
      </trkpt>
      <trkpt lat="44.52328" lon="6.45253">
        <ele>1018.026902</ele>
        <time>2026-07-27T11:14:08.000Z</time>
      </trkpt>
      <trkpt lat="44.52328" lon="6.45253">
        <ele>1018.026902</ele>
        <time>2026-07-27T11:14:08.000Z</time>
      </trkpt>
      <trkpt lat="44.52333" lon="6.45254">
        <ele>1017.981965</ele>
        <time>2026-07-27T11:14:09.000Z</time>
      </trkpt>
      <trkpt lat="44.52333" lon="6.45254">
        <ele>1017.981965</ele>
        <time>2026-07-27T11:14:09.000Z</time>
      </trkpt>
      <trkpt lat="44.52339" lon="6.45257">
        <ele>1017.995498</ele>
        <time>2026-07-27T11:14:10.000Z</time>
      </trkpt>
      <trkpt lat="44.52339" lon="6.45257">
        <ele>1017.995498</ele>
        <time>2026-07-27T11:14:10.000Z</time>
      </trkpt>
      <trkpt lat="44.52344" lon="6.45259">
        <ele>1018.124945</ele>
        <time>2026-07-27T11:14:11.000Z</time>
      </trkpt>
      <trkpt lat="44.52344" lon="6.45259">
        <ele>1018.124945</ele>
        <time>2026-07-27T11:14:11.000Z</time>
      </trkpt>
      <trkpt lat="44.52349" lon="6.45263">
        <ele>1018.268658</ele>
        <time>2026-07-27T11:14:11.000Z</time>
      </trkpt>
      <trkpt lat="44.52349" lon="6.45263">
        <ele>1018.268658</ele>
        <time>2026-07-27T11:14:11.000Z</time>
      </trkpt>
      <trkpt lat="44.52353" lon="6.45266">
        <ele>1018.379414</ele>
        <time>2026-07-27T11:14:13.000Z</time>
      </trkpt>
      <trkpt lat="44.52353" lon="6.45266">
        <ele>1018.379414</ele>
        <time>2026-07-27T11:14:13.000Z</time>
      </trkpt>
      <trkpt lat="44.52358" lon="6.45269">
        <ele>1018.504836</ele>
        <time>2026-07-27T11:14:14.000Z</time>
      </trkpt>
      <trkpt lat="44.52358" lon="6.45269">
        <ele>1018.504836</ele>
        <time>2026-07-27T11:14:14.000Z</time>
      </trkpt>
      <trkpt lat="44.52364" lon="6.45272">
        <ele>1018.654527</ele>
        <time>2026-07-27T11:14:14.000Z</time>
      </trkpt>
      <trkpt lat="44.52364" lon="6.45272">
        <ele>1018.654527</ele>
        <time>2026-07-27T11:14:14.000Z</time>
      </trkpt>
      <trkpt lat="44.52369" lon="6.45275">
        <ele>1018.78363</ele>
        <time>2026-07-27T11:14:16.000Z</time>
      </trkpt>
      <trkpt lat="44.52369" lon="6.45275">
        <ele>1018.78363</ele>
        <time>2026-07-27T11:14:16.000Z</time>
      </trkpt>
      <trkpt lat="44.52375" lon="6.45278">
        <ele>1018.941725</ele>
        <time>2026-07-27T11:14:17.000Z</time>
      </trkpt>
      <trkpt lat="44.52375" lon="6.45278">
        <ele>1018.941725</ele>
        <time>2026-07-27T11:14:17.000Z</time>
      </trkpt>
      <trkpt lat="44.5238" lon="6.45281">
        <ele>1019.08148</ele>
        <time>2026-07-27T11:14:18.000Z</time>
      </trkpt>
      <trkpt lat="44.5238" lon="6.45281">
        <ele>1019.08148</ele>
        <time>2026-07-27T11:14:18.000Z</time>
      </trkpt>
      <trkpt lat="44.52386" lon="6.45284">
        <ele>1019.237831</ele>
        <time>2026-07-27T11:14:19.000Z</time>
      </trkpt>
      <trkpt lat="44.52386" lon="6.45284">
        <ele>1019.237831</ele>
        <time>2026-07-27T11:14:19.000Z</time>
      </trkpt>
      <trkpt lat="44.52392" lon="6.45287">
        <ele>1019.38687</ele>
        <time>2026-07-27T11:14:20.000Z</time>
      </trkpt>
      <trkpt lat="44.52392" lon="6.45287">
        <ele>1019.38687</ele>
        <time>2026-07-27T11:14:20.000Z</time>
      </trkpt>
      <trkpt lat="44.52396" lon="6.45289">
        <ele>1019.503777</ele>
        <time>2026-07-27T11:14:21.000Z</time>
      </trkpt>
      <trkpt lat="44.52396" lon="6.45289">
        <ele>1019.503777</ele>
        <time>2026-07-27T11:14:21.000Z</time>
      </trkpt>
      <trkpt lat="44.52402" lon="6.45292">
        <ele>1019.649277</ele>
        <time>2026-07-27T11:14:22.000Z</time>
      </trkpt>
      <trkpt lat="44.52402" lon="6.45292">
        <ele>1019.649277</ele>
        <time>2026-07-27T11:14:22.000Z</time>
      </trkpt>
      <trkpt lat="44.52407" lon="6.45294">
        <ele>1019.765682</ele>
        <time>2026-07-27T11:14:23.000Z</time>
      </trkpt>
      <trkpt lat="44.52407" lon="6.45294">
        <ele>1019.765682</ele>
        <time>2026-07-27T11:14:23.000Z</time>
      </trkpt>
      <trkpt lat="44.52412" lon="6.45296">
        <ele>1019.898475</ele>
        <time>2026-07-27T11:14:24.000Z</time>
      </trkpt>
      <trkpt lat="44.52412" lon="6.45296">
        <ele>1019.898475</ele>
        <time>2026-07-27T11:14:24.000Z</time>
      </trkpt>
      <trkpt lat="44.52417" lon="6.45297">
        <ele>1020.032821</ele>
        <time>2026-07-27T11:14:25.000Z</time>
      </trkpt>
      <trkpt lat="44.52417" lon="6.45297">
        <ele>1020.032821</ele>
        <time>2026-07-27T11:14:25.000Z</time>
      </trkpt>
      <trkpt lat="44.52422" lon="6.45299">
        <ele>1020.148297</ele>
        <time>2026-07-27T11:14:26.000Z</time>
      </trkpt>
      <trkpt lat="44.52422" lon="6.45299">
        <ele>1020.148297</ele>
        <time>2026-07-27T11:14:26.000Z</time>
      </trkpt>
      <trkpt lat="44.52427" lon="6.453">
        <ele>1020.277893</ele>
        <time>2026-07-27T11:14:27.000Z</time>
      </trkpt>
      <trkpt lat="44.52427" lon="6.453">
        <ele>1020.277893</ele>
        <time>2026-07-27T11:14:27.000Z</time>
      </trkpt>
      <trkpt lat="44.52433" lon="6.45301">
        <ele>1020.407293</ele>
        <time>2026-07-27T11:14:28.000Z</time>
      </trkpt>
      <trkpt lat="44.52433" lon="6.45301">
        <ele>1020.407293</ele>
        <time>2026-07-27T11:14:28.000Z</time>
      </trkpt>
      <trkpt lat="44.52438" lon="6.45301">
        <ele>1020.538936</ele>
        <time>2026-07-27T11:14:29.000Z</time>
      </trkpt>
      <trkpt lat="44.52438" lon="6.45301">
        <ele>1020.538936</ele>
        <time>2026-07-27T11:14:29.000Z</time>
      </trkpt>
      <trkpt lat="44.52443" lon="6.45302">
        <ele>1020.649047</ele>
        <time>2026-07-27T11:14:30.000Z</time>
      </trkpt>
      <trkpt lat="44.52443" lon="6.45302">
        <ele>1020.649047</ele>
        <time>2026-07-27T11:14:30.000Z</time>
      </trkpt>
      <trkpt lat="44.52447" lon="6.45303">
        <ele>1020.753454</ele>
        <time>2026-07-27T11:14:31.000Z</time>
      </trkpt>
      <trkpt lat="44.52447" lon="6.45303">
        <ele>1020.753454</ele>
        <time>2026-07-27T11:14:31.000Z</time>
      </trkpt>
      <trkpt lat="44.52451" lon="6.45306">
        <ele>1020.855496</ele>
        <time>2026-07-27T11:14:32.000Z</time>
      </trkpt>
      <trkpt lat="44.52455" lon="6.45308">
        <ele>1020.97299</ele>
        <time>2026-07-27T11:14:33.000Z</time>
      </trkpt>
      <trkpt lat="44.52455" lon="6.45308">
        <ele>1020.97299</ele>
        <time>2026-07-27T11:14:33.000Z</time>
      </trkpt>
      <trkpt lat="44.5246" lon="6.4531">
        <ele>1021.091537</ele>
        <time>2026-07-27T11:14:34.000Z</time>
      </trkpt>
      <trkpt lat="44.52465" lon="6.45313">
        <ele>1021.228532</ele>
        <time>2026-07-27T11:14:35.000Z</time>
      </trkpt>
      <trkpt lat="44.5247" lon="6.45314">
        <ele>1021.339416</ele>
        <time>2026-07-27T11:14:36.000Z</time>
      </trkpt>
      <trkpt lat="44.52474" lon="6.45314">
        <ele>1021.441605</ele>
        <time>2026-07-27T11:14:37.000Z</time>
      </trkpt>
      <trkpt lat="44.52479" lon="6.45315">
        <ele>1021.563288</ele>
        <time>2026-07-27T11:14:38.000Z</time>
      </trkpt>
      <trkpt lat="44.52482" lon="6.45316">
        <ele>1021.635131</ele>
        <time>2026-07-27T11:14:39.000Z</time>
      </trkpt>
      <trkpt lat="44.52482" lon="6.45316">
        <ele>1021.635131</ele>
        <time>2026-07-27T11:14:39.000Z</time>
      </trkpt>
      <trkpt lat="44.52484" lon="6.4532">
        <ele>1021.712067</ele>
        <time>2026-07-27T11:14:40.000Z</time>
      </trkpt>
      <trkpt lat="44.52484" lon="6.4532">
        <ele>1021.712067</ele>
        <time>2026-07-27T11:14:40.000Z</time>
      </trkpt>
      <trkpt lat="44.52485" lon="6.45323">
        <ele>1021.778982</ele>
        <time>2026-07-27T11:14:41.000Z</time>
      </trkpt>
      <trkpt lat="44.52485" lon="6.4533">
        <ele>1021.895342</ele>
        <time>2026-07-27T11:14:42.000Z</time>
      </trkpt>
      <trkpt lat="44.52485" lon="6.4533">
        <ele>1021.895342</ele>
        <time>2026-07-27T11:14:42.000Z</time>
      </trkpt>
      <trkpt lat="44.52485" lon="6.45337">
        <ele>1022.015153</ele>
        <time>2026-07-27T11:14:43.000Z</time>
      </trkpt>
      <trkpt lat="44.52486" lon="6.45344">
        <ele>1022.133238</ele>
        <time>2026-07-27T11:14:44.000Z</time>
      </trkpt>
      <trkpt lat="44.52486" lon="6.45344">
        <ele>1022.133238</ele>
        <time>2026-07-27T11:14:44.000Z</time>
      </trkpt>
      <trkpt lat="44.52486" lon="6.45351">
        <ele>1022.254385</ele>
        <time>2026-07-27T11:14:45.000Z</time>
      </trkpt>
      <trkpt lat="44.52486" lon="6.45351">
        <ele>1022.254385</ele>
        <time>2026-07-27T11:14:45.000Z</time>
      </trkpt>
      <trkpt lat="44.52487" lon="6.45358">
        <ele>1021.732628</ele>
        <time>2026-07-27T11:14:46.000Z</time>
      </trkpt>
      <trkpt lat="44.52488" lon="6.45364">
        <ele>1020.890981</ele>
        <time>2026-07-27T11:14:47.000Z</time>
      </trkpt>
      <trkpt lat="44.52488" lon="6.45364">
        <ele>1020.890981</ele>
        <time>2026-07-27T11:14:47.000Z</time>
      </trkpt>
      <trkpt lat="44.52491" lon="6.45368">
        <ele>1020.110948</ele>
        <time>2026-07-27T11:14:48.000Z</time>
      </trkpt>
      <trkpt lat="44.52491" lon="6.45368">
        <ele>1020.110948</ele>
        <time>2026-07-27T11:14:48.000Z</time>
      </trkpt>
      <trkpt lat="44.52493" lon="6.45371">
        <ele>1019.578597</ele>
        <time>2026-07-27T11:14:49.000Z</time>
      </trkpt>
      <trkpt lat="44.52493" lon="6.45371">
        <ele>1019.578597</ele>
        <time>2026-07-27T11:14:49.000Z</time>
      </trkpt>
      <trkpt lat="44.52496" lon="6.45371">
        <ele>1019.145131</ele>
        <time>2026-07-27T11:14:50.000Z</time>
      </trkpt>
      <trkpt lat="44.52496" lon="6.45371">
        <ele>1019.145131</ele>
        <time>2026-07-27T11:14:50.000Z</time>
      </trkpt>
      <trkpt lat="44.52498" lon="6.45369">
        <ele>1018.604501</ele>
        <time>2026-07-27T11:14:51.000Z</time>
      </trkpt>
      <trkpt lat="44.52498" lon="6.45369">
        <ele>1018.604501</ele>
        <time>2026-07-27T11:14:51.000Z</time>
      </trkpt>
      <trkpt lat="44.52501" lon="6.45366">
        <ele>1017.894701</ele>
        <time>2026-07-27T11:14:52.000Z</time>
      </trkpt>
      <trkpt lat="44.52501" lon="6.45366">
        <ele>1017.894701</ele>
        <time>2026-07-27T11:14:52.000Z</time>
      </trkpt>
      <trkpt lat="44.52505" lon="6.45363">
        <ele>1017.151643</ele>
        <time>2026-07-27T11:14:53.000Z</time>
      </trkpt>
      <trkpt lat="44.52505" lon="6.45363">
        <ele>1017.151643</ele>
        <time>2026-07-27T11:14:53.000Z</time>
      </trkpt>
      <trkpt lat="44.52507" lon="6.45361">
        <ele>1016.582342</ele>
        <time>2026-07-27T11:14:54.000Z</time>
      </trkpt>
      <trkpt lat="44.52507" lon="6.45361">
        <ele>1016.582342</ele>
        <time>2026-07-27T11:14:54.000Z</time>
      </trkpt>
      <trkpt lat="44.52509" lon="6.45361">
        <ele>1016.294583</ele>
        <time>2026-07-27T11:14:55.000Z</time>
      </trkpt>
      <trkpt lat="44.52509" lon="6.45361">
        <ele>1016.294583</ele>
        <time>2026-07-27T11:14:55.000Z</time>
      </trkpt>
      <trkpt lat="44.52511" lon="6.45362">
        <ele>1015.969697</ele>
        <time>2026-07-27T11:14:56.000Z</time>
      </trkpt>
      <trkpt lat="44.52511" lon="6.45362">
        <ele>1015.969697</ele>
        <time>2026-07-27T11:14:56.000Z</time>
      </trkpt>
      <trkpt lat="44.52512" lon="6.45364">
        <ele>1015.560678</ele>
        <time>2026-07-27T11:14:57.000Z</time>
      </trkpt>
      <trkpt lat="44.52512" lon="6.45364">
        <ele>1015.560678</ele>
        <time>2026-07-27T11:14:57.000Z</time>
      </trkpt>
      <trkpt lat="44.52512" lon="6.45368">
        <ele>1015.031264</ele>
        <time>2026-07-27T11:14:58.000Z</time>
      </trkpt>
      <trkpt lat="44.52512" lon="6.45368">
        <ele>1015.031264</ele>
        <time>2026-07-27T11:14:58.000Z</time>
      </trkpt>
      <trkpt lat="44.52513" lon="6.45373">
        <ele>1014.359795</ele>
        <time>2026-07-27T11:14:59.000Z</time>
      </trkpt>
      <trkpt lat="44.52513" lon="6.45373">
        <ele>1014.359795</ele>
        <time>2026-07-27T11:14:59.000Z</time>
      </trkpt>
      <trkpt lat="44.52514" lon="6.45377">
        <ele>1013.701645</ele>
        <time>2026-07-27T11:15:00.000Z</time>
      </trkpt>
      <trkpt lat="44.52514" lon="6.45377">
        <ele>1013.701645</ele>
        <time>2026-07-27T11:15:00.000Z</time>
      </trkpt>
      <trkpt lat="44.52516" lon="6.45382">
        <ele>1012.963961</ele>
        <time>2026-07-27T11:15:01.000Z</time>
      </trkpt>
      <trkpt lat="44.52516" lon="6.45382">
        <ele>1012.963961</ele>
        <time>2026-07-27T11:15:01.000Z</time>
      </trkpt>
      <trkpt lat="44.52517" lon="6.45387">
        <ele>1012.292491</ele>
        <time>2026-07-27T11:15:02.000Z</time>
      </trkpt>
      <trkpt lat="44.52517" lon="6.45387">
        <ele>1012.292491</ele>
        <time>2026-07-27T11:15:02.000Z</time>
      </trkpt>
      <trkpt lat="44.52518" lon="6.45392">
        <ele>1011.609043</ele>
        <time>2026-07-27T11:15:03.000Z</time>
      </trkpt>
      <trkpt lat="44.52518" lon="6.45392">
        <ele>1011.609043</ele>
        <time>2026-07-27T11:15:03.000Z</time>
      </trkpt>
      <trkpt lat="44.52519" lon="6.45397">
        <ele>1010.841515</ele>
        <time>2026-07-27T11:15:04.000Z</time>
      </trkpt>
      <trkpt lat="44.52519" lon="6.45397">
        <ele>1010.841515</ele>
        <time>2026-07-27T11:15:04.000Z</time>
      </trkpt>
      <trkpt lat="44.5252" lon="6.45403">
        <ele>1010.13987</ele>
        <time>2026-07-27T11:15:05.000Z</time>
      </trkpt>
      <trkpt lat="44.5252" lon="6.45403">
        <ele>1010.13987</ele>
        <time>2026-07-27T11:15:05.000Z</time>
      </trkpt>
      <trkpt lat="44.52521" lon="6.45408">
        <ele>1009.398181</ele>
        <time>2026-07-27T11:15:06.000Z</time>
      </trkpt>
      <trkpt lat="44.52521" lon="6.45408">
        <ele>1009.398181</ele>
        <time>2026-07-27T11:15:06.000Z</time>
      </trkpt>
      <trkpt lat="44.52522" lon="6.45413">
        <ele>1008.625351</ele>
        <time>2026-07-27T11:15:07.000Z</time>
      </trkpt>
      <trkpt lat="44.52522" lon="6.45413">
        <ele>1008.625351</ele>
        <time>2026-07-27T11:15:07.000Z</time>
      </trkpt>
      <trkpt lat="44.52523" lon="6.45418">
        <ele>1007.953882</ele>
        <time>2026-07-27T11:15:08.000Z</time>
      </trkpt>
      <trkpt lat="44.52523" lon="6.45418">
        <ele>1007.953882</ele>
        <time>2026-07-27T11:15:08.000Z</time>
      </trkpt>
      <trkpt lat="44.52523" lon="6.45423">
        <ele>1007.255191</ele>
        <time>2026-07-27T11:15:09.000Z</time>
      </trkpt>
      <trkpt lat="44.52523" lon="6.45423">
        <ele>1007.255191</ele>
        <time>2026-07-27T11:15:09.000Z</time>
      </trkpt>
      <trkpt lat="44.52523" lon="6.45428">
        <ele>1006.634538</ele>
        <time>2026-07-27T11:15:10.000Z</time>
      </trkpt>
      <trkpt lat="44.52523" lon="6.45428">
        <ele>1006.634538</ele>
        <time>2026-07-27T11:15:10.000Z</time>
      </trkpt>
      <trkpt lat="44.52523" lon="6.45433">
        <ele>1005.94989</ele>
        <time>2026-07-27T11:15:11.000Z</time>
      </trkpt>
      <trkpt lat="44.52523" lon="6.45433">
        <ele>1005.94989</ele>
        <time>2026-07-27T11:15:11.000Z</time>
      </trkpt>
      <trkpt lat="44.52523" lon="6.45438">
        <ele>1005.251199</ele>
        <time>2026-07-27T11:15:12.000Z</time>
      </trkpt>
      <trkpt lat="44.52523" lon="6.45438">
        <ele>1005.251199</ele>
        <time>2026-07-27T11:15:12.000Z</time>
      </trkpt>
      <trkpt lat="44.52523" lon="6.45443">
        <ele>1004.579381</ele>
        <time>2026-07-27T11:15:13.000Z</time>
      </trkpt>
      <trkpt lat="44.52523" lon="6.45443">
        <ele>1004.579381</ele>
        <time>2026-07-27T11:15:13.000Z</time>
      </trkpt>
      <trkpt lat="44.52524" lon="6.45447">
        <ele>1004.036666</ele>
        <time>2026-07-27T11:15:14.000Z</time>
      </trkpt>
      <trkpt lat="44.52524" lon="6.45447">
        <ele>1004.036666</ele>
        <time>2026-07-27T11:15:14.000Z</time>
      </trkpt>
      <trkpt lat="44.52525" lon="6.45451">
        <ele>1003.51484</ele>
        <time>2026-07-27T11:15:15.000Z</time>
      </trkpt>
      <trkpt lat="44.52525" lon="6.45451">
        <ele>1003.51484</ele>
        <time>2026-07-27T11:15:15.000Z</time>
      </trkpt>
      <trkpt lat="44.52527" lon="6.45454">
        <ele>1002.966139</ele>
        <time>2026-07-27T11:15:16.000Z</time>
      </trkpt>
      <trkpt lat="44.52527" lon="6.45454">
        <ele>1002.966139</ele>
        <time>2026-07-27T11:15:16.000Z</time>
      </trkpt>
      <trkpt lat="44.52529" lon="6.45458">
        <ele>1002.306559</ele>
        <time>2026-07-27T11:15:17.000Z</time>
      </trkpt>
      <trkpt lat="44.52529" lon="6.45458">
        <ele>1002.306559</ele>
        <time>2026-07-27T11:15:17.000Z</time>
      </trkpt>
      <trkpt lat="44.52531" lon="6.4546">
        <ele>1001.774209</ele>
        <time>2026-07-27T11:15:18.000Z</time>
      </trkpt>
      <trkpt lat="44.52531" lon="6.4546">
        <ele>1001.774209</ele>
        <time>2026-07-27T11:15:18.000Z</time>
      </trkpt>
      <trkpt lat="44.52534" lon="6.45462">
        <ele>1001.201946</ele>
        <time>2026-07-27T11:15:19.000Z</time>
      </trkpt>
      <trkpt lat="44.52534" lon="6.45462">
        <ele>1001.201946</ele>
        <time>2026-07-27T11:15:19.000Z</time>
      </trkpt>
      <trkpt lat="44.52537" lon="6.45465">
        <ele>1000.467719</ele>
        <time>2026-07-27T11:15:20.000Z</time>
      </trkpt>
      <trkpt lat="44.52537" lon="6.45465">
        <ele>1000.467719</ele>
        <time>2026-07-27T11:15:20.000Z</time>
      </trkpt>
      <trkpt lat="44.52541" lon="6.45469">
        <ele>999.588185</ele>
        <time>2026-07-27T11:15:21.000Z</time>
      </trkpt>
      <trkpt lat="44.52541" lon="6.45469">
        <ele>999.588185</ele>
        <time>2026-07-27T11:15:21.000Z</time>
      </trkpt>
      <trkpt lat="44.52544" lon="6.45472">
        <ele>998.801234</ele>
        <time>2026-07-27T11:15:22.000Z</time>
      </trkpt>
      <trkpt lat="44.52544" lon="6.45472">
        <ele>998.801234</ele>
        <time>2026-07-27T11:15:22.000Z</time>
      </trkpt>
      <trkpt lat="44.52549" lon="6.45476">
        <ele>997.85195</ele>
        <time>2026-07-27T11:15:23.000Z</time>
      </trkpt>
      <trkpt lat="44.52549" lon="6.45476">
        <ele>997.85195</ele>
        <time>2026-07-27T11:15:23.000Z</time>
      </trkpt>
      <trkpt lat="44.52553" lon="6.45479">
        <ele>996.981229</ele>
        <time>2026-07-27T11:15:24.000Z</time>
      </trkpt>
      <trkpt lat="44.52553" lon="6.45479">
        <ele>996.981229</ele>
        <time>2026-07-27T11:15:24.000Z</time>
      </trkpt>
      <trkpt lat="44.52556" lon="6.45479">
        <ele>996.33694</ele>
        <time>2026-07-27T11:15:25.000Z</time>
      </trkpt>
      <trkpt lat="44.52556" lon="6.45479">
        <ele>996.33694</ele>
        <time>2026-07-27T11:15:25.000Z</time>
      </trkpt>
      <trkpt lat="44.5256" lon="6.45479">
        <ele>995.677181</ele>
        <time>2026-07-27T11:15:26.000Z</time>
      </trkpt>
      <trkpt lat="44.5256" lon="6.45479">
        <ele>995.677181</ele>
        <time>2026-07-27T11:15:26.000Z</time>
      </trkpt>
      <trkpt lat="44.52562" lon="6.45479">
        <ele>995.186439</ele>
        <time>2026-07-27T11:15:27.000Z</time>
      </trkpt>
      <trkpt lat="44.52562" lon="6.45479">
        <ele>995.186439</ele>
        <time>2026-07-27T11:15:27.000Z</time>
      </trkpt>
      <trkpt lat="44.52565" lon="6.4548">
        <ele>994.589818</ele>
        <time>2026-07-27T11:15:28.000Z</time>
      </trkpt>
      <trkpt lat="44.52565" lon="6.4548">
        <ele>994.589818</ele>
        <time>2026-07-27T11:15:28.000Z</time>
      </trkpt>
      <trkpt lat="44.52568" lon="6.45482">
        <ele>994.05747</ele>
        <time>2026-07-27T11:15:29.000Z</time>
      </trkpt>
      <trkpt lat="44.52568" lon="6.45482">
        <ele>994.05747</ele>
        <time>2026-07-27T11:15:29.000Z</time>
      </trkpt>
      <trkpt lat="44.52569" lon="6.45487">
        <ele>993.402162</ele>
        <time>2026-07-27T11:15:30.000Z</time>
      </trkpt>
      <trkpt lat="44.52569" lon="6.45487">
        <ele>993.402162</ele>
        <time>2026-07-27T11:15:30.000Z</time>
      </trkpt>
      <trkpt lat="44.5257" lon="6.45493">
        <ele>992.538944</ele>
        <time>2026-07-27T11:15:31.000Z</time>
      </trkpt>
      <trkpt lat="44.5257" lon="6.45493">
        <ele>992.538944</ele>
        <time>2026-07-27T11:15:31.000Z</time>
      </trkpt>
      <trkpt lat="44.5257" lon="6.455">
        <ele>991.58497</ele>
        <time>2026-07-27T11:15:32.000Z</time>
      </trkpt>
      <trkpt lat="44.5257" lon="6.455">
        <ele>991.58497</ele>
        <time>2026-07-27T11:15:32.000Z</time>
      </trkpt>
      <trkpt lat="44.5257" lon="6.45507">
        <ele>990.701706</ele>
        <time>2026-07-27T11:15:33.000Z</time>
      </trkpt>
      <trkpt lat="44.5257" lon="6.45507">
        <ele>990.701706</ele>
        <time>2026-07-27T11:15:33.000Z</time>
      </trkpt>
      <trkpt lat="44.5257" lon="6.45515">
        <ele>989.611903</ele>
        <time>2026-07-27T11:15:34.000Z</time>
      </trkpt>
      <trkpt lat="44.5257" lon="6.45515">
        <ele>989.611903</ele>
        <time>2026-07-27T11:15:34.000Z</time>
      </trkpt>
      <trkpt lat="44.52569" lon="6.45522">
        <ele>988.672622</ele>
        <time>2026-07-27T11:15:35.000Z</time>
      </trkpt>
      <trkpt lat="44.52569" lon="6.45522">
        <ele>988.672622</ele>
        <time>2026-07-27T11:15:35.000Z</time>
      </trkpt>
      <trkpt lat="44.52568" lon="6.45529">
        <ele>987.679509</ele>
        <time>2026-07-27T11:15:36.000Z</time>
      </trkpt>
      <trkpt lat="44.52568" lon="6.45529">
        <ele>987.679509</ele>
        <time>2026-07-27T11:15:36.000Z</time>
      </trkpt>
      <trkpt lat="44.52566" lon="6.45536">
        <ele>986.703023</ele>
        <time>2026-07-27T11:15:37.000Z</time>
      </trkpt>
      <trkpt lat="44.52566" lon="6.45536">
        <ele>986.703023</ele>
        <time>2026-07-27T11:15:37.000Z</time>
      </trkpt>
      <trkpt lat="44.52565" lon="6.45544">
        <ele>985.706903</ele>
        <time>2026-07-27T11:15:38.000Z</time>
      </trkpt>
      <trkpt lat="44.52565" lon="6.45544">
        <ele>985.706903</ele>
        <time>2026-07-27T11:15:38.000Z</time>
      </trkpt>
      <trkpt lat="44.52564" lon="6.45551">
        <ele>984.766145</ele>
        <time>2026-07-27T11:15:39.000Z</time>
      </trkpt>
      <trkpt lat="44.52564" lon="6.45551">
        <ele>984.766145</ele>
        <time>2026-07-27T11:15:39.000Z</time>
      </trkpt>
      <trkpt lat="44.52563" lon="6.45557">
        <ele>983.985881</ele>
        <time>2026-07-27T11:15:40.000Z</time>
      </trkpt>
      <trkpt lat="44.52563" lon="6.45557">
        <ele>983.985881</ele>
        <time>2026-07-27T11:15:40.000Z</time>
      </trkpt>
      <trkpt lat="44.52564" lon="6.45563">
        <ele>983.141138</ele>
        <time>2026-07-27T11:15:41.000Z</time>
      </trkpt>
      <trkpt lat="44.52564" lon="6.45563">
        <ele>983.141138</ele>
        <time>2026-07-27T11:15:41.000Z</time>
      </trkpt>
      <trkpt lat="44.52564" lon="6.45569">
        <ele>982.455949</ele>
        <time>2026-07-27T11:15:42.000Z</time>
      </trkpt>
      <trkpt lat="44.52564" lon="6.45569">
        <ele>982.455949</ele>
        <time>2026-07-27T11:15:42.000Z</time>
      </trkpt>
      <trkpt lat="44.52565" lon="6.45574">
        <ele>981.760572</ele>
        <time>2026-07-27T11:15:43.000Z</time>
      </trkpt>
      <trkpt lat="44.52565" lon="6.45574">
        <ele>981.760572</ele>
        <time>2026-07-27T11:15:43.000Z</time>
      </trkpt>
      <trkpt lat="44.52567" lon="6.45578">
        <ele>981.117376</ele>
        <time>2026-07-27T11:15:44.000Z</time>
      </trkpt>
      <trkpt lat="44.52567" lon="6.45578">
        <ele>981.117376</ele>
        <time>2026-07-27T11:15:44.000Z</time>
      </trkpt>
      <trkpt lat="44.52568" lon="6.45582">
        <ele>980.543518</ele>
        <time>2026-07-27T11:15:45.000Z</time>
      </trkpt>
      <trkpt lat="44.52568" lon="6.45582">
        <ele>980.543518</ele>
        <time>2026-07-27T11:15:45.000Z</time>
      </trkpt>
      <trkpt lat="44.5257" lon="6.45587">
        <ele>979.832652</ele>
        <time>2026-07-27T11:15:46.000Z</time>
      </trkpt>
      <trkpt lat="44.5257" lon="6.45587">
        <ele>979.832652</ele>
        <time>2026-07-27T11:15:46.000Z</time>
      </trkpt>
      <trkpt lat="44.52573" lon="6.45591">
        <ele>979.169145</ele>
        <time>2026-07-27T11:15:47.000Z</time>
      </trkpt>
      <trkpt lat="44.52573" lon="6.45591">
        <ele>979.169145</ele>
        <time>2026-07-27T11:15:47.000Z</time>
      </trkpt>
      <trkpt lat="44.52576" lon="6.45593">
        <ele>978.467195</ele>
        <time>2026-07-27T11:15:48.000Z</time>
      </trkpt>
      <trkpt lat="44.52576" lon="6.45593">
        <ele>978.467195</ele>
        <time>2026-07-27T11:15:48.000Z</time>
      </trkpt>
      <trkpt lat="44.5258" lon="6.45595">
        <ele>977.797607</ele>
        <time>2026-07-27T11:15:50.000Z</time>
      </trkpt>
      <trkpt lat="44.5258" lon="6.45595">
        <ele>977.797607</ele>
        <time>2026-07-27T11:15:50.000Z</time>
      </trkpt>
      <trkpt lat="44.52583" lon="6.45596">
        <ele>977.227355</ele>
        <time>2026-07-27T11:15:50.000Z</time>
      </trkpt>
      <trkpt lat="44.52583" lon="6.45596">
        <ele>977.227355</ele>
        <time>2026-07-27T11:15:50.000Z</time>
      </trkpt>
      <trkpt lat="44.52586" lon="6.45597">
        <ele>976.525182</ele>
        <time>2026-07-27T11:15:51.000Z</time>
      </trkpt>
      <trkpt lat="44.52586" lon="6.45597">
        <ele>976.525182</ele>
        <time>2026-07-27T11:15:51.000Z</time>
      </trkpt>
      <trkpt lat="44.5259" lon="6.45597">
        <ele>975.899068</ele>
        <time>2026-07-27T11:15:52.000Z</time>
      </trkpt>
      <trkpt lat="44.5259" lon="6.45597">
        <ele>975.899068</ele>
        <time>2026-07-27T11:15:52.000Z</time>
      </trkpt>
      <trkpt lat="44.52594" lon="6.45598">
        <ele>975.134534</ele>
        <time>2026-07-27T11:15:53.000Z</time>
      </trkpt>
      <trkpt lat="44.52594" lon="6.45598">
        <ele>975.134534</ele>
        <time>2026-07-27T11:15:53.000Z</time>
      </trkpt>
      <trkpt lat="44.52597" lon="6.45598">
        <ele>974.51218</ele>
        <time>2026-07-27T11:15:54.000Z</time>
      </trkpt>
      <trkpt lat="44.52597" lon="6.45598">
        <ele>974.51218</ele>
        <time>2026-07-27T11:15:54.000Z</time>
      </trkpt>
      <trkpt lat="44.52601" lon="6.456">
        <ele>973.860771</ele>
        <time>2026-07-27T11:15:55.000Z</time>
      </trkpt>
      <trkpt lat="44.52601" lon="6.456">
        <ele>973.860771</ele>
        <time>2026-07-27T11:15:55.000Z</time>
      </trkpt>
      <trkpt lat="44.52604" lon="6.45601">
        <ele>973.213461</ele>
        <time>2026-07-27T11:15:56.000Z</time>
      </trkpt>
      <trkpt lat="44.52604" lon="6.45601">
        <ele>973.213461</ele>
        <time>2026-07-27T11:15:56.000Z</time>
      </trkpt>
      <trkpt lat="44.52608" lon="6.45602">
        <ele>972.585075</ele>
        <time>2026-07-27T11:15:57.000Z</time>
      </trkpt>
      <trkpt lat="44.52608" lon="6.45602">
        <ele>972.585075</ele>
        <time>2026-07-27T11:15:57.000Z</time>
      </trkpt>
      <trkpt lat="44.52608" lon="6.45602">
        <ele>972.585075</ele>
        <time>2026-07-27T11:15:58.000Z</time>
      </trkpt>
      <trkpt lat="44.52608" lon="6.45602">
        <ele>972.585075</ele>
        <time>2026-07-27T11:15:59.000Z</time>
      </trkpt>
      <trkpt lat="44.52613" lon="6.45604">
        <ele>971.507893</ele>
        <time>2026-07-27T11:16:07.000Z</time>
      </trkpt>
      <trkpt lat="44.52613" lon="6.45604">
        <ele>971.507893</ele>
        <time>2026-07-27T11:16:07.000Z</time>
      </trkpt>
      <trkpt lat="44.52617" lon="6.45603">
        <ele>970.846904</ele>
        <time>2026-07-27T11:16:10.000Z</time>
      </trkpt>
      <trkpt lat="44.52617" lon="6.45603">
        <ele>970.846904</ele>
        <time>2026-07-27T11:16:10.000Z</time>
      </trkpt>
      <trkpt lat="44.5262" lon="6.45603">
        <ele>970.374708</ele>
        <time>2026-07-27T11:16:11.000Z</time>
      </trkpt>
      <trkpt lat="44.5262" lon="6.45603">
        <ele>970.374708</ele>
        <time>2026-07-27T11:16:11.000Z</time>
      </trkpt>
      <trkpt lat="44.52622" lon="6.45603">
        <ele>969.883668</ele>
        <time>2026-07-27T11:16:12.000Z</time>
      </trkpt>
      <trkpt lat="44.52622" lon="6.45603">
        <ele>969.883668</ele>
        <time>2026-07-27T11:16:12.000Z</time>
      </trkpt>
      <trkpt lat="44.52625" lon="6.45602">
        <ele>969.308732</ele>
        <time>2026-07-27T11:16:13.000Z</time>
      </trkpt>
      <trkpt lat="44.52625" lon="6.45602">
        <ele>969.308732</ele>
        <time>2026-07-27T11:16:13.000Z</time>
      </trkpt>
      <trkpt lat="44.52629" lon="6.456">
        <ele>968.648727</ele>
        <time>2026-07-27T11:16:14.000Z</time>
      </trkpt>
      <trkpt lat="44.52629" lon="6.456">
        <ele>968.648727</ele>
        <time>2026-07-27T11:16:14.000Z</time>
      </trkpt>
      <trkpt lat="44.52633" lon="6.45598">
        <ele>967.931788</ele>
        <time>2026-07-27T11:16:15.000Z</time>
      </trkpt>
      <trkpt lat="44.52633" lon="6.45598">
        <ele>967.931788</ele>
        <time>2026-07-27T11:16:15.000Z</time>
      </trkpt>
      <trkpt lat="44.52638" lon="6.45596">
        <ele>966.972021</ele>
        <time>2026-07-27T11:16:16.000Z</time>
      </trkpt>
      <trkpt lat="44.52638" lon="6.45596">
        <ele>966.972021</ele>
        <time>2026-07-27T11:16:16.000Z</time>
      </trkpt>
      <trkpt lat="44.52642" lon="6.45594">
        <ele>966.097385</ele>
        <time>2026-07-27T11:16:17.000Z</time>
      </trkpt>
      <trkpt lat="44.52642" lon="6.45594">
        <ele>966.097385</ele>
        <time>2026-07-27T11:16:17.000Z</time>
      </trkpt>
      <trkpt lat="44.52648" lon="6.45592">
        <ele>965.020204</ele>
        <time>2026-07-27T11:16:18.000Z</time>
      </trkpt>
      <trkpt lat="44.52648" lon="6.45592">
        <ele>965.020204</ele>
        <time>2026-07-27T11:16:18.000Z</time>
      </trkpt>
      <trkpt lat="44.52653" lon="6.45589">
        <ele>964.073255</ele>
        <time>2026-07-27T11:16:19.000Z</time>
      </trkpt>
      <trkpt lat="44.52653" lon="6.45589">
        <ele>964.073255</ele>
        <time>2026-07-27T11:16:19.000Z</time>
      </trkpt>
      <trkpt lat="44.52659" lon="6.45586">
        <ele>962.890468</ele>
        <time>2026-07-27T11:16:20.000Z</time>
      </trkpt>
      <trkpt lat="44.52659" lon="6.45586">
        <ele>962.890468</ele>
        <time>2026-07-27T11:16:20.000Z</time>
      </trkpt>
      <trkpt lat="44.52665" lon="6.45582">
        <ele>961.68348</ele>
        <time>2026-07-27T11:16:21.000Z</time>
      </trkpt>
      <trkpt lat="44.52665" lon="6.45582">
        <ele>961.68348</ele>
        <time>2026-07-27T11:16:21.000Z</time>
      </trkpt>
      <trkpt lat="44.52671" lon="6.45579">
        <ele>960.4143</ele>
        <time>2026-07-27T11:16:22.000Z</time>
      </trkpt>
      <trkpt lat="44.52671" lon="6.45579">
        <ele>960.4143</ele>
        <time>2026-07-27T11:16:22.000Z</time>
      </trkpt>
      <trkpt lat="44.52677" lon="6.45576">
        <ele>959.354628</ele>
        <time>2026-07-27T11:16:23.000Z</time>
      </trkpt>
      <trkpt lat="44.52677" lon="6.45576">
        <ele>959.354628</ele>
        <time>2026-07-27T11:16:23.000Z</time>
      </trkpt>
      <trkpt lat="44.52683" lon="6.45572">
        <ele>958.239594</ele>
        <time>2026-07-27T11:16:24.000Z</time>
      </trkpt>
      <trkpt lat="44.52683" lon="6.45572">
        <ele>958.239594</ele>
        <time>2026-07-27T11:16:24.000Z</time>
      </trkpt>
      <trkpt lat="44.52689" lon="6.45568">
        <ele>956.883654</ele>
        <time>2026-07-27T11:16:25.000Z</time>
      </trkpt>
      <trkpt lat="44.52689" lon="6.45568">
        <ele>956.883654</ele>
        <time>2026-07-27T11:16:25.000Z</time>
      </trkpt>
      <trkpt lat="44.52696" lon="6.45565">
        <ele>955.606407</ele>
        <time>2026-07-27T11:16:26.000Z</time>
      </trkpt>
      <trkpt lat="44.52696" lon="6.45565">
        <ele>955.606407</ele>
        <time>2026-07-27T11:16:26.000Z</time>
      </trkpt>
      <trkpt lat="44.52702" lon="6.45562">
        <ele>954.204452</ele>
        <time>2026-07-27T11:16:27.000Z</time>
      </trkpt>
      <trkpt lat="44.52702" lon="6.45562">
        <ele>954.204452</ele>
        <time>2026-07-27T11:16:27.000Z</time>
      </trkpt>
      <trkpt lat="44.52707" lon="6.4556">
        <ele>952.855511</ele>
        <time>2026-07-27T11:16:28.000Z</time>
      </trkpt>
      <trkpt lat="44.52707" lon="6.4556">
        <ele>952.855511</ele>
        <time>2026-07-27T11:16:28.000Z</time>
      </trkpt>
      <trkpt lat="44.52712" lon="6.45559">
        <ele>951.68468</ele>
        <time>2026-07-27T11:16:29.000Z</time>
      </trkpt>
      <trkpt lat="44.52712" lon="6.45559">
        <ele>951.68468</ele>
        <time>2026-07-27T11:16:29.000Z</time>
      </trkpt>
      <trkpt lat="44.52717" lon="6.45558">
        <ele>950.638101</ele>
        <time>2026-07-27T11:16:30.000Z</time>
      </trkpt>
      <trkpt lat="44.52717" lon="6.45558">
        <ele>950.638101</ele>
        <time>2026-07-27T11:16:30.000Z</time>
      </trkpt>
      <trkpt lat="44.5272" lon="6.45556">
        <ele>949.779789</ele>
        <time>2026-07-27T11:16:31.000Z</time>
      </trkpt>
      <trkpt lat="44.5272" lon="6.45556">
        <ele>949.779789</ele>
        <time>2026-07-27T11:16:31.000Z</time>
      </trkpt>
      <trkpt lat="44.52723" lon="6.45554">
        <ele>949.034952</ele>
        <time>2026-07-27T11:16:32.000Z</time>
      </trkpt>
      <trkpt lat="44.52723" lon="6.45554">
        <ele>949.034952</ele>
        <time>2026-07-27T11:16:32.000Z</time>
      </trkpt>
      <trkpt lat="44.52725" lon="6.45551">
        <ele>948.412221</ele>
        <time>2026-07-27T11:16:33.000Z</time>
      </trkpt>
      <trkpt lat="44.52725" lon="6.45551">
        <ele>948.412221</ele>
        <time>2026-07-27T11:16:33.000Z</time>
      </trkpt>
      <trkpt lat="44.52726" lon="6.45549">
        <ele>947.995562</ele>
        <time>2026-07-27T11:16:33.000Z</time>
      </trkpt>
      <trkpt lat="44.52728" lon="6.45548">
        <ele>947.571415</ele>
        <time>2026-07-27T11:16:35.000Z</time>
      </trkpt>
      <trkpt lat="44.52729" lon="6.45547">
        <ele>947.219862</ele>
        <time>2026-07-27T11:16:36.000Z</time>
      </trkpt>
      <trkpt lat="44.52731" lon="6.45547">
        <ele>946.688016</ele>
        <time>2026-07-27T11:16:37.000Z</time>
      </trkpt>
      <trkpt lat="44.52734" lon="6.45547">
        <ele>946.06549</ele>
        <time>2026-07-27T11:16:38.000Z</time>
      </trkpt>
      <trkpt lat="44.52736" lon="6.45547">
        <ele>945.534911</ele>
        <time>2026-07-27T11:16:39.000Z</time>
      </trkpt>
      <trkpt lat="44.52739" lon="6.45546">
        <ele>944.930676</ele>
        <time>2026-07-27T11:16:40.000Z</time>
      </trkpt>
      <trkpt lat="44.52742" lon="6.45546">
        <ele>944.30815</ele>
        <time>2026-07-27T11:16:41.000Z</time>
      </trkpt>
      <trkpt lat="44.52745" lon="6.45547">
        <ele>943.496299</ele>
        <time>2026-07-27T11:16:42.000Z</time>
      </trkpt>
      <trkpt lat="44.52745" lon="6.45547">
        <ele>943.496299</ele>
        <time>2026-07-27T11:16:42.000Z</time>
      </trkpt>
      <trkpt lat="44.52749" lon="6.45548">
        <ele>942.595725</ele>
        <time>2026-07-27T11:16:43.000Z</time>
      </trkpt>
      <trkpt lat="44.52749" lon="6.45548">
        <ele>942.595725</ele>
        <time>2026-07-27T11:16:43.000Z</time>
      </trkpt>
      <trkpt lat="44.52752" lon="6.4555">
        <ele>941.775087</ele>
        <time>2026-07-27T11:16:44.000Z</time>
      </trkpt>
      <trkpt lat="44.52752" lon="6.4555">
        <ele>941.775087</ele>
        <time>2026-07-27T11:16:44.000Z</time>
      </trkpt>
      <trkpt lat="44.52756" lon="6.45552">
        <ele>940.898721</ele>
        <time>2026-07-27T11:16:45.000Z</time>
      </trkpt>
      <trkpt lat="44.52756" lon="6.45552">
        <ele>940.898721</ele>
        <time>2026-07-27T11:16:45.000Z</time>
      </trkpt>
      <trkpt lat="44.52758" lon="6.45554">
        <ele>940.195704</ele>
        <time>2026-07-27T11:16:46.000Z</time>
      </trkpt>
      <trkpt lat="44.52758" lon="6.45554">
        <ele>940.195704</ele>
        <time>2026-07-27T11:16:46.000Z</time>
      </trkpt>
      <trkpt lat="44.52762" lon="6.45556">
        <ele>939.403069</ele>
        <time>2026-07-27T11:16:47.000Z</time>
      </trkpt>
      <trkpt lat="44.52762" lon="6.45556">
        <ele>939.403069</ele>
        <time>2026-07-27T11:16:47.000Z</time>
      </trkpt>
      <trkpt lat="44.52764" lon="6.45558">
        <ele>938.79666</ele>
        <time>2026-07-27T11:16:48.000Z</time>
      </trkpt>
      <trkpt lat="44.52764" lon="6.45558">
        <ele>938.79666</ele>
        <time>2026-07-27T11:16:48.000Z</time>
      </trkpt>
      <trkpt lat="44.52766" lon="6.4556">
        <ele>938.218815</ele>
        <time>2026-07-27T11:16:49.000Z</time>
      </trkpt>
      <trkpt lat="44.52766" lon="6.4556">
        <ele>938.218815</ele>
        <time>2026-07-27T11:16:49.000Z</time>
      </trkpt>
      <trkpt lat="44.52768" lon="6.45563">
        <ele>937.57712</ele>
        <time>2026-07-27T11:16:50.000Z</time>
      </trkpt>
      <trkpt lat="44.52768" lon="6.45563">
        <ele>937.57712</ele>
        <time>2026-07-27T11:16:50.000Z</time>
      </trkpt>
      <trkpt lat="44.5277" lon="6.45565">
        <ele>936.960317</ele>
        <time>2026-07-27T11:16:51.000Z</time>
      </trkpt>
      <trkpt lat="44.5277" lon="6.45565">
        <ele>936.960317</ele>
        <time>2026-07-27T11:16:51.000Z</time>
      </trkpt>
      <trkpt lat="44.52771" lon="6.45568">
        <ele>936.317909</ele>
        <time>2026-07-27T11:16:52.000Z</time>
      </trkpt>
      <trkpt lat="44.52771" lon="6.45568">
        <ele>936.317909</ele>
        <time>2026-07-27T11:16:52.000Z</time>
      </trkpt>
      <trkpt lat="44.52773" lon="6.45572">
        <ele>935.719948</ele>
        <time>2026-07-27T11:16:52.000Z</time>
      </trkpt>
      <trkpt lat="44.52773" lon="6.45572">
        <ele>935.719948</ele>
        <time>2026-07-27T11:16:52.000Z</time>
      </trkpt>
      <trkpt lat="44.52774" lon="6.45574">
        <ele>935.265259</ele>
        <time>2026-07-27T11:16:54.000Z</time>
      </trkpt>
      <trkpt lat="44.52774" lon="6.45574">
        <ele>935.265259</ele>
        <time>2026-07-27T11:16:54.000Z</time>
      </trkpt>
      <trkpt lat="44.52775" lon="6.45577">
        <ele>934.690357</ele>
        <time>2026-07-27T11:16:55.000Z</time>
      </trkpt>
      <trkpt lat="44.52775" lon="6.45577">
        <ele>934.690357</ele>
        <time>2026-07-27T11:16:55.000Z</time>
      </trkpt>
      <trkpt lat="44.52777" lon="6.45579">
        <ele>934.141345</ele>
        <time>2026-07-27T11:16:55.000Z</time>
      </trkpt>
      <trkpt lat="44.52777" lon="6.45579">
        <ele>934.141345</ele>
        <time>2026-07-27T11:16:55.000Z</time>
      </trkpt>
      <trkpt lat="44.52778" lon="6.45581">
        <ele>933.676004</ele>
        <time>2026-07-27T11:16:56.000Z</time>
      </trkpt>
      <trkpt lat="44.52778" lon="6.45581">
        <ele>933.676004</ele>
        <time>2026-07-27T11:16:56.000Z</time>
      </trkpt>
      <trkpt lat="44.5278" lon="6.45581">
        <ele>933.298581</ele>
        <time>2026-07-27T11:16:58.000Z</time>
      </trkpt>
      <trkpt lat="44.5278" lon="6.45581">
        <ele>933.298581</ele>
        <time>2026-07-27T11:16:58.000Z</time>
      </trkpt>
      <trkpt lat="44.52781" lon="6.45579">
        <ele>933.017895</ele>
        <time>2026-07-27T11:16:58.000Z</time>
      </trkpt>
      <trkpt lat="44.52782" lon="6.45578">
        <ele>932.625208</ele>
        <time>2026-07-27T11:17:00.000Z</time>
      </trkpt>
      <trkpt lat="44.52783" lon="6.45575">
        <ele>932.101309</ele>
        <time>2026-07-27T11:17:01.000Z</time>
      </trkpt>
      <trkpt lat="44.52783" lon="6.45575">
        <ele>932.101309</ele>
        <time>2026-07-27T11:17:01.000Z</time>
      </trkpt>
      <trkpt lat="44.52786" lon="6.45573">
        <ele>931.382376</ele>
        <time>2026-07-27T11:17:02.000Z</time>
      </trkpt>
      <trkpt lat="44.52786" lon="6.45573">
        <ele>931.382376</ele>
        <time>2026-07-27T11:17:02.000Z</time>
      </trkpt>
      <trkpt lat="44.52789" lon="6.45571">
        <ele>930.674638</ele>
        <time>2026-07-27T11:17:03.000Z</time>
      </trkpt>
      <trkpt lat="44.52789" lon="6.45571">
        <ele>930.674638</ele>
        <time>2026-07-27T11:17:03.000Z</time>
      </trkpt>
      <trkpt lat="44.52791" lon="6.45569">
        <ele>930.090637</ele>
        <time>2026-07-27T11:17:04.000Z</time>
      </trkpt>
      <trkpt lat="44.52791" lon="6.45569">
        <ele>930.090637</ele>
        <time>2026-07-27T11:17:04.000Z</time>
      </trkpt>
      <trkpt lat="44.52793" lon="6.45568">
        <ele>929.540855</ele>
        <time>2026-07-27T11:17:05.000Z</time>
      </trkpt>
      <trkpt lat="44.52793" lon="6.45568">
        <ele>929.540855</ele>
        <time>2026-07-27T11:17:05.000Z</time>
      </trkpt>
      <trkpt lat="44.52796" lon="6.45569">
        <ele>928.908666</ele>
        <time>2026-07-27T11:17:06.000Z</time>
      </trkpt>
      <trkpt lat="44.52796" lon="6.45569">
        <ele>928.908666</ele>
        <time>2026-07-27T11:17:06.000Z</time>
      </trkpt>
      <trkpt lat="44.52798" lon="6.45571">
        <ele>928.302258</ele>
        <time>2026-07-27T11:17:07.000Z</time>
      </trkpt>
      <trkpt lat="44.52798" lon="6.45571">
        <ele>928.302258</ele>
        <time>2026-07-27T11:17:07.000Z</time>
      </trkpt>
      <trkpt lat="44.528" lon="6.45574">
        <ele>927.601067</ele>
        <time>2026-07-27T11:17:08.000Z</time>
      </trkpt>
      <trkpt lat="44.528" lon="6.45574">
        <ele>927.601067</ele>
        <time>2026-07-27T11:17:08.000Z</time>
      </trkpt>
      <trkpt lat="44.52803" lon="6.45577">
        <ele>926.7483</ele>
        <time>2026-07-27T11:17:09.000Z</time>
      </trkpt>
      <trkpt lat="44.52803" lon="6.45577">
        <ele>926.7483</ele>
        <time>2026-07-27T11:17:09.000Z</time>
      </trkpt>
      <trkpt lat="44.52804" lon="6.45582">
        <ele>926.005595</ele>
        <time>2026-07-27T11:17:10.000Z</time>
      </trkpt>
      <trkpt lat="44.52804" lon="6.45582">
        <ele>926.005595</ele>
        <time>2026-07-27T11:17:10.000Z</time>
      </trkpt>
      <trkpt lat="44.52806" lon="6.45586">
        <ele>925.190199</ele>
        <time>2026-07-27T11:17:11.000Z</time>
      </trkpt>
      <trkpt lat="44.52806" lon="6.45586">
        <ele>925.190199</ele>
        <time>2026-07-27T11:17:11.000Z</time>
      </trkpt>
      <trkpt lat="44.52807" lon="6.4559">
        <ele>924.419128</ele>
        <time>2026-07-27T11:17:12.000Z</time>
      </trkpt>
      <trkpt lat="44.52807" lon="6.4559">
        <ele>924.419128</ele>
        <time>2026-07-27T11:17:12.000Z</time>
      </trkpt>
      <trkpt lat="44.5281" lon="6.45593">
        <ele>923.749181</ele>
        <time>2026-07-27T11:17:13.000Z</time>
      </trkpt>
      <trkpt lat="44.5281" lon="6.45593">
        <ele>923.749181</ele>
        <time>2026-07-27T11:17:13.000Z</time>
      </trkpt>
      <trkpt lat="44.5281" lon="6.45593">
        <ele>923.749181</ele>
        <time>2026-07-27T11:17:14.000Z</time>
      </trkpt>
      <trkpt lat="44.5281" lon="6.45593">
        <ele>923.749181</ele>
        <time>2026-07-27T11:17:15.000Z</time>
      </trkpt>
      <trkpt lat="44.5281" lon="6.45593">
        <ele>923.749181</ele>
        <time>2026-07-27T11:17:18.000Z</time>
      </trkpt>
      <trkpt lat="44.5281" lon="6.45593">
        <ele>923.749181</ele>
        <time>2026-07-27T11:17:59.000Z</time>
      </trkpt>
      <trkpt lat="44.52813" lon="6.45595">
        <ele>922.775717</ele>
        <time>2026-07-27T11:17:59.000Z</time>
      </trkpt>
      <trkpt lat="44.52816" lon="6.45594">
        <ele>922.087418</ele>
        <time>2026-07-27T11:18:03.000Z</time>
      </trkpt>
      <trkpt lat="44.52816" lon="6.45594">
        <ele>922.087418</ele>
        <time>2026-07-27T11:18:03.000Z</time>
      </trkpt>
      <trkpt lat="44.52818" lon="6.4559">
        <ele>921.312064</ele>
        <time>2026-07-27T11:18:03.000Z</time>
      </trkpt>
      <trkpt lat="44.5282" lon="6.45584">
        <ele>920.279549</ele>
        <time>2026-07-27T11:18:05.000Z</time>
      </trkpt>
      <trkpt lat="44.52823" lon="6.45578">
        <ele>919.190151</ele>
        <time>2026-07-27T11:18:05.000Z</time>
      </trkpt>
      <trkpt lat="44.52823" lon="6.45578">
        <ele>919.190151</ele>
        <time>2026-07-27T11:18:05.000Z</time>
      </trkpt>
      <trkpt lat="44.52824" lon="6.45573">
        <ele>918.201706</ele>
        <time>2026-07-27T11:18:07.000Z</time>
      </trkpt>
      <trkpt lat="44.52826" lon="6.45568">
        <ele>917.257167</ele>
        <time>2026-07-27T11:18:08.000Z</time>
      </trkpt>
      <trkpt lat="44.52828" lon="6.45562">
        <ele>916.182479</ele>
        <time>2026-07-27T11:18:08.000Z</time>
      </trkpt>
      <trkpt lat="44.5283" lon="6.45556">
        <ele>915.12165</ele>
        <time>2026-07-27T11:18:10.000Z</time>
      </trkpt>
      <trkpt lat="44.5283" lon="6.45556">
        <ele>915.12165</ele>
        <time>2026-07-27T11:18:10.000Z</time>
      </trkpt>
      <trkpt lat="44.52832" lon="6.45552">
        <ele>914.332973</ele>
        <time>2026-07-27T11:18:11.000Z</time>
      </trkpt>
      <trkpt lat="44.52834" lon="6.4555">
        <ele>913.951675</ele>
        <time>2026-07-27T11:18:12.000Z</time>
      </trkpt>
      <trkpt lat="44.52834" lon="6.4555">
        <ele>913.951675</ele>
        <time>2026-07-27T11:18:12.000Z</time>
      </trkpt>
      <trkpt lat="44.52836" lon="6.4555">
        <ele>913.570715</ele>
        <time>2026-07-27T11:18:13.000Z</time>
      </trkpt>
      <trkpt lat="44.52837" lon="6.4555">
        <ele>913.209525</ele>
        <time>2026-07-27T11:18:14.000Z</time>
      </trkpt>
      <trkpt lat="44.52837" lon="6.4555">
        <ele>913.209525</ele>
        <time>2026-07-27T11:18:14.000Z</time>
      </trkpt>
      <trkpt lat="44.52839" lon="6.45551">
        <ele>912.960515</ele>
        <time>2026-07-27T11:18:15.000Z</time>
      </trkpt>
      <trkpt lat="44.5284" lon="6.45551">
        <ele>912.583669</ele>
        <time>2026-07-27T11:18:16.000Z</time>
      </trkpt>
      <trkpt lat="44.5284" lon="6.45551">
        <ele>912.583669</ele>
        <time>2026-07-27T11:18:16.000Z</time>
      </trkpt>
      <trkpt lat="44.5284" lon="6.45551">
        <ele>912.583669</ele>
        <time>2026-07-27T11:18:17.000Z</time>
      </trkpt>
      <trkpt lat="44.52844" lon="6.45553">
        <ele>911.935472</ele>
        <time>2026-07-27T11:18:18.000Z</time>
      </trkpt>
      <trkpt lat="44.52844" lon="6.45553">
        <ele>911.935472</ele>
        <time>2026-07-27T11:18:18.000Z</time>
      </trkpt>
      <trkpt lat="44.52844" lon="6.45554">
        <ele>911.772163</ele>
        <time>2026-07-27T11:18:19.000Z</time>
      </trkpt>
      <trkpt lat="44.52844" lon="6.45554">
        <ele>911.772163</ele>
        <time>2026-07-27T11:18:19.000Z</time>
      </trkpt>
      <trkpt lat="44.52846" lon="6.45555">
        <ele>911.460766</ele>
        <time>2026-07-27T11:18:20.000Z</time>
      </trkpt>
      <trkpt lat="44.52846" lon="6.45555">
        <ele>911.460766</ele>
        <time>2026-07-27T11:18:20.000Z</time>
      </trkpt>
      <trkpt lat="44.52847" lon="6.45555">
        <ele>911.172935</ele>
        <time>2026-07-27T11:18:21.000Z</time>
      </trkpt>
      <trkpt lat="44.52847" lon="6.45555">
        <ele>911.172935</ele>
        <time>2026-07-27T11:18:21.000Z</time>
      </trkpt>
      <trkpt lat="44.52849" lon="6.45555">
        <ele>910.886701</ele>
        <time>2026-07-27T11:18:22.000Z</time>
      </trkpt>
      <trkpt lat="44.52849" lon="6.45555">
        <ele>910.886701</ele>
        <time>2026-07-27T11:18:22.000Z</time>
      </trkpt>
      <trkpt lat="44.52849" lon="6.45555">
        <ele>910.886701</ele>
        <time>2026-07-27T11:18:23.000Z</time>
      </trkpt>
      <trkpt lat="44.52853" lon="6.45555">
        <ele>910.087809</ele>
        <time>2026-07-27T11:18:24.000Z</time>
      </trkpt>
      <trkpt lat="44.52853" lon="6.45555">
        <ele>910.087809</ele>
        <time>2026-07-27T11:18:24.000Z</time>
      </trkpt>
      <trkpt lat="44.52855" lon="6.45555">
        <ele>909.726873</ele>
        <time>2026-07-27T11:18:25.000Z</time>
      </trkpt>
      <trkpt lat="44.52855" lon="6.45555">
        <ele>909.726873</ele>
        <time>2026-07-27T11:18:25.000Z</time>
      </trkpt>
      <trkpt lat="44.52856" lon="6.45556">
        <ele>909.495322</ele>
        <time>2026-07-27T11:18:26.000Z</time>
      </trkpt>
      <trkpt lat="44.52856" lon="6.45556">
        <ele>909.495322</ele>
        <time>2026-07-27T11:18:26.000Z</time>
      </trkpt>
      <trkpt lat="44.52859" lon="6.45556">
        <ele>908.999741</ele>
        <time>2026-07-27T11:18:27.000Z</time>
      </trkpt>
      <trkpt lat="44.52859" lon="6.45556">
        <ele>908.999741</ele>
        <time>2026-07-27T11:18:27.000Z</time>
      </trkpt>
      <trkpt lat="44.52861" lon="6.45557">
        <ele>908.629772</ele>
        <time>2026-07-27T11:18:28.000Z</time>
      </trkpt>
      <trkpt lat="44.52861" lon="6.45557">
        <ele>908.629772</ele>
        <time>2026-07-27T11:18:28.000Z</time>
      </trkpt>
      <trkpt lat="44.52862" lon="6.45558">
        <ele>908.302298</ele>
        <time>2026-07-27T11:18:29.000Z</time>
      </trkpt>
      <trkpt lat="44.52862" lon="6.45558">
        <ele>908.302298</ele>
        <time>2026-07-27T11:18:29.000Z</time>
      </trkpt>
      <trkpt lat="44.52862" lon="6.45558">
        <ele>908.302298</ele>
        <time>2026-07-27T11:18:30.000Z</time>
      </trkpt>
      <trkpt lat="44.52866" lon="6.45559">
        <ele>907.632849</ele>
        <time>2026-07-27T11:18:31.000Z</time>
      </trkpt>
      <trkpt lat="44.52866" lon="6.45559">
        <ele>907.632849</ele>
        <time>2026-07-27T11:18:31.000Z</time>
      </trkpt>
      <trkpt lat="44.52866" lon="6.45559">
        <ele>907.632849</ele>
        <time>2026-07-27T11:18:32.000Z</time>
      </trkpt>
      <trkpt lat="44.52868" lon="6.45561">
        <ele>907.064959</ele>
        <time>2026-07-27T11:18:33.000Z</time>
      </trkpt>
      <trkpt lat="44.52868" lon="6.45561">
        <ele>907.064959</ele>
        <time>2026-07-27T11:18:33.000Z</time>
      </trkpt>
      <trkpt lat="44.5287" lon="6.45562">
        <ele>906.663375</ele>
        <time>2026-07-27T11:18:34.000Z</time>
      </trkpt>
      <trkpt lat="44.5287" lon="6.45562">
        <ele>906.663375</ele>
        <time>2026-07-27T11:18:34.000Z</time>
      </trkpt>
      <trkpt lat="44.52873" lon="6.45563">
        <ele>906.181537</ele>
        <time>2026-07-27T11:18:35.000Z</time>
      </trkpt>
      <trkpt lat="44.52873" lon="6.45563">
        <ele>906.181537</ele>
        <time>2026-07-27T11:18:35.000Z</time>
      </trkpt>
      <trkpt lat="44.52875" lon="6.45565">
        <ele>905.710479</ele>
        <time>2026-07-27T11:18:36.000Z</time>
      </trkpt>
      <trkpt lat="44.52875" lon="6.45565">
        <ele>905.710479</ele>
        <time>2026-07-27T11:18:36.000Z</time>
      </trkpt>
      <trkpt lat="44.52879" lon="6.45566">
        <ele>904.97054</ele>
        <time>2026-07-27T11:18:37.000Z</time>
      </trkpt>
      <trkpt lat="44.52879" lon="6.45566">
        <ele>904.97054</ele>
        <time>2026-07-27T11:18:37.000Z</time>
      </trkpt>
      <trkpt lat="44.52881" lon="6.45567">
        <ele>904.504374</ele>
        <time>2026-07-27T11:18:38.000Z</time>
      </trkpt>
      <trkpt lat="44.52881" lon="6.45567">
        <ele>904.504374</ele>
        <time>2026-07-27T11:18:38.000Z</time>
      </trkpt>
      <trkpt lat="44.52885" lon="6.45569">
        <ele>903.758019</ele>
        <time>2026-07-27T11:18:39.000Z</time>
      </trkpt>
      <trkpt lat="44.52885" lon="6.45569">
        <ele>903.758019</ele>
        <time>2026-07-27T11:18:39.000Z</time>
      </trkpt>
      <trkpt lat="44.52888" lon="6.4557">
        <ele>903.161546</ele>
        <time>2026-07-27T11:18:40.000Z</time>
      </trkpt>
      <trkpt lat="44.52888" lon="6.4557">
        <ele>903.161546</ele>
        <time>2026-07-27T11:18:40.000Z</time>
      </trkpt>
      <trkpt lat="44.52891" lon="6.45571">
        <ele>902.565069</ele>
        <time>2026-07-27T11:18:41.000Z</time>
      </trkpt>
      <trkpt lat="44.52891" lon="6.45571">
        <ele>902.565069</ele>
        <time>2026-07-27T11:18:41.000Z</time>
      </trkpt>
      <trkpt lat="44.52894" lon="6.45572">
        <ele>901.887992</ele>
        <time>2026-07-27T11:18:42.000Z</time>
      </trkpt>
      <trkpt lat="44.52894" lon="6.45572">
        <ele>901.887992</ele>
        <time>2026-07-27T11:18:42.000Z</time>
      </trkpt>
      <trkpt lat="44.52897" lon="6.45574">
        <ele>901.331192</ele>
        <time>2026-07-27T11:18:43.000Z</time>
      </trkpt>
      <trkpt lat="44.52897" lon="6.45574">
        <ele>901.331192</ele>
        <time>2026-07-27T11:18:43.000Z</time>
      </trkpt>
      <trkpt lat="44.529" lon="6.45575">
        <ele>900.779521</ele>
        <time>2026-07-27T11:18:44.000Z</time>
      </trkpt>
      <trkpt lat="44.529" lon="6.45575">
        <ele>900.779521</ele>
        <time>2026-07-27T11:18:44.000Z</time>
      </trkpt>
      <trkpt lat="44.52902" lon="6.45577">
        <ele>900.222603</ele>
        <time>2026-07-27T11:18:45.000Z</time>
      </trkpt>
      <trkpt lat="44.52902" lon="6.45577">
        <ele>900.222603</ele>
        <time>2026-07-27T11:18:45.000Z</time>
      </trkpt>
      <trkpt lat="44.52905" lon="6.45578">
        <ele>899.768999</ele>
        <time>2026-07-27T11:18:46.000Z</time>
      </trkpt>
      <trkpt lat="44.52905" lon="6.45578">
        <ele>899.768999</ele>
        <time>2026-07-27T11:18:46.000Z</time>
      </trkpt>
      <trkpt lat="44.52906" lon="6.45578">
        <ele>899.483728</ele>
        <time>2026-07-27T11:18:47.000Z</time>
      </trkpt>
      <trkpt lat="44.52908" lon="6.45577">
        <ele>899.041589</ele>
        <time>2026-07-27T11:18:53.000Z</time>
      </trkpt>
      <trkpt lat="44.52913" lon="6.45577">
        <ele>898.243731</ele>
        <time>2026-07-27T11:18:58.000Z</time>
      </trkpt>
      <trkpt lat="44.52914" lon="6.45577">
        <ele>897.881781</ele>
        <time>2026-07-27T11:18:59.000Z</time>
      </trkpt>
      <trkpt lat="44.52916" lon="6.45577">
        <ele>897.570383</ele>
        <time>2026-07-27T11:19:00.000Z</time>
      </trkpt>
      <trkpt lat="44.52919" lon="6.45575">
        <ele>896.973911</ele>
        <time>2026-07-27T11:19:17.000Z</time>
      </trkpt>
      <trkpt lat="44.52922" lon="6.45575">
        <ele>896.38486</ele>
        <time>2026-07-27T11:19:18.000Z</time>
      </trkpt>
      <trkpt lat="44.52924" lon="6.45574">
        <ele>895.94554</ele>
        <time>2026-07-27T11:19:19.000Z</time>
      </trkpt>
      <trkpt lat="44.52927" lon="6.45574">
        <ele>895.506733</ele>
        <time>2026-07-27T11:19:20.000Z</time>
      </trkpt>
      <trkpt lat="44.52929" lon="6.45574">
        <ele>895.145543</ele>
        <time>2026-07-27T11:19:21.000Z</time>
      </trkpt>
      <trkpt lat="44.52931" lon="6.45574">
        <ele>894.763444</ele>
        <time>2026-07-27T11:19:22.000Z</time>
      </trkpt>
      <trkpt lat="44.52932" lon="6.45575">
        <ele>894.396212</ele>
        <time>2026-07-27T11:19:23.000Z</time>
      </trkpt>
      <trkpt lat="44.52934" lon="6.45575">
        <ele>894.103328</ele>
        <time>2026-07-27T11:19:24.000Z</time>
      </trkpt>
      <trkpt lat="44.52935" lon="6.45575">
        <ele>893.815497</ele>
        <time>2026-07-27T11:19:25.000Z</time>
      </trkpt>
      <trkpt lat="44.52937" lon="6.45576">
        <ele>893.529263</ele>
        <time>2026-07-27T11:19:26.000Z</time>
      </trkpt>
      <trkpt lat="44.52939" lon="6.45575">
        <ele>893.167312</ele>
        <time>2026-07-27T11:19:27.000Z</time>
      </trkpt>
      <trkpt lat="44.52941" lon="6.45576">
        <ele>892.729551</ele>
        <time>2026-07-27T11:19:28.000Z</time>
      </trkpt>
      <trkpt lat="44.52943" lon="6.45576">
        <ele>892.289284</ele>
        <time>2026-07-27T11:19:29.000Z</time>
      </trkpt>
      <trkpt lat="44.52948" lon="6.45576">
        <ele>891.490966</ele>
        <time>2026-07-27T11:19:30.000Z</time>
      </trkpt>
      <trkpt lat="44.52953" lon="6.45577">
        <ele>890.527333</ele>
        <time>2026-07-27T11:19:31.000Z</time>
      </trkpt>
      <trkpt lat="44.52953" lon="6.45577">
        <ele>890.527333</ele>
        <time>2026-07-27T11:19:31.000Z</time>
      </trkpt>
      <trkpt lat="44.52958" lon="6.45578">
        <ele>889.594923</ele>
        <time>2026-07-27T11:19:32.000Z</time>
      </trkpt>
      <trkpt lat="44.52958" lon="6.45578">
        <ele>889.594923</ele>
        <time>2026-07-27T11:19:32.000Z</time>
      </trkpt>
      <trkpt lat="44.52963" lon="6.45578">
        <ele>888.569016</ele>
        <time>2026-07-27T11:19:33.000Z</time>
      </trkpt>
      <trkpt lat="44.52963" lon="6.45578">
        <ele>888.569016</ele>
        <time>2026-07-27T11:19:33.000Z</time>
      </trkpt>
      <trkpt lat="44.52968" lon="6.45577">
        <ele>887.559921</ele>
        <time>2026-07-27T11:19:34.000Z</time>
      </trkpt>
      <trkpt lat="44.52968" lon="6.45577">
        <ele>887.559921</ele>
        <time>2026-07-27T11:19:34.000Z</time>
      </trkpt>
      <trkpt lat="44.52974" lon="6.45576">
        <ele>886.526888</ele>
        <time>2026-07-27T11:19:35.000Z</time>
      </trkpt>
      <trkpt lat="44.52974" lon="6.45576">
        <ele>886.526888</ele>
        <time>2026-07-27T11:19:35.000Z</time>
      </trkpt>
      <trkpt lat="44.52979" lon="6.45575">
        <ele>885.431953</ele>
        <time>2026-07-27T11:19:36.000Z</time>
      </trkpt>
      <trkpt lat="44.52979" lon="6.45575">
        <ele>885.431953</ele>
        <time>2026-07-27T11:19:36.000Z</time>
      </trkpt>
      <trkpt lat="44.52985" lon="6.45574">
        <ele>884.332672</ele>
        <time>2026-07-27T11:19:37.000Z</time>
      </trkpt>
      <trkpt lat="44.52985" lon="6.45574">
        <ele>884.332672</ele>
        <time>2026-07-27T11:19:37.000Z</time>
      </trkpt>
      <trkpt lat="44.5299" lon="6.45573">
        <ele>883.314891</ele>
        <time>2026-07-27T11:19:38.000Z</time>
      </trkpt>
      <trkpt lat="44.5299" lon="6.45573">
        <ele>883.314891</ele>
        <time>2026-07-27T11:19:38.000Z</time>
      </trkpt>
      <trkpt lat="44.52996" lon="6.45572">
        <ele>882.204795</ele>
        <time>2026-07-27T11:19:39.000Z</time>
      </trkpt>
      <trkpt lat="44.52996" lon="6.45572">
        <ele>882.204795</ele>
        <time>2026-07-27T11:19:39.000Z</time>
      </trkpt>
      <trkpt lat="44.53001" lon="6.45571">
        <ele>881.1947</ele>
        <time>2026-07-27T11:19:40.000Z</time>
      </trkpt>
      <trkpt lat="44.53001" lon="6.45571">
        <ele>881.1947</ele>
        <time>2026-07-27T11:19:40.000Z</time>
      </trkpt>
      <trkpt lat="44.53006" lon="6.45571">
        <ele>880.243326</ele>
        <time>2026-07-27T11:19:41.000Z</time>
      </trkpt>
      <trkpt lat="44.53006" lon="6.45571">
        <ele>880.243326</ele>
        <time>2026-07-27T11:19:41.000Z</time>
      </trkpt>
      <trkpt lat="44.53012" lon="6.45573">
        <ele>879.547038</ele>
        <time>2026-07-27T11:19:42.000Z</time>
      </trkpt>
      <trkpt lat="44.53012" lon="6.45573">
        <ele>879.547038</ele>
        <time>2026-07-27T11:19:42.000Z</time>
      </trkpt>
      <trkpt lat="44.53016" lon="6.45575">
        <ele>878.940764</ele>
        <time>2026-07-27T11:19:43.000Z</time>
      </trkpt>
      <trkpt lat="44.53016" lon="6.45575">
        <ele>878.940764</ele>
        <time>2026-07-27T11:19:43.000Z</time>
      </trkpt>
      <trkpt lat="44.53019" lon="6.45579">
        <ele>878.479026</ele>
        <time>2026-07-27T11:19:44.000Z</time>
      </trkpt>
      <trkpt lat="44.53019" lon="6.45579">
        <ele>878.479026</ele>
        <time>2026-07-27T11:19:44.000Z</time>
      </trkpt>
      <trkpt lat="44.53021" lon="6.45584">
        <ele>878.016152</ele>
        <time>2026-07-27T11:19:45.000Z</time>
      </trkpt>
      <trkpt lat="44.53021" lon="6.45584">
        <ele>878.016152</ele>
        <time>2026-07-27T11:19:45.000Z</time>
      </trkpt>
      <trkpt lat="44.53021" lon="6.45588">
        <ele>877.632364</ele>
        <time>2026-07-27T11:19:46.000Z</time>
      </trkpt>
      <trkpt lat="44.53021" lon="6.45588">
        <ele>877.632364</ele>
        <time>2026-07-27T11:19:46.000Z</time>
      </trkpt>
      <trkpt lat="44.5302" lon="6.45592">
        <ele>877.247613</ele>
        <time>2026-07-27T11:19:47.000Z</time>
      </trkpt>
      <trkpt lat="44.5302" lon="6.45592">
        <ele>877.247613</ele>
        <time>2026-07-27T11:19:47.000Z</time>
      </trkpt>
      <trkpt lat="44.53019" lon="6.45597">
        <ele>876.807963</ele>
        <time>2026-07-27T11:19:48.000Z</time>
      </trkpt>
      <trkpt lat="44.53019" lon="6.45597">
        <ele>876.807963</ele>
        <time>2026-07-27T11:19:48.000Z</time>
      </trkpt>
      <trkpt lat="44.53016" lon="6.45602">
        <ele>876.243628</ele>
        <time>2026-07-27T11:19:49.000Z</time>
      </trkpt>
      <trkpt lat="44.53016" lon="6.45602">
        <ele>876.243628</ele>
        <time>2026-07-27T11:19:49.000Z</time>
      </trkpt>
      <trkpt lat="44.53014" lon="6.45608">
        <ele>875.623131</ele>
        <time>2026-07-27T11:19:50.000Z</time>
      </trkpt>
      <trkpt lat="44.53014" lon="6.45608">
        <ele>875.623131</ele>
        <time>2026-07-27T11:19:50.000Z</time>
      </trkpt>
      <trkpt lat="44.53011" lon="6.45615">
        <ele>874.92486</ele>
        <time>2026-07-27T11:19:51.000Z</time>
      </trkpt>
      <trkpt lat="44.53011" lon="6.45615">
        <ele>874.92486</ele>
        <time>2026-07-27T11:19:51.000Z</time>
      </trkpt>
      <trkpt lat="44.53009" lon="6.45623">
        <ele>874.194138</ele>
        <time>2026-07-27T11:19:52.000Z</time>
      </trkpt>
      <trkpt lat="44.53009" lon="6.45623">
        <ele>874.194138</ele>
        <time>2026-07-27T11:19:52.000Z</time>
      </trkpt>
      <trkpt lat="44.53006" lon="6.4563">
        <ele>873.456044</ele>
        <time>2026-07-27T11:19:53.000Z</time>
      </trkpt>
      <trkpt lat="44.53006" lon="6.4563">
        <ele>873.456044</ele>
        <time>2026-07-27T11:19:53.000Z</time>
      </trkpt>
      <trkpt lat="44.53004" lon="6.45638">
        <ele>872.712436</ele>
        <time>2026-07-27T11:19:54.000Z</time>
      </trkpt>
      <trkpt lat="44.53004" lon="6.45638">
        <ele>872.712436</ele>
        <time>2026-07-27T11:19:54.000Z</time>
      </trkpt>
      <trkpt lat="44.53001" lon="6.45645">
        <ele>871.998081</ele>
        <time>2026-07-27T11:19:55.000Z</time>
      </trkpt>
      <trkpt lat="44.53001" lon="6.45645">
        <ele>871.998081</ele>
        <time>2026-07-27T11:19:55.000Z</time>
      </trkpt>
      <trkpt lat="44.52998" lon="6.4565">
        <ele>871.392178</ele>
        <time>2026-07-27T11:19:56.000Z</time>
      </trkpt>
      <trkpt lat="44.52998" lon="6.4565">
        <ele>871.392178</ele>
        <time>2026-07-27T11:19:56.000Z</time>
      </trkpt>
      <trkpt lat="44.52994" lon="6.45656">
        <ele>870.707929</ele>
        <time>2026-07-27T11:19:57.000Z</time>
      </trkpt>
      <trkpt lat="44.52994" lon="6.45656">
        <ele>870.707929</ele>
        <time>2026-07-27T11:19:57.000Z</time>
      </trkpt>
      <trkpt lat="44.5299" lon="6.45662">
        <ele>869.957091</ele>
        <time>2026-07-27T11:19:58.000Z</time>
      </trkpt>
      <trkpt lat="44.5299" lon="6.45662">
        <ele>869.957091</ele>
        <time>2026-07-27T11:19:58.000Z</time>
      </trkpt>
      <trkpt lat="44.52986" lon="6.45669">
        <ele>869.170812</ele>
        <time>2026-07-27T11:19:59.000Z</time>
      </trkpt>
      <trkpt lat="44.52986" lon="6.45669">
        <ele>869.170812</ele>
        <time>2026-07-27T11:19:59.000Z</time>
      </trkpt>
      <trkpt lat="44.52983" lon="6.45677">
        <ele>868.384194</ele>
        <time>2026-07-27T11:20:00.000Z</time>
      </trkpt>
      <trkpt lat="44.52983" lon="6.45677">
        <ele>868.384194</ele>
        <time>2026-07-27T11:20:00.000Z</time>
      </trkpt>
      <trkpt lat="44.5298" lon="6.45684">
        <ele>867.65634</ele>
        <time>2026-07-27T11:20:01.000Z</time>
      </trkpt>
      <trkpt lat="44.5298" lon="6.45684">
        <ele>867.65634</ele>
        <time>2026-07-27T11:20:01.000Z</time>
      </trkpt>
      <trkpt lat="44.52978" lon="6.45691">
        <ele>867.026389</ele>
        <time>2026-07-27T11:20:02.000Z</time>
      </trkpt>
      <trkpt lat="44.52978" lon="6.45691">
        <ele>867.026389</ele>
        <time>2026-07-27T11:20:02.000Z</time>
      </trkpt>
      <trkpt lat="44.52976" lon="6.45698">
        <ele>866.272333</ele>
        <time>2026-07-27T11:20:03.000Z</time>
      </trkpt>
      <trkpt lat="44.52976" lon="6.45698">
        <ele>866.272333</ele>
        <time>2026-07-27T11:20:03.000Z</time>
      </trkpt>
      <trkpt lat="44.52972" lon="6.45707">
        <ele>865.458681</ele>
        <time>2026-07-27T11:20:04.000Z</time>
      </trkpt>
      <trkpt lat="44.52972" lon="6.45707">
        <ele>865.458681</ele>
        <time>2026-07-27T11:20:04.000Z</time>
      </trkpt>
      <trkpt lat="44.5297" lon="6.45714">
        <ele>864.719801</ele>
        <time>2026-07-27T11:20:05.000Z</time>
      </trkpt>
      <trkpt lat="44.5297" lon="6.45714">
        <ele>864.719801</ele>
        <time>2026-07-27T11:20:05.000Z</time>
      </trkpt>
      <trkpt lat="44.52968" lon="6.45723">
        <ele>863.915153</ele>
        <time>2026-07-27T11:20:06.000Z</time>
      </trkpt>
      <trkpt lat="44.52968" lon="6.45723">
        <ele>863.915153</ele>
        <time>2026-07-27T11:20:06.000Z</time>
      </trkpt>
      <trkpt lat="44.52966" lon="6.45731">
        <ele>863.151715</ele>
        <time>2026-07-27T11:20:07.000Z</time>
      </trkpt>
      <trkpt lat="44.52966" lon="6.45731">
        <ele>863.151715</ele>
        <time>2026-07-27T11:20:07.000Z</time>
      </trkpt>
      <trkpt lat="44.52963" lon="6.45739">
        <ele>862.40932</ele>
        <time>2026-07-27T11:20:08.000Z</time>
      </trkpt>
      <trkpt lat="44.52963" lon="6.45739">
        <ele>862.40932</ele>
        <time>2026-07-27T11:20:08.000Z</time>
      </trkpt>
      <trkpt lat="44.52962" lon="6.45746">
        <ele>861.716459</ele>
        <time>2026-07-27T11:20:09.000Z</time>
      </trkpt>
      <trkpt lat="44.52962" lon="6.45746">
        <ele>861.716459</ele>
        <time>2026-07-27T11:20:09.000Z</time>
      </trkpt>
      <trkpt lat="44.5296" lon="6.45755">
        <ele>860.911157</ele>
        <time>2026-07-27T11:20:10.000Z</time>
      </trkpt>
      <trkpt lat="44.5296" lon="6.45755">
        <ele>860.911157</ele>
        <time>2026-07-27T11:20:10.000Z</time>
      </trkpt>
      <trkpt lat="44.52958" lon="6.45764">
        <ele>860.06727</ele>
        <time>2026-07-27T11:20:11.000Z</time>
      </trkpt>
      <trkpt lat="44.52958" lon="6.45764">
        <ele>860.06727</ele>
        <time>2026-07-27T11:20:11.000Z</time>
      </trkpt>
      <trkpt lat="44.52956" lon="6.45773">
        <ele>859.204419</ele>
        <time>2026-07-27T11:20:12.000Z</time>
      </trkpt>
      <trkpt lat="44.52956" lon="6.45773">
        <ele>859.204419</ele>
        <time>2026-07-27T11:20:12.000Z</time>
      </trkpt>
      <trkpt lat="44.52954" lon="6.45781">
        <ele>858.466523</ele>
        <time>2026-07-27T11:20:13.000Z</time>
      </trkpt>
      <trkpt lat="44.52954" lon="6.45781">
        <ele>858.466523</ele>
        <time>2026-07-27T11:20:13.000Z</time>
      </trkpt>
      <trkpt lat="44.52952" lon="6.45789">
        <ele>857.773338</ele>
        <time>2026-07-27T11:20:14.000Z</time>
      </trkpt>
      <trkpt lat="44.52952" lon="6.45789">
        <ele>857.773338</ele>
        <time>2026-07-27T11:20:14.000Z</time>
      </trkpt>
      <trkpt lat="44.5295" lon="6.45797">
        <ele>857.341117</ele>
        <time>2026-07-27T11:20:15.000Z</time>
      </trkpt>
      <trkpt lat="44.5295" lon="6.45797">
        <ele>857.341117</ele>
        <time>2026-07-27T11:20:15.000Z</time>
      </trkpt>
      <trkpt lat="44.52948" lon="6.45804">
        <ele>856.918427</ele>
        <time>2026-07-27T11:20:16.000Z</time>
      </trkpt>
      <trkpt lat="44.52948" lon="6.45804">
        <ele>856.918427</ele>
        <time>2026-07-27T11:20:16.000Z</time>
      </trkpt>
      <trkpt lat="44.52945" lon="6.45812">
        <ele>856.476637</ele>
        <time>2026-07-27T11:20:17.000Z</time>
      </trkpt>
      <trkpt lat="44.52945" lon="6.45812">
        <ele>856.476637</ele>
        <time>2026-07-27T11:20:17.000Z</time>
      </trkpt>
      <trkpt lat="44.52945" lon="6.4582">
        <ele>856.059355</ele>
        <time>2026-07-27T11:20:18.000Z</time>
      </trkpt>
      <trkpt lat="44.52945" lon="6.4582">
        <ele>856.059355</ele>
        <time>2026-07-27T11:20:18.000Z</time>
      </trkpt>
      <trkpt lat="44.52944" lon="6.45829">
        <ele>855.605209</ele>
        <time>2026-07-27T11:20:19.000Z</time>
      </trkpt>
      <trkpt lat="44.52944" lon="6.45829">
        <ele>855.605209</ele>
        <time>2026-07-27T11:20:19.000Z</time>
      </trkpt>
      <trkpt lat="44.52945" lon="6.45839">
        <ele>855.099673</ele>
        <time>2026-07-27T11:20:20.000Z</time>
      </trkpt>
      <trkpt lat="44.52945" lon="6.45839">
        <ele>855.099673</ele>
        <time>2026-07-27T11:20:20.000Z</time>
      </trkpt>
      <trkpt lat="44.52947" lon="6.45847">
        <ele>854.643468</ele>
        <time>2026-07-27T11:20:21.000Z</time>
      </trkpt>
      <trkpt lat="44.52947" lon="6.45847">
        <ele>854.643468</ele>
        <time>2026-07-27T11:20:21.000Z</time>
      </trkpt>
      <trkpt lat="44.5295" lon="6.45856">
        <ele>854.145512</ele>
        <time>2026-07-27T11:20:22.000Z</time>
      </trkpt>
      <trkpt lat="44.5295" lon="6.45856">
        <ele>854.145512</ele>
        <time>2026-07-27T11:20:22.000Z</time>
      </trkpt>
      <trkpt lat="44.52954" lon="6.45865">
        <ele>853.575553</ele>
        <time>2026-07-27T11:20:23.000Z</time>
      </trkpt>
      <trkpt lat="44.52954" lon="6.45865">
        <ele>853.575553</ele>
        <time>2026-07-27T11:20:23.000Z</time>
      </trkpt>
      <trkpt lat="44.52958" lon="6.45873">
        <ele>853.077709</ele>
        <time>2026-07-27T11:20:24.000Z</time>
      </trkpt>
      <trkpt lat="44.52958" lon="6.45873">
        <ele>853.077709</ele>
        <time>2026-07-27T11:20:24.000Z</time>
      </trkpt>
      <trkpt lat="44.52964" lon="6.4588">
        <ele>852.47828</ele>
        <time>2026-07-27T11:20:25.000Z</time>
      </trkpt>
      <trkpt lat="44.52964" lon="6.4588">
        <ele>852.47828</ele>
        <time>2026-07-27T11:20:25.000Z</time>
      </trkpt>
      <trkpt lat="44.52969" lon="6.45886">
        <ele>851.999658</ele>
        <time>2026-07-27T11:20:26.000Z</time>
      </trkpt>
      <trkpt lat="44.52969" lon="6.45886">
        <ele>851.999658</ele>
        <time>2026-07-27T11:20:26.000Z</time>
      </trkpt>
      <trkpt lat="44.52975" lon="6.4589">
        <ele>851.541509</ele>
        <time>2026-07-27T11:20:27.000Z</time>
      </trkpt>
      <trkpt lat="44.52975" lon="6.4589">
        <ele>851.541509</ele>
        <time>2026-07-27T11:20:27.000Z</time>
      </trkpt>
      <trkpt lat="44.5298" lon="6.45895">
        <ele>851.069023</ele>
        <time>2026-07-27T11:20:28.000Z</time>
      </trkpt>
      <trkpt lat="44.5298" lon="6.45895">
        <ele>851.069023</ele>
        <time>2026-07-27T11:20:28.000Z</time>
      </trkpt>
      <trkpt lat="44.52988" lon="6.459">
        <ele>850.481311</ele>
        <time>2026-07-27T11:20:29.000Z</time>
      </trkpt>
      <trkpt lat="44.52988" lon="6.459">
        <ele>850.481311</ele>
        <time>2026-07-27T11:20:29.000Z</time>
      </trkpt>
      <trkpt lat="44.52995" lon="6.45903">
        <ele>849.962054</ele>
        <time>2026-07-27T11:20:30.000Z</time>
      </trkpt>
      <trkpt lat="44.52995" lon="6.45903">
        <ele>849.962054</ele>
        <time>2026-07-27T11:20:30.000Z</time>
      </trkpt>
      <trkpt lat="44.53001" lon="6.45904">
        <ele>849.482796</ele>
        <time>2026-07-27T11:20:31.000Z</time>
      </trkpt>
      <trkpt lat="44.53001" lon="6.45904">
        <ele>849.482796</ele>
        <time>2026-07-27T11:20:31.000Z</time>
      </trkpt>
      <trkpt lat="44.53006" lon="6.45904">
        <ele>849.088964</ele>
        <time>2026-07-27T11:20:32.000Z</time>
      </trkpt>
      <trkpt lat="44.53006" lon="6.45904">
        <ele>849.088964</ele>
        <time>2026-07-27T11:20:32.000Z</time>
      </trkpt>
      <trkpt lat="44.53012" lon="6.45901">
        <ele>848.644994</ele>
        <time>2026-07-27T11:20:33.000Z</time>
      </trkpt>
      <trkpt lat="44.53012" lon="6.45901">
        <ele>848.644994</ele>
        <time>2026-07-27T11:20:33.000Z</time>
      </trkpt>
      <trkpt lat="44.53019" lon="6.45897">
        <ele>848.13158</ele>
        <time>2026-07-27T11:20:34.000Z</time>
      </trkpt>
      <trkpt lat="44.53019" lon="6.45897">
        <ele>848.13158</ele>
        <time>2026-07-27T11:20:34.000Z</time>
      </trkpt>
      <trkpt lat="44.53025" lon="6.45892">
        <ele>847.628629</ele>
        <time>2026-07-27T11:20:35.000Z</time>
      </trkpt>
      <trkpt lat="44.53025" lon="6.45892">
        <ele>847.628629</ele>
        <time>2026-07-27T11:20:35.000Z</time>
      </trkpt>
      <trkpt lat="44.53032" lon="6.45888">
        <ele>847.080374</ele>
        <time>2026-07-27T11:20:36.000Z</time>
      </trkpt>
      <trkpt lat="44.53032" lon="6.45888">
        <ele>847.080374</ele>
        <time>2026-07-27T11:20:36.000Z</time>
      </trkpt>
      <trkpt lat="44.53039" lon="6.45884">
        <ele>846.490941</ele>
        <time>2026-07-27T11:20:37.000Z</time>
      </trkpt>
      <trkpt lat="44.53039" lon="6.45884">
        <ele>846.490941</ele>
        <time>2026-07-27T11:20:37.000Z</time>
      </trkpt>
      <trkpt lat="44.53046" lon="6.45881">
        <ele>845.948338</ele>
        <time>2026-07-27T11:20:38.000Z</time>
      </trkpt>
      <trkpt lat="44.53046" lon="6.45881">
        <ele>845.948338</ele>
        <time>2026-07-27T11:20:38.000Z</time>
      </trkpt>
      <trkpt lat="44.53054" lon="6.45878">
        <ele>845.3456</ele>
        <time>2026-07-27T11:20:39.000Z</time>
      </trkpt>
      <trkpt lat="44.53054" lon="6.45878">
        <ele>845.3456</ele>
        <time>2026-07-27T11:20:39.000Z</time>
      </trkpt>
      <trkpt lat="44.53062" lon="6.45875">
        <ele>844.788609</ele>
        <time>2026-07-27T11:20:40.000Z</time>
      </trkpt>
      <trkpt lat="44.53062" lon="6.45875">
        <ele>844.788609</ele>
        <time>2026-07-27T11:20:40.000Z</time>
      </trkpt>
      <trkpt lat="44.53068" lon="6.4587">
        <ele>843.993672</ele>
        <time>2026-07-27T11:20:41.000Z</time>
      </trkpt>
      <trkpt lat="44.53068" lon="6.4587">
        <ele>843.993672</ele>
        <time>2026-07-27T11:20:41.000Z</time>
      </trkpt>
      <trkpt lat="44.53075" lon="6.45864">
        <ele>843.157721</ele>
        <time>2026-07-27T11:20:42.000Z</time>
      </trkpt>
      <trkpt lat="44.53075" lon="6.45864">
        <ele>843.157721</ele>
        <time>2026-07-27T11:20:42.000Z</time>
      </trkpt>
      <trkpt lat="44.53082" lon="6.45858">
        <ele>842.225483</ele>
        <time>2026-07-27T11:20:43.000Z</time>
      </trkpt>
      <trkpt lat="44.53082" lon="6.45858">
        <ele>842.225483</ele>
        <time>2026-07-27T11:20:43.000Z</time>
      </trkpt>
      <trkpt lat="44.53089" lon="6.45852">
        <ele>841.317939</ele>
        <time>2026-07-27T11:20:44.000Z</time>
      </trkpt>
      <trkpt lat="44.53089" lon="6.45852">
        <ele>841.317939</ele>
        <time>2026-07-27T11:20:44.000Z</time>
      </trkpt>
      <trkpt lat="44.53095" lon="6.45845">
        <ele>840.437095</ele>
        <time>2026-07-27T11:20:45.000Z</time>
      </trkpt>
      <trkpt lat="44.53095" lon="6.45845">
        <ele>840.437095</ele>
        <time>2026-07-27T11:20:45.000Z</time>
      </trkpt>
      <trkpt lat="44.53103" lon="6.45839">
        <ele>839.504858</ele>
        <time>2026-07-27T11:20:46.000Z</time>
      </trkpt>
      <trkpt lat="44.53103" lon="6.45839">
        <ele>839.504858</ele>
        <time>2026-07-27T11:20:46.000Z</time>
      </trkpt>
      <trkpt lat="44.53111" lon="6.45833">
        <ele>838.513243</ele>
        <time>2026-07-27T11:20:47.000Z</time>
      </trkpt>
      <trkpt lat="44.53111" lon="6.45833">
        <ele>838.513243</ele>
        <time>2026-07-27T11:20:47.000Z</time>
      </trkpt>
      <trkpt lat="44.53118" lon="6.45828">
        <ele>837.578562</ele>
        <time>2026-07-27T11:20:48.000Z</time>
      </trkpt>
      <trkpt lat="44.53118" lon="6.45828">
        <ele>837.578562</ele>
        <time>2026-07-27T11:20:48.000Z</time>
      </trkpt>
      <trkpt lat="44.53126" lon="6.45822">
        <ele>836.611209</ele>
        <time>2026-07-27T11:20:49.000Z</time>
      </trkpt>
      <trkpt lat="44.53126" lon="6.45822">
        <ele>836.611209</ele>
        <time>2026-07-27T11:20:49.000Z</time>
      </trkpt>
      <trkpt lat="44.53135" lon="6.45817">
        <ele>835.554241</ele>
        <time>2026-07-27T11:20:50.000Z</time>
      </trkpt>
      <trkpt lat="44.53135" lon="6.45817">
        <ele>835.554241</ele>
        <time>2026-07-27T11:20:50.000Z</time>
      </trkpt>
      <trkpt lat="44.53143" lon="6.45812">
        <ele>834.633274</ele>
        <time>2026-07-27T11:20:51.000Z</time>
      </trkpt>
      <trkpt lat="44.53143" lon="6.45812">
        <ele>834.633274</ele>
        <time>2026-07-27T11:20:51.000Z</time>
      </trkpt>
      <trkpt lat="44.53151" lon="6.45807">
        <ele>833.674534</ele>
        <time>2026-07-27T11:20:52.000Z</time>
      </trkpt>
      <trkpt lat="44.53151" lon="6.45807">
        <ele>833.674534</ele>
        <time>2026-07-27T11:20:52.000Z</time>
      </trkpt>
      <trkpt lat="44.53157" lon="6.45803">
        <ele>832.918384</ele>
        <time>2026-07-27T11:20:53.000Z</time>
      </trkpt>
      <trkpt lat="44.53157" lon="6.45803">
        <ele>832.918384</ele>
        <time>2026-07-27T11:20:53.000Z</time>
      </trkpt>
      <trkpt lat="44.53162" lon="6.45798">
        <ele>832.28008</ele>
        <time>2026-07-27T11:20:54.000Z</time>
      </trkpt>
      <trkpt lat="44.53162" lon="6.45798">
        <ele>832.28008</ele>
        <time>2026-07-27T11:20:54.000Z</time>
      </trkpt>
      <trkpt lat="44.53166" lon="6.45793">
        <ele>831.670627</ele>
        <time>2026-07-27T11:20:55.000Z</time>
      </trkpt>
      <trkpt lat="44.53166" lon="6.45793">
        <ele>831.670627</ele>
        <time>2026-07-27T11:20:55.000Z</time>
      </trkpt>
      <trkpt lat="44.5317" lon="6.45789">
        <ele>831.118024</ele>
        <time>2026-07-27T11:20:56.000Z</time>
      </trkpt>
      <trkpt lat="44.5317" lon="6.45789">
        <ele>831.118024</ele>
        <time>2026-07-27T11:20:56.000Z</time>
      </trkpt>
      <trkpt lat="44.53174" lon="6.45786">
        <ele>830.639624</ele>
        <time>2026-07-27T11:20:57.000Z</time>
      </trkpt>
      <trkpt lat="44.53174" lon="6.45786">
        <ele>830.639624</ele>
        <time>2026-07-27T11:20:57.000Z</time>
      </trkpt>
      <trkpt lat="44.53177" lon="6.45785">
        <ele>830.244325</ele>
        <time>2026-07-27T11:20:58.000Z</time>
      </trkpt>
      <trkpt lat="44.53177" lon="6.45785">
        <ele>830.244325</ele>
        <time>2026-07-27T11:20:58.000Z</time>
      </trkpt>
      <trkpt lat="44.5318" lon="6.45786">
        <ele>829.990053</ele>
        <time>2026-07-27T11:20:59.000Z</time>
      </trkpt>
      <trkpt lat="44.5318" lon="6.45786">
        <ele>829.990053</ele>
        <time>2026-07-27T11:20:59.000Z</time>
      </trkpt>
      <trkpt lat="44.53182" lon="6.45786">
        <ele>829.744165</ele>
        <time>2026-07-27T11:21:00.000Z</time>
      </trkpt>
      <trkpt lat="44.53182" lon="6.45786">
        <ele>829.744165</ele>
        <time>2026-07-27T11:21:00.000Z</time>
      </trkpt>
      <trkpt lat="44.53183" lon="6.45787">
        <ele>829.541305</ele>
        <time>2026-07-27T11:21:01.000Z</time>
      </trkpt>
      <trkpt lat="44.53183" lon="6.45787">
        <ele>829.541305</ele>
        <time>2026-07-27T11:21:01.000Z</time>
      </trkpt>
      <trkpt lat="44.53183" lon="6.45787">
        <ele>829.541305</ele>
        <time>2026-07-27T11:21:02.000Z</time>
      </trkpt>
      <trkpt lat="44.53183" lon="6.45787">
        <ele>829.541305</ele>
        <time>2026-07-27T11:21:03.000Z</time>
      </trkpt>
      <trkpt lat="44.53185" lon="6.45789">
        <ele>829.361743</ele>
        <time>2026-07-27T11:21:40.000Z</time>
      </trkpt>
      <trkpt lat="44.5319" lon="6.45792">
        <ele>828.72736</ele>
        <time>2026-07-27T11:21:47.000Z</time>
      </trkpt>
      <trkpt lat="44.53193" lon="6.45794">
        <ele>828.309771</ele>
        <time>2026-07-27T11:21:48.000Z</time>
      </trkpt>
      <trkpt lat="44.53197" lon="6.45796">
        <ele>827.908237</ele>
        <time>2026-07-27T11:21:49.000Z</time>
      </trkpt>
      <trkpt lat="44.53199" lon="6.45798">
        <ele>827.592423</ele>
        <time>2026-07-27T11:21:50.000Z</time>
      </trkpt>
      <trkpt lat="44.53199" lon="6.45798">
        <ele>827.592423</ele>
        <time>2026-07-27T11:21:50.000Z</time>
      </trkpt>
      <trkpt lat="44.53201" lon="6.45799">
        <ele>827.390319</ele>
        <time>2026-07-27T11:21:51.000Z</time>
      </trkpt>
      <trkpt lat="44.53201" lon="6.45799">
        <ele>827.390319</ele>
        <time>2026-07-27T11:21:51.000Z</time>
      </trkpt>
      <trkpt lat="44.53202" lon="6.45801">
        <ele>827.178751</ele>
        <time>2026-07-27T11:21:52.000Z</time>
      </trkpt>
      <trkpt lat="44.53202" lon="6.45801">
        <ele>827.178751</ele>
        <time>2026-07-27T11:21:52.000Z</time>
      </trkpt>
      <trkpt lat="44.53204" lon="6.45803">
        <ele>826.921754</ele>
        <time>2026-07-27T11:21:53.000Z</time>
      </trkpt>
      <trkpt lat="44.53206" lon="6.45807">
        <ele>826.589993</ele>
        <time>2026-07-27T11:21:54.000Z</time>
      </trkpt>
      <trkpt lat="44.53206" lon="6.45807">
        <ele>826.589993</ele>
        <time>2026-07-27T11:21:54.000Z</time>
      </trkpt>
      <trkpt lat="44.53209" lon="6.45811">
        <ele>826.119427</ele>
        <time>2026-07-27T11:21:55.000Z</time>
      </trkpt>
      <trkpt lat="44.53209" lon="6.45811">
        <ele>826.119427</ele>
        <time>2026-07-27T11:21:55.000Z</time>
      </trkpt>
      <trkpt lat="44.53212" lon="6.45816">
        <ele>825.582413</ele>
        <time>2026-07-27T11:21:56.000Z</time>
      </trkpt>
      <trkpt lat="44.53212" lon="6.45816">
        <ele>825.582413</ele>
        <time>2026-07-27T11:21:56.000Z</time>
      </trkpt>
      <trkpt lat="44.53217" lon="6.45821">
        <ele>824.975996</ele>
        <time>2026-07-27T11:21:57.000Z</time>
      </trkpt>
      <trkpt lat="44.53217" lon="6.45821">
        <ele>824.975996</ele>
        <time>2026-07-27T11:21:57.000Z</time>
      </trkpt>
      <trkpt lat="44.53222" lon="6.45828">
        <ele>824.597747</ele>
        <time>2026-07-27T11:21:58.000Z</time>
      </trkpt>
      <trkpt lat="44.53222" lon="6.45828">
        <ele>824.597747</ele>
        <time>2026-07-27T11:21:58.000Z</time>
      </trkpt>
      <trkpt lat="44.53226" lon="6.45835">
        <ele>824.201544</ele>
        <time>2026-07-27T11:21:59.000Z</time>
      </trkpt>
      <trkpt lat="44.53226" lon="6.45835">
        <ele>824.201544</ele>
        <time>2026-07-27T11:21:59.000Z</time>
      </trkpt>
      <trkpt lat="44.53231" lon="6.45842">
        <ele>823.811407</ele>
        <time>2026-07-27T11:22:00.000Z</time>
      </trkpt>
      <trkpt lat="44.53231" lon="6.45842">
        <ele>823.811407</ele>
        <time>2026-07-27T11:22:00.000Z</time>
      </trkpt>
      <trkpt lat="44.53235" lon="6.45848">
        <ele>823.454518</ele>
        <time>2026-07-27T11:22:01.000Z</time>
      </trkpt>
      <trkpt lat="44.53235" lon="6.45848">
        <ele>823.454518</ele>
        <time>2026-07-27T11:22:01.000Z</time>
      </trkpt>
      <trkpt lat="44.53239" lon="6.45854">
        <ele>823.104029</ele>
        <time>2026-07-27T11:22:02.000Z</time>
      </trkpt>
      <trkpt lat="44.53239" lon="6.45854">
        <ele>823.104029</ele>
        <time>2026-07-27T11:22:02.000Z</time>
      </trkpt>
      <trkpt lat="44.53244" lon="6.4586">
        <ele>822.736233</ele>
        <time>2026-07-27T11:22:03.000Z</time>
      </trkpt>
      <trkpt lat="44.53244" lon="6.4586">
        <ele>822.736233</ele>
        <time>2026-07-27T11:22:03.000Z</time>
      </trkpt>
      <trkpt lat="44.5325" lon="6.45864">
        <ele>822.388306</ele>
        <time>2026-07-27T11:22:04.000Z</time>
      </trkpt>
      <trkpt lat="44.5325" lon="6.45864">
        <ele>822.388306</ele>
        <time>2026-07-27T11:22:04.000Z</time>
      </trkpt>
      <trkpt lat="44.53255" lon="6.45866">
        <ele>822.088275</ele>
        <time>2026-07-27T11:22:05.000Z</time>
      </trkpt>
      <trkpt lat="44.53255" lon="6.45866">
        <ele>822.088275</ele>
        <time>2026-07-27T11:22:05.000Z</time>
      </trkpt>
      <trkpt lat="44.5326" lon="6.45868">
        <ele>821.792527</ele>
        <time>2026-07-27T11:22:06.000Z</time>
      </trkpt>
      <trkpt lat="44.5326" lon="6.45868">
        <ele>821.792527</ele>
        <time>2026-07-27T11:22:06.000Z</time>
      </trkpt>
      <trkpt lat="44.53264" lon="6.4587">
        <ele>821.521172</ele>
        <time>2026-07-27T11:22:07.000Z</time>
      </trkpt>
      <trkpt lat="44.53264" lon="6.4587">
        <ele>821.521172</ele>
        <time>2026-07-27T11:22:07.000Z</time>
      </trkpt>
      <trkpt lat="44.5327" lon="6.45873">
        <ele>821.180918</ele>
        <time>2026-07-27T11:22:08.000Z</time>
      </trkpt>
      <trkpt lat="44.5327" lon="6.45873">
        <ele>821.180918</ele>
        <time>2026-07-27T11:22:08.000Z</time>
      </trkpt>
      <trkpt lat="44.53273" lon="6.45878">
        <ele>820.919327</ele>
        <time>2026-07-27T11:22:09.000Z</time>
      </trkpt>
      <trkpt lat="44.53273" lon="6.45878">
        <ele>820.919327</ele>
        <time>2026-07-27T11:22:09.000Z</time>
      </trkpt>
      <trkpt lat="44.53275" lon="6.45886">
        <ele>820.564005</ele>
        <time>2026-07-27T11:22:10.000Z</time>
      </trkpt>
      <trkpt lat="44.53275" lon="6.45886">
        <ele>820.564005</ele>
        <time>2026-07-27T11:22:10.000Z</time>
      </trkpt>
      <trkpt lat="44.53277" lon="6.45894">
        <ele>820.226228</ele>
        <time>2026-07-27T11:22:11.000Z</time>
      </trkpt>
      <trkpt lat="44.53277" lon="6.45894">
        <ele>820.226228</ele>
        <time>2026-07-27T11:22:11.000Z</time>
      </trkpt>
      <trkpt lat="44.53278" lon="6.459">
        <ele>819.984146</ele>
        <time>2026-07-27T11:22:12.000Z</time>
      </trkpt>
      <trkpt lat="44.53278" lon="6.459">
        <ele>819.984146</ele>
        <time>2026-07-27T11:22:12.000Z</time>
      </trkpt>
      <trkpt lat="44.5328" lon="6.45913">
        <ele>819.41616</ele>
        <time>2026-07-27T11:22:12.000Z</time>
      </trkpt>
      <trkpt lat="44.5328" lon="6.45913">
        <ele>819.41616</ele>
        <time>2026-07-27T11:22:12.000Z</time>
      </trkpt>
      <trkpt lat="44.5328" lon="6.45923">
        <ele>819.028229</ele>
        <time>2026-07-27T11:22:14.000Z</time>
      </trkpt>
      <trkpt lat="44.5328" lon="6.45923">
        <ele>819.028229</ele>
        <time>2026-07-27T11:22:14.000Z</time>
      </trkpt>
      <trkpt lat="44.53281" lon="6.45934">
        <ele>818.552756</ele>
        <time>2026-07-27T11:22:15.000Z</time>
      </trkpt>
      <trkpt lat="44.53281" lon="6.45934">
        <ele>818.552756</ele>
        <time>2026-07-27T11:22:15.000Z</time>
      </trkpt>
      <trkpt lat="44.53283" lon="6.45945">
        <ele>818.089797</ele>
        <time>2026-07-27T11:22:16.000Z</time>
      </trkpt>
      <trkpt lat="44.53283" lon="6.45945">
        <ele>818.089797</ele>
        <time>2026-07-27T11:22:16.000Z</time>
      </trkpt>
      <trkpt lat="44.53284" lon="6.45956">
        <ele>817.625685</ele>
        <time>2026-07-27T11:22:17.000Z</time>
      </trkpt>
      <trkpt lat="44.53284" lon="6.45956">
        <ele>817.625685</ele>
        <time>2026-07-27T11:22:17.000Z</time>
      </trkpt>
      <trkpt lat="44.53285" lon="6.45968">
        <ele>817.158334</ele>
        <time>2026-07-27T11:22:18.000Z</time>
      </trkpt>
      <trkpt lat="44.53285" lon="6.45968">
        <ele>817.158334</ele>
        <time>2026-07-27T11:22:18.000Z</time>
      </trkpt>
      <trkpt lat="44.53286" lon="6.45976">
        <ele>816.811059</ele>
        <time>2026-07-27T11:22:18.000Z</time>
      </trkpt>
      <trkpt lat="44.53286" lon="6.45976">
        <ele>816.811059</ele>
        <time>2026-07-27T11:22:18.000Z</time>
      </trkpt>
      <trkpt lat="44.53287" lon="6.45987">
        <ele>816.359943</ele>
        <time>2026-07-27T11:22:20.000Z</time>
      </trkpt>
      <trkpt lat="44.53287" lon="6.45987">
        <ele>816.359943</ele>
        <time>2026-07-27T11:22:20.000Z</time>
      </trkpt>
      <trkpt lat="44.53288" lon="6.45994">
        <ele>816.056943</ele>
        <time>2026-07-27T11:22:21.000Z</time>
      </trkpt>
      <trkpt lat="44.53288" lon="6.45994">
        <ele>816.056943</ele>
        <time>2026-07-27T11:22:21.000Z</time>
      </trkpt>
      <trkpt lat="44.53289" lon="6.46001">
        <ele>815.76509</ele>
        <time>2026-07-27T11:22:21.000Z</time>
      </trkpt>
      <trkpt lat="44.53289" lon="6.46001">
        <ele>815.76509</ele>
        <time>2026-07-27T11:22:21.000Z</time>
      </trkpt>
      <trkpt lat="44.5329" lon="6.46008">
        <ele>815.475357</ele>
        <time>2026-07-27T11:22:23.000Z</time>
      </trkpt>
      <trkpt lat="44.5329" lon="6.46008">
        <ele>815.475357</ele>
        <time>2026-07-27T11:22:23.000Z</time>
      </trkpt>
      <trkpt lat="44.53291" lon="6.46016">
        <ele>815.152435</ele>
        <time>2026-07-27T11:22:23.000Z</time>
      </trkpt>
      <trkpt lat="44.53291" lon="6.46016">
        <ele>815.152435</ele>
        <time>2026-07-27T11:22:23.000Z</time>
      </trkpt>
      <trkpt lat="44.53291" lon="6.46025">
        <ele>814.789589</ele>
        <time>2026-07-27T11:22:25.000Z</time>
      </trkpt>
      <trkpt lat="44.53291" lon="6.46025">
        <ele>814.789589</ele>
        <time>2026-07-27T11:22:25.000Z</time>
      </trkpt>
      <trkpt lat="44.53293" lon="6.46035">
        <ele>814.497768</ele>
        <time>2026-07-27T11:22:26.000Z</time>
      </trkpt>
      <trkpt lat="44.53293" lon="6.46035">
        <ele>814.497768</ele>
        <time>2026-07-27T11:22:26.000Z</time>
      </trkpt>
      <trkpt lat="44.53293" lon="6.46044">
        <ele>814.243939</ele>
        <time>2026-07-27T11:22:27.000Z</time>
      </trkpt>
      <trkpt lat="44.53293" lon="6.46044">
        <ele>814.243939</ele>
        <time>2026-07-27T11:22:27.000Z</time>
      </trkpt>
      <trkpt lat="44.53294" lon="6.46055">
        <ele>813.963234</ele>
        <time>2026-07-27T11:22:28.000Z</time>
      </trkpt>
      <trkpt lat="44.53294" lon="6.46055">
        <ele>813.963234</ele>
        <time>2026-07-27T11:22:28.000Z</time>
      </trkpt>
      <trkpt lat="44.53294" lon="6.46065">
        <ele>813.697756</ele>
        <time>2026-07-27T11:22:29.000Z</time>
      </trkpt>
      <trkpt lat="44.53294" lon="6.46065">
        <ele>813.697756</ele>
        <time>2026-07-27T11:22:29.000Z</time>
      </trkpt>
      <trkpt lat="44.53295" lon="6.46076">
        <ele>813.419653</ele>
        <time>2026-07-27T11:22:30.000Z</time>
      </trkpt>
      <trkpt lat="44.53295" lon="6.46076">
        <ele>813.419653</ele>
        <time>2026-07-27T11:22:30.000Z</time>
      </trkpt>
      <trkpt lat="44.53296" lon="6.46082">
        <ele>813.260189</ele>
        <time>2026-07-27T11:22:31.000Z</time>
      </trkpt>
      <trkpt lat="44.53296" lon="6.46082">
        <ele>813.260189</ele>
        <time>2026-07-27T11:22:31.000Z</time>
      </trkpt>
      <trkpt lat="44.53297" lon="6.46098">
        <ele>812.838602</ele>
        <time>2026-07-27T11:22:32.000Z</time>
      </trkpt>
      <trkpt lat="44.53297" lon="6.46098">
        <ele>812.838602</ele>
        <time>2026-07-27T11:22:32.000Z</time>
      </trkpt>
      <trkpt lat="44.53298" lon="6.46108">
        <ele>812.582165</ele>
        <time>2026-07-27T11:22:33.000Z</time>
      </trkpt>
      <trkpt lat="44.53298" lon="6.46108">
        <ele>812.582165</ele>
        <time>2026-07-27T11:22:33.000Z</time>
      </trkpt>
      <trkpt lat="44.53299" lon="6.46117">
        <ele>812.329664</ele>
        <time>2026-07-27T11:22:34.000Z</time>
      </trkpt>
      <trkpt lat="44.53299" lon="6.46117">
        <ele>812.329664</ele>
        <time>2026-07-27T11:22:34.000Z</time>
      </trkpt>
      <trkpt lat="44.53299" lon="6.46127">
        <ele>812.061965</ele>
        <time>2026-07-27T11:22:35.000Z</time>
      </trkpt>
      <trkpt lat="44.53299" lon="6.46127">
        <ele>812.061965</ele>
        <time>2026-07-27T11:22:35.000Z</time>
      </trkpt>
      <trkpt lat="44.53301" lon="6.46138">
        <ele>811.786737</ele>
        <time>2026-07-27T11:22:36.000Z</time>
      </trkpt>
      <trkpt lat="44.53301" lon="6.46138">
        <ele>811.786737</ele>
        <time>2026-07-27T11:22:36.000Z</time>
      </trkpt>
      <trkpt lat="44.53302" lon="6.46148">
        <ele>811.509539</ele>
        <time>2026-07-27T11:22:37.000Z</time>
      </trkpt>
      <trkpt lat="44.53302" lon="6.46148">
        <ele>811.509539</ele>
        <time>2026-07-27T11:22:37.000Z</time>
      </trkpt>
      <trkpt lat="44.53303" lon="6.46158">
        <ele>811.24004</ele>
        <time>2026-07-27T11:22:38.000Z</time>
      </trkpt>
      <trkpt lat="44.53303" lon="6.46158">
        <ele>811.24004</ele>
        <time>2026-07-27T11:22:38.000Z</time>
      </trkpt>
      <trkpt lat="44.53304" lon="6.46169">
        <ele>810.962233</ele>
        <time>2026-07-27T11:22:39.000Z</time>
      </trkpt>
      <trkpt lat="44.53304" lon="6.46169">
        <ele>810.962233</ele>
        <time>2026-07-27T11:22:39.000Z</time>
      </trkpt>
      <trkpt lat="44.53306" lon="6.46179">
        <ele>810.69527</ele>
        <time>2026-07-27T11:22:40.000Z</time>
      </trkpt>
      <trkpt lat="44.53306" lon="6.46179">
        <ele>810.69527</ele>
        <time>2026-07-27T11:22:40.000Z</time>
      </trkpt>
      <trkpt lat="44.53307" lon="6.46189">
        <ele>810.423192</ele>
        <time>2026-07-27T11:22:41.000Z</time>
      </trkpt>
      <trkpt lat="44.53307" lon="6.46189">
        <ele>810.423192</ele>
        <time>2026-07-27T11:22:41.000Z</time>
      </trkpt>
      <trkpt lat="44.53309" lon="6.46202">
        <ele>810.075559</ele>
        <time>2026-07-27T11:22:42.000Z</time>
      </trkpt>
      <trkpt lat="44.53309" lon="6.46202">
        <ele>810.075559</ele>
        <time>2026-07-27T11:22:42.000Z</time>
      </trkpt>
      <trkpt lat="44.5331" lon="6.46213">
        <ele>809.782983</ele>
        <time>2026-07-27T11:22:43.000Z</time>
      </trkpt>
      <trkpt lat="44.5331" lon="6.46213">
        <ele>809.782983</ele>
        <time>2026-07-27T11:22:43.000Z</time>
      </trkpt>
      <trkpt lat="44.53311" lon="6.46224">
        <ele>809.497435</ele>
        <time>2026-07-27T11:22:44.000Z</time>
      </trkpt>
      <trkpt lat="44.53311" lon="6.46224">
        <ele>809.497435</ele>
        <time>2026-07-27T11:22:44.000Z</time>
      </trkpt>
      <trkpt lat="44.53312" lon="6.46235">
        <ele>809.206324</ele>
        <time>2026-07-27T11:22:45.000Z</time>
      </trkpt>
      <trkpt lat="44.53312" lon="6.46235">
        <ele>809.206324</ele>
        <time>2026-07-27T11:22:45.000Z</time>
      </trkpt>
      <trkpt lat="44.53313" lon="6.46246">
        <ele>808.916313</ele>
        <time>2026-07-27T11:22:46.000Z</time>
      </trkpt>
      <trkpt lat="44.53313" lon="6.46246">
        <ele>808.916313</ele>
        <time>2026-07-27T11:22:46.000Z</time>
      </trkpt>
      <trkpt lat="44.53316" lon="6.46257">
        <ele>808.626852</ele>
        <time>2026-07-27T11:22:47.000Z</time>
      </trkpt>
      <trkpt lat="44.53316" lon="6.46257">
        <ele>808.626852</ele>
        <time>2026-07-27T11:22:47.000Z</time>
      </trkpt>
      <trkpt lat="44.53317" lon="6.46266">
        <ele>808.367086</ele>
        <time>2026-07-27T11:22:48.000Z</time>
      </trkpt>
      <trkpt lat="44.53317" lon="6.46266">
        <ele>808.367086</ele>
        <time>2026-07-27T11:22:48.000Z</time>
      </trkpt>
      <trkpt lat="44.53318" lon="6.46275">
        <ele>808.13317</ele>
        <time>2026-07-27T11:22:49.000Z</time>
      </trkpt>
      <trkpt lat="44.53318" lon="6.46275">
        <ele>808.13317</ele>
        <time>2026-07-27T11:22:49.000Z</time>
      </trkpt>
      <trkpt lat="44.53318" lon="6.46283">
        <ele>807.885521</ele>
        <time>2026-07-27T11:22:50.000Z</time>
      </trkpt>
      <trkpt lat="44.53318" lon="6.46283">
        <ele>807.885521</ele>
        <time>2026-07-27T11:22:50.000Z</time>
      </trkpt>
      <trkpt lat="44.53319" lon="6.4629">
        <ele>807.651359</ele>
        <time>2026-07-27T11:22:51.000Z</time>
      </trkpt>
      <trkpt lat="44.53319" lon="6.4629">
        <ele>807.651359</ele>
        <time>2026-07-27T11:22:51.000Z</time>
      </trkpt>
      <trkpt lat="44.5332" lon="6.46297">
        <ele>807.411486</ele>
        <time>2026-07-27T11:22:52.000Z</time>
      </trkpt>
      <trkpt lat="44.5332" lon="6.46297">
        <ele>807.411486</ele>
        <time>2026-07-27T11:22:52.000Z</time>
      </trkpt>
      <trkpt lat="44.53322" lon="6.46304">
        <ele>807.192755</ele>
        <time>2026-07-27T11:22:53.000Z</time>
      </trkpt>
      <trkpt lat="44.53322" lon="6.46304">
        <ele>807.192755</ele>
        <time>2026-07-27T11:22:53.000Z</time>
      </trkpt>
      <trkpt lat="44.53322" lon="6.46311">
        <ele>806.974066</ele>
        <time>2026-07-27T11:22:54.000Z</time>
      </trkpt>
      <trkpt lat="44.53322" lon="6.46311">
        <ele>806.974066</ele>
        <time>2026-07-27T11:22:54.000Z</time>
      </trkpt>
      <trkpt lat="44.53322" lon="6.46317">
        <ele>806.765579</ele>
        <time>2026-07-27T11:22:55.000Z</time>
      </trkpt>
      <trkpt lat="44.53322" lon="6.46317">
        <ele>806.765579</ele>
        <time>2026-07-27T11:22:55.000Z</time>
      </trkpt>
      <trkpt lat="44.53323" lon="6.46324">
        <ele>806.534635</ele>
        <time>2026-07-27T11:22:56.000Z</time>
      </trkpt>
      <trkpt lat="44.53323" lon="6.46324">
        <ele>806.534635</ele>
        <time>2026-07-27T11:22:56.000Z</time>
      </trkpt>
      <trkpt lat="44.53324" lon="6.46332">
        <ele>806.269223</ele>
        <time>2026-07-27T11:22:57.000Z</time>
      </trkpt>
      <trkpt lat="44.53324" lon="6.46332">
        <ele>806.269223</ele>
        <time>2026-07-27T11:22:57.000Z</time>
      </trkpt>
      <trkpt lat="44.53324" lon="6.4634">
        <ele>806.020971</ele>
        <time>2026-07-27T11:22:58.000Z</time>
      </trkpt>
      <trkpt lat="44.53324" lon="6.4634">
        <ele>806.020971</ele>
        <time>2026-07-27T11:22:58.000Z</time>
      </trkpt>
      <trkpt lat="44.53324" lon="6.46348">
        <ele>805.747333</ele>
        <time>2026-07-27T11:22:59.000Z</time>
      </trkpt>
      <trkpt lat="44.53324" lon="6.46348">
        <ele>805.747333</ele>
        <time>2026-07-27T11:22:59.000Z</time>
      </trkpt>
      <trkpt lat="44.53325" lon="6.46357">
        <ele>805.460081</ele>
        <time>2026-07-27T11:23:00.000Z</time>
      </trkpt>
      <trkpt lat="44.53325" lon="6.46357">
        <ele>805.460081</ele>
        <time>2026-07-27T11:23:00.000Z</time>
      </trkpt>
      <trkpt lat="44.53325" lon="6.46366">
        <ele>805.163077</ele>
        <time>2026-07-27T11:23:01.000Z</time>
      </trkpt>
      <trkpt lat="44.53325" lon="6.46366">
        <ele>805.163077</ele>
        <time>2026-07-27T11:23:01.000Z</time>
      </trkpt>
      <trkpt lat="44.53325" lon="6.46375">
        <ele>804.86282</ele>
        <time>2026-07-27T11:23:02.000Z</time>
      </trkpt>
      <trkpt lat="44.53325" lon="6.46375">
        <ele>804.86282</ele>
        <time>2026-07-27T11:23:02.000Z</time>
      </trkpt>
      <trkpt lat="44.53326" lon="6.46384">
        <ele>804.569067</ele>
        <time>2026-07-27T11:23:03.000Z</time>
      </trkpt>
      <trkpt lat="44.53326" lon="6.46384">
        <ele>804.569067</ele>
        <time>2026-07-27T11:23:03.000Z</time>
      </trkpt>
      <trkpt lat="44.53326" lon="6.46394">
        <ele>804.249822</ele>
        <time>2026-07-27T11:23:04.000Z</time>
      </trkpt>
      <trkpt lat="44.53326" lon="6.46394">
        <ele>804.249822</ele>
        <time>2026-07-27T11:23:04.000Z</time>
      </trkpt>
      <trkpt lat="44.53326" lon="6.46403">
        <ele>803.951659</ele>
        <time>2026-07-27T11:23:05.000Z</time>
      </trkpt>
      <trkpt lat="44.53326" lon="6.46403">
        <ele>803.951659</ele>
        <time>2026-07-27T11:23:05.000Z</time>
      </trkpt>
      <trkpt lat="44.53326" lon="6.4641">
        <ele>803.710597</ele>
        <time>2026-07-27T11:23:06.000Z</time>
      </trkpt>
      <trkpt lat="44.53326" lon="6.4641">
        <ele>803.710597</ele>
        <time>2026-07-27T11:23:06.000Z</time>
      </trkpt>
      <trkpt lat="44.53326" lon="6.46418">
        <ele>803.469535</ele>
        <time>2026-07-27T11:23:07.000Z</time>
      </trkpt>
      <trkpt lat="44.53326" lon="6.46418">
        <ele>803.469535</ele>
        <time>2026-07-27T11:23:07.000Z</time>
      </trkpt>
      <trkpt lat="44.53326" lon="6.46425">
        <ele>803.248018</ele>
        <time>2026-07-27T11:23:08.000Z</time>
      </trkpt>
      <trkpt lat="44.53326" lon="6.46425">
        <ele>803.248018</ele>
        <time>2026-07-27T11:23:08.000Z</time>
      </trkpt>
      <trkpt lat="44.53326" lon="6.46432">
        <ele>803.010213</ele>
        <time>2026-07-27T11:23:09.000Z</time>
      </trkpt>
      <trkpt lat="44.53326" lon="6.46432">
        <ele>803.010213</ele>
        <time>2026-07-27T11:23:09.000Z</time>
      </trkpt>
      <trkpt lat="44.53327" lon="6.46439">
        <ele>802.781449</ele>
        <time>2026-07-27T11:23:10.000Z</time>
      </trkpt>
      <trkpt lat="44.53327" lon="6.46439">
        <ele>802.781449</ele>
        <time>2026-07-27T11:23:10.000Z</time>
      </trkpt>
      <trkpt lat="44.53327" lon="6.46446">
        <ele>802.559932</ele>
        <time>2026-07-27T11:23:11.000Z</time>
      </trkpt>
      <trkpt lat="44.53327" lon="6.46446">
        <ele>802.559932</ele>
        <time>2026-07-27T11:23:11.000Z</time>
      </trkpt>
      <trkpt lat="44.53327" lon="6.46453">
        <ele>802.31493</ele>
        <time>2026-07-27T11:23:12.000Z</time>
      </trkpt>
      <trkpt lat="44.53327" lon="6.46453">
        <ele>802.31493</ele>
        <time>2026-07-27T11:23:12.000Z</time>
      </trkpt>
      <trkpt lat="44.53328" lon="6.46461">
        <ele>802.065294</ele>
        <time>2026-07-27T11:23:12.000Z</time>
      </trkpt>
      <trkpt lat="44.53328" lon="6.46461">
        <ele>802.065294</ele>
        <time>2026-07-27T11:23:12.000Z</time>
      </trkpt>
      <trkpt lat="44.53328" lon="6.46468">
        <ele>801.839777</ele>
        <time>2026-07-27T11:23:14.000Z</time>
      </trkpt>
      <trkpt lat="44.53328" lon="6.46468">
        <ele>801.839777</ele>
        <time>2026-07-27T11:23:14.000Z</time>
      </trkpt>
      <trkpt lat="44.5333" lon="6.46475">
        <ele>801.598905</ele>
        <time>2026-07-27T11:23:15.000Z</time>
      </trkpt>
      <trkpt lat="44.5333" lon="6.46475">
        <ele>801.598905</ele>
        <time>2026-07-27T11:23:15.000Z</time>
      </trkpt>
      <trkpt lat="44.5333" lon="6.46482">
        <ele>801.36864</ele>
        <time>2026-07-27T11:23:16.000Z</time>
      </trkpt>
      <trkpt lat="44.5333" lon="6.46482">
        <ele>801.36864</ele>
        <time>2026-07-27T11:23:16.000Z</time>
      </trkpt>
      <trkpt lat="44.53331" lon="6.46489">
        <ele>801.124821</ele>
        <time>2026-07-27T11:23:17.000Z</time>
      </trkpt>
      <trkpt lat="44.53331" lon="6.46489">
        <ele>801.124821</ele>
        <time>2026-07-27T11:23:17.000Z</time>
      </trkpt>
      <trkpt lat="44.53332" lon="6.46497">
        <ele>800.864887</ele>
        <time>2026-07-27T11:23:18.000Z</time>
      </trkpt>
      <trkpt lat="44.53332" lon="6.46497">
        <ele>800.864887</ele>
        <time>2026-07-27T11:23:18.000Z</time>
      </trkpt>
      <trkpt lat="44.53332" lon="6.46504">
        <ele>800.626688</ele>
        <time>2026-07-27T11:23:19.000Z</time>
      </trkpt>
      <trkpt lat="44.53332" lon="6.46504">
        <ele>800.626688</ele>
        <time>2026-07-27T11:23:19.000Z</time>
      </trkpt>
      <trkpt lat="44.53333" lon="6.46512">
        <ele>800.388182</ele>
        <time>2026-07-27T11:23:20.000Z</time>
      </trkpt>
      <trkpt lat="44.53333" lon="6.46512">
        <ele>800.388182</ele>
        <time>2026-07-27T11:23:20.000Z</time>
      </trkpt>
      <trkpt lat="44.53333" lon="6.46519">
        <ele>800.13792</ele>
        <time>2026-07-27T11:23:20.000Z</time>
      </trkpt>
      <trkpt lat="44.53333" lon="6.46519">
        <ele>800.13792</ele>
        <time>2026-07-27T11:23:20.000Z</time>
      </trkpt>
      <trkpt lat="44.53334" lon="6.46527">
        <ele>799.89486</ele>
        <time>2026-07-27T11:23:21.000Z</time>
      </trkpt>
      <trkpt lat="44.53335" lon="6.46534">
        <ele>799.768783</ele>
        <time>2026-07-27T11:23:23.000Z</time>
      </trkpt>
      <trkpt lat="44.53335" lon="6.46534">
        <ele>799.768783</ele>
        <time>2026-07-27T11:23:23.000Z</time>
      </trkpt>
      <trkpt lat="44.53336" lon="6.46542">
        <ele>799.642389</ele>
        <time>2026-07-27T11:23:24.000Z</time>
      </trkpt>
      <trkpt lat="44.53336" lon="6.46542">
        <ele>799.642389</ele>
        <time>2026-07-27T11:23:24.000Z</time>
      </trkpt>
      <trkpt lat="44.53336" lon="6.4655">
        <ele>799.503088</ele>
        <time>2026-07-27T11:23:25.000Z</time>
      </trkpt>
      <trkpt lat="44.53336" lon="6.4655">
        <ele>799.503088</ele>
        <time>2026-07-27T11:23:25.000Z</time>
      </trkpt>
      <trkpt lat="44.53337" lon="6.46558">
        <ele>799.373396</ele>
        <time>2026-07-27T11:23:26.000Z</time>
      </trkpt>
      <trkpt lat="44.53337" lon="6.46558">
        <ele>799.373396</ele>
        <time>2026-07-27T11:23:26.000Z</time>
      </trkpt>
      <trkpt lat="44.53338" lon="6.46565">
        <ele>799.243058</ele>
        <time>2026-07-27T11:23:27.000Z</time>
      </trkpt>
      <trkpt lat="44.53338" lon="6.46565">
        <ele>799.243058</ele>
        <time>2026-07-27T11:23:27.000Z</time>
      </trkpt>
      <trkpt lat="44.53338" lon="6.46573">
        <ele>799.115336</ele>
        <time>2026-07-27T11:23:28.000Z</time>
      </trkpt>
      <trkpt lat="44.53338" lon="6.46573">
        <ele>799.115336</ele>
        <time>2026-07-27T11:23:28.000Z</time>
      </trkpt>
      <trkpt lat="44.53339" lon="6.46581">
        <ele>798.98666</ele>
        <time>2026-07-27T11:23:29.000Z</time>
      </trkpt>
      <trkpt lat="44.53339" lon="6.46581">
        <ele>798.98666</ele>
        <time>2026-07-27T11:23:29.000Z</time>
      </trkpt>
      <trkpt lat="44.53339" lon="6.46588">
        <ele>798.868324</ele>
        <time>2026-07-27T11:23:30.000Z</time>
      </trkpt>
      <trkpt lat="44.53339" lon="6.46588">
        <ele>798.868324</ele>
        <time>2026-07-27T11:23:30.000Z</time>
      </trkpt>
      <trkpt lat="44.53339" lon="6.46595">
        <ele>798.746296</ele>
        <time>2026-07-27T11:23:31.000Z</time>
      </trkpt>
      <trkpt lat="44.53339" lon="6.46595">
        <ele>798.746296</ele>
        <time>2026-07-27T11:23:31.000Z</time>
      </trkpt>
      <trkpt lat="44.53339" lon="6.46603">
        <ele>798.619283</ele>
        <time>2026-07-27T11:23:32.000Z</time>
      </trkpt>
      <trkpt lat="44.53339" lon="6.46609">
        <ele>798.505947</ele>
        <time>2026-07-27T11:23:33.000Z</time>
      </trkpt>
      <trkpt lat="44.53339" lon="6.46609">
        <ele>798.505947</ele>
        <time>2026-07-27T11:23:33.000Z</time>
      </trkpt>
      <trkpt lat="44.5334" lon="6.46616">
        <ele>798.393887</ele>
        <time>2026-07-27T11:23:34.000Z</time>
      </trkpt>
      <trkpt lat="44.5334" lon="6.46616">
        <ele>798.393887</ele>
        <time>2026-07-27T11:23:34.000Z</time>
      </trkpt>
      <trkpt lat="44.5334" lon="6.46623">
        <ele>798.286988</ele>
        <time>2026-07-27T11:23:35.000Z</time>
      </trkpt>
      <trkpt lat="44.5334" lon="6.46623">
        <ele>798.286988</ele>
        <time>2026-07-27T11:23:35.000Z</time>
      </trkpt>
      <trkpt lat="44.53341" lon="6.46629">
        <ele>798.175407</ele>
        <time>2026-07-27T11:23:36.000Z</time>
      </trkpt>
      <trkpt lat="44.53341" lon="6.46636">
        <ele>798.068739</ele>
        <time>2026-07-27T11:23:37.000Z</time>
      </trkpt>
      <trkpt lat="44.53341" lon="6.46636">
        <ele>798.068739</ele>
        <time>2026-07-27T11:23:37.000Z</time>
      </trkpt>
      <trkpt lat="44.53341" lon="6.46641">
        <ele>797.97207</ele>
        <time>2026-07-27T11:23:38.000Z</time>
      </trkpt>
      <trkpt lat="44.53341" lon="6.46646">
        <ele>797.886556</ele>
        <time>2026-07-27T11:23:39.000Z</time>
      </trkpt>
      <trkpt lat="44.53341" lon="6.46646">
        <ele>797.886556</ele>
        <time>2026-07-27T11:23:39.000Z</time>
      </trkpt>
      <trkpt lat="44.53341" lon="6.46651">
        <ele>797.804888</ele>
        <time>2026-07-27T11:23:40.000Z</time>
      </trkpt>
      <trkpt lat="44.5334" lon="6.46657">
        <ele>797.712743</ele>
        <time>2026-07-27T11:23:41.000Z</time>
      </trkpt>
      <trkpt lat="44.5334" lon="6.46657">
        <ele>797.712743</ele>
        <time>2026-07-27T11:23:41.000Z</time>
      </trkpt>
      <trkpt lat="44.5334" lon="6.46661">
        <ele>797.639409</ele>
        <time>2026-07-27T11:23:42.000Z</time>
      </trkpt>
      <trkpt lat="44.5334" lon="6.46666">
        <ele>797.554407</ele>
        <time>2026-07-27T11:23:43.000Z</time>
      </trkpt>
      <trkpt lat="44.5334" lon="6.46672">
        <ele>797.454405</ele>
        <time>2026-07-27T11:23:44.000Z</time>
      </trkpt>
      <trkpt lat="44.53341" lon="6.46677">
        <ele>797.372203</ele>
        <time>2026-07-27T11:23:45.000Z</time>
      </trkpt>
      <trkpt lat="44.53341" lon="6.46677">
        <ele>797.372203</ele>
        <time>2026-07-27T11:23:45.000Z</time>
      </trkpt>
      <trkpt lat="44.53341" lon="6.46682">
        <ele>797.288868</ele>
        <time>2026-07-27T11:23:46.000Z</time>
      </trkpt>
      <trkpt lat="44.53341" lon="6.46687">
        <ele>797.213286</ele>
        <time>2026-07-27T11:23:47.000Z</time>
      </trkpt>
      <trkpt lat="44.53342" lon="6.46691">
        <ele>797.134369</ele>
        <time>2026-07-27T11:23:48.000Z</time>
      </trkpt>
      <trkpt lat="44.53342" lon="6.46691">
        <ele>797.134369</ele>
        <time>2026-07-27T11:23:48.000Z</time>
      </trkpt>
      <trkpt lat="44.53342" lon="6.46696">
        <ele>797.057603</ele>
        <time>2026-07-27T11:23:49.000Z</time>
      </trkpt>
      <trkpt lat="44.53342" lon="6.46699">
        <ele>796.997602</ele>
        <time>2026-07-27T11:23:50.000Z</time>
      </trkpt>
      <trkpt lat="44.53343" lon="6.46703">
        <ele>796.938522</ele>
        <time>2026-07-27T11:23:51.000Z</time>
      </trkpt>
      <trkpt lat="44.53343" lon="6.46706">
        <ele>796.890927</ele>
        <time>2026-07-27T11:23:52.000Z</time>
      </trkpt>
      <trkpt lat="44.53343" lon="6.46709">
        <ele>796.840926</ele>
        <time>2026-07-27T11:23:53.000Z</time>
      </trkpt>
      <trkpt lat="44.53344" lon="6.46711">
        <ele>796.795253</ele>
        <time>2026-07-27T11:23:54.000Z</time>
      </trkpt>
      <trkpt lat="44.53345" lon="6.46713">
        <ele>796.759606</ele>
        <time>2026-07-27T11:23:55.000Z</time>
      </trkpt>
      <trkpt lat="44.53346" lon="6.46715">
        <ele>796.718444</ele>
        <time>2026-07-27T11:23:56.000Z</time>
      </trkpt>
      <trkpt lat="44.53346" lon="6.46715">
        <ele>796.718444</ele>
        <time>2026-07-27T11:23:56.000Z</time>
      </trkpt>
      <trkpt lat="44.53347" lon="6.46718">
        <ele>796.673656</ele>
        <time>2026-07-27T11:23:57.000Z</time>
      </trkpt>
      <trkpt lat="44.53348" lon="6.4672">
        <ele>796.616408</ele>
        <time>2026-07-27T11:23:58.000Z</time>
      </trkpt>
      <trkpt lat="44.53349" lon="6.46723">
        <ele>796.561657</ele>
        <time>2026-07-27T11:23:59.000Z</time>
      </trkpt>
      <trkpt lat="44.53351" lon="6.46726">
        <ele>796.502863</ele>
        <time>2026-07-27T11:24:00.000Z</time>
      </trkpt>
      <trkpt lat="44.53351" lon="6.4673">
        <ele>796.44067</ele>
        <time>2026-07-27T11:24:01.000Z</time>
      </trkpt>
      <trkpt lat="44.53351" lon="6.4673">
        <ele>796.44067</ele>
        <time>2026-07-27T11:24:01.000Z</time>
      </trkpt>
      <trkpt lat="44.53351" lon="6.46734">
        <ele>796.370668</ele>
        <time>2026-07-27T11:24:02.000Z</time>
      </trkpt>
      <trkpt lat="44.53351" lon="6.46738">
        <ele>796.301697</ele>
        <time>2026-07-27T11:24:03.000Z</time>
      </trkpt>
      <trkpt lat="44.5335" lon="6.46742">
        <ele>796.236282</ele>
        <time>2026-07-27T11:24:04.000Z</time>
      </trkpt>
      <trkpt lat="44.53349" lon="6.46746">
        <ele>796.168643</ele>
        <time>2026-07-27T11:24:04.000Z</time>
      </trkpt>
      <trkpt lat="44.53349" lon="6.4675">
        <ele>796.097795</ele>
        <time>2026-07-27T11:24:06.000Z</time>
      </trkpt>
      <trkpt lat="44.53349" lon="6.46753">
        <ele>796.037794</ele>
        <time>2026-07-27T11:24:07.000Z</time>
      </trkpt>
      <trkpt lat="44.53348" lon="6.46757">
        <ele>795.974072</ele>
        <time>2026-07-27T11:24:08.000Z</time>
      </trkpt>
      <trkpt lat="44.53348" lon="6.4676">
        <ele>795.924071</ele>
        <time>2026-07-27T11:24:09.000Z</time>
      </trkpt>
      <trkpt lat="44.53348" lon="6.46764">
        <ele>795.856751</ele>
        <time>2026-07-27T11:24:10.000Z</time>
      </trkpt>
      <trkpt lat="44.53348" lon="6.46768">
        <ele>795.798416</ele>
        <time>2026-07-27T11:24:11.000Z</time>
      </trkpt>
      <trkpt lat="44.53348" lon="6.46771">
        <ele>795.747548</ele>
        <time>2026-07-27T11:24:12.000Z</time>
      </trkpt>
      <trkpt lat="44.53349" lon="6.46774">
        <ele>795.692102</ele>
        <time>2026-07-27T11:24:13.000Z</time>
      </trkpt>
      <trkpt lat="44.53349" lon="6.46774">
        <ele>795.692102</ele>
        <time>2026-07-27T11:24:13.000Z</time>
      </trkpt>
      <trkpt lat="44.53349" lon="6.46777">
        <ele>795.667501</ele>
        <time>2026-07-27T11:24:14.000Z</time>
      </trkpt>
      <trkpt lat="44.53349" lon="6.46781">
        <ele>795.644266</ele>
        <time>2026-07-27T11:24:15.000Z</time>
      </trkpt>
      <trkpt lat="44.5335" lon="6.46784">
        <ele>795.622036</ele>
        <time>2026-07-27T11:24:16.000Z</time>
      </trkpt>
      <trkpt lat="44.5335" lon="6.46788">
        <ele>795.600641</ele>
        <time>2026-07-27T11:24:17.000Z</time>
      </trkpt>
      <trkpt lat="44.53351" lon="6.46792">
        <ele>795.575069</ele>
        <time>2026-07-27T11:24:18.000Z</time>
      </trkpt>
      <trkpt lat="44.53352" lon="6.46795">
        <ele>795.552249</ele>
        <time>2026-07-27T11:24:19.000Z</time>
      </trkpt>
      <trkpt lat="44.53352" lon="6.46795">
        <ele>795.552249</ele>
        <time>2026-07-27T11:24:19.000Z</time>
      </trkpt>
      <trkpt lat="44.53352" lon="6.46799">
        <ele>795.527786</ele>
        <time>2026-07-27T11:24:20.000Z</time>
      </trkpt>
      <trkpt lat="44.53352" lon="6.46802">
        <ele>795.507615</ele>
        <time>2026-07-27T11:24:21.000Z</time>
      </trkpt>
      <trkpt lat="44.53352" lon="6.46806">
        <ele>795.487748</ele>
        <time>2026-07-27T11:24:22.000Z</time>
      </trkpt>
      <trkpt lat="44.53352" lon="6.46809">
        <ele>795.469122</ele>
        <time>2026-07-27T11:24:23.000Z</time>
      </trkpt>
      <trkpt lat="44.53352" lon="6.46811">
        <ele>795.452358</ele>
        <time>2026-07-27T11:24:24.000Z</time>
      </trkpt>
      <trkpt lat="44.53352" lon="6.46811">
        <ele>795.452358</ele>
        <time>2026-07-27T11:24:24.000Z</time>
      </trkpt>
      <trkpt lat="44.53352" lon="6.46814">
        <ele>795.433409</ele>
        <time>2026-07-27T11:24:25.000Z</time>
      </trkpt>
      <trkpt lat="44.53352" lon="6.46817">
        <ele>795.419129</ele>
        <time>2026-07-27T11:24:26.000Z</time>
      </trkpt>
      <trkpt lat="44.53352" lon="6.4682">
        <ele>795.40018</ele>
        <time>2026-07-27T11:24:27.000Z</time>
      </trkpt>
      <trkpt lat="44.53352" lon="6.4682">
        <ele>795.40018</ele>
        <time>2026-07-27T11:24:27.000Z</time>
      </trkpt>
      <trkpt lat="44.53352" lon="6.46822">
        <ele>795.384038</ele>
        <time>2026-07-27T11:24:28.000Z</time>
      </trkpt>
      <trkpt lat="44.53353" lon="6.46825">
        <ele>795.363999</ele>
        <time>2026-07-27T11:24:29.000Z</time>
      </trkpt>
      <trkpt lat="44.53353" lon="6.46829">
        <ele>795.342604</ele>
        <time>2026-07-27T11:24:29.000Z</time>
      </trkpt>
      <trkpt lat="44.53354" lon="6.46832">
        <ele>795.322433</ele>
        <time>2026-07-27T11:24:31.000Z</time>
      </trkpt>
      <trkpt lat="44.53354" lon="6.46832">
        <ele>795.322433</ele>
        <time>2026-07-27T11:24:31.000Z</time>
      </trkpt>
      <trkpt lat="44.53354" lon="6.46835">
        <ele>795.301324</ele>
        <time>2026-07-27T11:24:31.000Z</time>
      </trkpt>
      <trkpt lat="44.53354" lon="6.4684">
        <ele>795.275248</ele>
        <time>2026-07-27T11:24:33.000Z</time>
      </trkpt>
      <trkpt lat="44.53354" lon="6.46844">
        <ele>795.248551</ele>
        <time>2026-07-27T11:24:33.000Z</time>
      </trkpt>
      <trkpt lat="44.53354" lon="6.46844">
        <ele>795.248551</ele>
        <time>2026-07-27T11:24:33.000Z</time>
      </trkpt>
      <trkpt lat="44.53354" lon="6.46848">
        <ele>795.223095</ele>
        <time>2026-07-27T11:24:35.000Z</time>
      </trkpt>
      <trkpt lat="44.53354" lon="6.46852">
        <ele>795.200123</ele>
        <time>2026-07-27T11:24:36.000Z</time>
      </trkpt>
      <trkpt lat="44.53354" lon="6.46855">
        <ele>795.17653</ele>
        <time>2026-07-27T11:24:37.000Z</time>
      </trkpt>
      <trkpt lat="44.53354" lon="6.46855">
        <ele>795.17653</ele>
        <time>2026-07-27T11:24:37.000Z</time>
      </trkpt>
      <trkpt lat="44.53354" lon="6.4686">
        <ele>795.149833</ele>
        <time>2026-07-27T11:24:38.000Z</time>
      </trkpt>
      <trkpt lat="44.53354" lon="6.46863">
        <ele>795.129965</ele>
        <time>2026-07-27T11:24:39.000Z</time>
      </trkpt>
      <trkpt lat="44.53354" lon="6.46866">
        <ele>795.112235</ele>
        <time>2026-07-27T11:24:40.000Z</time>
      </trkpt>
      <trkpt lat="44.53354" lon="6.46869">
        <ele>795.089614</ele>
        <time>2026-07-27T11:24:40.000Z</time>
      </trkpt>
      <trkpt lat="44.53354" lon="6.46869">
        <ele>795.089614</ele>
        <time>2026-07-27T11:24:40.000Z</time>
      </trkpt>
      <trkpt lat="44.53354" lon="6.46873">
        <ele>795.067884</ele>
        <time>2026-07-27T11:24:42.000Z</time>
      </trkpt>
      <trkpt lat="44.53354" lon="6.46876">
        <ele>795.048637</ele>
        <time>2026-07-27T11:24:42.000Z</time>
      </trkpt>
      <trkpt lat="44.53354" lon="6.4688">
        <ele>795.024424</ele>
        <time>2026-07-27T11:24:44.000Z</time>
      </trkpt>
      <trkpt lat="44.53354" lon="6.46883">
        <ele>795.003314</ele>
        <time>2026-07-27T11:24:44.000Z</time>
      </trkpt>
      <trkpt lat="44.53355" lon="6.46887">
        <ele>794.978343</ele>
        <time>2026-07-27T11:24:46.000Z</time>
      </trkpt>
      <trkpt lat="44.53355" lon="6.46887">
        <ele>794.978343</ele>
        <time>2026-07-27T11:24:46.000Z</time>
      </trkpt>
      <trkpt lat="44.53355" lon="6.46891">
        <ele>794.95475</ele>
        <time>2026-07-27T11:24:47.000Z</time>
      </trkpt>
      <trkpt lat="44.53355" lon="6.46895">
        <ele>794.933019</ele>
        <time>2026-07-27T11:24:48.000Z</time>
      </trkpt>
      <trkpt lat="44.53355" lon="6.46898">
        <ele>794.908806</ele>
        <time>2026-07-27T11:24:49.000Z</time>
      </trkpt>
      <trkpt lat="44.53355" lon="6.46902">
        <ele>794.887076</ele>
        <time>2026-07-27T11:24:50.000Z</time>
      </trkpt>
      <trkpt lat="44.53355" lon="6.46905">
        <ele>794.868127</ele>
        <time>2026-07-27T11:24:51.000Z</time>
      </trkpt>
      <trkpt lat="44.53355" lon="6.46908">
        <ele>794.847956</ele>
        <time>2026-07-27T11:24:52.000Z</time>
      </trkpt>
      <trkpt lat="44.53356" lon="6.46912">
        <ele>794.826561</ele>
        <time>2026-07-27T11:24:53.000Z</time>
      </trkpt>
      <trkpt lat="44.53356" lon="6.46915">
        <ele>794.804553</ele>
        <time>2026-07-27T11:24:54.000Z</time>
      </trkpt>
      <trkpt lat="44.53357" lon="6.46918">
        <ele>794.784364</ele>
        <time>2026-07-27T11:24:55.000Z</time>
      </trkpt>
      <trkpt lat="44.53358" lon="6.46922">
        <ele>794.757991</ele>
        <time>2026-07-27T11:24:56.000Z</time>
      </trkpt>
      <trkpt lat="44.53359" lon="6.46925">
        <ele>794.73782</ele>
        <time>2026-07-27T11:24:56.000Z</time>
      </trkpt>
      <trkpt lat="44.53359" lon="6.46928">
        <ele>794.719982</ele>
        <time>2026-07-27T11:24:58.000Z</time>
      </trkpt>
      <trkpt lat="44.5336" lon="6.46932">
        <ele>794.697361</ele>
        <time>2026-07-27T11:24:59.000Z</time>
      </trkpt>
      <trkpt lat="44.5336" lon="6.46935">
        <ele>794.673356</ele>
        <time>2026-07-27T11:25:00.000Z</time>
      </trkpt>
      <trkpt lat="44.53361" lon="6.46939">
        <ele>794.650121</ele>
        <time>2026-07-27T11:25:01.000Z</time>
      </trkpt>
      <trkpt lat="44.53361" lon="6.46943">
        <ele>794.627001</ele>
        <time>2026-07-27T11:25:02.000Z</time>
      </trkpt>
      <trkpt lat="44.53362" lon="6.46947">
        <ele>794.598229</ele>
        <time>2026-07-27T11:25:03.000Z</time>
      </trkpt>
      <trkpt lat="44.53362" lon="6.46952">
        <ele>794.568225</ele>
        <time>2026-07-27T11:25:04.000Z</time>
      </trkpt>
      <trkpt lat="44.53363" lon="6.46957">
        <ele>794.537015</ele>
        <time>2026-07-27T11:25:05.000Z</time>
      </trkpt>
      <trkpt lat="44.53364" lon="6.46962">
        <ele>794.506891</ele>
        <time>2026-07-27T11:25:06.000Z</time>
      </trkpt>
      <trkpt lat="44.53365" lon="6.46965">
        <ele>794.482291</ele>
        <time>2026-07-27T11:25:07.000Z</time>
      </trkpt>
      <trkpt lat="44.53365" lon="6.46965">
        <ele>794.482291</ele>
        <time>2026-07-27T11:25:07.000Z</time>
      </trkpt>
      <trkpt lat="44.53366" lon="6.4697">
        <ele>794.452167</ele>
        <time>2026-07-27T11:25:08.000Z</time>
      </trkpt>
      <trkpt lat="44.53367" lon="6.46974">
        <ele>794.425775</ele>
        <time>2026-07-27T11:25:09.000Z</time>
      </trkpt>
      <trkpt lat="44.53367" lon="6.46977">
        <ele>794.404399</ele>
        <time>2026-07-27T11:25:10.000Z</time>
      </trkpt>
      <trkpt lat="44.53368" lon="6.46979">
        <ele>794.391502</ele>
        <time>2026-07-27T11:25:10.000Z</time>
      </trkpt>
      <trkpt lat="44.53369" lon="6.46983">
        <ele>794.365698</ele>
        <time>2026-07-27T11:25:13.000Z</time>
      </trkpt>
      <trkpt lat="44.53369" lon="6.46984">
        <ele>794.361973</ele>
        <time>2026-07-27T11:25:13.000Z</time>
      </trkpt>
      <trkpt lat="44.53369" lon="6.46984">
        <ele>794.361973</ele>
        <time>2026-07-27T11:25:13.000Z</time>
      </trkpt>
      <trkpt lat="44.5337" lon="6.46984">
        <ele>794.355131</ele>
        <time>2026-07-27T11:25:15.000Z</time>
      </trkpt>
      <trkpt lat="44.53371" lon="6.46986">
        <ele>794.340277</ele>
        <time>2026-07-27T11:25:16.000Z</time>
      </trkpt>
      <trkpt lat="44.53372" lon="6.46988">
        <ele>794.326023</ele>
        <time>2026-07-27T11:25:17.000Z</time>
      </trkpt>
      <trkpt lat="44.53375" lon="6.46993">
        <ele>794.284048</ele>
        <time>2026-07-27T11:25:19.000Z</time>
      </trkpt>
      <trkpt lat="44.53375" lon="6.46994">
        <ele>794.274893</ele>
        <time>2026-07-27T11:25:20.000Z</time>
      </trkpt>
      <trkpt lat="44.53375" lon="6.46994">
        <ele>794.274893</ele>
        <time>2026-07-27T11:25:21.000Z</time>
      </trkpt>
      <trkpt lat="44.53377" lon="6.46999">
        <ele>794.242494</ele>
        <time>2026-07-27T11:25:22.000Z</time>
      </trkpt>
      <trkpt lat="44.53378" lon="6.46999">
        <ele>794.235652</ele>
        <time>2026-07-27T11:25:23.000Z</time>
      </trkpt>
      <trkpt lat="44.53379" lon="6.47">
        <ele>794.22844</ele>
        <time>2026-07-27T11:25:23.000Z</time>
      </trkpt>
      <trkpt lat="44.53379" lon="6.46999">
        <ele>794.221857</ele>
        <time>2026-07-27T11:25:25.000Z</time>
      </trkpt>
      <trkpt lat="44.53379" lon="6.46999">
        <ele>794.221857</ele>
        <time>2026-07-27T11:25:25.000Z</time>
      </trkpt>
      <trkpt lat="44.53381" lon="6.46999">
        <ele>794.205262</ele>
        <time>2026-07-27T11:25:26.000Z</time>
      </trkpt>
      <trkpt lat="44.53386" lon="6.46997">
        <ele>794.165992</ele>
        <time>2026-07-27T11:25:27.000Z</time>
      </trkpt>
      <trkpt lat="44.5339" lon="6.46995">
        <ele>794.128393</ele>
        <time>2026-07-27T11:25:28.000Z</time>
      </trkpt>
      <trkpt lat="44.53394" lon="6.46993">
        <ele>794.066367</ele>
        <time>2026-07-27T11:25:29.000Z</time>
      </trkpt>
      <trkpt lat="44.53399" lon="6.46992">
        <ele>793.990818</ele>
        <time>2026-07-27T11:25:30.000Z</time>
      </trkpt>
      <trkpt lat="44.53403" lon="6.46991">
        <ele>793.922215</ele>
        <time>2026-07-27T11:25:31.000Z</time>
      </trkpt>
      <trkpt lat="44.53407" lon="6.46991">
        <ele>793.860759</ele>
        <time>2026-07-27T11:25:32.000Z</time>
      </trkpt>
      <trkpt lat="44.53408" lon="6.46991">
        <ele>793.83008</ele>
        <time>2026-07-27T11:25:33.000Z</time>
      </trkpt>
      <trkpt lat="44.53408" lon="6.46991">
        <ele>793.83008</ele>
        <time>2026-07-27T11:25:33.000Z</time>
      </trkpt>
      <trkpt lat="44.53414" lon="6.4699">
        <ele>793.742274</ele>
        <time>2026-07-27T11:25:35.000Z</time>
      </trkpt>
      <trkpt lat="44.53416" lon="6.4699">
        <ele>793.711573</ele>
        <time>2026-07-27T11:25:36.000Z</time>
      </trkpt>
      <trkpt lat="44.53419" lon="6.4699">
        <ele>793.663119</ele>
        <time>2026-07-27T11:25:37.000Z</time>
      </trkpt>
      <trkpt lat="44.53419" lon="6.4699">
        <ele>793.663119</ele>
        <time>2026-07-27T11:25:37.000Z</time>
      </trkpt>
      <trkpt lat="44.53422" lon="6.4699">
        <ele>793.612944</ele>
        <time>2026-07-27T11:25:38.000Z</time>
      </trkpt>
      <trkpt lat="44.53425" lon="6.46989">
        <ele>793.557076</ele>
        <time>2026-07-27T11:25:39.000Z</time>
      </trkpt>
      <trkpt lat="44.53425" lon="6.46989">
        <ele>793.557076</ele>
        <time>2026-07-27T11:25:39.000Z</time>
      </trkpt>
      <trkpt lat="44.53429" lon="6.46989">
        <ele>793.489015</ele>
        <time>2026-07-27T11:25:40.000Z</time>
      </trkpt>
      <trkpt lat="44.53429" lon="6.46989">
        <ele>793.489015</ele>
        <time>2026-07-27T11:25:40.000Z</time>
      </trkpt>
      <trkpt lat="44.53433" lon="6.4699">
        <ele>793.433683</ele>
        <time>2026-07-27T11:25:40.000Z</time>
      </trkpt>
      <trkpt lat="44.53433" lon="6.4699">
        <ele>793.433683</ele>
        <time>2026-07-27T11:25:40.000Z</time>
      </trkpt>
      <trkpt lat="44.53436" lon="6.46992">
        <ele>793.379939</ele>
        <time>2026-07-27T11:25:42.000Z</time>
      </trkpt>
      <trkpt lat="44.53439" lon="6.46994">
        <ele>793.329522</ele>
        <time>2026-07-27T11:25:43.000Z</time>
      </trkpt>
      <trkpt lat="44.53439" lon="6.46994">
        <ele>793.329522</ele>
        <time>2026-07-27T11:25:43.000Z</time>
      </trkpt>
      <trkpt lat="44.53441" lon="6.46997">
        <ele>793.274731</ele>
        <time>2026-07-27T11:25:44.000Z</time>
      </trkpt>
      <trkpt lat="44.53441" lon="6.46997">
        <ele>793.274731</ele>
        <time>2026-07-27T11:25:44.000Z</time>
      </trkpt>
      <trkpt lat="44.53444" lon="6.47001">
        <ele>793.214105</ele>
        <time>2026-07-27T11:25:45.000Z</time>
      </trkpt>
      <trkpt lat="44.53444" lon="6.47001">
        <ele>793.214105</ele>
        <time>2026-07-27T11:25:45.000Z</time>
      </trkpt>
      <trkpt lat="44.53445" lon="6.47005">
        <ele>793.163468</ele>
        <time>2026-07-27T11:25:46.000Z</time>
      </trkpt>
      <trkpt lat="44.53445" lon="6.47005">
        <ele>793.163468</ele>
        <time>2026-07-27T11:25:46.000Z</time>
      </trkpt>
      <trkpt lat="44.53447" lon="6.47007">
        <ele>793.119799</ele>
        <time>2026-07-27T11:25:47.000Z</time>
      </trkpt>
      <trkpt lat="44.53447" lon="6.47007">
        <ele>793.119799</ele>
        <time>2026-07-27T11:25:47.000Z</time>
      </trkpt>
      <trkpt lat="44.5345" lon="6.4701">
        <ele>793.075488</ele>
        <time>2026-07-27T11:25:48.000Z</time>
      </trkpt>
      <trkpt lat="44.53452" lon="6.47011">
        <ele>793.038469</ele>
        <time>2026-07-27T11:25:49.000Z</time>
      </trkpt>
      <trkpt lat="44.53452" lon="6.47011">
        <ele>793.038469</ele>
        <time>2026-07-27T11:25:49.000Z</time>
      </trkpt>
      <trkpt lat="44.53454" lon="6.47014">
        <ele>792.988052</ele>
        <time>2026-07-27T11:25:50.000Z</time>
      </trkpt>
      <trkpt lat="44.53454" lon="6.47014">
        <ele>792.988052</ele>
        <time>2026-07-27T11:25:50.000Z</time>
      </trkpt>
      <trkpt lat="44.53458" lon="6.47016">
        <ele>792.928522</ele>
        <time>2026-07-27T11:25:51.000Z</time>
      </trkpt>
      <trkpt lat="44.53458" lon="6.47016">
        <ele>792.928522</ele>
        <time>2026-07-27T11:25:51.000Z</time>
      </trkpt>
      <trkpt lat="44.53461" lon="6.47017">
        <ele>792.874348</ele>
        <time>2026-07-27T11:25:52.000Z</time>
      </trkpt>
      <trkpt lat="44.53464" lon="6.4702">
        <ele>792.81389</ele>
        <time>2026-07-27T11:25:53.000Z</time>
      </trkpt>
      <trkpt lat="44.53464" lon="6.4702">
        <ele>792.81389</ele>
        <time>2026-07-27T11:25:53.000Z</time>
      </trkpt>
      <trkpt lat="44.53467" lon="6.47022">
        <ele>792.754972</ele>
        <time>2026-07-27T11:25:54.000Z</time>
      </trkpt>
      <trkpt lat="44.53467" lon="6.47022">
        <ele>792.754972</ele>
        <time>2026-07-27T11:25:54.000Z</time>
      </trkpt>
      <trkpt lat="44.5347" lon="6.47025">
        <ele>792.696791</ele>
        <time>2026-07-27T11:25:55.000Z</time>
      </trkpt>
      <trkpt lat="44.53473" lon="6.47028">
        <ele>792.636627</ele>
        <time>2026-07-27T11:25:56.000Z</time>
      </trkpt>
      <trkpt lat="44.53473" lon="6.47028">
        <ele>792.636627</ele>
        <time>2026-07-27T11:25:56.000Z</time>
      </trkpt>
      <trkpt lat="44.53476" lon="6.47031">
        <ele>792.576464</ele>
        <time>2026-07-27T11:25:57.000Z</time>
      </trkpt>
      <trkpt lat="44.5348" lon="6.47035">
        <ele>792.501081</ele>
        <time>2026-07-27T11:25:58.000Z</time>
      </trkpt>
      <trkpt lat="44.5348" lon="6.47035">
        <ele>792.501081</ele>
        <time>2026-07-27T11:25:58.000Z</time>
      </trkpt>
      <trkpt lat="44.53483" lon="6.47039">
        <ele>792.43504</ele>
        <time>2026-07-27T11:25:59.000Z</time>
      </trkpt>
      <trkpt lat="44.53483" lon="6.47039">
        <ele>792.43504</ele>
        <time>2026-07-27T11:25:59.000Z</time>
      </trkpt>
      <trkpt lat="44.53486" lon="6.47042">
        <ele>792.370059</ele>
        <time>2026-07-27T11:26:00.000Z</time>
      </trkpt>
      <trkpt lat="44.53489" lon="6.47045">
        <ele>792.318888</ele>
        <time>2026-07-27T11:26:01.000Z</time>
      </trkpt>
      <trkpt lat="44.53492" lon="6.47049">
        <ele>792.250095</ele>
        <time>2026-07-27T11:26:02.000Z</time>
      </trkpt>
      <trkpt lat="44.53495" lon="6.47054">
        <ele>792.172689</ele>
        <time>2026-07-27T11:26:03.000Z</time>
      </trkpt>
      <trkpt lat="44.53498" lon="6.47057">
        <ele>792.113329</ele>
        <time>2026-07-27T11:26:04.000Z</time>
      </trkpt>
      <trkpt lat="44.53501" lon="6.47061">
        <ele>792.055146</ele>
        <time>2026-07-27T11:26:05.000Z</time>
      </trkpt>
      <trkpt lat="44.53504" lon="6.47064">
        <ele>791.993675</ele>
        <time>2026-07-27T11:26:06.000Z</time>
      </trkpt>
      <trkpt lat="44.53504" lon="6.47064">
        <ele>791.993675</ele>
        <time>2026-07-27T11:26:06.000Z</time>
      </trkpt>
      <trkpt lat="44.53507" lon="6.47067">
        <ele>791.92993</ele>
        <time>2026-07-27T11:26:07.000Z</time>
      </trkpt>
      <trkpt lat="44.5351" lon="6.4707">
        <ele>791.871612</ele>
        <time>2026-07-27T11:26:08.000Z</time>
      </trkpt>
      <trkpt lat="44.53513" lon="6.47072">
        <ele>791.813875</ele>
        <time>2026-07-27T11:26:09.000Z</time>
      </trkpt>
      <trkpt lat="44.53517" lon="6.47075">
        <ele>791.742897</ele>
        <time>2026-07-27T11:26:09.000Z</time>
      </trkpt>
      <trkpt lat="44.5352" lon="6.47079">
        <ele>791.673416</ele>
        <time>2026-07-27T11:26:11.000Z</time>
      </trkpt>
      <trkpt lat="44.53523" lon="6.47083">
        <ele>791.609164</ele>
        <time>2026-07-27T11:26:12.000Z</time>
      </trkpt>
      <trkpt lat="44.53523" lon="6.47083">
        <ele>791.609164</ele>
        <time>2026-07-27T11:26:12.000Z</time>
      </trkpt>
      <trkpt lat="44.53526" lon="6.47087">
        <ele>791.542335</ele>
        <time>2026-07-27T11:26:13.000Z</time>
      </trkpt>
      <trkpt lat="44.53529" lon="6.47091">
        <ele>791.472747</ele>
        <time>2026-07-27T11:26:14.000Z</time>
      </trkpt>
      <trkpt lat="44.53531" lon="6.47095">
        <ele>791.420261</ele>
        <time>2026-07-27T11:26:15.000Z</time>
      </trkpt>
      <trkpt lat="44.53531" lon="6.47095">
        <ele>791.420261</ele>
        <time>2026-07-27T11:26:15.000Z</time>
      </trkpt>
      <trkpt lat="44.53533" lon="6.47098">
        <ele>791.374071</ele>
        <time>2026-07-27T11:26:16.000Z</time>
      </trkpt>
      <trkpt lat="44.53533" lon="6.47098">
        <ele>791.374071</ele>
        <time>2026-07-27T11:26:17.000Z</time>
      </trkpt>
      <trkpt lat="44.53533" lon="6.47098">
        <ele>791.374071</ele>
        <time>2026-07-27T11:26:20.000Z</time>
      </trkpt>
      <trkpt lat="44.53535" lon="6.47102">
        <ele>791.313873</ele>
        <time>2026-07-27T11:26:20.000Z</time>
      </trkpt>
      <trkpt lat="44.53535" lon="6.47102">
        <ele>791.313873</ele>
        <time>2026-07-27T11:26:21.000Z</time>
      </trkpt>
      <trkpt lat="44.53535" lon="6.47102">
        <ele>791.313873</ele>
        <time>2026-07-27T11:26:22.000Z</time>
      </trkpt>
      <trkpt lat="44.53534" lon="6.47104">
        <ele>791.281988</ele>
        <time>2026-07-27T11:26:23.000Z</time>
      </trkpt>
      <trkpt lat="44.53531" lon="6.47106">
        <ele>791.23742</ele>
        <time>2026-07-27T11:26:25.000Z</time>
      </trkpt>
      <trkpt lat="44.53531" lon="6.47106">
        <ele>791.23742</ele>
        <time>2026-07-27T11:26:25.000Z</time>
      </trkpt>
      <trkpt lat="44.5353" lon="6.47106">
        <ele>791.217504</ele>
        <time>2026-07-27T11:26:27.000Z</time>
      </trkpt>
      <trkpt lat="44.5353" lon="6.47106">
        <ele>791.219222</ele>
        <time>2026-07-27T11:26:27.000Z</time>
      </trkpt>
      <trkpt lat="44.53528" lon="6.47106">
        <ele>791.281924</ele>
        <time>2026-07-27T11:26:28.000Z</time>
      </trkpt>
      <trkpt lat="44.53526" lon="6.47106">
        <ele>791.331509</ele>
        <time>2026-07-27T11:26:30.000Z</time>
      </trkpt>
      <trkpt lat="44.53525" lon="6.47106">
        <ele>791.380927</ele>
        <time>2026-07-27T11:26:31.000Z</time>
      </trkpt>
      <trkpt lat="44.53523" lon="6.47107">
        <ele>791.430512</ele>
        <time>2026-07-27T11:26:32.000Z</time>
      </trkpt>
      <trkpt lat="44.53523" lon="6.47107">
        <ele>791.430512</ele>
        <time>2026-07-27T11:26:32.000Z</time>
      </trkpt>
      <trkpt lat="44.53521" lon="6.47107">
        <ele>791.496371</ele>
        <time>2026-07-27T11:26:33.000Z</time>
      </trkpt>
      <trkpt lat="44.53519" lon="6.47107">
        <ele>791.568807</ele>
        <time>2026-07-27T11:26:33.000Z</time>
      </trkpt>
      <trkpt lat="44.53517" lon="6.47107">
        <ele>791.632033</ele>
        <time>2026-07-27T11:26:35.000Z</time>
      </trkpt>
      <trkpt lat="44.53516" lon="6.47107">
        <ele>791.684895</ele>
        <time>2026-07-27T11:26:36.000Z</time>
      </trkpt>
      <trkpt lat="44.53514" lon="6.47107">
        <ele>791.736225</ele>
        <time>2026-07-27T11:26:36.000Z</time>
      </trkpt>
      <trkpt lat="44.53511" lon="6.47108">
        <ele>791.825356</ele>
        <time>2026-07-27T11:26:38.000Z</time>
      </trkpt>
      <trkpt lat="44.53511" lon="6.47108">
        <ele>791.825356</ele>
        <time>2026-07-27T11:26:38.000Z</time>
      </trkpt>
      <trkpt lat="44.53509" lon="6.47108">
        <ele>791.910918</ele>
        <time>2026-07-27T11:26:39.000Z</time>
      </trkpt>
      <trkpt lat="44.53507" lon="6.47108">
        <ele>791.986933</ele>
        <time>2026-07-27T11:26:40.000Z</time>
      </trkpt>
      <trkpt lat="44.53503" lon="6.47108">
        <ele>792.08938</ele>
        <time>2026-07-27T11:26:41.000Z</time>
      </trkpt>
      <trkpt lat="44.53501" lon="6.47109">
        <ele>792.178511</ele>
        <time>2026-07-27T11:26:42.000Z</time>
      </trkpt>
      <trkpt lat="44.53501" lon="6.47109">
        <ele>792.178511</ele>
        <time>2026-07-27T11:26:42.000Z</time>
      </trkpt>
      <trkpt lat="44.53499" lon="6.47109">
        <ele>792.250909</ele>
        <time>2026-07-27T11:26:42.000Z</time>
      </trkpt>
      <trkpt lat="44.53495" lon="6.47109">
        <ele>792.353033</ele>
        <time>2026-07-27T11:26:43.000Z</time>
      </trkpt>
      <trkpt lat="44.53495" lon="6.47109">
        <ele>792.353033</ele>
        <time>2026-07-27T11:26:43.000Z</time>
      </trkpt>
      <trkpt lat="44.53492" lon="6.47109">
        <ele>792.452203</ele>
        <time>2026-07-27T11:26:45.000Z</time>
      </trkpt>
      <trkpt lat="44.5349" lon="6.4711">
        <ele>792.541827</ele>
        <time>2026-07-27T11:26:46.000Z</time>
      </trkpt>
      <trkpt lat="44.5349" lon="6.4711">
        <ele>792.541827</ele>
        <time>2026-07-27T11:26:46.000Z</time>
      </trkpt>
      <trkpt lat="44.53487" lon="6.4711">
        <ele>792.617661</ele>
        <time>2026-07-27T11:26:47.000Z</time>
      </trkpt>
      <trkpt lat="44.53484" lon="6.4711">
        <ele>792.71992</ele>
        <time>2026-07-27T11:26:48.000Z</time>
      </trkpt>
      <trkpt lat="44.53484" lon="6.4711">
        <ele>792.71992</ele>
        <time>2026-07-27T11:26:48.000Z</time>
      </trkpt>
      <trkpt lat="44.53482" lon="6.47111">
        <ele>792.80561</ele>
        <time>2026-07-27T11:26:49.000Z</time>
      </trkpt>
      <trkpt lat="44.53479" lon="6.47111">
        <ele>792.894493</ele>
        <time>2026-07-27T11:26:50.000Z</time>
      </trkpt>
      <trkpt lat="44.53479" lon="6.47111">
        <ele>792.894493</ele>
        <time>2026-07-27T11:26:50.000Z</time>
      </trkpt>
      <trkpt lat="44.53476" lon="6.4711">
        <ele>792.99333</ele>
        <time>2026-07-27T11:26:51.000Z</time>
      </trkpt>
      <trkpt lat="44.53473" lon="6.47111">
        <ele>793.082214</ele>
        <time>2026-07-27T11:26:52.000Z</time>
      </trkpt>
      <trkpt lat="44.53473" lon="6.47111">
        <ele>793.082214</ele>
        <time>2026-07-27T11:26:52.000Z</time>
      </trkpt>
      <trkpt lat="44.53471" lon="6.47111">
        <ele>793.171066</ele>
        <time>2026-07-27T11:26:53.000Z</time>
      </trkpt>
      <trkpt lat="44.53471" lon="6.47111">
        <ele>793.171066</ele>
        <time>2026-07-27T11:26:53.000Z</time>
      </trkpt>
      <trkpt lat="44.53468" lon="6.47111">
        <ele>793.269791</ele>
        <time>2026-07-27T11:26:54.000Z</time>
      </trkpt>
      <trkpt lat="44.53465" lon="6.47111">
        <ele>793.358644</ele>
        <time>2026-07-27T11:26:55.000Z</time>
      </trkpt>
      <trkpt lat="44.53465" lon="6.47111">
        <ele>793.358644</ele>
        <time>2026-07-27T11:26:55.000Z</time>
      </trkpt>
      <trkpt lat="44.53462" lon="6.47111">
        <ele>793.46066</ele>
        <time>2026-07-27T11:26:56.000Z</time>
      </trkpt>
      <trkpt lat="44.53462" lon="6.47111">
        <ele>793.46066</ele>
        <time>2026-07-27T11:26:56.000Z</time>
      </trkpt>
      <trkpt lat="44.53458" lon="6.47111">
        <ele>793.572548</ele>
        <time>2026-07-27T11:26:57.000Z</time>
      </trkpt>
      <trkpt lat="44.53456" lon="6.4711">
        <ele>793.661432</ele>
        <time>2026-07-27T11:26:58.000Z</time>
      </trkpt>
      <trkpt lat="44.53456" lon="6.4711">
        <ele>793.661432</ele>
        <time>2026-07-27T11:26:58.000Z</time>
      </trkpt>
      <trkpt lat="44.53452" lon="6.4711">
        <ele>793.773542</ele>
        <time>2026-07-27T11:26:59.000Z</time>
      </trkpt>
      <trkpt lat="44.53452" lon="6.4711">
        <ele>793.773542</ele>
        <time>2026-07-27T11:26:59.000Z</time>
      </trkpt>
      <trkpt lat="44.53449" lon="6.4711">
        <ele>793.88543</ele>
        <time>2026-07-27T11:27:00.000Z</time>
      </trkpt>
      <trkpt lat="44.53446" lon="6.4711">
        <ele>793.987554</ele>
        <time>2026-07-27T11:27:01.000Z</time>
      </trkpt>
      <trkpt lat="44.53446" lon="6.4711">
        <ele>793.987554</ele>
        <time>2026-07-27T11:27:01.000Z</time>
      </trkpt>
      <trkpt lat="44.53442" lon="6.4711">
        <ele>794.099541</ele>
        <time>2026-07-27T11:27:02.000Z</time>
      </trkpt>
      <trkpt lat="44.53442" lon="6.4711">
        <ele>794.099541</ele>
        <time>2026-07-27T11:27:02.000Z</time>
      </trkpt>
      <trkpt lat="44.5344" lon="6.47109">
        <ele>794.188671</ele>
        <time>2026-07-27T11:27:03.000Z</time>
      </trkpt>
      <trkpt lat="44.53437" lon="6.47109">
        <ele>794.277802</ele>
        <time>2026-07-27T11:27:04.000Z</time>
      </trkpt>
      <trkpt lat="44.53437" lon="6.47109">
        <ele>794.277802</ele>
        <time>2026-07-27T11:27:04.000Z</time>
      </trkpt>
      <trkpt lat="44.53434" lon="6.47109">
        <ele>794.363877</ele>
        <time>2026-07-27T11:27:05.000Z</time>
      </trkpt>
      <trkpt lat="44.53434" lon="6.47109">
        <ele>794.363877</ele>
        <time>2026-07-27T11:27:05.000Z</time>
      </trkpt>
      <trkpt lat="44.53433" lon="6.47109">
        <ele>794.426447</ele>
        <time>2026-07-27T11:27:06.000Z</time>
      </trkpt>
      <trkpt lat="44.53431" lon="6.47109">
        <ele>794.47993</ele>
        <time>2026-07-27T11:27:07.000Z</time>
      </trkpt>
      <trkpt lat="44.53431" lon="6.47109">
        <ele>794.47993</ele>
        <time>2026-07-27T11:27:07.000Z</time>
      </trkpt>
      <trkpt lat="44.5343" lon="6.4711">
        <ele>794.519679</ele>
        <time>2026-07-27T11:27:08.000Z</time>
      </trkpt>
      <trkpt lat="44.5343" lon="6.4711">
        <ele>794.519679</ele>
        <time>2026-07-27T11:27:08.000Z</time>
      </trkpt>
      <trkpt lat="44.53428" lon="6.47111">
        <ele>794.576504</ele>
        <time>2026-07-27T11:27:09.000Z</time>
      </trkpt>
      <trkpt lat="44.53427" lon="6.47113">
        <ele>794.639641</ele>
        <time>2026-07-27T11:27:10.000Z</time>
      </trkpt>
      <trkpt lat="44.53427" lon="6.47113">
        <ele>794.639641</ele>
        <time>2026-07-27T11:27:10.000Z</time>
      </trkpt>
      <trkpt lat="44.53426" lon="6.47116">
        <ele>794.709246</ele>
        <time>2026-07-27T11:27:11.000Z</time>
      </trkpt>
      <trkpt lat="44.53426" lon="6.4712">
        <ele>794.792398</ele>
        <time>2026-07-27T11:27:12.000Z</time>
      </trkpt>
      <trkpt lat="44.53426" lon="6.4712">
        <ele>794.792398</ele>
        <time>2026-07-27T11:27:12.000Z</time>
      </trkpt>
      <trkpt lat="44.53426" lon="6.47124">
        <ele>794.89645</ele>
        <time>2026-07-27T11:27:13.000Z</time>
      </trkpt>
      <trkpt lat="44.53425" lon="6.47128">
        <ele>794.99266</ele>
        <time>2026-07-27T11:27:14.000Z</time>
      </trkpt>
      <trkpt lat="44.53425" lon="6.47128">
        <ele>794.99266</ele>
        <time>2026-07-27T11:27:14.000Z</time>
      </trkpt>
      <trkpt lat="44.53424" lon="6.47132">
        <ele>795.094641</ele>
        <time>2026-07-27T11:27:15.000Z</time>
      </trkpt>
      <trkpt lat="44.53423" lon="6.47137">
        <ele>795.22509</ele>
        <time>2026-07-27T11:27:16.000Z</time>
      </trkpt>
      <trkpt lat="44.53423" lon="6.47137">
        <ele>795.22509</ele>
        <time>2026-07-27T11:27:16.000Z</time>
      </trkpt>
      <trkpt lat="44.53422" lon="6.47142">
        <ele>795.340458</ele>
        <time>2026-07-27T11:27:17.000Z</time>
      </trkpt>
      <trkpt lat="44.53421" lon="6.47148">
        <ele>795.476737</ele>
        <time>2026-07-27T11:27:18.000Z</time>
      </trkpt>
      <trkpt lat="44.53421" lon="6.47148">
        <ele>795.476737</ele>
        <time>2026-07-27T11:27:18.000Z</time>
      </trkpt>
      <trkpt lat="44.53421" lon="6.47154">
        <ele>795.622177</ele>
        <time>2026-07-27T11:27:19.000Z</time>
      </trkpt>
      <trkpt lat="44.53421" lon="6.4716">
        <ele>795.765272</ele>
        <time>2026-07-27T11:27:20.000Z</time>
      </trkpt>
      <trkpt lat="44.53421" lon="6.4716">
        <ele>795.765272</ele>
        <time>2026-07-27T11:27:20.000Z</time>
      </trkpt>
      <trkpt lat="44.53421" lon="6.47166">
        <ele>795.908971</ele>
        <time>2026-07-27T11:27:21.000Z</time>
      </trkpt>
      <trkpt lat="44.53421" lon="6.47172">
        <ele>796.047374</ele>
        <time>2026-07-27T11:27:22.000Z</time>
      </trkpt>
      <trkpt lat="44.53421" lon="6.47172">
        <ele>796.047374</ele>
        <time>2026-07-27T11:27:22.000Z</time>
      </trkpt>
      <trkpt lat="44.53421" lon="6.47178">
        <ele>796.185777</ele>
        <time>2026-07-27T11:27:23.000Z</time>
      </trkpt>
      <trkpt lat="44.53421" lon="6.47178">
        <ele>796.185777</ele>
        <time>2026-07-27T11:27:23.000Z</time>
      </trkpt>
      <trkpt lat="44.53421" lon="6.47184">
        <ele>796.324804</ele>
        <time>2026-07-27T11:27:24.000Z</time>
      </trkpt>
      <trkpt lat="44.53421" lon="6.4719">
        <ele>796.465553</ele>
        <time>2026-07-27T11:27:25.000Z</time>
      </trkpt>
      <trkpt lat="44.53421" lon="6.4719">
        <ele>796.465553</ele>
        <time>2026-07-27T11:27:25.000Z</time>
      </trkpt>
      <trkpt lat="44.5342" lon="6.47196">
        <ele>796.604308</ele>
        <time>2026-07-27T11:27:26.000Z</time>
      </trkpt>
      <trkpt lat="44.5342" lon="6.47196">
        <ele>796.604308</ele>
        <time>2026-07-27T11:27:26.000Z</time>
      </trkpt>
      <trkpt lat="44.5342" lon="6.47201">
        <ele>796.735673</ele>
        <time>2026-07-27T11:27:27.000Z</time>
      </trkpt>
      <trkpt lat="44.5342" lon="6.47201">
        <ele>796.735673</ele>
        <time>2026-07-27T11:27:27.000Z</time>
      </trkpt>
      <trkpt lat="44.5342" lon="6.47207">
        <ele>796.874701</ele>
        <time>2026-07-27T11:27:28.000Z</time>
      </trkpt>
      <trkpt lat="44.5342" lon="6.47207">
        <ele>796.874701</ele>
        <time>2026-07-27T11:27:28.000Z</time>
      </trkpt>
      <trkpt lat="44.5342" lon="6.47213">
        <ele>797.009059</ele>
        <time>2026-07-27T11:27:29.000Z</time>
      </trkpt>
      <trkpt lat="44.5342" lon="6.47213">
        <ele>797.009059</ele>
        <time>2026-07-27T11:27:29.000Z</time>
      </trkpt>
      <trkpt lat="44.5342" lon="6.47219">
        <ele>797.141164</ele>
        <time>2026-07-27T11:27:30.000Z</time>
      </trkpt>
      <trkpt lat="44.5342" lon="6.47219">
        <ele>797.141164</ele>
        <time>2026-07-27T11:27:30.000Z</time>
      </trkpt>
      <trkpt lat="44.5342" lon="6.47224">
        <ele>797.276854</ele>
        <time>2026-07-27T11:27:31.000Z</time>
      </trkpt>
      <trkpt lat="44.5342" lon="6.47224">
        <ele>797.276854</ele>
        <time>2026-07-27T11:27:31.000Z</time>
      </trkpt>
      <trkpt lat="44.53421" lon="6.47231">
        <ele>797.426439</ele>
        <time>2026-07-27T11:27:32.000Z</time>
      </trkpt>
      <trkpt lat="44.53421" lon="6.47231">
        <ele>797.426439</ele>
        <time>2026-07-27T11:27:32.000Z</time>
      </trkpt>
      <trkpt lat="44.53421" lon="6.47236">
        <ele>797.554368</ele>
        <time>2026-07-27T11:27:33.000Z</time>
      </trkpt>
      <trkpt lat="44.53421" lon="6.47236">
        <ele>797.554368</ele>
        <time>2026-07-27T11:27:33.000Z</time>
      </trkpt>
      <trkpt lat="44.53421" lon="6.47241">
        <ele>797.671151</ele>
        <time>2026-07-27T11:27:34.000Z</time>
      </trkpt>
      <trkpt lat="44.53421" lon="6.47241">
        <ele>797.671151</ele>
        <time>2026-07-27T11:27:34.000Z</time>
      </trkpt>
      <trkpt lat="44.53423" lon="6.47246">
        <ele>797.799652</ele>
        <time>2026-07-27T11:27:35.000Z</time>
      </trkpt>
      <trkpt lat="44.53423" lon="6.47246">
        <ele>797.799652</ele>
        <time>2026-07-27T11:27:35.000Z</time>
      </trkpt>
      <trkpt lat="44.53424" lon="6.47251">
        <ele>797.922397</ele>
        <time>2026-07-27T11:27:36.000Z</time>
      </trkpt>
      <trkpt lat="44.53424" lon="6.47251">
        <ele>797.922397</ele>
        <time>2026-07-27T11:27:36.000Z</time>
      </trkpt>
      <trkpt lat="44.53425" lon="6.47256">
        <ele>798.057492</ele>
        <time>2026-07-27T11:27:37.000Z</time>
      </trkpt>
      <trkpt lat="44.53425" lon="6.47256">
        <ele>798.057492</ele>
        <time>2026-07-27T11:27:37.000Z</time>
      </trkpt>
      <trkpt lat="44.53426" lon="6.47261">
        <ele>798.18352</ele>
        <time>2026-07-27T11:27:38.000Z</time>
      </trkpt>
      <trkpt lat="44.53426" lon="6.47261">
        <ele>798.18352</ele>
        <time>2026-07-27T11:27:38.000Z</time>
      </trkpt>
      <trkpt lat="44.53426" lon="6.47266">
        <ele>798.302717</ele>
        <time>2026-07-27T11:27:39.000Z</time>
      </trkpt>
      <trkpt lat="44.53426" lon="6.47266">
        <ele>798.302717</ele>
        <time>2026-07-27T11:27:39.000Z</time>
      </trkpt>
      <trkpt lat="44.53425" lon="6.47272">
        <ele>798.436719</ele>
        <time>2026-07-27T11:27:40.000Z</time>
      </trkpt>
      <trkpt lat="44.53425" lon="6.47272">
        <ele>798.436719</ele>
        <time>2026-07-27T11:27:40.000Z</time>
      </trkpt>
      <trkpt lat="44.53423" lon="6.47276">
        <ele>798.560322</ele>
        <time>2026-07-27T11:27:41.000Z</time>
      </trkpt>
      <trkpt lat="44.53423" lon="6.47276">
        <ele>798.560322</ele>
        <time>2026-07-27T11:27:41.000Z</time>
      </trkpt>
      <trkpt lat="44.5342" lon="6.47279">
        <ele>798.675274</ele>
        <time>2026-07-27T11:27:42.000Z</time>
      </trkpt>
      <trkpt lat="44.5342" lon="6.47279">
        <ele>798.675274</ele>
        <time>2026-07-27T11:27:42.000Z</time>
      </trkpt>
      <trkpt lat="44.53418" lon="6.47281">
        <ele>798.779045</ele>
        <time>2026-07-27T11:27:43.000Z</time>
      </trkpt>
      <trkpt lat="44.53418" lon="6.47281">
        <ele>798.779045</ele>
        <time>2026-07-27T11:27:43.000Z</time>
      </trkpt>
      <trkpt lat="44.53415" lon="6.47283">
        <ele>798.877403</ele>
        <time>2026-07-27T11:27:43.000Z</time>
      </trkpt>
      <trkpt lat="44.53415" lon="6.47283">
        <ele>798.877403</ele>
        <time>2026-07-27T11:27:43.000Z</time>
      </trkpt>
      <trkpt lat="44.53413" lon="6.47285">
        <ele>798.971275</ele>
        <time>2026-07-27T11:27:45.000Z</time>
      </trkpt>
      <trkpt lat="44.53413" lon="6.47285">
        <ele>798.971275</ele>
        <time>2026-07-27T11:27:45.000Z</time>
      </trkpt>
      <trkpt lat="44.53411" lon="6.47289">
        <ele>799.066003</ele>
        <time>2026-07-27T11:27:45.000Z</time>
      </trkpt>
      <trkpt lat="44.53411" lon="6.47289">
        <ele>799.066003</ele>
        <time>2026-07-27T11:27:45.000Z</time>
      </trkpt>
      <trkpt lat="44.5341" lon="6.47293">
        <ele>799.168995</ele>
        <time>2026-07-27T11:27:47.000Z</time>
      </trkpt>
      <trkpt lat="44.5341" lon="6.47293">
        <ele>799.168995</ele>
        <time>2026-07-27T11:27:47.000Z</time>
      </trkpt>
      <trkpt lat="44.5341" lon="6.47297">
        <ele>799.254281</ele>
        <time>2026-07-27T11:27:48.000Z</time>
      </trkpt>
      <trkpt lat="44.5341" lon="6.47297">
        <ele>799.254281</ele>
        <time>2026-07-27T11:27:48.000Z</time>
      </trkpt>
      <trkpt lat="44.53411" lon="6.47301">
        <ele>799.366455</ele>
        <time>2026-07-27T11:27:49.000Z</time>
      </trkpt>
      <trkpt lat="44.53411" lon="6.47301">
        <ele>799.366455</ele>
        <time>2026-07-27T11:27:49.000Z</time>
      </trkpt>
      <trkpt lat="44.53412" lon="6.47305">
        <ele>799.475854</ele>
        <time>2026-07-27T11:27:50.000Z</time>
      </trkpt>
      <trkpt lat="44.53412" lon="6.47305">
        <ele>799.475854</ele>
        <time>2026-07-27T11:27:50.000Z</time>
      </trkpt>
      <trkpt lat="44.53413" lon="6.47311">
        <ele>799.604356</ele>
        <time>2026-07-27T11:27:51.000Z</time>
      </trkpt>
      <trkpt lat="44.53413" lon="6.47311">
        <ele>799.604356</ele>
        <time>2026-07-27T11:27:51.000Z</time>
      </trkpt>
      <trkpt lat="44.53415" lon="6.47316">
        <ele>799.753428</ele>
        <time>2026-07-27T11:27:52.000Z</time>
      </trkpt>
      <trkpt lat="44.53418" lon="6.47323">
        <ele>799.921116</ele>
        <time>2026-07-27T11:27:53.000Z</time>
      </trkpt>
      <trkpt lat="44.53418" lon="6.47323">
        <ele>799.921116</ele>
        <time>2026-07-27T11:27:53.000Z</time>
      </trkpt>
      <trkpt lat="44.5342" lon="6.47329">
        <ele>800.0973</ele>
        <time>2026-07-27T11:27:54.000Z</time>
      </trkpt>
      <trkpt lat="44.53423" lon="6.47336">
        <ele>800.286755</ele>
        <time>2026-07-27T11:27:55.000Z</time>
      </trkpt>
      <trkpt lat="44.53423" lon="6.47336">
        <ele>800.286755</ele>
        <time>2026-07-27T11:27:55.000Z</time>
      </trkpt>
      <trkpt lat="44.53428" lon="6.47343">
        <ele>800.499913</ele>
        <time>2026-07-27T11:27:56.000Z</time>
      </trkpt>
      <trkpt lat="44.53431" lon="6.47349">
        <ele>800.702752</ele>
        <time>2026-07-27T11:27:57.000Z</time>
      </trkpt>
      <trkpt lat="44.53431" lon="6.47349">
        <ele>800.702752</ele>
        <time>2026-07-27T11:27:57.000Z</time>
      </trkpt>
      <trkpt lat="44.53436" lon="6.47356">
        <ele>800.923131</ele>
        <time>2026-07-27T11:27:58.000Z</time>
      </trkpt>
      <trkpt lat="44.53436" lon="6.47356">
        <ele>800.923131</ele>
        <time>2026-07-27T11:27:58.000Z</time>
      </trkpt>
      <trkpt lat="44.53441" lon="6.47363">
        <ele>801.152188</ele>
        <time>2026-07-27T11:27:59.000Z</time>
      </trkpt>
      <trkpt lat="44.53445" lon="6.47371">
        <ele>801.389735</ele>
        <time>2026-07-27T11:28:00.000Z</time>
      </trkpt>
      <trkpt lat="44.53445" lon="6.47371">
        <ele>801.389735</ele>
        <time>2026-07-27T11:28:00.000Z</time>
      </trkpt>
      <trkpt lat="44.53451" lon="6.47378">
        <ele>801.643952</ele>
        <time>2026-07-27T11:28:01.000Z</time>
      </trkpt>
      <trkpt lat="44.53451" lon="6.47378">
        <ele>801.643952</ele>
        <time>2026-07-27T11:28:01.000Z</time>
      </trkpt>
      <trkpt lat="44.53455" lon="6.47385">
        <ele>801.855324</ele>
        <time>2026-07-27T11:28:02.000Z</time>
      </trkpt>
      <trkpt lat="44.53455" lon="6.47385">
        <ele>801.855324</ele>
        <time>2026-07-27T11:28:02.000Z</time>
      </trkpt>
      <trkpt lat="44.5346" lon="6.47392">
        <ele>802.07514</ele>
        <time>2026-07-27T11:28:03.000Z</time>
      </trkpt>
      <trkpt lat="44.5346" lon="6.47392">
        <ele>802.07514</ele>
        <time>2026-07-27T11:28:03.000Z</time>
      </trkpt>
      <trkpt lat="44.53464" lon="6.47397">
        <ele>802.277557</ele>
        <time>2026-07-27T11:28:04.000Z</time>
      </trkpt>
      <trkpt lat="44.53464" lon="6.47397">
        <ele>802.277557</ele>
        <time>2026-07-27T11:28:04.000Z</time>
      </trkpt>
      <trkpt lat="44.53469" lon="6.47404">
        <ele>802.512321</ele>
        <time>2026-07-27T11:28:05.000Z</time>
      </trkpt>
      <trkpt lat="44.53474" lon="6.47411">
        <ele>802.743061</ele>
        <time>2026-07-27T11:28:06.000Z</time>
      </trkpt>
      <trkpt lat="44.53474" lon="6.47411">
        <ele>802.743061</ele>
        <time>2026-07-27T11:28:06.000Z</time>
      </trkpt>
      <trkpt lat="44.53478" lon="6.47418">
        <ele>802.949149</ele>
        <time>2026-07-27T11:28:07.000Z</time>
      </trkpt>
      <trkpt lat="44.53482" lon="6.47423">
        <ele>803.101529</ele>
        <time>2026-07-27T11:28:08.000Z</time>
      </trkpt>
      <trkpt lat="44.53487" lon="6.47429">
        <ele>803.049722</ele>
        <time>2026-07-27T11:28:09.000Z</time>
      </trkpt>
      <trkpt lat="44.53491" lon="6.47435">
        <ele>803.004688</ele>
        <time>2026-07-27T11:28:10.000Z</time>
      </trkpt>
      <trkpt lat="44.53495" lon="6.47441">
        <ele>802.956896</ele>
        <time>2026-07-27T11:28:11.000Z</time>
      </trkpt>
      <trkpt lat="44.535" lon="6.47446">
        <ele>802.907043</ele>
        <time>2026-07-27T11:28:12.000Z</time>
      </trkpt>
      <trkpt lat="44.535" lon="6.47446">
        <ele>802.907043</ele>
        <time>2026-07-27T11:28:12.000Z</time>
      </trkpt>
      <trkpt lat="44.53504" lon="6.47451">
        <ele>802.860053</ele>
        <time>2026-07-27T11:28:13.000Z</time>
      </trkpt>
      <trkpt lat="44.53508" lon="6.47457">
        <ele>802.810581</ele>
        <time>2026-07-27T11:28:14.000Z</time>
      </trkpt>
      <trkpt lat="44.53513" lon="6.47462">
        <ele>802.761483</ele>
        <time>2026-07-27T11:28:15.000Z</time>
      </trkpt>
      <trkpt lat="44.53513" lon="6.47462">
        <ele>802.761483</ele>
        <time>2026-07-27T11:28:15.000Z</time>
      </trkpt>
      <trkpt lat="44.53518" lon="6.47468">
        <ele>802.71264</ele>
        <time>2026-07-27T11:28:16.000Z</time>
      </trkpt>
      <trkpt lat="44.53522" lon="6.47472">
        <ele>802.665354</ele>
        <time>2026-07-27T11:28:17.000Z</time>
      </trkpt>
      <trkpt lat="44.53522" lon="6.47472">
        <ele>802.665354</ele>
        <time>2026-07-27T11:28:17.000Z</time>
      </trkpt>
      <trkpt lat="44.53527" lon="6.47478">
        <ele>802.613665</ele>
        <time>2026-07-27T11:28:18.000Z</time>
      </trkpt>
      <trkpt lat="44.53527" lon="6.47478">
        <ele>802.613665</ele>
        <time>2026-07-27T11:28:18.000Z</time>
      </trkpt>
      <trkpt lat="44.53532" lon="6.47483">
        <ele>802.561905</ele>
        <time>2026-07-27T11:28:19.000Z</time>
      </trkpt>
      <trkpt lat="44.53532" lon="6.47483">
        <ele>802.561905</ele>
        <time>2026-07-27T11:28:19.000Z</time>
      </trkpt>
      <trkpt lat="44.53537" lon="6.47488">
        <ele>802.510215</ele>
        <time>2026-07-27T11:28:20.000Z</time>
      </trkpt>
      <trkpt lat="44.53537" lon="6.47488">
        <ele>802.510215</ele>
        <time>2026-07-27T11:28:20.000Z</time>
      </trkpt>
      <trkpt lat="44.53542" lon="6.47494">
        <ele>802.459182</ele>
        <time>2026-07-27T11:28:21.000Z</time>
      </trkpt>
      <trkpt lat="44.53542" lon="6.47494">
        <ele>802.459182</ele>
        <time>2026-07-27T11:28:21.000Z</time>
      </trkpt>
      <trkpt lat="44.53547" lon="6.475">
        <ele>802.408168</ele>
        <time>2026-07-27T11:28:22.000Z</time>
      </trkpt>
      <trkpt lat="44.53547" lon="6.475">
        <ele>802.408168</ele>
        <time>2026-07-27T11:28:22.000Z</time>
      </trkpt>
      <trkpt lat="44.53551" lon="6.47505">
        <ele>802.359969</ele>
        <time>2026-07-27T11:28:23.000Z</time>
      </trkpt>
      <trkpt lat="44.53551" lon="6.47505">
        <ele>802.359969</ele>
        <time>2026-07-27T11:28:23.000Z</time>
      </trkpt>
      <trkpt lat="44.53555" lon="6.47511">
        <ele>802.311359</ele>
        <time>2026-07-27T11:28:24.000Z</time>
      </trkpt>
      <trkpt lat="44.53555" lon="6.47511">
        <ele>802.311359</ele>
        <time>2026-07-27T11:28:24.000Z</time>
      </trkpt>
      <trkpt lat="44.53559" lon="6.47516">
        <ele>802.264369</ele>
        <time>2026-07-27T11:28:25.000Z</time>
      </trkpt>
      <trkpt lat="44.53559" lon="6.47516">
        <ele>802.264369</ele>
        <time>2026-07-27T11:28:25.000Z</time>
      </trkpt>
      <trkpt lat="44.53563" lon="6.47522">
        <ele>802.220172</ele>
        <time>2026-07-27T11:28:26.000Z</time>
      </trkpt>
      <trkpt lat="44.53566" lon="6.47526">
        <ele>802.187783</ele>
        <time>2026-07-27T11:28:27.000Z</time>
      </trkpt>
      <trkpt lat="44.53566" lon="6.47526">
        <ele>802.187783</ele>
        <time>2026-07-27T11:28:27.000Z</time>
      </trkpt>
      <trkpt lat="44.53568" lon="6.47529">
        <ele>802.161065</ele>
        <time>2026-07-27T11:28:28.000Z</time>
      </trkpt>
      <trkpt lat="44.53571" lon="6.47533">
        <ele>802.127813</ele>
        <time>2026-07-27T11:28:29.000Z</time>
      </trkpt>
      <trkpt lat="44.53574" lon="6.47538">
        <ele>802.086758</ele>
        <time>2026-07-27T11:28:30.000Z</time>
      </trkpt>
      <trkpt lat="44.53577" lon="6.47544">
        <ele>802.04306</ele>
        <time>2026-07-27T11:28:31.000Z</time>
      </trkpt>
      <trkpt lat="44.53581" lon="6.47549">
        <ele>802.005841</ele>
        <time>2026-07-27T11:28:32.000Z</time>
      </trkpt>
      <trkpt lat="44.53584" lon="6.47554">
        <ele>801.965589</ele>
        <time>2026-07-27T11:28:33.000Z</time>
      </trkpt>
      <trkpt lat="44.53587" lon="6.4756">
        <ele>801.919272</ele>
        <time>2026-07-27T11:28:34.000Z</time>
      </trkpt>
      <trkpt lat="44.53591" lon="6.47566">
        <ele>801.871096</ele>
        <time>2026-07-27T11:28:35.000Z</time>
      </trkpt>
      <trkpt lat="44.53595" lon="6.47572">
        <ele>801.827397</ele>
        <time>2026-07-27T11:28:36.000Z</time>
      </trkpt>
      <trkpt lat="44.53599" lon="6.47578">
        <ele>801.774051</ele>
        <time>2026-07-27T11:28:37.000Z</time>
      </trkpt>
      <trkpt lat="44.53603" lon="6.47585">
        <ele>801.724189</ele>
        <time>2026-07-27T11:28:38.000Z</time>
      </trkpt>
      <trkpt lat="44.53608" lon="6.47592">
        <ele>801.666462</ele>
        <time>2026-07-27T11:28:39.000Z</time>
      </trkpt>
      <trkpt lat="44.53613" lon="6.47602">
        <ele>801.58516</ele>
        <time>2026-07-27T11:28:40.000Z</time>
      </trkpt>
      <trkpt lat="44.53619" lon="6.47612">
        <ele>801.488799</ele>
        <time>2026-07-27T11:28:41.000Z</time>
      </trkpt>
      <trkpt lat="44.53624" lon="6.47621">
        <ele>801.403932</ele>
        <time>2026-07-27T11:28:42.000Z</time>
      </trkpt>
      <trkpt lat="44.53624" lon="6.47621">
        <ele>801.403932</ele>
        <time>2026-07-27T11:28:42.000Z</time>
      </trkpt>
      <trkpt lat="44.53629" lon="6.4763">
        <ele>801.320777</ele>
        <time>2026-07-27T11:28:43.000Z</time>
      </trkpt>
      <trkpt lat="44.53634" lon="6.47638">
        <ele>801.248869</ele>
        <time>2026-07-27T11:28:44.000Z</time>
      </trkpt>
      <trkpt lat="44.53638" lon="6.47647">
        <ele>801.175202</ele>
        <time>2026-07-27T11:28:45.000Z</time>
      </trkpt>
      <trkpt lat="44.53638" lon="6.47647">
        <ele>801.175202</ele>
        <time>2026-07-27T11:28:45.000Z</time>
      </trkpt>
      <trkpt lat="44.53642" lon="6.47654">
        <ele>801.105604</ele>
        <time>2026-07-27T11:28:46.000Z</time>
      </trkpt>
      <trkpt lat="44.53646" lon="6.47662">
        <ele>801.035425</ele>
        <time>2026-07-27T11:28:46.000Z</time>
      </trkpt>
      <trkpt lat="44.53646" lon="6.47662">
        <ele>801.035425</ele>
        <time>2026-07-27T11:28:46.000Z</time>
      </trkpt>
      <trkpt lat="44.5365" lon="6.47671">
        <ele>800.957609</ele>
        <time>2026-07-27T11:28:48.000Z</time>
      </trkpt>
      <trkpt lat="44.53654" lon="6.4768">
        <ele>800.880655</ele>
        <time>2026-07-27T11:28:48.000Z</time>
      </trkpt>
      <trkpt lat="44.53654" lon="6.4768">
        <ele>800.880655</ele>
        <time>2026-07-27T11:28:48.000Z</time>
      </trkpt>
      <trkpt lat="44.53659" lon="6.4769">
        <ele>800.79452</ele>
        <time>2026-07-27T11:28:50.000Z</time>
      </trkpt>
      <trkpt lat="44.53663" lon="6.47701">
        <ele>800.705939</ele>
        <time>2026-07-27T11:28:50.000Z</time>
      </trkpt>
      <trkpt lat="44.53663" lon="6.47701">
        <ele>800.705939</ele>
        <time>2026-07-27T11:28:50.000Z</time>
      </trkpt>
      <trkpt lat="44.53667" lon="6.4771">
        <ele>800.625565</ele>
        <time>2026-07-27T11:28:52.000Z</time>
      </trkpt>
      <trkpt lat="44.53673" lon="6.47719">
        <ele>800.53987</ele>
        <time>2026-07-27T11:28:52.000Z</time>
      </trkpt>
      <trkpt lat="44.53677" lon="6.47729">
        <ele>800.456153</ele>
        <time>2026-07-27T11:28:54.000Z</time>
      </trkpt>
      <trkpt lat="44.53677" lon="6.47729">
        <ele>800.456153</ele>
        <time>2026-07-27T11:28:54.000Z</time>
      </trkpt>
      <trkpt lat="44.53682" lon="6.47738">
        <ele>800.372393</ele>
        <time>2026-07-27T11:28:55.000Z</time>
      </trkpt>
      <trkpt lat="44.53682" lon="6.47738">
        <ele>800.372393</ele>
        <time>2026-07-27T11:28:55.000Z</time>
      </trkpt>
      <trkpt lat="44.53685" lon="6.47746">
        <ele>800.30812</ele>
        <time>2026-07-27T11:28:56.000Z</time>
      </trkpt>
      <trkpt lat="44.53685" lon="6.47746">
        <ele>800.30812</ele>
        <time>2026-07-27T11:28:56.000Z</time>
      </trkpt>
      <trkpt lat="44.53692" lon="6.4776">
        <ele>800.185642</ele>
        <time>2026-07-27T11:28:57.000Z</time>
      </trkpt>
      <trkpt lat="44.53692" lon="6.4776">
        <ele>800.185642</ele>
        <time>2026-07-27T11:28:57.000Z</time>
      </trkpt>
      <trkpt lat="44.53696" lon="6.47771">
        <ele>800.099763</ele>
        <time>2026-07-27T11:28:58.000Z</time>
      </trkpt>
      <trkpt lat="44.53696" lon="6.47771">
        <ele>800.099763</ele>
        <time>2026-07-27T11:28:58.000Z</time>
      </trkpt>
      <trkpt lat="44.53699" lon="6.4778">
        <ele>800.026045</ele>
        <time>2026-07-27T11:28:59.000Z</time>
      </trkpt>
      <trkpt lat="44.53699" lon="6.4778">
        <ele>800.026045</ele>
        <time>2026-07-27T11:28:59.000Z</time>
      </trkpt>
      <trkpt lat="44.53704" lon="6.47793">
        <ele>799.917223</ele>
        <time>2026-07-27T11:29:00.000Z</time>
      </trkpt>
      <trkpt lat="44.53704" lon="6.47793">
        <ele>799.917223</ele>
        <time>2026-07-27T11:29:00.000Z</time>
      </trkpt>
      <trkpt lat="44.53708" lon="6.47803">
        <ele>799.834569</ele>
        <time>2026-07-27T11:29:01.000Z</time>
      </trkpt>
      <trkpt lat="44.53708" lon="6.47803">
        <ele>799.834569</ele>
        <time>2026-07-27T11:29:01.000Z</time>
      </trkpt>
      <trkpt lat="44.53712" lon="6.47813">
        <ele>799.792972</ele>
        <time>2026-07-27T11:29:02.000Z</time>
      </trkpt>
      <trkpt lat="44.53712" lon="6.47813">
        <ele>799.792972</ele>
        <time>2026-07-27T11:29:02.000Z</time>
      </trkpt>
      <trkpt lat="44.53714" lon="6.47819">
        <ele>799.786115</ele>
        <time>2026-07-27T11:29:03.000Z</time>
      </trkpt>
      <trkpt lat="44.53714" lon="6.47819">
        <ele>799.786115</ele>
        <time>2026-07-27T11:29:03.000Z</time>
      </trkpt>
      <trkpt lat="44.53717" lon="6.47827">
        <ele>799.775973</ele>
        <time>2026-07-27T11:29:04.000Z</time>
      </trkpt>
      <trkpt lat="44.53717" lon="6.47827">
        <ele>799.775973</ele>
        <time>2026-07-27T11:29:04.000Z</time>
      </trkpt>
      <trkpt lat="44.5372" lon="6.47835">
        <ele>799.76546</ele>
        <time>2026-07-27T11:29:05.000Z</time>
      </trkpt>
      <trkpt lat="44.5372" lon="6.47835">
        <ele>799.76546</ele>
        <time>2026-07-27T11:29:05.000Z</time>
      </trkpt>
      <trkpt lat="44.53724" lon="6.47844">
        <ele>799.753534</ele>
        <time>2026-07-27T11:29:06.000Z</time>
      </trkpt>
      <trkpt lat="44.53724" lon="6.47844">
        <ele>799.753534</ele>
        <time>2026-07-27T11:29:06.000Z</time>
      </trkpt>
      <trkpt lat="44.53727" lon="6.47854">
        <ele>799.741834</ele>
        <time>2026-07-27T11:29:07.000Z</time>
      </trkpt>
      <trkpt lat="44.53727" lon="6.47854">
        <ele>799.741834</ele>
        <time>2026-07-27T11:29:07.000Z</time>
      </trkpt>
      <trkpt lat="44.53732" lon="6.47865">
        <ele>799.726802</ele>
        <time>2026-07-27T11:29:08.000Z</time>
      </trkpt>
      <trkpt lat="44.53732" lon="6.47865">
        <ele>799.726802</ele>
        <time>2026-07-27T11:29:08.000Z</time>
      </trkpt>
      <trkpt lat="44.53738" lon="6.47879">
        <ele>799.708297</ele>
        <time>2026-07-27T11:29:09.000Z</time>
      </trkpt>
      <trkpt lat="44.53738" lon="6.47879">
        <ele>799.708297</ele>
        <time>2026-07-27T11:29:09.000Z</time>
      </trkpt>
      <trkpt lat="44.53745" lon="6.47891">
        <ele>799.691387</ele>
        <time>2026-07-27T11:29:10.000Z</time>
      </trkpt>
      <trkpt lat="44.53745" lon="6.47891">
        <ele>799.691387</ele>
        <time>2026-07-27T11:29:10.000Z</time>
      </trkpt>
      <trkpt lat="44.5375" lon="6.479">
        <ele>799.678047</ele>
        <time>2026-07-27T11:29:11.000Z</time>
      </trkpt>
      <trkpt lat="44.5375" lon="6.479">
        <ele>799.678047</ele>
        <time>2026-07-27T11:29:11.000Z</time>
      </trkpt>
      <trkpt lat="44.53758" lon="6.4791">
        <ele>799.661758</ele>
        <time>2026-07-27T11:29:12.000Z</time>
      </trkpt>
      <trkpt lat="44.53758" lon="6.4791">
        <ele>799.661758</ele>
        <time>2026-07-27T11:29:12.000Z</time>
      </trkpt>
      <trkpt lat="44.53764" lon="6.47915">
        <ele>799.65075</ele>
        <time>2026-07-27T11:29:13.000Z</time>
      </trkpt>
      <trkpt lat="44.53764" lon="6.47915">
        <ele>799.65075</ele>
        <time>2026-07-27T11:29:13.000Z</time>
      </trkpt>
      <trkpt lat="44.5377" lon="6.47918">
        <ele>799.640418</ele>
        <time>2026-07-27T11:29:14.000Z</time>
      </trkpt>
      <trkpt lat="44.5377" lon="6.47918">
        <ele>799.640418</ele>
        <time>2026-07-27T11:29:14.000Z</time>
      </trkpt>
      <trkpt lat="44.53774" lon="6.47922">
        <ele>799.632168</ele>
        <time>2026-07-27T11:29:15.000Z</time>
      </trkpt>
      <trkpt lat="44.53774" lon="6.47922">
        <ele>799.632168</ele>
        <time>2026-07-27T11:29:15.000Z</time>
      </trkpt>
      <trkpt lat="44.53777" lon="6.47928">
        <ele>799.624857</ele>
        <time>2026-07-27T11:29:16.000Z</time>
      </trkpt>
      <trkpt lat="44.53777" lon="6.47928">
        <ele>799.624857</ele>
        <time>2026-07-27T11:29:16.000Z</time>
      </trkpt>
      <trkpt lat="44.53778" lon="6.47933">
        <ele>799.618449</ele>
        <time>2026-07-27T11:29:17.000Z</time>
      </trkpt>
      <trkpt lat="44.53778" lon="6.47939">
        <ele>799.612469</ele>
        <time>2026-07-27T11:29:18.000Z</time>
      </trkpt>
      <trkpt lat="44.53778" lon="6.47944">
        <ele>799.606936</ele>
        <time>2026-07-27T11:29:19.000Z</time>
      </trkpt>
      <trkpt lat="44.53778" lon="6.47944">
        <ele>799.606936</ele>
        <time>2026-07-27T11:29:19.000Z</time>
      </trkpt>
      <trkpt lat="44.53778" lon="6.47949">
        <ele>799.60099</ele>
        <time>2026-07-27T11:29:20.000Z</time>
      </trkpt>
      <trkpt lat="44.53777" lon="6.47952">
        <ele>799.596902</ele>
        <time>2026-07-27T11:29:21.000Z</time>
      </trkpt>
      <trkpt lat="44.53777" lon="6.47952">
        <ele>799.596902</ele>
        <time>2026-07-27T11:29:21.000Z</time>
      </trkpt>
      <trkpt lat="44.53777" lon="6.47956">
        <ele>799.592527</ele>
        <time>2026-07-27T11:29:22.000Z</time>
      </trkpt>
      <trkpt lat="44.53778" lon="6.47961">
        <ele>799.58755</ele>
        <time>2026-07-27T11:29:23.000Z</time>
      </trkpt>
      <trkpt lat="44.53778" lon="6.47961">
        <ele>799.58755</ele>
        <time>2026-07-27T11:29:23.000Z</time>
      </trkpt>
      <trkpt lat="44.53778" lon="6.47964">
        <ele>799.583351</ele>
        <time>2026-07-27T11:29:24.000Z</time>
      </trkpt>
      <trkpt lat="44.53778" lon="6.47969">
        <ele>799.578752</ele>
        <time>2026-07-27T11:29:25.000Z</time>
      </trkpt>
      <trkpt lat="44.53778" lon="6.47969">
        <ele>799.578752</ele>
        <time>2026-07-27T11:29:25.000Z</time>
      </trkpt>
      <trkpt lat="44.53779" lon="6.47973">
        <ele>799.57333</ele>
        <time>2026-07-27T11:29:26.000Z</time>
      </trkpt>
      <trkpt lat="44.53779" lon="6.47973">
        <ele>799.57333</ele>
        <time>2026-07-27T11:29:26.000Z</time>
      </trkpt>
      <trkpt lat="44.53779" lon="6.47978">
        <ele>799.567832</ele>
        <time>2026-07-27T11:29:27.000Z</time>
      </trkpt>
      <trkpt lat="44.53779" lon="6.47978">
        <ele>799.567832</ele>
        <time>2026-07-27T11:29:27.000Z</time>
      </trkpt>
      <trkpt lat="44.53779" lon="6.47984">
        <ele>799.561084</ele>
        <time>2026-07-27T11:29:28.000Z</time>
      </trkpt>
      <trkpt lat="44.53779" lon="6.47984">
        <ele>799.561084</ele>
        <time>2026-07-27T11:29:28.000Z</time>
      </trkpt>
      <trkpt lat="44.53779" lon="6.4799">
        <ele>799.55477</ele>
        <time>2026-07-27T11:29:29.000Z</time>
      </trkpt>
      <trkpt lat="44.53779" lon="6.4799">
        <ele>799.55477</ele>
        <time>2026-07-27T11:29:29.000Z</time>
      </trkpt>
      <trkpt lat="44.5378" lon="6.47996">
        <ele>799.547897</ele>
        <time>2026-07-27T11:29:30.000Z</time>
      </trkpt>
      <trkpt lat="44.5378" lon="6.47996">
        <ele>799.547897</ele>
        <time>2026-07-27T11:29:30.000Z</time>
      </trkpt>
      <trkpt lat="44.5378" lon="6.48002">
        <ele>799.540497</ele>
        <time>2026-07-27T11:29:31.000Z</time>
      </trkpt>
      <trkpt lat="44.5378" lon="6.48002">
        <ele>799.540497</ele>
        <time>2026-07-27T11:29:31.000Z</time>
      </trkpt>
      <trkpt lat="44.53781" lon="6.48009">
        <ele>799.533565</ele>
        <time>2026-07-27T11:29:32.000Z</time>
      </trkpt>
      <trkpt lat="44.53781" lon="6.48009">
        <ele>799.533565</ele>
        <time>2026-07-27T11:29:32.000Z</time>
      </trkpt>
      <trkpt lat="44.53782" lon="6.48015">
        <ele>799.525833</ele>
        <time>2026-07-27T11:29:33.000Z</time>
      </trkpt>
      <trkpt lat="44.53782" lon="6.48015">
        <ele>799.525833</ele>
        <time>2026-07-27T11:29:33.000Z</time>
      </trkpt>
      <trkpt lat="44.53782" lon="6.48022">
        <ele>799.518066</ele>
        <time>2026-07-27T11:29:34.000Z</time>
      </trkpt>
      <trkpt lat="44.53782" lon="6.48022">
        <ele>799.518066</ele>
        <time>2026-07-27T11:29:34.000Z</time>
      </trkpt>
      <trkpt lat="44.53783" lon="6.48028">
        <ele>799.843524</ele>
        <time>2026-07-27T11:29:35.000Z</time>
      </trkpt>
      <trkpt lat="44.53783" lon="6.48028">
        <ele>799.843524</ele>
        <time>2026-07-27T11:29:35.000Z</time>
      </trkpt>
      <trkpt lat="44.53784" lon="6.48034">
        <ele>800.169697</ele>
        <time>2026-07-27T11:29:36.000Z</time>
      </trkpt>
      <trkpt lat="44.53784" lon="6.48034">
        <ele>800.169697</ele>
        <time>2026-07-27T11:29:36.000Z</time>
      </trkpt>
      <trkpt lat="44.53785" lon="6.4804">
        <ele>800.495871</ele>
        <time>2026-07-27T11:29:37.000Z</time>
      </trkpt>
      <trkpt lat="44.53785" lon="6.4804">
        <ele>800.495871</ele>
        <time>2026-07-27T11:29:37.000Z</time>
      </trkpt>
      <trkpt lat="44.53785" lon="6.48046">
        <ele>800.831685</ele>
        <time>2026-07-27T11:29:38.000Z</time>
      </trkpt>
      <trkpt lat="44.53785" lon="6.48046">
        <ele>800.831685</ele>
        <time>2026-07-27T11:29:38.000Z</time>
      </trkpt>
      <trkpt lat="44.53785" lon="6.48052">
        <ele>801.162943</ele>
        <time>2026-07-27T11:29:39.000Z</time>
      </trkpt>
      <trkpt lat="44.53785" lon="6.48052">
        <ele>801.162943</ele>
        <time>2026-07-27T11:29:39.000Z</time>
      </trkpt>
      <trkpt lat="44.53786" lon="6.48058">
        <ele>801.523651</ele>
        <time>2026-07-27T11:29:40.000Z</time>
      </trkpt>
      <trkpt lat="44.53786" lon="6.48058">
        <ele>801.523651</ele>
        <time>2026-07-27T11:29:40.000Z</time>
      </trkpt>
      <trkpt lat="44.53786" lon="6.48065">
        <ele>801.939126</ele>
        <time>2026-07-27T11:29:41.000Z</time>
      </trkpt>
      <trkpt lat="44.53786" lon="6.48065">
        <ele>801.939126</ele>
        <time>2026-07-27T11:29:41.000Z</time>
      </trkpt>
      <trkpt lat="44.53786" lon="6.48072">
        <ele>802.305428</ele>
        <time>2026-07-27T11:29:42.000Z</time>
      </trkpt>
      <trkpt lat="44.53786" lon="6.48072">
        <ele>802.305428</ele>
        <time>2026-07-27T11:29:42.000Z</time>
      </trkpt>
      <trkpt lat="44.53787" lon="6.48078">
        <ele>802.666137</ele>
        <time>2026-07-27T11:29:43.000Z</time>
      </trkpt>
      <trkpt lat="44.53787" lon="6.48078">
        <ele>802.666137</ele>
        <time>2026-07-27T11:29:43.000Z</time>
      </trkpt>
      <trkpt lat="44.53787" lon="6.48085">
        <ele>803.031081</ele>
        <time>2026-07-27T11:29:44.000Z</time>
      </trkpt>
      <trkpt lat="44.53787" lon="6.48085">
        <ele>803.031081</ele>
        <time>2026-07-27T11:29:44.000Z</time>
      </trkpt>
      <trkpt lat="44.53787" lon="6.48093">
        <ele>803.503293</ele>
        <time>2026-07-27T11:29:45.000Z</time>
      </trkpt>
      <trkpt lat="44.53787" lon="6.48093">
        <ele>803.503293</ele>
        <time>2026-07-27T11:29:45.000Z</time>
      </trkpt>
      <trkpt lat="44.53787" lon="6.481">
        <ele>803.901925</ele>
        <time>2026-07-27T11:29:46.000Z</time>
      </trkpt>
      <trkpt lat="44.53787" lon="6.481">
        <ele>803.901925</ele>
        <time>2026-07-27T11:29:46.000Z</time>
      </trkpt>
      <trkpt lat="44.53787" lon="6.48107">
        <ele>804.296202</ele>
        <time>2026-07-27T11:29:47.000Z</time>
      </trkpt>
      <trkpt lat="44.53787" lon="6.48107">
        <ele>804.296202</ele>
        <time>2026-07-27T11:29:47.000Z</time>
      </trkpt>
      <trkpt lat="44.53787" lon="6.48114">
        <ele>804.666761</ele>
        <time>2026-07-27T11:29:48.000Z</time>
      </trkpt>
      <trkpt lat="44.53787" lon="6.48114">
        <ele>804.666761</ele>
        <time>2026-07-27T11:29:48.000Z</time>
      </trkpt>
      <trkpt lat="44.53787" lon="6.48121">
        <ele>805.094627</ele>
        <time>2026-07-27T11:29:49.000Z</time>
      </trkpt>
      <trkpt lat="44.53787" lon="6.48121">
        <ele>805.094627</ele>
        <time>2026-07-27T11:29:49.000Z</time>
      </trkpt>
      <trkpt lat="44.53787" lon="6.48128">
        <ele>805.483309</ele>
        <time>2026-07-27T11:29:50.000Z</time>
      </trkpt>
      <trkpt lat="44.53787" lon="6.48128">
        <ele>805.483309</ele>
        <time>2026-07-27T11:29:50.000Z</time>
      </trkpt>
      <trkpt lat="44.53788" lon="6.48135">
        <ele>805.855204</ele>
        <time>2026-07-27T11:29:51.000Z</time>
      </trkpt>
      <trkpt lat="44.53788" lon="6.48135">
        <ele>805.855204</ele>
        <time>2026-07-27T11:29:51.000Z</time>
      </trkpt>
      <trkpt lat="44.53787" lon="6.48141">
        <ele>806.208963</ele>
        <time>2026-07-27T11:29:51.000Z</time>
      </trkpt>
      <trkpt lat="44.53787" lon="6.48141">
        <ele>806.208963</ele>
        <time>2026-07-27T11:29:51.000Z</time>
      </trkpt>
      <trkpt lat="44.53786" lon="6.48148">
        <ele>806.605829</ele>
        <time>2026-07-27T11:29:53.000Z</time>
      </trkpt>
      <trkpt lat="44.53786" lon="6.48148">
        <ele>806.605829</ele>
        <time>2026-07-27T11:29:53.000Z</time>
      </trkpt>
      <trkpt lat="44.53786" lon="6.48155">
        <ele>807.005703</ele>
        <time>2026-07-27T11:29:53.000Z</time>
      </trkpt>
      <trkpt lat="44.53786" lon="6.48155">
        <ele>807.005703</ele>
        <time>2026-07-27T11:29:53.000Z</time>
      </trkpt>
      <trkpt lat="44.53786" lon="6.48162">
        <ele>807.393106</ele>
        <time>2026-07-27T11:29:55.000Z</time>
      </trkpt>
      <trkpt lat="44.53786" lon="6.48162">
        <ele>807.393106</ele>
        <time>2026-07-27T11:29:55.000Z</time>
      </trkpt>
      <trkpt lat="44.53785" lon="6.4817">
        <ele>807.832171</ele>
        <time>2026-07-27T11:29:55.000Z</time>
      </trkpt>
      <trkpt lat="44.53785" lon="6.4817">
        <ele>807.832171</ele>
        <time>2026-07-27T11:29:55.000Z</time>
      </trkpt>
      <trkpt lat="44.53785" lon="6.48177">
        <ele>808.254438</ele>
        <time>2026-07-27T11:29:57.000Z</time>
      </trkpt>
      <trkpt lat="44.53785" lon="6.48177">
        <ele>808.254438</ele>
        <time>2026-07-27T11:29:57.000Z</time>
      </trkpt>
      <trkpt lat="44.53785" lon="6.48186">
        <ele>808.72665</ele>
        <time>2026-07-27T11:29:57.000Z</time>
      </trkpt>
      <trkpt lat="44.53785" lon="6.48186">
        <ele>808.72665</ele>
        <time>2026-07-27T11:29:57.000Z</time>
      </trkpt>
      <trkpt lat="44.53784" lon="6.48194">
        <ele>809.185772</ele>
        <time>2026-07-27T11:29:59.000Z</time>
      </trkpt>
      <trkpt lat="44.53784" lon="6.48194">
        <ele>809.185772</ele>
        <time>2026-07-27T11:29:59.000Z</time>
      </trkpt>
      <trkpt lat="44.53783" lon="6.48201">
        <ele>809.591244</ele>
        <time>2026-07-27T11:30:00.000Z</time>
      </trkpt>
      <trkpt lat="44.53783" lon="6.48201">
        <ele>809.591244</ele>
        <time>2026-07-27T11:30:00.000Z</time>
      </trkpt>
      <trkpt lat="44.53783" lon="6.48208">
        <ele>809.995491</ele>
        <time>2026-07-27T11:30:01.000Z</time>
      </trkpt>
      <trkpt lat="44.53783" lon="6.48208">
        <ele>809.995491</ele>
        <time>2026-07-27T11:30:01.000Z</time>
      </trkpt>
      <trkpt lat="44.53783" lon="6.48216">
        <ele>810.406561</ele>
        <time>2026-07-27T11:30:02.000Z</time>
      </trkpt>
      <trkpt lat="44.53783" lon="6.48216">
        <ele>810.406561</ele>
        <time>2026-07-27T11:30:02.000Z</time>
      </trkpt>
      <trkpt lat="44.53783" lon="6.48223">
        <ele>810.828313</ele>
        <time>2026-07-27T11:30:03.000Z</time>
      </trkpt>
      <trkpt lat="44.53783" lon="6.48223">
        <ele>810.828313</ele>
        <time>2026-07-27T11:30:03.000Z</time>
      </trkpt>
      <trkpt lat="44.53782" lon="6.48231">
        <ele>811.261779</ele>
        <time>2026-07-27T11:30:04.000Z</time>
      </trkpt>
      <trkpt lat="44.53782" lon="6.48231">
        <ele>811.261779</ele>
        <time>2026-07-27T11:30:04.000Z</time>
      </trkpt>
      <trkpt lat="44.53782" lon="6.48237">
        <ele>811.622487</ele>
        <time>2026-07-27T11:30:05.000Z</time>
      </trkpt>
      <trkpt lat="44.53782" lon="6.48237">
        <ele>811.622487</ele>
        <time>2026-07-27T11:30:05.000Z</time>
      </trkpt>
      <trkpt lat="44.53782" lon="6.48243">
        <ele>811.964974</ele>
        <time>2026-07-27T11:30:06.000Z</time>
      </trkpt>
      <trkpt lat="44.53782" lon="6.48243">
        <ele>811.964974</ele>
        <time>2026-07-27T11:30:06.000Z</time>
      </trkpt>
      <trkpt lat="44.53782" lon="6.4825">
        <ele>812.324304</ele>
        <time>2026-07-27T11:30:07.000Z</time>
      </trkpt>
      <trkpt lat="44.53782" lon="6.4825">
        <ele>812.324304</ele>
        <time>2026-07-27T11:30:07.000Z</time>
      </trkpt>
      <trkpt lat="44.53782" lon="6.48255">
        <ele>812.64588</ele>
        <time>2026-07-27T11:30:08.000Z</time>
      </trkpt>
      <trkpt lat="44.53782" lon="6.48255">
        <ele>812.64588</ele>
        <time>2026-07-27T11:30:08.000Z</time>
      </trkpt>
      <trkpt lat="44.53782" lon="6.48262">
        <ele>813.016439</ele>
        <time>2026-07-27T11:30:09.000Z</time>
      </trkpt>
      <trkpt lat="44.53782" lon="6.48262">
        <ele>813.016439</ele>
        <time>2026-07-27T11:30:09.000Z</time>
      </trkpt>
      <trkpt lat="44.53782" lon="6.48269">
        <ele>813.403841</ele>
        <time>2026-07-27T11:30:10.000Z</time>
      </trkpt>
      <trkpt lat="44.53782" lon="6.48269">
        <ele>813.403841</ele>
        <time>2026-07-27T11:30:10.000Z</time>
      </trkpt>
      <trkpt lat="44.53781" lon="6.48276">
        <ele>813.824851</ele>
        <time>2026-07-27T11:30:11.000Z</time>
      </trkpt>
      <trkpt lat="44.53781" lon="6.48276">
        <ele>813.824851</ele>
        <time>2026-07-27T11:30:11.000Z</time>
      </trkpt>
      <trkpt lat="44.53781" lon="6.48283">
        <ele>814.38934</ele>
        <time>2026-07-27T11:30:12.000Z</time>
      </trkpt>
      <trkpt lat="44.53781" lon="6.48283">
        <ele>814.38934</ele>
        <time>2026-07-27T11:30:12.000Z</time>
      </trkpt>
      <trkpt lat="44.5378" lon="6.4829">
        <ele>814.945407</ele>
        <time>2026-07-27T11:30:13.000Z</time>
      </trkpt>
      <trkpt lat="44.5378" lon="6.4829">
        <ele>814.945407</ele>
        <time>2026-07-27T11:30:13.000Z</time>
      </trkpt>
      <trkpt lat="44.5378" lon="6.48298">
        <ele>815.509897</ele>
        <time>2026-07-27T11:30:14.000Z</time>
      </trkpt>
      <trkpt lat="44.5378" lon="6.48298">
        <ele>815.509897</ele>
        <time>2026-07-27T11:30:14.000Z</time>
      </trkpt>
      <trkpt lat="44.5378" lon="6.48304">
        <ele>815.980206</ele>
        <time>2026-07-27T11:30:15.000Z</time>
      </trkpt>
      <trkpt lat="44.5378" lon="6.48304">
        <ele>815.980206</ele>
        <time>2026-07-27T11:30:15.000Z</time>
      </trkpt>
      <trkpt lat="44.5378" lon="6.48311">
        <ele>816.519905</ele>
        <time>2026-07-27T11:30:16.000Z</time>
      </trkpt>
      <trkpt lat="44.5378" lon="6.48311">
        <ele>816.519905</ele>
        <time>2026-07-27T11:30:16.000Z</time>
      </trkpt>
      <trkpt lat="44.5378" lon="6.48317">
        <ele>817.005635</ele>
        <time>2026-07-27T11:30:17.000Z</time>
      </trkpt>
      <trkpt lat="44.5378" lon="6.48317">
        <ele>817.005635</ele>
        <time>2026-07-27T11:30:17.000Z</time>
      </trkpt>
      <trkpt lat="44.5378" lon="6.48323">
        <ele>817.47793</ele>
        <time>2026-07-27T11:30:18.000Z</time>
      </trkpt>
      <trkpt lat="44.5378" lon="6.48323">
        <ele>817.47793</ele>
        <time>2026-07-27T11:30:18.000Z</time>
      </trkpt>
      <trkpt lat="44.53781" lon="6.4833">
        <ele>818.01528</ele>
        <time>2026-07-27T11:30:19.000Z</time>
      </trkpt>
      <trkpt lat="44.53781" lon="6.4833">
        <ele>818.01528</ele>
        <time>2026-07-27T11:30:19.000Z</time>
      </trkpt>
      <trkpt lat="44.53782" lon="6.48336">
        <ele>818.501069</ele>
        <time>2026-07-27T11:30:20.000Z</time>
      </trkpt>
      <trkpt lat="44.53782" lon="6.48336">
        <ele>818.501069</ele>
        <time>2026-07-27T11:30:20.000Z</time>
      </trkpt>
      <trkpt lat="44.53783" lon="6.48344">
        <ele>819.083882</ele>
        <time>2026-07-27T11:30:21.000Z</time>
      </trkpt>
      <trkpt lat="44.53783" lon="6.48344">
        <ele>819.083882</ele>
        <time>2026-07-27T11:30:21.000Z</time>
      </trkpt>
      <trkpt lat="44.53783" lon="6.48351">
        <ele>819.640685</ele>
        <time>2026-07-27T11:30:22.000Z</time>
      </trkpt>
      <trkpt lat="44.53783" lon="6.48351">
        <ele>819.640685</ele>
        <time>2026-07-27T11:30:22.000Z</time>
      </trkpt>
      <trkpt lat="44.53783" lon="6.48358">
        <ele>820.164964</ele>
        <time>2026-07-27T11:30:23.000Z</time>
      </trkpt>
      <trkpt lat="44.53783" lon="6.48358">
        <ele>820.164964</ele>
        <time>2026-07-27T11:30:23.000Z</time>
      </trkpt>
      <trkpt lat="44.53784" lon="6.48364">
        <ele>820.660296</ele>
        <time>2026-07-27T11:30:24.000Z</time>
      </trkpt>
      <trkpt lat="44.53784" lon="6.48364">
        <ele>820.660296</ele>
        <time>2026-07-27T11:30:24.000Z</time>
      </trkpt>
      <trkpt lat="44.53783" lon="6.4837">
        <ele>821.147948</ele>
        <time>2026-07-27T11:30:25.000Z</time>
      </trkpt>
      <trkpt lat="44.53783" lon="6.4837">
        <ele>821.147948</ele>
        <time>2026-07-27T11:30:25.000Z</time>
      </trkpt>
      <trkpt lat="44.53783" lon="6.48376">
        <ele>821.579707</ele>
        <time>2026-07-27T11:30:26.000Z</time>
      </trkpt>
      <trkpt lat="44.53783" lon="6.48376">
        <ele>821.579707</ele>
        <time>2026-07-27T11:30:26.000Z</time>
      </trkpt>
      <trkpt lat="44.53783" lon="6.48383">
        <ele>822.132328</ele>
        <time>2026-07-27T11:30:27.000Z</time>
      </trkpt>
      <trkpt lat="44.53783" lon="6.48383">
        <ele>822.132328</ele>
        <time>2026-07-27T11:30:27.000Z</time>
      </trkpt>
      <trkpt lat="44.53782" lon="6.48389">
        <ele>822.625705</ele>
        <time>2026-07-27T11:30:28.000Z</time>
      </trkpt>
      <trkpt lat="44.53782" lon="6.48389">
        <ele>822.625705</ele>
        <time>2026-07-27T11:30:28.000Z</time>
      </trkpt>
      <trkpt lat="44.53781" lon="6.48395">
        <ele>823.113597</ele>
        <time>2026-07-27T11:30:29.000Z</time>
      </trkpt>
      <trkpt lat="44.53781" lon="6.48395">
        <ele>823.113597</ele>
        <time>2026-07-27T11:30:29.000Z</time>
      </trkpt>
      <trkpt lat="44.5378" lon="6.48401">
        <ele>823.58379</ele>
        <time>2026-07-27T11:30:30.000Z</time>
      </trkpt>
      <trkpt lat="44.5378" lon="6.48401">
        <ele>823.58379</ele>
        <time>2026-07-27T11:30:30.000Z</time>
      </trkpt>
      <trkpt lat="44.53778" lon="6.48407">
        <ele>824.023452</ele>
        <time>2026-07-27T11:30:31.000Z</time>
      </trkpt>
      <trkpt lat="44.53778" lon="6.48407">
        <ele>824.023452</ele>
        <time>2026-07-27T11:30:31.000Z</time>
      </trkpt>
      <trkpt lat="44.53776" lon="6.48412">
        <ele>824.521759</ele>
        <time>2026-07-27T11:30:32.000Z</time>
      </trkpt>
      <trkpt lat="44.53776" lon="6.48412">
        <ele>824.521759</ele>
        <time>2026-07-27T11:30:32.000Z</time>
      </trkpt>
      <trkpt lat="44.53774" lon="6.48418">
        <ele>824.999936</ele>
        <time>2026-07-27T11:30:33.000Z</time>
      </trkpt>
      <trkpt lat="44.53774" lon="6.48418">
        <ele>824.999936</ele>
        <time>2026-07-27T11:30:33.000Z</time>
      </trkpt>
      <trkpt lat="44.53772" lon="6.48423">
        <ele>825.411093</ele>
        <time>2026-07-27T11:30:34.000Z</time>
      </trkpt>
      <trkpt lat="44.53772" lon="6.48423">
        <ele>825.411093</ele>
        <time>2026-07-27T11:30:34.000Z</time>
      </trkpt>
      <trkpt lat="44.5377" lon="6.48428">
        <ele>825.902735</ele>
        <time>2026-07-27T11:30:35.000Z</time>
      </trkpt>
      <trkpt lat="44.5377" lon="6.48428">
        <ele>825.902735</ele>
        <time>2026-07-27T11:30:35.000Z</time>
      </trkpt>
      <trkpt lat="44.53768" lon="6.48433">
        <ele>826.346414</ele>
        <time>2026-07-27T11:30:36.000Z</time>
      </trkpt>
      <trkpt lat="44.53768" lon="6.48433">
        <ele>826.346414</ele>
        <time>2026-07-27T11:30:36.000Z</time>
      </trkpt>
      <trkpt lat="44.53766" lon="6.48439">
        <ele>826.851416</ele>
        <time>2026-07-27T11:30:37.000Z</time>
      </trkpt>
      <trkpt lat="44.53766" lon="6.48439">
        <ele>826.851416</ele>
        <time>2026-07-27T11:30:37.000Z</time>
      </trkpt>
      <trkpt lat="44.53764" lon="6.48444">
        <ele>827.273983</ele>
        <time>2026-07-27T11:30:38.000Z</time>
      </trkpt>
      <trkpt lat="44.53764" lon="6.48444">
        <ele>827.273983</ele>
        <time>2026-07-27T11:30:38.000Z</time>
      </trkpt>
      <trkpt lat="44.53763" lon="6.48448">
        <ele>827.643087</ele>
        <time>2026-07-27T11:30:39.000Z</time>
      </trkpt>
      <trkpt lat="44.53763" lon="6.48448">
        <ele>827.643087</ele>
        <time>2026-07-27T11:30:39.000Z</time>
      </trkpt>
      <trkpt lat="44.53761" lon="6.48453">
        <ele>828.040123</ele>
        <time>2026-07-27T11:30:40.000Z</time>
      </trkpt>
      <trkpt lat="44.53761" lon="6.48453">
        <ele>828.040123</ele>
        <time>2026-07-27T11:30:40.000Z</time>
      </trkpt>
      <trkpt lat="44.5376" lon="6.48457">
        <ele>828.388989</ele>
        <time>2026-07-27T11:30:41.000Z</time>
      </trkpt>
      <trkpt lat="44.5376" lon="6.48457">
        <ele>828.388989</ele>
        <time>2026-07-27T11:30:41.000Z</time>
      </trkpt>
      <trkpt lat="44.5376" lon="6.48462">
        <ele>828.737454</ele>
        <time>2026-07-27T11:30:42.000Z</time>
      </trkpt>
      <trkpt lat="44.5376" lon="6.48462">
        <ele>828.737454</ele>
        <time>2026-07-27T11:30:42.000Z</time>
      </trkpt>
      <trkpt lat="44.53759" lon="6.48466">
        <ele>829.100679</ele>
        <time>2026-07-27T11:30:43.000Z</time>
      </trkpt>
      <trkpt lat="44.53759" lon="6.48466">
        <ele>829.100679</ele>
        <time>2026-07-27T11:30:43.000Z</time>
      </trkpt>
      <trkpt lat="44.53758" lon="6.4847">
        <ele>829.448267</ele>
        <time>2026-07-27T11:30:44.000Z</time>
      </trkpt>
      <trkpt lat="44.53758" lon="6.4847">
        <ele>829.448267</ele>
        <time>2026-07-27T11:30:44.000Z</time>
      </trkpt>
      <trkpt lat="44.53757" lon="6.48475">
        <ele>829.79837</ele>
        <time>2026-07-27T11:30:45.000Z</time>
      </trkpt>
      <trkpt lat="44.53757" lon="6.48475">
        <ele>829.79837</ele>
        <time>2026-07-27T11:30:45.000Z</time>
      </trkpt>
      <trkpt lat="44.53756" lon="6.4848">
        <ele>830.179775</ele>
        <time>2026-07-27T11:30:46.000Z</time>
      </trkpt>
      <trkpt lat="44.53756" lon="6.4848">
        <ele>830.179775</ele>
        <time>2026-07-27T11:30:46.000Z</time>
      </trkpt>
      <trkpt lat="44.53755" lon="6.48484">
        <ele>830.571959</ele>
        <time>2026-07-27T11:30:47.000Z</time>
      </trkpt>
      <trkpt lat="44.53755" lon="6.48484">
        <ele>830.571959</ele>
        <time>2026-07-27T11:30:47.000Z</time>
      </trkpt>
      <trkpt lat="44.53754" lon="6.48489">
        <ele>830.93146</ele>
        <time>2026-07-27T11:30:48.000Z</time>
      </trkpt>
      <trkpt lat="44.53754" lon="6.48489">
        <ele>830.93146</ele>
        <time>2026-07-27T11:30:48.000Z</time>
      </trkpt>
      <trkpt lat="44.53753" lon="6.48493">
        <ele>831.274098</ele>
        <time>2026-07-27T11:30:49.000Z</time>
      </trkpt>
      <trkpt lat="44.53753" lon="6.48493">
        <ele>831.274098</ele>
        <time>2026-07-27T11:30:49.000Z</time>
      </trkpt>
      <trkpt lat="44.53753" lon="6.48497">
        <ele>831.547396</ele>
        <time>2026-07-27T11:30:50.000Z</time>
      </trkpt>
      <trkpt lat="44.53753" lon="6.48497">
        <ele>831.547396</ele>
        <time>2026-07-27T11:30:50.000Z</time>
      </trkpt>
      <trkpt lat="44.53752" lon="6.48501">
        <ele>831.879951</ele>
        <time>2026-07-27T11:30:52.000Z</time>
      </trkpt>
      <trkpt lat="44.53752" lon="6.48501">
        <ele>831.879951</ele>
        <time>2026-07-27T11:30:52.000Z</time>
      </trkpt>
      <trkpt lat="44.53751" lon="6.48505">
        <ele>832.257618</ele>
        <time>2026-07-27T11:30:52.000Z</time>
      </trkpt>
      <trkpt lat="44.53751" lon="6.48505">
        <ele>832.257618</ele>
        <time>2026-07-27T11:30:52.000Z</time>
      </trkpt>
      <trkpt lat="44.5375" lon="6.4851">
        <ele>832.584317</ele>
        <time>2026-07-27T11:30:53.000Z</time>
      </trkpt>
      <trkpt lat="44.5375" lon="6.4851">
        <ele>832.584317</ele>
        <time>2026-07-27T11:30:53.000Z</time>
      </trkpt>
      <trkpt lat="44.53749" lon="6.48515">
        <ele>832.995136</ele>
        <time>2026-07-27T11:30:54.000Z</time>
      </trkpt>
      <trkpt lat="44.53749" lon="6.48515">
        <ele>832.995136</ele>
        <time>2026-07-27T11:30:54.000Z</time>
      </trkpt>
      <trkpt lat="44.53749" lon="6.48519">
        <ele>833.254154</ele>
        <time>2026-07-27T11:30:55.000Z</time>
      </trkpt>
      <trkpt lat="44.53749" lon="6.48519">
        <ele>833.254154</ele>
        <time>2026-07-27T11:30:55.000Z</time>
      </trkpt>
      <trkpt lat="44.53748" lon="6.48524">
        <ele>833.465496</ele>
        <time>2026-07-27T11:30:56.000Z</time>
      </trkpt>
      <trkpt lat="44.53747" lon="6.48528">
        <ele>833.654598</ele>
        <time>2026-07-27T11:30:57.000Z</time>
      </trkpt>
      <trkpt lat="44.53747" lon="6.48528">
        <ele>833.654598</ele>
        <time>2026-07-27T11:30:57.000Z</time>
      </trkpt>
      <trkpt lat="44.53746" lon="6.48533">
        <ele>833.864609</ele>
        <time>2026-07-27T11:30:58.000Z</time>
      </trkpt>
      <trkpt lat="44.53746" lon="6.48533">
        <ele>833.864609</ele>
        <time>2026-07-27T11:30:58.000Z</time>
      </trkpt>
      <trkpt lat="44.53745" lon="6.48537">
        <ele>834.057893</ele>
        <time>2026-07-27T11:30:59.000Z</time>
      </trkpt>
      <trkpt lat="44.53745" lon="6.48537">
        <ele>834.057893</ele>
        <time>2026-07-27T11:30:59.000Z</time>
      </trkpt>
      <trkpt lat="44.53744" lon="6.48542">
        <ele>834.259873</ele>
        <time>2026-07-27T11:31:00.000Z</time>
      </trkpt>
      <trkpt lat="44.53744" lon="6.48542">
        <ele>834.259873</ele>
        <time>2026-07-27T11:31:00.000Z</time>
      </trkpt>
      <trkpt lat="44.53743" lon="6.48547">
        <ele>834.484218</ele>
        <time>2026-07-27T11:31:01.000Z</time>
      </trkpt>
      <trkpt lat="44.53743" lon="6.48547">
        <ele>834.484218</ele>
        <time>2026-07-27T11:31:01.000Z</time>
      </trkpt>
      <trkpt lat="44.53742" lon="6.48551">
        <ele>834.670604</ele>
        <time>2026-07-27T11:31:02.000Z</time>
      </trkpt>
      <trkpt lat="44.53742" lon="6.48551">
        <ele>834.670604</ele>
        <time>2026-07-27T11:31:02.000Z</time>
      </trkpt>
      <trkpt lat="44.53742" lon="6.48555">
        <ele>834.863889</ele>
        <time>2026-07-27T11:31:03.000Z</time>
      </trkpt>
      <trkpt lat="44.5374" lon="6.4856">
        <ele>835.086022</ele>
        <time>2026-07-27T11:31:04.000Z</time>
      </trkpt>
      <trkpt lat="44.5374" lon="6.4856">
        <ele>835.086022</ele>
        <time>2026-07-27T11:31:04.000Z</time>
      </trkpt>
      <trkpt lat="44.53739" lon="6.48565">
        <ele>835.294042</ele>
        <time>2026-07-27T11:31:05.000Z</time>
      </trkpt>
      <trkpt lat="44.53739" lon="6.48565">
        <ele>835.294042</ele>
        <time>2026-07-27T11:31:05.000Z</time>
      </trkpt>
      <trkpt lat="44.53738" lon="6.48569">
        <ele>835.508084</ele>
        <time>2026-07-27T11:31:06.000Z</time>
      </trkpt>
      <trkpt lat="44.53738" lon="6.48569">
        <ele>835.508084</ele>
        <time>2026-07-27T11:31:06.000Z</time>
      </trkpt>
      <trkpt lat="44.53737" lon="6.48574">
        <ele>835.693009</ele>
        <time>2026-07-27T11:31:07.000Z</time>
      </trkpt>
      <trkpt lat="44.53737" lon="6.48578">
        <ele>835.883541</ele>
        <time>2026-07-27T11:31:08.000Z</time>
      </trkpt>
      <trkpt lat="44.53737" lon="6.48578">
        <ele>835.883541</ele>
        <time>2026-07-27T11:31:08.000Z</time>
      </trkpt>
      <trkpt lat="44.53736" lon="6.48583">
        <ele>836.094884</ele>
        <time>2026-07-27T11:31:09.000Z</time>
      </trkpt>
      <trkpt lat="44.53736" lon="6.48583">
        <ele>836.094884</ele>
        <time>2026-07-27T11:31:09.000Z</time>
      </trkpt>
      <trkpt lat="44.53735" lon="6.48587">
        <ele>836.286723</ele>
        <time>2026-07-27T11:31:10.000Z</time>
      </trkpt>
      <trkpt lat="44.53735" lon="6.48587">
        <ele>836.286723</ele>
        <time>2026-07-27T11:31:10.000Z</time>
      </trkpt>
      <trkpt lat="44.53734" lon="6.48591">
        <ele>836.472642</ele>
        <time>2026-07-27T11:31:11.000Z</time>
      </trkpt>
      <trkpt lat="44.53734" lon="6.48591">
        <ele>836.472642</ele>
        <time>2026-07-27T11:31:11.000Z</time>
      </trkpt>
      <trkpt lat="44.53733" lon="6.48596">
        <ele>836.692343</ele>
        <time>2026-07-27T11:31:12.000Z</time>
      </trkpt>
      <trkpt lat="44.53733" lon="6.48596">
        <ele>836.692343</ele>
        <time>2026-07-27T11:31:12.000Z</time>
      </trkpt>
      <trkpt lat="44.53733" lon="6.486">
        <ele>836.877268</ele>
        <time>2026-07-27T11:31:13.000Z</time>
      </trkpt>
      <trkpt lat="44.53733" lon="6.486">
        <ele>836.877268</ele>
        <time>2026-07-27T11:31:13.000Z</time>
      </trkpt>
      <trkpt lat="44.53732" lon="6.48605">
        <ele>837.063655</ele>
        <time>2026-07-27T11:31:14.000Z</time>
      </trkpt>
      <trkpt lat="44.53732" lon="6.48605">
        <ele>837.063655</ele>
        <time>2026-07-27T11:31:14.000Z</time>
      </trkpt>
      <trkpt lat="44.53731" lon="6.48609">
        <ele>837.273711</ele>
        <time>2026-07-27T11:31:15.000Z</time>
      </trkpt>
      <trkpt lat="44.53731" lon="6.48609">
        <ele>837.273711</ele>
        <time>2026-07-27T11:31:15.000Z</time>
      </trkpt>
      <trkpt lat="44.5373" lon="6.48614">
        <ele>837.460098</ele>
        <time>2026-07-27T11:31:16.000Z</time>
      </trkpt>
      <trkpt lat="44.5373" lon="6.48614">
        <ele>837.460098</ele>
        <time>2026-07-27T11:31:16.000Z</time>
      </trkpt>
      <trkpt lat="44.5373" lon="6.48619">
        <ele>837.674465</ele>
        <time>2026-07-27T11:31:17.000Z</time>
      </trkpt>
      <trkpt lat="44.5373" lon="6.48619">
        <ele>837.674465</ele>
        <time>2026-07-27T11:31:17.000Z</time>
      </trkpt>
      <trkpt lat="44.5373" lon="6.48623">
        <ele>837.86889</ele>
        <time>2026-07-27T11:31:18.000Z</time>
      </trkpt>
      <trkpt lat="44.5373" lon="6.48623">
        <ele>837.86889</ele>
        <time>2026-07-27T11:31:18.000Z</time>
      </trkpt>
      <trkpt lat="44.5373" lon="6.48628">
        <ele>838.076084</ele>
        <time>2026-07-27T11:31:19.000Z</time>
      </trkpt>
      <trkpt lat="44.5373" lon="6.48628">
        <ele>838.076084</ele>
        <time>2026-07-27T11:31:19.000Z</time>
      </trkpt>
      <trkpt lat="44.53729" lon="6.48633">
        <ele>838.287537</ele>
        <time>2026-07-27T11:31:20.000Z</time>
      </trkpt>
      <trkpt lat="44.53729" lon="6.48633">
        <ele>838.287537</ele>
        <time>2026-07-27T11:31:20.000Z</time>
      </trkpt>
      <trkpt lat="44.53729" lon="6.48637">
        <ele>838.471893</ele>
        <time>2026-07-27T11:31:21.000Z</time>
      </trkpt>
      <trkpt lat="44.53729" lon="6.48637">
        <ele>838.471893</ele>
        <time>2026-07-27T11:31:21.000Z</time>
      </trkpt>
      <trkpt lat="44.53729" lon="6.48642">
        <ele>838.677685</ele>
        <time>2026-07-27T11:31:22.000Z</time>
      </trkpt>
      <trkpt lat="44.53729" lon="6.48642">
        <ele>838.677685</ele>
        <time>2026-07-27T11:31:22.000Z</time>
      </trkpt>
      <trkpt lat="44.53729" lon="6.48647">
        <ele>838.883478</ele>
        <time>2026-07-27T11:31:24.000Z</time>
      </trkpt>
      <trkpt lat="44.53729" lon="6.48647">
        <ele>838.883478</ele>
        <time>2026-07-27T11:31:24.000Z</time>
      </trkpt>
      <trkpt lat="44.53729" lon="6.48651">
        <ele>839.060183</ele>
        <time>2026-07-27T11:31:24.000Z</time>
      </trkpt>
      <trkpt lat="44.53729" lon="6.48651">
        <ele>839.060183</ele>
        <time>2026-07-27T11:31:24.000Z</time>
      </trkpt>
      <trkpt lat="44.53729" lon="6.48655">
        <ele>839.237603</ele>
        <time>2026-07-27T11:31:26.000Z</time>
      </trkpt>
      <trkpt lat="44.53729" lon="6.48655">
        <ele>839.237603</ele>
        <time>2026-07-27T11:31:26.000Z</time>
      </trkpt>
      <trkpt lat="44.53728" lon="6.48659">
        <ele>839.423522</ele>
        <time>2026-07-27T11:31:26.000Z</time>
      </trkpt>
      <trkpt lat="44.53728" lon="6.48659">
        <ele>839.423522</ele>
        <time>2026-07-27T11:31:26.000Z</time>
      </trkpt>
      <trkpt lat="44.53728" lon="6.48664">
        <ele>839.613694</ele>
        <time>2026-07-27T11:31:27.000Z</time>
      </trkpt>
      <trkpt lat="44.53728" lon="6.48664">
        <ele>839.613694</ele>
        <time>2026-07-27T11:31:27.000Z</time>
      </trkpt>
      <trkpt lat="44.53727" lon="6.48668">
        <ele>839.795362</ele>
        <time>2026-07-27T11:31:28.000Z</time>
      </trkpt>
      <trkpt lat="44.53727" lon="6.48668">
        <ele>839.795362</ele>
        <time>2026-07-27T11:31:28.000Z</time>
      </trkpt>
      <trkpt lat="44.53727" lon="6.48672">
        <ele>839.976333</ele>
        <time>2026-07-27T11:31:29.000Z</time>
      </trkpt>
      <trkpt lat="44.53727" lon="6.48672">
        <ele>839.976333</ele>
        <time>2026-07-27T11:31:29.000Z</time>
      </trkpt>
      <trkpt lat="44.53727" lon="6.48676">
        <ele>840.134965</ele>
        <time>2026-07-27T11:31:30.000Z</time>
      </trkpt>
      <trkpt lat="44.53727" lon="6.48676">
        <ele>840.134965</ele>
        <time>2026-07-27T11:31:30.000Z</time>
      </trkpt>
      <trkpt lat="44.53727" lon="6.4868">
        <ele>840.308138</ele>
        <time>2026-07-27T11:31:31.000Z</time>
      </trkpt>
      <trkpt lat="44.53727" lon="6.4868">
        <ele>840.308138</ele>
        <time>2026-07-27T11:31:31.000Z</time>
      </trkpt>
      <trkpt lat="44.53727" lon="6.48683">
        <ele>840.46677</ele>
        <time>2026-07-27T11:31:33.000Z</time>
      </trkpt>
      <trkpt lat="44.53727" lon="6.48683">
        <ele>840.46677</ele>
        <time>2026-07-27T11:31:33.000Z</time>
      </trkpt>
      <trkpt lat="44.53726" lon="6.48688">
        <ele>840.669706</ele>
        <time>2026-07-27T11:31:33.000Z</time>
      </trkpt>
      <trkpt lat="44.53725" lon="6.48692">
        <ele>840.857527</ele>
        <time>2026-07-27T11:31:34.000Z</time>
      </trkpt>
      <trkpt lat="44.53725" lon="6.48692">
        <ele>840.857527</ele>
        <time>2026-07-27T11:31:34.000Z</time>
      </trkpt>
      <trkpt lat="44.53725" lon="6.48697">
        <ele>841.060464</ele>
        <time>2026-07-27T11:31:35.000Z</time>
      </trkpt>
      <trkpt lat="44.53725" lon="6.48697">
        <ele>841.060464</ele>
        <time>2026-07-27T11:31:35.000Z</time>
      </trkpt>
      <trkpt lat="44.53725" lon="6.48701">
        <ele>841.236245</ele>
        <time>2026-07-27T11:31:36.000Z</time>
      </trkpt>
      <trkpt lat="44.53725" lon="6.48701">
        <ele>841.236245</ele>
        <time>2026-07-27T11:31:36.000Z</time>
      </trkpt>
      <trkpt lat="44.53725" lon="6.48705">
        <ele>841.420601</ele>
        <time>2026-07-27T11:31:37.000Z</time>
      </trkpt>
      <trkpt lat="44.53725" lon="6.48709">
        <ele>841.570658</ele>
        <time>2026-07-27T11:31:38.000Z</time>
      </trkpt>
      <trkpt lat="44.53725" lon="6.48709">
        <ele>841.570658</ele>
        <time>2026-07-27T11:31:38.000Z</time>
      </trkpt>
      <trkpt lat="44.53725" lon="6.48713">
        <ele>841.748079</ele>
        <time>2026-07-27T11:31:39.000Z</time>
      </trkpt>
      <trkpt lat="44.53725" lon="6.48713">
        <ele>841.748079</ele>
        <time>2026-07-27T11:31:39.000Z</time>
      </trkpt>
      <trkpt lat="44.53725" lon="6.48717">
        <ele>841.912765</ele>
        <time>2026-07-27T11:31:40.000Z</time>
      </trkpt>
      <trkpt lat="44.53725" lon="6.48717">
        <ele>841.912765</ele>
        <time>2026-07-27T11:31:40.000Z</time>
      </trkpt>
      <trkpt lat="44.53724" lon="6.4872">
        <ele>842.066271</ele>
        <time>2026-07-27T11:31:41.000Z</time>
      </trkpt>
      <trkpt lat="44.53724" lon="6.4872">
        <ele>842.066271</ele>
        <time>2026-07-27T11:31:41.000Z</time>
      </trkpt>
      <trkpt lat="44.53724" lon="6.48724">
        <ele>842.229191</ele>
        <time>2026-07-27T11:31:42.000Z</time>
      </trkpt>
      <trkpt lat="44.53724" lon="6.48728">
        <ele>842.385399</ele>
        <time>2026-07-27T11:31:43.000Z</time>
      </trkpt>
      <trkpt lat="44.53724" lon="6.48728">
        <ele>842.385399</ele>
        <time>2026-07-27T11:31:43.000Z</time>
      </trkpt>
      <trkpt lat="44.53724" lon="6.48732">
        <ele>842.565468</ele>
        <time>2026-07-27T11:31:44.000Z</time>
      </trkpt>
      <trkpt lat="44.53724" lon="6.48732">
        <ele>842.565468</ele>
        <time>2026-07-27T11:31:44.000Z</time>
      </trkpt>
      <trkpt lat="44.53724" lon="6.48736">
        <ele>842.741249</ele>
        <time>2026-07-27T11:31:45.000Z</time>
      </trkpt>
      <trkpt lat="44.53724" lon="6.48736">
        <ele>842.741249</ele>
        <time>2026-07-27T11:31:45.000Z</time>
      </trkpt>
      <trkpt lat="44.53724" lon="6.4874">
        <ele>842.927169</ele>
        <time>2026-07-27T11:31:46.000Z</time>
      </trkpt>
      <trkpt lat="44.53724" lon="6.4874">
        <ele>842.927169</ele>
        <time>2026-07-27T11:31:46.000Z</time>
      </trkpt>
      <trkpt lat="44.53724" lon="6.48744">
        <ele>843.107237</ele>
        <time>2026-07-27T11:31:47.000Z</time>
      </trkpt>
      <trkpt lat="44.53724" lon="6.48744">
        <ele>843.107237</ele>
        <time>2026-07-27T11:31:47.000Z</time>
      </trkpt>
      <trkpt lat="44.53724" lon="6.48749">
        <ele>843.305917</ele>
        <time>2026-07-27T11:31:48.000Z</time>
      </trkpt>
      <trkpt lat="44.53724" lon="6.48749">
        <ele>843.305917</ele>
        <time>2026-07-27T11:31:48.000Z</time>
      </trkpt>
      <trkpt lat="44.53723" lon="6.48753">
        <ele>843.462126</ele>
        <time>2026-07-27T11:31:49.000Z</time>
      </trkpt>
      <trkpt lat="44.53723" lon="6.48753">
        <ele>843.462126</ele>
        <time>2026-07-27T11:31:49.000Z</time>
      </trkpt>
      <trkpt lat="44.53723" lon="6.48757">
        <ele>843.663631</ele>
        <time>2026-07-27T11:31:50.000Z</time>
      </trkpt>
      <trkpt lat="44.53723" lon="6.48757">
        <ele>843.663631</ele>
        <time>2026-07-27T11:31:50.000Z</time>
      </trkpt>
      <trkpt lat="44.53723" lon="6.48761">
        <ele>843.8437</ele>
        <time>2026-07-27T11:31:51.000Z</time>
      </trkpt>
      <trkpt lat="44.53723" lon="6.48765">
        <ele>843.977139</ele>
        <time>2026-07-27T11:31:52.000Z</time>
      </trkpt>
      <trkpt lat="44.53723" lon="6.48765">
        <ele>843.977139</ele>
        <time>2026-07-27T11:31:52.000Z</time>
      </trkpt>
      <trkpt lat="44.53722" lon="6.48768">
        <ele>844.043574</ele>
        <time>2026-07-27T11:31:53.000Z</time>
      </trkpt>
      <trkpt lat="44.53722" lon="6.48768">
        <ele>844.043574</ele>
        <time>2026-07-27T11:31:53.000Z</time>
      </trkpt>
      <trkpt lat="44.53722" lon="6.48774">
        <ele>844.146322</ele>
        <time>2026-07-27T11:31:54.000Z</time>
      </trkpt>
      <trkpt lat="44.53722" lon="6.48774">
        <ele>844.146322</ele>
        <time>2026-07-27T11:31:54.000Z</time>
      </trkpt>
      <trkpt lat="44.53722" lon="6.48778">
        <ele>844.22922</ele>
        <time>2026-07-27T11:31:56.000Z</time>
      </trkpt>
      <trkpt lat="44.53722" lon="6.48778">
        <ele>844.22922</ele>
        <time>2026-07-27T11:31:56.000Z</time>
      </trkpt>
      <trkpt lat="44.53722" lon="6.48783">
        <ele>844.319829</ele>
        <time>2026-07-27T11:31:56.000Z</time>
      </trkpt>
      <trkpt lat="44.53722" lon="6.48783">
        <ele>844.319829</ele>
        <time>2026-07-27T11:31:56.000Z</time>
      </trkpt>
      <trkpt lat="44.53722" lon="6.48788">
        <ele>844.424495</ele>
        <time>2026-07-27T11:31:57.000Z</time>
      </trkpt>
      <trkpt lat="44.53722" lon="6.48793">
        <ele>844.517662</ele>
        <time>2026-07-27T11:31:58.000Z</time>
      </trkpt>
      <trkpt lat="44.53722" lon="6.48793">
        <ele>844.517662</ele>
        <time>2026-07-27T11:31:58.000Z</time>
      </trkpt>
      <trkpt lat="44.53722" lon="6.48798">
        <ele>844.619839</ele>
        <time>2026-07-27T11:31:59.000Z</time>
      </trkpt>
      <trkpt lat="44.53722" lon="6.48803">
        <ele>844.707265</ele>
        <time>2026-07-27T11:32:00.000Z</time>
      </trkpt>
      <trkpt lat="44.53722" lon="6.48807">
        <ele>844.792091</ele>
        <time>2026-07-27T11:32:01.000Z</time>
      </trkpt>
      <trkpt lat="44.53721" lon="6.48812">
        <ele>844.887174</ele>
        <time>2026-07-27T11:32:02.000Z</time>
      </trkpt>
      <trkpt lat="44.53721" lon="6.48817">
        <ele>844.974307</ele>
        <time>2026-07-27T11:32:03.000Z</time>
      </trkpt>
      <trkpt lat="44.53721" lon="6.48822">
        <ele>845.074556</ele>
        <time>2026-07-27T11:32:05.000Z</time>
      </trkpt>
      <trkpt lat="44.53721" lon="6.48827">
        <ele>845.17866</ele>
        <time>2026-07-27T11:32:05.000Z</time>
      </trkpt>
      <trkpt lat="44.53721" lon="6.48831">
        <ele>845.250451</ele>
        <time>2026-07-27T11:32:06.000Z</time>
      </trkpt>
      <trkpt lat="44.53721" lon="6.48835">
        <ele>845.337584</ele>
        <time>2026-07-27T11:32:07.000Z</time>
      </trkpt>
      <trkpt lat="44.53721" lon="6.48841">
        <ele>845.439761</ele>
        <time>2026-07-27T11:32:08.000Z</time>
      </trkpt>
      <trkpt lat="44.53721" lon="6.48847">
        <ele>845.561216</ele>
        <time>2026-07-27T11:32:09.000Z</time>
      </trkpt>
      <trkpt lat="44.53721" lon="6.48847">
        <ele>845.561216</ele>
        <time>2026-07-27T11:32:09.000Z</time>
      </trkpt>
      <trkpt lat="44.53721" lon="6.48853">
        <ele>845.686527</ele>
        <time>2026-07-27T11:32:10.000Z</time>
      </trkpt>
      <trkpt lat="44.53721" lon="6.4886">
        <ele>845.817873</ele>
        <time>2026-07-27T11:32:11.000Z</time>
      </trkpt>
      <trkpt lat="44.53722" lon="6.48867">
        <ele>845.94173</ele>
        <time>2026-07-27T11:32:12.000Z</time>
      </trkpt>
      <trkpt lat="44.53723" lon="6.48873">
        <ele>846.067447</ele>
        <time>2026-07-27T11:32:14.000Z</time>
      </trkpt>
      <trkpt lat="44.53724" lon="6.48879">
        <ele>846.180855</ele>
        <time>2026-07-27T11:32:14.000Z</time>
      </trkpt>
      <trkpt lat="44.53725" lon="6.48885">
        <ele>846.308435</ele>
        <time>2026-07-27T11:32:15.000Z</time>
      </trkpt>
      <trkpt lat="44.53725" lon="6.48891">
        <ele>846.427549</ele>
        <time>2026-07-27T11:32:16.000Z</time>
      </trkpt>
      <trkpt lat="44.53726" lon="6.48897">
        <ele>846.543333</ele>
        <time>2026-07-27T11:32:17.000Z</time>
      </trkpt>
      <trkpt lat="44.53727" lon="6.48903">
        <ele>846.657223</ele>
        <time>2026-07-27T11:32:18.000Z</time>
      </trkpt>
      <trkpt lat="44.53727" lon="6.48909">
        <ele>846.773179</ele>
        <time>2026-07-27T11:32:20.000Z</time>
      </trkpt>
      <trkpt lat="44.53727" lon="6.48909">
        <ele>846.773179</ele>
        <time>2026-07-27T11:32:20.000Z</time>
      </trkpt>
      <trkpt lat="44.53727" lon="6.48915">
        <ele>846.884995</ele>
        <time>2026-07-27T11:32:20.000Z</time>
      </trkpt>
      <trkpt lat="44.53728" lon="6.48921">
        <ele>847.012693</ele>
        <time>2026-07-27T11:32:21.000Z</time>
      </trkpt>
      <trkpt lat="44.53729" lon="6.48927">
        <ele>847.128477</ele>
        <time>2026-07-27T11:32:23.000Z</time>
      </trkpt>
      <trkpt lat="44.53729" lon="6.48934">
        <ele>847.258096</ele>
        <time>2026-07-27T11:32:23.000Z</time>
      </trkpt>
      <trkpt lat="44.53729" lon="6.48934">
        <ele>847.258096</ele>
        <time>2026-07-27T11:32:23.000Z</time>
      </trkpt>
      <trkpt lat="44.5373" lon="6.48942">
        <ele>847.405832</ele>
        <time>2026-07-27T11:32:24.000Z</time>
      </trkpt>
      <trkpt lat="44.5373" lon="6.48948">
        <ele>847.534897</ele>
        <time>2026-07-27T11:32:25.000Z</time>
      </trkpt>
      <trkpt lat="44.5373" lon="6.48948">
        <ele>847.534897</ele>
        <time>2026-07-27T11:32:25.000Z</time>
      </trkpt>
      <trkpt lat="44.5373" lon="6.48955">
        <ele>847.669848</ele>
        <time>2026-07-27T11:32:27.000Z</time>
      </trkpt>
      <trkpt lat="44.53731" lon="6.48961">
        <ele>847.787944</ele>
        <time>2026-07-27T11:32:27.000Z</time>
      </trkpt>
      <trkpt lat="44.53731" lon="6.48961">
        <ele>847.787944</ele>
        <time>2026-07-27T11:32:27.000Z</time>
      </trkpt>
      <trkpt lat="44.53731" lon="6.48967">
        <ele>847.900282</ele>
        <time>2026-07-27T11:32:28.000Z</time>
      </trkpt>
      <trkpt lat="44.53732" lon="6.48974">
        <ele>848.031627</ele>
        <time>2026-07-27T11:32:29.000Z</time>
      </trkpt>
      <trkpt lat="44.53732" lon="6.48974">
        <ele>848.031627</ele>
        <time>2026-07-27T11:32:29.000Z</time>
      </trkpt>
      <trkpt lat="44.53732" lon="6.48981">
        <ele>848.168932</ele>
        <time>2026-07-27T11:32:30.000Z</time>
      </trkpt>
      <trkpt lat="44.53732" lon="6.48981">
        <ele>848.168932</ele>
        <time>2026-07-27T11:32:30.000Z</time>
      </trkpt>
      <trkpt lat="44.53733" lon="6.48988">
        <ele>848.313226</ele>
        <time>2026-07-27T11:32:32.000Z</time>
      </trkpt>
      <trkpt lat="44.53733" lon="6.48988">
        <ele>848.313226</ele>
        <time>2026-07-27T11:32:32.000Z</time>
      </trkpt>
      <trkpt lat="44.53733" lon="6.48996">
        <ele>848.455227</ele>
        <time>2026-07-27T11:32:33.000Z</time>
      </trkpt>
      <trkpt lat="44.53733" lon="6.48996">
        <ele>848.455227</ele>
        <time>2026-07-27T11:32:33.000Z</time>
      </trkpt>
      <trkpt lat="44.53734" lon="6.49003">
        <ele>848.605241</ele>
        <time>2026-07-27T11:32:33.000Z</time>
      </trkpt>
      <trkpt lat="44.53734" lon="6.49003">
        <ele>848.605241</ele>
        <time>2026-07-27T11:32:33.000Z</time>
      </trkpt>
      <trkpt lat="44.53735" lon="6.49011">
        <ele>848.753348</ele>
        <time>2026-07-27T11:32:34.000Z</time>
      </trkpt>
      <trkpt lat="44.53735" lon="6.49011">
        <ele>848.753348</ele>
        <time>2026-07-27T11:32:34.000Z</time>
      </trkpt>
      <trkpt lat="44.53736" lon="6.49018">
        <ele>848.943708</ele>
        <time>2026-07-27T11:32:35.000Z</time>
      </trkpt>
      <trkpt lat="44.53736" lon="6.49018">
        <ele>848.943708</ele>
        <time>2026-07-27T11:32:35.000Z</time>
      </trkpt>
      <trkpt lat="44.53736" lon="6.49025">
        <ele>849.152377</ele>
        <time>2026-07-27T11:32:36.000Z</time>
      </trkpt>
      <trkpt lat="44.53736" lon="6.49025">
        <ele>849.152377</ele>
        <time>2026-07-27T11:32:36.000Z</time>
      </trkpt>
      <trkpt lat="44.53736" lon="6.49032">
        <ele>849.349525</ele>
        <time>2026-07-27T11:32:37.000Z</time>
      </trkpt>
      <trkpt lat="44.53736" lon="6.49032">
        <ele>849.349525</ele>
        <time>2026-07-27T11:32:37.000Z</time>
      </trkpt>
      <trkpt lat="44.53737" lon="6.49045">
        <ele>849.754955</ele>
        <time>2026-07-27T11:32:39.000Z</time>
      </trkpt>
      <trkpt lat="44.53737" lon="6.49045">
        <ele>849.754955</ele>
        <time>2026-07-27T11:32:39.000Z</time>
      </trkpt>
      <trkpt lat="44.53737" lon="6.49051">
        <ele>849.957488</ele>
        <time>2026-07-27T11:32:40.000Z</time>
      </trkpt>
      <trkpt lat="44.53737" lon="6.49051">
        <ele>849.957488</ele>
        <time>2026-07-27T11:32:40.000Z</time>
      </trkpt>
      <trkpt lat="44.53737" lon="6.49065">
        <ele>850.374826</ele>
        <time>2026-07-27T11:32:42.000Z</time>
      </trkpt>
      <trkpt lat="44.53737" lon="6.49065">
        <ele>850.374826</ele>
        <time>2026-07-27T11:32:42.000Z</time>
      </trkpt>
      <trkpt lat="44.53736" lon="6.49073">
        <ele>850.60868</ele>
        <time>2026-07-27T11:32:42.000Z</time>
      </trkpt>
      <trkpt lat="44.53736" lon="6.49073">
        <ele>850.60868</ele>
        <time>2026-07-27T11:32:42.000Z</time>
      </trkpt>
      <trkpt lat="44.53736" lon="6.49079">
        <ele>850.818059</ele>
        <time>2026-07-27T11:32:43.000Z</time>
      </trkpt>
      <trkpt lat="44.53736" lon="6.49079">
        <ele>850.818059</ele>
        <time>2026-07-27T11:32:43.000Z</time>
      </trkpt>
      <trkpt lat="44.53736" lon="6.49086">
        <ele>851.023659</ele>
        <time>2026-07-27T11:32:44.000Z</time>
      </trkpt>
      <trkpt lat="44.53736" lon="6.49086">
        <ele>851.023659</ele>
        <time>2026-07-27T11:32:44.000Z</time>
      </trkpt>
      <trkpt lat="44.53735" lon="6.49091">
        <ele>851.178056</ele>
        <time>2026-07-27T11:32:46.000Z</time>
      </trkpt>
      <trkpt lat="44.53735" lon="6.49091">
        <ele>851.178056</ele>
        <time>2026-07-27T11:32:46.000Z</time>
      </trkpt>
      <trkpt lat="44.53735" lon="6.49095">
        <ele>851.301481</ele>
        <time>2026-07-27T11:32:47.000Z</time>
      </trkpt>
      <trkpt lat="44.53735" lon="6.49095">
        <ele>851.301481</ele>
        <time>2026-07-27T11:32:47.000Z</time>
      </trkpt>
      <trkpt lat="44.53735" lon="6.49099">
        <ele>851.434552</ele>
        <time>2026-07-27T11:32:48.000Z</time>
      </trkpt>
      <trkpt lat="44.53735" lon="6.49099">
        <ele>851.434552</ele>
        <time>2026-07-27T11:32:48.000Z</time>
      </trkpt>
      <trkpt lat="44.53734" lon="6.49109">
        <ele>851.740296</ele>
        <time>2026-07-27T11:32:50.000Z</time>
      </trkpt>
      <trkpt lat="44.53734" lon="6.49109">
        <ele>851.740296</ele>
        <time>2026-07-27T11:32:50.000Z</time>
      </trkpt>
      <trkpt lat="44.53733" lon="6.49122">
        <ele>852.125062</ele>
        <time>2026-07-27T11:32:52.000Z</time>
      </trkpt>
      <trkpt lat="44.53733" lon="6.49122">
        <ele>852.125062</ele>
        <time>2026-07-27T11:32:52.000Z</time>
      </trkpt>
      <trkpt lat="44.53732" lon="6.49128">
        <ele>852.315393</ele>
        <time>2026-07-27T11:32:52.000Z</time>
      </trkpt>
      <trkpt lat="44.53732" lon="6.49128">
        <ele>852.315393</ele>
        <time>2026-07-27T11:32:52.000Z</time>
      </trkpt>
      <trkpt lat="44.53732" lon="6.49133">
        <ele>852.462689</ele>
        <time>2026-07-27T11:32:53.000Z</time>
      </trkpt>
      <trkpt lat="44.53732" lon="6.49133">
        <ele>852.462689</ele>
        <time>2026-07-27T11:32:53.000Z</time>
      </trkpt>
      <trkpt lat="44.53732" lon="6.49139">
        <ele>852.646809</ele>
        <time>2026-07-27T11:32:54.000Z</time>
      </trkpt>
      <trkpt lat="44.53732" lon="6.49139">
        <ele>852.646809</ele>
        <time>2026-07-27T11:32:54.000Z</time>
      </trkpt>
      <trkpt lat="44.53732" lon="6.49144">
        <ele>852.810358</ele>
        <time>2026-07-27T11:32:55.000Z</time>
      </trkpt>
      <trkpt lat="44.53732" lon="6.49144">
        <ele>852.810358</ele>
        <time>2026-07-27T11:32:55.000Z</time>
      </trkpt>
      <trkpt lat="44.53732" lon="6.49149">
        <ele>852.960723</ele>
        <time>2026-07-27T11:32:56.000Z</time>
      </trkpt>
      <trkpt lat="44.53732" lon="6.49149">
        <ele>852.960723</ele>
        <time>2026-07-27T11:32:56.000Z</time>
      </trkpt>
      <trkpt lat="44.53732" lon="6.49155">
        <ele>853.145646</ele>
        <time>2026-07-27T11:32:57.000Z</time>
      </trkpt>
      <trkpt lat="44.53732" lon="6.49155">
        <ele>853.145646</ele>
        <time>2026-07-27T11:32:57.000Z</time>
      </trkpt>
      <trkpt lat="44.53733" lon="6.49162">
        <ele>853.348909</ele>
        <time>2026-07-27T11:32:58.000Z</time>
      </trkpt>
      <trkpt lat="44.53733" lon="6.49162">
        <ele>853.348909</ele>
        <time>2026-07-27T11:32:58.000Z</time>
      </trkpt>
      <trkpt lat="44.53733" lon="6.49166">
        <ele>853.497209</ele>
        <time>2026-07-27T11:32:59.000Z</time>
      </trkpt>
      <trkpt lat="44.53733" lon="6.49166">
        <ele>853.497209</ele>
        <time>2026-07-27T11:32:59.000Z</time>
      </trkpt>
      <trkpt lat="44.53733" lon="6.4917">
        <ele>853.595406</ele>
        <time>2026-07-27T11:33:00.000Z</time>
      </trkpt>
      <trkpt lat="44.53733" lon="6.4917">
        <ele>853.595406</ele>
        <time>2026-07-27T11:33:00.000Z</time>
      </trkpt>
      <trkpt lat="44.53733" lon="6.49173">
        <ele>853.694449</ele>
        <time>2026-07-27T11:33:02.000Z</time>
      </trkpt>
      <trkpt lat="44.53733" lon="6.49173">
        <ele>853.694449</ele>
        <time>2026-07-27T11:33:02.000Z</time>
      </trkpt>
      <trkpt lat="44.53734" lon="6.49176">
        <ele>853.806256</ele>
        <time>2026-07-27T11:33:02.000Z</time>
      </trkpt>
      <trkpt lat="44.53735" lon="6.4918">
        <ele>853.921972</ele>
        <time>2026-07-27T11:33:03.000Z</time>
      </trkpt>
      <trkpt lat="44.53735" lon="6.4918">
        <ele>853.921972</ele>
        <time>2026-07-27T11:33:03.000Z</time>
      </trkpt>
      <trkpt lat="44.53735" lon="6.49183">
        <ele>854.027718</ele>
        <time>2026-07-27T11:33:04.000Z</time>
      </trkpt>
      <trkpt lat="44.53735" lon="6.49183">
        <ele>854.027718</ele>
        <time>2026-07-27T11:33:04.000Z</time>
      </trkpt>
      <trkpt lat="44.53736" lon="6.49188">
        <ele>854.173703</ele>
        <time>2026-07-27T11:33:05.000Z</time>
      </trkpt>
      <trkpt lat="44.53737" lon="6.49192">
        <ele>854.306774</ele>
        <time>2026-07-27T11:33:07.000Z</time>
      </trkpt>
      <trkpt lat="44.53737" lon="6.49192">
        <ele>854.306774</ele>
        <time>2026-07-27T11:33:07.000Z</time>
      </trkpt>
      <trkpt lat="44.53737" lon="6.49196">
        <ele>854.440181</ele>
        <time>2026-07-27T11:33:07.000Z</time>
      </trkpt>
      <trkpt lat="44.53739" lon="6.49202">
        <ele>854.612323</ele>
        <time>2026-07-27T11:33:08.000Z</time>
      </trkpt>
      <trkpt lat="44.53739" lon="6.49202">
        <ele>854.612323</ele>
        <time>2026-07-27T11:33:08.000Z</time>
      </trkpt>
      <trkpt lat="44.5374" lon="6.49206">
        <ele>854.770348</ele>
        <time>2026-07-27T11:33:09.000Z</time>
      </trkpt>
      <trkpt lat="44.53742" lon="6.49211">
        <ele>854.931177</ele>
        <time>2026-07-27T11:33:10.000Z</time>
      </trkpt>
      <trkpt lat="44.53743" lon="6.49216">
        <ele>855.104752</ele>
        <time>2026-07-27T11:33:11.000Z</time>
      </trkpt>
      <trkpt lat="44.53744" lon="6.49222">
        <ele>855.267143</ele>
        <time>2026-07-27T11:33:12.000Z</time>
      </trkpt>
      <trkpt lat="44.53745" lon="6.49228">
        <ele>855.475267</ele>
        <time>2026-07-27T11:33:13.000Z</time>
      </trkpt>
      <trkpt lat="44.53746" lon="6.49234">
        <ele>855.665379</ele>
        <time>2026-07-27T11:33:14.000Z</time>
      </trkpt>
      <trkpt lat="44.53747" lon="6.4924">
        <ele>855.849677</ele>
        <time>2026-07-27T11:33:15.000Z</time>
      </trkpt>
      <trkpt lat="44.53748" lon="6.49246">
        <ele>856.036819</ele>
        <time>2026-07-27T11:33:16.000Z</time>
      </trkpt>
      <trkpt lat="44.53749" lon="6.49252">
        <ele>856.212578</ele>
        <time>2026-07-27T11:33:18.000Z</time>
      </trkpt>
      <trkpt lat="44.5375" lon="6.49257">
        <ele>856.381827</ele>
        <time>2026-07-27T11:33:18.000Z</time>
      </trkpt>
      <trkpt lat="44.5375" lon="6.49262">
        <ele>856.544218</ele>
        <time>2026-07-27T11:33:20.000Z</time>
      </trkpt>
      <trkpt lat="44.53751" lon="6.49267">
        <ele>856.552602</ele>
        <time>2026-07-27T11:33:20.000Z</time>
      </trkpt>
      <trkpt lat="44.53752" lon="6.49271">
        <ele>856.53659</ele>
        <time>2026-07-27T11:33:21.000Z</time>
      </trkpt>
      <trkpt lat="44.53753" lon="6.49276">
        <ele>856.517391</ele>
        <time>2026-07-27T11:33:22.000Z</time>
      </trkpt>
      <trkpt lat="44.53753" lon="6.49276">
        <ele>856.517391</ele>
        <time>2026-07-27T11:33:22.000Z</time>
      </trkpt>
      <trkpt lat="44.53754" lon="6.49282">
        <ele>856.497502</ele>
        <time>2026-07-27T11:33:23.000Z</time>
      </trkpt>
      <trkpt lat="44.53756" lon="6.49287">
        <ele>856.476431</ele>
        <time>2026-07-27T11:33:24.000Z</time>
      </trkpt>
      <trkpt lat="44.53756" lon="6.49287">
        <ele>856.476431</ele>
        <time>2026-07-27T11:33:24.000Z</time>
      </trkpt>
      <trkpt lat="44.53757" lon="6.49292">
        <ele>856.458265</ele>
        <time>2026-07-27T11:33:25.000Z</time>
      </trkpt>
      <trkpt lat="44.53758" lon="6.49297">
        <ele>856.439381</ele>
        <time>2026-07-27T11:33:26.000Z</time>
      </trkpt>
      <trkpt lat="44.5376" lon="6.49302">
        <ele>856.419304</ele>
        <time>2026-07-27T11:33:27.000Z</time>
      </trkpt>
      <trkpt lat="44.53761" lon="6.49306">
        <ele>856.401078</ele>
        <time>2026-07-27T11:33:29.000Z</time>
      </trkpt>
      <trkpt lat="44.53763" lon="6.4931">
        <ele>856.383154</ele>
        <time>2026-07-27T11:33:29.000Z</time>
      </trkpt>
      <trkpt lat="44.53764" lon="6.49314">
        <ele>856.370354</ele>
        <time>2026-07-27T11:33:30.000Z</time>
      </trkpt>
      <trkpt lat="44.53766" lon="6.49317">
        <ele>856.35447</ele>
        <time>2026-07-27T11:33:31.000Z</time>
      </trkpt>
      <trkpt lat="44.53766" lon="6.49317">
        <ele>856.35447</ele>
        <time>2026-07-27T11:33:31.000Z</time>
      </trkpt>
      <trkpt lat="44.53769" lon="6.49321">
        <ele>856.336831</ele>
        <time>2026-07-27T11:33:32.000Z</time>
      </trkpt>
      <trkpt lat="44.5377" lon="6.49324">
        <ele>856.32098</ele>
        <time>2026-07-27T11:33:33.000Z</time>
      </trkpt>
      <trkpt lat="44.53772" lon="6.49328">
        <ele>856.305998</ele>
        <time>2026-07-27T11:33:34.000Z</time>
      </trkpt>
      <trkpt lat="44.53774" lon="6.49331">
        <ele>856.292198</ele>
        <time>2026-07-27T11:33:35.000Z</time>
      </trkpt>
      <trkpt lat="44.53774" lon="6.49331">
        <ele>856.292198</ele>
        <time>2026-07-27T11:33:35.000Z</time>
      </trkpt>
      <trkpt lat="44.53776" lon="6.49334">
        <ele>856.276805</ele>
        <time>2026-07-27T11:33:36.000Z</time>
      </trkpt>
      <trkpt lat="44.53779" lon="6.49337">
        <ele>856.258939</ele>
        <time>2026-07-27T11:33:37.000Z</time>
      </trkpt>
      <trkpt lat="44.53779" lon="6.49337">
        <ele>856.258939</ele>
        <time>2026-07-27T11:33:37.000Z</time>
      </trkpt>
      <trkpt lat="44.53782" lon="6.49341">
        <ele>856.238747</ele>
        <time>2026-07-27T11:33:38.000Z</time>
      </trkpt>
      <trkpt lat="44.53785" lon="6.49344">
        <ele>856.218174</ele>
        <time>2026-07-27T11:33:39.000Z</time>
      </trkpt>
      <trkpt lat="44.53785" lon="6.49344">
        <ele>856.218174</ele>
        <time>2026-07-27T11:33:39.000Z</time>
      </trkpt>
      <trkpt lat="44.53788" lon="6.49349">
        <ele>856.195511</ele>
        <time>2026-07-27T11:33:40.000Z</time>
      </trkpt>
      <trkpt lat="44.53788" lon="6.49349">
        <ele>856.195511</ele>
        <time>2026-07-27T11:33:40.000Z</time>
      </trkpt>
      <trkpt lat="44.53792" lon="6.49353">
        <ele>856.171279</ele>
        <time>2026-07-27T11:33:42.000Z</time>
      </trkpt>
      <trkpt lat="44.53796" lon="6.49357">
        <ele>856.145618</ele>
        <time>2026-07-27T11:33:43.000Z</time>
      </trkpt>
      <trkpt lat="44.53796" lon="6.49357">
        <ele>856.145618</ele>
        <time>2026-07-27T11:33:43.000Z</time>
      </trkpt>
      <trkpt lat="44.538" lon="6.49361">
        <ele>856.121386</ele>
        <time>2026-07-27T11:33:43.000Z</time>
      </trkpt>
      <trkpt lat="44.53803" lon="6.49365">
        <ele>856.098723</ele>
        <time>2026-07-27T11:33:44.000Z</time>
      </trkpt>
      <trkpt lat="44.53803" lon="6.49365">
        <ele>856.098723</ele>
        <time>2026-07-27T11:33:44.000Z</time>
      </trkpt>
      <trkpt lat="44.53806" lon="6.49369">
        <ele>856.075914</ele>
        <time>2026-07-27T11:33:45.000Z</time>
      </trkpt>
      <trkpt lat="44.53809" lon="6.49374">
        <ele>856.052308</ele>
        <time>2026-07-27T11:33:47.000Z</time>
      </trkpt>
      <trkpt lat="44.53809" lon="6.49374">
        <ele>856.052308</ele>
        <time>2026-07-27T11:33:47.000Z</time>
      </trkpt>
      <trkpt lat="44.53812" lon="6.4938">
        <ele>856.027067</ele>
        <time>2026-07-27T11:33:48.000Z</time>
      </trkpt>
      <trkpt lat="44.53814" lon="6.49386">
        <ele>856.004068</ele>
        <time>2026-07-27T11:33:48.000Z</time>
      </trkpt>
      <trkpt lat="44.53814" lon="6.49386">
        <ele>856.004068</ele>
        <time>2026-07-27T11:33:48.000Z</time>
      </trkpt>
      <trkpt lat="44.53817" lon="6.49391">
        <ele>855.980781</ele>
        <time>2026-07-27T11:33:50.000Z</time>
      </trkpt>
      <trkpt lat="44.53819" lon="6.49397">
        <ele>855.957182</ele>
        <time>2026-07-27T11:33:51.000Z</time>
      </trkpt>
      <trkpt lat="44.53821" lon="6.49403">
        <ele>855.932317</ele>
        <time>2026-07-27T11:33:52.000Z</time>
      </trkpt>
      <trkpt lat="44.53824" lon="6.49409">
        <ele>855.908718</ele>
        <time>2026-07-27T11:33:52.000Z</time>
      </trkpt>
      <trkpt lat="44.53824" lon="6.49409">
        <ele>855.908718</ele>
        <time>2026-07-27T11:33:52.000Z</time>
      </trkpt>
      <trkpt lat="44.53826" lon="6.49415">
        <ele>855.883214</ele>
        <time>2026-07-27T11:33:54.000Z</time>
      </trkpt>
      <trkpt lat="44.53828" lon="6.49421">
        <ele>855.859887</ele>
        <time>2026-07-27T11:33:55.000Z</time>
      </trkpt>
      <trkpt lat="44.5383" lon="6.49427">
        <ele>855.835973</ele>
        <time>2026-07-27T11:33:56.000Z</time>
      </trkpt>
      <trkpt lat="44.53832" lon="6.49432">
        <ele>855.815092</ele>
        <time>2026-07-27T11:33:56.000Z</time>
      </trkpt>
      <trkpt lat="44.53833" lon="6.49438">
        <ele>855.791106</ele>
        <time>2026-07-27T11:33:57.000Z</time>
      </trkpt>
      <trkpt lat="44.53835" lon="6.49444">
        <ele>855.770524</ele>
        <time>2026-07-27T11:33:58.000Z</time>
      </trkpt>
      <trkpt lat="44.53836" lon="6.4945">
        <ele>855.748452</ele>
        <time>2026-07-27T11:34:00.000Z</time>
      </trkpt>
      <trkpt lat="44.53838" lon="6.49456">
        <ele>855.724796</ele>
        <time>2026-07-27T11:34:00.000Z</time>
      </trkpt>
      <trkpt lat="44.5384" lon="6.49461">
        <ele>855.702775</ele>
        <time>2026-07-27T11:34:02.000Z</time>
      </trkpt>
      <trkpt lat="44.53842" lon="6.49466">
        <ele>855.680109</ele>
        <time>2026-07-27T11:34:03.000Z</time>
      </trkpt>
      <trkpt lat="44.53844" lon="6.49473">
        <ele>855.657263</ele>
        <time>2026-07-27T11:34:04.000Z</time>
      </trkpt>
      <trkpt lat="44.53846" lon="6.49479">
        <ele>855.64791</ele>
        <time>2026-07-27T11:34:05.000Z</time>
      </trkpt>
      <trkpt lat="44.53846" lon="6.49479">
        <ele>855.64791</ele>
        <time>2026-07-27T11:34:05.000Z</time>
      </trkpt>
      <trkpt lat="44.53848" lon="6.49486">
        <ele>855.638921</ele>
        <time>2026-07-27T11:34:06.000Z</time>
      </trkpt>
      <trkpt lat="44.53849" lon="6.49493">
        <ele>855.629759</ele>
        <time>2026-07-27T11:34:07.000Z</time>
      </trkpt>
      <trkpt lat="44.5385" lon="6.49499">
        <ele>855.621063</ele>
        <time>2026-07-27T11:34:08.000Z</time>
      </trkpt>
      <trkpt lat="44.5385" lon="6.49499">
        <ele>855.621063</ele>
        <time>2026-07-27T11:34:08.000Z</time>
      </trkpt>
      <trkpt lat="44.53851" lon="6.49505">
        <ele>855.61305</ele>
        <time>2026-07-27T11:34:09.000Z</time>
      </trkpt>
      <trkpt lat="44.53852" lon="6.49511">
        <ele>855.604988</ele>
        <time>2026-07-27T11:34:10.000Z</time>
      </trkpt>
      <trkpt lat="44.53852" lon="6.49511">
        <ele>855.604988</ele>
        <time>2026-07-27T11:34:10.000Z</time>
      </trkpt>
      <trkpt lat="44.53853" lon="6.49516">
        <ele>855.597734</ele>
        <time>2026-07-27T11:34:11.000Z</time>
      </trkpt>
      <trkpt lat="44.53855" lon="6.49521">
        <ele>855.590363</ele>
        <time>2026-07-27T11:34:12.000Z</time>
      </trkpt>
      <trkpt lat="44.53855" lon="6.49521">
        <ele>855.590363</ele>
        <time>2026-07-27T11:34:12.000Z</time>
      </trkpt>
      <trkpt lat="44.53856" lon="6.49527">
        <ele>855.582987</ele>
        <time>2026-07-27T11:34:13.000Z</time>
      </trkpt>
      <trkpt lat="44.53856" lon="6.49527">
        <ele>855.582987</ele>
        <time>2026-07-27T11:34:13.000Z</time>
      </trkpt>
      <trkpt lat="44.53856" lon="6.49532">
        <ele>855.576254</ele>
        <time>2026-07-27T11:34:14.000Z</time>
      </trkpt>
      <trkpt lat="44.53856" lon="6.49532">
        <ele>855.576254</ele>
        <time>2026-07-27T11:34:14.000Z</time>
      </trkpt>
      <trkpt lat="44.53857" lon="6.49537">
        <ele>855.569</ele>
        <time>2026-07-27T11:34:15.000Z</time>
      </trkpt>
      <trkpt lat="44.53857" lon="6.49537">
        <ele>855.569</ele>
        <time>2026-07-27T11:34:15.000Z</time>
      </trkpt>
      <trkpt lat="44.53859" lon="6.49542">
        <ele>855.562192</ele>
        <time>2026-07-27T11:34:16.000Z</time>
      </trkpt>
      <trkpt lat="44.53859" lon="6.49542">
        <ele>855.562192</ele>
        <time>2026-07-27T11:34:16.000Z</time>
      </trkpt>
      <trkpt lat="44.53859" lon="6.49547">
        <ele>855.555368</ele>
        <time>2026-07-27T11:34:16.000Z</time>
      </trkpt>
      <trkpt lat="44.53861" lon="6.49552">
        <ele>855.54876</ele>
        <time>2026-07-27T11:34:17.000Z</time>
      </trkpt>
      <trkpt lat="44.53861" lon="6.49552">
        <ele>855.54876</ele>
        <time>2026-07-27T11:34:17.000Z</time>
      </trkpt>
      <trkpt lat="44.53862" lon="6.49555">
        <ele>855.543733</ele>
        <time>2026-07-27T11:34:19.000Z</time>
      </trkpt>
      <trkpt lat="44.53864" lon="6.49558">
        <ele>855.53837</ele>
        <time>2026-07-27T11:34:19.000Z</time>
      </trkpt>
      <trkpt lat="44.53864" lon="6.49558">
        <ele>855.53837</ele>
        <time>2026-07-27T11:34:19.000Z</time>
      </trkpt>
      <trkpt lat="44.53867" lon="6.4956">
        <ele>855.533086</ele>
        <time>2026-07-27T11:34:21.000Z</time>
      </trkpt>
      <trkpt lat="44.53869" lon="6.49562">
        <ele>855.528353</ele>
        <time>2026-07-27T11:34:21.000Z</time>
      </trkpt>
      <trkpt lat="44.53872" lon="6.49562">
        <ele>855.523544</ele>
        <time>2026-07-27T11:34:22.000Z</time>
      </trkpt>
      <trkpt lat="44.53872" lon="6.49562">
        <ele>855.523544</ele>
        <time>2026-07-27T11:34:22.000Z</time>
      </trkpt>
      <trkpt lat="44.53874" lon="6.49561">
        <ele>855.518504</ele>
        <time>2026-07-27T11:34:24.000Z</time>
      </trkpt>
      <trkpt lat="44.53877" lon="6.4956">
        <ele>855.513388</ele>
        <time>2026-07-27T11:34:24.000Z</time>
      </trkpt>
      <trkpt lat="44.5388" lon="6.49559">
        <ele>855.508126</ele>
        <time>2026-07-27T11:34:26.000Z</time>
      </trkpt>
      <trkpt lat="44.53882" lon="6.49558">
        <ele>855.503901</ele>
        <time>2026-07-27T11:34:27.000Z</time>
      </trkpt>
      <trkpt lat="44.53885" lon="6.49558">
        <ele>855.498862</ele>
        <time>2026-07-27T11:34:28.000Z</time>
      </trkpt>
      <trkpt lat="44.53887" lon="6.49557">
        <ele>855.494549</ele>
        <time>2026-07-27T11:34:29.000Z</time>
      </trkpt>
      <trkpt lat="44.5389" lon="6.49556">
        <ele>855.489433</ele>
        <time>2026-07-27T11:34:30.000Z</time>
      </trkpt>
      <trkpt lat="44.53893" lon="6.49555">
        <ele>855.483001</ele>
        <time>2026-07-27T11:34:31.000Z</time>
      </trkpt>
      <trkpt lat="44.53897" lon="6.49554">
        <ele>855.475042</ele>
        <time>2026-07-27T11:34:32.000Z</time>
      </trkpt>
      <trkpt lat="44.53902" lon="6.49552">
        <ele>855.466273</ele>
        <time>2026-07-27T11:34:33.000Z</time>
      </trkpt>
      <trkpt lat="44.53902" lon="6.49552">
        <ele>855.466273</ele>
        <time>2026-07-27T11:34:33.000Z</time>
      </trkpt>
      <trkpt lat="44.53906" lon="6.49549">
        <ele>855.458591</ele>
        <time>2026-07-27T11:34:34.000Z</time>
      </trkpt>
      <trkpt lat="44.53911" lon="6.49547">
        <ele>855.447413</ele>
        <time>2026-07-27T11:34:35.000Z</time>
      </trkpt>
      <trkpt lat="44.53916" lon="6.49544">
        <ele>855.438319</ele>
        <time>2026-07-27T11:34:36.000Z</time>
      </trkpt>
      <trkpt lat="44.5392" lon="6.49542">
        <ele>855.431005</ele>
        <time>2026-07-27T11:34:37.000Z</time>
      </trkpt>
      <trkpt lat="44.53924" lon="6.49541">
        <ele>855.422424</ele>
        <time>2026-07-27T11:34:38.000Z</time>
      </trkpt>
      <trkpt lat="44.53924" lon="6.49541">
        <ele>855.422424</ele>
        <time>2026-07-27T11:34:38.000Z</time>
      </trkpt>
      <trkpt lat="44.53928" lon="6.49541">
        <ele>855.41468</ele>
        <time>2026-07-27T11:34:39.000Z</time>
      </trkpt>
      <trkpt lat="44.53932" lon="6.49543">
        <ele>855.408217</ele>
        <time>2026-07-27T11:34:40.000Z</time>
      </trkpt>
      <trkpt lat="44.53935" lon="6.49544">
        <ele>855.402761</ele>
        <time>2026-07-27T11:34:41.000Z</time>
      </trkpt>
      <trkpt lat="44.53935" lon="6.49544">
        <ele>855.402761</ele>
        <time>2026-07-27T11:34:41.000Z</time>
      </trkpt>
      <trkpt lat="44.53938" lon="6.49546">
        <ele>855.396693</ele>
        <time>2026-07-27T11:34:42.000Z</time>
      </trkpt>
      <trkpt lat="44.5394" lon="6.49549">
        <ele>855.390581</ele>
        <time>2026-07-27T11:34:43.000Z</time>
      </trkpt>
      <trkpt lat="44.53943" lon="6.49551">
        <ele>855.385012</ele>
        <time>2026-07-27T11:34:43.000Z</time>
      </trkpt>
      <trkpt lat="44.53946" lon="6.49552">
        <ele>855.379967</ele>
        <time>2026-07-27T11:34:44.000Z</time>
      </trkpt>
      <trkpt lat="44.53946" lon="6.49552">
        <ele>855.379967</ele>
        <time>2026-07-27T11:34:44.000Z</time>
      </trkpt>
      <trkpt lat="44.53949" lon="6.49552">
        <ele>855.374228</ele>
        <time>2026-07-27T11:34:46.000Z</time>
      </trkpt>
      <trkpt lat="44.53948" lon="6.49552">
        <ele>855.372747</ele>
        <time>2026-07-27T11:34:46.000Z</time>
      </trkpt>
      <trkpt lat="44.53952" lon="6.49552">
        <ele>855.364266</ele>
        <time>2026-07-27T11:34:48.000Z</time>
      </trkpt>
      <trkpt lat="44.53955" lon="6.49552">
        <ele>855.359273</ele>
        <time>2026-07-27T11:34:48.000Z</time>
      </trkpt>
      <trkpt lat="44.53958" lon="6.49552">
        <ele>855.354473</ele>
        <time>2026-07-27T11:34:49.000Z</time>
      </trkpt>
      <trkpt lat="44.53958" lon="6.49552">
        <ele>855.354473</ele>
        <time>2026-07-27T11:34:49.000Z</time>
      </trkpt>
      <trkpt lat="44.53962" lon="6.49551">
        <ele>855.347264</ele>
        <time>2026-07-27T11:34:50.000Z</time>
      </trkpt>
      <trkpt lat="44.53967" lon="6.49552">
        <ele>855.337493</ele>
        <time>2026-07-27T11:34:52.000Z</time>
      </trkpt>
      <trkpt lat="44.5397" lon="6.49552">
        <ele>855.33174</ele>
        <time>2026-07-27T11:34:53.000Z</time>
      </trkpt>
      <trkpt lat="44.53973" lon="6.49552">
        <ele>855.326918</ele>
        <time>2026-07-27T11:34:54.000Z</time>
      </trkpt>
      <trkpt lat="44.53973" lon="6.49552">
        <ele>855.326918</ele>
        <time>2026-07-27T11:34:54.000Z</time>
      </trkpt>
      <trkpt lat="44.53975" lon="6.4955">
        <ele>855.12636</ele>
        <time>2026-07-27T11:34:54.000Z</time>
      </trkpt>
      <trkpt lat="44.53978" lon="6.49548">
        <ele>854.915548</ele>
        <time>2026-07-27T11:34:56.000Z</time>
      </trkpt>
      <trkpt lat="44.5398" lon="6.49545">
        <ele>854.677719</ele>
        <time>2026-07-27T11:34:56.000Z</time>
      </trkpt>
      <trkpt lat="44.5398" lon="6.49545">
        <ele>854.677719</ele>
        <time>2026-07-27T11:34:56.000Z</time>
      </trkpt>
      <trkpt lat="44.53982" lon="6.49541">
        <ele>854.408622</ele>
        <time>2026-07-27T11:34:57.000Z</time>
      </trkpt>
      <trkpt lat="44.53984" lon="6.49538">
        <ele>854.197353</ele>
        <time>2026-07-27T11:34:59.000Z</time>
      </trkpt>
      <trkpt lat="44.53984" lon="6.49538">
        <ele>854.197353</ele>
        <time>2026-07-27T11:34:59.000Z</time>
      </trkpt>
      <trkpt lat="44.53985" lon="6.49535">
        <ele>853.986085</ele>
        <time>2026-07-27T11:34:59.000Z</time>
      </trkpt>
      <trkpt lat="44.53986" lon="6.49532">
        <ele>853.826643</ele>
        <time>2026-07-27T11:35:01.000Z</time>
      </trkpt>
      <trkpt lat="44.53986" lon="6.49532">
        <ele>853.826643</ele>
        <time>2026-07-27T11:35:01.000Z</time>
      </trkpt>
      <trkpt lat="44.53986" lon="6.49529">
        <ele>853.653911</ele>
        <time>2026-07-27T11:35:01.000Z</time>
      </trkpt>
      <trkpt lat="44.53984" lon="6.49526">
        <ele>853.495666</ele>
        <time>2026-07-27T11:35:03.000Z</time>
      </trkpt>
      <trkpt lat="44.53984" lon="6.49526">
        <ele>853.495666</ele>
        <time>2026-07-27T11:35:03.000Z</time>
      </trkpt>
      <trkpt lat="44.53983" lon="6.49524">
        <ele>853.319272</ele>
        <time>2026-07-27T11:35:03.000Z</time>
      </trkpt>
      <trkpt lat="44.53983" lon="6.49524">
        <ele>853.319272</ele>
        <time>2026-07-27T11:35:03.000Z</time>
      </trkpt>
      <trkpt lat="44.53981" lon="6.49521">
        <ele>853.129225</ele>
        <time>2026-07-27T11:35:04.000Z</time>
      </trkpt>
      <trkpt lat="44.5398" lon="6.49519">
        <ele>852.966019</ele>
        <time>2026-07-27T11:35:05.000Z</time>
      </trkpt>
      <trkpt lat="44.5398" lon="6.49519">
        <ele>852.966019</ele>
        <time>2026-07-27T11:35:05.000Z</time>
      </trkpt>
      <trkpt lat="44.5398" lon="6.49518">
        <ele>852.913271</ele>
        <time>2026-07-27T11:35:06.000Z</time>
      </trkpt>
      <trkpt lat="44.5398" lon="6.49513">
        <ele>852.652408</ele>
        <time>2026-07-27T11:35:07.000Z</time>
      </trkpt>
      <trkpt lat="44.5398" lon="6.49513">
        <ele>852.652408</ele>
        <time>2026-07-27T11:35:07.000Z</time>
      </trkpt>
      <trkpt lat="44.53981" lon="6.49511">
        <ele>852.484129</ele>
        <time>2026-07-27T11:35:09.000Z</time>
      </trkpt>
      <trkpt lat="44.53981" lon="6.49511">
        <ele>852.484129</ele>
        <time>2026-07-27T11:35:09.000Z</time>
      </trkpt>
      <trkpt lat="44.53983" lon="6.49511">
        <ele>852.37002</ele>
        <time>2026-07-27T11:35:10.000Z</time>
      </trkpt>
      <trkpt lat="44.53983" lon="6.49511">
        <ele>852.37002</ele>
        <time>2026-07-27T11:35:10.000Z</time>
      </trkpt>
      <trkpt lat="44.53986" lon="6.49512">
        <ele>852.102281</ele>
        <time>2026-07-27T11:35:10.000Z</time>
      </trkpt>
      <trkpt lat="44.53986" lon="6.49512">
        <ele>852.102281</ele>
        <time>2026-07-27T11:35:10.000Z</time>
      </trkpt>
      <trkpt lat="44.5399" lon="6.49513">
        <ele>851.806069</ele>
        <time>2026-07-27T11:35:11.000Z</time>
      </trkpt>
      <trkpt lat="44.5399" lon="6.49513">
        <ele>851.806069</ele>
        <time>2026-07-27T11:35:11.000Z</time>
      </trkpt>
      <trkpt lat="44.53995" lon="6.49515">
        <ele>851.447158</ele>
        <time>2026-07-27T11:35:12.000Z</time>
      </trkpt>
      <trkpt lat="44.53995" lon="6.49515">
        <ele>851.447158</ele>
        <time>2026-07-27T11:35:12.000Z</time>
      </trkpt>
      <trkpt lat="44.54" lon="6.49515">
        <ele>851.075917</ele>
        <time>2026-07-27T11:35:13.000Z</time>
      </trkpt>
      <trkpt lat="44.54" lon="6.49515">
        <ele>851.075917</ele>
        <time>2026-07-27T11:35:13.000Z</time>
      </trkpt>
      <trkpt lat="44.54005" lon="6.49515">
        <ele>850.666931</ele>
        <time>2026-07-27T11:35:14.000Z</time>
      </trkpt>
      <trkpt lat="44.54005" lon="6.49515">
        <ele>850.666931</ele>
        <time>2026-07-27T11:35:14.000Z</time>
      </trkpt>
      <trkpt lat="44.5401" lon="6.49513">
        <ele>850.258502</ele>
        <time>2026-07-27T11:35:15.000Z</time>
      </trkpt>
      <trkpt lat="44.5401" lon="6.49513">
        <ele>850.258502</ele>
        <time>2026-07-27T11:35:15.000Z</time>
      </trkpt>
      <trkpt lat="44.54016" lon="6.49511">
        <ele>849.842861</ele>
        <time>2026-07-27T11:35:16.000Z</time>
      </trkpt>
      <trkpt lat="44.54016" lon="6.49511">
        <ele>849.842861</ele>
        <time>2026-07-27T11:35:16.000Z</time>
      </trkpt>
      <trkpt lat="44.54022" lon="6.49509">
        <ele>849.381742</ele>
        <time>2026-07-27T11:35:17.000Z</time>
      </trkpt>
      <trkpt lat="44.54022" lon="6.49509">
        <ele>849.381742</ele>
        <time>2026-07-27T11:35:17.000Z</time>
      </trkpt>
      <trkpt lat="44.54028" lon="6.49505">
        <ele>848.859557</ele>
        <time>2026-07-27T11:35:18.000Z</time>
      </trkpt>
      <trkpt lat="44.54028" lon="6.49505">
        <ele>848.859557</ele>
        <time>2026-07-27T11:35:18.000Z</time>
      </trkpt>
      <trkpt lat="44.54034" lon="6.49502">
        <ele>848.360457</ele>
        <time>2026-07-27T11:35:19.000Z</time>
      </trkpt>
      <trkpt lat="44.54034" lon="6.49502">
        <ele>848.360457</ele>
        <time>2026-07-27T11:35:19.000Z</time>
      </trkpt>
      <trkpt lat="44.54041" lon="6.49498">
        <ele>847.831236</ele>
        <time>2026-07-27T11:35:20.000Z</time>
      </trkpt>
      <trkpt lat="44.54041" lon="6.49498">
        <ele>847.831236</ele>
        <time>2026-07-27T11:35:20.000Z</time>
      </trkpt>
      <trkpt lat="44.54048" lon="6.49493">
        <ele>847.222964</ele>
        <time>2026-07-27T11:35:21.000Z</time>
      </trkpt>
      <trkpt lat="44.54048" lon="6.49493">
        <ele>847.222964</ele>
        <time>2026-07-27T11:35:21.000Z</time>
      </trkpt>
      <trkpt lat="44.54055" lon="6.49488">
        <ele>846.62308</ele>
        <time>2026-07-27T11:35:22.000Z</time>
      </trkpt>
      <trkpt lat="44.54055" lon="6.49488">
        <ele>846.62308</ele>
        <time>2026-07-27T11:35:22.000Z</time>
      </trkpt>
      <trkpt lat="44.54062" lon="6.49482">
        <ele>846.002552</ele>
        <time>2026-07-27T11:35:23.000Z</time>
      </trkpt>
      <trkpt lat="44.54062" lon="6.49482">
        <ele>846.002552</ele>
        <time>2026-07-27T11:35:23.000Z</time>
      </trkpt>
      <trkpt lat="44.54067" lon="6.49475">
        <ele>845.474121</ele>
        <time>2026-07-27T11:35:24.000Z</time>
      </trkpt>
      <trkpt lat="44.54067" lon="6.49475">
        <ele>845.474121</ele>
        <time>2026-07-27T11:35:24.000Z</time>
      </trkpt>
      <trkpt lat="44.54072" lon="6.49469">
        <ele>844.978017</ele>
        <time>2026-07-27T11:35:25.000Z</time>
      </trkpt>
      <trkpt lat="44.54072" lon="6.49469">
        <ele>844.978017</ele>
        <time>2026-07-27T11:35:25.000Z</time>
      </trkpt>
      <trkpt lat="44.54076" lon="6.49464">
        <ele>844.576021</ele>
        <time>2026-07-27T11:35:26.000Z</time>
      </trkpt>
      <trkpt lat="44.54076" lon="6.49464">
        <ele>844.576021</ele>
        <time>2026-07-27T11:35:26.000Z</time>
      </trkpt>
      <trkpt lat="44.54079" lon="6.49459">
        <ele>844.19774</ele>
        <time>2026-07-27T11:35:27.000Z</time>
      </trkpt>
      <trkpt lat="44.54079" lon="6.49459">
        <ele>844.19774</ele>
        <time>2026-07-27T11:35:27.000Z</time>
      </trkpt>
      <trkpt lat="44.54082" lon="6.49454">
        <ele>843.872318</ele>
        <time>2026-07-27T11:35:28.000Z</time>
      </trkpt>
      <trkpt lat="44.54082" lon="6.49454">
        <ele>843.872318</ele>
        <time>2026-07-27T11:35:28.000Z</time>
      </trkpt>
      <trkpt lat="44.54084" lon="6.49449">
        <ele>843.542259</ele>
        <time>2026-07-27T11:35:29.000Z</time>
      </trkpt>
      <trkpt lat="44.54084" lon="6.49449">
        <ele>843.542259</ele>
        <time>2026-07-27T11:35:29.000Z</time>
      </trkpt>
      <trkpt lat="44.54087" lon="6.49444">
        <ele>843.190616</ele>
        <time>2026-07-27T11:35:30.000Z</time>
      </trkpt>
      <trkpt lat="44.54087" lon="6.49444">
        <ele>843.190616</ele>
        <time>2026-07-27T11:35:30.000Z</time>
      </trkpt>
      <trkpt lat="44.54089" lon="6.49439">
        <ele>842.869401</ele>
        <time>2026-07-27T11:35:31.000Z</time>
      </trkpt>
      <trkpt lat="44.54089" lon="6.49439">
        <ele>842.869401</ele>
        <time>2026-07-27T11:35:31.000Z</time>
      </trkpt>
      <trkpt lat="44.54092" lon="6.49435">
        <ele>842.556718</ele>
        <time>2026-07-27T11:35:32.000Z</time>
      </trkpt>
      <trkpt lat="44.54092" lon="6.49435">
        <ele>842.556718</ele>
        <time>2026-07-27T11:35:32.000Z</time>
      </trkpt>
      <trkpt lat="44.54095" lon="6.49432">
        <ele>842.299205</ele>
        <time>2026-07-27T11:35:33.000Z</time>
      </trkpt>
      <trkpt lat="44.54095" lon="6.49432">
        <ele>842.299205</ele>
        <time>2026-07-27T11:35:33.000Z</time>
      </trkpt>
      <trkpt lat="44.54097" lon="6.49431">
        <ele>842.118375</ele>
        <time>2026-07-27T11:35:34.000Z</time>
      </trkpt>
      <trkpt lat="44.54097" lon="6.49431">
        <ele>842.118375</ele>
        <time>2026-07-27T11:35:34.000Z</time>
      </trkpt>
      <trkpt lat="44.54099" lon="6.4943">
        <ele>841.969607</ele>
        <time>2026-07-27T11:35:35.000Z</time>
      </trkpt>
      <trkpt lat="44.54099" lon="6.4943">
        <ele>841.969607</ele>
        <time>2026-07-27T11:35:35.000Z</time>
      </trkpt>
      <trkpt lat="44.54102" lon="6.49431">
        <ele>841.763358</ele>
        <time>2026-07-27T11:35:36.000Z</time>
      </trkpt>
      <trkpt lat="44.54102" lon="6.49431">
        <ele>841.763358</ele>
        <time>2026-07-27T11:35:36.000Z</time>
      </trkpt>
      <trkpt lat="44.54104" lon="6.49432">
        <ele>841.684157</ele>
        <time>2026-07-27T11:35:37.000Z</time>
      </trkpt>
      <trkpt lat="44.54104" lon="6.49432">
        <ele>841.684157</ele>
        <time>2026-07-27T11:35:37.000Z</time>
      </trkpt>
      <trkpt lat="44.54107" lon="6.49434">
        <ele>841.655949</ele>
        <time>2026-07-27T11:35:38.000Z</time>
      </trkpt>
      <trkpt lat="44.54107" lon="6.49434">
        <ele>841.655949</ele>
        <time>2026-07-27T11:35:38.000Z</time>
      </trkpt>
      <trkpt lat="44.54108" lon="6.49437">
        <ele>841.629553</ele>
        <time>2026-07-27T11:35:40.000Z</time>
      </trkpt>
      <trkpt lat="44.54108" lon="6.49437">
        <ele>841.629553</ele>
        <time>2026-07-27T11:35:40.000Z</time>
      </trkpt>
      <trkpt lat="44.5411" lon="6.4944">
        <ele>841.601629</ele>
        <time>2026-07-27T11:35:41.000Z</time>
      </trkpt>
      <trkpt lat="44.5411" lon="6.4944">
        <ele>841.601629</ele>
        <time>2026-07-27T11:35:41.000Z</time>
      </trkpt>
      <trkpt lat="44.54113" lon="6.49444">
        <ele>841.565068</ele>
        <time>2026-07-27T11:35:41.000Z</time>
      </trkpt>
      <trkpt lat="44.54113" lon="6.49444">
        <ele>841.565068</ele>
        <time>2026-07-27T11:35:41.000Z</time>
      </trkpt>
      <trkpt lat="44.54115" lon="6.49447">
        <ele>841.532714</ele>
        <time>2026-07-27T11:35:42.000Z</time>
      </trkpt>
      <trkpt lat="44.54115" lon="6.49447">
        <ele>841.532714</ele>
        <time>2026-07-27T11:35:42.000Z</time>
      </trkpt>
      <trkpt lat="44.54116" lon="6.49451">
        <ele>841.500836</ele>
        <time>2026-07-27T11:35:43.000Z</time>
      </trkpt>
      <trkpt lat="44.54116" lon="6.49451">
        <ele>841.500836</ele>
        <time>2026-07-27T11:35:43.000Z</time>
      </trkpt>
      <trkpt lat="44.54116" lon="6.49454">
        <ele>841.476808</ele>
        <time>2026-07-27T11:35:44.000Z</time>
      </trkpt>
      <trkpt lat="44.54117" lon="6.49458">
        <ele>841.448882</ele>
        <time>2026-07-27T11:35:46.000Z</time>
      </trkpt>
      <trkpt lat="44.54117" lon="6.49458">
        <ele>841.448882</ele>
        <time>2026-07-27T11:35:46.000Z</time>
      </trkpt>
      <trkpt lat="44.54117" lon="6.49462">
        <ele>841.42288</ele>
        <time>2026-07-27T11:35:46.000Z</time>
      </trkpt>
      <trkpt lat="44.54118" lon="6.49466">
        <ele>841.393706</ele>
        <time>2026-07-27T11:35:47.000Z</time>
      </trkpt>
      <trkpt lat="44.54118" lon="6.49469">
        <ele>841.367159</ele>
        <time>2026-07-27T11:35:48.000Z</time>
      </trkpt>
      <trkpt lat="44.5412" lon="6.49472">
        <ele>841.341279</ele>
        <time>2026-07-27T11:35:49.000Z</time>
      </trkpt>
      <trkpt lat="44.54122" lon="6.49475">
        <ele>841.314383</ele>
        <time>2026-07-27T11:35:50.000Z</time>
      </trkpt>
      <trkpt lat="44.54125" lon="6.49477">
        <ele>841.281994</ele>
        <time>2026-07-27T11:35:51.000Z</time>
      </trkpt>
      <trkpt lat="44.54128" lon="6.4948">
        <ele>841.243805</ele>
        <time>2026-07-27T11:35:53.000Z</time>
      </trkpt>
      <trkpt lat="44.5413" lon="6.49484">
        <ele>841.208345</ele>
        <time>2026-07-27T11:35:54.000Z</time>
      </trkpt>
      <trkpt lat="44.54132" lon="6.49488">
        <ele>841.173426</ele>
        <time>2026-07-27T11:35:55.000Z</time>
      </trkpt>
      <trkpt lat="44.54132" lon="6.49488">
        <ele>841.173426</ele>
        <time>2026-07-27T11:35:55.000Z</time>
      </trkpt>
      <trkpt lat="44.54134" lon="6.49492">
        <ele>841.135649</ele>
        <time>2026-07-27T11:35:55.000Z</time>
      </trkpt>
      <trkpt lat="44.54135" lon="6.49497">
        <ele>841.100748</ele>
        <time>2026-07-27T11:35:57.000Z</time>
      </trkpt>
      <trkpt lat="44.54135" lon="6.49502">
        <ele>841.060907</ele>
        <time>2026-07-27T11:35:58.000Z</time>
      </trkpt>
      <trkpt lat="44.54136" lon="6.49508">
        <ele>841.01882</ele>
        <time>2026-07-27T11:35:59.000Z</time>
      </trkpt>
      <trkpt lat="44.54136" lon="6.49508">
        <ele>841.01882</ele>
        <time>2026-07-27T11:35:59.000Z</time>
      </trkpt>
      <trkpt lat="44.54135" lon="6.49514">
        <ele>840.973856</ele>
        <time>2026-07-27T11:36:00.000Z</time>
      </trkpt>
      <trkpt lat="44.54134" lon="6.4952">
        <ele>840.930656</ele>
        <time>2026-07-27T11:36:01.000Z</time>
      </trkpt>
      <trkpt lat="44.54134" lon="6.4952">
        <ele>840.930656</ele>
        <time>2026-07-27T11:36:01.000Z</time>
      </trkpt>
      <trkpt lat="44.54134" lon="6.49526">
        <ele>840.884973</ele>
        <time>2026-07-27T11:36:02.000Z</time>
      </trkpt>
      <trkpt lat="44.54134" lon="6.49526">
        <ele>840.884973</ele>
        <time>2026-07-27T11:36:02.000Z</time>
      </trkpt>
      <trkpt lat="44.54133" lon="6.49533">
        <ele>840.83356</ele>
        <time>2026-07-27T11:36:03.000Z</time>
      </trkpt>
      <trkpt lat="44.54131" lon="6.49541">
        <ele>840.779451</ele>
        <time>2026-07-27T11:36:04.000Z</time>
      </trkpt>
      <trkpt lat="44.54131" lon="6.49541">
        <ele>840.779451</ele>
        <time>2026-07-27T11:36:04.000Z</time>
      </trkpt>
      <trkpt lat="44.54131" lon="6.49548">
        <ele>840.727681</ele>
        <time>2026-07-27T11:36:05.000Z</time>
      </trkpt>
      <trkpt lat="44.54131" lon="6.49548">
        <ele>840.727681</ele>
        <time>2026-07-27T11:36:05.000Z</time>
      </trkpt>
      <trkpt lat="44.54129" lon="6.49555">
        <ele>840.671194</ele>
        <time>2026-07-27T11:36:06.000Z</time>
      </trkpt>
      <trkpt lat="44.54129" lon="6.49555">
        <ele>840.671194</ele>
        <time>2026-07-27T11:36:06.000Z</time>
      </trkpt>
      <trkpt lat="44.54128" lon="6.49561">
        <ele>840.624346</ele>
        <time>2026-07-27T11:36:07.000Z</time>
      </trkpt>
      <trkpt lat="44.54128" lon="6.49561">
        <ele>840.624346</ele>
        <time>2026-07-27T11:36:07.000Z</time>
      </trkpt>
      <trkpt lat="44.54126" lon="6.49569">
        <ele>840.566917</ele>
        <time>2026-07-27T11:36:08.000Z</time>
      </trkpt>
      <trkpt lat="44.54126" lon="6.49569">
        <ele>840.566917</ele>
        <time>2026-07-27T11:36:08.000Z</time>
      </trkpt>
      <trkpt lat="44.54126" lon="6.49577">
        <ele>840.511429</ele>
        <time>2026-07-27T11:36:09.000Z</time>
      </trkpt>
      <trkpt lat="44.54126" lon="6.49577">
        <ele>840.511429</ele>
        <time>2026-07-27T11:36:09.000Z</time>
      </trkpt>
      <trkpt lat="44.54124" lon="6.49585">
        <ele>840.450284</ele>
        <time>2026-07-27T11:36:10.000Z</time>
      </trkpt>
      <trkpt lat="44.54124" lon="6.49585">
        <ele>840.450284</ele>
        <time>2026-07-27T11:36:10.000Z</time>
      </trkpt>
      <trkpt lat="44.54122" lon="6.49591">
        <ele>840.398872</ele>
        <time>2026-07-27T11:36:11.000Z</time>
      </trkpt>
      <trkpt lat="44.54122" lon="6.49591">
        <ele>840.398872</ele>
        <time>2026-07-27T11:36:11.000Z</time>
      </trkpt>
      <trkpt lat="44.54119" lon="6.49599">
        <ele>840.335925</ele>
        <time>2026-07-27T11:36:12.000Z</time>
      </trkpt>
      <trkpt lat="44.54119" lon="6.49599">
        <ele>840.335925</ele>
        <time>2026-07-27T11:36:12.000Z</time>
      </trkpt>
      <trkpt lat="44.54116" lon="6.49605">
        <ele>840.278163</ele>
        <time>2026-07-27T11:36:13.000Z</time>
      </trkpt>
      <trkpt lat="44.54116" lon="6.49605">
        <ele>840.278163</ele>
        <time>2026-07-27T11:36:13.000Z</time>
      </trkpt>
      <trkpt lat="44.54113" lon="6.4961">
        <ele>840.232856</ele>
        <time>2026-07-27T11:36:14.000Z</time>
      </trkpt>
      <trkpt lat="44.54113" lon="6.4961">
        <ele>840.232856</ele>
        <time>2026-07-27T11:36:14.000Z</time>
      </trkpt>
      <trkpt lat="44.5411" lon="6.49616">
        <ele>840.186388</ele>
        <time>2026-07-27T11:36:14.000Z</time>
      </trkpt>
      <trkpt lat="44.5411" lon="6.49616">
        <ele>840.186388</ele>
        <time>2026-07-27T11:36:14.000Z</time>
      </trkpt>
      <trkpt lat="44.54108" lon="6.4962">
        <ele>840.148611</ele>
        <time>2026-07-27T11:36:16.000Z</time>
      </trkpt>
      <trkpt lat="44.54108" lon="6.4962">
        <ele>840.148611</ele>
        <time>2026-07-27T11:36:16.000Z</time>
      </trkpt>
      <trkpt lat="44.54107" lon="6.49624">
        <ele>840.117645</ele>
        <time>2026-07-27T11:36:16.000Z</time>
      </trkpt>
      <trkpt lat="44.54107" lon="6.49624">
        <ele>840.117645</ele>
        <time>2026-07-27T11:36:16.000Z</time>
      </trkpt>
      <trkpt lat="44.54107" lon="6.49629">
        <ele>840.08442</ele>
        <time>2026-07-27T11:36:18.000Z</time>
      </trkpt>
      <trkpt lat="44.54107" lon="6.49629">
        <ele>840.08442</ele>
        <time>2026-07-27T11:36:18.000Z</time>
      </trkpt>
      <trkpt lat="44.54109" lon="6.49633">
        <ele>840.047226</ele>
        <time>2026-07-27T11:36:18.000Z</time>
      </trkpt>
      <trkpt lat="44.54109" lon="6.49633">
        <ele>840.047226</ele>
        <time>2026-07-27T11:36:18.000Z</time>
      </trkpt>
      <trkpt lat="44.54111" lon="6.49639">
        <ele>840.00502</ele>
        <time>2026-07-27T11:36:20.000Z</time>
      </trkpt>
      <trkpt lat="44.54114" lon="6.49645">
        <ele>839.950909</ele>
        <time>2026-07-27T11:36:20.000Z</time>
      </trkpt>
      <trkpt lat="44.54114" lon="6.49645">
        <ele>839.950909</ele>
        <time>2026-07-27T11:36:20.000Z</time>
      </trkpt>
      <trkpt lat="44.54117" lon="6.49651">
        <ele>839.896784</ele>
        <time>2026-07-27T11:36:21.000Z</time>
      </trkpt>
      <trkpt lat="44.5412" lon="6.49657">
        <ele>839.771037</ele>
        <time>2026-07-27T11:36:23.000Z</time>
      </trkpt>
      <trkpt lat="44.54124" lon="6.49661">
        <ele>839.627812</ele>
        <time>2026-07-27T11:36:24.000Z</time>
      </trkpt>
      <trkpt lat="44.54128" lon="6.49664">
        <ele>839.498685</ele>
        <time>2026-07-27T11:36:25.000Z</time>
      </trkpt>
      <trkpt lat="44.54133" lon="6.49665">
        <ele>839.361673</ele>
        <time>2026-07-27T11:36:26.000Z</time>
      </trkpt>
      <trkpt lat="44.54133" lon="6.49665">
        <ele>839.361673</ele>
        <time>2026-07-27T11:36:26.000Z</time>
      </trkpt>
      <trkpt lat="44.54137" lon="6.49666">
        <ele>839.219054</ele>
        <time>2026-07-27T11:36:26.000Z</time>
      </trkpt>
      <trkpt lat="44.54143" lon="6.49667">
        <ele>839.054251</ele>
        <time>2026-07-27T11:36:28.000Z</time>
      </trkpt>
      <trkpt lat="44.54149" lon="6.49667">
        <ele>838.886994</ele>
        <time>2026-07-27T11:36:29.000Z</time>
      </trkpt>
      <trkpt lat="44.54149" lon="6.49667">
        <ele>838.886994</ele>
        <time>2026-07-27T11:36:29.000Z</time>
      </trkpt>
      <trkpt lat="44.54155" lon="6.49668">
        <ele>838.722498</ele>
        <time>2026-07-27T11:36:30.000Z</time>
      </trkpt>
      <trkpt lat="44.5416" lon="6.49668">
        <ele>838.558271</ele>
        <time>2026-07-27T11:36:31.000Z</time>
      </trkpt>
      <trkpt lat="44.5416" lon="6.49668">
        <ele>838.558271</ele>
        <time>2026-07-27T11:36:31.000Z</time>
      </trkpt>
      <trkpt lat="44.54165" lon="6.49669">
        <ele>838.414023</ele>
        <time>2026-07-27T11:36:32.000Z</time>
      </trkpt>
      <trkpt lat="44.5417" lon="6.49669">
        <ele>838.292773</ele>
        <time>2026-07-27T11:36:33.000Z</time>
      </trkpt>
      <trkpt lat="44.5417" lon="6.49669">
        <ele>838.292773</ele>
        <time>2026-07-27T11:36:33.000Z</time>
      </trkpt>
      <trkpt lat="44.54174" lon="6.49669">
        <ele>838.171524</ele>
        <time>2026-07-27T11:36:34.000Z</time>
      </trkpt>
      <trkpt lat="44.54174" lon="6.49669">
        <ele>838.171524</ele>
        <time>2026-07-27T11:36:34.000Z</time>
      </trkpt>
      <trkpt lat="44.54178" lon="6.4967">
        <ele>838.050483</ele>
        <time>2026-07-27T11:36:35.000Z</time>
      </trkpt>
      <trkpt lat="44.54178" lon="6.4967">
        <ele>838.050483</ele>
        <time>2026-07-27T11:36:35.000Z</time>
      </trkpt>
      <trkpt lat="44.54182" lon="6.4967">
        <ele>837.941013</ele>
        <time>2026-07-27T11:36:36.000Z</time>
      </trkpt>
      <trkpt lat="44.54182" lon="6.4967">
        <ele>837.941013</ele>
        <time>2026-07-27T11:36:36.000Z</time>
      </trkpt>
      <trkpt lat="44.54186" lon="6.4967">
        <ele>837.831543</ele>
        <time>2026-07-27T11:36:37.000Z</time>
      </trkpt>
      <trkpt lat="44.54186" lon="6.4967">
        <ele>837.831543</ele>
        <time>2026-07-27T11:36:37.000Z</time>
      </trkpt>
      <trkpt lat="44.54189" lon="6.49669">
        <ele>837.73327</ele>
        <time>2026-07-27T11:36:38.000Z</time>
      </trkpt>
      <trkpt lat="44.54189" lon="6.49669">
        <ele>837.73327</ele>
        <time>2026-07-27T11:36:38.000Z</time>
      </trkpt>
      <trkpt lat="44.54192" lon="6.49668">
        <ele>837.651695</ele>
        <time>2026-07-27T11:36:39.000Z</time>
      </trkpt>
      <trkpt lat="44.54192" lon="6.49668">
        <ele>837.651695</ele>
        <time>2026-07-27T11:36:39.000Z</time>
      </trkpt>
      <trkpt lat="44.54194" lon="6.49667">
        <ele>837.567275</ele>
        <time>2026-07-27T11:36:40.000Z</time>
      </trkpt>
      <trkpt lat="44.54194" lon="6.49667">
        <ele>837.567275</ele>
        <time>2026-07-27T11:36:40.000Z</time>
      </trkpt>
      <trkpt lat="44.54197" lon="6.49665">
        <ele>837.472472</ele>
        <time>2026-07-27T11:36:41.000Z</time>
      </trkpt>
      <trkpt lat="44.54197" lon="6.49665">
        <ele>837.472472</ele>
        <time>2026-07-27T11:36:41.000Z</time>
      </trkpt>
      <trkpt lat="44.542" lon="6.49662">
        <ele>837.380411</ele>
        <time>2026-07-27T11:36:42.000Z</time>
      </trkpt>
      <trkpt lat="44.542" lon="6.49662">
        <ele>837.380411</ele>
        <time>2026-07-27T11:36:42.000Z</time>
      </trkpt>
      <trkpt lat="44.54203" lon="6.49659">
        <ele>837.281211</ele>
        <time>2026-07-27T11:36:42.000Z</time>
      </trkpt>
      <trkpt lat="44.54203" lon="6.49659">
        <ele>837.281211</ele>
        <time>2026-07-27T11:36:42.000Z</time>
      </trkpt>
      <trkpt lat="44.54205" lon="6.49655">
        <ele>837.179089</ele>
        <time>2026-07-27T11:36:44.000Z</time>
      </trkpt>
      <trkpt lat="44.54205" lon="6.49655">
        <ele>837.179089</ele>
        <time>2026-07-27T11:36:44.000Z</time>
      </trkpt>
      <trkpt lat="44.54207" lon="6.4965">
        <ele>837.062768</ele>
        <time>2026-07-27T11:36:45.000Z</time>
      </trkpt>
      <trkpt lat="44.54207" lon="6.4965">
        <ele>837.062768</ele>
        <time>2026-07-27T11:36:45.000Z</time>
      </trkpt>
      <trkpt lat="44.54209" lon="6.49645">
        <ele>836.934046</ele>
        <time>2026-07-27T11:36:46.000Z</time>
      </trkpt>
      <trkpt lat="44.54209" lon="6.49645">
        <ele>836.934046</ele>
        <time>2026-07-27T11:36:46.000Z</time>
      </trkpt>
      <trkpt lat="44.54212" lon="6.49641">
        <ele>836.82095</ele>
        <time>2026-07-27T11:36:47.000Z</time>
      </trkpt>
      <trkpt lat="44.54212" lon="6.49641">
        <ele>836.82095</ele>
        <time>2026-07-27T11:36:47.000Z</time>
      </trkpt>
      <trkpt lat="44.54215" lon="6.49639">
        <ele>836.729972</ele>
        <time>2026-07-27T11:36:48.000Z</time>
      </trkpt>
      <trkpt lat="44.54218" lon="6.49638">
        <ele>836.630675</ele>
        <time>2026-07-27T11:36:49.000Z</time>
      </trkpt>
      <trkpt lat="44.54218" lon="6.49638">
        <ele>836.630675</ele>
        <time>2026-07-27T11:36:49.000Z</time>
      </trkpt>
      <trkpt lat="44.54222" lon="6.49639">
        <ele>836.506795</ele>
        <time>2026-07-27T11:36:49.000Z</time>
      </trkpt>
      <trkpt lat="44.54222" lon="6.49639">
        <ele>836.506795</ele>
        <time>2026-07-27T11:36:49.000Z</time>
      </trkpt>
      <trkpt lat="44.54227" lon="6.49641">
        <ele>836.350202</ele>
        <time>2026-07-27T11:36:51.000Z</time>
      </trkpt>
      <trkpt lat="44.54227" lon="6.49641">
        <ele>836.350202</ele>
        <time>2026-07-27T11:36:51.000Z</time>
      </trkpt>
      <trkpt lat="44.54232" lon="6.49643">
        <ele>836.201</ele>
        <time>2026-07-27T11:36:51.000Z</time>
      </trkpt>
      <trkpt lat="44.54232" lon="6.49643">
        <ele>836.201</ele>
        <time>2026-07-27T11:36:51.000Z</time>
      </trkpt>
      <trkpt lat="44.54239" lon="6.49644">
        <ele>836.023858</ele>
        <time>2026-07-27T11:36:53.000Z</time>
      </trkpt>
      <trkpt lat="44.54239" lon="6.49644">
        <ele>836.023858</ele>
        <time>2026-07-27T11:36:53.000Z</time>
      </trkpt>
      <trkpt lat="44.54245" lon="6.49645">
        <ele>835.835284</ele>
        <time>2026-07-27T11:36:53.000Z</time>
      </trkpt>
      <trkpt lat="44.54245" lon="6.49645">
        <ele>835.835284</ele>
        <time>2026-07-27T11:36:53.000Z</time>
      </trkpt>
      <trkpt lat="44.54252" lon="6.49646">
        <ele>835.647515</ele>
        <time>2026-07-27T11:36:55.000Z</time>
      </trkpt>
      <trkpt lat="44.54252" lon="6.49646">
        <ele>835.647515</ele>
        <time>2026-07-27T11:36:55.000Z</time>
      </trkpt>
      <trkpt lat="44.54258" lon="6.49646">
        <ele>835.460118</ele>
        <time>2026-07-27T11:36:56.000Z</time>
      </trkpt>
      <trkpt lat="44.54258" lon="6.49646">
        <ele>835.460118</ele>
        <time>2026-07-27T11:36:56.000Z</time>
      </trkpt>
      <trkpt lat="44.54264" lon="6.49646">
        <ele>835.275597</ele>
        <time>2026-07-27T11:36:57.000Z</time>
      </trkpt>
      <trkpt lat="44.54264" lon="6.49646">
        <ele>835.275597</ele>
        <time>2026-07-27T11:36:57.000Z</time>
      </trkpt>
      <trkpt lat="44.54271" lon="6.49645">
        <ele>835.076181</ele>
        <time>2026-07-27T11:36:58.000Z</time>
      </trkpt>
      <trkpt lat="44.54271" lon="6.49645">
        <ele>835.076181</ele>
        <time>2026-07-27T11:36:58.000Z</time>
      </trkpt>
      <trkpt lat="44.54278" lon="6.49643">
        <ele>834.875375</ele>
        <time>2026-07-27T11:36:59.000Z</time>
      </trkpt>
      <trkpt lat="44.54278" lon="6.49643">
        <ele>834.875375</ele>
        <time>2026-07-27T11:36:59.000Z</time>
      </trkpt>
      <trkpt lat="44.54284" lon="6.49642">
        <ele>834.693275</ele>
        <time>2026-07-27T11:37:00.000Z</time>
      </trkpt>
      <trkpt lat="44.54284" lon="6.49642">
        <ele>834.693275</ele>
        <time>2026-07-27T11:37:00.000Z</time>
      </trkpt>
      <trkpt lat="44.54292" lon="6.49639">
        <ele>834.365386</ele>
        <time>2026-07-27T11:37:01.000Z</time>
      </trkpt>
      <trkpt lat="44.54292" lon="6.49639">
        <ele>834.365386</ele>
        <time>2026-07-27T11:37:01.000Z</time>
      </trkpt>
      <trkpt lat="44.54298" lon="6.49636">
        <ele>834.048489</ele>
        <time>2026-07-27T11:37:02.000Z</time>
      </trkpt>
      <trkpt lat="44.54298" lon="6.49636">
        <ele>834.048489</ele>
        <time>2026-07-27T11:37:02.000Z</time>
      </trkpt>
      <trkpt lat="44.54305" lon="6.49633">
        <ele>833.733333</ele>
        <time>2026-07-27T11:37:03.000Z</time>
      </trkpt>
      <trkpt lat="44.54305" lon="6.49633">
        <ele>833.733333</ele>
        <time>2026-07-27T11:37:03.000Z</time>
      </trkpt>
      <trkpt lat="44.54312" lon="6.49631">
        <ele>833.435967</ele>
        <time>2026-07-27T11:37:04.000Z</time>
      </trkpt>
      <trkpt lat="44.54312" lon="6.49631">
        <ele>833.435967</ele>
        <time>2026-07-27T11:37:04.000Z</time>
      </trkpt>
      <trkpt lat="44.54319" lon="6.49628">
        <ele>833.105525</ele>
        <time>2026-07-27T11:37:05.000Z</time>
      </trkpt>
      <trkpt lat="44.54319" lon="6.49628">
        <ele>833.105525</ele>
        <time>2026-07-27T11:37:05.000Z</time>
      </trkpt>
      <trkpt lat="44.54326" lon="6.49625">
        <ele>832.809003</ele>
        <time>2026-07-27T11:37:06.000Z</time>
      </trkpt>
      <trkpt lat="44.54326" lon="6.49625">
        <ele>832.809003</ele>
        <time>2026-07-27T11:37:06.000Z</time>
      </trkpt>
      <trkpt lat="44.54332" lon="6.49623">
        <ele>832.498083</ele>
        <time>2026-07-27T11:37:07.000Z</time>
      </trkpt>
      <trkpt lat="44.54332" lon="6.49623">
        <ele>832.498083</ele>
        <time>2026-07-27T11:37:07.000Z</time>
      </trkpt>
      <trkpt lat="44.54339" lon="6.4962">
        <ele>832.200717</ele>
        <time>2026-07-27T11:37:08.000Z</time>
      </trkpt>
      <trkpt lat="44.54339" lon="6.4962">
        <ele>832.200717</ele>
        <time>2026-07-27T11:37:08.000Z</time>
      </trkpt>
      <trkpt lat="44.54346" lon="6.49617">
        <ele>831.884705</ele>
        <time>2026-07-27T11:37:09.000Z</time>
      </trkpt>
      <trkpt lat="44.54346" lon="6.49617">
        <ele>831.884705</ele>
        <time>2026-07-27T11:37:09.000Z</time>
      </trkpt>
      <trkpt lat="44.54352" lon="6.49615">
        <ele>831.588183</ele>
        <time>2026-07-27T11:37:10.000Z</time>
      </trkpt>
      <trkpt lat="44.54352" lon="6.49615">
        <ele>831.588183</ele>
        <time>2026-07-27T11:37:10.000Z</time>
      </trkpt>
      <trkpt lat="44.54359" lon="6.49612">
        <ele>831.259471</ele>
        <time>2026-07-27T11:37:11.000Z</time>
      </trkpt>
      <trkpt lat="44.54359" lon="6.49612">
        <ele>831.259471</ele>
        <time>2026-07-27T11:37:11.000Z</time>
      </trkpt>
      <trkpt lat="44.54366" lon="6.49609">
        <ele>830.944316</ele>
        <time>2026-07-27T11:37:12.000Z</time>
      </trkpt>
      <trkpt lat="44.54366" lon="6.49609">
        <ele>830.944316</ele>
        <time>2026-07-27T11:37:12.000Z</time>
      </trkpt>
      <trkpt lat="44.54374" lon="6.49607">
        <ele>830.600153</ele>
        <time>2026-07-27T11:37:13.000Z</time>
      </trkpt>
      <trkpt lat="44.54374" lon="6.49607">
        <ele>830.600153</ele>
        <time>2026-07-27T11:37:13.000Z</time>
      </trkpt>
      <trkpt lat="44.54381" lon="6.49604">
        <ele>830.266359</ele>
        <time>2026-07-27T11:37:14.000Z</time>
      </trkpt>
      <trkpt lat="44.54381" lon="6.49604">
        <ele>830.266359</ele>
        <time>2026-07-27T11:37:14.000Z</time>
      </trkpt>
      <trkpt lat="44.54388" lon="6.49601">
        <ele>829.935918</ele>
        <time>2026-07-27T11:37:15.000Z</time>
      </trkpt>
      <trkpt lat="44.54388" lon="6.49601">
        <ele>829.935918</ele>
        <time>2026-07-27T11:37:15.000Z</time>
      </trkpt>
      <trkpt lat="44.54396" lon="6.49598">
        <ele>829.599439</ele>
        <time>2026-07-27T11:37:16.000Z</time>
      </trkpt>
      <trkpt lat="44.54396" lon="6.49598">
        <ele>829.599439</ele>
        <time>2026-07-27T11:37:16.000Z</time>
      </trkpt>
      <trkpt lat="44.54403" lon="6.49595">
        <ele>829.252092</ele>
        <time>2026-07-27T11:37:17.000Z</time>
      </trkpt>
      <trkpt lat="44.54403" lon="6.49595">
        <ele>829.252092</ele>
        <time>2026-07-27T11:37:17.000Z</time>
      </trkpt>
      <trkpt lat="44.54411" lon="6.49592">
        <ele>828.887772</ele>
        <time>2026-07-27T11:37:18.000Z</time>
      </trkpt>
      <trkpt lat="44.54411" lon="6.49592">
        <ele>828.887772</ele>
        <time>2026-07-27T11:37:18.000Z</time>
      </trkpt>
      <trkpt lat="44.54419" lon="6.49589">
        <ele>828.544338</ele>
        <time>2026-07-27T11:37:19.000Z</time>
      </trkpt>
      <trkpt lat="44.54419" lon="6.49589">
        <ele>828.544338</ele>
        <time>2026-07-27T11:37:19.000Z</time>
      </trkpt>
      <trkpt lat="44.54427" lon="6.49586">
        <ele>828.178766</ele>
        <time>2026-07-27T11:37:20.000Z</time>
      </trkpt>
      <trkpt lat="44.54427" lon="6.49586">
        <ele>828.178766</ele>
        <time>2026-07-27T11:37:20.000Z</time>
      </trkpt>
      <trkpt lat="44.54435" lon="6.49583">
        <ele>827.814447</ele>
        <time>2026-07-27T11:37:21.000Z</time>
      </trkpt>
      <trkpt lat="44.54435" lon="6.49583">
        <ele>827.814447</ele>
        <time>2026-07-27T11:37:21.000Z</time>
      </trkpt>
      <trkpt lat="44.54443" lon="6.4958">
        <ele>827.431504</ele>
        <time>2026-07-27T11:37:22.000Z</time>
      </trkpt>
      <trkpt lat="44.54443" lon="6.4958">
        <ele>827.431504</ele>
        <time>2026-07-27T11:37:22.000Z</time>
      </trkpt>
      <trkpt lat="44.54452" lon="6.49577">
        <ele>827.052804</ele>
        <time>2026-07-27T11:37:23.000Z</time>
      </trkpt>
      <trkpt lat="44.54452" lon="6.49577">
        <ele>827.052804</ele>
        <time>2026-07-27T11:37:23.000Z</time>
      </trkpt>
      <trkpt lat="44.54461" lon="6.49573">
        <ele>826.662275</ele>
        <time>2026-07-27T11:37:24.000Z</time>
      </trkpt>
      <trkpt lat="44.54461" lon="6.49573">
        <ele>826.662275</ele>
        <time>2026-07-27T11:37:24.000Z</time>
      </trkpt>
      <trkpt lat="44.54469" lon="6.4957">
        <ele>826.372781</ele>
        <time>2026-07-27T11:37:25.000Z</time>
      </trkpt>
      <trkpt lat="44.54469" lon="6.4957">
        <ele>826.372781</ele>
        <time>2026-07-27T11:37:25.000Z</time>
      </trkpt>
      <trkpt lat="44.54479" lon="6.49566">
        <ele>826.028636</ele>
        <time>2026-07-27T11:37:26.000Z</time>
      </trkpt>
      <trkpt lat="44.54479" lon="6.49566">
        <ele>826.028636</ele>
        <time>2026-07-27T11:37:26.000Z</time>
      </trkpt>
      <trkpt lat="44.54488" lon="6.49563">
        <ele>825.690276</ele>
        <time>2026-07-27T11:37:27.000Z</time>
      </trkpt>
      <trkpt lat="44.54488" lon="6.49563">
        <ele>825.690276</ele>
        <time>2026-07-27T11:37:27.000Z</time>
      </trkpt>
      <trkpt lat="44.54498" lon="6.4956">
        <ele>825.351916</ele>
        <time>2026-07-27T11:37:28.000Z</time>
      </trkpt>
      <trkpt lat="44.54498" lon="6.4956">
        <ele>825.351916</ele>
        <time>2026-07-27T11:37:28.000Z</time>
      </trkpt>
      <trkpt lat="44.54507" lon="6.49556">
        <ele>825.009609</ele>
        <time>2026-07-27T11:37:29.000Z</time>
      </trkpt>
      <trkpt lat="44.54507" lon="6.49556">
        <ele>825.009609</ele>
        <time>2026-07-27T11:37:29.000Z</time>
      </trkpt>
      <trkpt lat="44.54517" lon="6.49552">
        <ele>824.667489</ele>
        <time>2026-07-27T11:37:29.000Z</time>
      </trkpt>
      <trkpt lat="44.54517" lon="6.49552">
        <ele>824.667489</ele>
        <time>2026-07-27T11:37:29.000Z</time>
      </trkpt>
      <trkpt lat="44.54527" lon="6.49548">
        <ele>824.283348</ele>
        <time>2026-07-27T11:37:31.000Z</time>
      </trkpt>
      <trkpt lat="44.54527" lon="6.49548">
        <ele>824.283348</ele>
        <time>2026-07-27T11:37:31.000Z</time>
      </trkpt>
      <trkpt lat="44.54538" lon="6.49544">
        <ele>823.911871</ele>
        <time>2026-07-27T11:37:31.000Z</time>
      </trkpt>
      <trkpt lat="44.54538" lon="6.49544">
        <ele>823.911871</ele>
        <time>2026-07-27T11:37:31.000Z</time>
      </trkpt>
      <trkpt lat="44.54548" lon="6.4954">
        <ele>823.541742</ele>
        <time>2026-07-27T11:37:33.000Z</time>
      </trkpt>
      <trkpt lat="44.54548" lon="6.4954">
        <ele>823.541742</ele>
        <time>2026-07-27T11:37:33.000Z</time>
      </trkpt>
      <trkpt lat="44.54558" lon="6.49536">
        <ele>823.171613</ele>
        <time>2026-07-27T11:37:33.000Z</time>
      </trkpt>
      <trkpt lat="44.54558" lon="6.49536">
        <ele>823.171613</ele>
        <time>2026-07-27T11:37:33.000Z</time>
      </trkpt>
      <trkpt lat="44.54569" lon="6.49532">
        <ele>822.801484</ele>
        <time>2026-07-27T11:37:35.000Z</time>
      </trkpt>
      <trkpt lat="44.54569" lon="6.49532">
        <ele>822.801484</ele>
        <time>2026-07-27T11:37:35.000Z</time>
      </trkpt>
      <trkpt lat="44.54579" lon="6.49528">
        <ele>822.432006</ele>
        <time>2026-07-27T11:37:35.000Z</time>
      </trkpt>
      <trkpt lat="44.54579" lon="6.49528">
        <ele>822.432006</ele>
        <time>2026-07-27T11:37:35.000Z</time>
      </trkpt>
      <trkpt lat="44.5459" lon="6.49524">
        <ele>822.048508</ele>
        <time>2026-07-27T11:37:37.000Z</time>
      </trkpt>
      <trkpt lat="44.5459" lon="6.49524">
        <ele>822.048508</ele>
        <time>2026-07-27T11:37:37.000Z</time>
      </trkpt>
      <trkpt lat="44.546" lon="6.4952">
        <ele>821.668989</ele>
        <time>2026-07-27T11:37:37.000Z</time>
      </trkpt>
      <trkpt lat="44.546" lon="6.4952">
        <ele>821.668989</ele>
        <time>2026-07-27T11:37:37.000Z</time>
      </trkpt>
      <trkpt lat="44.5461" lon="6.49517">
        <ele>821.300766</ele>
        <time>2026-07-27T11:37:39.000Z</time>
      </trkpt>
      <trkpt lat="44.5461" lon="6.49517">
        <ele>821.300766</ele>
        <time>2026-07-27T11:37:39.000Z</time>
      </trkpt>
      <trkpt lat="44.54621" lon="6.49513">
        <ele>820.916626</ele>
        <time>2026-07-27T11:37:39.000Z</time>
      </trkpt>
      <trkpt lat="44.54621" lon="6.49513">
        <ele>820.916626</ele>
        <time>2026-07-27T11:37:39.000Z</time>
      </trkpt>
      <trkpt lat="44.54631" lon="6.49508">
        <ele>820.541317</ele>
        <time>2026-07-27T11:37:40.000Z</time>
      </trkpt>
      <trkpt lat="44.54631" lon="6.49508">
        <ele>820.541317</ele>
        <time>2026-07-27T11:37:40.000Z</time>
      </trkpt>
      <trkpt lat="44.54642" lon="6.49504">
        <ele>820.050466</ele>
        <time>2026-07-27T11:37:42.000Z</time>
      </trkpt>
      <trkpt lat="44.54642" lon="6.49504">
        <ele>820.050466</ele>
        <time>2026-07-27T11:37:42.000Z</time>
      </trkpt>
      <trkpt lat="44.54652" lon="6.495">
        <ele>819.579997</ele>
        <time>2026-07-27T11:37:43.000Z</time>
      </trkpt>
      <trkpt lat="44.54652" lon="6.495">
        <ele>819.579997</ele>
        <time>2026-07-27T11:37:43.000Z</time>
      </trkpt>
      <trkpt lat="44.54663" lon="6.49495">
        <ele>819.10778</ele>
        <time>2026-07-27T11:37:44.000Z</time>
      </trkpt>
      <trkpt lat="44.54663" lon="6.49495">
        <ele>819.10778</ele>
        <time>2026-07-27T11:37:44.000Z</time>
      </trkpt>
      <trkpt lat="44.54673" lon="6.49492">
        <ele>818.656766</ele>
        <time>2026-07-27T11:37:45.000Z</time>
      </trkpt>
      <trkpt lat="44.54673" lon="6.49492">
        <ele>818.656766</ele>
        <time>2026-07-27T11:37:45.000Z</time>
      </trkpt>
      <trkpt lat="44.54682" lon="6.49488">
        <ele>818.219293</ele>
        <time>2026-07-27T11:37:46.000Z</time>
      </trkpt>
      <trkpt lat="44.54682" lon="6.49488">
        <ele>818.219293</ele>
        <time>2026-07-27T11:37:46.000Z</time>
      </trkpt>
      <trkpt lat="44.54692" lon="6.49484">
        <ele>817.767442</ele>
        <time>2026-07-27T11:37:47.000Z</time>
      </trkpt>
      <trkpt lat="44.54692" lon="6.49484">
        <ele>817.767442</ele>
        <time>2026-07-27T11:37:47.000Z</time>
      </trkpt>
      <trkpt lat="44.54702" lon="6.4948">
        <ele>817.332487</ele>
        <time>2026-07-27T11:37:48.000Z</time>
      </trkpt>
      <trkpt lat="44.54702" lon="6.4948">
        <ele>817.332487</ele>
        <time>2026-07-27T11:37:48.000Z</time>
      </trkpt>
      <trkpt lat="44.54711" lon="6.49476">
        <ele>816.895015</ele>
        <time>2026-07-27T11:37:49.000Z</time>
      </trkpt>
      <trkpt lat="44.54711" lon="6.49476">
        <ele>816.895015</ele>
        <time>2026-07-27T11:37:49.000Z</time>
      </trkpt>
      <trkpt lat="44.5472" lon="6.49473">
        <ele>816.476901</ele>
        <time>2026-07-27T11:37:50.000Z</time>
      </trkpt>
      <trkpt lat="44.5472" lon="6.49473">
        <ele>816.476901</ele>
        <time>2026-07-27T11:37:50.000Z</time>
      </trkpt>
      <trkpt lat="44.5473" lon="6.49469">
        <ele>816.025887</ele>
        <time>2026-07-27T11:37:51.000Z</time>
      </trkpt>
      <trkpt lat="44.5473" lon="6.49469">
        <ele>816.025887</ele>
        <time>2026-07-27T11:37:51.000Z</time>
      </trkpt>
      <trkpt lat="44.54739" lon="6.49465">
        <ele>815.619409</ele>
        <time>2026-07-27T11:37:52.000Z</time>
      </trkpt>
      <trkpt lat="44.54739" lon="6.49465">
        <ele>815.619409</ele>
        <time>2026-07-27T11:37:52.000Z</time>
      </trkpt>
      <trkpt lat="44.54748" lon="6.49461">
        <ele>815.214817</ele>
        <time>2026-07-27T11:37:53.000Z</time>
      </trkpt>
      <trkpt lat="44.54748" lon="6.49461">
        <ele>815.214817</ele>
        <time>2026-07-27T11:37:53.000Z</time>
      </trkpt>
      <trkpt lat="44.54757" lon="6.49457">
        <ele>814.81624</ele>
        <time>2026-07-27T11:37:54.000Z</time>
      </trkpt>
      <trkpt lat="44.54757" lon="6.49457">
        <ele>814.81624</ele>
        <time>2026-07-27T11:37:54.000Z</time>
      </trkpt>
      <trkpt lat="44.54766" lon="6.49454">
        <ele>814.378768</ele>
        <time>2026-07-27T11:37:55.000Z</time>
      </trkpt>
      <trkpt lat="44.54766" lon="6.49454">
        <ele>814.378768</ele>
        <time>2026-07-27T11:37:55.000Z</time>
      </trkpt>
      <trkpt lat="44.54775" lon="6.4945">
        <ele>813.979299</ele>
        <time>2026-07-27T11:37:56.000Z</time>
      </trkpt>
      <trkpt lat="44.54775" lon="6.4945">
        <ele>813.979299</ele>
        <time>2026-07-27T11:37:56.000Z</time>
      </trkpt>
      <trkpt lat="44.54784" lon="6.49447">
        <ele>813.582448</ele>
        <time>2026-07-27T11:37:57.000Z</time>
      </trkpt>
      <trkpt lat="44.54784" lon="6.49447">
        <ele>813.582448</ele>
        <time>2026-07-27T11:37:57.000Z</time>
      </trkpt>
      <trkpt lat="44.54792" lon="6.49444">
        <ele>813.18298</ele>
        <time>2026-07-27T11:37:58.000Z</time>
      </trkpt>
      <trkpt lat="44.54792" lon="6.49444">
        <ele>813.18298</ele>
        <time>2026-07-27T11:37:58.000Z</time>
      </trkpt>
      <trkpt lat="44.54801" lon="6.4944">
        <ele>812.781894</ele>
        <time>2026-07-27T11:37:59.000Z</time>
      </trkpt>
      <trkpt lat="44.54801" lon="6.4944">
        <ele>812.781894</ele>
        <time>2026-07-27T11:37:59.000Z</time>
      </trkpt>
      <trkpt lat="44.5481" lon="6.49437">
        <ele>812.407267</ele>
        <time>2026-07-27T11:38:00.000Z</time>
      </trkpt>
      <trkpt lat="44.5481" lon="6.49437">
        <ele>812.407267</ele>
        <time>2026-07-27T11:38:00.000Z</time>
      </trkpt>
      <trkpt lat="44.54818" lon="6.49434">
        <ele>812.018484</ele>
        <time>2026-07-27T11:38:01.000Z</time>
      </trkpt>
      <trkpt lat="44.54818" lon="6.49434">
        <ele>812.018484</ele>
        <time>2026-07-27T11:38:01.000Z</time>
      </trkpt>
      <trkpt lat="44.54827" lon="6.4943">
        <ele>811.643757</ele>
        <time>2026-07-27T11:38:02.000Z</time>
      </trkpt>
      <trkpt lat="44.54827" lon="6.4943">
        <ele>811.643757</ele>
        <time>2026-07-27T11:38:02.000Z</time>
      </trkpt>
      <trkpt lat="44.54835" lon="6.49428">
        <ele>811.289597</ele>
        <time>2026-07-27T11:38:03.000Z</time>
      </trkpt>
      <trkpt lat="44.54835" lon="6.49428">
        <ele>811.289597</ele>
        <time>2026-07-27T11:38:03.000Z</time>
      </trkpt>
      <trkpt lat="44.54843" lon="6.49424">
        <ele>810.92632</ele>
        <time>2026-07-27T11:38:04.000Z</time>
      </trkpt>
      <trkpt lat="44.54843" lon="6.49424">
        <ele>810.92632</ele>
        <time>2026-07-27T11:38:04.000Z</time>
      </trkpt>
      <trkpt lat="44.54851" lon="6.49421">
        <ele>810.558945</ele>
        <time>2026-07-27T11:38:05.000Z</time>
      </trkpt>
      <trkpt lat="44.54851" lon="6.49421">
        <ele>810.558945</ele>
        <time>2026-07-27T11:38:05.000Z</time>
      </trkpt>
      <trkpt lat="44.54859" lon="6.49418">
        <ele>810.202095</ele>
        <time>2026-07-27T11:38:06.000Z</time>
      </trkpt>
      <trkpt lat="44.54859" lon="6.49418">
        <ele>810.202095</ele>
        <time>2026-07-27T11:38:06.000Z</time>
      </trkpt>
      <trkpt lat="44.54867" lon="6.49415">
        <ele>809.846358</ele>
        <time>2026-07-27T11:38:07.000Z</time>
      </trkpt>
      <trkpt lat="44.54867" lon="6.49415">
        <ele>809.846358</ele>
        <time>2026-07-27T11:38:07.000Z</time>
      </trkpt>
      <trkpt lat="44.54875" lon="6.49412">
        <ele>809.488946</ele>
        <time>2026-07-27T11:38:08.000Z</time>
      </trkpt>
      <trkpt lat="44.54875" lon="6.49412">
        <ele>809.488946</ele>
        <time>2026-07-27T11:38:08.000Z</time>
      </trkpt>
      <trkpt lat="44.54883" lon="6.49409">
        <ele>809.131535</ele>
        <time>2026-07-27T11:38:09.000Z</time>
      </trkpt>
      <trkpt lat="44.54883" lon="6.49409">
        <ele>809.131535</ele>
        <time>2026-07-27T11:38:09.000Z</time>
      </trkpt>
      <trkpt lat="44.54891" lon="6.49406">
        <ele>808.793948</ele>
        <time>2026-07-27T11:38:10.000Z</time>
      </trkpt>
      <trkpt lat="44.54891" lon="6.49406">
        <ele>808.793948</ele>
        <time>2026-07-27T11:38:10.000Z</time>
      </trkpt>
      <trkpt lat="44.54899" lon="6.49402">
        <ele>808.436536</ele>
        <time>2026-07-27T11:38:11.000Z</time>
      </trkpt>
      <trkpt lat="44.54899" lon="6.49402">
        <ele>808.436536</ele>
        <time>2026-07-27T11:38:11.000Z</time>
      </trkpt>
      <trkpt lat="44.54907" lon="6.49399">
        <ele>808.080799</ele>
        <time>2026-07-27T11:38:12.000Z</time>
      </trkpt>
      <trkpt lat="44.54907" lon="6.49399">
        <ele>808.080799</ele>
        <time>2026-07-27T11:38:12.000Z</time>
      </trkpt>
      <trkpt lat="44.54915" lon="6.49396">
        <ele>807.72172</ele>
        <time>2026-07-27T11:38:13.000Z</time>
      </trkpt>
      <trkpt lat="44.54915" lon="6.49396">
        <ele>807.72172</ele>
        <time>2026-07-27T11:38:13.000Z</time>
      </trkpt>
      <trkpt lat="44.54923" lon="6.49393">
        <ele>807.380724</ele>
        <time>2026-07-27T11:38:14.000Z</time>
      </trkpt>
      <trkpt lat="44.54923" lon="6.49393">
        <ele>807.380724</ele>
        <time>2026-07-27T11:38:14.000Z</time>
      </trkpt>
      <trkpt lat="44.54931" lon="6.4939">
        <ele>807.024161</ele>
        <time>2026-07-27T11:38:15.000Z</time>
      </trkpt>
      <trkpt lat="44.54931" lon="6.4939">
        <ele>807.024161</ele>
        <time>2026-07-27T11:38:15.000Z</time>
      </trkpt>
      <trkpt lat="44.54938" lon="6.49387">
        <ele>806.68492</ele>
        <time>2026-07-27T11:38:16.000Z</time>
      </trkpt>
      <trkpt lat="44.54938" lon="6.49387">
        <ele>806.68492</ele>
        <time>2026-07-27T11:38:16.000Z</time>
      </trkpt>
      <trkpt lat="44.54946" lon="6.49384">
        <ele>806.343196</ele>
        <time>2026-07-27T11:38:17.000Z</time>
      </trkpt>
      <trkpt lat="44.54946" lon="6.49384">
        <ele>806.343196</ele>
        <time>2026-07-27T11:38:17.000Z</time>
      </trkpt>
      <trkpt lat="44.54954" lon="6.49381">
        <ele>805.991217</ele>
        <time>2026-07-27T11:38:18.000Z</time>
      </trkpt>
      <trkpt lat="44.54954" lon="6.49381">
        <ele>805.991217</ele>
        <time>2026-07-27T11:38:18.000Z</time>
      </trkpt>
      <trkpt lat="44.54962" lon="6.49378">
        <ele>805.637057</ele>
        <time>2026-07-27T11:38:19.000Z</time>
      </trkpt>
      <trkpt lat="44.54962" lon="6.49378">
        <ele>805.637057</ele>
        <time>2026-07-27T11:38:19.000Z</time>
      </trkpt>
      <trkpt lat="44.5497" lon="6.49375">
        <ele>805.263977</ele>
        <time>2026-07-27T11:38:20.000Z</time>
      </trkpt>
      <trkpt lat="44.5497" lon="6.49375">
        <ele>805.263977</ele>
        <time>2026-07-27T11:38:20.000Z</time>
      </trkpt>
      <trkpt lat="44.54978" lon="6.49372">
        <ele>804.910874</ele>
        <time>2026-07-27T11:38:21.000Z</time>
      </trkpt>
      <trkpt lat="44.54978" lon="6.49372">
        <ele>804.910874</ele>
        <time>2026-07-27T11:38:21.000Z</time>
      </trkpt>
      <trkpt lat="44.54986" lon="6.49369">
        <ele>804.574887</ele>
        <time>2026-07-27T11:38:22.000Z</time>
      </trkpt>
      <trkpt lat="44.54986" lon="6.49369">
        <ele>804.574887</ele>
        <time>2026-07-27T11:38:22.000Z</time>
      </trkpt>
      <trkpt lat="44.54994" lon="6.49366">
        <ele>804.238184</ele>
        <time>2026-07-27T11:38:23.000Z</time>
      </trkpt>
      <trkpt lat="44.54994" lon="6.49366">
        <ele>804.238184</ele>
        <time>2026-07-27T11:38:23.000Z</time>
      </trkpt>
      <trkpt lat="44.55002" lon="6.49364">
        <ele>803.931277</ele>
        <time>2026-07-27T11:38:24.000Z</time>
      </trkpt>
      <trkpt lat="44.55002" lon="6.49364">
        <ele>803.931277</ele>
        <time>2026-07-27T11:38:24.000Z</time>
      </trkpt>
      <trkpt lat="44.5501" lon="6.49361">
        <ele>803.5655</ele>
        <time>2026-07-27T11:38:25.000Z</time>
      </trkpt>
      <trkpt lat="44.5501" lon="6.49361">
        <ele>803.5655</ele>
        <time>2026-07-27T11:38:25.000Z</time>
      </trkpt>
      <trkpt lat="44.55019" lon="6.49358">
        <ele>803.212287</ele>
        <time>2026-07-27T11:38:26.000Z</time>
      </trkpt>
      <trkpt lat="44.55019" lon="6.49358">
        <ele>803.212287</ele>
        <time>2026-07-27T11:38:26.000Z</time>
      </trkpt>
      <trkpt lat="44.55026" lon="6.49355">
        <ele>802.901489</ele>
        <time>2026-07-27T11:38:27.000Z</time>
      </trkpt>
      <trkpt lat="44.55032" lon="6.49352">
        <ele>802.629157</ele>
        <time>2026-07-27T11:38:28.000Z</time>
      </trkpt>
      <trkpt lat="44.55032" lon="6.49352">
        <ele>802.629157</ele>
        <time>2026-07-27T11:38:28.000Z</time>
      </trkpt>
      <trkpt lat="44.55038" lon="6.4935">
        <ele>802.373887</ele>
        <time>2026-07-27T11:38:29.000Z</time>
      </trkpt>
      <trkpt lat="44.55043" lon="6.4935">
        <ele>802.202515</ele>
        <time>2026-07-27T11:38:30.000Z</time>
      </trkpt>
      <trkpt lat="44.55043" lon="6.4935">
        <ele>802.202515</ele>
        <time>2026-07-27T11:38:30.000Z</time>
      </trkpt>
      <trkpt lat="44.55046" lon="6.49352">
        <ele>802.048518</ele>
        <time>2026-07-27T11:38:31.000Z</time>
      </trkpt>
      <trkpt lat="44.55046" lon="6.49352">
        <ele>802.048518</ele>
        <time>2026-07-27T11:38:31.000Z</time>
      </trkpt>
      <trkpt lat="44.5505" lon="6.49355">
        <ele>801.88329</ele>
        <time>2026-07-27T11:38:32.000Z</time>
      </trkpt>
      <trkpt lat="44.55053" lon="6.49359">
        <ele>801.684365</ele>
        <time>2026-07-27T11:38:33.000Z</time>
      </trkpt>
      <trkpt lat="44.55053" lon="6.49359">
        <ele>801.684365</ele>
        <time>2026-07-27T11:38:33.000Z</time>
      </trkpt>
      <trkpt lat="44.55057" lon="6.49364">
        <ele>801.474064</ele>
        <time>2026-07-27T11:38:34.000Z</time>
      </trkpt>
      <trkpt lat="44.55057" lon="6.49364">
        <ele>801.474064</ele>
        <time>2026-07-27T11:38:34.000Z</time>
      </trkpt>
      <trkpt lat="44.55061" lon="6.49369">
        <ele>801.251488</ele>
        <time>2026-07-27T11:38:35.000Z</time>
      </trkpt>
      <trkpt lat="44.55061" lon="6.49369">
        <ele>801.251488</ele>
        <time>2026-07-27T11:38:35.000Z</time>
      </trkpt>
      <trkpt lat="44.55066" lon="6.49373">
        <ele>801.029422</ele>
        <time>2026-07-27T11:38:36.000Z</time>
      </trkpt>
      <trkpt lat="44.55066" lon="6.49373">
        <ele>801.029422</ele>
        <time>2026-07-27T11:38:36.000Z</time>
      </trkpt>
      <trkpt lat="44.55071" lon="6.49377">
        <ele>800.797708</ele>
        <time>2026-07-27T11:38:37.000Z</time>
      </trkpt>
      <trkpt lat="44.55071" lon="6.49377">
        <ele>800.797708</ele>
        <time>2026-07-27T11:38:37.000Z</time>
      </trkpt>
      <trkpt lat="44.55077" lon="6.49381">
        <ele>800.536695</ele>
        <time>2026-07-27T11:38:38.000Z</time>
      </trkpt>
      <trkpt lat="44.55077" lon="6.49381">
        <ele>800.536695</ele>
        <time>2026-07-27T11:38:38.000Z</time>
      </trkpt>
      <trkpt lat="44.55082" lon="6.49384">
        <ele>800.287585</ele>
        <time>2026-07-27T11:38:39.000Z</time>
      </trkpt>
      <trkpt lat="44.55082" lon="6.49384">
        <ele>800.287585</ele>
        <time>2026-07-27T11:38:39.000Z</time>
      </trkpt>
      <trkpt lat="44.55088" lon="6.49386">
        <ele>800.048159</ele>
        <time>2026-07-27T11:38:40.000Z</time>
      </trkpt>
      <trkpt lat="44.55088" lon="6.49386">
        <ele>800.048159</ele>
        <time>2026-07-27T11:38:40.000Z</time>
      </trkpt>
      <trkpt lat="44.55094" lon="6.49387">
        <ele>799.798974</ele>
        <time>2026-07-27T11:38:41.000Z</time>
      </trkpt>
      <trkpt lat="44.55094" lon="6.49387">
        <ele>799.798974</ele>
        <time>2026-07-27T11:38:41.000Z</time>
      </trkpt>
      <trkpt lat="44.551" lon="6.49386">
        <ele>799.562178</ele>
        <time>2026-07-27T11:38:42.000Z</time>
      </trkpt>
      <trkpt lat="44.551" lon="6.49386">
        <ele>799.562178</ele>
        <time>2026-07-27T11:38:42.000Z</time>
      </trkpt>
      <trkpt lat="44.55106" lon="6.49385">
        <ele>799.296016</ele>
        <time>2026-07-27T11:38:43.000Z</time>
      </trkpt>
      <trkpt lat="44.55106" lon="6.49385">
        <ele>799.296016</ele>
        <time>2026-07-27T11:38:43.000Z</time>
      </trkpt>
      <trkpt lat="44.55113" lon="6.49383">
        <ele>799.042587</ele>
        <time>2026-07-27T11:38:44.000Z</time>
      </trkpt>
      <trkpt lat="44.55113" lon="6.49383">
        <ele>799.042587</ele>
        <time>2026-07-27T11:38:44.000Z</time>
      </trkpt>
      <trkpt lat="44.55118" lon="6.49382">
        <ele>798.820376</ele>
        <time>2026-07-27T11:38:45.000Z</time>
      </trkpt>
      <trkpt lat="44.55118" lon="6.49382">
        <ele>798.820376</ele>
        <time>2026-07-27T11:38:45.000Z</time>
      </trkpt>
      <trkpt lat="44.55122" lon="6.49379">
        <ele>798.622338</ele>
        <time>2026-07-27T11:38:46.000Z</time>
      </trkpt>
      <trkpt lat="44.55122" lon="6.49379">
        <ele>798.622338</ele>
        <time>2026-07-27T11:38:46.000Z</time>
      </trkpt>
      <trkpt lat="44.55127" lon="6.49377">
        <ele>798.441602</ele>
        <time>2026-07-27T11:38:47.000Z</time>
      </trkpt>
      <trkpt lat="44.55127" lon="6.49377">
        <ele>798.441602</ele>
        <time>2026-07-27T11:38:47.000Z</time>
      </trkpt>
      <trkpt lat="44.5513" lon="6.49377">
        <ele>798.302779</ele>
        <time>2026-07-27T11:38:48.000Z</time>
      </trkpt>
      <trkpt lat="44.5513" lon="6.49377">
        <ele>798.302779</ele>
        <time>2026-07-27T11:38:48.000Z</time>
      </trkpt>
      <trkpt lat="44.55133" lon="6.49378">
        <ele>798.175921</ele>
        <time>2026-07-27T11:38:49.000Z</time>
      </trkpt>
      <trkpt lat="44.55133" lon="6.49378">
        <ele>798.175921</ele>
        <time>2026-07-27T11:38:49.000Z</time>
      </trkpt>
      <trkpt lat="44.55135" lon="6.49379">
        <ele>798.076248</ele>
        <time>2026-07-27T11:38:50.000Z</time>
      </trkpt>
      <trkpt lat="44.55135" lon="6.49379">
        <ele>798.076248</ele>
        <time>2026-07-27T11:38:50.000Z</time>
      </trkpt>
      <trkpt lat="44.55138" lon="6.49381">
        <ele>797.931973</ele>
        <time>2026-07-27T11:38:51.000Z</time>
      </trkpt>
      <trkpt lat="44.55138" lon="6.49381">
        <ele>797.931973</ele>
        <time>2026-07-27T11:38:51.000Z</time>
      </trkpt>
      <trkpt lat="44.5514" lon="6.49384">
        <ele>797.823829</ele>
        <time>2026-07-27T11:38:52.000Z</time>
      </trkpt>
      <trkpt lat="44.5514" lon="6.49384">
        <ele>797.823829</ele>
        <time>2026-07-27T11:38:52.000Z</time>
      </trkpt>
      <trkpt lat="44.55143" lon="6.49387">
        <ele>797.705275</ele>
        <time>2026-07-27T11:38:53.000Z</time>
      </trkpt>
      <trkpt lat="44.55143" lon="6.49387">
        <ele>797.705275</ele>
        <time>2026-07-27T11:38:53.000Z</time>
      </trkpt>
      <trkpt lat="44.55145" lon="6.49387">
        <ele>797.591882</ele>
        <time>2026-07-27T11:38:54.000Z</time>
      </trkpt>
      <trkpt lat="44.55145" lon="6.49387">
        <ele>797.591882</ele>
        <time>2026-07-27T11:38:54.000Z</time>
      </trkpt>
      <trkpt lat="44.55148" lon="6.49385">
        <ele>797.475662</ele>
        <time>2026-07-27T11:38:55.000Z</time>
      </trkpt>
      <trkpt lat="44.55148" lon="6.49385">
        <ele>797.475662</ele>
        <time>2026-07-27T11:38:55.000Z</time>
      </trkpt>
      <trkpt lat="44.55148" lon="6.49382">
        <ele>797.384226</ele>
        <time>2026-07-27T11:38:56.000Z</time>
      </trkpt>
      <trkpt lat="44.55148" lon="6.49382">
        <ele>797.384226</ele>
        <time>2026-07-27T11:38:56.000Z</time>
      </trkpt>
      <trkpt lat="44.55148" lon="6.49379">
        <ele>797.27255</ele>
        <time>2026-07-27T11:38:57.000Z</time>
      </trkpt>
      <trkpt lat="44.55148" lon="6.49379">
        <ele>797.27255</ele>
        <time>2026-07-27T11:38:57.000Z</time>
      </trkpt>
      <trkpt lat="44.55148" lon="6.49375">
        <ele>797.174491</ele>
        <time>2026-07-27T11:38:58.000Z</time>
      </trkpt>
      <trkpt lat="44.55148" lon="6.49375">
        <ele>797.174491</ele>
        <time>2026-07-27T11:38:58.000Z</time>
      </trkpt>
      <trkpt lat="44.55149" lon="6.49373">
        <ele>797.08344</ele>
        <time>2026-07-27T11:38:59.000Z</time>
      </trkpt>
      <trkpt lat="44.55151" lon="6.4937">
        <ele>796.987088</ele>
        <time>2026-07-27T11:39:00.000Z</time>
      </trkpt>
      <trkpt lat="44.55151" lon="6.4937">
        <ele>796.987088</ele>
        <time>2026-07-27T11:39:00.000Z</time>
      </trkpt>
      <trkpt lat="44.55152" lon="6.49369">
        <ele>796.920135</ele>
        <time>2026-07-27T11:39:01.000Z</time>
      </trkpt>
      <trkpt lat="44.55153" lon="6.4937">
        <ele>796.865093</ele>
        <time>2026-07-27T11:39:02.000Z</time>
      </trkpt>
      <trkpt lat="44.55153" lon="6.4937">
        <ele>796.865093</ele>
        <time>2026-07-27T11:39:02.000Z</time>
      </trkpt>
      <trkpt lat="44.55154" lon="6.49371">
        <ele>796.822355</ele>
        <time>2026-07-27T11:39:03.000Z</time>
      </trkpt>
      <trkpt lat="44.55154" lon="6.49373">
        <ele>796.772419</ele>
        <time>2026-07-27T11:39:04.000Z</time>
      </trkpt>
      <trkpt lat="44.55154" lon="6.49373">
        <ele>796.772419</ele>
        <time>2026-07-27T11:39:04.000Z</time>
      </trkpt>
      <trkpt lat="44.55155" lon="6.49376">
        <ele>796.665939</ele>
        <time>2026-07-27T11:39:06.000Z</time>
      </trkpt>
      <trkpt lat="44.55155" lon="6.49376">
        <ele>796.665939</ele>
        <time>2026-07-27T11:39:07.000Z</time>
      </trkpt>
      <trkpt lat="44.55155" lon="6.49376">
        <ele>796.665939</ele>
        <time>2026-07-27T11:39:24.000Z</time>
      </trkpt>
      <trkpt lat="44.55155" lon="6.49377">
        <ele>796.638775</ele>
        <time>2026-07-27T11:39:26.000Z</time>
      </trkpt>
      <trkpt lat="44.55158" lon="6.49377">
        <ele>796.528488</ele>
        <time>2026-07-27T11:39:26.000Z</time>
      </trkpt>
      <trkpt lat="44.55159" lon="6.49378">
        <ele>796.469376</ele>
        <time>2026-07-27T11:39:28.000Z</time>
      </trkpt>
      <trkpt lat="44.55161" lon="6.49379">
        <ele>796.379846</ele>
        <time>2026-07-27T11:39:29.000Z</time>
      </trkpt>
      <trkpt lat="44.55163" lon="6.49381">
        <ele>796.272424</ele>
        <time>2026-07-27T11:39:30.000Z</time>
      </trkpt>
      <trkpt lat="44.55163" lon="6.49381">
        <ele>796.272424</ele>
        <time>2026-07-27T11:39:30.000Z</time>
      </trkpt>
      <trkpt lat="44.55166" lon="6.49381">
        <ele>796.143616</ele>
        <time>2026-07-27T11:39:31.000Z</time>
      </trkpt>
      <trkpt lat="44.55169" lon="6.49381">
        <ele>796.046153</ele>
        <time>2026-07-27T11:39:32.000Z</time>
      </trkpt>
      <trkpt lat="44.55172" lon="6.49381">
        <ele>795.91482</ele>
        <time>2026-07-27T11:39:33.000Z</time>
      </trkpt>
      <trkpt lat="44.55174" lon="6.49381">
        <ele>795.816242</ele>
        <time>2026-07-27T11:39:34.000Z</time>
      </trkpt>
      <trkpt lat="44.55177" lon="6.4938">
        <ele>795.686307</ele>
        <time>2026-07-27T11:39:35.000Z</time>
      </trkpt>
      <trkpt lat="44.5518" lon="6.49378">
        <ele>795.547422</ele>
        <time>2026-07-27T11:39:36.000Z</time>
      </trkpt>
      <trkpt lat="44.5518" lon="6.49378">
        <ele>795.547422</ele>
        <time>2026-07-27T11:39:36.000Z</time>
      </trkpt>
      <trkpt lat="44.55183" lon="6.49376">
        <ele>795.406748</ele>
        <time>2026-07-27T11:39:37.000Z</time>
      </trkpt>
      <trkpt lat="44.55185" lon="6.49375">
        <ele>795.301727</ele>
        <time>2026-07-27T11:39:38.000Z</time>
      </trkpt>
      <trkpt lat="44.55188" lon="6.49374">
        <ele>795.179813</ele>
        <time>2026-07-27T11:39:39.000Z</time>
      </trkpt>
      <trkpt lat="44.5519" lon="6.49373">
        <ele>795.110717</ele>
        <time>2026-07-27T11:39:40.000Z</time>
      </trkpt>
      <trkpt lat="44.55192" lon="6.49372">
        <ele>795.006787</ele>
        <time>2026-07-27T11:39:41.000Z</time>
      </trkpt>
      <trkpt lat="44.55194" lon="6.49371">
        <ele>794.907106</ele>
        <time>2026-07-27T11:39:41.000Z</time>
      </trkpt>
      <trkpt lat="44.55196" lon="6.49371">
        <ele>794.809644</ele>
        <time>2026-07-27T11:39:43.000Z</time>
      </trkpt>
      <trkpt lat="44.55199" lon="6.49371">
        <ele>794.682258</ele>
        <time>2026-07-27T11:39:43.000Z</time>
      </trkpt>
      <trkpt lat="44.55199" lon="6.49371">
        <ele>794.682258</ele>
        <time>2026-07-27T11:39:43.000Z</time>
      </trkpt>
      <trkpt lat="44.55203" lon="6.49371">
        <ele>794.550959</ele>
        <time>2026-07-27T11:39:45.000Z</time>
      </trkpt>
      <trkpt lat="44.55206" lon="6.49371">
        <ele>794.423896</ele>
        <time>2026-07-27T11:39:46.000Z</time>
      </trkpt>
      <trkpt lat="44.55209" lon="6.4937">
        <ele>794.262242</ele>
        <time>2026-07-27T11:39:47.000Z</time>
      </trkpt>
      <trkpt lat="44.55213" lon="6.4937">
        <ele>794.113971</ele>
        <time>2026-07-27T11:39:47.000Z</time>
      </trkpt>
      <trkpt lat="44.55213" lon="6.4937">
        <ele>794.113971</ele>
        <time>2026-07-27T11:39:47.000Z</time>
      </trkpt>
      <trkpt lat="44.55216" lon="6.4937">
        <ele>793.986871</ele>
        <time>2026-07-27T11:39:49.000Z</time>
      </trkpt>
      <trkpt lat="44.55219" lon="6.4937">
        <ele>793.838507</ele>
        <time>2026-07-27T11:39:50.000Z</time>
      </trkpt>
      <trkpt lat="44.55222" lon="6.4937">
        <ele>793.72822</ele>
        <time>2026-07-27T11:39:51.000Z</time>
      </trkpt>
      <trkpt lat="44.55225" lon="6.49371">
        <ele>793.610681</ele>
        <time>2026-07-27T11:39:52.000Z</time>
      </trkpt>
      <trkpt lat="44.55225" lon="6.49371">
        <ele>793.610681</ele>
        <time>2026-07-27T11:39:52.000Z</time>
      </trkpt>
      <trkpt lat="44.55227" lon="6.49372">
        <ele>793.508697</ele>
        <time>2026-07-27T11:39:52.000Z</time>
      </trkpt>
      <trkpt lat="44.55228" lon="6.49372">
        <ele>793.444028</ele>
        <time>2026-07-27T11:39:54.000Z</time>
      </trkpt>
      <trkpt lat="44.5523" lon="6.49373">
        <ele>793.375194</ele>
        <time>2026-07-27T11:39:55.000Z</time>
      </trkpt>
      <trkpt lat="44.5523" lon="6.49373">
        <ele>793.375194</ele>
        <time>2026-07-27T11:39:55.000Z</time>
      </trkpt>
      <trkpt lat="44.55232" lon="6.49372">
        <ele>793.28027</ele>
        <time>2026-07-27T11:39:56.000Z</time>
      </trkpt>
      <trkpt lat="44.55235" lon="6.49371">
        <ele>793.18059</ele>
        <time>2026-07-27T11:39:57.000Z</time>
      </trkpt>
      <trkpt lat="44.55235" lon="6.49371">
        <ele>793.18059</ele>
        <time>2026-07-27T11:39:57.000Z</time>
      </trkpt>
      <trkpt lat="44.55236" lon="6.49371">
        <ele>793.098714</ele>
        <time>2026-07-27T11:39:58.000Z</time>
      </trkpt>
      <trkpt lat="44.55238" lon="6.4937">
        <ele>793.023251</ele>
        <time>2026-07-27T11:39:59.000Z</time>
      </trkpt>
      <trkpt lat="44.5524" lon="6.49368">
        <ele>792.915829</ele>
        <time>2026-07-27T11:40:00.000Z</time>
      </trkpt>
      <trkpt lat="44.5524" lon="6.49368">
        <ele>792.915829</ele>
        <time>2026-07-27T11:40:00.000Z</time>
      </trkpt>
      <trkpt lat="44.55243" lon="6.49366">
        <ele>792.809456</ele>
        <time>2026-07-27T11:40:01.000Z</time>
      </trkpt>
      <trkpt lat="44.55243" lon="6.49366">
        <ele>792.809456</ele>
        <time>2026-07-27T11:40:01.000Z</time>
      </trkpt>
      <trkpt lat="44.55245" lon="6.49365">
        <ele>792.706538</ele>
        <time>2026-07-27T11:40:02.000Z</time>
      </trkpt>
      <trkpt lat="44.55247" lon="6.49365">
        <ele>792.607454</ele>
        <time>2026-07-27T11:40:03.000Z</time>
      </trkpt>
      <trkpt lat="44.55247" lon="6.49365">
        <ele>792.607454</ele>
        <time>2026-07-27T11:40:03.000Z</time>
      </trkpt>
      <trkpt lat="44.5525" lon="6.49364">
        <ele>792.47273</ele>
        <time>2026-07-27T11:40:04.000Z</time>
      </trkpt>
      <trkpt lat="44.55253" lon="6.49363">
        <ele>792.359308</ele>
        <time>2026-07-27T11:40:05.000Z</time>
      </trkpt>
      <trkpt lat="44.55253" lon="6.49363">
        <ele>792.359308</ele>
        <time>2026-07-27T11:40:05.000Z</time>
      </trkpt>
      <trkpt lat="44.55254" lon="6.49362">
        <ele>792.287367</ele>
        <time>2026-07-27T11:40:06.000Z</time>
      </trkpt>
      <trkpt lat="44.55254" lon="6.49362">
        <ele>792.287367</ele>
        <time>2026-07-27T11:40:06.000Z</time>
      </trkpt>
      <trkpt lat="44.55257" lon="6.49361">
        <ele>792.18445</ele>
        <time>2026-07-27T11:40:07.000Z</time>
      </trkpt>
      <trkpt lat="44.55259" lon="6.4936">
        <ele>792.071712</ele>
        <time>2026-07-27T11:40:08.000Z</time>
      </trkpt>
      <trkpt lat="44.55259" lon="6.4936">
        <ele>792.071712</ele>
        <time>2026-07-27T11:40:08.000Z</time>
      </trkpt>
      <trkpt lat="44.55262" lon="6.49359">
        <ele>791.968794</ele>
        <time>2026-07-27T11:40:09.000Z</time>
      </trkpt>
      <trkpt lat="44.55262" lon="6.49359">
        <ele>791.968794</ele>
        <time>2026-07-27T11:40:09.000Z</time>
      </trkpt>
      <trkpt lat="44.55264" lon="6.49358">
        <ele>791.864863</ele>
        <time>2026-07-27T11:40:10.000Z</time>
      </trkpt>
      <trkpt lat="44.55264" lon="6.49358">
        <ele>791.864863</ele>
        <time>2026-07-27T11:40:10.000Z</time>
      </trkpt>
      <trkpt lat="44.55267" lon="6.49356">
        <ele>791.738257</ele>
        <time>2026-07-27T11:40:11.000Z</time>
      </trkpt>
      <trkpt lat="44.55267" lon="6.49356">
        <ele>791.738257</ele>
        <time>2026-07-27T11:40:11.000Z</time>
      </trkpt>
      <trkpt lat="44.5527" lon="6.49354">
        <ele>791.579681</ele>
        <time>2026-07-27T11:40:12.000Z</time>
      </trkpt>
      <trkpt lat="44.5527" lon="6.49354">
        <ele>791.579681</ele>
        <time>2026-07-27T11:40:12.000Z</time>
      </trkpt>
      <trkpt lat="44.55274" lon="6.49352">
        <ele>791.406703</ele>
        <time>2026-07-27T11:40:13.000Z</time>
      </trkpt>
      <trkpt lat="44.55274" lon="6.49352">
        <ele>791.406703</ele>
        <time>2026-07-27T11:40:13.000Z</time>
      </trkpt>
      <trkpt lat="44.55278" lon="6.4935">
        <ele>791.237775</ele>
        <time>2026-07-27T11:40:14.000Z</time>
      </trkpt>
      <trkpt lat="44.55278" lon="6.4935">
        <ele>791.237775</ele>
        <time>2026-07-27T11:40:14.000Z</time>
      </trkpt>
      <trkpt lat="44.55281" lon="6.49349">
        <ele>791.070581</ele>
        <time>2026-07-27T11:40:15.000Z</time>
      </trkpt>
      <trkpt lat="44.55281" lon="6.49349">
        <ele>791.070581</ele>
        <time>2026-07-27T11:40:15.000Z</time>
      </trkpt>
      <trkpt lat="44.55286" lon="6.49347">
        <ele>790.871221</ele>
        <time>2026-07-27T11:40:15.000Z</time>
      </trkpt>
      <trkpt lat="44.55286" lon="6.49347">
        <ele>790.871221</ele>
        <time>2026-07-27T11:40:15.000Z</time>
      </trkpt>
      <trkpt lat="44.55291" lon="6.49347">
        <ele>790.675806</ele>
        <time>2026-07-27T11:40:17.000Z</time>
      </trkpt>
      <trkpt lat="44.55291" lon="6.49347">
        <ele>790.675806</ele>
        <time>2026-07-27T11:40:17.000Z</time>
      </trkpt>
      <trkpt lat="44.55294" lon="6.49347">
        <ele>790.513843</ele>
        <time>2026-07-27T11:40:18.000Z</time>
      </trkpt>
      <trkpt lat="44.55294" lon="6.49347">
        <ele>790.513843</ele>
        <time>2026-07-27T11:40:18.000Z</time>
      </trkpt>
      <trkpt lat="44.55298" lon="6.49348">
        <ele>790.35188</ele>
        <time>2026-07-27T11:40:19.000Z</time>
      </trkpt>
      <trkpt lat="44.55298" lon="6.49348">
        <ele>790.35188</ele>
        <time>2026-07-27T11:40:19.000Z</time>
      </trkpt>
      <trkpt lat="44.55302" lon="6.49348">
        <ele>790.202873</ele>
        <time>2026-07-27T11:40:20.000Z</time>
      </trkpt>
      <trkpt lat="44.55302" lon="6.49348">
        <ele>790.202873</ele>
        <time>2026-07-27T11:40:20.000Z</time>
      </trkpt>
      <trkpt lat="44.55304" lon="6.49348">
        <ele>790.10251</ele>
        <time>2026-07-27T11:40:21.000Z</time>
      </trkpt>
      <trkpt lat="44.55304" lon="6.49348">
        <ele>790.10251</ele>
        <time>2026-07-27T11:40:21.000Z</time>
      </trkpt>
      <trkpt lat="44.55306" lon="6.49346">
        <ele>789.998914</ele>
        <time>2026-07-27T11:40:22.000Z</time>
      </trkpt>
      <trkpt lat="44.55306" lon="6.49346">
        <ele>789.998914</ele>
        <time>2026-07-27T11:40:23.000Z</time>
      </trkpt>
      <trkpt lat="44.5531" lon="6.49341">
        <ele>789.892025</ele>
        <time>2026-07-27T11:40:24.000Z</time>
      </trkpt>
      <trkpt lat="44.5531" lon="6.49341">
        <ele>789.892025</ele>
        <time>2026-07-27T11:40:24.000Z</time>
      </trkpt>
      <trkpt lat="44.55312" lon="6.49339">
        <ele>789.857107</ele>
        <time>2026-07-27T11:40:25.000Z</time>
      </trkpt>
      <trkpt lat="44.55312" lon="6.49339">
        <ele>789.857107</ele>
        <time>2026-07-27T11:40:25.000Z</time>
      </trkpt>
      <trkpt lat="44.55312" lon="6.49336">
        <ele>789.821234</ele>
        <time>2026-07-27T11:40:26.000Z</time>
      </trkpt>
      <trkpt lat="44.55312" lon="6.49336">
        <ele>789.821234</ele>
        <time>2026-07-27T11:40:26.000Z</time>
      </trkpt>
      <trkpt lat="44.55314" lon="6.49333">
        <ele>789.777597</ele>
        <time>2026-07-27T11:40:27.000Z</time>
      </trkpt>
      <trkpt lat="44.55314" lon="6.49333">
        <ele>789.777597</ele>
        <time>2026-07-27T11:40:27.000Z</time>
      </trkpt>
      <trkpt lat="44.55315" lon="6.4933">
        <ele>789.732538</ele>
        <time>2026-07-27T11:40:28.000Z</time>
      </trkpt>
      <trkpt lat="44.55315" lon="6.49327">
        <ele>789.689759</ele>
        <time>2026-07-27T11:40:29.000Z</time>
      </trkpt>
      <trkpt lat="44.55315" lon="6.49327">
        <ele>789.689759</ele>
        <time>2026-07-27T11:40:29.000Z</time>
      </trkpt>
      <trkpt lat="44.55316" lon="6.49325">
        <ele>789.656841</ele>
        <time>2026-07-27T11:40:30.000Z</time>
      </trkpt>
      <trkpt lat="44.55317" lon="6.49322">
        <ele>789.619722</ele>
        <time>2026-07-27T11:40:31.000Z</time>
      </trkpt>
      <trkpt lat="44.55317" lon="6.49322">
        <ele>789.619722</ele>
        <time>2026-07-27T11:40:31.000Z</time>
      </trkpt>
      <trkpt lat="44.55317" lon="6.49319">
        <ele>789.574431</ele>
        <time>2026-07-27T11:40:32.000Z</time>
      </trkpt>
      <trkpt lat="44.55319" lon="6.49315">
        <ele>789.512879</ele>
        <time>2026-07-27T11:40:33.000Z</time>
      </trkpt>
      <trkpt lat="44.55319" lon="6.49315">
        <ele>789.512879</ele>
        <time>2026-07-27T11:40:33.000Z</time>
      </trkpt>
      <trkpt lat="44.5532" lon="6.4931">
        <ele>789.438458</ele>
        <time>2026-07-27T11:40:34.000Z</time>
      </trkpt>
      <trkpt lat="44.55322" lon="6.49305">
        <ele>789.36846</ele>
        <time>2026-07-27T11:40:34.000Z</time>
      </trkpt>
      <trkpt lat="44.55322" lon="6.49305">
        <ele>789.36846</ele>
        <time>2026-07-27T11:40:34.000Z</time>
      </trkpt>
      <trkpt lat="44.55324" lon="6.493">
        <ele>789.285626</ele>
        <time>2026-07-27T11:40:36.000Z</time>
      </trkpt>
      <trkpt lat="44.55326" lon="6.49294">
        <ele>789.199303</ele>
        <time>2026-07-27T11:40:37.000Z</time>
      </trkpt>
      <trkpt lat="44.55328" lon="6.49288">
        <ele>789.116469</ele>
        <time>2026-07-27T11:40:38.000Z</time>
      </trkpt>
      <trkpt lat="44.55328" lon="6.49288">
        <ele>789.116469</ele>
        <time>2026-07-27T11:40:38.000Z</time>
      </trkpt>
      <trkpt lat="44.55329" lon="6.49284">
        <ele>789.04913</ele>
        <time>2026-07-27T11:40:39.000Z</time>
      </trkpt>
      <trkpt lat="44.5533" lon="6.49278">
        <ele>788.970232</ele>
        <time>2026-07-27T11:40:40.000Z</time>
      </trkpt>
      <trkpt lat="44.5533" lon="6.49278">
        <ele>788.970232</ele>
        <time>2026-07-27T11:40:40.000Z</time>
      </trkpt>
      <trkpt lat="44.5533" lon="6.49273">
        <ele>788.904791</ele>
        <time>2026-07-27T11:40:41.000Z</time>
      </trkpt>
      <trkpt lat="44.5533" lon="6.49268">
        <ele>788.838015</ele>
        <time>2026-07-27T11:40:42.000Z</time>
      </trkpt>
      <trkpt lat="44.5533" lon="6.49262">
        <ele>788.761889</ele>
        <time>2026-07-27T11:40:43.000Z</time>
      </trkpt>
      <trkpt lat="44.5533" lon="6.49262">
        <ele>788.761889</ele>
        <time>2026-07-27T11:40:43.000Z</time>
      </trkpt>
      <trkpt lat="44.5533" lon="6.49255">
        <ele>788.672096</ele>
        <time>2026-07-27T11:40:44.000Z</time>
      </trkpt>
      <trkpt lat="44.55329" lon="6.49249">
        <ele>788.584963</ele>
        <time>2026-07-27T11:40:45.000Z</time>
      </trkpt>
      <trkpt lat="44.55329" lon="6.49243">
        <ele>788.503152</ele>
        <time>2026-07-27T11:40:46.000Z</time>
      </trkpt>
      <trkpt lat="44.55329" lon="6.49243">
        <ele>788.503152</ele>
        <time>2026-07-27T11:40:46.000Z</time>
      </trkpt>
      <trkpt lat="44.55328" lon="6.49236">
        <ele>788.414828</ele>
        <time>2026-07-27T11:40:47.000Z</time>
      </trkpt>
      <trkpt lat="44.55328" lon="6.4923">
        <ele>788.325034</ele>
        <time>2026-07-27T11:40:48.000Z</time>
      </trkpt>
      <trkpt lat="44.55327" lon="6.49223">
        <ele>788.23957</ele>
        <time>2026-07-27T11:40:49.000Z</time>
      </trkpt>
      <trkpt lat="44.55326" lon="6.49217">
        <ele>788.147746</ele>
        <time>2026-07-27T11:40:49.000Z</time>
      </trkpt>
      <trkpt lat="44.55325" lon="6.4921">
        <ele>788.062282</ele>
        <time>2026-07-27T11:40:51.000Z</time>
      </trkpt>
      <trkpt lat="44.55325" lon="6.49203">
        <ele>787.965233</ele>
        <time>2026-07-27T11:40:52.000Z</time>
      </trkpt>
      <trkpt lat="44.55323" lon="6.49197">
        <ele>787.87339</ele>
        <time>2026-07-27T11:40:53.000Z</time>
      </trkpt>
      <trkpt lat="44.55322" lon="6.4919">
        <ele>787.790874</ele>
        <time>2026-07-27T11:40:54.000Z</time>
      </trkpt>
      <trkpt lat="44.55322" lon="6.49184">
        <ele>787.702779</ele>
        <time>2026-07-27T11:40:55.000Z</time>
      </trkpt>
      <trkpt lat="44.55322" lon="6.49184">
        <ele>787.702779</ele>
        <time>2026-07-27T11:40:55.000Z</time>
      </trkpt>
      <trkpt lat="44.55321" lon="6.49178">
        <ele>787.620967</ele>
        <time>2026-07-27T11:40:56.000Z</time>
      </trkpt>
      <trkpt lat="44.55321" lon="6.49172">
        <ele>787.544842</ele>
        <time>2026-07-27T11:40:57.000Z</time>
      </trkpt>
      <trkpt lat="44.55322" lon="6.49166">
        <ele>787.468349</ele>
        <time>2026-07-27T11:40:58.000Z</time>
      </trkpt>
      <trkpt lat="44.55322" lon="6.49161">
        <ele>787.390888</ele>
        <time>2026-07-27T11:40:59.000Z</time>
      </trkpt>
      <trkpt lat="44.55323" lon="6.49155">
        <ele>787.315881</ele>
        <time>2026-07-27T11:41:00.000Z</time>
      </trkpt>
      <trkpt lat="44.55324" lon="6.4915">
        <ele>787.236542</ele>
        <time>2026-07-27T11:41:00.000Z</time>
      </trkpt>
      <trkpt lat="44.55324" lon="6.49145">
        <ele>787.173772</ele>
        <time>2026-07-27T11:41:02.000Z</time>
      </trkpt>
      <trkpt lat="44.55324" lon="6.49145">
        <ele>787.173772</ele>
        <time>2026-07-27T11:41:02.000Z</time>
      </trkpt>
      <trkpt lat="44.55324" lon="6.49141">
        <ele>787.117181</ele>
        <time>2026-07-27T11:41:03.000Z</time>
      </trkpt>
      <trkpt lat="44.55322" lon="6.49138">
        <ele>787.067137</ele>
        <time>2026-07-27T11:41:04.000Z</time>
      </trkpt>
      <trkpt lat="44.5532" lon="6.49135">
        <ele>787.02011</ele>
        <time>2026-07-27T11:41:05.000Z</time>
      </trkpt>
      <trkpt lat="44.55318" lon="6.49134">
        <ele>786.970754</ele>
        <time>2026-07-27T11:41:06.000Z</time>
      </trkpt>
      <trkpt lat="44.55318" lon="6.49134">
        <ele>786.970754</ele>
        <time>2026-07-27T11:41:06.000Z</time>
      </trkpt>
      <trkpt lat="44.55316" lon="6.49133">
        <ele>786.926646</ele>
        <time>2026-07-27T11:41:07.000Z</time>
      </trkpt>
      <trkpt lat="44.55314" lon="6.49132">
        <ele>786.882236</ele>
        <time>2026-07-27T11:41:08.000Z</time>
      </trkpt>
      <trkpt lat="44.5531" lon="6.49131">
        <ele>786.817625</ele>
        <time>2026-07-27T11:41:09.000Z</time>
      </trkpt>
      <trkpt lat="44.55307" lon="6.4913">
        <ele>786.765614</ele>
        <time>2026-07-27T11:41:10.000Z</time>
      </trkpt>
      <trkpt lat="44.55304" lon="6.4913">
        <ele>786.694346</ele>
        <time>2026-07-27T11:41:11.000Z</time>
      </trkpt>
      <trkpt lat="44.55301" lon="6.4913">
        <ele>786.651219</ele>
        <time>2026-07-27T11:41:12.000Z</time>
      </trkpt>
      <trkpt lat="44.55299" lon="6.49129">
        <ele>786.63288</ele>
        <time>2026-07-27T11:41:13.000Z</time>
      </trkpt>
      <trkpt lat="44.55298" lon="6.49128">
        <ele>786.648004</ele>
        <time>2026-07-27T11:41:14.000Z</time>
      </trkpt>
      <trkpt lat="44.55296" lon="6.49127">
        <ele>786.659332</ele>
        <time>2026-07-27T11:41:15.000Z</time>
      </trkpt>
      <trkpt lat="44.55296" lon="6.49127">
        <ele>786.659332</ele>
        <time>2026-07-27T11:41:35.000Z</time>
      </trkpt>
      <trkpt lat="44.55295" lon="6.49125">
        <ele>786.671598</ele>
        <time>2026-07-27T11:41:37.000Z</time>
      </trkpt>
      <trkpt lat="44.55295" lon="6.49119">
        <ele>786.701741</ele>
        <time>2026-07-27T11:41:38.000Z</time>
      </trkpt>
      <trkpt lat="44.55293" lon="6.49117">
        <ele>786.720647</ele>
        <time>2026-07-27T11:41:40.000Z</time>
      </trkpt>
      <trkpt lat="44.55293" lon="6.49117">
        <ele>786.721682</ele>
        <time>2026-07-27T11:41:41.000Z</time>
      </trkpt>
      <trkpt lat="44.55293" lon="6.49116">
        <ele>786.724764</ele>
        <time>2026-07-27T11:41:44.000Z</time>
      </trkpt>
      <trkpt lat="44.55293" lon="6.49116">
        <ele>786.725282</ele>
        <time>2026-07-27T11:41:45.000Z</time>
      </trkpt>
      <trkpt lat="44.55293" lon="6.49116">
        <ele>786.725282</ele>
        <time>2026-07-27T11:41:46.000Z</time>
      </trkpt>
      <trkpt lat="44.55291" lon="6.49113">
        <ele>786.745069</ele>
        <time>2026-07-27T11:41:47.000Z</time>
      </trkpt>
      <trkpt lat="44.5529" lon="6.49109">
        <ele>786.769082</ele>
        <time>2026-07-27T11:41:48.000Z</time>
      </trkpt>
      <trkpt lat="44.55288" lon="6.49107">
        <ele>786.785708</ele>
        <time>2026-07-27T11:41:49.000Z</time>
      </trkpt>
      <trkpt lat="44.55286" lon="6.491">
        <ele>786.822036</ele>
        <time>2026-07-27T11:41:51.000Z</time>
      </trkpt>
      <trkpt lat="44.55286" lon="6.49098">
        <ele>786.832285</ele>
        <time>2026-07-27T11:41:52.000Z</time>
      </trkpt>
      <trkpt lat="44.55286" lon="6.49098">
        <ele>786.832285</ele>
        <time>2026-07-27T11:41:52.000Z</time>
      </trkpt>
      <trkpt lat="44.55285" lon="6.49096">
        <ele>786.844748</ele>
        <time>2026-07-27T11:41:53.000Z</time>
      </trkpt>
      <trkpt lat="44.55285" lon="6.49093">
        <ele>786.857497</ele>
        <time>2026-07-27T11:41:53.000Z</time>
      </trkpt>
      <trkpt lat="44.55284" lon="6.49091">
        <ele>786.870736</ele>
        <time>2026-07-27T11:41:55.000Z</time>
      </trkpt>
      <trkpt lat="44.55283" lon="6.49089">
        <ele>786.884638</ele>
        <time>2026-07-27T11:41:55.000Z</time>
      </trkpt>
      <trkpt lat="44.55281" lon="6.49087">
        <ele>786.900899</ele>
        <time>2026-07-27T11:41:57.000Z</time>
      </trkpt>
      <trkpt lat="44.55281" lon="6.49084">
        <ele>786.915546</ele>
        <time>2026-07-27T11:41:58.000Z</time>
      </trkpt>
      <trkpt lat="44.5528" lon="6.4908">
        <ele>786.937046</ele>
        <time>2026-07-27T11:41:59.000Z</time>
      </trkpt>
      <trkpt lat="44.55278" lon="6.49076">
        <ele>786.961484</ele>
        <time>2026-07-27T11:42:00.000Z</time>
      </trkpt>
      <trkpt lat="44.55277" lon="6.49073">
        <ele>786.977088</ele>
        <time>2026-07-27T11:42:00.000Z</time>
      </trkpt>
      <trkpt lat="44.55277" lon="6.49071">
        <ele>786.991735</ele>
        <time>2026-07-27T11:42:02.000Z</time>
      </trkpt>
      <trkpt lat="44.55276" lon="6.49068">
        <ele>787.006385</ele>
        <time>2026-07-27T11:42:03.000Z</time>
      </trkpt>
      <trkpt lat="44.55276" lon="6.49065">
        <ele>787.021664</ele>
        <time>2026-07-27T11:42:03.000Z</time>
      </trkpt>
      <trkpt lat="44.55275" lon="6.49063">
        <ele>787.037305</ele>
        <time>2026-07-27T11:42:05.000Z</time>
      </trkpt>
      <trkpt lat="44.55274" lon="6.49059">
        <ele>787.053602</ele>
        <time>2026-07-27T11:42:06.000Z</time>
      </trkpt>
      <trkpt lat="44.55273" lon="6.49056">
        <ele>787.073415</ele>
        <time>2026-07-27T11:42:07.000Z</time>
      </trkpt>
      <trkpt lat="44.55271" lon="6.49052">
        <ele>787.096246</ele>
        <time>2026-07-27T11:42:07.000Z</time>
      </trkpt>
      <trkpt lat="44.55269" lon="6.49049">
        <ele>787.118597</ele>
        <time>2026-07-27T11:42:09.000Z</time>
      </trkpt>
      <trkpt lat="44.55267" lon="6.49045">
        <ele>787.143464</ele>
        <time>2026-07-27T11:42:09.000Z</time>
      </trkpt>
      <trkpt lat="44.55266" lon="6.49042">
        <ele>787.164591</ele>
        <time>2026-07-27T11:42:11.000Z</time>
      </trkpt>
      <trkpt lat="44.55266" lon="6.49042">
        <ele>787.164591</ele>
        <time>2026-07-27T11:42:11.000Z</time>
      </trkpt>
      <trkpt lat="44.55264" lon="6.49038">
        <ele>787.188603</ele>
        <time>2026-07-27T11:42:12.000Z</time>
      </trkpt>
      <trkpt lat="44.55262" lon="6.49034">
        <ele>787.210954</ele>
        <time>2026-07-27T11:42:13.000Z</time>
      </trkpt>
      <trkpt lat="44.55261" lon="6.49031">
        <ele>787.232526</ele>
        <time>2026-07-27T11:42:14.000Z</time>
      </trkpt>
      <trkpt lat="44.55259" lon="6.49027">
        <ele>787.257392</ele>
        <time>2026-07-27T11:42:15.000Z</time>
      </trkpt>
      <trkpt lat="44.55257" lon="6.49023">
        <ele>787.280984</ele>
        <time>2026-07-27T11:42:16.000Z</time>
      </trkpt>
      <trkpt lat="44.55257" lon="6.49023">
        <ele>787.280984</ele>
        <time>2026-07-27T11:42:16.000Z</time>
      </trkpt>
      <trkpt lat="44.55255" lon="6.49019">
        <ele>787.306076</ele>
        <time>2026-07-27T11:42:17.000Z</time>
      </trkpt>
      <trkpt lat="44.55253" lon="6.49014">
        <ele>787.332249</ele>
        <time>2026-07-27T11:42:18.000Z</time>
      </trkpt>
      <trkpt lat="44.55252" lon="6.4901">
        <ele>787.356089</ele>
        <time>2026-07-27T11:42:19.000Z</time>
      </trkpt>
      <trkpt lat="44.55252" lon="6.4901">
        <ele>787.356089</ele>
        <time>2026-07-27T11:42:19.000Z</time>
      </trkpt>
      <trkpt lat="44.55249" lon="6.49006">
        <ele>787.382676</ele>
        <time>2026-07-27T11:42:20.000Z</time>
      </trkpt>
      <trkpt lat="44.55249" lon="6.49006">
        <ele>787.387318</ele>
        <time>2026-07-27T11:42:21.000Z</time>
      </trkpt>
      <trkpt lat="44.55246" lon="6.49">
        <ele>787.421459</ele>
        <time>2026-07-27T11:42:22.000Z</time>
      </trkpt>
      <trkpt lat="44.55246" lon="6.49">
        <ele>787.421459</ele>
        <time>2026-07-27T11:42:22.000Z</time>
      </trkpt>
      <trkpt lat="44.55244" lon="6.48997">
        <ele>787.444265</ele>
        <time>2026-07-27T11:42:23.000Z</time>
      </trkpt>
      <trkpt lat="44.55243" lon="6.48993">
        <ele>787.465392</ele>
        <time>2026-07-27T11:42:24.000Z</time>
      </trkpt>
      <trkpt lat="44.55241" lon="6.48989">
        <ele>787.490691</ele>
        <time>2026-07-27T11:42:25.000Z</time>
      </trkpt>
      <trkpt lat="44.55241" lon="6.48989">
        <ele>787.490691</ele>
        <time>2026-07-27T11:42:25.000Z</time>
      </trkpt>
      <trkpt lat="44.5524" lon="6.48985">
        <ele>787.513616</ele>
        <time>2026-07-27T11:42:26.000Z</time>
      </trkpt>
      <trkpt lat="44.55238" lon="6.48981">
        <ele>787.540229</ele>
        <time>2026-07-27T11:42:27.000Z</time>
      </trkpt>
      <trkpt lat="44.55236" lon="6.48977">
        <ele>787.56361</ele>
        <time>2026-07-27T11:42:28.000Z</time>
      </trkpt>
      <trkpt lat="44.55236" lon="6.48977">
        <ele>787.56361</ele>
        <time>2026-07-27T11:42:28.000Z</time>
      </trkpt>
      <trkpt lat="44.55234" lon="6.48973">
        <ele>787.590172</ele>
        <time>2026-07-27T11:42:29.000Z</time>
      </trkpt>
      <trkpt lat="44.55233" lon="6.48968">
        <ele>787.61634</ele>
        <time>2026-07-27T11:42:30.000Z</time>
      </trkpt>
      <trkpt lat="44.55231" lon="6.48964">
        <ele>787.639931</ele>
        <time>2026-07-27T11:42:31.000Z</time>
      </trkpt>
      <trkpt lat="44.55229" lon="6.48961">
        <ele>787.661058</ele>
        <time>2026-07-27T11:42:32.000Z</time>
      </trkpt>
      <trkpt lat="44.55229" lon="6.48961">
        <ele>787.661058</ele>
        <time>2026-07-27T11:42:32.000Z</time>
      </trkpt>
      <trkpt lat="44.55228" lon="6.48957">
        <ele>787.684899</ele>
        <time>2026-07-27T11:42:33.000Z</time>
      </trkpt>
      <trkpt lat="44.55226" lon="6.48953">
        <ele>787.708072</ele>
        <time>2026-07-27T11:42:34.000Z</time>
      </trkpt>
      <trkpt lat="44.55224" lon="6.48949">
        <ele>787.732927</ele>
        <time>2026-07-27T11:42:35.000Z</time>
      </trkpt>
      <trkpt lat="44.55222" lon="6.48945">
        <ele>787.75694</ele>
        <time>2026-07-27T11:42:36.000Z</time>
      </trkpt>
      <trkpt lat="44.5522" lon="6.48942">
        <ele>787.777188</ele>
        <time>2026-07-27T11:42:36.000Z</time>
      </trkpt>
      <trkpt lat="44.55219" lon="6.48938">
        <ele>787.802487</ele>
        <time>2026-07-27T11:42:38.000Z</time>
      </trkpt>
      <trkpt lat="44.55217" lon="6.48934">
        <ele>787.828659</ele>
        <time>2026-07-27T11:42:39.000Z</time>
      </trkpt>
      <trkpt lat="44.55214" lon="6.4893">
        <ele>787.854449</ele>
        <time>2026-07-27T11:42:40.000Z</time>
      </trkpt>
      <trkpt lat="44.55212" lon="6.48925">
        <ele>787.881506</ele>
        <time>2026-07-27T11:42:41.000Z</time>
      </trkpt>
      <trkpt lat="44.5521" lon="6.4892">
        <ele>787.911858</ele>
        <time>2026-07-27T11:42:42.000Z</time>
      </trkpt>
      <trkpt lat="44.55208" lon="6.48916">
        <ele>787.940986</ele>
        <time>2026-07-27T11:42:43.000Z</time>
      </trkpt>
      <trkpt lat="44.55208" lon="6.48916">
        <ele>787.940986</ele>
        <time>2026-07-27T11:42:43.000Z</time>
      </trkpt>
      <trkpt lat="44.55205" lon="6.48912">
        <ele>787.984759</ele>
        <time>2026-07-27T11:42:44.000Z</time>
      </trkpt>
      <trkpt lat="44.55203" lon="6.48909">
        <ele>788.02457</ele>
        <time>2026-07-27T11:42:45.000Z</time>
      </trkpt>
      <trkpt lat="44.55199" lon="6.48906">
        <ele>788.072178</ele>
        <time>2026-07-27T11:42:46.000Z</time>
      </trkpt>
      <trkpt lat="44.55195" lon="6.48903">
        <ele>788.117634</ele>
        <time>2026-07-27T11:42:47.000Z</time>
      </trkpt>
      <trkpt lat="44.55191" lon="6.48901">
        <ele>788.163454</ele>
        <time>2026-07-27T11:42:48.000Z</time>
      </trkpt>
      <trkpt lat="44.55187" lon="6.48899">
        <ele>788.212286</ele>
        <time>2026-07-27T11:42:49.000Z</time>
      </trkpt>
      <trkpt lat="44.55187" lon="6.48899">
        <ele>788.212286</ele>
        <time>2026-07-27T11:42:49.000Z</time>
      </trkpt>
      <trkpt lat="44.55183" lon="6.48896">
        <ele>788.259558</ele>
        <time>2026-07-27T11:42:50.000Z</time>
      </trkpt>
      <trkpt lat="44.55179" lon="6.48895">
        <ele>788.303357</ele>
        <time>2026-07-27T11:42:51.000Z</time>
      </trkpt>
      <trkpt lat="44.55175" lon="6.48893">
        <ele>788.34818</ele>
        <time>2026-07-27T11:42:52.000Z</time>
      </trkpt>
      <trkpt lat="44.55171" lon="6.4889">
        <ele>788.393004</ele>
        <time>2026-07-27T11:42:53.000Z</time>
      </trkpt>
      <trkpt lat="44.55171" lon="6.4889">
        <ele>788.393004</ele>
        <time>2026-07-27T11:42:53.000Z</time>
      </trkpt>
      <trkpt lat="44.55167" lon="6.48888">
        <ele>788.442121</ele>
        <time>2026-07-27T11:42:54.000Z</time>
      </trkpt>
      <trkpt lat="44.55163" lon="6.48885">
        <ele>788.487578</ele>
        <time>2026-07-27T11:42:55.000Z</time>
      </trkpt>
      <trkpt lat="44.55159" lon="6.48883">
        <ele>788.536695</ele>
        <time>2026-07-27T11:42:56.000Z</time>
      </trkpt>
      <trkpt lat="44.55159" lon="6.48883">
        <ele>788.536695</ele>
        <time>2026-07-27T11:42:56.000Z</time>
      </trkpt>
      <trkpt lat="44.55155" lon="6.48881">
        <ele>788.585812</ele>
        <time>2026-07-27T11:42:57.000Z</time>
      </trkpt>
      <trkpt lat="44.55151" lon="6.48879">
        <ele>788.626047</ele>
        <time>2026-07-27T11:42:58.000Z</time>
      </trkpt>
      <trkpt lat="44.55147" lon="6.48877">
        <ele>788.673612</ele>
        <time>2026-07-27T11:42:59.000Z</time>
      </trkpt>
      <trkpt lat="44.55147" lon="6.48877">
        <ele>788.673612</ele>
        <time>2026-07-27T11:42:59.000Z</time>
      </trkpt>
      <trkpt lat="44.55143" lon="6.48875">
        <ele>788.726248</ele>
        <time>2026-07-27T11:43:00.000Z</time>
      </trkpt>
      <trkpt lat="44.55138" lon="6.48872">
        <ele>788.784275</ele>
        <time>2026-07-27T11:43:01.000Z</time>
      </trkpt>
      <trkpt lat="44.55138" lon="6.48872">
        <ele>788.784275</ele>
        <time>2026-07-27T11:43:01.000Z</time>
      </trkpt>
      <trkpt lat="44.55133" lon="6.48869">
        <ele>788.833689</ele>
        <time>2026-07-27T11:43:02.000Z</time>
      </trkpt>
      <trkpt lat="44.55129" lon="6.48866">
        <ele>788.884733</ele>
        <time>2026-07-27T11:43:03.000Z</time>
      </trkpt>
      <trkpt lat="44.55129" lon="6.48866">
        <ele>788.884733</ele>
        <time>2026-07-27T11:43:03.000Z</time>
      </trkpt>
      <trkpt lat="44.55125" lon="6.48864">
        <ele>788.932771</ele>
        <time>2026-07-27T11:43:03.000Z</time>
      </trkpt>
      <trkpt lat="44.55121" lon="6.48863">
        <ele>788.982245</ele>
        <time>2026-07-27T11:43:05.000Z</time>
      </trkpt>
      <trkpt lat="44.55121" lon="6.48863">
        <ele>788.982245</ele>
        <time>2026-07-27T11:43:05.000Z</time>
      </trkpt>
      <trkpt lat="44.55116" lon="6.48863">
        <ele>789.027735</ele>
        <time>2026-07-27T11:43:06.000Z</time>
      </trkpt>
      <trkpt lat="44.55116" lon="6.48863">
        <ele>789.027735</ele>
        <time>2026-07-27T11:43:06.000Z</time>
      </trkpt>
      <trkpt lat="44.55113" lon="6.48864">
        <ele>789.06584</ele>
        <time>2026-07-27T11:43:07.000Z</time>
      </trkpt>
      <trkpt lat="44.55109" lon="6.48864">
        <ele>789.107257</ele>
        <time>2026-07-27T11:43:08.000Z</time>
      </trkpt>
      <trkpt lat="44.55109" lon="6.48864">
        <ele>789.107257</ele>
        <time>2026-07-27T11:43:08.000Z</time>
      </trkpt>
      <trkpt lat="44.55105" lon="6.48865">
        <ele>789.148768</ele>
        <time>2026-07-27T11:43:09.000Z</time>
      </trkpt>
      <trkpt lat="44.55102" lon="6.48866">
        <ele>789.181707</ele>
        <time>2026-07-27T11:43:10.000Z</time>
      </trkpt>
      <trkpt lat="44.55102" lon="6.48866">
        <ele>789.181707</ele>
        <time>2026-07-27T11:43:10.000Z</time>
      </trkpt>
      <trkpt lat="44.551" lon="6.48866">
        <ele>789.210961</ele>
        <time>2026-07-27T11:43:11.000Z</time>
      </trkpt>
      <trkpt lat="44.551" lon="6.48866">
        <ele>789.210961</ele>
        <time>2026-07-27T11:43:11.000Z</time>
      </trkpt>
      <trkpt lat="44.55098" lon="6.48865">
        <ele>789.232681</ele>
        <time>2026-07-27T11:43:12.000Z</time>
      </trkpt>
      <trkpt lat="44.55097" lon="6.48863">
        <ele>789.247767</ele>
        <time>2026-07-27T11:43:12.000Z</time>
      </trkpt>
      <trkpt lat="44.55097" lon="6.48863">
        <ele>789.247767</ele>
        <time>2026-07-27T11:43:12.000Z</time>
      </trkpt>
      <trkpt lat="44.55096" lon="6.48861">
        <ele>789.264276</ele>
        <time>2026-07-27T11:43:14.000Z</time>
      </trkpt>
      <trkpt lat="44.55095" lon="6.48856">
        <ele>789.311562</ele>
        <time>2026-07-27T11:43:16.000Z</time>
      </trkpt>
      <trkpt lat="44.55095" lon="6.48856">
        <ele>789.311562</ele>
        <time>2026-07-27T11:43:16.000Z</time>
      </trkpt>
      <trkpt lat="44.55095" lon="6.48854">
        <ele>789.32834</ele>
        <time>2026-07-27T11:43:17.000Z</time>
      </trkpt>
      <trkpt lat="44.55095" lon="6.48852">
        <ele>789.345117</ele>
        <time>2026-07-27T11:43:18.000Z</time>
      </trkpt>
      <trkpt lat="44.55096" lon="6.48849">
        <ele>789.366497</ele>
        <time>2026-07-27T11:43:19.000Z</time>
      </trkpt>
      <trkpt lat="44.55097" lon="6.48847">
        <ele>789.386251</ele>
        <time>2026-07-27T11:43:19.000Z</time>
      </trkpt>
      <trkpt lat="44.55098" lon="6.48845">
        <ele>789.402625</ele>
        <time>2026-07-27T11:43:21.000Z</time>
      </trkpt>
      <trkpt lat="44.55099" lon="6.48843">
        <ele>789.41778</ele>
        <time>2026-07-27T11:43:22.000Z</time>
      </trkpt>
      <trkpt lat="44.55099" lon="6.48843">
        <ele>789.41778</ele>
        <time>2026-07-27T11:43:22.000Z</time>
      </trkpt>
      <trkpt lat="44.551" lon="6.48838">
        <ele>789.459652</ele>
        <time>2026-07-27T11:43:24.000Z</time>
      </trkpt>
      <trkpt lat="44.55101" lon="6.48837">
        <ele>789.470582</ele>
        <time>2026-07-27T11:43:25.000Z</time>
      </trkpt>
      <trkpt lat="44.55101" lon="6.48836">
        <ele>789.482943</ele>
        <time>2026-07-27T11:43:26.000Z</time>
      </trkpt>
      <trkpt lat="44.55101" lon="6.48834">
        <ele>789.497497</ele>
        <time>2026-07-27T11:43:27.000Z</time>
      </trkpt>
      <trkpt lat="44.55102" lon="6.48832">
        <ele>789.51353</ele>
        <time>2026-07-27T11:43:28.000Z</time>
      </trkpt>
      <trkpt lat="44.55102" lon="6.4883">
        <ele>789.527423</ele>
        <time>2026-07-27T11:43:29.000Z</time>
      </trkpt>
      <trkpt lat="44.55102" lon="6.48828">
        <ele>789.545176</ele>
        <time>2026-07-27T11:43:30.000Z</time>
      </trkpt>
      <trkpt lat="44.55102" lon="6.48825">
        <ele>789.567559</ele>
        <time>2026-07-27T11:43:31.000Z</time>
      </trkpt>
      <trkpt lat="44.55101" lon="6.48822">
        <ele>789.589601</ele>
        <time>2026-07-27T11:43:32.000Z</time>
      </trkpt>
      <trkpt lat="44.55101" lon="6.4882">
        <ele>789.605038</ele>
        <time>2026-07-27T11:43:33.000Z</time>
      </trkpt>
      <trkpt lat="44.55101" lon="6.48815">
        <ele>789.64464</ele>
        <time>2026-07-27T11:43:35.000Z</time>
      </trkpt>
      <trkpt lat="44.55101" lon="6.48815">
        <ele>789.64464</ele>
        <time>2026-07-27T11:43:36.000Z</time>
      </trkpt>
      <trkpt lat="44.55101" lon="6.48812">
        <ele>789.667795</ele>
        <time>2026-07-27T11:43:37.000Z</time>
      </trkpt>
      <trkpt lat="44.55101" lon="6.48812">
        <ele>789.672394</ele>
        <time>2026-07-27T11:43:37.000Z</time>
      </trkpt>
      <trkpt lat="44.55101" lon="6.4881">
        <ele>789.682428</ele>
        <time>2026-07-27T11:43:39.000Z</time>
      </trkpt>
      <trkpt lat="44.551" lon="6.48806">
        <ele>789.716665</ele>
        <time>2026-07-27T11:43:41.000Z</time>
      </trkpt>
      <trkpt lat="44.551" lon="6.48805">
        <ele>789.728243</ele>
        <time>2026-07-27T11:43:41.000Z</time>
      </trkpt>
      <trkpt lat="44.551" lon="6.48799">
        <ele>789.76851</ele>
        <time>2026-07-27T11:43:43.000Z</time>
      </trkpt>
      <trkpt lat="44.551" lon="6.48798">
        <ele>789.778544</ele>
        <time>2026-07-27T11:43:44.000Z</time>
      </trkpt>
      <trkpt lat="44.551" lon="6.48794">
        <ele>789.810356</ele>
        <time>2026-07-27T11:43:46.000Z</time>
      </trkpt>
      <trkpt lat="44.551" lon="6.48793">
        <ele>789.821162</ele>
        <time>2026-07-27T11:43:48.000Z</time>
      </trkpt>
      <trkpt lat="44.55101" lon="6.48791">
        <ele>789.836454</ele>
        <time>2026-07-27T11:43:49.000Z</time>
      </trkpt>
      <trkpt lat="44.55101" lon="6.48788">
        <ele>789.858065</ele>
        <time>2026-07-27T11:43:50.000Z</time>
      </trkpt>
      <trkpt lat="44.55101" lon="6.48781">
        <ele>789.818189</ele>
        <time>2026-07-27T11:43:52.000Z</time>
      </trkpt>
      <trkpt lat="44.55101" lon="6.48779">
        <ele>789.777654</ele>
        <time>2026-07-27T11:43:53.000Z</time>
      </trkpt>
      <trkpt lat="44.55101" lon="6.48776">
        <ele>789.727324</ele>
        <time>2026-07-27T11:43:54.000Z</time>
      </trkpt>
      <trkpt lat="44.55101" lon="6.48776">
        <ele>789.727324</ele>
        <time>2026-07-27T11:43:54.000Z</time>
      </trkpt>
      <trkpt lat="44.55101" lon="6.48773">
        <ele>789.67269</ele>
        <time>2026-07-27T11:43:55.000Z</time>
      </trkpt>
      <trkpt lat="44.55102" lon="6.4877">
        <ele>789.615431</ele>
        <time>2026-07-27T11:43:56.000Z</time>
      </trkpt>
      <trkpt lat="44.55103" lon="6.48767">
        <ele>789.559082</ele>
        <time>2026-07-27T11:43:57.000Z</time>
      </trkpt>
      <trkpt lat="44.55104" lon="6.48764">
        <ele>789.50917</ele>
        <time>2026-07-27T11:43:58.000Z</time>
      </trkpt>
      <trkpt lat="44.55104" lon="6.48761">
        <ele>789.454535</ele>
        <time>2026-07-27T11:43:59.000Z</time>
      </trkpt>
      <trkpt lat="44.55104" lon="6.48758">
        <ele>789.400746</ele>
        <time>2026-07-27T11:44:00.000Z</time>
      </trkpt>
      <trkpt lat="44.55104" lon="6.48758">
        <ele>789.400746</ele>
        <time>2026-07-27T11:44:00.000Z</time>
      </trkpt>
      <trkpt lat="44.55104" lon="6.48755">
        <ele>789.3491</ele>
        <time>2026-07-27T11:44:00.000Z</time>
      </trkpt>
      <trkpt lat="44.55105" lon="6.48752">
        <ele>789.291842</ele>
        <time>2026-07-27T11:44:02.000Z</time>
      </trkpt>
      <trkpt lat="44.55105" lon="6.48749">
        <ele>789.234584</ele>
        <time>2026-07-27T11:44:03.000Z</time>
      </trkpt>
      <trkpt lat="44.55106" lon="6.48745">
        <ele>789.166885</ele>
        <time>2026-07-27T11:44:04.000Z</time>
      </trkpt>
      <trkpt lat="44.55106" lon="6.48745">
        <ele>789.166885</ele>
        <time>2026-07-27T11:44:04.000Z</time>
      </trkpt>
      <trkpt lat="44.55106" lon="6.48742">
        <ele>789.108778</ele>
        <time>2026-07-27T11:44:05.000Z</time>
      </trkpt>
      <trkpt lat="44.55106" lon="6.48739">
        <ele>789.047094</ele>
        <time>2026-07-27T11:44:06.000Z</time>
      </trkpt>
      <trkpt lat="44.55107" lon="6.48735">
        <ele>788.988463</ele>
        <time>2026-07-27T11:44:07.000Z</time>
      </trkpt>
      <trkpt lat="44.55107" lon="6.48735">
        <ele>788.988463</ele>
        <time>2026-07-27T11:44:07.000Z</time>
      </trkpt>
      <trkpt lat="44.55107" lon="6.48732">
        <ele>788.929468</ele>
        <time>2026-07-27T11:44:08.000Z</time>
      </trkpt>
      <trkpt lat="44.55108" lon="6.48728">
        <ele>788.865255</ele>
        <time>2026-07-27T11:44:09.000Z</time>
      </trkpt>
      <trkpt lat="44.55108" lon="6.48728">
        <ele>788.865255</ele>
        <time>2026-07-27T11:44:09.000Z</time>
      </trkpt>
      <trkpt lat="44.55108" lon="6.48725">
        <ele>788.809732</ele>
        <time>2026-07-27T11:44:10.000Z</time>
      </trkpt>
      <trkpt lat="44.55108" lon="6.48723">
        <ele>788.759402</ele>
        <time>2026-07-27T11:44:11.000Z</time>
      </trkpt>
      <trkpt lat="44.55109" lon="6.48719">
        <ele>788.704266</ele>
        <time>2026-07-27T11:44:12.000Z</time>
      </trkpt>
      <trkpt lat="44.55109" lon="6.48719">
        <ele>788.704266</ele>
        <time>2026-07-27T11:44:12.000Z</time>
      </trkpt>
      <trkpt lat="44.55109" lon="6.48716">
        <ele>788.646107</ele>
        <time>2026-07-27T11:44:13.000Z</time>
      </trkpt>
      <trkpt lat="44.55109" lon="6.48713">
        <ele>788.583634</ele>
        <time>2026-07-27T11:44:14.000Z</time>
      </trkpt>
      <trkpt lat="44.55109" lon="6.48713">
        <ele>788.583634</ele>
        <time>2026-07-27T11:44:14.000Z</time>
      </trkpt>
      <trkpt lat="44.5511" lon="6.4871">
        <ele>788.525527</ele>
        <time>2026-07-27T11:44:15.000Z</time>
      </trkpt>
      <trkpt lat="44.5511" lon="6.48706">
        <ele>788.470004</ele>
        <time>2026-07-27T11:44:16.000Z</time>
      </trkpt>
      <trkpt lat="44.5511" lon="6.48706">
        <ele>788.470004</ele>
        <time>2026-07-27T11:44:16.000Z</time>
      </trkpt>
      <trkpt lat="44.55111" lon="6.48703">
        <ele>788.400831</ele>
        <time>2026-07-27T11:44:17.000Z</time>
      </trkpt>
      <trkpt lat="44.55111" lon="6.48699">
        <ele>788.330335</ele>
        <time>2026-07-27T11:44:18.000Z</time>
      </trkpt>
      <trkpt lat="44.55111" lon="6.48699">
        <ele>788.330335</ele>
        <time>2026-07-27T11:44:18.000Z</time>
      </trkpt>
      <trkpt lat="44.55111" lon="6.48695">
        <ele>788.263363</ele>
        <time>2026-07-27T11:44:19.000Z</time>
      </trkpt>
      <trkpt lat="44.5511" lon="6.48691">
        <ele>788.187345</ele>
        <time>2026-07-27T11:44:20.000Z</time>
      </trkpt>
      <trkpt lat="44.5511" lon="6.48691">
        <ele>788.187345</ele>
        <time>2026-07-27T11:44:20.000Z</time>
      </trkpt>
      <trkpt lat="44.55109" lon="6.48686">
        <ele>788.104314</ele>
        <time>2026-07-27T11:44:21.000Z</time>
      </trkpt>
      <trkpt lat="44.55109" lon="6.48686">
        <ele>788.104314</ele>
        <time>2026-07-27T11:44:21.000Z</time>
      </trkpt>
      <trkpt lat="44.55107" lon="6.48681">
        <ele>787.996592</ele>
        <time>2026-07-27T11:44:22.000Z</time>
      </trkpt>
      <trkpt lat="44.55106" lon="6.48675">
        <ele>787.894216</ele>
        <time>2026-07-27T11:44:23.000Z</time>
      </trkpt>
      <trkpt lat="44.55106" lon="6.48675">
        <ele>787.894216</ele>
        <time>2026-07-27T11:44:23.000Z</time>
      </trkpt>
      <trkpt lat="44.55104" lon="6.4867">
        <ele>787.789518</ele>
        <time>2026-07-27T11:44:24.000Z</time>
      </trkpt>
      <trkpt lat="44.55103" lon="6.48665">
        <ele>787.700349</ele>
        <time>2026-07-27T11:44:25.000Z</time>
      </trkpt>
      <trkpt lat="44.55103" lon="6.48665">
        <ele>787.700349</ele>
        <time>2026-07-27T11:44:25.000Z</time>
      </trkpt>
      <trkpt lat="44.55101" lon="6.48662">
        <ele>787.618537</ele>
        <time>2026-07-27T11:44:26.000Z</time>
      </trkpt>
      <trkpt lat="44.55098" lon="6.48658">
        <ele>787.538436</ele>
        <time>2026-07-27T11:44:27.000Z</time>
      </trkpt>
      <trkpt lat="44.55098" lon="6.48658">
        <ele>787.538436</ele>
        <time>2026-07-27T11:44:27.000Z</time>
      </trkpt>
      <trkpt lat="44.55096" lon="6.48656">
        <ele>787.47156</ele>
        <time>2026-07-27T11:44:28.000Z</time>
      </trkpt>
      <trkpt lat="44.55096" lon="6.48656">
        <ele>787.47156</ele>
        <time>2026-07-27T11:44:28.000Z</time>
      </trkpt>
      <trkpt lat="44.55095" lon="6.48653">
        <ele>787.407145</ele>
        <time>2026-07-27T11:44:29.000Z</time>
      </trkpt>
      <trkpt lat="44.55092" lon="6.48651">
        <ele>787.329196</ele>
        <time>2026-07-27T11:44:30.000Z</time>
      </trkpt>
      <trkpt lat="44.55092" lon="6.48651">
        <ele>787.329196</ele>
        <time>2026-07-27T11:44:30.000Z</time>
      </trkpt>
      <trkpt lat="44.5509" lon="6.48649">
        <ele>787.271367</ele>
        <time>2026-07-27T11:44:31.000Z</time>
      </trkpt>
      <trkpt lat="44.55088" lon="6.48647">
        <ele>787.217452</ele>
        <time>2026-07-27T11:44:32.000Z</time>
      </trkpt>
      <trkpt lat="44.55088" lon="6.48647">
        <ele>787.217452</ele>
        <time>2026-07-27T11:44:32.000Z</time>
      </trkpt>
      <trkpt lat="44.55086" lon="6.48646">
        <ele>787.163536</ele>
        <time>2026-07-27T11:44:33.000Z</time>
      </trkpt>
      <trkpt lat="44.55084" lon="6.48645">
        <ele>787.101534</ele>
        <time>2026-07-27T11:44:34.000Z</time>
      </trkpt>
      <trkpt lat="44.55084" lon="6.48645">
        <ele>787.101534</ele>
        <time>2026-07-27T11:44:34.000Z</time>
      </trkpt>
      <trkpt lat="44.55082" lon="6.48643">
        <ele>787.050004</ele>
        <time>2026-07-27T11:44:35.000Z</time>
      </trkpt>
      <trkpt lat="44.5508" lon="6.48641">
        <ele>786.992304</ele>
        <time>2026-07-27T11:44:36.000Z</time>
      </trkpt>
      <trkpt lat="44.5508" lon="6.48641">
        <ele>786.992304</ele>
        <time>2026-07-27T11:44:36.000Z</time>
      </trkpt>
      <trkpt lat="44.55078" lon="6.4864">
        <ele>786.935609</ele>
        <time>2026-07-27T11:44:37.000Z</time>
      </trkpt>
      <trkpt lat="44.55077" lon="6.48637">
        <ele>786.882319</ele>
        <time>2026-07-27T11:44:38.000Z</time>
      </trkpt>
      <trkpt lat="44.55076" lon="6.48634">
        <ele>786.829152</ele>
        <time>2026-07-27T11:44:39.000Z</time>
      </trkpt>
      <trkpt lat="44.55076" lon="6.48634">
        <ele>786.829152</ele>
        <time>2026-07-27T11:44:39.000Z</time>
      </trkpt>
      <trkpt lat="44.55076" lon="6.48632">
        <ele>786.790842</ele>
        <time>2026-07-27T11:44:40.000Z</time>
      </trkpt>
      <trkpt lat="44.55077" lon="6.48631">
        <ele>786.742253</ele>
        <time>2026-07-27T11:44:41.000Z</time>
      </trkpt>
      <trkpt lat="44.55079" lon="6.4863">
        <ele>786.694737</ele>
        <time>2026-07-27T11:44:42.000Z</time>
      </trkpt>
      <trkpt lat="44.55079" lon="6.4863">
        <ele>786.694737</ele>
        <time>2026-07-27T11:44:42.000Z</time>
      </trkpt>
      <trkpt lat="44.55082" lon="6.4863">
        <ele>786.630219</ele>
        <time>2026-07-27T11:44:43.000Z</time>
      </trkpt>
      <trkpt lat="44.55085" lon="6.48631">
        <ele>786.562613</ele>
        <time>2026-07-27T11:44:44.000Z</time>
      </trkpt>
      <trkpt lat="44.55087" lon="6.48632">
        <ele>786.502518</ele>
        <time>2026-07-27T11:44:45.000Z</time>
      </trkpt>
      <trkpt lat="44.5509" lon="6.48634">
        <ele>786.424329</ele>
        <time>2026-07-27T11:44:46.000Z</time>
      </trkpt>
      <trkpt lat="44.55091" lon="6.48634">
        <ele>786.403326</ele>
        <time>2026-07-27T11:44:47.000Z</time>
      </trkpt>
      <trkpt lat="44.55091" lon="6.48634">
        <ele>786.403326</ele>
        <time>2026-07-27T11:44:47.000Z</time>
      </trkpt>
      <trkpt lat="44.55096" lon="6.48635">
        <ele>786.267826</ele>
        <time>2026-07-27T11:44:48.000Z</time>
      </trkpt>
      <trkpt lat="44.551" lon="6.48635">
        <ele>786.173583</ele>
        <time>2026-07-27T11:44:49.000Z</time>
      </trkpt>
      <trkpt lat="44.55104" lon="6.48634">
        <ele>786.077966</ele>
        <time>2026-07-27T11:44:50.000Z</time>
      </trkpt>
      <trkpt lat="44.55107" lon="6.48632">
        <ele>785.989278</ele>
        <time>2026-07-27T11:44:51.000Z</time>
      </trkpt>
      <trkpt lat="44.55109" lon="6.48631">
        <ele>785.927955</ele>
        <time>2026-07-27T11:44:52.000Z</time>
      </trkpt>
      <trkpt lat="44.55109" lon="6.48631">
        <ele>785.927955</ele>
        <time>2026-07-27T11:44:52.000Z</time>
      </trkpt>
      <trkpt lat="44.55113" lon="6.48629">
        <ele>785.845642</ele>
        <time>2026-07-27T11:44:53.000Z</time>
      </trkpt>
      <trkpt lat="44.55116" lon="6.48627">
        <ele>785.743294</ele>
        <time>2026-07-27T11:44:54.000Z</time>
      </trkpt>
      <trkpt lat="44.55119" lon="6.48625">
        <ele>785.65958</ele>
        <time>2026-07-27T11:44:55.000Z</time>
      </trkpt>
      <trkpt lat="44.55119" lon="6.48625">
        <ele>785.65958</ele>
        <time>2026-07-27T11:44:55.000Z</time>
      </trkpt>
      <trkpt lat="44.55122" lon="6.48623">
        <ele>785.596855</ele>
        <time>2026-07-27T11:44:56.000Z</time>
      </trkpt>
      <trkpt lat="44.55124" lon="6.48623">
        <ele>785.539294</ele>
        <time>2026-07-27T11:44:57.000Z</time>
      </trkpt>
      <trkpt lat="44.55124" lon="6.48623">
        <ele>785.539294</ele>
        <time>2026-07-27T11:44:57.000Z</time>
      </trkpt>
      <trkpt lat="44.55127" lon="6.48622">
        <ele>785.469251</ele>
        <time>2026-07-27T11:44:58.000Z</time>
      </trkpt>
      <trkpt lat="44.55127" lon="6.48622">
        <ele>785.469251</ele>
        <time>2026-07-27T11:44:58.000Z</time>
      </trkpt>
      <trkpt lat="44.55129" lon="6.48619">
        <ele>785.437486</ele>
        <time>2026-07-27T11:44:59.000Z</time>
      </trkpt>
      <trkpt lat="44.55129" lon="6.48619">
        <ele>785.437486</ele>
        <time>2026-07-27T11:44:59.000Z</time>
      </trkpt>
      <trkpt lat="44.55132" lon="6.48616">
        <ele>785.447191</ele>
        <time>2026-07-27T11:45:00.000Z</time>
      </trkpt>
      <trkpt lat="44.55132" lon="6.48616">
        <ele>785.447191</ele>
        <time>2026-07-27T11:45:00.000Z</time>
      </trkpt>
      <trkpt lat="44.55135" lon="6.48612">
        <ele>785.457419</ele>
        <time>2026-07-27T11:45:01.000Z</time>
      </trkpt>
      <trkpt lat="44.55137" lon="6.48608">
        <ele>785.468061</ele>
        <time>2026-07-27T11:45:02.000Z</time>
      </trkpt>
      <trkpt lat="44.55137" lon="6.48608">
        <ele>785.468061</ele>
        <time>2026-07-27T11:45:02.000Z</time>
      </trkpt>
      <trkpt lat="44.5514" lon="6.48604">
        <ele>785.479547</ele>
        <time>2026-07-27T11:45:03.000Z</time>
      </trkpt>
      <trkpt lat="44.5514" lon="6.48604">
        <ele>785.479547</ele>
        <time>2026-07-27T11:45:03.000Z</time>
      </trkpt>
      <trkpt lat="44.55143" lon="6.486">
        <ele>785.490961</ele>
        <time>2026-07-27T11:45:04.000Z</time>
      </trkpt>
      <trkpt lat="44.55143" lon="6.486">
        <ele>785.490961</ele>
        <time>2026-07-27T11:45:04.000Z</time>
      </trkpt>
      <trkpt lat="44.55146" lon="6.48596">
        <ele>785.502446</ele>
        <time>2026-07-27T11:45:05.000Z</time>
      </trkpt>
      <trkpt lat="44.55146" lon="6.48596">
        <ele>785.502446</ele>
        <time>2026-07-27T11:45:05.000Z</time>
      </trkpt>
      <trkpt lat="44.55149" lon="6.48592">
        <ele>785.512675</ele>
        <time>2026-07-27T11:45:06.000Z</time>
      </trkpt>
      <trkpt lat="44.55152" lon="6.48589">
        <ele>785.522711</ele>
        <time>2026-07-27T11:45:07.000Z</time>
      </trkpt>
      <trkpt lat="44.55152" lon="6.48589">
        <ele>785.522711</ele>
        <time>2026-07-27T11:45:07.000Z</time>
      </trkpt>
      <trkpt lat="44.55155" lon="6.48584">
        <ele>785.534257</ele>
        <time>2026-07-27T11:45:08.000Z</time>
      </trkpt>
      <trkpt lat="44.55157" lon="6.48581">
        <ele>785.543453</ele>
        <time>2026-07-27T11:45:09.000Z</time>
      </trkpt>
      <trkpt lat="44.55157" lon="6.48581">
        <ele>785.543453</ele>
        <time>2026-07-27T11:45:09.000Z</time>
      </trkpt>
      <trkpt lat="44.55159" lon="6.48577">
        <ele>785.552791</ele>
        <time>2026-07-27T11:45:10.000Z</time>
      </trkpt>
      <trkpt lat="44.55161" lon="6.48574">
        <ele>785.56129</ele>
        <time>2026-07-27T11:45:11.000Z</time>
      </trkpt>
      <trkpt lat="44.55164" lon="6.48571">
        <ele>785.569542</ele>
        <time>2026-07-27T11:45:12.000Z</time>
      </trkpt>
      <trkpt lat="44.55166" lon="6.4857">
        <ele>785.576193</ele>
        <time>2026-07-27T11:45:13.000Z</time>
      </trkpt>
      <trkpt lat="44.55168" lon="6.48571">
        <ele>785.581517</ele>
        <time>2026-07-27T11:45:14.000Z</time>
      </trkpt>
      <trkpt lat="44.5517" lon="6.48572">
        <ele>785.587426</ele>
        <time>2026-07-27T11:45:15.000Z</time>
      </trkpt>
      <trkpt lat="44.55171" lon="6.48573">
        <ele>785.591654</ele>
        <time>2026-07-27T11:45:16.000Z</time>
      </trkpt>
      <trkpt lat="44.55172" lon="6.48573">
        <ele>785.594733</ele>
        <time>2026-07-27T11:45:16.000Z</time>
      </trkpt>
      <trkpt lat="44.55174" lon="6.48572">
        <ele>785.598186</ele>
        <time>2026-07-27T11:45:18.000Z</time>
      </trkpt>
      <trkpt lat="44.55174" lon="6.48572">
        <ele>785.598186</ele>
        <time>2026-07-27T11:45:19.000Z</time>
      </trkpt>
      <trkpt lat="44.55174" lon="6.48569">
        <ele>785.603981</ele>
        <time>2026-07-27T11:45:20.000Z</time>
      </trkpt>
      <trkpt lat="44.55172" lon="6.48566">
        <ele>785.612202</ele>
        <time>2026-07-27T11:45:22.000Z</time>
      </trkpt>
      <trkpt lat="44.55171" lon="6.48564">
        <ele>785.616465</ele>
        <time>2026-07-27T11:45:23.000Z</time>
      </trkpt>
      <trkpt lat="44.5517" lon="6.48562">
        <ele>785.621235</ele>
        <time>2026-07-27T11:45:24.000Z</time>
      </trkpt>
      <trkpt lat="44.55169" lon="6.48559">
        <ele>785.628156</ele>
        <time>2026-07-27T11:45:25.000Z</time>
      </trkpt>
      <trkpt lat="44.55169" lon="6.48559">
        <ele>785.628156</ele>
        <time>2026-07-27T11:45:25.000Z</time>
      </trkpt>
      <trkpt lat="44.55167" lon="6.48555">
        <ele>785.636045</ele>
        <time>2026-07-27T11:45:26.000Z</time>
      </trkpt>
      <trkpt lat="44.55166" lon="6.48551">
        <ele>785.645292</ele>
        <time>2026-07-27T11:45:27.000Z</time>
      </trkpt>
      <trkpt lat="44.55164" lon="6.48546">
        <ele>785.655005</ele>
        <time>2026-07-27T11:45:28.000Z</time>
      </trkpt>
      <trkpt lat="44.55164" lon="6.48541">
        <ele>785.665226</ele>
        <time>2026-07-27T11:45:29.000Z</time>
      </trkpt>
      <trkpt lat="44.55164" lon="6.48541">
        <ele>785.665226</ele>
        <time>2026-07-27T11:45:29.000Z</time>
      </trkpt>
      <trkpt lat="44.55163" lon="6.48536">
        <ele>785.675879</ele>
        <time>2026-07-27T11:45:30.000Z</time>
      </trkpt>
      <trkpt lat="44.55162" lon="6.48531">
        <ele>785.685597</ele>
        <time>2026-07-27T11:45:31.000Z</time>
      </trkpt>
      <trkpt lat="44.55163" lon="6.48526">
        <ele>785.694931</ele>
        <time>2026-07-27T11:45:32.000Z</time>
      </trkpt>
      <trkpt lat="44.55163" lon="6.48526">
        <ele>785.694931</ele>
        <time>2026-07-27T11:45:32.000Z</time>
      </trkpt>
      <trkpt lat="44.55164" lon="6.48522">
        <ele>785.703314</ele>
        <time>2026-07-27T11:45:33.000Z</time>
      </trkpt>
      <trkpt lat="44.55165" lon="6.48518">
        <ele>785.711595</ele>
        <time>2026-07-27T11:45:34.000Z</time>
      </trkpt>
      <trkpt lat="44.55165" lon="6.48518">
        <ele>785.711595</ele>
        <time>2026-07-27T11:45:34.000Z</time>
      </trkpt>
      <trkpt lat="44.55166" lon="6.48514">
        <ele>785.719992</ele>
        <time>2026-07-27T11:45:35.000Z</time>
      </trkpt>
      <trkpt lat="44.55167" lon="6.48509">
        <ele>785.729413</ele>
        <time>2026-07-27T11:45:36.000Z</time>
      </trkpt>
      <trkpt lat="44.55167" lon="6.48509">
        <ele>785.729413</ele>
        <time>2026-07-27T11:45:36.000Z</time>
      </trkpt>
      <trkpt lat="44.55169" lon="6.48506">
        <ele>785.737635</ele>
        <time>2026-07-27T11:45:37.000Z</time>
      </trkpt>
      <trkpt lat="44.55169" lon="6.48506">
        <ele>785.737635</ele>
        <time>2026-07-27T11:45:37.000Z</time>
      </trkpt>
      <trkpt lat="44.55171" lon="6.48502">
        <ele>785.7466</ele>
        <time>2026-07-27T11:45:38.000Z</time>
      </trkpt>
      <trkpt lat="44.55172" lon="6.48499">
        <ele>785.754161</ele>
        <time>2026-07-27T11:45:39.000Z</time>
      </trkpt>
      <trkpt lat="44.55172" lon="6.48499">
        <ele>785.754161</ele>
        <time>2026-07-27T11:45:39.000Z</time>
      </trkpt>
      <trkpt lat="44.55174" lon="6.48496">
        <ele>785.760651</ele>
        <time>2026-07-27T11:45:40.000Z</time>
      </trkpt>
      <trkpt lat="44.55174" lon="6.48496">
        <ele>785.760651</ele>
        <time>2026-07-27T11:45:40.000Z</time>
      </trkpt>
      <trkpt lat="44.55175" lon="6.48493">
        <ele>785.767729</ele>
        <time>2026-07-27T11:45:41.000Z</time>
      </trkpt>
      <trkpt lat="44.55175" lon="6.48493">
        <ele>785.767729</ele>
        <time>2026-07-27T11:45:41.000Z</time>
      </trkpt>
      <trkpt lat="44.55177" lon="6.4849">
        <ele>785.774495</ele>
        <time>2026-07-27T11:45:42.000Z</time>
      </trkpt>
      <trkpt lat="44.55178" lon="6.48488">
        <ele>785.779788</ele>
        <time>2026-07-27T11:45:43.000Z</time>
      </trkpt>
      <trkpt lat="44.55178" lon="6.48488">
        <ele>785.779788</ele>
        <time>2026-07-27T11:45:43.000Z</time>
      </trkpt>
      <trkpt lat="44.55178" lon="6.48485">
        <ele>785.785196</ele>
        <time>2026-07-27T11:45:44.000Z</time>
      </trkpt>
      <trkpt lat="44.55178" lon="6.48485">
        <ele>785.785196</ele>
        <time>2026-07-27T11:45:44.000Z</time>
      </trkpt>
      <trkpt lat="44.55177" lon="6.48481">
        <ele>785.792424</ele>
        <time>2026-07-27T11:45:45.000Z</time>
      </trkpt>
      <trkpt lat="44.55177" lon="6.48478">
        <ele>785.798889</ele>
        <time>2026-07-27T11:45:46.000Z</time>
      </trkpt>
      <trkpt lat="44.55177" lon="6.48475">
        <ele>785.804297</ele>
        <time>2026-07-27T11:45:47.000Z</time>
      </trkpt>
      <trkpt lat="44.55177" lon="6.48475">
        <ele>785.804297</ele>
        <time>2026-07-27T11:45:47.000Z</time>
      </trkpt>
      <trkpt lat="44.55177" lon="6.48473">
        <ele>785.80874</ele>
        <time>2026-07-27T11:45:48.000Z</time>
      </trkpt>
      <trkpt lat="44.55177" lon="6.48472">
        <ele>785.811058</ele>
        <time>2026-07-27T11:45:49.000Z</time>
      </trkpt>
      <trkpt lat="44.55177" lon="6.48472">
        <ele>785.811058</ele>
        <time>2026-07-27T11:45:49.000Z</time>
      </trkpt>
      <trkpt lat="44.55178" lon="6.4847">
        <ele>785.814992</ele>
        <time>2026-07-27T11:46:17.000Z</time>
      </trkpt>
      <trkpt lat="44.55178" lon="6.4847">
        <ele>785.814992</ele>
        <time>2026-07-27T11:46:17.000Z</time>
      </trkpt>
      <trkpt lat="44.5518" lon="6.48482">
        <ele>785.83893</ele>
        <time>2026-07-27T11:53:56.000Z</time>
      </trkpt>
      <trkpt lat="44.5518" lon="6.48482">
        <ele>785.83893</ele>
        <time>2026-07-27T11:53:56.000Z</time>
      </trkpt>
      <trkpt lat="44.5518" lon="6.48482">
        <ele>785.839123</ele>
        <time>2026-07-27T11:53:58.000Z</time>
      </trkpt>
      <trkpt lat="44.5518" lon="6.48482">
        <ele>785.839123</ele>
        <time>2026-07-27T11:54:08.000Z</time>
      </trkpt>
      <trkpt lat="44.5518" lon="6.48482">
        <ele>785.839123</ele>
        <time>2026-07-27T11:54:09.000Z</time>
      </trkpt>
      <trkpt lat="44.5518" lon="6.48482">
        <ele>785.839509</ele>
        <time>2026-07-27T11:54:11.000Z</time>
      </trkpt>
      <trkpt lat="44.5518" lon="6.48482">
        <ele>785.839895</ele>
        <time>2026-07-27T11:54:13.000Z</time>
      </trkpt>
      <trkpt lat="44.5518" lon="6.48481">
        <ele>785.841054</ele>
        <time>2026-07-27T11:54:13.000Z</time>
      </trkpt>
      <trkpt lat="44.55177" lon="6.48483">
        <ele>785.850819</ele>
        <time>2026-07-27T11:54:15.000Z</time>
      </trkpt>
      <trkpt lat="44.55175" lon="6.48485">
        <ele>785.857879</ele>
        <time>2026-07-27T11:54:15.000Z</time>
      </trkpt>
      <trkpt lat="44.55173" lon="6.48487">
        <ele>785.864555</ele>
        <time>2026-07-27T11:54:18.000Z</time>
      </trkpt>
      <trkpt lat="44.55172" lon="6.48489">
        <ele>785.869435</ele>
        <time>2026-07-27T11:54:18.000Z</time>
      </trkpt>
      <trkpt lat="44.55172" lon="6.48489">
        <ele>785.869435</ele>
        <time>2026-07-27T11:54:18.000Z</time>
      </trkpt>
      <trkpt lat="44.55169" lon="6.48497">
        <ele>785.886532</ele>
        <time>2026-07-27T11:54:20.000Z</time>
      </trkpt>
      <trkpt lat="44.55166" lon="6.48505">
        <ele>785.904689</ele>
        <time>2026-07-27T11:54:20.000Z</time>
      </trkpt>
      <trkpt lat="44.55166" lon="6.48505">
        <ele>785.904689</ele>
        <time>2026-07-27T11:54:20.000Z</time>
      </trkpt>
      <trkpt lat="44.55164" lon="6.48509">
        <ele>785.914135</ele>
        <time>2026-07-27T11:54:22.000Z</time>
      </trkpt>
      <trkpt lat="44.55162" lon="6.48518">
        <ele>785.920705</ele>
        <time>2026-07-27T11:54:24.000Z</time>
      </trkpt>
      <trkpt lat="44.55162" lon="6.48518">
        <ele>785.920705</ele>
        <time>2026-07-27T11:54:24.000Z</time>
      </trkpt>
      <trkpt lat="44.55161" lon="6.48525">
        <ele>785.920705</ele>
        <time>2026-07-27T11:54:26.000Z</time>
      </trkpt>
      <trkpt lat="44.55161" lon="6.48525">
        <ele>785.920705</ele>
        <time>2026-07-27T11:54:26.000Z</time>
      </trkpt>
      <trkpt lat="44.55161" lon="6.48525">
        <ele>785.920705</ele>
        <time>2026-07-27T11:54:26.000Z</time>
      </trkpt>
      <trkpt lat="44.55161" lon="6.48525">
        <ele>785.920705</ele>
        <time>2026-07-27T11:54:45.000Z</time>
      </trkpt>
      <trkpt lat="44.5516" lon="6.48527">
        <ele>785.920705</ele>
        <time>2026-07-27T11:54:46.000Z</time>
      </trkpt>
      <trkpt lat="44.5516" lon="6.48527">
        <ele>785.920705</ele>
        <time>2026-07-27T11:54:46.000Z</time>
      </trkpt>
      <trkpt lat="44.5516" lon="6.48527">
        <ele>785.920705</ele>
        <time>2026-07-27T11:54:47.000Z</time>
      </trkpt>
      <trkpt lat="44.55159" lon="6.48525">
        <ele>785.920705</ele>
        <time>2026-07-27T11:54:48.000Z</time>
      </trkpt>
      <trkpt lat="44.55159" lon="6.48525">
        <ele>785.920705</ele>
        <time>2026-07-27T11:54:50.000Z</time>
      </trkpt>
      <trkpt lat="44.55161" lon="6.48525">
        <ele>785.920705</ele>
        <time>2026-07-27T11:54:52.000Z</time>
      </trkpt>
      <trkpt lat="44.55161" lon="6.48526">
        <ele>785.920705</ele>
        <time>2026-07-27T11:54:53.000Z</time>
      </trkpt>
      <trkpt lat="44.55162" lon="6.48526">
        <ele>785.920705</ele>
        <time>2026-07-27T11:54:56.000Z</time>
      </trkpt>
      <trkpt lat="44.55161" lon="6.48533">
        <ele>785.920705</ele>
        <time>2026-07-27T11:56:17.000Z</time>
      </trkpt>
      <trkpt lat="44.55161" lon="6.48534">
        <ele>785.920705</ele>
        <time>2026-07-27T11:56:17.000Z</time>
      </trkpt>
      <trkpt lat="44.55161" lon="6.48538">
        <ele>785.920705</ele>
        <time>2026-07-27T11:56:19.000Z</time>
      </trkpt>
      <trkpt lat="44.55161" lon="6.48538">
        <ele>785.920705</ele>
        <time>2026-07-27T11:56:19.000Z</time>
      </trkpt>
      <trkpt lat="44.5516" lon="6.48541">
        <ele>785.920705</ele>
        <time>2026-07-27T11:56:19.000Z</time>
      </trkpt>
      <trkpt lat="44.55161" lon="6.48544">
        <ele>785.920705</ele>
        <time>2026-07-27T11:56:20.000Z</time>
      </trkpt>
      <trkpt lat="44.55161" lon="6.48548">
        <ele>785.920705</ele>
        <time>2026-07-27T11:56:21.000Z</time>
      </trkpt>
      <trkpt lat="44.55161" lon="6.48548">
        <ele>785.920705</ele>
        <time>2026-07-27T11:56:21.000Z</time>
      </trkpt>
      <trkpt lat="44.55162" lon="6.48551">
        <ele>785.920705</ele>
        <time>2026-07-27T11:56:22.000Z</time>
      </trkpt>
      <trkpt lat="44.55164" lon="6.48553">
        <ele>785.920705</ele>
        <time>2026-07-27T11:56:24.000Z</time>
      </trkpt>
      <trkpt lat="44.55165" lon="6.48556">
        <ele>785.920705</ele>
        <time>2026-07-27T11:56:25.000Z</time>
      </trkpt>
      <trkpt lat="44.55166" lon="6.48557">
        <ele>785.920705</ele>
        <time>2026-07-27T11:56:25.000Z</time>
      </trkpt>
      <trkpt lat="44.55166" lon="6.48557">
        <ele>785.920705</ele>
        <time>2026-07-27T11:56:25.000Z</time>
      </trkpt>
      <trkpt lat="44.55167" lon="6.48558">
        <ele>785.920705</ele>
        <time>2026-07-27T11:56:27.000Z</time>
      </trkpt>
      <trkpt lat="44.55168" lon="6.48558">
        <ele>785.920705</ele>
        <time>2026-07-27T11:56:27.000Z</time>
      </trkpt>
      <trkpt lat="44.55169" lon="6.48558">
        <ele>785.920705</ele>
        <time>2026-07-27T11:56:29.000Z</time>
      </trkpt>
      <trkpt lat="44.5517" lon="6.48558">
        <ele>785.920705</ele>
        <time>2026-07-27T11:56:29.000Z</time>
      </trkpt>
      <trkpt lat="44.55172" lon="6.48555">
        <ele>785.920705</ele>
        <time>2026-07-27T11:56:30.000Z</time>
      </trkpt>
      <trkpt lat="44.55172" lon="6.48552">
        <ele>785.920705</ele>
        <time>2026-07-27T11:56:31.000Z</time>
      </trkpt>
      <trkpt lat="44.55172" lon="6.48551">
        <ele>785.920705</ele>
        <time>2026-07-27T11:56:32.000Z</time>
      </trkpt>
      <trkpt lat="44.55173" lon="6.48549">
        <ele>785.920705</ele>
        <time>2026-07-27T11:56:34.000Z</time>
      </trkpt>
      <trkpt lat="44.55173" lon="6.48549">
        <ele>785.920705</ele>
        <time>2026-07-27T11:56:34.000Z</time>
      </trkpt>
      <trkpt lat="44.55174" lon="6.48549">
        <ele>785.920705</ele>
        <time>2026-07-27T11:56:34.000Z</time>
      </trkpt>
      <trkpt lat="44.55175" lon="6.48548">
        <ele>785.920705</ele>
        <time>2026-07-27T11:56:35.000Z</time>
      </trkpt>
      <trkpt lat="44.55177" lon="6.48546">
        <ele>785.920705</ele>
        <time>2026-07-27T11:56:36.000Z</time>
      </trkpt>
      <trkpt lat="44.55178" lon="6.48544">
        <ele>785.920705</ele>
        <time>2026-07-27T11:56:37.000Z</time>
      </trkpt>
      <trkpt lat="44.55179" lon="6.48542">
        <ele>785.920705</ele>
        <time>2026-07-27T11:56:38.000Z</time>
      </trkpt>
      <trkpt lat="44.55179" lon="6.48542">
        <ele>785.920705</ele>
        <time>2026-07-27T11:56:38.000Z</time>
      </trkpt>
      <trkpt lat="44.5518" lon="6.4854">
        <ele>785.920705</ele>
        <time>2026-07-27T11:56:40.000Z</time>
      </trkpt>
      <trkpt lat="44.55182" lon="6.48539">
        <ele>785.920705</ele>
        <time>2026-07-27T11:56:40.000Z</time>
      </trkpt>
      <trkpt lat="44.55182" lon="6.48539">
        <ele>785.920705</ele>
        <time>2026-07-27T11:56:40.000Z</time>
      </trkpt>
      <trkpt lat="44.55184" lon="6.48536">
        <ele>785.920705</ele>
        <time>2026-07-27T11:56:41.000Z</time>
      </trkpt>
      <trkpt lat="44.55185" lon="6.48534">
        <ele>785.920705</ele>
        <time>2026-07-27T11:56:42.000Z</time>
      </trkpt>
      <trkpt lat="44.55185" lon="6.48534">
        <ele>785.920705</ele>
        <time>2026-07-27T11:56:42.000Z</time>
      </trkpt>
      <trkpt lat="44.55188" lon="6.48532">
        <ele>785.920705</ele>
        <time>2026-07-27T11:56:43.000Z</time>
      </trkpt>
      <trkpt lat="44.5519" lon="6.48529">
        <ele>785.920705</ele>
        <time>2026-07-27T11:56:45.000Z</time>
      </trkpt>
      <trkpt lat="44.5519" lon="6.48529">
        <ele>785.920705</ele>
        <time>2026-07-27T11:56:45.000Z</time>
      </trkpt>
      <trkpt lat="44.5519" lon="6.48529">
        <ele>785.920705</ele>
        <time>2026-07-27T11:56:45.000Z</time>
      </trkpt>
      <trkpt lat="44.5519" lon="6.48529">
        <ele>785.920705</ele>
        <time>2026-07-27T11:56:45.000Z</time>
      </trkpt>
      <trkpt lat="44.55191" lon="6.48527">
        <ele>785.920705</ele>
        <time>2026-07-27T11:56:46.000Z</time>
      </trkpt>
      <trkpt lat="44.55193" lon="6.48524">
        <ele>785.920705</ele>
        <time>2026-07-27T11:56:47.000Z</time>
      </trkpt>
      <trkpt lat="44.55193" lon="6.48524">
        <ele>785.920705</ele>
        <time>2026-07-27T11:56:47.000Z</time>
      </trkpt>
      <trkpt lat="44.55195" lon="6.48522">
        <ele>785.920705</ele>
        <time>2026-07-27T11:56:48.000Z</time>
      </trkpt>
      <trkpt lat="44.55195" lon="6.48522">
        <ele>785.920705</ele>
        <time>2026-07-27T11:56:48.000Z</time>
      </trkpt>
      <trkpt lat="44.55198" lon="6.48518">
        <ele>785.920705</ele>
        <time>2026-07-27T11:56:49.000Z</time>
      </trkpt>
      <trkpt lat="44.55201" lon="6.48512">
        <ele>785.920705</ele>
        <time>2026-07-27T11:56:50.000Z</time>
      </trkpt>
      <trkpt lat="44.55201" lon="6.48512">
        <ele>785.920705</ele>
        <time>2026-07-27T11:56:50.000Z</time>
      </trkpt>
      <trkpt lat="44.55204" lon="6.48508">
        <ele>785.920705</ele>
        <time>2026-07-27T11:56:51.000Z</time>
      </trkpt>
      <trkpt lat="44.55206" lon="6.48505">
        <ele>785.920705</ele>
        <time>2026-07-27T11:56:53.000Z</time>
      </trkpt>
      <trkpt lat="44.55206" lon="6.48505">
        <ele>785.920705</ele>
        <time>2026-07-27T11:56:53.000Z</time>
      </trkpt>
      <trkpt lat="44.55208" lon="6.48502">
        <ele>785.920705</ele>
        <time>2026-07-27T11:56:53.000Z</time>
      </trkpt>
      <trkpt lat="44.55211" lon="6.48499">
        <ele>785.920705</ele>
        <time>2026-07-27T11:56:54.000Z</time>
      </trkpt>
      <trkpt lat="44.55211" lon="6.48499">
        <ele>785.920705</ele>
        <time>2026-07-27T11:56:54.000Z</time>
      </trkpt>
      <trkpt lat="44.55212" lon="6.48496">
        <ele>785.920705</ele>
        <time>2026-07-27T11:56:55.000Z</time>
      </trkpt>
      <trkpt lat="44.55214" lon="6.48492">
        <ele>785.920705</ele>
        <time>2026-07-27T11:56:56.000Z</time>
      </trkpt>
      <trkpt lat="44.55216" lon="6.48489">
        <ele>785.920705</ele>
        <time>2026-07-27T11:56:57.000Z</time>
      </trkpt>
      <trkpt lat="44.55216" lon="6.48489">
        <ele>785.920705</ele>
        <time>2026-07-27T11:56:57.000Z</time>
      </trkpt>
      <trkpt lat="44.55219" lon="6.48486">
        <ele>785.920705</ele>
        <time>2026-07-27T11:56:58.000Z</time>
      </trkpt>
      <trkpt lat="44.5522" lon="6.48483">
        <ele>785.920705</ele>
        <time>2026-07-27T11:56:59.000Z</time>
      </trkpt>
      <trkpt lat="44.55223" lon="6.4848">
        <ele>785.920705</ele>
        <time>2026-07-27T11:57:00.000Z</time>
      </trkpt>
      <trkpt lat="44.55225" lon="6.48477">
        <ele>785.920705</ele>
        <time>2026-07-27T11:57:01.000Z</time>
      </trkpt>
      <trkpt lat="44.55225" lon="6.48477">
        <ele>785.920705</ele>
        <time>2026-07-27T11:57:01.000Z</time>
      </trkpt>
      <trkpt lat="44.55227" lon="6.48474">
        <ele>785.920705</ele>
        <time>2026-07-27T11:57:02.000Z</time>
      </trkpt>
      <trkpt lat="44.55229" lon="6.48471">
        <ele>785.920705</ele>
        <time>2026-07-27T11:57:03.000Z</time>
      </trkpt>
      <trkpt lat="44.55232" lon="6.48468">
        <ele>785.920705</ele>
        <time>2026-07-27T11:57:04.000Z</time>
      </trkpt>
      <trkpt lat="44.55232" lon="6.48468">
        <ele>785.920705</ele>
        <time>2026-07-27T11:57:04.000Z</time>
      </trkpt>
      <trkpt lat="44.55236" lon="6.48462">
        <ele>785.920705</ele>
        <time>2026-07-27T11:57:05.000Z</time>
      </trkpt>
      <trkpt lat="44.55236" lon="6.48462">
        <ele>785.920705</ele>
        <time>2026-07-27T11:57:05.000Z</time>
      </trkpt>
      <trkpt lat="44.55238" lon="6.48459">
        <ele>785.920705</ele>
        <time>2026-07-27T11:57:07.000Z</time>
      </trkpt>
      <trkpt lat="44.55241" lon="6.48455">
        <ele>785.920705</ele>
        <time>2026-07-27T11:57:08.000Z</time>
      </trkpt>
      <trkpt lat="44.55243" lon="6.48452">
        <ele>785.920705</ele>
        <time>2026-07-27T11:57:09.000Z</time>
      </trkpt>
      <trkpt lat="44.55243" lon="6.48452">
        <ele>785.920705</ele>
        <time>2026-07-27T11:57:09.000Z</time>
      </trkpt>
      <trkpt lat="44.55245" lon="6.48449">
        <ele>785.920705</ele>
        <time>2026-07-27T11:57:10.000Z</time>
      </trkpt>
      <trkpt lat="44.55246" lon="6.48447">
        <ele>785.920705</ele>
        <time>2026-07-27T11:57:11.000Z</time>
      </trkpt>
      <trkpt lat="44.55246" lon="6.48447">
        <ele>785.920705</ele>
        <time>2026-07-27T11:57:11.000Z</time>
      </trkpt>
      <trkpt lat="44.55248" lon="6.48445">
        <ele>785.920705</ele>
        <time>2026-07-27T11:57:12.000Z</time>
      </trkpt>
      <trkpt lat="44.55248" lon="6.48445">
        <ele>785.920705</ele>
        <time>2026-07-27T11:57:12.000Z</time>
      </trkpt>
      <trkpt lat="44.55249" lon="6.48442">
        <ele>785.920705</ele>
        <time>2026-07-27T11:57:13.000Z</time>
      </trkpt>
      <trkpt lat="44.5525" lon="6.4844">
        <ele>785.920705</ele>
        <time>2026-07-27T11:57:14.000Z</time>
      </trkpt>
      <trkpt lat="44.5525" lon="6.4844">
        <ele>785.920705</ele>
        <time>2026-07-27T11:57:14.000Z</time>
      </trkpt>
      <trkpt lat="44.5525" lon="6.48438">
        <ele>785.920705</ele>
        <time>2026-07-27T11:57:15.000Z</time>
      </trkpt>
      <trkpt lat="44.5525" lon="6.48438">
        <ele>785.920705</ele>
        <time>2026-07-27T11:57:15.000Z</time>
      </trkpt>
      <trkpt lat="44.55251" lon="6.48436">
        <ele>785.920705</ele>
        <time>2026-07-27T11:57:16.000Z</time>
      </trkpt>
      <trkpt lat="44.55251" lon="6.48433">
        <ele>785.920705</ele>
        <time>2026-07-27T11:57:17.000Z</time>
      </trkpt>
      <trkpt lat="44.55251" lon="6.48433">
        <ele>785.920705</ele>
        <time>2026-07-27T11:57:17.000Z</time>
      </trkpt>
      <trkpt lat="44.55251" lon="6.48431">
        <ele>785.920705</ele>
        <time>2026-07-27T11:57:18.000Z</time>
      </trkpt>
      <trkpt lat="44.55251" lon="6.48431">
        <ele>785.920705</ele>
        <time>2026-07-27T11:57:18.000Z</time>
      </trkpt>
      <trkpt lat="44.55251" lon="6.48431">
        <ele>785.920705</ele>
        <time>2026-07-27T11:57:20.000Z</time>
      </trkpt>
      <trkpt lat="44.5525" lon="6.48429">
        <ele>785.920705</ele>
        <time>2026-07-27T11:57:25.000Z</time>
      </trkpt>
      <trkpt lat="44.5525" lon="6.48429">
        <ele>785.920705</ele>
        <time>2026-07-27T11:57:25.000Z</time>
      </trkpt>
      <trkpt lat="44.5525" lon="6.48429">
        <ele>785.920705</ele>
        <time>2026-07-27T11:57:32.000Z</time>
      </trkpt>
      <trkpt lat="44.5525" lon="6.48429">
        <ele>785.920705</ele>
        <time>2026-07-27T11:57:32.000Z</time>
      </trkpt>
      <trkpt lat="44.5525" lon="6.48429">
        <ele>785.920705</ele>
        <time>2026-07-27T11:57:57.000Z</time>
      </trkpt>
      <trkpt lat="44.5525" lon="6.48429">
        <ele>785.920705</ele>
        <time>2026-07-27T11:57:58.000Z</time>
      </trkpt>
    </trkseg>
  </trk>
</gpx>